<?xml version='1.0' encoding='UTF-8'?><gpx version="1.1" creator="JPX - https://github.com/jenetics/jpx" xmlns="http://www.topografix.com/GPX/1/1"><trk><trkseg><trkpt lat="45.50023527143337" lon="9.130992066881774"><ele>136.0</ele><time>2026-03-29T12:40:00Z</time></trkpt><trkpt lat="45.50030374770961" lon="9.130999573629126"><ele>136.0</ele><time>2026-03-29T12:40:18.999Z</time></trkpt><trkpt lat="45.50023650463375" lon="9.131003890219475"><ele>136.0</ele><time>2026-03-29T12:40:32.999Z</time></trkpt><trkpt lat="45.500143788060285" lon="9.131083087232945"><ele>136.0</ele><time>2026-03-29T12:40:42.999Z</time></trkpt><trkpt lat="45.500204443474715" lon="9.13105180241669"><ele>136.0</ele><time>2026-03-29T12:40:43.999Z</time></trkpt><trkpt lat="45.50026230901115" lon="9.130924739962463"><ele>136.0</ele><time>2026-03-29T12:41:14.999Z</time></trkpt><trkpt lat="45.50024573512285" lon="9.130835409692176"><ele>136.0</ele><time>2026-03-29T12:41:19.999Z</time></trkpt><trkpt lat="45.50029688897804" lon="9.130743748252957"><ele>136.0</ele><time>2026-03-29T12:41:22.999Z</time></trkpt><trkpt lat="45.500430251110586" lon="9.130764440980089"><ele>136.0</ele><time>2026-03-29T12:41:24.999Z</time></trkpt><trkpt lat="45.50050089061501" lon="9.130805499016327"><ele>136.0</ele><time>2026-03-29T12:41:25.999Z</time></trkpt><trkpt lat="45.50058798292813" lon="9.130803274217369"><ele>136.0</ele><time>2026-03-29T12:41:26.999Z</time></trkpt><trkpt lat="45.50068574769424" lon="9.130771213261298"><ele>135.8</ele><time>2026-03-29T12:41:27.999Z</time></trkpt><trkpt lat="45.500790515882464" lon="9.13077373123398"><ele>135.6</ele><time>2026-03-29T12:41:28.999Z</time></trkpt><trkpt lat="45.50085407649172" lon="9.130780273574459"><ele>135.4</ele><time>2026-03-29T12:41:29.999Z</time></trkpt><trkpt lat="45.500965419892594" lon="9.130760267049137"><ele>135.2</ele><time>2026-03-29T12:41:30.999Z</time></trkpt><trkpt lat="45.50104555641069" lon="9.13074854747024"><ele>135.0</ele><time>2026-03-29T12:41:32Z</time></trkpt><trkpt lat="45.5011976586001" lon="9.130769223177634"><ele>135.33333333333334</ele><time>2026-03-29T12:41:33Z</time></trkpt><trkpt lat="45.501347419802194" lon="9.1308027406064"><ele>135.66666666666669</ele><time>2026-03-29T12:41:34Z</time></trkpt><trkpt lat="45.50154409324877" lon="9.130751068015337"><ele>136.0</ele><time>2026-03-29T12:41:35Z</time></trkpt><trkpt lat="45.50172107527073" lon="9.130742748812738"><ele>136.0</ele><time>2026-03-29T12:41:36Z</time></trkpt><trkpt lat="45.50192381442713" lon="9.13075548523686"><ele>136.0</ele><time>2026-03-29T12:41:37Z</time></trkpt><trkpt lat="45.502114151126584" lon="9.130736702940698"><ele>136.0</ele><time>2026-03-29T12:41:38Z</time></trkpt><trkpt lat="45.502260691123865" lon="9.1307262600259"><ele>135.0</ele><time>2026-03-29T12:41:39Z</time></trkpt><trkpt lat="45.50241661598332" lon="9.13072495395797"><ele>134.0</ele><time>2026-03-29T12:41:40Z</time></trkpt><trkpt lat="45.502617952976514" lon="9.130767035051212"><ele>133.0</ele><time>2026-03-29T12:41:41Z</time></trkpt><trkpt lat="45.50281341129933" lon="9.130764859764906"><ele>132.66666666666669</ele><time>2026-03-29T12:41:42Z</time></trkpt><trkpt lat="45.503001222164" lon="9.130771839446943"><ele>132.33333333333334</ele><time>2026-03-29T12:41:43Z</time></trkpt><trkpt lat="45.503195222424885" lon="9.130785634410959"><ele>132.0</ele><time>2026-03-29T12:41:44Z</time></trkpt><trkpt lat="45.50338340777726" lon="9.130795306662856"><ele>132.0</ele><time>2026-03-29T12:41:45Z</time></trkpt><trkpt lat="45.50357773639427" lon="9.130801609903795"><ele>132.0</ele><time>2026-03-29T12:41:46Z</time></trkpt><trkpt lat="45.5037748153311" lon="9.130812063327282"><ele>132.0</ele><time>2026-03-29T12:41:47Z</time></trkpt><trkpt lat="45.503979779150605" lon="9.130817956743842"><ele>133.0</ele><time>2026-03-29T12:41:48Z</time></trkpt><trkpt lat="45.50419209338783" lon="9.130822447911093"><ele>134.0</ele><time>2026-03-29T12:41:49Z</time></trkpt><trkpt lat="45.50440430425527" lon="9.1308177182836"><ele>135.0</ele><time>2026-03-29T12:41:50Z</time></trkpt><trkpt lat="45.504595294923405" lon="9.13083479232728"><ele>135.66666666666666</ele><time>2026-03-29T12:41:51Z</time></trkpt><trkpt lat="45.50480618100774" lon="9.130845556102637"><ele>136.33333333333331</ele><time>2026-03-29T12:41:52Z</time></trkpt><trkpt lat="45.50498183510864" lon="9.130830536634473"><ele>137.0</ele><time>2026-03-29T12:41:53Z</time></trkpt><trkpt lat="45.50517763993504" lon="9.13079020741916"><ele>137.0</ele><time>2026-03-29T12:41:54Z</time></trkpt><trkpt lat="45.505360745298766" lon="9.130780559767613"><ele>137.0</ele><time>2026-03-29T12:41:55Z</time></trkpt><trkpt lat="45.50553674817986" lon="9.130761608298466"><ele>137.0</ele><time>2026-03-29T12:41:56Z</time></trkpt><trkpt lat="45.50570229672554" lon="9.130740610891042"><ele>137.0</ele><time>2026-03-29T12:41:57Z</time></trkpt><trkpt lat="45.505885902419365" lon="9.13072704257052"><ele>137.0</ele><time>2026-03-29T12:41:58Z</time></trkpt><trkpt lat="45.506069129360625" lon="9.130705558867092"><ele>137.0</ele><time>2026-03-29T12:41:59Z</time></trkpt><trkpt lat="45.5062502161892" lon="9.130684320018652"><ele>137.0</ele><time>2026-03-29T12:42:00Z</time></trkpt><trkpt lat="45.50642845494728" lon="9.130660094613937"><ele>137.0</ele><time>2026-03-29T12:42:01Z</time></trkpt><trkpt lat="45.506633600578596" lon="9.130631804958478"><ele>137.0</ele><time>2026-03-29T12:42:02Z</time></trkpt><trkpt lat="45.506824296659936" lon="9.13058656947186"><ele>137.0</ele><time>2026-03-29T12:42:03Z</time></trkpt><trkpt lat="45.507015937748534" lon="9.130545034384772"><ele>137.0</ele><time>2026-03-29T12:42:04Z</time></trkpt><trkpt lat="45.50721109813632" lon="9.130509635722925"><ele>137.0</ele><time>2026-03-29T12:42:05Z</time></trkpt><trkpt lat="45.507407902686055" lon="9.130463193933087"><ele>137.66666666666666</ele><time>2026-03-29T12:42:06Z</time></trkpt><trkpt lat="45.507610467412924" lon="9.130419720971263"><ele>138.33333333333334</ele><time>2026-03-29T12:42:07Z</time></trkpt><trkpt lat="45.507796050210395" lon="9.130368301998947"><ele>139.0</ele><time>2026-03-29T12:42:08Z</time></trkpt><trkpt lat="45.507978840406665" lon="9.130326783103106"><ele>140.0</ele><time>2026-03-29T12:42:09Z</time></trkpt><trkpt lat="45.50816396067197" lon="9.13028378308744"><ele>141.0</ele><time>2026-03-29T12:42:10Z</time></trkpt><trkpt lat="45.50835340560845" lon="9.130241465297598"><ele>142.0</ele><time>2026-03-29T12:42:11Z</time></trkpt><trkpt lat="45.50854030808996" lon="9.130199644505039"><ele>142.0</ele><time>2026-03-29T12:42:12Z</time></trkpt><trkpt lat="45.50873066708545" lon="9.130150111123388"><ele>142.0</ele><time>2026-03-29T12:42:13Z</time></trkpt><trkpt lat="45.50891790500132" lon="9.130100898570795"><ele>142.0</ele><time>2026-03-29T12:42:14Z</time></trkpt><trkpt lat="45.50911268736463" lon="9.130033717907237"><ele>141.0</ele><time>2026-03-29T12:42:15Z</time></trkpt><trkpt lat="45.50931041217295" lon="9.12995457205119"><ele>140.0</ele><time>2026-03-29T12:42:16Z</time></trkpt><trkpt lat="45.509494685099725" lon="9.129863851701494"><ele>139.0</ele><time>2026-03-29T12:42:17Z</time></trkpt><trkpt lat="45.509674896761375" lon="9.129760761757236"><ele>138.66666666666669</ele><time>2026-03-29T12:42:18Z</time></trkpt><trkpt lat="45.509844244242494" lon="9.129652985925985"><ele>138.33333333333334</ele><time>2026-03-29T12:42:19Z</time></trkpt><trkpt lat="45.51000900861688" lon="9.129537290300458"><ele>138.0</ele><time>2026-03-29T12:42:20Z</time></trkpt><trkpt lat="45.51015892462082" lon="9.129400058617149"><ele>138.0</ele><time>2026-03-29T12:42:21Z</time></trkpt><trkpt lat="45.51032732426672" lon="9.129265672454634"><ele>138.0</ele><time>2026-03-29T12:42:22Z</time></trkpt><trkpt lat="45.51048613617969" lon="9.1290883607239"><ele>138.0</ele><time>2026-03-29T12:42:23Z</time></trkpt><trkpt lat="45.51064661158352" lon="9.12890084978578"><ele>137.0</ele><time>2026-03-29T12:42:24Z</time></trkpt><trkpt lat="45.51078185486416" lon="9.128683219268382"><ele>136.0</ele><time>2026-03-29T12:42:25Z</time></trkpt><trkpt lat="45.510926584628876" lon="9.128474841049194"><ele>135.0</ele><time>2026-03-29T12:42:26Z</time></trkpt><trkpt lat="45.51106126092584" lon="9.128262949468896"><ele>135.33333333333334</ele><time>2026-03-29T12:42:27Z</time></trkpt><trkpt lat="45.51120365084425" lon="9.128043416108177"><ele>135.66666666666669</ele><time>2026-03-29T12:42:27.999Z</time></trkpt><trkpt lat="45.51134768353303" lon="9.12785996610682"><ele>136.0</ele><time>2026-03-29T12:42:28.999Z</time></trkpt><trkpt lat="45.5114838720354" lon="9.1276421777422"><ele>136.33333333333334</ele><time>2026-03-29T12:42:29.999Z</time></trkpt><trkpt lat="45.51161663920705" lon="9.127421538289493"><ele>136.66666666666666</ele><time>2026-03-29T12:42:30.999Z</time></trkpt><trkpt lat="45.511751201639704" lon="9.127208379391613"><ele>137.0</ele><time>2026-03-29T12:42:31.999Z</time></trkpt><trkpt lat="45.511880165911236" lon="9.127014933173259"><ele>137.0</ele><time>2026-03-29T12:42:32.999Z</time></trkpt><trkpt lat="45.51200953347524" lon="9.126828559853319"><ele>137.0</ele><time>2026-03-29T12:42:33.999Z</time></trkpt><trkpt lat="45.51213392193818" lon="9.126647072444436"><ele>137.0</ele><time>2026-03-29T12:42:34.999Z</time></trkpt><trkpt lat="45.51225415034348" lon="9.126448184892322"><ele>137.33333333333331</ele><time>2026-03-29T12:42:35.999Z</time></trkpt><trkpt lat="45.512371295636605" lon="9.126246860595597"><ele>137.66666666666666</ele><time>2026-03-29T12:42:36.999Z</time></trkpt><trkpt lat="45.51252476483222" lon="9.126052971470807"><ele>138.0</ele><time>2026-03-29T12:42:37.999Z</time></trkpt><trkpt lat="45.5126777932921" lon="9.125860114984492"><ele>138.0</ele><time>2026-03-29T12:42:38.999Z</time></trkpt><trkpt lat="45.5128306860975" lon="9.125633355223234"><ele>138.0</ele><time>2026-03-29T12:42:39.999Z</time></trkpt><trkpt lat="45.512937898451824" lon="9.12546319969889"><ele>138.0</ele><time>2026-03-29T12:42:40.999Z</time></trkpt><trkpt lat="45.51307572008737" lon="9.125279858387351"><ele>138.0</ele><time>2026-03-29T12:42:41.999Z</time></trkpt><trkpt lat="45.5132136873363" lon="9.125078094900783"><ele>138.0</ele><time>2026-03-29T12:42:42.999Z</time></trkpt><trkpt lat="45.51334551413025" lon="9.124858792871283"><ele>138.0</ele><time>2026-03-29T12:42:43.999Z</time></trkpt><trkpt lat="45.51349293370024" lon="9.124649534574932"><ele>138.0</ele><time>2026-03-29T12:42:44.999Z</time></trkpt><trkpt lat="45.513636952318755" lon="9.124422354810266"><ele>138.0</ele><time>2026-03-29T12:42:45.999Z</time></trkpt><trkpt lat="45.513788264115576" lon="9.124181843440436"><ele>138.0</ele><time>2026-03-29T12:42:46.999Z</time></trkpt><trkpt lat="45.51391916836415" lon="9.123971708534816"><ele>138.66666666666666</ele><time>2026-03-29T12:42:47.999Z</time></trkpt><trkpt lat="45.51405780198545" lon="9.123758903849957"><ele>139.33333333333331</ele><time>2026-03-29T12:42:48.999Z</time></trkpt><trkpt lat="45.51420203988119" lon="9.123560419764587"><ele>140.0</ele><time>2026-03-29T12:42:49.999Z</time></trkpt><trkpt lat="45.51433370135782" lon="9.123365151413426"><ele>139.66666666666666</ele><time>2026-03-29T12:42:50.999Z</time></trkpt><trkpt lat="45.51446322296068" lon="9.123149957429739"><ele>139.33333333333334</ele><time>2026-03-29T12:42:51.999Z</time></trkpt><trkpt lat="45.51461134900363" lon="9.122915159506148"><ele>139.0</ele><time>2026-03-29T12:42:52.999Z</time></trkpt><trkpt lat="45.514772873827475" lon="9.122657687158204"><ele>140.0</ele><time>2026-03-29T12:42:53.999Z</time></trkpt><trkpt lat="45.51489783529233" lon="9.12242255918081"><ele>141.0</ele><time>2026-03-29T12:42:54.999Z</time></trkpt><trkpt lat="45.515020645752834" lon="9.122208519265975"><ele>142.0</ele><time>2026-03-29T12:42:55.999Z</time></trkpt><trkpt lat="45.515149252181715" lon="9.121979528670122"><ele>142.0</ele><time>2026-03-29T12:42:56.999Z</time></trkpt><trkpt lat="45.51527865037472" lon="9.121763515114417"><ele>142.0</ele><time>2026-03-29T12:42:57.999Z</time></trkpt><trkpt lat="45.51539854343783" lon="9.12153561192284"><ele>142.0</ele><time>2026-03-29T12:42:58.999Z</time></trkpt><trkpt lat="45.51550903308358" lon="9.121315875442573"><ele>141.33333333333334</ele><time>2026-03-29T12:42:59.999Z</time></trkpt><trkpt lat="45.51560426626859" lon="9.121116065109053"><ele>140.66666666666666</ele><time>2026-03-29T12:43:00.999Z</time></trkpt><trkpt lat="45.51570612909395" lon="9.12091212701589"><ele>140.0</ele><time>2026-03-29T12:43:01.999Z</time></trkpt><trkpt lat="45.515796634042" lon="9.120712779880884"><ele>140.0</ele><time>2026-03-29T12:43:02.999Z</time></trkpt><trkpt lat="45.515882327283975" lon="9.120520664710869"><ele>140.0</ele><time>2026-03-29T12:43:03.999Z</time></trkpt><trkpt lat="45.51596353909422" lon="9.120325028603974"><ele>140.0</ele><time>2026-03-29T12:43:04.999Z</time></trkpt><trkpt lat="45.51601997282263" lon="9.120129673507408"><ele>140.0</ele><time>2026-03-29T12:43:05.999Z</time></trkpt><trkpt lat="45.51607708721835" lon="9.11992419209048"><ele>140.0</ele><time>2026-03-29T12:43:06.999Z</time></trkpt><trkpt lat="45.516121929671506" lon="9.119696613294982"><ele>140.0</ele><time>2026-03-29T12:43:07.999Z</time></trkpt><trkpt lat="45.51614613962369" lon="9.119452827421842"><ele>140.0</ele><time>2026-03-29T12:43:08.999Z</time></trkpt><trkpt lat="45.51616463220587" lon="9.119213751913579"><ele>140.0</ele><time>2026-03-29T12:43:09.999Z</time></trkpt><trkpt lat="45.51617311775926" lon="9.11898804968319"><ele>140.0</ele><time>2026-03-29T12:43:10.999Z</time></trkpt><trkpt lat="45.51616872575971" lon="9.118759237595517"><ele>139.0</ele><time>2026-03-29T12:43:11.999Z</time></trkpt><trkpt lat="45.51614259029522" lon="9.118531558794311"><ele>138.0</ele><time>2026-03-29T12:43:12.999Z</time></trkpt><trkpt lat="45.516113035751744" lon="9.118315056341148"><ele>137.0</ele><time>2026-03-29T12:43:13.999Z</time></trkpt><trkpt lat="45.5160701657514" lon="9.11809908748021"><ele>136.0</ele><time>2026-03-29T12:43:14.999Z</time></trkpt><trkpt lat="45.5160217985202" lon="9.117894103173288"><ele>135.0</ele><time>2026-03-29T12:43:15.999Z</time></trkpt><trkpt lat="45.51594143852034" lon="9.117677286936164"><ele>134.0</ele><time>2026-03-29T12:43:16.999Z</time></trkpt><trkpt lat="45.515922074577475" lon="9.117483472362732"><ele>134.5</ele><time>2026-03-29T12:43:17.999Z</time></trkpt><trkpt lat="45.515887463390676" lon="9.117295622811476"><ele>135.0</ele><time>2026-03-29T12:43:18.999Z</time></trkpt><trkpt lat="45.51583804212207" lon="9.117126017854732"><ele>135.5</ele><time>2026-03-29T12:43:19.999Z</time></trkpt><trkpt lat="45.51580924540373" lon="9.116965202253116"><ele>136.0</ele><time>2026-03-29T12:43:20.999Z</time></trkpt><trkpt lat="45.51577527494648" lon="9.116805284707711"><ele>136.0</ele><time>2026-03-29T12:43:21.999Z</time></trkpt><trkpt lat="45.515739113584154" lon="9.11663559506991"><ele>136.0</ele><time>2026-03-29T12:43:22.999Z</time></trkpt><trkpt lat="45.515697801442386" lon="9.11645752724568"><ele>136.0</ele><time>2026-03-29T12:43:23.999Z</time></trkpt><trkpt lat="45.51565692174927" lon="9.116270863953007"><ele>136.0</ele><time>2026-03-29T12:43:24.999Z</time></trkpt><trkpt lat="45.515621902592926" lon="9.11608327414422"><ele>136.0</ele><time>2026-03-29T12:43:25.999Z</time></trkpt><trkpt lat="45.51558614224253" lon="9.115882657798869"><ele>136.0</ele><time>2026-03-29T12:43:26.999Z</time></trkpt><trkpt lat="45.51555599882281" lon="9.115676926765182"><ele>136.0</ele><time>2026-03-29T12:43:27.999Z</time></trkpt><trkpt lat="45.51553360632436" lon="9.115456487278475"><ele>136.0</ele><time>2026-03-29T12:43:28.999Z</time></trkpt><trkpt lat="45.515518537568" lon="9.115236782389223"><ele>135.66666666666669</ele><time>2026-03-29T12:43:29.999Z</time></trkpt><trkpt lat="45.51550019752855" lon="9.11500216413721"><ele>135.33333333333334</ele><time>2026-03-29T12:43:30.999Z</time></trkpt><trkpt lat="45.51548484967333" lon="9.114776128315905"><ele>135.0</ele><time>2026-03-29T12:43:31.999Z</time></trkpt><trkpt lat="45.51547430586226" lon="9.114528949724253"><ele>135.0</ele><time>2026-03-29T12:43:32.999Z</time></trkpt><trkpt lat="45.51546020960607" lon="9.114270748257777"><ele>135.0</ele><time>2026-03-29T12:43:33.999Z</time></trkpt><trkpt lat="45.51544420708722" lon="9.114013892048236"><ele>135.0</ele><time>2026-03-29T12:43:34.999Z</time></trkpt><trkpt lat="45.51543160681496" lon="9.113784493694322"><ele>136.0</ele><time>2026-03-29T12:43:35.999Z</time></trkpt><trkpt lat="45.515417277639116" lon="9.11351634460238"><ele>137.0</ele><time>2026-03-29T12:43:36.999Z</time></trkpt><trkpt lat="45.515408318790726" lon="9.113242103369883"><ele>138.0</ele><time>2026-03-29T12:43:38Z</time></trkpt><trkpt lat="45.51539701613127" lon="9.112984756030036"><ele>138.0</ele><time>2026-03-29T12:43:39Z</time></trkpt><trkpt lat="45.515371681167444" lon="9.112760960800962"><ele>138.0</ele><time>2026-03-29T12:43:40Z</time></trkpt><trkpt lat="45.515333123843945" lon="9.112474653464089"><ele>138.0</ele><time>2026-03-29T12:43:41Z</time></trkpt><trkpt lat="45.51534176479508" lon="9.112219942913388"><ele>137.66666666666666</ele><time>2026-03-29T12:43:42Z</time></trkpt><trkpt lat="45.51533501672432" lon="9.111923283512587"><ele>137.33333333333331</ele><time>2026-03-29T12:43:43Z</time></trkpt><trkpt lat="45.51533767550378" lon="9.111643319301452"><ele>137.0</ele><time>2026-03-29T12:43:44Z</time></trkpt><trkpt lat="45.51534529470223" lon="9.111399544582374"><ele>138.66666666666666</ele><time>2026-03-29T12:43:45Z</time></trkpt><trkpt lat="45.515327272206676" lon="9.111158208331318"><ele>140.33333333333334</ele><time>2026-03-29T12:43:46Z</time></trkpt><trkpt lat="45.51531507752355" lon="9.110908164247034"><ele>142.0</ele><time>2026-03-29T12:43:47Z</time></trkpt><trkpt lat="45.51530173933448" lon="9.110674437006116"><ele>142.33333333333334</ele><time>2026-03-29T12:43:48Z</time></trkpt><trkpt lat="45.51522869443223" lon="9.110362501125605"><ele>142.66666666666666</ele><time>2026-03-29T12:43:49Z</time></trkpt><trkpt lat="45.51523201118898" lon="9.110108954267366"><ele>143.0</ele><time>2026-03-29T12:43:50Z</time></trkpt><trkpt lat="45.515197426961954" lon="9.109856716400886"><ele>142.0</ele><time>2026-03-29T12:43:51Z</time></trkpt><trkpt lat="45.51519327971244" lon="9.109508641538557"><ele>141.0</ele><time>2026-03-29T12:43:52Z</time></trkpt><trkpt lat="45.51518765820038" lon="9.109192234605292"><ele>141.5</ele><time>2026-03-29T12:43:53Z</time></trkpt><trkpt lat="45.515181793358664" lon="9.10886547934687"><ele>142.0</ele><time>2026-03-29T12:43:54Z</time></trkpt><trkpt lat="45.51516524778092" lon="9.108545014233128"><ele>142.0</ele><time>2026-03-29T12:43:55Z</time></trkpt><trkpt lat="45.51515662354099" lon="9.108232589616629"><ele>142.0</ele><time>2026-03-29T12:43:56Z</time></trkpt><trkpt lat="45.515150131677665" lon="9.107916499190317"><ele>142.0</ele><time>2026-03-29T12:43:57Z</time></trkpt><trkpt lat="45.51513456505925" lon="9.107597419621015"><ele>142.5</ele><time>2026-03-29T12:43:58Z</time></trkpt><trkpt lat="45.51513065859269" lon="9.107271352412075"><ele>143.0</ele><time>2026-03-29T12:43:59Z</time></trkpt><trkpt lat="45.515132151352965" lon="9.106929691985583"><ele>141.5</ele><time>2026-03-29T12:44:00Z</time></trkpt><trkpt lat="45.515112545460205" lon="9.10654973243856"><ele>140.0</ele><time>2026-03-29T12:44:01Z</time></trkpt><trkpt lat="45.51509942172077" lon="9.106219255594905"><ele>140.0</ele><time>2026-03-29T12:44:02Z</time></trkpt><trkpt lat="45.515088923125774" lon="9.105869593378884"><ele>140.0</ele><time>2026-03-29T12:44:03Z</time></trkpt><trkpt lat="45.51507565504737" lon="9.105520882103546"><ele>140.5</ele><time>2026-03-29T12:44:04Z</time></trkpt><trkpt lat="45.515066009341794" lon="9.105183159593127"><ele>141.0</ele><time>2026-03-29T12:44:05Z</time></trkpt><trkpt lat="45.51504909431684" lon="9.104845073699941"><ele>141.5</ele><time>2026-03-29T12:44:06Z</time></trkpt><trkpt lat="45.51503197216955" lon="9.104497342287042"><ele>142.0</ele><time>2026-03-29T12:44:07Z</time></trkpt><trkpt lat="45.515016200619705" lon="9.104151655226007"><ele>143.0</ele><time>2026-03-29T12:44:08Z</time></trkpt><trkpt lat="45.51500589741207" lon="9.103816322930005"><ele>144.0</ele><time>2026-03-29T12:44:09Z</time></trkpt><trkpt lat="45.51499486586063" lon="9.103480350911907"><ele>143.66666666666666</ele><time>2026-03-29T12:44:10Z</time></trkpt><trkpt lat="45.51497622751333" lon="9.103143404018933"><ele>143.33333333333331</ele><time>2026-03-29T12:44:11Z</time></trkpt><trkpt lat="45.51496964145163" lon="9.102854019963372"><ele>143.0</ele><time>2026-03-29T12:44:12Z</time></trkpt><trkpt lat="45.514943676288134" lon="9.102509748858878"><ele>142.0</ele><time>2026-03-29T12:44:13Z</time></trkpt><trkpt lat="45.51493016383879" lon="9.102179892035664"><ele>141.0</ele><time>2026-03-29T12:44:14Z</time></trkpt><trkpt lat="45.514929565985334" lon="9.101831919850818"><ele>141.5</ele><time>2026-03-29T12:44:15Z</time></trkpt><trkpt lat="45.51491126515245" lon="9.10151693316896"><ele>142.0</ele><time>2026-03-29T12:44:16Z</time></trkpt><trkpt lat="45.514896548804494" lon="9.10119121051727"><ele>142.0</ele><time>2026-03-29T12:44:17Z</time></trkpt><trkpt lat="45.51487647456669" lon="9.100858879993758"><ele>142.0</ele><time>2026-03-29T12:44:18Z</time></trkpt><trkpt lat="45.51485939126525" lon="9.100514063302825"><ele>142.0</ele><time>2026-03-29T12:44:19Z</time></trkpt><trkpt lat="45.51484366461704" lon="9.10015424182943"><ele>142.0</ele><time>2026-03-29T12:44:20Z</time></trkpt><trkpt lat="45.51484205033556" lon="9.099783399873704"><ele>142.5</ele><time>2026-03-29T12:44:21Z</time></trkpt><trkpt lat="45.51480670990851" lon="9.099449949837823"><ele>143.0</ele><time>2026-03-29T12:44:22Z</time></trkpt><trkpt lat="45.514798487202896" lon="9.099113909330672"><ele>143.0</ele><time>2026-03-29T12:44:23Z</time></trkpt><trkpt lat="45.51478857153446" lon="9.098780045550285"><ele>143.0</ele><time>2026-03-29T12:44:24Z</time></trkpt><trkpt lat="45.514767927002985" lon="9.098439084733451"><ele>142.0</ele><time>2026-03-29T12:44:25Z</time></trkpt><trkpt lat="45.51475741710768" lon="9.098096583181526"><ele>141.0</ele><time>2026-03-29T12:44:26Z</time></trkpt><trkpt lat="45.514804028357446" lon="9.097758158929945"><ele>141.0</ele><time>2026-03-29T12:44:27Z</time></trkpt><trkpt lat="45.51480761638046" lon="9.09743106464455"><ele>141.0</ele><time>2026-03-29T12:44:28Z</time></trkpt><trkpt lat="45.514827298419036" lon="9.097120821910293"><ele>141.0</ele><time>2026-03-29T12:44:29Z</time></trkpt><trkpt lat="45.51485344512574" lon="9.096791564990713"><ele>141.5</ele><time>2026-03-29T12:44:30Z</time></trkpt><trkpt lat="45.5148765752442" lon="9.096462811854954"><ele>142.0</ele><time>2026-03-29T12:44:31Z</time></trkpt><trkpt lat="45.51489949542481" lon="9.09613704420572"><ele>142.0</ele><time>2026-03-29T12:44:32Z</time></trkpt><trkpt lat="45.51490865191157" lon="9.095810244460845"><ele>142.0</ele><time>2026-03-29T12:44:33Z</time></trkpt><trkpt lat="45.51491422581712" lon="9.095475843417749"><ele>142.5</ele><time>2026-03-29T12:44:34Z</time></trkpt><trkpt lat="45.5145975409874" lon="9.095107677439037"><ele>143.0</ele><time>2026-03-29T12:44:35Z</time></trkpt><trkpt lat="45.51458074504472" lon="9.094776494581517"><ele>143.0</ele><time>2026-03-29T12:44:36Z</time></trkpt><trkpt lat="45.51455896948066" lon="9.094422817135756"><ele>143.0</ele><time>2026-03-29T12:44:37Z</time></trkpt><trkpt lat="45.51455378577389" lon="9.094093586744068"><ele>143.0</ele><time>2026-03-29T12:44:38Z</time></trkpt><trkpt lat="45.51454096544001" lon="9.093782720419009"><ele>143.0</ele><time>2026-03-29T12:44:39Z</time></trkpt><trkpt lat="45.514529279607096" lon="9.093459526264146"><ele>143.0</ele><time>2026-03-29T12:44:40Z</time></trkpt><trkpt lat="45.514515325315976" lon="9.093130914894477"><ele>143.0</ele><time>2026-03-29T12:44:41Z</time></trkpt><trkpt lat="45.51449871586504" lon="9.092791734878217"><ele>143.0</ele><time>2026-03-29T12:44:42Z</time></trkpt><trkpt lat="45.514486700005165" lon="9.09244767762424"><ele>142.5</ele><time>2026-03-29T12:44:43Z</time></trkpt><trkpt lat="45.51447311412289" lon="9.092103237520961"><ele>142.0</ele><time>2026-03-29T12:44:44Z</time></trkpt><trkpt lat="45.51445755635058" lon="9.091759786320674"><ele>141.5</ele><time>2026-03-29T12:44:45Z</time></trkpt><trkpt lat="45.51444430598449" lon="9.091419649763715"><ele>141.0</ele><time>2026-03-29T12:44:46Z</time></trkpt><trkpt lat="45.514432914736595" lon="9.091086678560393"><ele>140.5</ele><time>2026-03-29T12:44:47Z</time></trkpt><trkpt lat="45.514415945589846" lon="9.090733287305182"><ele>140.0</ele><time>2026-03-29T12:44:48Z</time></trkpt><trkpt lat="45.51440333880493" lon="9.090390478228242"><ele>140.0</ele><time>2026-03-29T12:44:49Z</time></trkpt><trkpt lat="45.514385389244104" lon="9.090042609160523"><ele>140.0</ele><time>2026-03-29T12:44:49.999Z</time></trkpt><trkpt lat="45.514329403071045" lon="9.089684427951386"><ele>140.5</ele><time>2026-03-29T12:44:50.999Z</time></trkpt><trkpt lat="45.514238196205014" lon="9.08934965082461"><ele>141.0</ele><time>2026-03-29T12:44:51.999Z</time></trkpt><trkpt lat="45.51423824361865" lon="9.089028707042967"><ele>141.5</ele><time>2026-03-29T12:44:52.999Z</time></trkpt><trkpt lat="45.51426302711214" lon="9.088667795576571"><ele>142.0</ele><time>2026-03-29T12:44:53.999Z</time></trkpt><trkpt lat="45.51426843879671" lon="9.088287782758426"><ele>143.0</ele><time>2026-03-29T12:44:54.999Z</time></trkpt><trkpt lat="45.514267496872954" lon="9.087932579311444"><ele>144.0</ele><time>2026-03-29T12:44:55.999Z</time></trkpt><trkpt lat="45.51425162910771" lon="9.087572016449068"><ele>144.5</ele><time>2026-03-29T12:44:56.999Z</time></trkpt><trkpt lat="45.51423566727471" lon="9.087219130436178"><ele>145.0</ele><time>2026-03-29T12:44:57.999Z</time></trkpt><trkpt lat="45.51422660180865" lon="9.08685280359918"><ele>144.5</ele><time>2026-03-29T12:44:58.999Z</time></trkpt><trkpt lat="45.514210103036405" lon="9.086497873499404"><ele>144.0</ele><time>2026-03-29T12:44:59.999Z</time></trkpt><trkpt lat="45.5141949602961" lon="9.086133386125775"><ele>144.0</ele><time>2026-03-29T12:45:00.999Z</time></trkpt><trkpt lat="45.51417978361749" lon="9.085770494385237"><ele>144.0</ele><time>2026-03-29T12:45:01.999Z</time></trkpt><trkpt lat="45.514170955179424" lon="9.085416020222183"><ele>143.5</ele><time>2026-03-29T12:45:02.999Z</time></trkpt><trkpt lat="45.51415471432368" lon="9.085033504387393"><ele>143.0</ele><time>2026-03-29T12:45:03.999Z</time></trkpt><trkpt lat="45.5141185059709" lon="9.084699127650552"><ele>143.0</ele><time>2026-03-29T12:45:04.999Z</time></trkpt><trkpt lat="45.51410221852444" lon="9.084327111792525"><ele>143.0</ele><time>2026-03-29T12:45:05.999Z</time></trkpt><trkpt lat="45.51409592358516" lon="9.083976495128113"><ele>143.0</ele><time>2026-03-29T12:45:06.999Z</time></trkpt><trkpt lat="45.51408873923149" lon="9.083627056589926"><ele>143.0</ele><time>2026-03-29T12:45:07.999Z</time></trkpt><trkpt lat="45.51406327460355" lon="9.083277101970225"><ele>143.5</ele><time>2026-03-29T12:45:08.999Z</time></trkpt><trkpt lat="45.514050471164246" lon="9.08292316933746"><ele>144.0</ele><time>2026-03-29T12:45:09.999Z</time></trkpt><trkpt lat="45.514037924665615" lon="9.082542325529534"><ele>143.5</ele><time>2026-03-29T12:45:10.999Z</time></trkpt><trkpt lat="45.51402110602741" lon="9.08214232378585"><ele>143.0</ele><time>2026-03-29T12:45:11.999Z</time></trkpt><trkpt lat="45.51399323532336" lon="9.081729747655267"><ele>143.0</ele><time>2026-03-29T12:45:12.999Z</time></trkpt><trkpt lat="45.51397873917261" lon="9.081349219136657"><ele>143.0</ele><time>2026-03-29T12:45:13.999Z</time></trkpt><trkpt lat="45.51395896548909" lon="9.080965901674954"><ele>143.5</ele><time>2026-03-29T12:45:14.999Z</time></trkpt><trkpt lat="45.513944976807856" lon="9.080606120223052"><ele>144.0</ele><time>2026-03-29T12:45:15.999Z</time></trkpt><trkpt lat="45.51393189748918" lon="9.080290044146032"><ele>145.0</ele><time>2026-03-29T12:45:16.999Z</time></trkpt><trkpt lat="45.5138968335737" lon="9.079927877746762"><ele>146.0</ele><time>2026-03-29T12:45:17.999Z</time></trkpt><trkpt lat="45.51384535645811" lon="9.079564878478326"><ele>146.0</ele><time>2026-03-29T12:45:18.999Z</time></trkpt><trkpt lat="45.51380360040509" lon="9.079118604770098"><ele>146.0</ele><time>2026-03-29T12:45:19.999Z</time></trkpt><trkpt lat="45.51376015156064" lon="9.078669769765627"><ele>146.0</ele><time>2026-03-29T12:45:20.999Z</time></trkpt><trkpt lat="45.51382257235125" lon="9.078505887641015"><ele>146.0</ele><time>2026-03-29T12:45:21.999Z</time></trkpt><trkpt lat="45.51379963864988" lon="9.078156086170079"><ele>146.0</ele><time>2026-03-29T12:45:22.999Z</time></trkpt><trkpt lat="45.51378390795039" lon="9.077776863648944"><ele>146.0</ele><time>2026-03-29T12:45:23.999Z</time></trkpt><trkpt lat="45.51376820630208" lon="9.07744114921245"><ele>146.0</ele><time>2026-03-29T12:45:24.999Z</time></trkpt><trkpt lat="45.51375874404823" lon="9.077090905377057"><ele>145.5</ele><time>2026-03-29T12:45:25.999Z</time></trkpt><trkpt lat="45.513733275914824" lon="9.076747903982838"><ele>145.0</ele><time>2026-03-29T12:45:26.999Z</time></trkpt><trkpt lat="45.51371065652794" lon="9.076392053233846"><ele>144.5</ele><time>2026-03-29T12:45:27.999Z</time></trkpt><trkpt lat="45.51369821115732" lon="9.07604064070437"><ele>144.0</ele><time>2026-03-29T12:45:28.999Z</time></trkpt><trkpt lat="45.51368295865037" lon="9.075690607850097"><ele>143.5</ele><time>2026-03-29T12:45:29.999Z</time></trkpt><trkpt lat="45.513667616946535" lon="9.075342697735534"><ele>143.0</ele><time>2026-03-29T12:45:30.999Z</time></trkpt><trkpt lat="45.51364872755973" lon="9.074988784028045"><ele>143.5</ele><time>2026-03-29T12:45:31.999Z</time></trkpt><trkpt lat="45.51363052404024" lon="9.074634849632014"><ele>144.0</ele><time>2026-03-29T12:45:32.999Z</time></trkpt><trkpt lat="45.513606772685385" lon="9.074279847473688"><ele>143.5</ele><time>2026-03-29T12:45:33.999Z</time></trkpt><trkpt lat="45.51358901612763" lon="9.073924259777387"><ele>143.0</ele><time>2026-03-29T12:45:34.999Z</time></trkpt><trkpt lat="45.51356854812541" lon="9.073581041695373"><ele>143.0</ele><time>2026-03-29T12:45:35.999Z</time></trkpt><trkpt lat="45.51354506540332" lon="9.07322050141968"><ele>143.0</ele><time>2026-03-29T12:45:36.999Z</time></trkpt><trkpt lat="45.513531792922684" lon="9.072883506003594"><ele>143.0</ele><time>2026-03-29T12:45:37.999Z</time></trkpt><trkpt lat="45.51349642561606" lon="9.072532979797762"><ele>143.0</ele><time>2026-03-29T12:45:38.999Z</time></trkpt><trkpt lat="45.513468591470165" lon="9.072190297195164"><ele>143.0</ele><time>2026-03-29T12:45:39.999Z</time></trkpt><trkpt lat="45.513440161327196" lon="9.071849315966373"><ele>143.0</ele><time>2026-03-29T12:45:40.999Z</time></trkpt><trkpt lat="45.51341525939211" lon="9.071492863233376"><ele>142.5</ele><time>2026-03-29T12:45:41.999Z</time></trkpt><trkpt lat="45.513392120174586" lon="9.071148338419311"><ele>142.0</ele><time>2026-03-29T12:45:42.999Z</time></trkpt><trkpt lat="45.51336646775024" lon="9.070797719266166"><ele>142.5</ele><time>2026-03-29T12:45:44Z</time></trkpt><trkpt lat="45.51333204735783" lon="9.07043961119173"><ele>143.0</ele><time>2026-03-29T12:45:45Z</time></trkpt><trkpt lat="45.51333247090372" lon="9.070104532633385"><ele>143.5</ele><time>2026-03-29T12:45:46Z</time></trkpt><trkpt lat="45.513298886787325" lon="9.069757186423363"><ele>144.0</ele><time>2026-03-29T12:45:47Z</time></trkpt><trkpt lat="45.51325265847386" lon="9.069416961264158"><ele>144.0</ele><time>2026-03-29T12:45:48Z</time></trkpt><trkpt lat="45.513219568516135" lon="9.069084621489399"><ele>144.0</ele><time>2026-03-29T12:45:49Z</time></trkpt><trkpt lat="45.51319219344768" lon="9.068774931939092"><ele>144.0</ele><time>2026-03-29T12:45:50Z</time></trkpt><trkpt lat="45.5131618452269" lon="9.068414576892838"><ele>144.0</ele><time>2026-03-29T12:45:51Z</time></trkpt><trkpt lat="45.51312967045737" lon="9.068077940536265"><ele>144.5</ele><time>2026-03-29T12:45:52Z</time></trkpt><trkpt lat="45.51309698146912" lon="9.067743244607783"><ele>145.0</ele><time>2026-03-29T12:45:53Z</time></trkpt><trkpt lat="45.51306466925522" lon="9.067410440768581"><ele>145.0</ele><time>2026-03-29T12:45:54Z</time></trkpt><trkpt lat="45.513035230283386" lon="9.067084058397077"><ele>145.0</ele><time>2026-03-29T12:45:55Z</time></trkpt><trkpt lat="45.51300640396981" lon="9.066764818666645"><ele>145.0</ele><time>2026-03-29T12:45:56Z</time></trkpt><trkpt lat="45.51297397903116" lon="9.066446098313756"><ele>145.0</ele><time>2026-03-29T12:45:57Z</time></trkpt><trkpt lat="45.51294785082093" lon="9.06613307554154"><ele>145.0</ele><time>2026-03-29T12:45:58Z</time></trkpt><trkpt lat="45.51292759933382" lon="9.065855832901132"><ele>146.0</ele><time>2026-03-29T12:45:59Z</time></trkpt><trkpt lat="45.512897899375155" lon="9.06556732888431"><ele>147.0</ele><time>2026-03-29T12:46:00Z</time></trkpt><trkpt lat="45.512880331998616" lon="9.06528256229147"><ele>148.0</ele><time>2026-03-29T12:46:01Z</time></trkpt><trkpt lat="45.51283880647192" lon="9.065027922915498"><ele>147.66666666666669</ele><time>2026-03-29T12:46:02Z</time></trkpt><trkpt lat="45.512812347041596" lon="9.064758267593467"><ele>147.33333333333334</ele><time>2026-03-29T12:46:03Z</time></trkpt><trkpt lat="45.51278805198641" lon="9.064491555804818"><ele>147.0</ele><time>2026-03-29T12:46:04Z</time></trkpt><trkpt lat="45.512762524514976" lon="9.064225734390346"><ele>147.0</ele><time>2026-03-29T12:46:05Z</time></trkpt><trkpt lat="45.51273451046733" lon="9.063977942768405"><ele>147.0</ele><time>2026-03-29T12:46:06Z</time></trkpt><trkpt lat="45.5127279881763" lon="9.063797542604528"><ele>147.0</ele><time>2026-03-29T12:46:07Z</time></trkpt><trkpt lat="45.5127207685826" lon="9.063595186998922"><ele>147.0</ele><time>2026-03-29T12:46:08Z</time></trkpt><trkpt lat="45.512725166973226" lon="9.063393826762093"><ele>147.0</ele><time>2026-03-29T12:46:09Z</time></trkpt><trkpt lat="45.512753829214496" lon="9.063202444839973"><ele>147.0</ele><time>2026-03-29T12:46:10Z</time></trkpt><trkpt lat="45.51279667155878" lon="9.063025897738214"><ele>147.0</ele><time>2026-03-29T12:46:11Z</time></trkpt><trkpt lat="45.51289149942291" lon="9.062859689817257"><ele>147.0</ele><time>2026-03-29T12:46:12Z</time></trkpt><trkpt lat="45.51301830665692" lon="9.062706174800274"><ele>147.0</ele><time>2026-03-29T12:46:13Z</time></trkpt><trkpt lat="45.51309544202724" lon="9.062540941065755"><ele>147.0</ele><time>2026-03-29T12:46:14Z</time></trkpt><trkpt lat="45.513092610180635" lon="9.062389139337812"><ele>147.0</ele><time>2026-03-29T12:46:15Z</time></trkpt><trkpt lat="45.513141561429464" lon="9.062207552208903"><ele>147.0</ele><time>2026-03-29T12:46:16Z</time></trkpt><trkpt lat="45.51319224800328" lon="9.062072119100788"><ele>146.79999999999998</ele><time>2026-03-29T12:46:17Z</time></trkpt><trkpt lat="45.51323573332821" lon="9.061964470150988"><ele>146.6</ele><time>2026-03-29T12:46:18Z</time></trkpt><trkpt lat="45.513291082505546" lon="9.061821625336277"><ele>146.39999999999998</ele><time>2026-03-29T12:46:19Z</time></trkpt><trkpt lat="45.513386116135315" lon="9.06172605027934"><ele>146.2</ele><time>2026-03-29T12:46:20Z</time></trkpt><trkpt lat="45.513477504151425" lon="9.061675347149412"><ele>146.0</ele><time>2026-03-29T12:46:21Z</time></trkpt><trkpt lat="45.51357936383382" lon="9.06167731054529"><ele>146.0</ele><time>2026-03-29T12:46:22Z</time></trkpt><trkpt lat="45.51365956377015" lon="9.061671597786676"><ele>146.0</ele><time>2026-03-29T12:46:23Z</time></trkpt><trkpt lat="45.51376658371029" lon="9.061742538821372"><ele>146.0</ele><time>2026-03-29T12:46:24Z</time></trkpt><trkpt lat="45.51385109913356" lon="9.061817595898235"><ele>146.0</ele><time>2026-03-29T12:46:25Z</time></trkpt><trkpt lat="45.51391769002968" lon="9.061916199226678"><ele>146.0</ele><time>2026-03-29T12:46:26Z</time></trkpt><trkpt lat="45.51396119321149" lon="9.062029011482403"><ele>146.2</ele><time>2026-03-29T12:46:27Z</time></trkpt><trkpt lat="45.51399540053217" lon="9.062151939242437"><ele>146.39999999999998</ele><time>2026-03-29T12:46:28Z</time></trkpt><trkpt lat="45.51400794387344" lon="9.062285377518748"><ele>146.6</ele><time>2026-03-29T12:46:29Z</time></trkpt><trkpt lat="45.51400364333537" lon="9.062426664515488"><ele>146.79999999999998</ele><time>2026-03-29T12:46:30Z</time></trkpt><trkpt lat="45.513975262264395" lon="9.06256723478662"><ele>147.0</ele><time>2026-03-29T12:46:31Z</time></trkpt><trkpt lat="45.51392636813903" lon="9.06271118635472"><ele>147.0</ele><time>2026-03-29T12:46:32Z</time></trkpt><trkpt lat="45.51385975059703" lon="9.06285285884047"><ele>147.0</ele><time>2026-03-29T12:46:33Z</time></trkpt><trkpt lat="45.513770973512074" lon="9.06298351298123"><ele>147.0</ele><time>2026-03-29T12:46:34Z</time></trkpt><trkpt lat="45.51371538516482" lon="9.063055058336037"><ele>147.0</ele><time>2026-03-29T12:46:35Z</time></trkpt><trkpt lat="45.51362674209699" lon="9.06314002076046"><ele>147.0</ele><time>2026-03-29T12:46:36Z</time></trkpt><trkpt lat="45.51352707619097" lon="9.063228791853778"><ele>147.0</ele><time>2026-03-29T12:46:37Z</time></trkpt><trkpt lat="45.51341144687418" lon="9.06331475503939"><ele>147.0</ele><time>2026-03-29T12:46:38Z</time></trkpt><trkpt lat="45.513273933273126" lon="9.063396856759356"><ele>147.0</ele><time>2026-03-29T12:46:39Z</time></trkpt><trkpt lat="45.51310480313685" lon="9.063502421403534"><ele>147.0</ele><time>2026-03-29T12:46:40Z</time></trkpt><trkpt lat="45.512955977310114" lon="9.063588930421492"><ele>147.0</ele><time>2026-03-29T12:46:41Z</time></trkpt><trkpt lat="45.51278652570554" lon="9.063669092384592"><ele>147.0</ele><time>2026-03-29T12:46:42Z</time></trkpt><trkpt lat="45.51260999491514" lon="9.063740270693883"><ele>147.0</ele><time>2026-03-29T12:46:43Z</time></trkpt><trkpt lat="45.51243328925944" lon="9.063806736972113"><ele>147.0</ele><time>2026-03-29T12:46:44Z</time></trkpt><trkpt lat="45.51224541729267" lon="9.063851555730464"><ele>147.0</ele><time>2026-03-29T12:46:45Z</time></trkpt><trkpt lat="45.51205068665384" lon="9.063924148338884"><ele>146.66666666666666</ele><time>2026-03-29T12:46:46Z</time></trkpt><trkpt lat="45.51187451676662" lon="9.063953744626444"><ele>146.33333333333331</ele><time>2026-03-29T12:46:47Z</time></trkpt><trkpt lat="45.51168112367708" lon="9.063949216648414"><ele>146.0</ele><time>2026-03-29T12:46:48Z</time></trkpt><trkpt lat="45.51148554065064" lon="9.06395641671577"><ele>146.0</ele><time>2026-03-29T12:46:49Z</time></trkpt><trkpt lat="45.51128994840044" lon="9.06395660752415"><ele>146.0</ele><time>2026-03-29T12:46:50Z</time></trkpt><trkpt lat="45.511097850876574" lon="9.063944592000523"><ele>146.0</ele><time>2026-03-29T12:46:51Z</time></trkpt><trkpt lat="45.51090988283696" lon="9.063917875455868"><ele>146.33333333333331</ele><time>2026-03-29T12:46:52Z</time></trkpt><trkpt lat="45.51071361691371" lon="9.063863351007166"><ele>146.66666666666666</ele><time>2026-03-29T12:46:53Z</time></trkpt><trkpt lat="45.5105020612225" lon="9.063817926458555"><ele>147.0</ele><time>2026-03-29T12:46:54Z</time></trkpt><trkpt lat="45.51031519535934" lon="9.063745973162495"><ele>145.66666666666666</ele><time>2026-03-29T12:46:55Z</time></trkpt><trkpt lat="45.51013650850512" lon="9.063675143655974"><ele>144.33333333333331</ele><time>2026-03-29T12:46:56Z</time></trkpt><trkpt lat="45.509961327562856" lon="9.06362517830496"><ele>143.0</ele><time>2026-03-29T12:46:56.999Z</time></trkpt><trkpt lat="45.50978278528149" lon="9.063577473960796"><ele>143.0</ele><time>2026-03-29T12:46:57.999Z</time></trkpt><trkpt lat="45.509604745825186" lon="9.063534448474144"><ele>143.0</ele><time>2026-03-29T12:46:58.999Z</time></trkpt><trkpt lat="45.509428235708654" lon="9.063490686099286"><ele>143.0</ele><time>2026-03-29T12:46:59.999Z</time></trkpt><trkpt lat="45.509245347641944" lon="9.063448625279227"><ele>144.0</ele><time>2026-03-29T12:47:00.999Z</time></trkpt><trkpt lat="45.50906909456161" lon="9.063408458376921"><ele>145.0</ele><time>2026-03-29T12:47:01.999Z</time></trkpt><trkpt lat="45.50889211953553" lon="9.063394002357317"><ele>146.0</ele><time>2026-03-29T12:47:02.999Z</time></trkpt><trkpt lat="45.50872658607005" lon="9.063434464800112"><ele>146.0</ele><time>2026-03-29T12:47:03.999Z</time></trkpt><trkpt lat="45.50856535704528" lon="9.0634734185341"><ele>146.0</ele><time>2026-03-29T12:47:04.999Z</time></trkpt><trkpt lat="45.50838232100383" lon="9.063490142217264"><ele>146.0</ele><time>2026-03-29T12:47:05.999Z</time></trkpt><trkpt lat="45.50819412511659" lon="9.063522948147137"><ele>146.0</ele><time>2026-03-29T12:47:06.999Z</time></trkpt><trkpt lat="45.508004767274784" lon="9.063563730117172"><ele>146.0</ele><time>2026-03-29T12:47:07.999Z</time></trkpt><trkpt lat="45.507806099042426" lon="9.063608080772797"><ele>146.0</ele><time>2026-03-29T12:47:08.999Z</time></trkpt><trkpt lat="45.50761027932518" lon="9.063653695101046"><ele>145.0</ele><time>2026-03-29T12:47:09.999Z</time></trkpt><trkpt lat="45.50741411625241" lon="9.06371942255777"><ele>144.0</ele><time>2026-03-29T12:47:10.999Z</time></trkpt><trkpt lat="45.50722995405038" lon="9.063756432117916"><ele>143.0</ele><time>2026-03-29T12:47:11.999Z</time></trkpt><trkpt lat="45.50704622121711" lon="9.063806604167196"><ele>143.0</ele><time>2026-03-29T12:47:12.999Z</time></trkpt><trkpt lat="45.506862008887005" lon="9.063864567722899"><ele>143.0</ele><time>2026-03-29T12:47:13.999Z</time></trkpt><trkpt lat="45.506676201507936" lon="9.063928783683094"><ele>143.0</ele><time>2026-03-29T12:47:14.999Z</time></trkpt><trkpt lat="45.506491579813385" lon="9.064010468823508"><ele>143.0</ele><time>2026-03-29T12:47:15.999Z</time></trkpt><trkpt lat="45.50630309614803" lon="9.064096939908493"><ele>143.0</ele><time>2026-03-29T12:47:16.999Z</time></trkpt><trkpt lat="45.50612791047164" lon="9.064195673368832"><ele>143.0</ele><time>2026-03-29T12:47:17.999Z</time></trkpt><trkpt lat="45.50593054142499" lon="9.064293472671988"><ele>143.33333333333331</ele><time>2026-03-29T12:47:18.999Z</time></trkpt><trkpt lat="45.505747883585904" lon="9.064406142826392"><ele>143.66666666666666</ele><time>2026-03-29T12:47:19.999Z</time></trkpt><trkpt lat="45.505551193239334" lon="9.06452426435884"><ele>144.0</ele><time>2026-03-29T12:47:20.999Z</time></trkpt><trkpt lat="45.50534002001734" lon="9.064637997150266"><ele>143.0</ele><time>2026-03-29T12:47:21.999Z</time></trkpt><trkpt lat="45.50513151065813" lon="9.064754517426364"><ele>142.0</ele><time>2026-03-29T12:47:22.999Z</time></trkpt><trkpt lat="45.504920555385056" lon="9.064865733175195"><ele>141.0</ele><time>2026-03-29T12:47:23.999Z</time></trkpt><trkpt lat="45.50470450141255" lon="9.064976976255554"><ele>140.33333333333334</ele><time>2026-03-29T12:47:24.999Z</time></trkpt><trkpt lat="45.50450038449736" lon="9.065078602658899"><ele>139.66666666666669</ele><time>2026-03-29T12:47:25.999Z</time></trkpt><trkpt lat="45.50429242104746" lon="9.065174615596788"><ele>139.0</ele><time>2026-03-29T12:47:26.999Z</time></trkpt><trkpt lat="45.50409030435596" lon="9.06526375200905"><ele>139.0</ele><time>2026-03-29T12:47:27.999Z</time></trkpt><trkpt lat="45.50388538885278" lon="9.065354062833169"><ele>139.0</ele><time>2026-03-29T12:47:28.999Z</time></trkpt><trkpt lat="45.50367589140892" lon="9.065433022446907"><ele>139.0</ele><time>2026-03-29T12:47:29.999Z</time></trkpt><trkpt lat="45.50349437477724" lon="9.065533605177599"><ele>139.33333333333334</ele><time>2026-03-29T12:47:30.999Z</time></trkpt><trkpt lat="45.50330967010793" lon="9.065614564225237"><ele>139.66666666666666</ele><time>2026-03-29T12:47:31.999Z</time></trkpt><trkpt lat="45.50312002225438" lon="9.065701528082679"><ele>140.0</ele><time>2026-03-29T12:47:32.999Z</time></trkpt><trkpt lat="45.502927512004106" lon="9.065788687705117"><ele>140.33333333333331</ele><time>2026-03-29T12:47:33.999Z</time></trkpt><trkpt lat="45.5027363165209" lon="9.06587339554282"><ele>140.66666666666666</ele><time>2026-03-29T12:47:34.999Z</time></trkpt><trkpt lat="45.50255260662207" lon="9.065956033320354"><ele>141.0</ele><time>2026-03-29T12:47:35.999Z</time></trkpt><trkpt lat="45.50238117448544" lon="9.066035185893584"><ele>141.0</ele><time>2026-03-29T12:47:36.999Z</time></trkpt><trkpt lat="45.5022133511599" lon="9.066081888068995"><ele>141.0</ele><time>2026-03-29T12:47:37.999Z</time></trkpt><trkpt lat="45.502008262189996" lon="9.066110872951551"><ele>141.0</ele><time>2026-03-29T12:47:38.999Z</time></trkpt><trkpt lat="45.50183062877133" lon="9.06622135975877"><ele>140.0</ele><time>2026-03-29T12:47:39.999Z</time></trkpt><trkpt lat="45.50163380907747" lon="9.066297074767842"><ele>139.0</ele><time>2026-03-29T12:47:40.999Z</time></trkpt><trkpt lat="45.50142953134879" lon="9.066367100977928"><ele>138.0</ele><time>2026-03-29T12:47:41.999Z</time></trkpt><trkpt lat="45.50122114780027" lon="9.066426457162537"><ele>137.66666666666666</ele><time>2026-03-29T12:47:42.999Z</time></trkpt><trkpt lat="45.50101147135942" lon="9.066481275009382"><ele>137.33333333333331</ele><time>2026-03-29T12:47:43.999Z</time></trkpt><trkpt lat="45.500790362363226" lon="9.066531299696692"><ele>137.0</ele><time>2026-03-29T12:47:44.999Z</time></trkpt><trkpt lat="45.50057309044828" lon="9.066572531236398"><ele>137.33333333333331</ele><time>2026-03-29T12:47:45.999Z</time></trkpt><trkpt lat="45.500346546277456" lon="9.066599999049654"><ele>137.66666666666666</ele><time>2026-03-29T12:47:46.999Z</time></trkpt><trkpt lat="45.50013100259376" lon="9.066627827028483"><ele>138.0</ele><time>2026-03-29T12:47:47.999Z</time></trkpt><trkpt lat="45.499918825124695" lon="9.066650949416081"><ele>138.0</ele><time>2026-03-29T12:47:48.999Z</time></trkpt><trkpt lat="45.499697415734744" lon="9.066663916971041"><ele>138.0</ele><time>2026-03-29T12:47:50Z</time></trkpt><trkpt lat="45.49946925190456" lon="9.066673585115549"><ele>137.0</ele><time>2026-03-29T12:47:51Z</time></trkpt><trkpt lat="45.49924754255622" lon="9.06667216989143"><ele>136.0</ele><time>2026-03-29T12:47:52Z</time></trkpt><trkpt lat="45.49903081876256" lon="9.066677808582844"><ele>135.0</ele><time>2026-03-29T12:47:53Z</time></trkpt><trkpt lat="45.498820256209946" lon="9.06667171511506"><ele>135.5</ele><time>2026-03-29T12:47:54Z</time></trkpt><trkpt lat="45.498573362742206" lon="9.066699298160238"><ele>136.0</ele><time>2026-03-29T12:47:55Z</time></trkpt><trkpt lat="45.49835919419025" lon="9.06664481810274"><ele>136.0</ele><time>2026-03-29T12:47:56Z</time></trkpt><trkpt lat="45.49813172629676" lon="9.066639405982173"><ele>136.0</ele><time>2026-03-29T12:47:57Z</time></trkpt><trkpt lat="45.49789672303066" lon="9.066629093585632"><ele>136.0</ele><time>2026-03-29T12:47:58Z</time></trkpt><trkpt lat="45.497654581546996" lon="9.066629408242703"><ele>136.0</ele><time>2026-03-29T12:47:59Z</time></trkpt><trkpt lat="45.4974521179061" lon="9.066616639398246"><ele>136.0</ele><time>2026-03-29T12:48:00Z</time></trkpt><trkpt lat="45.49722275173183" lon="9.066605801539344"><ele>136.33333333333334</ele><time>2026-03-29T12:48:01Z</time></trkpt><trkpt lat="45.496995355804906" lon="9.06660007296937"><ele>136.66666666666666</ele><time>2026-03-29T12:48:02Z</time></trkpt><trkpt lat="45.49677375828354" lon="9.066595841564508"><ele>137.0</ele><time>2026-03-29T12:48:03Z</time></trkpt><trkpt lat="45.49655194345201" lon="9.06658588675907"><ele>137.0</ele><time>2026-03-29T12:48:04Z</time></trkpt><trkpt lat="45.496339550328265" lon="9.06657282689866"><ele>137.0</ele><time>2026-03-29T12:48:05Z</time></trkpt><trkpt lat="45.49613342020391" lon="9.066564594721191"><ele>137.0</ele><time>2026-03-29T12:48:06Z</time></trkpt><trkpt lat="45.49592356844094" lon="9.066555806602777"><ele>137.0</ele><time>2026-03-29T12:48:07Z</time></trkpt><trkpt lat="45.49571939836394" lon="9.066545737082869"><ele>137.0</ele><time>2026-03-29T12:48:08Z</time></trkpt><trkpt lat="45.49551778168989" lon="9.06653858064287"><ele>137.0</ele><time>2026-03-29T12:48:09Z</time></trkpt><trkpt lat="45.49531607951779" lon="9.06652851248708"><ele>137.0</ele><time>2026-03-29T12:48:10Z</time></trkpt><trkpt lat="45.49511417842792" lon="9.06652757038055"><ele>137.0</ele><time>2026-03-29T12:48:11Z</time></trkpt><trkpt lat="45.494905703152135" lon="9.066520785207297"><ele>137.0</ele><time>2026-03-29T12:48:12Z</time></trkpt><trkpt lat="45.494695074920976" lon="9.066512757036044"><ele>136.33333333333331</ele><time>2026-03-29T12:48:13Z</time></trkpt><trkpt lat="45.494487897116876" lon="9.066513069134"><ele>135.66666666666666</ele><time>2026-03-29T12:48:14Z</time></trkpt><trkpt lat="45.494277213163784" lon="9.066506103901755"><ele>135.0</ele><time>2026-03-29T12:48:15Z</time></trkpt><trkpt lat="45.494067938824" lon="9.066498119910005"><ele>135.0</ele><time>2026-03-29T12:48:16Z</time></trkpt><trkpt lat="45.49385710076462" lon="9.066494339380824"><ele>135.0</ele><time>2026-03-29T12:48:17Z</time></trkpt><trkpt lat="45.49365399900978" lon="9.06648596844301"><ele>135.0</ele><time>2026-03-29T12:48:18Z</time></trkpt><trkpt lat="45.49345322517328" lon="9.066474440325543"><ele>135.33333333333334</ele><time>2026-03-29T12:48:19Z</time></trkpt><trkpt lat="45.49324969952795" lon="9.066466657592347"><ele>135.66666666666669</ele><time>2026-03-29T12:48:20Z</time></trkpt><trkpt lat="45.493048434253545" lon="9.06645178056042"><ele>136.0</ele><time>2026-03-29T12:48:21Z</time></trkpt><trkpt lat="45.49283800718259" lon="9.066427819442573"><ele>134.0</ele><time>2026-03-29T12:48:22Z</time></trkpt><trkpt lat="45.492594044227815" lon="9.066436784580672"><ele>132.0</ele><time>2026-03-29T12:48:23Z</time></trkpt><trkpt lat="45.492378642133644" lon="9.06643080148185"><ele>132.0</ele><time>2026-03-29T12:48:24Z</time></trkpt><trkpt lat="45.49216855457882" lon="9.066424953392936"><ele>132.0</ele><time>2026-03-29T12:48:25Z</time></trkpt><trkpt lat="45.491956091823354" lon="9.066422327240478"><ele>132.0</ele><time>2026-03-29T12:48:26Z</time></trkpt><trkpt lat="45.4917470797049" lon="9.066419266432321"><ele>132.66666666666666</ele><time>2026-03-29T12:48:27Z</time></trkpt><trkpt lat="45.491540715242216" lon="9.06641380551682"><ele>133.33333333333331</ele><time>2026-03-29T12:48:28Z</time></trkpt><trkpt lat="45.49133182992538" lon="9.066401799775251"><ele>134.0</ele><time>2026-03-29T12:48:29Z</time></trkpt><trkpt lat="45.49112497315712" lon="9.066410747769872"><ele>134.0</ele><time>2026-03-29T12:48:30Z</time></trkpt><trkpt lat="45.49091814792823" lon="9.06642195671057"><ele>134.0</ele><time>2026-03-29T12:48:31Z</time></trkpt><trkpt lat="45.490707313942394" lon="9.06643282237846"><ele>134.0</ele><time>2026-03-29T12:48:32Z</time></trkpt><trkpt lat="45.49049551622913" lon="9.066436562493136"><ele>134.0</ele><time>2026-03-29T12:48:33Z</time></trkpt><trkpt lat="45.490289355156456" lon="9.066467157352362"><ele>134.0</ele><time>2026-03-29T12:48:34Z</time></trkpt><trkpt lat="45.49008099278557" lon="9.06649416882339"><ele>134.0</ele><time>2026-03-29T12:48:35Z</time></trkpt><trkpt lat="45.48987518567544" lon="9.06652685085356"><ele>134.0</ele><time>2026-03-29T12:48:36Z</time></trkpt><trkpt lat="45.48966833213813" lon="9.066563439768784"><ele>134.0</ele><time>2026-03-29T12:48:37Z</time></trkpt><trkpt lat="45.4894537507199" lon="9.06660311236893"><ele>134.0</ele><time>2026-03-29T12:48:38Z</time></trkpt><trkpt lat="45.48924300921289" lon="9.066646265927414"><ele>134.66666666666666</ele><time>2026-03-29T12:48:39Z</time></trkpt><trkpt lat="45.48903496938653" lon="9.066709573133473"><ele>135.33333333333334</ele><time>2026-03-29T12:48:40Z</time></trkpt><trkpt lat="45.488830031514574" lon="9.06676111407681"><ele>136.0</ele><time>2026-03-29T12:48:41Z</time></trkpt><trkpt lat="45.48861861945342" lon="9.066828973128644"><ele>136.0</ele><time>2026-03-29T12:48:42Z</time></trkpt><trkpt lat="45.488406630429864" lon="9.066908744308485"><ele>136.0</ele><time>2026-03-29T12:48:43Z</time></trkpt><trkpt lat="45.48819150473225" lon="9.066989911295764"><ele>136.0</ele><time>2026-03-29T12:48:44Z</time></trkpt><trkpt lat="45.487979615408484" lon="9.067078486640675"><ele>135.33333333333334</ele><time>2026-03-29T12:48:45Z</time></trkpt><trkpt lat="45.48776740647323" lon="9.067167303729892"><ele>134.66666666666666</ele><time>2026-03-29T12:48:46Z</time></trkpt><trkpt lat="45.48755422347597" lon="9.067249552696376"><ele>134.0</ele><time>2026-03-29T12:48:47Z</time></trkpt><trkpt lat="45.487352050314946" lon="9.067375260150287"><ele>134.0</ele><time>2026-03-29T12:48:48Z</time></trkpt><trkpt lat="45.487148495819824" lon="9.067494243795235"><ele>134.0</ele><time>2026-03-29T12:48:49Z</time></trkpt><trkpt lat="45.48694609367765" lon="9.067623559677589"><ele>134.0</ele><time>2026-03-29T12:48:50Z</time></trkpt><trkpt lat="45.486733623690164" lon="9.067765557761916"><ele>134.0</ele><time>2026-03-29T12:48:51Z</time></trkpt><trkpt lat="45.48652418788727" lon="9.067918660745319"><ele>134.0</ele><time>2026-03-29T12:48:52Z</time></trkpt><trkpt lat="45.4863168322929" lon="9.068078684619342"><ele>133.0</ele><time>2026-03-29T12:48:53Z</time></trkpt><trkpt lat="45.486118013194286" lon="9.068249259174229"><ele>132.0</ele><time>2026-03-29T12:48:54Z</time></trkpt><trkpt lat="45.48592163528132" lon="9.068402805875328"><ele>132.0</ele><time>2026-03-29T12:48:55Z</time></trkpt><trkpt lat="45.48572153062045" lon="9.068531837792506"><ele>132.0</ele><time>2026-03-29T12:48:56Z</time></trkpt><trkpt lat="45.485566702853674" lon="9.068641474131494"><ele>132.0</ele><time>2026-03-29T12:48:57Z</time></trkpt><trkpt lat="45.485382051907095" lon="9.068793810107659"><ele>131.66666666666666</ele><time>2026-03-29T12:48:58Z</time></trkpt><trkpt lat="45.48520109753924" lon="9.068946165164666"><ele>131.33333333333331</ele><time>2026-03-29T12:48:59Z</time></trkpt><trkpt lat="45.4850228424696" lon="9.069105672437445"><ele>131.0</ele><time>2026-03-29T12:49:00Z</time></trkpt><trkpt lat="45.48484778614567" lon="9.069270855987927"><ele>131.0</ele><time>2026-03-29T12:49:01Z</time></trkpt><trkpt lat="45.484660269739216" lon="9.06945491006585"><ele>131.0</ele><time>2026-03-29T12:49:02Z</time></trkpt><trkpt lat="45.48447340193924" lon="9.069625689042919"><ele>131.0</ele><time>2026-03-29T12:49:03Z</time></trkpt><trkpt lat="45.484282544637466" lon="9.069801879814182"><ele>131.0</ele><time>2026-03-29T12:49:04Z</time></trkpt><trkpt lat="45.48410208626477" lon="9.06997744406019"><ele>131.0</ele><time>2026-03-29T12:49:05Z</time></trkpt><trkpt lat="45.48393378899309" lon="9.070141548259626"><ele>130.0</ele><time>2026-03-29T12:49:06Z</time></trkpt><trkpt lat="45.48372803251182" lon="9.070331260130901"><ele>129.0</ele><time>2026-03-29T12:49:07Z</time></trkpt><trkpt lat="45.48354532827711" lon="9.070503105478997"><ele>129.0</ele><time>2026-03-29T12:49:07.999Z</time></trkpt><trkpt lat="45.48335439318174" lon="9.070682114485614"><ele>129.0</ele><time>2026-03-29T12:49:08.999Z</time></trkpt><trkpt lat="45.48317150771853" lon="9.07085875656336"><ele>129.0</ele><time>2026-03-29T12:49:09.999Z</time></trkpt><trkpt lat="45.48298427340185" lon="9.071039844366236"><ele>129.5</ele><time>2026-03-29T12:49:10.999Z</time></trkpt><trkpt lat="45.482795551728856" lon="9.07122242598211"><ele>130.0</ele><time>2026-03-29T12:49:11.999Z</time></trkpt><trkpt lat="45.482603992660835" lon="9.07140340663887"><ele>130.0</ele><time>2026-03-29T12:49:12.999Z</time></trkpt><trkpt lat="45.48241251510111" lon="9.071587713424178"><ele>130.0</ele><time>2026-03-29T12:49:13.999Z</time></trkpt><trkpt lat="45.482221995749" lon="9.071772004310679"><ele>130.0</ele><time>2026-03-29T12:49:14.999Z</time></trkpt><trkpt lat="45.482027701736854" lon="9.071948328901561"><ele>130.0</ele><time>2026-03-29T12:49:15.999Z</time></trkpt><trkpt lat="45.48182848234713" lon="9.072125269627811"><ele>130.0</ele><time>2026-03-29T12:49:16.999Z</time></trkpt><trkpt lat="45.481618675297746" lon="9.072277351610728"><ele>130.0</ele><time>2026-03-29T12:49:17.999Z</time></trkpt><trkpt lat="45.48144872707808" lon="9.072493099214677"><ele>129.5</ele><time>2026-03-29T12:49:18.999Z</time></trkpt><trkpt lat="45.48126131369227" lon="9.072679059884218"><ele>129.0</ele><time>2026-03-29T12:49:19.999Z</time></trkpt><trkpt lat="45.48107160509223" lon="9.0728611251247"><ele>129.0</ele><time>2026-03-29T12:49:20.999Z</time></trkpt><trkpt lat="45.480885832644645" lon="9.073043085022594"><ele>129.0</ele><time>2026-03-29T12:49:21.999Z</time></trkpt><trkpt lat="45.48069298822668" lon="9.073215713307352"><ele>129.0</ele><time>2026-03-29T12:49:22.999Z</time></trkpt><trkpt lat="45.48050490879596" lon="9.073406535281332"><ele>129.0</ele><time>2026-03-29T12:49:23.999Z</time></trkpt><trkpt lat="45.480313316787" lon="9.073592340216283"><ele>130.0</ele><time>2026-03-29T12:49:24.999Z</time></trkpt><trkpt lat="45.480123347578115" lon="9.073768910551996"><ele>131.0</ele><time>2026-03-29T12:49:25.999Z</time></trkpt><trkpt lat="45.47994574012757" lon="9.073908107547282"><ele>132.0</ele><time>2026-03-29T12:49:26.999Z</time></trkpt><trkpt lat="45.47974572432138" lon="9.074096132969958"><ele>133.0</ele><time>2026-03-29T12:49:27.999Z</time></trkpt><trkpt lat="45.47953472532157" lon="9.074343620031504"><ele>134.0</ele><time>2026-03-29T12:49:28.999Z</time></trkpt><trkpt lat="45.479331657174896" lon="9.074536418923536"><ele>134.0</ele><time>2026-03-29T12:49:29.999Z</time></trkpt><trkpt lat="45.47913087508579" lon="9.074724346891175"><ele>134.0</ele><time>2026-03-29T12:49:30.999Z</time></trkpt><trkpt lat="45.47894210598837" lon="9.074905880468723"><ele>133.0</ele><time>2026-03-29T12:49:31.999Z</time></trkpt><trkpt lat="45.47875575452892" lon="9.075068249001895"><ele>132.0</ele><time>2026-03-29T12:49:32.999Z</time></trkpt><trkpt lat="45.47856550269472" lon="9.07526035085246"><ele>132.0</ele><time>2026-03-29T12:49:33.999Z</time></trkpt><trkpt lat="45.478387004029784" lon="9.07544003257242"><ele>132.0</ele><time>2026-03-29T12:49:34.999Z</time></trkpt><trkpt lat="45.47820227624779" lon="9.075608394866466"><ele>132.0</ele><time>2026-03-29T12:49:35.999Z</time></trkpt><trkpt lat="45.4780188864775" lon="9.07578288286584"><ele>131.66666666666666</ele><time>2026-03-29T12:49:36.999Z</time></trkpt><trkpt lat="45.477832351993456" lon="9.075958947789871"><ele>131.33333333333331</ele><time>2026-03-29T12:49:37.999Z</time></trkpt><trkpt lat="45.477648978008475" lon="9.076135811451392"><ele>131.0</ele><time>2026-03-29T12:49:38.999Z</time></trkpt><trkpt lat="45.47746392804005" lon="9.0763121542495"><ele>131.0</ele><time>2026-03-29T12:49:39.999Z</time></trkpt><trkpt lat="45.4772859810645" lon="9.076495439002311"><ele>131.0</ele><time>2026-03-29T12:49:40.999Z</time></trkpt><trkpt lat="45.47710685473435" lon="9.07667163177147"><ele>131.0</ele><time>2026-03-29T12:49:41.999Z</time></trkpt><trkpt lat="45.47693092350358" lon="9.076844756411951"><ele>130.66666666666666</ele><time>2026-03-29T12:49:42.999Z</time></trkpt><trkpt lat="45.47675118375637" lon="9.076991737425738"><ele>130.33333333333334</ele><time>2026-03-29T12:49:43.999Z</time></trkpt><trkpt lat="45.476571541754616" lon="9.077179272886115"><ele>130.0</ele><time>2026-03-29T12:49:44.999Z</time></trkpt><trkpt lat="45.47640643288423" lon="9.077365406237728"><ele>130.33333333333334</ele><time>2026-03-29T12:49:45.999Z</time></trkpt><trkpt lat="45.47621830466622" lon="9.077539275315646"><ele>130.66666666666666</ele><time>2026-03-29T12:49:46.999Z</time></trkpt><trkpt lat="45.47603660532225" lon="9.077708707747757"><ele>131.0</ele><time>2026-03-29T12:49:47.999Z</time></trkpt><trkpt lat="45.4758470316834" lon="9.07787880604396"><ele>131.0</ele><time>2026-03-29T12:49:48.999Z</time></trkpt><trkpt lat="45.4756683331825" lon="9.0780447127395"><ele>131.0</ele><time>2026-03-29T12:49:49.999Z</time></trkpt><trkpt lat="45.47548879609458" lon="9.078213745865828"><ele>131.0</ele><time>2026-03-29T12:49:50.999Z</time></trkpt><trkpt lat="45.47532144527638" lon="9.078378160412981"><ele>131.33333333333331</ele><time>2026-03-29T12:49:51.999Z</time></trkpt><trkpt lat="45.47514333452248" lon="9.078526866283957"><ele>131.66666666666666</ele><time>2026-03-29T12:49:52.999Z</time></trkpt><trkpt lat="45.474976226062985" lon="9.078656005581166"><ele>132.0</ele><time>2026-03-29T12:49:53.999Z</time></trkpt><trkpt lat="45.47482720740928" lon="9.078769895848161"><ele>132.0</ele><time>2026-03-29T12:49:54.999Z</time></trkpt><trkpt lat="45.47461601641874" lon="9.078914645553347"><ele>132.0</ele><time>2026-03-29T12:49:56Z</time></trkpt><trkpt lat="45.47442472039817" lon="9.079042258212612"><ele>132.0</ele><time>2026-03-29T12:49:57Z</time></trkpt><trkpt lat="45.47423672096089" lon="9.079137220536515"><ele>131.33333333333334</ele><time>2026-03-29T12:49:58Z</time></trkpt><trkpt lat="45.47403316218656" lon="9.079230920332154"><ele>130.66666666666669</ele><time>2026-03-29T12:49:59Z</time></trkpt><trkpt lat="45.473822874826475" lon="9.079326782675132"><ele>130.0</ele><time>2026-03-29T12:50:00Z</time></trkpt><trkpt lat="45.473614212281646" lon="9.07940583223378"><ele>130.0</ele><time>2026-03-29T12:50:01Z</time></trkpt><trkpt lat="45.47340196778806" lon="9.079502570718972"><ele>130.0</ele><time>2026-03-29T12:50:02Z</time></trkpt><trkpt lat="45.47318992986046" lon="9.079564113245093"><ele>130.0</ele><time>2026-03-29T12:50:03Z</time></trkpt><trkpt lat="45.47300797252111" lon="9.079567081571813"><ele>129.33333333333334</ele><time>2026-03-29T12:50:04Z</time></trkpt><trkpt lat="45.472811977531244" lon="9.079588389488327"><ele>128.66666666666666</ele><time>2026-03-29T12:50:05Z</time></trkpt><trkpt lat="45.47260957921627" lon="9.079597975071055"><ele>128.0</ele><time>2026-03-29T12:50:06Z</time></trkpt><trkpt lat="45.47240000518347" lon="9.079596174864301"><ele>128.0</ele><time>2026-03-29T12:50:07Z</time></trkpt><trkpt lat="45.47218711223868" lon="9.079592783124916"><ele>128.0</ele><time>2026-03-29T12:50:08Z</time></trkpt><trkpt lat="45.47197549298519" lon="9.079573045429902"><ele>128.0</ele><time>2026-03-29T12:50:09Z</time></trkpt><trkpt lat="45.471766849273315" lon="9.079537750455994"><ele>128.0</ele><time>2026-03-29T12:50:10Z</time></trkpt><trkpt lat="45.47155710261254" lon="9.079491332328143"><ele>128.0</ele><time>2026-03-29T12:50:11Z</time></trkpt><trkpt lat="45.47135324816461" lon="9.079436967588792"><ele>128.0</ele><time>2026-03-29T12:50:12Z</time></trkpt><trkpt lat="45.4711517059468" lon="9.079374215544712"><ele>128.0</ele><time>2026-03-29T12:50:13Z</time></trkpt><trkpt lat="45.47095042350679" lon="9.079297736628666"><ele>128.0</ele><time>2026-03-29T12:50:14Z</time></trkpt><trkpt lat="45.470750361517474" lon="9.07921207772118"><ele>128.0</ele><time>2026-03-29T12:50:15Z</time></trkpt><trkpt lat="45.47054938992341" lon="9.079111725847332"><ele>128.0</ele><time>2026-03-29T12:50:16Z</time></trkpt><trkpt lat="45.4703557538533" lon="9.079004514190473"><ele>128.0</ele><time>2026-03-29T12:50:17Z</time></trkpt><trkpt lat="45.470166207291115" lon="9.078891958357152"><ele>128.0</ele><time>2026-03-29T12:50:18Z</time></trkpt><trkpt lat="45.469974345354956" lon="9.078782647542168"><ele>128.0</ele><time>2026-03-29T12:50:19Z</time></trkpt><trkpt lat="45.46978111062111" lon="9.078668671295803"><ele>128.0</ele><time>2026-03-29T12:50:20Z</time></trkpt><trkpt lat="45.46958365331531" lon="9.07855120549743"><ele>128.0</ele><time>2026-03-29T12:50:21Z</time></trkpt><trkpt lat="45.469392110900465" lon="9.078441999115192"><ele>128.66666666666666</ele><time>2026-03-29T12:50:22Z</time></trkpt><trkpt lat="45.46922541774583" lon="9.078364932572823"><ele>129.33333333333334</ele><time>2026-03-29T12:50:23Z</time></trkpt><trkpt lat="45.469066688427844" lon="9.07831928938165"><ele>130.0</ele><time>2026-03-29T12:50:24Z</time></trkpt><trkpt lat="45.46890750303969" lon="9.078174052106423"><ele>128.5</ele><time>2026-03-29T12:50:25Z</time></trkpt><trkpt lat="45.46869118029287" lon="9.078033567892424"><ele>127.0</ele><time>2026-03-29T12:50:26Z</time></trkpt><trkpt lat="45.46849140645672" lon="9.077873102463883"><ele>127.0</ele><time>2026-03-29T12:50:27Z</time></trkpt><trkpt lat="45.468313829847936" lon="9.077807036959147"><ele>127.0</ele><time>2026-03-29T12:50:28Z</time></trkpt><trkpt lat="45.468127226991605" lon="9.07770217315398"><ele>127.0</ele><time>2026-03-29T12:50:29Z</time></trkpt><trkpt lat="45.467943725663105" lon="9.077595620536522"><ele>126.66666666666667</ele><time>2026-03-29T12:50:30Z</time></trkpt><trkpt lat="45.46775720331977" lon="9.07748397119635"><ele>126.33333333333334</ele><time>2026-03-29T12:50:31Z</time></trkpt><trkpt lat="45.46757981418986" lon="9.077376835029591"><ele>126.0</ele><time>2026-03-29T12:50:32Z</time></trkpt><trkpt lat="45.467407520089395" lon="9.077286145977112"><ele>126.0</ele><time>2026-03-29T12:50:33Z</time></trkpt><trkpt lat="45.46723102467449" lon="9.077179115914292"><ele>126.0</ele><time>2026-03-29T12:50:34Z</time></trkpt><trkpt lat="45.4670555008704" lon="9.07707698219384"><ele>126.0</ele><time>2026-03-29T12:50:35Z</time></trkpt><trkpt lat="45.46688350300736" lon="9.076976875547631"><ele>126.66666666666666</ele><time>2026-03-29T12:50:36Z</time></trkpt><trkpt lat="45.466706616884984" lon="9.076871599418249"><ele>127.33333333333333</ele><time>2026-03-29T12:50:37Z</time></trkpt><trkpt lat="45.46652551674423" lon="9.076768233121856"><ele>128.0</ele><time>2026-03-29T12:50:38Z</time></trkpt><trkpt lat="45.466341554513576" lon="9.076667680212067"><ele>127.66666666666666</ele><time>2026-03-29T12:50:39Z</time></trkpt><trkpt lat="45.466157877085195" lon="9.076569728936795"><ele>127.33333333333334</ele><time>2026-03-29T12:50:40Z</time></trkpt><trkpt lat="45.4659760864277" lon="9.076478805342017"><ele>127.0</ele><time>2026-03-29T12:50:41Z</time></trkpt><trkpt lat="45.46580508537711" lon="9.076404956116493"><ele>127.0</ele><time>2026-03-29T12:50:42Z</time></trkpt><trkpt lat="45.46563220153907" lon="9.076338033338127"><ele>127.0</ele><time>2026-03-29T12:50:43Z</time></trkpt><trkpt lat="45.46545665223648" lon="9.076278298629086"><ele>127.0</ele><time>2026-03-29T12:50:44Z</time></trkpt><trkpt lat="45.46528075858243" lon="9.076224188433637"><ele>128.0</ele><time>2026-03-29T12:50:45Z</time></trkpt><trkpt lat="45.46511587328888" lon="9.07617802548018"><ele>129.0</ele><time>2026-03-29T12:50:46Z</time></trkpt><trkpt lat="45.46495332521713" lon="9.076136141337667"><ele>130.0</ele><time>2026-03-29T12:50:47Z</time></trkpt><trkpt lat="45.46478848065615" lon="9.076096106771697"><ele>130.0</ele><time>2026-03-29T12:50:48Z</time></trkpt><trkpt lat="45.464613001724054" lon="9.076061915990131"><ele>130.0</ele><time>2026-03-29T12:50:49Z</time></trkpt><trkpt lat="45.464440791657985" lon="9.076031588307979"><ele>130.0</ele><time>2026-03-29T12:50:50Z</time></trkpt><trkpt lat="45.46426984500889" lon="9.07600316438677"><ele>130.0</ele><time>2026-03-29T12:50:51Z</time></trkpt><trkpt lat="45.464103057900836" lon="9.075993045323273"><ele>130.0</ele><time>2026-03-29T12:50:52Z</time></trkpt><trkpt lat="45.463947888056246" lon="9.075985768872554"><ele>130.0</ele><time>2026-03-29T12:50:53Z</time></trkpt><trkpt lat="45.4637930504915" lon="9.075980126638006"><ele>129.66666666666669</ele><time>2026-03-29T12:50:54Z</time></trkpt><trkpt lat="45.46364582285498" lon="9.07598452620457"><ele>129.33333333333334</ele><time>2026-03-29T12:50:55Z</time></trkpt><trkpt lat="45.46349191195655" lon="9.075987743922235"><ele>129.0</ele><time>2026-03-29T12:50:56Z</time></trkpt><trkpt lat="45.46334218776463" lon="9.075995170932202"><ele>129.0</ele><time>2026-03-29T12:50:57Z</time></trkpt><trkpt lat="45.46318441770099" lon="9.0760014874251"><ele>129.0</ele><time>2026-03-29T12:50:58Z</time></trkpt><trkpt lat="45.4630205290461" lon="9.076024927037391"><ele>129.0</ele><time>2026-03-29T12:50:59Z</time></trkpt><trkpt lat="45.46286122176652" lon="9.076050341373811"><ele>128.33333333333334</ele><time>2026-03-29T12:51:00Z</time></trkpt><trkpt lat="45.46269527908829" lon="9.076076095162337"><ele>127.66666666666667</ele><time>2026-03-29T12:51:01Z</time></trkpt><trkpt lat="45.46253335287427" lon="9.076120118104212"><ele>127.0</ele><time>2026-03-29T12:51:02Z</time></trkpt><trkpt lat="45.462367727969244" lon="9.076156742314218"><ele>127.0</ele><time>2026-03-29T12:51:03Z</time></trkpt><trkpt lat="45.46220292547788" lon="9.07619847190283"><ele>127.0</ele><time>2026-03-29T12:51:04Z</time></trkpt><trkpt lat="45.46203462119809" lon="9.076242568102453"><ele>127.0</ele><time>2026-03-29T12:51:05Z</time></trkpt><trkpt lat="45.46185901007931" lon="9.076293215699824"><ele>126.66666666666667</ele><time>2026-03-29T12:51:06Z</time></trkpt><trkpt lat="45.461686001473645" lon="9.076338830013759"><ele>126.33333333333334</ele><time>2026-03-29T12:51:07Z</time></trkpt><trkpt lat="45.461520788403455" lon="9.076381462774552"><ele>126.0</ele><time>2026-03-29T12:51:08Z</time></trkpt><trkpt lat="45.461345302387656" lon="9.07642907144497"><ele>125.66666666666666</ele><time>2026-03-29T12:51:09Z</time></trkpt><trkpt lat="45.46115076585932" lon="9.076502531807467"><ele>125.33333333333333</ele><time>2026-03-29T12:51:09.999Z</time></trkpt><trkpt lat="45.46093555128251" lon="9.076541686994881"><ele>125.0</ele><time>2026-03-29T12:51:10.999Z</time></trkpt><trkpt lat="45.46071076682139" lon="9.076605175078225"><ele>126.0</ele><time>2026-03-29T12:51:11.999Z</time></trkpt><trkpt lat="45.46049184833528" lon="9.076649703525895"><ele>127.0</ele><time>2026-03-29T12:51:12.999Z</time></trkpt><trkpt lat="45.460259547338175" lon="9.076718208165355"><ele>127.0</ele><time>2026-03-29T12:51:13.999Z</time></trkpt><trkpt lat="45.46001058254908" lon="9.076780508594027"><ele>127.0</ele><time>2026-03-29T12:51:14.999Z</time></trkpt><trkpt lat="45.4597725498589" lon="9.076853544403434"><ele>127.0</ele><time>2026-03-29T12:51:15.999Z</time></trkpt><trkpt lat="45.45953211128227" lon="9.076910032200454"><ele>127.0</ele><time>2026-03-29T12:51:16.999Z</time></trkpt><trkpt lat="45.459298909714505" lon="9.076967590906674"><ele>127.0</ele><time>2026-03-29T12:51:17.999Z</time></trkpt><trkpt lat="45.459061539634575" lon="9.077030343199947"><ele>127.0</ele><time>2026-03-29T12:51:18.999Z</time></trkpt><trkpt lat="45.45881715263398" lon="9.077091538562305"><ele>127.5</ele><time>2026-03-29T12:51:19.999Z</time></trkpt><trkpt lat="45.45857608340789" lon="9.077153530666955"><ele>128.0</ele><time>2026-03-29T12:51:20.999Z</time></trkpt><trkpt lat="45.45833808417796" lon="9.077213650496567"><ele>128.0</ele><time>2026-03-29T12:51:21.999Z</time></trkpt><trkpt lat="45.45810456868792" lon="9.077259328305491"><ele>128.0</ele><time>2026-03-29T12:51:22.999Z</time></trkpt><trkpt lat="45.457870283690646" lon="9.077304924150772"><ele>126.0</ele><time>2026-03-29T12:51:23.999Z</time></trkpt><trkpt lat="45.457632864868216" lon="9.077334576613321"><ele>124.0</ele><time>2026-03-29T12:51:24.999Z</time></trkpt><trkpt lat="45.457409904789785" lon="9.07734352909295"><ele>124.0</ele><time>2026-03-29T12:51:25.999Z</time></trkpt><trkpt lat="45.45718545103319" lon="9.077341989659796"><ele>124.0</ele><time>2026-03-29T12:51:26.999Z</time></trkpt><trkpt lat="45.45696404071329" lon="9.077347709148965"><ele>124.0</ele><time>2026-03-29T12:51:27.999Z</time></trkpt><trkpt lat="45.45675470315678" lon="9.077338027307048"><ele>123.5</ele><time>2026-03-29T12:51:28.999Z</time></trkpt><trkpt lat="45.45651126494909" lon="9.077317092195543"><ele>123.0</ele><time>2026-03-29T12:51:29.999Z</time></trkpt><trkpt lat="45.456281336747544" lon="9.077307030267228"><ele>123.0</ele><time>2026-03-29T12:51:30.999Z</time></trkpt><trkpt lat="45.45606147096704" lon="9.077272686335196"><ele>123.0</ele><time>2026-03-29T12:51:31.999Z</time></trkpt><trkpt lat="45.45584469750515" lon="9.077235772437147"><ele>123.0</ele><time>2026-03-29T12:51:32.999Z</time></trkpt><trkpt lat="45.45563332171976" lon="9.077185830414154"><ele>122.66666666666666</ele><time>2026-03-29T12:51:33.999Z</time></trkpt><trkpt lat="45.45542660617211" lon="9.077130567037562"><ele>122.33333333333333</ele><time>2026-03-29T12:51:34.999Z</time></trkpt><trkpt lat="45.45523171935562" lon="9.077080023998622"><ele>122.0</ele><time>2026-03-29T12:51:35.999Z</time></trkpt><trkpt lat="45.45504450725146" lon="9.077022161643841"><ele>122.0</ele><time>2026-03-29T12:51:36.999Z</time></trkpt><trkpt lat="45.45485888750122" lon="9.076964485571303"><ele>122.0</ele><time>2026-03-29T12:51:37.999Z</time></trkpt><trkpt lat="45.45466928465425" lon="9.076896359870634"><ele>122.0</ele><time>2026-03-29T12:51:38.999Z</time></trkpt><trkpt lat="45.45446268041607" lon="9.076825201152875"><ele>122.33333333333333</ele><time>2026-03-29T12:51:39.999Z</time></trkpt><trkpt lat="45.45428004950764" lon="9.076761095327734"><ele>122.66666666666666</ele><time>2026-03-29T12:51:40.999Z</time></trkpt><trkpt lat="45.45410700943985" lon="9.076726587518756"><ele>123.0</ele><time>2026-03-29T12:51:41.999Z</time></trkpt><trkpt lat="45.45392723413748" lon="9.076678837333743"><ele>123.0</ele><time>2026-03-29T12:51:42.999Z</time></trkpt><trkpt lat="45.45374643281062" lon="9.076633208480004"><ele>123.0</ele><time>2026-03-29T12:51:43.999Z</time></trkpt><trkpt lat="45.453548288107726" lon="9.076570333854326"><ele>123.0</ele><time>2026-03-29T12:51:44.999Z</time></trkpt><trkpt lat="45.45334736420805" lon="9.076517872366413"><ele>122.66666666666666</ele><time>2026-03-29T12:51:45.999Z</time></trkpt><trkpt lat="45.453146600110735" lon="9.07646441692075"><ele>122.33333333333333</ele><time>2026-03-29T12:51:46.999Z</time></trkpt><trkpt lat="45.45292870611969" lon="9.07640390774112"><ele>122.0</ele><time>2026-03-29T12:51:47.999Z</time></trkpt><trkpt lat="45.45270668062074" lon="9.076340573879925"><ele>122.0</ele><time>2026-03-29T12:51:48.999Z</time></trkpt><trkpt lat="45.45248163152305" lon="9.076269420326119"><ele>122.0</ele><time>2026-03-29T12:51:49.999Z</time></trkpt><trkpt lat="45.45225666440519" lon="9.076206691827313"><ele>122.0</ele><time>2026-03-29T12:51:50.999Z</time></trkpt><trkpt lat="45.452049304979504" lon="9.07614144020643"><ele>122.0</ele><time>2026-03-29T12:51:51.999Z</time></trkpt><trkpt lat="45.45184083319936" lon="9.07607797021769"><ele>122.0</ele><time>2026-03-29T12:51:52.999Z</time></trkpt><trkpt lat="45.45162935682258" lon="9.076012192478487"><ele>122.0</ele><time>2026-03-29T12:51:53.999Z</time></trkpt><trkpt lat="45.45139564268056" lon="9.075918347295708"><ele>122.0</ele><time>2026-03-29T12:51:54.999Z</time></trkpt><trkpt lat="45.451199262033406" lon="9.075896097216692"><ele>122.0</ele><time>2026-03-29T12:51:55.999Z</time></trkpt><trkpt lat="45.45098766738371" lon="9.075856551516397"><ele>122.0</ele><time>2026-03-29T12:51:56.999Z</time></trkpt><trkpt lat="45.45078958723686" lon="9.075768083660229"><ele>122.0</ele><time>2026-03-29T12:51:57.999Z</time></trkpt><trkpt lat="45.450564114060796" lon="9.07569834476932"><ele>122.0</ele><time>2026-03-29T12:51:58.999Z</time></trkpt><trkpt lat="45.45034736040582" lon="9.075639031482577"><ele>122.0</ele><time>2026-03-29T12:51:59.999Z</time></trkpt><trkpt lat="45.450113244065676" lon="9.075555874152693"><ele>122.0</ele><time>2026-03-29T12:52:00.999Z</time></trkpt><trkpt lat="45.44988406601273" lon="9.075482984897924"><ele>122.0</ele><time>2026-03-29T12:52:02Z</time></trkpt><trkpt lat="45.449658262802856" lon="9.075420557065257"><ele>122.0</ele><time>2026-03-29T12:52:03Z</time></trkpt><trkpt lat="45.4494278732953" lon="9.075363868454238"><ele>122.0</ele><time>2026-03-29T12:52:04Z</time></trkpt><trkpt lat="45.44919964853129" lon="9.075253654437875"><ele>122.0</ele><time>2026-03-29T12:52:05Z</time></trkpt><trkpt lat="45.44896765731935" lon="9.075204957684834"><ele>121.5</ele><time>2026-03-29T12:52:06Z</time></trkpt><trkpt lat="45.448738278414275" lon="9.07513961997341"><ele>121.0</ele><time>2026-03-29T12:52:07Z</time></trkpt><trkpt lat="45.44849490205831" lon="9.075063404161472"><ele>121.0</ele><time>2026-03-29T12:52:08Z</time></trkpt><trkpt lat="45.44824860829114" lon="9.074981366121044"><ele>121.0</ele><time>2026-03-29T12:52:09Z</time></trkpt><trkpt lat="45.44799858543114" lon="9.074895508614945"><ele>120.5</ele><time>2026-03-29T12:52:10Z</time></trkpt><trkpt lat="45.447746151032966" lon="9.074809620982027"><ele>120.0</ele><time>2026-03-29T12:52:11Z</time></trkpt><trkpt lat="45.44749271338182" lon="9.074727435812255"><ele>120.0</ele><time>2026-03-29T12:52:12Z</time></trkpt><trkpt lat="45.447248283602036" lon="9.074644881097562"><ele>120.0</ele><time>2026-03-29T12:52:13Z</time></trkpt><trkpt lat="45.447002329847614" lon="9.074571919083706"><ele>120.5</ele><time>2026-03-29T12:52:14Z</time></trkpt><trkpt lat="45.44676217432663" lon="9.074498401906723"><ele>121.0</ele><time>2026-03-29T12:52:15Z</time></trkpt><trkpt lat="45.44652572082531" lon="9.074427764361436"><ele>121.5</ele><time>2026-03-29T12:52:16Z</time></trkpt><trkpt lat="45.446290185023535" lon="9.074359299589945"><ele>122.0</ele><time>2026-03-29T12:52:17Z</time></trkpt><trkpt lat="45.446056772515" lon="9.074292534538742"><ele>122.0</ele><time>2026-03-29T12:52:18Z</time></trkpt><trkpt lat="45.44582536142976" lon="9.074223451849097"><ele>122.0</ele><time>2026-03-29T12:52:19Z</time></trkpt><trkpt lat="45.445594046801325" lon="9.074148919322749"><ele>122.0</ele><time>2026-03-29T12:52:20Z</time></trkpt><trkpt lat="45.44536581445966" lon="9.074085940837564"><ele>122.0</ele><time>2026-03-29T12:52:21Z</time></trkpt><trkpt lat="45.445141849928234" lon="9.074019234638408"><ele>122.0</ele><time>2026-03-29T12:52:22Z</time></trkpt><trkpt lat="45.44491677416543" lon="9.073959029864259"><ele>122.0</ele><time>2026-03-29T12:52:23Z</time></trkpt><trkpt lat="45.444692537884556" lon="9.073903052494678"><ele>121.5</ele><time>2026-03-29T12:52:24Z</time></trkpt><trkpt lat="45.444468812899686" lon="9.073858678403662"><ele>121.0</ele><time>2026-03-29T12:52:25Z</time></trkpt><trkpt lat="45.444240802828205" lon="9.073809098455637"><ele>121.0</ele><time>2026-03-29T12:52:26Z</time></trkpt><trkpt lat="45.444014200240794" lon="9.073769280571298"><ele>121.0</ele><time>2026-03-29T12:52:27Z</time></trkpt><trkpt lat="45.44378507231013" lon="9.073731253935758"><ele>120.0</ele><time>2026-03-29T12:52:28Z</time></trkpt><trkpt lat="45.44355660084537" lon="9.073696918426045"><ele>119.0</ele><time>2026-03-29T12:52:29Z</time></trkpt><trkpt lat="45.44332864443856" lon="9.073666974178112"><ele>119.0</ele><time>2026-03-29T12:52:30Z</time></trkpt><trkpt lat="45.44309948633016" lon="9.073639753294861"><ele>119.0</ele><time>2026-03-29T12:52:31Z</time></trkpt><trkpt lat="45.442873990988296" lon="9.073617890201728"><ele>117.5</ele><time>2026-03-29T12:52:32Z</time></trkpt><trkpt lat="45.442647813370336" lon="9.073602911993401"><ele>116.0</ele><time>2026-03-29T12:52:33Z</time></trkpt><trkpt lat="45.442424646245584" lon="9.073589830280817"><ele>116.0</ele><time>2026-03-29T12:52:34Z</time></trkpt><trkpt lat="45.442200910577185" lon="9.073589898751294"><ele>116.0</ele><time>2026-03-29T12:52:35Z</time></trkpt><trkpt lat="45.441975196153436" lon="9.073585117275272"><ele>116.0</ele><time>2026-03-29T12:52:36Z</time></trkpt><trkpt lat="45.44175156911196" lon="9.073585607458446"><ele>117.0</ele><time>2026-03-29T12:52:37Z</time></trkpt><trkpt lat="45.44152952532023" lon="9.073586185938565"><ele>118.0</ele><time>2026-03-29T12:52:38Z</time></trkpt><trkpt lat="45.44130648881258" lon="9.073592136379297"><ele>119.0</ele><time>2026-03-29T12:52:39Z</time></trkpt><trkpt lat="45.44108061434669" lon="9.073606164958921"><ele>119.0</ele><time>2026-03-29T12:52:40Z</time></trkpt><trkpt lat="45.44085623098107" lon="9.073618896189577"><ele>119.0</ele><time>2026-03-29T12:52:41Z</time></trkpt><trkpt lat="45.44063189237576" lon="9.073638819963184"><ele>119.0</ele><time>2026-03-29T12:52:42Z</time></trkpt><trkpt lat="45.44040254044233" lon="9.073662204543094"><ele>118.5</ele><time>2026-03-29T12:52:43Z</time></trkpt><trkpt lat="45.440173776985965" lon="9.073682015885247"><ele>118.0</ele><time>2026-03-29T12:52:44Z</time></trkpt><trkpt lat="45.43994232218622" lon="9.073703602675495"><ele>118.0</ele><time>2026-03-29T12:52:45Z</time></trkpt><trkpt lat="45.43971307105212" lon="9.07372224737503"><ele>118.0</ele><time>2026-03-29T12:52:46Z</time></trkpt><trkpt lat="45.43948457807358" lon="9.073751021207494"><ele>117.0</ele><time>2026-03-29T12:52:47Z</time></trkpt><trkpt lat="45.43924911108724" lon="9.073761617749145"><ele>116.0</ele><time>2026-03-29T12:52:48Z</time></trkpt><trkpt lat="45.439031949252396" lon="9.073793759710956"><ele>116.0</ele><time>2026-03-29T12:52:49Z</time></trkpt><trkpt lat="45.438812569028485" lon="9.07382343973062"><ele>116.0</ele><time>2026-03-29T12:52:50Z</time></trkpt><trkpt lat="45.438599959797486" lon="9.073847875057737"><ele>116.0</ele><time>2026-03-29T12:52:51Z</time></trkpt><trkpt lat="45.43837628121331" lon="9.073874091378359"><ele>116.0</ele><time>2026-03-29T12:52:52Z</time></trkpt><trkpt lat="45.43815179378825" lon="9.073900010805337"><ele>116.0</ele><time>2026-03-29T12:52:53Z</time></trkpt><trkpt lat="45.43792526188679" lon="9.073920862916882"><ele>116.0</ele><time>2026-03-29T12:52:54Z</time></trkpt><trkpt lat="45.43770766151242" lon="9.07394992826524"><ele>116.0</ele><time>2026-03-29T12:52:55Z</time></trkpt><trkpt lat="45.43748518179734" lon="9.07397177636997"><ele>116.0</ele><time>2026-03-29T12:52:56Z</time></trkpt><trkpt lat="45.43727001986861" lon="9.073999461983263"><ele>116.66666666666666</ele><time>2026-03-29T12:52:57Z</time></trkpt><trkpt lat="45.43705332672073" lon="9.074022709106716"><ele>117.33333333333334</ele><time>2026-03-29T12:52:58Z</time></trkpt><trkpt lat="45.436833847422456" lon="9.07404635586193"><ele>118.0</ele><time>2026-03-29T12:52:59Z</time></trkpt><trkpt lat="45.43661482218252" lon="9.074071349670621"><ele>118.0</ele><time>2026-03-29T12:53:00Z</time></trkpt><trkpt lat="45.4363926603427" lon="9.074095726599188"><ele>118.0</ele><time>2026-03-29T12:53:01Z</time></trkpt><trkpt lat="45.436169457423865" lon="9.074117350956389"><ele>118.0</ele><time>2026-03-29T12:53:02Z</time></trkpt><trkpt lat="45.43595015621633" lon="9.074144056327611"><ele>118.0</ele><time>2026-03-29T12:53:03Z</time></trkpt><trkpt lat="45.4357282038524" lon="9.074167085001072"><ele>118.0</ele><time>2026-03-29T12:53:04Z</time></trkpt><trkpt lat="45.435500742449335" lon="9.074188179891268"><ele>118.0</ele><time>2026-03-29T12:53:05Z</time></trkpt><trkpt lat="45.435278246247236" lon="9.074217619278746"><ele>118.0</ele><time>2026-03-29T12:53:06Z</time></trkpt><trkpt lat="45.43505969189191" lon="9.07424235307523"><ele>118.0</ele><time>2026-03-29T12:53:07Z</time></trkpt><trkpt lat="45.43483487922034" lon="9.074269266355824"><ele>117.5</ele><time>2026-03-29T12:53:08Z</time></trkpt><trkpt lat="45.43460414964418" lon="9.07429284705398"><ele>117.0</ele><time>2026-03-29T12:53:09Z</time></trkpt><trkpt lat="45.43437400648781" lon="9.074321370416925"><ele>117.0</ele><time>2026-03-29T12:53:10Z</time></trkpt><trkpt lat="45.43414071936333" lon="9.074355835020246"><ele>117.0</ele><time>2026-03-29T12:53:11Z</time></trkpt><trkpt lat="45.43390515150065" lon="9.07440670300597"><ele>117.5</ele><time>2026-03-29T12:53:12Z</time></trkpt><trkpt lat="45.43366619363492" lon="9.074425304697321"><ele>118.0</ele><time>2026-03-29T12:53:13Z</time></trkpt><trkpt lat="45.43339968416418" lon="9.07441948930484"><ele>118.0</ele><time>2026-03-29T12:53:13.999Z</time></trkpt><trkpt lat="45.43316578125992" lon="9.074442826261544"><ele>118.0</ele><time>2026-03-29T12:53:14.999Z</time></trkpt><trkpt lat="45.43293993988948" lon="9.074469309929185"><ele>116.0</ele><time>2026-03-29T12:53:15.999Z</time></trkpt><trkpt lat="45.432704800679076" lon="9.074521687721543"><ele>114.0</ele><time>2026-03-29T12:53:16.999Z</time></trkpt><trkpt lat="45.43246383998465" lon="9.074570129760046"><ele>114.0</ele><time>2026-03-29T12:53:17.999Z</time></trkpt><trkpt lat="45.43222709319699" lon="9.074624548176892"><ele>114.0</ele><time>2026-03-29T12:53:18.999Z</time></trkpt><trkpt lat="45.43198901441043" lon="9.074680166782143"><ele>115.0</ele><time>2026-03-29T12:53:19.999Z</time></trkpt><trkpt lat="45.43176240326274" lon="9.07473851325032"><ele>116.0</ele><time>2026-03-29T12:53:20.999Z</time></trkpt><trkpt lat="45.43153510372112" lon="9.074803145062987"><ele>116.0</ele><time>2026-03-29T12:53:21.999Z</time></trkpt><trkpt lat="45.43130819551861" lon="9.074879246492934"><ele>116.0</ele><time>2026-03-29T12:53:22.999Z</time></trkpt><trkpt lat="45.43108258936105" lon="9.074955292895643"><ele>116.0</ele><time>2026-03-29T12:53:23.999Z</time></trkpt><trkpt lat="45.43086277120098" lon="9.075037035891132"><ele>116.0</ele><time>2026-03-29T12:53:24.999Z</time></trkpt><trkpt lat="45.4306400531819" lon="9.075122188210244"><ele>116.5</ele><time>2026-03-29T12:53:25.999Z</time></trkpt><trkpt lat="45.43042547360378" lon="9.075208511036292"><ele>117.0</ele><time>2026-03-29T12:53:26.999Z</time></trkpt><trkpt lat="45.430207381536164" lon="9.075302660198451"><ele>117.0</ele><time>2026-03-29T12:53:27.999Z</time></trkpt><trkpt lat="45.42999187952236" lon="9.075392282387877"><ele>117.0</ele><time>2026-03-29T12:53:28.999Z</time></trkpt><trkpt lat="45.42978313791066" lon="9.075494333204643"><ele>117.0</ele><time>2026-03-29T12:53:29.999Z</time></trkpt><trkpt lat="45.42957019812666" lon="9.075601261309405"><ele>117.0</ele><time>2026-03-29T12:53:30.999Z</time></trkpt><trkpt lat="45.42935824072059" lon="9.075709854349213"><ele>117.0</ele><time>2026-03-29T12:53:31.999Z</time></trkpt><trkpt lat="45.42915089326134" lon="9.075822099230335"><ele>117.0</ele><time>2026-03-29T12:53:32.999Z</time></trkpt><trkpt lat="45.4289372705639" lon="9.0759416662986"><ele>116.33333333333334</ele><time>2026-03-29T12:53:33.999Z</time></trkpt><trkpt lat="45.428733520677774" lon="9.076061435603012"><ele>115.66666666666667</ele><time>2026-03-29T12:53:34.999Z</time></trkpt><trkpt lat="45.428533376747374" lon="9.076183136334022"><ele>115.0</ele><time>2026-03-29T12:53:35.999Z</time></trkpt><trkpt lat="45.42833061080841" lon="9.076303614779206"><ele>115.0</ele><time>2026-03-29T12:53:36.999Z</time></trkpt><trkpt lat="45.428130303836376" lon="9.076427455237026"><ele>115.0</ele><time>2026-03-29T12:53:37.999Z</time></trkpt><trkpt lat="45.42793249775232" lon="9.076551162451075"><ele>115.0</ele><time>2026-03-29T12:53:38.999Z</time></trkpt><trkpt lat="45.42773252064125" lon="9.076668801768145"><ele>116.33333333333334</ele><time>2026-03-29T12:53:39.999Z</time></trkpt><trkpt lat="45.42755779747441" lon="9.07678934341534"><ele>117.66666666666666</ele><time>2026-03-29T12:53:40.999Z</time></trkpt><trkpt lat="45.42736537915608" lon="9.076907288045637"><ele>119.0</ele><time>2026-03-29T12:53:41.999Z</time></trkpt><trkpt lat="45.42717228780434" lon="9.077028205348324"><ele>119.0</ele><time>2026-03-29T12:53:42.999Z</time></trkpt><trkpt lat="45.42697811899926" lon="9.07715343862551"><ele>119.0</ele><time>2026-03-29T12:53:43.999Z</time></trkpt><trkpt lat="45.426787745865475" lon="9.077267590583316"><ele>119.0</ele><time>2026-03-29T12:53:44.999Z</time></trkpt><trkpt lat="45.42658501318532" lon="9.077399466835196"><ele>119.5</ele><time>2026-03-29T12:53:45.999Z</time></trkpt><trkpt lat="45.42636602209846" lon="9.077541440721149"><ele>120.0</ele><time>2026-03-29T12:53:46.999Z</time></trkpt><trkpt lat="45.42613180089697" lon="9.077703997064194"><ele>119.0</ele><time>2026-03-29T12:53:47.999Z</time></trkpt><trkpt lat="45.42589965322475" lon="9.077847735646866"><ele>118.0</ele><time>2026-03-29T12:53:48.999Z</time></trkpt><trkpt lat="45.4256763547869" lon="9.077981632456252"><ele>118.0</ele><time>2026-03-29T12:53:49.999Z</time></trkpt><trkpt lat="45.42545268269389" lon="9.078117319044493"><ele>118.0</ele><time>2026-03-29T12:53:50.999Z</time></trkpt><trkpt lat="45.4252268648494" lon="9.078251204407692"><ele>118.5</ele><time>2026-03-29T12:53:51.999Z</time></trkpt><trkpt lat="45.42500253377879" lon="9.078390138193672"><ele>119.0</ele><time>2026-03-29T12:53:52.999Z</time></trkpt><trkpt lat="45.42477625557465" lon="9.0785319421586"><ele>117.0</ele><time>2026-03-29T12:53:53.999Z</time></trkpt><trkpt lat="45.42455376281936" lon="9.078673852523815"><ele>115.0</ele><time>2026-03-29T12:53:54.999Z</time></trkpt><trkpt lat="45.4243325003068" lon="9.078815099336945"><ele>115.0</ele><time>2026-03-29T12:53:55.999Z</time></trkpt><trkpt lat="45.42411593908018" lon="9.078950471374979"><ele>115.0</ele><time>2026-03-29T12:53:56.999Z</time></trkpt><trkpt lat="45.42390339600346" lon="9.079080382290122"><ele>114.0</ele><time>2026-03-29T12:53:57.999Z</time></trkpt><trkpt lat="45.42369384249837" lon="9.079208075396004"><ele>113.0</ele><time>2026-03-29T12:53:58.999Z</time></trkpt><trkpt lat="45.42348560498405" lon="9.079329066818218"><ele>113.0</ele><time>2026-03-29T12:53:59.999Z</time></trkpt><trkpt lat="45.423280941640904" lon="9.079445760992398"><ele>113.0</ele><time>2026-03-29T12:54:00.999Z</time></trkpt><trkpt lat="45.42306320314845" lon="9.07957783027112"><ele>114.0</ele><time>2026-03-29T12:54:01.999Z</time></trkpt><trkpt lat="45.42285719773814" lon="9.079697495623952"><ele>115.0</ele><time>2026-03-29T12:54:02.999Z</time></trkpt><trkpt lat="45.422661167167675" lon="9.079814462696929"><ele>116.0</ele><time>2026-03-29T12:54:03.999Z</time></trkpt><trkpt lat="45.42246638606289" lon="9.079928886845158"><ele>116.0</ele><time>2026-03-29T12:54:04.999Z</time></trkpt><trkpt lat="45.422275540980564" lon="9.080049260659953"><ele>116.0</ele><time>2026-03-29T12:54:05.999Z</time></trkpt><trkpt lat="45.42208074416383" lon="9.080172771963845"><ele>116.0</ele><time>2026-03-29T12:54:06.999Z</time></trkpt><trkpt lat="45.42189294565553" lon="9.080276298313295"><ele>116.33333333333333</ele><time>2026-03-29T12:54:08Z</time></trkpt><trkpt lat="45.421710718724086" lon="9.080408266866986"><ele>116.66666666666666</ele><time>2026-03-29T12:54:09Z</time></trkpt><trkpt lat="45.421520393752004" lon="9.080541571950935"><ele>117.0</ele><time>2026-03-29T12:54:10Z</time></trkpt><trkpt lat="45.421326789376835" lon="9.080677816390093"><ele>116.66666666666666</ele><time>2026-03-29T12:54:11Z</time></trkpt><trkpt lat="45.42113132210439" lon="9.080808388615532"><ele>116.33333333333333</ele><time>2026-03-29T12:54:12Z</time></trkpt><trkpt lat="45.420932186376625" lon="9.080937379464913"><ele>116.0</ele><time>2026-03-29T12:54:13Z</time></trkpt><trkpt lat="45.420722585438924" lon="9.08108450652436"><ele>116.0</ele><time>2026-03-29T12:54:14Z</time></trkpt><trkpt lat="45.420530351537735" lon="9.081244666836778"><ele>116.0</ele><time>2026-03-29T12:54:15Z</time></trkpt><trkpt lat="45.42032526960528" lon="9.081410957986133"><ele>115.0</ele><time>2026-03-29T12:54:16Z</time></trkpt><trkpt lat="45.4201246847878" lon="9.081578811230287"><ele>114.0</ele><time>2026-03-29T12:54:17Z</time></trkpt><trkpt lat="45.41992424775637" lon="9.081757614148719"><ele>114.0</ele><time>2026-03-29T12:54:18Z</time></trkpt><trkpt lat="45.419724320352366" lon="9.081941741823693"><ele>114.0</ele><time>2026-03-29T12:54:19Z</time></trkpt><trkpt lat="45.41952710282709" lon="9.082129899068192"><ele>113.0</ele><time>2026-03-29T12:54:20Z</time></trkpt><trkpt lat="45.41931828335902" lon="9.082343006321338"><ele>112.0</ele><time>2026-03-29T12:54:21Z</time></trkpt><trkpt lat="45.41913249180979" lon="9.082547852921756"><ele>112.0</ele><time>2026-03-29T12:54:22Z</time></trkpt><trkpt lat="45.41894194847759" lon="9.08276283256813"><ele>112.0</ele><time>2026-03-29T12:54:23Z</time></trkpt><trkpt lat="45.41875531371239" lon="9.082985532286688"><ele>112.5</ele><time>2026-03-29T12:54:24Z</time></trkpt><trkpt lat="45.41857712364175" lon="9.083206920018636"><ele>113.0</ele><time>2026-03-29T12:54:25Z</time></trkpt><trkpt lat="45.41839179253144" lon="9.083432400507562"><ele>113.5</ele><time>2026-03-29T12:54:26Z</time></trkpt><trkpt lat="45.418218855250274" lon="9.083665110170708"><ele>114.0</ele><time>2026-03-29T12:54:27Z</time></trkpt><trkpt lat="45.418055567613216" lon="9.083899951742646"><ele>114.0</ele><time>2026-03-29T12:54:28Z</time></trkpt><trkpt lat="45.41789314678775" lon="9.084134410355324"><ele>114.0</ele><time>2026-03-29T12:54:29Z</time></trkpt><trkpt lat="45.417732913345795" lon="9.084371933767828"><ele>114.0</ele><time>2026-03-29T12:54:30Z</time></trkpt><trkpt lat="45.417577718468735" lon="9.084619793060504"><ele>114.0</ele><time>2026-03-29T12:54:31Z</time></trkpt><trkpt lat="45.417424437682506" lon="9.084871636855793"><ele>114.0</ele><time>2026-03-29T12:54:32Z</time></trkpt><trkpt lat="45.4172784345635" lon="9.085124029000022"><ele>114.0</ele><time>2026-03-29T12:54:33Z</time></trkpt><trkpt lat="45.417132552815154" lon="9.085386247381544"><ele>114.0</ele><time>2026-03-29T12:54:34Z</time></trkpt><trkpt lat="45.41699138723268" lon="9.085657859432308"><ele>114.0</ele><time>2026-03-29T12:54:35Z</time></trkpt><trkpt lat="45.41685477913398" lon="9.085937336166785"><ele>114.0</ele><time>2026-03-29T12:54:36Z</time></trkpt><trkpt lat="45.41672527744683" lon="9.08621440468038"><ele>114.0</ele><time>2026-03-29T12:54:37Z</time></trkpt><trkpt lat="45.41659903592404" lon="9.086495666464675"><ele>113.5</ele><time>2026-03-29T12:54:38Z</time></trkpt><trkpt lat="45.41647298565106" lon="9.086785906113452"><ele>113.0</ele><time>2026-03-29T12:54:39Z</time></trkpt><trkpt lat="45.416355335205004" lon="9.087080248320044"><ele>113.0</ele><time>2026-03-29T12:54:40Z</time></trkpt><trkpt lat="45.416232837934274" lon="9.087369998505618"><ele>113.0</ele><time>2026-03-29T12:54:41Z</time></trkpt><trkpt lat="45.41611235118593" lon="9.087672033364152"><ele>113.0</ele><time>2026-03-29T12:54:42Z</time></trkpt><trkpt lat="45.41600455814965" lon="9.087994642860197"><ele>113.0</ele><time>2026-03-29T12:54:43Z</time></trkpt><trkpt lat="45.41589747903377" lon="9.088316385353313"><ele>113.0</ele><time>2026-03-29T12:54:44Z</time></trkpt><trkpt lat="45.415801469020415" lon="9.088640937671665"><ele>113.0</ele><time>2026-03-29T12:54:45Z</time></trkpt><trkpt lat="45.4157055523534" lon="9.08897290978577"><ele>110.5</ele><time>2026-03-29T12:54:46Z</time></trkpt><trkpt lat="45.4156107699052" lon="9.08929560838529"><ele>108.0</ele><time>2026-03-29T12:54:47Z</time></trkpt><trkpt lat="45.41551225637406" lon="9.089620681672601"><ele>109.0</ele><time>2026-03-29T12:54:48Z</time></trkpt><trkpt lat="45.41541710588955" lon="9.089953991839867"><ele>110.0</ele><time>2026-03-29T12:54:49Z</time></trkpt><trkpt lat="45.415320244430184" lon="9.090268593421838"><ele>110.0</ele><time>2026-03-29T12:54:50Z</time></trkpt><trkpt lat="45.41522424526703" lon="9.090583702248535"><ele>110.0</ele><time>2026-03-29T12:54:51Z</time></trkpt><trkpt lat="45.41513408450556" lon="9.090910365717225"><ele>109.0</ele><time>2026-03-29T12:54:52Z</time></trkpt><trkpt lat="45.41504259765837" lon="9.091234425276543"><ele>108.0</ele><time>2026-03-29T12:54:53Z</time></trkpt><trkpt lat="45.414952855003094" lon="9.091556548542597"><ele>109.0</ele><time>2026-03-29T12:54:54Z</time></trkpt><trkpt lat="45.41486351271756" lon="9.09187734926297"><ele>110.0</ele><time>2026-03-29T12:54:55Z</time></trkpt><trkpt lat="45.414772808202834" lon="9.092193731393465"><ele>110.0</ele><time>2026-03-29T12:54:56Z</time></trkpt><trkpt lat="45.41468672879858" lon="9.092509545544178"><ele>110.0</ele><time>2026-03-29T12:54:57Z</time></trkpt><trkpt lat="45.41459841005293" lon="9.092822978298452"><ele>110.0</ele><time>2026-03-29T12:54:58Z</time></trkpt><trkpt lat="45.414510393266994" lon="9.093136931465786"><ele>110.0</ele><time>2026-03-29T12:54:59Z</time></trkpt><trkpt lat="45.41443748727844" lon="9.093446766839241"><ele>110.0</ele><time>2026-03-29T12:55:00Z</time></trkpt><trkpt lat="45.41435191817693" lon="9.093765088681387"><ele>110.0</ele><time>2026-03-29T12:55:01Z</time></trkpt><trkpt lat="45.41426976561995" lon="9.094091068752551"><ele>110.0</ele><time>2026-03-29T12:55:02Z</time></trkpt><trkpt lat="45.41415686490039" lon="9.094424991551383"><ele>110.0</ele><time>2026-03-29T12:55:03Z</time></trkpt><trkpt lat="45.414055789276105" lon="9.094752409431452"><ele>109.5</ele><time>2026-03-29T12:55:04Z</time></trkpt><trkpt lat="45.41395033545116" lon="9.095072162424428"><ele>109.0</ele><time>2026-03-29T12:55:05Z</time></trkpt><trkpt lat="45.413849481958216" lon="9.095397475238553"><ele>110.5</ele><time>2026-03-29T12:55:06Z</time></trkpt><trkpt lat="45.41376587506501" lon="9.0957243617026"><ele>112.0</ele><time>2026-03-29T12:55:07Z</time></trkpt><trkpt lat="45.41368244175118" lon="9.096034081564541"><ele>112.0</ele><time>2026-03-29T12:55:08Z</time></trkpt><trkpt lat="45.413586809444396" lon="9.096348413333066"><ele>112.0</ele><time>2026-03-29T12:55:09Z</time></trkpt><trkpt lat="45.413497185667836" lon="9.096661994069352"><ele>112.0</ele><time>2026-03-29T12:55:10Z</time></trkpt><trkpt lat="45.41340485834162" lon="9.096983685867146"><ele>112.0</ele><time>2026-03-29T12:55:11Z</time></trkpt><trkpt lat="45.413309912129506" lon="9.097301757815321"><ele>112.0</ele><time>2026-03-29T12:55:12Z</time></trkpt><trkpt lat="45.413218879898665" lon="9.097613924990869"><ele>112.0</ele><time>2026-03-29T12:55:13Z</time></trkpt><trkpt lat="45.41312593101621" lon="9.097925272031658"><ele>112.0</ele><time>2026-03-29T12:55:14Z</time></trkpt><trkpt lat="45.413035941204996" lon="9.098231610244424"><ele>112.0</ele><time>2026-03-29T12:55:15Z</time></trkpt><trkpt lat="45.41295419106419" lon="9.098530331948817"><ele>111.5</ele><time>2026-03-29T12:55:15.999Z</time></trkpt><trkpt lat="45.41286809491275" lon="9.098830957667602"><ele>111.0</ele><time>2026-03-29T12:55:16.999Z</time></trkpt><trkpt lat="45.41278053377163" lon="9.09913252124817"><ele>111.0</ele><time>2026-03-29T12:55:17.999Z</time></trkpt><trkpt lat="45.412691912159666" lon="9.099438974720684"><ele>111.0</ele><time>2026-03-29T12:55:18.999Z</time></trkpt><trkpt lat="45.41260513101447" lon="9.099747233268664"><ele>110.0</ele><time>2026-03-29T12:55:19.999Z</time></trkpt><trkpt lat="45.41251526245814" lon="9.10005805790123"><ele>109.0</ele><time>2026-03-29T12:55:20.999Z</time></trkpt><trkpt lat="45.41242511046935" lon="9.100367557390262"><ele>109.0</ele><time>2026-03-29T12:55:21.999Z</time></trkpt><trkpt lat="45.41233385436871" lon="9.100683054376638"><ele>109.0</ele><time>2026-03-29T12:55:22.999Z</time></trkpt><trkpt lat="45.41224101541493" lon="9.101004729400126"><ele>109.5</ele><time>2026-03-29T12:55:23.999Z</time></trkpt><trkpt lat="45.41214652640426" lon="9.101321262212425"><ele>110.0</ele><time>2026-03-29T12:55:24.999Z</time></trkpt><trkpt lat="45.41205378250992" lon="9.101646681731536"><ele>109.0</ele><time>2026-03-29T12:55:25.999Z</time></trkpt><trkpt lat="45.41196386255765" lon="9.10196902287693"><ele>108.0</ele><time>2026-03-29T12:55:26.999Z</time></trkpt><trkpt lat="45.41187667893704" lon="9.102289067777024"><ele>109.0</ele><time>2026-03-29T12:55:27.999Z</time></trkpt><trkpt lat="45.41178887197007" lon="9.102608323634236"><ele>110.0</ele><time>2026-03-29T12:55:28.999Z</time></trkpt><trkpt lat="45.41169967809795" lon="9.102923020399297"><ele>110.0</ele><time>2026-03-29T12:55:29.999Z</time></trkpt><trkpt lat="45.411612914570995" lon="9.103240236917166"><ele>110.0</ele><time>2026-03-29T12:55:30.999Z</time></trkpt><trkpt lat="45.411519490840746" lon="9.103543854125435"><ele>110.0</ele><time>2026-03-29T12:55:31.999Z</time></trkpt><trkpt lat="45.41141834478384" lon="9.103852896222673"><ele>110.0</ele><time>2026-03-29T12:55:32.999Z</time></trkpt><trkpt lat="45.41131541960187" lon="9.104157667403937"><ele>109.5</ele><time>2026-03-29T12:55:33.999Z</time></trkpt><trkpt lat="45.411208762579676" lon="9.104459607018605"><ele>109.0</ele><time>2026-03-29T12:55:34.999Z</time></trkpt><trkpt lat="45.41109746193007" lon="9.104761613173803"><ele>109.0</ele><time>2026-03-29T12:55:35.999Z</time></trkpt><trkpt lat="45.410982531609754" lon="9.105061016245367"><ele>109.0</ele><time>2026-03-29T12:55:36.999Z</time></trkpt><trkpt lat="45.410863081538885" lon="9.105361552066933"><ele>109.0</ele><time>2026-03-29T12:55:37.999Z</time></trkpt><trkpt lat="45.41073983993962" lon="9.10566305211099"><ele>109.0</ele><time>2026-03-29T12:55:38.999Z</time></trkpt><trkpt lat="45.41061430543651" lon="9.105965616265491"><ele>109.5</ele><time>2026-03-29T12:55:39.999Z</time></trkpt><trkpt lat="45.41049061795976" lon="9.106262212211467"><ele>110.0</ele><time>2026-03-29T12:55:40.999Z</time></trkpt><trkpt lat="45.410362161821276" lon="9.10656141759524"><ele>110.5</ele><time>2026-03-29T12:55:41.999Z</time></trkpt><trkpt lat="45.410226351536686" lon="9.106853277441981"><ele>111.0</ele><time>2026-03-29T12:55:42.999Z</time></trkpt><trkpt lat="45.410089561247695" lon="9.10714307766853"><ele>110.5</ele><time>2026-03-29T12:55:43.999Z</time></trkpt><trkpt lat="45.409950690309905" lon="9.107429972430323"><ele>110.0</ele><time>2026-03-29T12:55:44.999Z</time></trkpt><trkpt lat="45.40980060331056" lon="9.107728109517792"><ele>110.5</ele><time>2026-03-29T12:55:45.999Z</time></trkpt><trkpt lat="45.409642111085965" lon="9.108032834596406"><ele>111.0</ele><time>2026-03-29T12:55:46.999Z</time></trkpt><trkpt lat="45.40945195151413" lon="9.108343661443707"><ele>110.0</ele><time>2026-03-29T12:55:47.999Z</time></trkpt><trkpt lat="45.409255072355144" lon="9.108656880621151"><ele>109.0</ele><time>2026-03-29T12:55:48.999Z</time></trkpt><trkpt lat="45.409058076861996" lon="9.108953534704009"><ele>109.0</ele><time>2026-03-29T12:55:49.999Z</time></trkpt><trkpt lat="45.4088738050991" lon="9.109284865606282"><ele>109.0</ele><time>2026-03-29T12:55:50.999Z</time></trkpt><trkpt lat="45.408683924254944" lon="9.1095886865421"><ele>109.0</ele><time>2026-03-29T12:55:51.999Z</time></trkpt><trkpt lat="45.40848546731057" lon="9.109878814822272"><ele>109.0</ele><time>2026-03-29T12:55:52.999Z</time></trkpt><trkpt lat="45.408291744691574" lon="9.110169605977106"><ele>109.0</ele><time>2026-03-29T12:55:53.999Z</time></trkpt><trkpt lat="45.40810562366818" lon="9.110473549266313"><ele>109.0</ele><time>2026-03-29T12:55:54.999Z</time></trkpt><trkpt lat="45.408015560895414" lon="9.110765901643033"><ele>108.5</ele><time>2026-03-29T12:55:55.999Z</time></trkpt><trkpt lat="45.407911076591674" lon="9.111096257178524"><ele>108.0</ele><time>2026-03-29T12:55:56.999Z</time></trkpt><trkpt lat="45.4078258024111" lon="9.111448814504564"><ele>108.5</ele><time>2026-03-29T12:55:57.999Z</time></trkpt><trkpt lat="45.40775740591218" lon="9.111807140627135"><ele>109.0</ele><time>2026-03-29T12:55:58.999Z</time></trkpt><trkpt lat="45.40740538749909" lon="9.11190408807135"><ele>109.0</ele><time>2026-03-29T12:55:59.999Z</time></trkpt><trkpt lat="45.407246612354875" lon="9.112172711390064"><ele>109.0</ele><time>2026-03-29T12:56:00.999Z</time></trkpt><trkpt lat="45.40709641574372" lon="9.112439081138987"><ele>110.5</ele><time>2026-03-29T12:56:01.999Z</time></trkpt><trkpt lat="45.40694442255852" lon="9.112702021835233"><ele>112.0</ele><time>2026-03-29T12:56:02.999Z</time></trkpt><trkpt lat="45.40679125692893" lon="9.112989036609141"><ele>110.5</ele><time>2026-03-29T12:56:03.999Z</time></trkpt><trkpt lat="45.40665010695403" lon="9.11325718840998"><ele>109.0</ele><time>2026-03-29T12:56:04.999Z</time></trkpt><trkpt lat="45.406494405653525" lon="9.11351604650066"><ele>109.0</ele><time>2026-03-29T12:56:05.999Z</time></trkpt><trkpt lat="45.40633789101859" lon="9.113779009529603"><ele>109.0</ele><time>2026-03-29T12:56:06.999Z</time></trkpt><trkpt lat="45.406184195565636" lon="9.114037168878992"><ele>108.0</ele><time>2026-03-29T12:56:07.999Z</time></trkpt><trkpt lat="45.40603422012641" lon="9.114294049681927"><ele>107.0</ele><time>2026-03-29T12:56:08.999Z</time></trkpt><trkpt lat="45.40588732063135" lon="9.114556061829656"><ele>107.0</ele><time>2026-03-29T12:56:09.999Z</time></trkpt><trkpt lat="45.40574109440525" lon="9.11482185639701"><ele>107.0</ele><time>2026-03-29T12:56:10.999Z</time></trkpt><trkpt lat="45.40559719895606" lon="9.115085519097688"><ele>106.5</ele><time>2026-03-29T12:56:11.999Z</time></trkpt><trkpt lat="45.405438787797465" lon="9.11532536455415"><ele>106.0</ele><time>2026-03-29T12:56:12.999Z</time></trkpt><trkpt lat="45.405291791760376" lon="9.115586301150477"><ele>107.0</ele><time>2026-03-29T12:56:14Z</time></trkpt><trkpt lat="45.405143613506695" lon="9.115835555652005"><ele>108.0</ele><time>2026-03-29T12:56:15Z</time></trkpt><trkpt lat="45.404994628953915" lon="9.11609641559004"><ele>108.0</ele><time>2026-03-29T12:56:16Z</time></trkpt><trkpt lat="45.4048464463098" lon="9.116356078829396"><ele>108.0</ele><time>2026-03-29T12:56:17Z</time></trkpt><trkpt lat="45.40470092863412" lon="9.116615640502202"><ele>108.5</ele><time>2026-03-29T12:56:18Z</time></trkpt><trkpt lat="45.40455453215586" lon="9.116865026842436"><ele>109.0</ele><time>2026-03-29T12:56:19Z</time></trkpt><trkpt lat="45.40440745633523" lon="9.1171257218406"><ele>109.0</ele><time>2026-03-29T12:56:20Z</time></trkpt><trkpt lat="45.4042543009072" lon="9.117393203839258"><ele>109.0</ele><time>2026-03-29T12:56:21Z</time></trkpt><trkpt lat="45.404102058485286" lon="9.117654117458303"><ele>109.0</ele><time>2026-03-29T12:56:22Z</time></trkpt><trkpt lat="45.4039532573583" lon="9.117919186683176"><ele>109.0</ele><time>2026-03-29T12:56:23Z</time></trkpt><trkpt lat="45.403806752634694" lon="9.118186011946824"><ele>109.0</ele><time>2026-03-29T12:56:24Z</time></trkpt><trkpt lat="45.40365310220324" lon="9.118475220289252"><ele>109.0</ele><time>2026-03-29T12:56:25Z</time></trkpt><trkpt lat="45.40349764158712" lon="9.11876334200084"><ele>109.0</ele><time>2026-03-29T12:56:26Z</time></trkpt><trkpt lat="45.40334000875903" lon="9.119056039616321"><ele>109.0</ele><time>2026-03-29T12:56:27Z</time></trkpt><trkpt lat="45.40318866802038" lon="9.119333531979624"><ele>109.0</ele><time>2026-03-29T12:56:28Z</time></trkpt><trkpt lat="45.403010311843815" lon="9.119624984891564"><ele>109.0</ele><time>2026-03-29T12:56:29Z</time></trkpt><trkpt lat="45.40285579094851" lon="9.119895844285212"><ele>108.5</ele><time>2026-03-29T12:56:30Z</time></trkpt><trkpt lat="45.40269376926951" lon="9.12016454915068"><ele>108.0</ele><time>2026-03-29T12:56:31Z</time></trkpt><trkpt lat="45.402540862534735" lon="9.120409011470846"><ele>108.0</ele><time>2026-03-29T12:56:32Z</time></trkpt><trkpt lat="45.402357159491714" lon="9.120727324080189"><ele>108.0</ele><time>2026-03-29T12:56:33Z</time></trkpt><trkpt lat="45.402176864820774" lon="9.121030218845535"><ele>107.5</ele><time>2026-03-29T12:56:34Z</time></trkpt><trkpt lat="45.40200436550115" lon="9.121334799438673"><ele>107.0</ele><time>2026-03-29T12:56:35Z</time></trkpt><trkpt lat="45.40183964531324" lon="9.121638979301093"><ele>107.0</ele><time>2026-03-29T12:56:36Z</time></trkpt><trkpt lat="45.4016577525122" lon="9.121937746212355"><ele>107.0</ele><time>2026-03-29T12:56:37Z</time></trkpt><trkpt lat="45.4014859119275" lon="9.12222309990258"><ele>108.0</ele><time>2026-03-29T12:56:38Z</time></trkpt><trkpt lat="45.4013185249622" lon="9.122519960847054"><ele>109.0</ele><time>2026-03-29T12:56:39Z</time></trkpt><trkpt lat="45.40116270473906" lon="9.122810910095954"><ele>109.0</ele><time>2026-03-29T12:56:40Z</time></trkpt><trkpt lat="45.40100724145627" lon="9.123102044928853"><ele>109.0</ele><time>2026-03-29T12:56:41Z</time></trkpt><trkpt lat="45.40085549525173" lon="9.123394201434618"><ele>109.0</ele><time>2026-03-29T12:56:42Z</time></trkpt><trkpt lat="45.400707130453114" lon="9.123684493367993"><ele>109.0</ele><time>2026-03-29T12:56:43Z</time></trkpt><trkpt lat="45.40056532225815" lon="9.123976156808913"><ele>108.0</ele><time>2026-03-29T12:56:44Z</time></trkpt><trkpt lat="45.40042359283229" lon="9.124265990695363"><ele>107.0</ele><time>2026-03-29T12:56:45Z</time></trkpt><trkpt lat="45.400299719616484" lon="9.124543731045463"><ele>107.0</ele><time>2026-03-29T12:56:46Z</time></trkpt><trkpt lat="45.40016071102618" lon="9.124844763097565"><ele>107.0</ele><time>2026-03-29T12:56:47Z</time></trkpt><trkpt lat="45.400035979753305" lon="9.125156220666796"><ele>107.0</ele><time>2026-03-29T12:56:48Z</time></trkpt><trkpt lat="45.39990538175506" lon="9.12545709372138"><ele>107.0</ele><time>2026-03-29T12:56:49Z</time></trkpt><trkpt lat="45.39978916317045" lon="9.125750177359768"><ele>106.0</ele><time>2026-03-29T12:56:50Z</time></trkpt><trkpt lat="45.39967609105972" lon="9.1260426789857"><ele>105.0</ele><time>2026-03-29T12:56:51Z</time></trkpt><trkpt lat="45.399563400021" lon="9.126338451483116"><ele>105.0</ele><time>2026-03-29T12:56:52Z</time></trkpt><trkpt lat="45.399450640344774" lon="9.126633826141946"><ele>105.0</ele><time>2026-03-29T12:56:53Z</time></trkpt><trkpt lat="45.399345738451494" lon="9.12693820203803"><ele>105.0</ele><time>2026-03-29T12:56:54Z</time></trkpt><trkpt lat="45.39923863780205" lon="9.127239942957106"><ele>105.0</ele><time>2026-03-29T12:56:55Z</time></trkpt><trkpt lat="45.399136926154966" lon="9.127540772033248"><ele>106.5</ele><time>2026-03-29T12:56:56Z</time></trkpt><trkpt lat="45.399040423871746" lon="9.12784713831476"><ele>108.0</ele><time>2026-03-29T12:56:57Z</time></trkpt><trkpt lat="45.39894204656766" lon="9.128160614703143"><ele>108.0</ele><time>2026-03-29T12:56:58Z</time></trkpt><trkpt lat="45.39884923267006" lon="9.128470739227758"><ele>108.0</ele><time>2026-03-29T12:56:59Z</time></trkpt><trkpt lat="45.398760659897334" lon="9.128790387497926"><ele>107.5</ele><time>2026-03-29T12:57:00Z</time></trkpt><trkpt lat="45.39866692874763" lon="9.129123220294144"><ele>107.0</ele><time>2026-03-29T12:57:01Z</time></trkpt><trkpt lat="45.398579113143" lon="9.129464030276027"><ele>107.0</ele><time>2026-03-29T12:57:02Z</time></trkpt><trkpt lat="45.39850022794444" lon="9.129804244551657"><ele>107.0</ele><time>2026-03-29T12:57:03Z</time></trkpt><trkpt lat="45.39841502054085" lon="9.130141200870272"><ele>106.5</ele><time>2026-03-29T12:57:04Z</time></trkpt><trkpt lat="45.39834241383402" lon="9.130461188212085"><ele>106.0</ele><time>2026-03-29T12:57:05Z</time></trkpt><trkpt lat="45.39826565901243" lon="9.130796169439375"><ele>107.0</ele><time>2026-03-29T12:57:06Z</time></trkpt><trkpt lat="45.39819394919202" lon="9.131126656988652"><ele>108.0</ele><time>2026-03-29T12:57:07Z</time></trkpt><trkpt lat="45.398123303982594" lon="9.13146322744506"><ele>107.5</ele><time>2026-03-29T12:57:08Z</time></trkpt><trkpt lat="45.39805463009871" lon="9.131793329328985"><ele>107.0</ele><time>2026-03-29T12:57:09Z</time></trkpt><trkpt lat="45.39797421934338" lon="9.13214853831842"><ele>108.0</ele><time>2026-03-29T12:57:10Z</time></trkpt><trkpt lat="45.397909854717355" lon="9.132503234411782"><ele>109.0</ele><time>2026-03-29T12:57:11Z</time></trkpt><trkpt lat="45.39783182861657" lon="9.132935012707629"><ele>108.0</ele><time>2026-03-29T12:57:12Z</time></trkpt><trkpt lat="45.397759837572124" lon="9.133233621590175"><ele>107.0</ele><time>2026-03-29T12:57:13Z</time></trkpt><trkpt lat="45.397676374674894" lon="9.133561824786609"><ele>107.0</ele><time>2026-03-29T12:57:14Z</time></trkpt><trkpt lat="45.39760511045905" lon="9.133881680370289"><ele>107.0</ele><time>2026-03-29T12:57:15Z</time></trkpt><trkpt lat="45.397533890454675" lon="9.134249424504386"><ele>106.0</ele><time>2026-03-29T12:57:16Z</time></trkpt><trkpt lat="45.397447501208624" lon="9.134556562463162"><ele>105.0</ele><time>2026-03-29T12:57:17Z</time></trkpt><trkpt lat="45.39738547264263" lon="9.134918194883724"><ele>105.0</ele><time>2026-03-29T12:57:18Z</time></trkpt><trkpt lat="45.39731278700337" lon="9.135249790226831"><ele>105.0</ele><time>2026-03-29T12:57:19Z</time></trkpt><trkpt lat="45.39722817524068" lon="9.135575017527371"><ele>103.5</ele><time>2026-03-29T12:57:20Z</time></trkpt><trkpt lat="45.39713611295388" lon="9.13591222235288"><ele>102.0</ele><time>2026-03-29T12:57:21Z</time></trkpt><trkpt lat="45.3970424407814" lon="9.136252337517856"><ele>102.0</ele><time>2026-03-29T12:57:22Z</time></trkpt><trkpt lat="45.39694998932331" lon="9.136584982113185"><ele>102.0</ele><time>2026-03-29T12:57:23Z</time></trkpt><trkpt lat="45.396841258966575" lon="9.136928157642426"><ele>102.0</ele><time>2026-03-29T12:57:23.999Z</time></trkpt><trkpt lat="45.39673085810997" lon="9.137260640235795"><ele>102.0</ele><time>2026-03-29T12:57:24.999Z</time></trkpt><trkpt lat="45.3966205410942" lon="9.137591572953108"><ele>103.0</ele><time>2026-03-29T12:57:25.999Z</time></trkpt><trkpt lat="45.39650143965587" lon="9.137911321288076"><ele>104.0</ele><time>2026-03-29T12:57:26.999Z</time></trkpt><trkpt lat="45.39638539474036" lon="9.138238163657254"><ele>105.0</ele><time>2026-03-29T12:57:27.999Z</time></trkpt><trkpt lat="45.39627021414062" lon="9.138561451141124"><ele>106.0</ele><time>2026-03-29T12:57:28.999Z</time></trkpt><trkpt lat="45.39615949298406" lon="9.138881057093922"><ele>106.0</ele><time>2026-03-29T12:57:29.999Z</time></trkpt><trkpt lat="45.396048629751846" lon="9.139192981816587"><ele>106.0</ele><time>2026-03-29T12:57:30.999Z</time></trkpt><trkpt lat="45.39593850715931" lon="9.139510533716903"><ele>106.0</ele><time>2026-03-29T12:57:31.999Z</time></trkpt><trkpt lat="45.39582863918272" lon="9.139817779814543"><ele>106.0</ele><time>2026-03-29T12:57:32.999Z</time></trkpt><trkpt lat="45.39572128849706" lon="9.140128375494793"><ele>106.5</ele><time>2026-03-29T12:57:33.999Z</time></trkpt><trkpt lat="45.39561508605813" lon="9.140436853904058"><ele>107.0</ele><time>2026-03-29T12:57:34.999Z</time></trkpt><trkpt lat="45.39550510173083" lon="9.140742108280316"><ele>106.0</ele><time>2026-03-29T12:57:35.999Z</time></trkpt><trkpt lat="45.39539540446259" lon="9.141048591851867"><ele>105.0</ele><time>2026-03-29T12:57:36.999Z</time></trkpt><trkpt lat="45.39528741898321" lon="9.141352993069551"><ele>105.0</ele><time>2026-03-29T12:57:37.999Z</time></trkpt><trkpt lat="45.3951812052109" lon="9.14165155830826"><ele>105.0</ele><time>2026-03-29T12:57:38.999Z</time></trkpt><trkpt lat="45.395076729873345" lon="9.141955514375345"><ele>105.0</ele><time>2026-03-29T12:57:39.999Z</time></trkpt><trkpt lat="45.39497075272496" lon="9.14226035763873"><ele>105.0</ele><time>2026-03-29T12:57:40.999Z</time></trkpt><trkpt lat="45.394863665571116" lon="9.142565420682532"><ele>105.5</ele><time>2026-03-29T12:57:41.999Z</time></trkpt><trkpt lat="45.39475001835754" lon="9.142870643257917"><ele>106.0</ele><time>2026-03-29T12:57:42.999Z</time></trkpt><trkpt lat="45.39464590531883" lon="9.143172442160571"><ele>106.5</ele><time>2026-03-29T12:57:43.999Z</time></trkpt><trkpt lat="45.394536701386365" lon="9.14348926328395"><ele>107.0</ele><time>2026-03-29T12:57:44.999Z</time></trkpt><trkpt lat="45.394419196528006" lon="9.14381668697505"><ele>107.0</ele><time>2026-03-29T12:57:45.999Z</time></trkpt><trkpt lat="45.394306665173666" lon="9.14413278022117"><ele>107.0</ele><time>2026-03-29T12:57:46.999Z</time></trkpt><trkpt lat="45.39418982697464" lon="9.144455596744395"><ele>107.0</ele><time>2026-03-29T12:57:47.999Z</time></trkpt><trkpt lat="45.39407495485737" lon="9.144775924631238"><ele>107.0</ele><time>2026-03-29T12:57:48.999Z</time></trkpt><trkpt lat="45.39396320226408" lon="9.145096657021918"><ele>106.0</ele><time>2026-03-29T12:57:49.999Z</time></trkpt><trkpt lat="45.393850819329735" lon="9.145420129369045"><ele>105.0</ele><time>2026-03-29T12:57:50.999Z</time></trkpt><trkpt lat="45.393741663553605" lon="9.145732471537348"><ele>105.0</ele><time>2026-03-29T12:57:51.999Z</time></trkpt><trkpt lat="45.39363058766865" lon="9.146040910249356"><ele>105.0</ele><time>2026-03-29T12:57:52.999Z</time></trkpt><trkpt lat="45.39352457166508" lon="9.146335704087168"><ele>106.5</ele><time>2026-03-29T12:57:53.999Z</time></trkpt><trkpt lat="45.39342168691432" lon="9.146637813492637"><ele>108.0</ele><time>2026-03-29T12:57:54.999Z</time></trkpt><trkpt lat="45.39332647699514" lon="9.146941871489945"><ele>108.0</ele><time>2026-03-29T12:57:55.999Z</time></trkpt><trkpt lat="45.39321281858984" lon="9.147232457078877"><ele>108.0</ele><time>2026-03-29T12:57:56.999Z</time></trkpt><trkpt lat="45.39310722619265" lon="9.147532795937494"><ele>106.5</ele><time>2026-03-29T12:57:57.999Z</time></trkpt><trkpt lat="45.392997643327185" lon="9.147841163748314"><ele>105.0</ele><time>2026-03-29T12:57:58.999Z</time></trkpt><trkpt lat="45.39289149942172" lon="9.148143974879895"><ele>107.5</ele><time>2026-03-29T12:57:59.999Z</time></trkpt><trkpt lat="45.392783755537906" lon="9.148450740938664"><ele>110.0</ele><time>2026-03-29T12:58:00.999Z</time></trkpt><trkpt lat="45.39267234408154" lon="9.148746737559232"><ele>108.0</ele><time>2026-03-29T12:58:01.999Z</time></trkpt><trkpt lat="45.39256779295444" lon="9.149056737453208"><ele>106.0</ele><time>2026-03-29T12:58:02.999Z</time></trkpt><trkpt lat="45.39246244617295" lon="9.149351806025168"><ele>106.0</ele><time>2026-03-29T12:58:03.999Z</time></trkpt><trkpt lat="45.39235600255613" lon="9.149649968388669"><ele>106.0</ele><time>2026-03-29T12:58:04.999Z</time></trkpt><trkpt lat="45.39225044890689" lon="9.149946305661997"><ele>106.5</ele><time>2026-03-29T12:58:05.999Z</time></trkpt><trkpt lat="45.39214777151398" lon="9.150243904061567"><ele>107.0</ele><time>2026-03-29T12:58:06.999Z</time></trkpt><trkpt lat="45.39204265560344" lon="9.15054031934447"><ele>107.5</ele><time>2026-03-29T12:58:07.999Z</time></trkpt><trkpt lat="45.39193892494916" lon="9.150838895653298"><ele>108.0</ele><time>2026-03-29T12:58:08.999Z</time></trkpt><trkpt lat="45.39183079282608" lon="9.151143842415651"><ele>108.0</ele><time>2026-03-29T12:58:09.999Z</time></trkpt><trkpt lat="45.391723244710406" lon="9.151453071885456"><ele>108.0</ele><time>2026-03-29T12:58:10.999Z</time></trkpt><trkpt lat="45.39161310423663" lon="9.151769069768708"><ele>107.0</ele><time>2026-03-29T12:58:11.999Z</time></trkpt><trkpt lat="45.391503173279226" lon="9.152081830723343"><ele>106.0</ele><time>2026-03-29T12:58:12.999Z</time></trkpt><trkpt lat="45.391392967171164" lon="9.15239726825128"><ele>105.0</ele><time>2026-03-29T12:58:13.999Z</time></trkpt><trkpt lat="45.39127640314256" lon="9.152710171730842"><ele>104.0</ele><time>2026-03-29T12:58:14.999Z</time></trkpt><trkpt lat="45.39117002993498" lon="9.153019183974267"><ele>104.5</ele><time>2026-03-29T12:58:15.999Z</time></trkpt><trkpt lat="45.39105997357342" lon="9.153335330033968"><ele>105.0</ele><time>2026-03-29T12:58:16.999Z</time></trkpt><trkpt lat="45.390947172740425" lon="9.153638940600077"><ele>105.0</ele><time>2026-03-29T12:58:17.999Z</time></trkpt><trkpt lat="45.390842193007394" lon="9.153951547478117"><ele>105.0</ele><time>2026-03-29T12:58:18.999Z</time></trkpt><trkpt lat="45.39073340169931" lon="9.154261382935257"><ele>105.5</ele><time>2026-03-29T12:58:20Z</time></trkpt><trkpt lat="45.39062494402034" lon="9.154568755605196"><ele>106.0</ele><time>2026-03-29T12:58:21Z</time></trkpt><trkpt lat="45.39051473261616" lon="9.154878938020602"><ele>105.5</ele><time>2026-03-29T12:58:22Z</time></trkpt><trkpt lat="45.39040640270851" lon="9.155186863289243"><ele>105.0</ele><time>2026-03-29T12:58:23Z</time></trkpt><trkpt lat="45.39029577330243" lon="9.155495423411757"><ele>104.5</ele><time>2026-03-29T12:58:24Z</time></trkpt><trkpt lat="45.390187968108634" lon="9.155800655677385"><ele>104.0</ele><time>2026-03-29T12:58:25Z</time></trkpt><trkpt lat="45.39007745976335" lon="9.15610889716289"><ele>104.0</ele><time>2026-03-29T12:58:26Z</time></trkpt><trkpt lat="45.38997188386028" lon="9.156407234036916"><ele>104.0</ele><time>2026-03-29T12:58:27Z</time></trkpt><trkpt lat="45.389862754008405" lon="9.15671633406168"><ele>103.5</ele><time>2026-03-29T12:58:28Z</time></trkpt><trkpt lat="45.38975411033896" lon="9.157019873657713"><ele>103.0</ele><time>2026-03-29T12:58:29Z</time></trkpt><trkpt lat="45.38964123641117" lon="9.157326880415972"><ele>104.0</ele><time>2026-03-29T12:58:30Z</time></trkpt><trkpt lat="45.38953471842113" lon="9.157640517272409"><ele>105.0</ele><time>2026-03-29T12:58:31Z</time></trkpt><trkpt lat="45.389425476000795" lon="9.157945687017833"><ele>104.5</ele><time>2026-03-29T12:58:32Z</time></trkpt><trkpt lat="45.389317289237034" lon="9.158252373853838"><ele>104.0</ele><time>2026-03-29T12:58:33Z</time></trkpt><trkpt lat="45.38920520274066" lon="9.158559859143292"><ele>104.0</ele><time>2026-03-29T12:58:34Z</time></trkpt><trkpt lat="45.38910050844921" lon="9.158866470433724"><ele>104.0</ele><time>2026-03-29T12:58:35Z</time></trkpt><trkpt lat="45.38899355984894" lon="9.159170288046509"><ele>104.5</ele><time>2026-03-29T12:58:36Z</time></trkpt><trkpt lat="45.38888817234939" lon="9.159477989794107"><ele>105.0</ele><time>2026-03-29T12:58:37Z</time></trkpt><trkpt lat="45.38877835746637" lon="9.159786560056915"><ele>103.5</ele><time>2026-03-29T12:58:38Z</time></trkpt><trkpt lat="45.38866780969276" lon="9.160100103182613"><ele>102.0</ele><time>2026-03-29T12:58:39Z</time></trkpt><trkpt lat="45.38856299782437" lon="9.16042855190918"><ele>101.5</ele><time>2026-03-29T12:58:40Z</time></trkpt><trkpt lat="45.38845195743023" lon="9.160715201714048"><ele>101.0</ele><time>2026-03-29T12:58:41Z</time></trkpt><trkpt lat="45.3883336774439" lon="9.161046623290513"><ele>101.0</ele><time>2026-03-29T12:58:42Z</time></trkpt><trkpt lat="45.388217714194944" lon="9.161358071829493"><ele>101.0</ele><time>2026-03-29T12:58:43Z</time></trkpt><trkpt lat="45.38811718600136" lon="9.16167995501212"><ele>101.5</ele><time>2026-03-29T12:58:44Z</time></trkpt><trkpt lat="45.387999939218886" lon="9.162004160888573"><ele>102.0</ele><time>2026-03-29T12:58:45Z</time></trkpt><trkpt lat="45.38789664308521" lon="9.162301489602424"><ele>102.0</ele><time>2026-03-29T12:58:46Z</time></trkpt><trkpt lat="45.387776347344925" lon="9.162636749161994"><ele>102.0</ele><time>2026-03-29T12:58:47Z</time></trkpt><trkpt lat="45.38766710203948" lon="9.162951242883915"><ele>101.5</ele><time>2026-03-29T12:58:48Z</time></trkpt><trkpt lat="45.38755947922604" lon="9.163265146323475"><ele>101.0</ele><time>2026-03-29T12:58:49Z</time></trkpt><trkpt lat="45.38744826187872" lon="9.163593567163366"><ele>101.0</ele><time>2026-03-29T12:58:50Z</time></trkpt><trkpt lat="45.38732244130864" lon="9.1639294547234"><ele>101.0</ele><time>2026-03-29T12:58:51Z</time></trkpt><trkpt lat="45.38720452905206" lon="9.164267968069307"><ele>101.0</ele><time>2026-03-29T12:58:52Z</time></trkpt><trkpt lat="45.38708159340032" lon="9.16460844644908"><ele>101.0</ele><time>2026-03-29T12:58:53Z</time></trkpt><trkpt lat="45.3869699132132" lon="9.164940974417656"><ele>101.0</ele><time>2026-03-29T12:58:54Z</time></trkpt><trkpt lat="45.38686223201716" lon="9.165263588475565"><ele>101.0</ele><time>2026-03-29T12:58:55Z</time></trkpt><trkpt lat="45.38676115358546" lon="9.165583507306604"><ele>100.0</ele><time>2026-03-29T12:58:56Z</time></trkpt><trkpt lat="45.38666422678875" lon="9.16588153802481"><ele>99.0</ele><time>2026-03-29T12:58:57Z</time></trkpt><trkpt lat="45.386590097245396" lon="9.166202445637902"><ele>98.5</ele><time>2026-03-29T12:58:58Z</time></trkpt><trkpt lat="45.38651530420091" lon="9.166534231434849"><ele>98.0</ele><time>2026-03-29T12:58:59Z</time></trkpt><trkpt lat="45.38644490897151" lon="9.166843040263435"><ele>98.0</ele><time>2026-03-29T12:59:00Z</time></trkpt><trkpt lat="45.386377303916106" lon="9.167163440145186"><ele>98.0</ele><time>2026-03-29T12:59:01Z</time></trkpt><trkpt lat="45.38631838726021" lon="9.16748199851047"><ele>101.5</ele><time>2026-03-29T12:59:02Z</time></trkpt><trkpt lat="45.386267667789305" lon="9.167813237897887"><ele>105.0</ele><time>2026-03-29T12:59:03Z</time></trkpt><trkpt lat="45.386220500858336" lon="9.168137350695474"><ele>103.0</ele><time>2026-03-29T12:59:04Z</time></trkpt><trkpt lat="45.386177269589254" lon="9.168469604853307"><ele>101.0</ele><time>2026-03-29T12:59:05Z</time></trkpt><trkpt lat="45.38614225971691" lon="9.168803517464987"><ele>102.5</ele><time>2026-03-29T12:59:06Z</time></trkpt><trkpt lat="45.38611057112927" lon="9.169133826463826"><ele>104.0</ele><time>2026-03-29T12:59:07Z</time></trkpt><trkpt lat="45.386089410023416" lon="9.169471092468969"><ele>104.0</ele><time>2026-03-29T12:59:08Z</time></trkpt><trkpt lat="45.38607400288751" lon="9.169804157703915"><ele>104.0</ele><time>2026-03-29T12:59:09Z</time></trkpt><trkpt lat="45.386062667706625" lon="9.17013629030331"><ele>104.0</ele><time>2026-03-29T12:59:10Z</time></trkpt><trkpt lat="45.38605775236193" lon="9.17047123225381"><ele>104.0</ele><time>2026-03-29T12:59:11Z</time></trkpt><trkpt lat="45.38606289123981" lon="9.170802541896078"><ele>104.0</ele><time>2026-03-29T12:59:12Z</time></trkpt><trkpt lat="45.38607145955709" lon="9.17113020139041"><ele>104.0</ele><time>2026-03-29T12:59:13Z</time></trkpt><trkpt lat="45.38608603602058" lon="9.171452024732066"><ele>102.5</ele><time>2026-03-29T12:59:14Z</time></trkpt><trkpt lat="45.38610638229697" lon="9.171768815466303"><ele>101.0</ele><time>2026-03-29T12:59:15Z</time></trkpt><trkpt lat="45.38612875902827" lon="9.172089926814303"><ele>100.66666666666666</ele><time>2026-03-29T12:59:16Z</time></trkpt><trkpt lat="45.38615360641315" lon="9.17239989776057"><ele>100.33333333333334</ele><time>2026-03-29T12:59:17Z</time></trkpt><trkpt lat="45.38618712635186" lon="9.172713199337302"><ele>100.0</ele><time>2026-03-29T12:59:18Z</time></trkpt><trkpt lat="45.386230883142346" lon="9.173019128803343"><ele>100.33333333333334</ele><time>2026-03-29T12:59:19Z</time></trkpt><trkpt lat="45.38627372903364" lon="9.17332921999295"><ele>100.66666666666666</ele><time>2026-03-29T12:59:20Z</time></trkpt><trkpt lat="45.38632650293024" lon="9.173636528599257"><ele>101.0</ele><time>2026-03-29T12:59:21Z</time></trkpt><trkpt lat="45.38638589775091" lon="9.173949242374665"><ele>101.0</ele><time>2026-03-29T12:59:22Z</time></trkpt><trkpt lat="45.38644363524173" lon="9.1742518194145"><ele>101.0</ele><time>2026-03-29T12:59:23Z</time></trkpt><trkpt lat="45.38651339895427" lon="9.174559833043043"><ele>101.0</ele><time>2026-03-29T12:59:24Z</time></trkpt><trkpt lat="45.38658487463462" lon="9.174848842677145"><ele>101.0</ele><time>2026-03-29T12:59:25Z</time></trkpt><trkpt lat="45.38665902342097" lon="9.175142342500703"><ele>101.0</ele><time>2026-03-29T12:59:26Z</time></trkpt><trkpt lat="45.386744927962205" lon="9.175438329947303"><ele>101.0</ele><time>2026-03-29T12:59:26.999Z</time></trkpt><trkpt lat="45.38683863351266" lon="9.175737523795322"><ele>101.0</ele><time>2026-03-29T12:59:27.999Z</time></trkpt><trkpt lat="45.38693323281681" lon="9.176037262714"><ele>101.0</ele><time>2026-03-29T12:59:28.999Z</time></trkpt><trkpt lat="45.38703029929074" lon="9.176321948175023"><ele>101.66666666666666</ele><time>2026-03-29T12:59:29.999Z</time></trkpt><trkpt lat="45.38712929475545" lon="9.176603007967927"><ele>102.33333333333334</ele><time>2026-03-29T12:59:30.999Z</time></trkpt><trkpt lat="45.38723685655463" lon="9.176878173679256"><ele>103.0</ele><time>2026-03-29T12:59:31.999Z</time></trkpt><trkpt lat="45.38734651162406" lon="9.177156879064338"><ele>103.0</ele><time>2026-03-29T12:59:32.999Z</time></trkpt><trkpt lat="45.38745640043661" lon="9.177442040312389"><ele>103.0</ele><time>2026-03-29T12:59:33.999Z</time></trkpt><trkpt lat="45.38756171206372" lon="9.177715146341548"><ele>103.0</ele><time>2026-03-29T12:59:34.999Z</time></trkpt><trkpt lat="45.38767058803942" lon="9.177989455821422"><ele>102.33333333333334</ele><time>2026-03-29T12:59:35.999Z</time></trkpt><trkpt lat="45.387779394056025" lon="9.178257710960287"><ele>101.66666666666666</ele><time>2026-03-29T12:59:36.999Z</time></trkpt><trkpt lat="45.3878881969056" lon="9.17852589213648"><ele>101.0</ele><time>2026-03-29T12:59:37.999Z</time></trkpt><trkpt lat="45.38800072815379" lon="9.178790677337817"><ele>101.33333333333333</ele><time>2026-03-29T12:59:38.999Z</time></trkpt><trkpt lat="45.38809896814863" lon="9.17906197405561"><ele>101.66666666666666</ele><time>2026-03-29T12:59:39.999Z</time></trkpt><trkpt lat="45.38819042826566" lon="9.179345775539879"><ele>102.0</ele><time>2026-03-29T12:59:40.999Z</time></trkpt><trkpt lat="45.38828156278444" lon="9.179618787835723"><ele>101.66666666666666</ele><time>2026-03-29T12:59:41.999Z</time></trkpt><trkpt lat="45.38837492356828" lon="9.179887863750716"><ele>101.33333333333333</ele><time>2026-03-29T12:59:42.999Z</time></trkpt><trkpt lat="45.38846375036544" lon="9.18015534634103"><ele>101.0</ele><time>2026-03-29T12:59:43.999Z</time></trkpt><trkpt lat="45.38854808685911" lon="9.180433537959532"><ele>100.66666666666666</ele><time>2026-03-29T12:59:44.999Z</time></trkpt><trkpt lat="45.38862451953058" lon="9.180721176578041"><ele>100.33333333333334</ele><time>2026-03-29T12:59:45.999Z</time></trkpt><trkpt lat="45.388728197817855" lon="9.180993373856355"><ele>100.0</ele><time>2026-03-29T12:59:46.999Z</time></trkpt><trkpt lat="45.388822596285195" lon="9.181247499004382"><ele>101.33333333333334</ele><time>2026-03-29T12:59:47.999Z</time></trkpt><trkpt lat="45.38891011575836" lon="9.181520006812187"><ele>102.66666666666666</ele><time>2026-03-29T12:59:48.999Z</time></trkpt><trkpt lat="45.388993736611916" lon="9.181791947424296"><ele>104.0</ele><time>2026-03-29T12:59:49.999Z</time></trkpt><trkpt lat="45.38907618301822" lon="9.182068649670137"><ele>104.0</ele><time>2026-03-29T12:59:50.999Z</time></trkpt><trkpt lat="45.38915858288487" lon="9.18233589963977"><ele>104.0</ele><time>2026-03-29T12:59:51.999Z</time></trkpt><trkpt lat="45.38924333343862" lon="9.182622998951219"><ele>104.0</ele><time>2026-03-29T12:59:52.999Z</time></trkpt><trkpt lat="45.38932488756662" lon="9.182914686398739"><ele>103.33333333333333</ele><time>2026-03-29T12:59:53.999Z</time></trkpt><trkpt lat="45.389410762314114" lon="9.183198854446804"><ele>102.66666666666666</ele><time>2026-03-29T12:59:54.999Z</time></trkpt><trkpt lat="45.38948888336109" lon="9.183482461599986"><ele>102.0</ele><time>2026-03-29T12:59:55.999Z</time></trkpt><trkpt lat="45.38956944785458" lon="9.183766128162627"><ele>101.66666666666666</ele><time>2026-03-29T12:59:56.999Z</time></trkpt><trkpt lat="45.389647796544736" lon="9.184050915843981"><ele>101.33333333333333</ele><time>2026-03-29T12:59:57.999Z</time></trkpt><trkpt lat="45.38972176027741" lon="9.184327690695016"><ele>101.0</ele><time>2026-03-29T12:59:58.999Z</time></trkpt><trkpt lat="45.3897880352049" lon="9.184601722942487"><ele>100.66666666666666</ele><time>2026-03-29T12:59:59.999Z</time></trkpt><trkpt lat="45.389864898400596" lon="9.184892972952985"><ele>100.33333333333334</ele><time>2026-03-29T13:00:00.999Z</time></trkpt><trkpt lat="45.38993799504505" lon="9.1851933918787"><ele>100.0</ele><time>2026-03-29T13:00:01.999Z</time></trkpt><trkpt lat="45.389998686534874" lon="9.185500632603937"><ele>100.33333333333334</ele><time>2026-03-29T13:00:02.999Z</time></trkpt><trkpt lat="45.390064144582794" lon="9.18580143335584"><ele>100.66666666666666</ele><time>2026-03-29T13:00:03.999Z</time></trkpt><trkpt lat="45.39013344293258" lon="9.186106194334007"><ele>101.0</ele><time>2026-03-29T13:00:04.999Z</time></trkpt><trkpt lat="45.3901959408831" lon="9.186408964950365"><ele>100.0</ele><time>2026-03-29T13:00:05.999Z</time></trkpt><trkpt lat="45.39025733023279" lon="9.186712930165335"><ele>99.0</ele><time>2026-03-29T13:00:06.999Z</time></trkpt><trkpt lat="45.390325796724916" lon="9.187027321770351"><ele>99.0</ele><time>2026-03-29T13:00:07.999Z</time></trkpt><trkpt lat="45.390390846100985" lon="9.187337394777753"><ele>99.0</ele><time>2026-03-29T13:00:08.999Z</time></trkpt><trkpt lat="45.3904519514214" lon="9.187644232836151"><ele>99.66666666666666</ele><time>2026-03-29T13:00:09.999Z</time></trkpt><trkpt lat="45.3905089631696" lon="9.187944913810997"><ele>100.33333333333333</ele><time>2026-03-29T13:00:10.999Z</time></trkpt><trkpt lat="45.390559782769365" lon="9.188229855923268"><ele>101.0</ele><time>2026-03-29T13:00:11.999Z</time></trkpt><trkpt lat="45.39058912549777" lon="9.188502440068504"><ele>101.66666666666666</ele><time>2026-03-29T13:00:12.999Z</time></trkpt><trkpt lat="45.39061705884847" lon="9.18876915301527"><ele>102.33333333333334</ele><time>2026-03-29T13:00:13.999Z</time></trkpt><trkpt lat="45.39062658660324" lon="9.189058259711064"><ele>103.0</ele><time>2026-03-29T13:00:14.999Z</time></trkpt><trkpt lat="45.390631887698234" lon="9.189313445619014"><ele>103.0</ele><time>2026-03-29T13:00:15.999Z</time></trkpt><trkpt lat="45.39063055302687" lon="9.189590387813046"><ele>103.0</ele><time>2026-03-29T13:00:16.999Z</time></trkpt><trkpt lat="45.3908185468738" lon="9.189874694595739"><ele>102.0</ele><time>2026-03-29T13:00:17.999Z</time></trkpt><trkpt lat="45.39086504397785" lon="9.190157654240902"><ele>101.0</ele><time>2026-03-29T13:00:18.999Z</time></trkpt><trkpt lat="45.39090173984647" lon="9.19043032196212"><ele>100.0</ele><time>2026-03-29T13:00:19.999Z</time></trkpt><trkpt lat="45.39093514061673" lon="9.190691670829258"><ele>100.0</ele><time>2026-03-29T13:00:20.999Z</time></trkpt><trkpt lat="45.390968500703494" lon="9.190956690136979"><ele>100.0</ele><time>2026-03-29T13:00:21.999Z</time></trkpt><trkpt lat="45.39099783483704" lon="9.191225457226027"><ele>100.0</ele><time>2026-03-29T13:00:22.999Z</time></trkpt><trkpt lat="45.39103153986256" lon="9.191495119710048"><ele>100.0</ele><time>2026-03-29T13:00:23.999Z</time></trkpt><trkpt lat="45.391063987537905" lon="9.191780343515974"><ele>100.0</ele><time>2026-03-29T13:00:24.999Z</time></trkpt><trkpt lat="45.39110047824491" lon="9.192076838474287"><ele>100.0</ele><time>2026-03-29T13:00:26Z</time></trkpt><trkpt lat="45.3911399804986" lon="9.192393255129343"><ele>100.0</ele><time>2026-03-29T13:00:27Z</time></trkpt><trkpt lat="45.391181215585824" lon="9.192717712380073"><ele>100.0</ele><time>2026-03-29T13:00:28Z</time></trkpt><trkpt lat="45.39121768995305" lon="9.193059256802544"><ele>99.5</ele><time>2026-03-29T13:00:29Z</time></trkpt><trkpt lat="45.39125050468164" lon="9.193420208066371"><ele>99.0</ele><time>2026-03-29T13:00:30Z</time></trkpt><trkpt lat="45.391276398862104" lon="9.193793840702421"><ele>99.5</ele><time>2026-03-29T13:00:31Z</time></trkpt><trkpt lat="45.39130412794545" lon="9.194170914344488"><ele>100.0</ele><time>2026-03-29T13:00:32Z</time></trkpt><trkpt lat="45.39132554027421" lon="9.194570864569053"><ele>100.0</ele><time>2026-03-29T13:00:33Z</time></trkpt><trkpt lat="45.39137349374144" lon="9.194945306534816"><ele>100.0</ele><time>2026-03-29T13:00:34Z</time></trkpt><trkpt lat="45.391381890507624" lon="9.195295689031052"><ele>100.0</ele><time>2026-03-29T13:00:35Z</time></trkpt><trkpt lat="45.391393390528826" lon="9.195660823755254"><ele>100.0</ele><time>2026-03-29T13:00:36Z</time></trkpt><trkpt lat="45.39140644934962" lon="9.19601382691495"><ele>100.0</ele><time>2026-03-29T13:00:37Z</time></trkpt><trkpt lat="45.39141817320327" lon="9.19634302684041"><ele>100.0</ele><time>2026-03-29T13:00:38Z</time></trkpt><trkpt lat="45.39142415731158" lon="9.196692297508749"><ele>100.0</ele><time>2026-03-29T13:00:39Z</time></trkpt><trkpt lat="45.39143321905298" lon="9.197059584414733"><ele>100.0</ele><time>2026-03-29T13:00:40Z</time></trkpt><trkpt lat="45.39141783836846" lon="9.197416165888999"><ele>101.5</ele><time>2026-03-29T13:00:41Z</time></trkpt><trkpt lat="45.39144211426838" lon="9.197802179950036"><ele>103.0</ele><time>2026-03-29T13:00:42Z</time></trkpt><trkpt lat="45.39144825349595" lon="9.198162814482998"><ele>103.66666666666667</ele><time>2026-03-29T13:00:43Z</time></trkpt><trkpt lat="45.39144781020138" lon="9.19849251779401"><ele>104.33333333333334</ele><time>2026-03-29T13:00:44Z</time></trkpt><trkpt lat="45.39143964177509" lon="9.198779073378955"><ele>105.0</ele><time>2026-03-29T13:00:45Z</time></trkpt><trkpt lat="45.391440873341935" lon="9.19911499592055"><ele>103.66666666666666</ele><time>2026-03-29T13:00:46Z</time></trkpt><trkpt lat="45.39143661519763" lon="9.199424833456227"><ele>102.33333333333333</ele><time>2026-03-29T13:00:47Z</time></trkpt><trkpt lat="45.39143569847375" lon="9.199735519058557"><ele>101.0</ele><time>2026-03-29T13:00:48Z</time></trkpt><trkpt lat="45.391435609899" lon="9.200025916285696"><ele>101.0</ele><time>2026-03-29T13:00:49Z</time></trkpt><trkpt lat="45.39142606133756" lon="9.200347507450545"><ele>101.0</ele><time>2026-03-29T13:00:50Z</time></trkpt><trkpt lat="45.3914218574016" lon="9.200679545569457"><ele>102.5</ele><time>2026-03-29T13:00:51Z</time></trkpt><trkpt lat="45.3914079536281" lon="9.20099022462146"><ele>104.0</ele><time>2026-03-29T13:00:52Z</time></trkpt><trkpt lat="45.391400566471845" lon="9.201337584729682"><ele>103.0</ele><time>2026-03-29T13:00:53Z</time></trkpt><trkpt lat="45.39138803764561" lon="9.201701350922072"><ele>102.0</ele><time>2026-03-29T13:00:54Z</time></trkpt><trkpt lat="45.39135022909943" lon="9.2020824296993"><ele>101.33333333333334</ele><time>2026-03-29T13:00:55Z</time></trkpt><trkpt lat="45.3913542599637" lon="9.20239902965467"><ele>100.66666666666667</ele><time>2026-03-29T13:00:56Z</time></trkpt><trkpt lat="45.39133867697342" lon="9.202719859549019"><ele>100.0</ele><time>2026-03-29T13:00:57Z</time></trkpt><trkpt lat="45.391320295564455" lon="9.203020839663365"><ele>99.66666666666667</ele><time>2026-03-29T13:00:58Z</time></trkpt><trkpt lat="45.391306030160166" lon="9.203306536259323"><ele>99.33333333333334</ele><time>2026-03-29T13:00:59Z</time></trkpt><trkpt lat="45.391286134523824" lon="9.203579666176989"><ele>99.0</ele><time>2026-03-29T13:01:00Z</time></trkpt><trkpt lat="45.39126294741044" lon="9.203844247779488"><ele>100.0</ele><time>2026-03-29T13:01:01Z</time></trkpt><trkpt lat="45.3912361907137" lon="9.204106101248497"><ele>101.0</ele><time>2026-03-29T13:01:02Z</time></trkpt><trkpt lat="45.39120741869575" lon="9.204364393691646"><ele>102.0</ele><time>2026-03-29T13:01:03Z</time></trkpt><trkpt lat="45.391192170853216" lon="9.204603416661122"><ele>101.66666666666666</ele><time>2026-03-29T13:01:04Z</time></trkpt><trkpt lat="45.39116823342204" lon="9.204859906717788"><ele>101.33333333333333</ele><time>2026-03-29T13:01:05Z</time></trkpt><trkpt lat="45.39114988503203" lon="9.205104804764076"><ele>101.0</ele><time>2026-03-29T13:01:06Z</time></trkpt><trkpt lat="45.3911160977365" lon="9.20535294472311"><ele>101.0</ele><time>2026-03-29T13:01:07Z</time></trkpt><trkpt lat="45.39108957947524" lon="9.205592420012055"><ele>101.0</ele><time>2026-03-29T13:01:08Z</time></trkpt><trkpt lat="45.39106452159445" lon="9.205813075539307"><ele>101.0</ele><time>2026-03-29T13:01:09Z</time></trkpt><trkpt lat="45.39104715070868" lon="9.206020566386147"><ele>101.66666666666666</ele><time>2026-03-29T13:01:10Z</time></trkpt><trkpt lat="45.39102748368508" lon="9.206228607354202"><ele>102.33333333333334</ele><time>2026-03-29T13:01:11Z</time></trkpt><trkpt lat="45.39100338627531" lon="9.206442619206229"><ele>103.0</ele><time>2026-03-29T13:01:12Z</time></trkpt><trkpt lat="45.39098019727076" lon="9.206660825243057"><ele>103.0</ele><time>2026-03-29T13:01:13Z</time></trkpt><trkpt lat="45.39096095275594" lon="9.20686726342091"><ele>103.0</ele><time>2026-03-29T13:01:14Z</time></trkpt><trkpt lat="45.39093733248485" lon="9.207055076386135"><ele>103.0</ele><time>2026-03-29T13:01:15Z</time></trkpt><trkpt lat="45.39091801078875" lon="9.207236987203915"><ele>103.0</ele><time>2026-03-29T13:01:16Z</time></trkpt><trkpt lat="45.39089724332608" lon="9.207415728040768"><ele>102.0</ele><time>2026-03-29T13:01:17Z</time></trkpt><trkpt lat="45.39087505660993" lon="9.20759765078401"><ele>101.0</ele><time>2026-03-29T13:01:18Z</time></trkpt><trkpt lat="45.39085083578287" lon="9.207777588810151"><ele>100.0</ele><time>2026-03-29T13:01:19Z</time></trkpt><trkpt lat="45.39082269322266" lon="9.207938766168104"><ele>99.0</ele><time>2026-03-29T13:01:20Z</time></trkpt><trkpt lat="45.39080302742995" lon="9.208137973492182"><ele>99.25</ele><time>2026-03-29T13:01:21Z</time></trkpt><trkpt lat="45.390773899193505" lon="9.208321517471903"><ele>99.5</ele><time>2026-03-29T13:01:22Z</time></trkpt><trkpt lat="45.390736807153495" lon="9.208512867353685"><ele>99.75</ele><time>2026-03-29T13:01:23Z</time></trkpt><trkpt lat="45.39068928996021" lon="9.208704549601077"><ele>100.0</ele><time>2026-03-29T13:01:24Z</time></trkpt><trkpt lat="45.39063027504874" lon="9.208893343169445"><ele>100.33333333333334</ele><time>2026-03-29T13:01:24.999Z</time></trkpt><trkpt lat="45.39058611017593" lon="9.209080568618077"><ele>100.66666666666666</ele><time>2026-03-29T13:01:25.999Z</time></trkpt><trkpt lat="45.39052763113686" lon="9.20929229973609"><ele>101.0</ele><time>2026-03-29T13:01:26.999Z</time></trkpt><trkpt lat="45.39044170952562" lon="9.209493152332918"><ele>101.0</ele><time>2026-03-29T13:01:27.999Z</time></trkpt><trkpt lat="45.39036059653819" lon="9.20969455660234"><ele>101.0</ele><time>2026-03-29T13:01:28.999Z</time></trkpt><trkpt lat="45.39028516050768" lon="9.209899607415936"><ele>101.0</ele><time>2026-03-29T13:01:29.999Z</time></trkpt><trkpt lat="45.39018449784131" lon="9.210092987706801"><ele>100.66666666666666</ele><time>2026-03-29T13:01:30.999Z</time></trkpt><trkpt lat="45.39009711885338" lon="9.210303238785446"><ele>100.33333333333334</ele><time>2026-03-29T13:01:31.999Z</time></trkpt><trkpt lat="45.39001058132999" lon="9.210484138452221"><ele>100.0</ele><time>2026-03-29T13:01:32.999Z</time></trkpt><trkpt lat="45.38993727393112" lon="9.210664415246951"><ele>100.5</ele><time>2026-03-29T13:01:33.999Z</time></trkpt><trkpt lat="45.3898616444737" lon="9.210849566699142"><ele>101.0</ele><time>2026-03-29T13:01:34.999Z</time></trkpt><trkpt lat="45.389784705977526" lon="9.21102982674226"><ele>101.5</ele><time>2026-03-29T13:01:35.999Z</time></trkpt><trkpt lat="45.389710784245025" lon="9.211198719095485"><ele>102.0</ele><time>2026-03-29T13:01:36.999Z</time></trkpt><trkpt lat="45.38964133017139" lon="9.211359662501174"><ele>102.25</ele><time>2026-03-29T13:01:37.999Z</time></trkpt><trkpt lat="45.38957192940862" lon="9.211523904713218"><ele>102.5</ele><time>2026-03-29T13:01:38.999Z</time></trkpt><trkpt lat="45.389503853901026" lon="9.211680883609862"><ele>102.75</ele><time>2026-03-29T13:01:39.999Z</time></trkpt><trkpt lat="45.38943682900966" lon="9.211822114760745"><ele>103.0</ele><time>2026-03-29T13:01:40.999Z</time></trkpt><trkpt lat="45.389364566201124" lon="9.211961107594654"><ele>103.0</ele><time>2026-03-29T13:01:41.999Z</time></trkpt><trkpt lat="45.389275976977615" lon="9.212090760470236"><ele>103.0</ele><time>2026-03-29T13:01:42.999Z</time></trkpt><trkpt lat="45.38917397439332" lon="9.212200855755158"><ele>103.0</ele><time>2026-03-29T13:01:43.999Z</time></trkpt><trkpt lat="45.38906323943767" lon="9.21228429123421"><ele>103.0</ele><time>2026-03-29T13:01:44.999Z</time></trkpt><trkpt lat="45.38893749805724" lon="9.212345020353244"><ele>102.66666666666667</ele><time>2026-03-29T13:01:45.999Z</time></trkpt><trkpt lat="45.38880093677276" lon="9.212418301413006"><ele>102.33333333333334</ele><time>2026-03-29T13:01:46.999Z</time></trkpt><trkpt lat="45.388640702862254" lon="9.212457768978956"><ele>102.0</ele><time>2026-03-29T13:01:47.999Z</time></trkpt><trkpt lat="45.38846690499713" lon="9.212500577504967"><ele>102.0</ele><time>2026-03-29T13:01:48.999Z</time></trkpt><trkpt lat="45.38827283219476" lon="9.212548380001408"><ele>102.0</ele><time>2026-03-29T13:01:49.999Z</time></trkpt><trkpt lat="45.388077326253445" lon="9.212576372494292"><ele>102.0</ele><time>2026-03-29T13:01:50.999Z</time></trkpt><trkpt lat="45.3878806854295" lon="9.21262548118769"><ele>101.66666666666666</ele><time>2026-03-29T13:01:51.999Z</time></trkpt><trkpt lat="45.38769101122413" lon="9.212696094026379"><ele>101.33333333333333</ele><time>2026-03-29T13:01:52.999Z</time></trkpt><trkpt lat="45.38749754357157" lon="9.212722688877676"><ele>101.0</ele><time>2026-03-29T13:01:53.999Z</time></trkpt><trkpt lat="45.38731166315084" lon="9.2127727691813"><ele>100.0</ele><time>2026-03-29T13:01:54.999Z</time></trkpt><trkpt lat="45.38712941809319" lon="9.212850069451791"><ele>99.0</ele><time>2026-03-29T13:01:55.999Z</time></trkpt><trkpt lat="45.386947590011886" lon="9.21291496948476"><ele>98.0</ele><time>2026-03-29T13:01:56.999Z</time></trkpt><trkpt lat="45.38677050366149" lon="9.212991238023417"><ele>98.0</ele><time>2026-03-29T13:01:57.999Z</time></trkpt><trkpt lat="45.38659539622027" lon="9.213072197500582"><ele>98.0</ele><time>2026-03-29T13:01:58.999Z</time></trkpt><trkpt lat="45.38641846106403" lon="9.213165767719058"><ele>98.0</ele><time>2026-03-29T13:01:59.999Z</time></trkpt><trkpt lat="45.386242202254806" lon="9.21327088260167"><ele>98.0</ele><time>2026-03-29T13:02:00.999Z</time></trkpt><trkpt lat="45.38607318108335" lon="9.213364580239938"><ele>98.0</ele><time>2026-03-29T13:02:01.999Z</time></trkpt><trkpt lat="45.38592538313962" lon="9.213492520337734"><ele>98.0</ele><time>2026-03-29T13:02:02.999Z</time></trkpt><trkpt lat="45.385784032136705" lon="9.213601898178018"><ele>98.0</ele><time>2026-03-29T13:02:03.999Z</time></trkpt><trkpt lat="45.385651018316594" lon="9.213713359258964"><ele>98.0</ele><time>2026-03-29T13:02:04.999Z</time></trkpt><trkpt lat="45.385512199677194" lon="9.213831514204282"><ele>98.0</ele><time>2026-03-29T13:02:05.999Z</time></trkpt><trkpt lat="45.385372975645375" lon="9.213958857109077"><ele>98.0</ele><time>2026-03-29T13:02:06.999Z</time></trkpt><trkpt lat="45.38523157507432" lon="9.214094664700895"><ele>98.0</ele><time>2026-03-29T13:02:07.999Z</time></trkpt><trkpt lat="45.38509569459323" lon="9.21423520321002"><ele>98.0</ele><time>2026-03-29T13:02:08.999Z</time></trkpt><trkpt lat="45.384966381806805" lon="9.214372862914038"><ele>98.0</ele><time>2026-03-29T13:02:09.999Z</time></trkpt><trkpt lat="45.38484660825937" lon="9.214523107583007"><ele>98.0</ele><time>2026-03-29T13:02:10.999Z</time></trkpt><trkpt lat="45.38473791702442" lon="9.214663664112946"><ele>98.0</ele><time>2026-03-29T13:02:11.999Z</time></trkpt><trkpt lat="45.38463093273781" lon="9.21480200486063"><ele>98.5</ele><time>2026-03-29T13:02:12.999Z</time></trkpt><trkpt lat="45.38452541927794" lon="9.214943034694418"><ele>99.0</ele><time>2026-03-29T13:02:13.999Z</time></trkpt><trkpt lat="45.38442454865123" lon="9.215091064293803"><ele>99.5</ele><time>2026-03-29T13:02:14.999Z</time></trkpt><trkpt lat="45.384332040360064" lon="9.215248468881356"><ele>100.0</ele><time>2026-03-29T13:02:15.999Z</time></trkpt><trkpt lat="45.384230453067254" lon="9.215411929393714"><ele>100.0</ele><time>2026-03-29T13:02:16.999Z</time></trkpt><trkpt lat="45.38413557981402" lon="9.215567467558401"><ele>100.0</ele><time>2026-03-29T13:02:17.999Z</time></trkpt><trkpt lat="45.384046622033416" lon="9.215735749370682"><ele>100.0</ele><time>2026-03-29T13:02:18.999Z</time></trkpt><trkpt lat="45.383961075971044" lon="9.215913528547045"><ele>100.0</ele><time>2026-03-29T13:02:19.999Z</time></trkpt><trkpt lat="45.383873646991866" lon="9.216090927742856"><ele>99.33333333333334</ele><time>2026-03-29T13:02:20.999Z</time></trkpt><trkpt lat="45.383787405772985" lon="9.2162788982049"><ele>98.66666666666666</ele><time>2026-03-29T13:02:21.999Z</time></trkpt><trkpt lat="45.38370053097406" lon="9.216478206448702"><ele>98.0</ele><time>2026-03-29T13:02:22.999Z</time></trkpt><trkpt lat="45.38361451762758" lon="9.216675857322022"><ele>98.0</ele><time>2026-03-29T13:02:23.999Z</time></trkpt><trkpt lat="45.383530397462174" lon="9.216882059373438"><ele>98.0</ele><time>2026-03-29T13:02:24.999Z</time></trkpt><trkpt lat="45.38344755034807" lon="9.217076119194198"><ele>98.0</ele><time>2026-03-29T13:02:25.999Z</time></trkpt><trkpt lat="45.38337041099623" lon="9.217250627865063"><ele>98.5</ele><time>2026-03-29T13:02:26.999Z</time></trkpt><trkpt lat="45.383298059138255" lon="9.217412718538903"><ele>99.0</ele><time>2026-03-29T13:02:27.999Z</time></trkpt><trkpt lat="45.383227469858" lon="9.21758851125505"><ele>99.5</ele><time>2026-03-29T13:02:28.999Z</time></trkpt><trkpt lat="45.38314656806805" lon="9.217763602425443"><ele>100.0</ele><time>2026-03-29T13:02:29.999Z</time></trkpt><trkpt lat="45.3830644626479" lon="9.217950333262266"><ele>100.0</ele><time>2026-03-29T13:02:30.999Z</time></trkpt><trkpt lat="45.382981966757804" lon="9.218146813742017"><ele>100.0</ele><time>2026-03-29T13:02:32Z</time></trkpt><trkpt lat="45.38289489355076" lon="9.218344183463532"><ele>100.0</ele><time>2026-03-29T13:02:33Z</time></trkpt><trkpt lat="45.38280739404437" lon="9.21854722297588"><ele>99.33333333333334</ele><time>2026-03-29T13:02:34Z</time></trkpt><trkpt lat="45.38272306225559" lon="9.218750813686734"><ele>98.66666666666666</ele><time>2026-03-29T13:02:35Z</time></trkpt><trkpt lat="45.38262536292052" lon="9.218964516759046"><ele>98.0</ele><time>2026-03-29T13:02:36Z</time></trkpt><trkpt lat="45.38253338439179" lon="9.219181520604312"><ele>98.0</ele><time>2026-03-29T13:02:37Z</time></trkpt><trkpt lat="45.382440451042534" lon="9.219396893574471"><ele>98.0</ele><time>2026-03-29T13:02:38Z</time></trkpt><trkpt lat="45.38234823212542" lon="9.219611052370622"><ele>98.0</ele><time>2026-03-29T13:02:39Z</time></trkpt><trkpt lat="45.38225120349429" lon="9.219822866483465"><ele>98.0</ele><time>2026-03-29T13:02:40Z</time></trkpt><trkpt lat="45.3821601424859" lon="9.220029504571595"><ele>98.0</ele><time>2026-03-29T13:02:41Z</time></trkpt><trkpt lat="45.382073545403806" lon="9.22024039754041"><ele>98.0</ele><time>2026-03-29T13:02:42Z</time></trkpt><trkpt lat="45.38198375572719" lon="9.220445735583178"><ele>97.66666666666666</ele><time>2026-03-29T13:02:43Z</time></trkpt><trkpt lat="45.38188973557721" lon="9.220654584841034"><ele>97.33333333333334</ele><time>2026-03-29T13:02:44Z</time></trkpt><trkpt lat="45.38180061044456" lon="9.22085798813223"><ele>97.0</ele><time>2026-03-29T13:02:45Z</time></trkpt><trkpt lat="45.381712417662875" lon="9.221064194532577"><ele>97.0</ele><time>2026-03-29T13:02:46Z</time></trkpt><trkpt lat="45.38162537890484" lon="9.221269916032538"><ele>97.0</ele><time>2026-03-29T13:02:47Z</time></trkpt><trkpt lat="45.381534766061804" lon="9.221477912415633"><ele>97.0</ele><time>2026-03-29T13:02:48Z</time></trkpt><trkpt lat="45.381448052546475" lon="9.221679313855995"><ele>96.33333333333334</ele><time>2026-03-29T13:02:49Z</time></trkpt><trkpt lat="45.381359481972154" lon="9.221884521870253"><ele>95.66666666666667</ele><time>2026-03-29T13:02:50Z</time></trkpt><trkpt lat="45.381269165528245" lon="9.222085218937718"><ele>95.0</ele><time>2026-03-29T13:02:51Z</time></trkpt><trkpt lat="45.381180922245065" lon="9.222283056484049"><ele>96.0</ele><time>2026-03-29T13:02:52Z</time></trkpt><trkpt lat="45.381094755489144" lon="9.222479890768703"><ele>97.0</ele><time>2026-03-29T13:02:53Z</time></trkpt><trkpt lat="45.381005456053956" lon="9.222683127832763"><ele>98.0</ele><time>2026-03-29T13:02:54Z</time></trkpt><trkpt lat="45.380917921557696" lon="9.222881166683036"><ele>98.0</ele><time>2026-03-29T13:02:55Z</time></trkpt><trkpt lat="45.380832602467905" lon="9.223083560925547"><ele>98.0</ele><time>2026-03-29T13:02:56Z</time></trkpt><trkpt lat="45.38074462269016" lon="9.223282337049408"><ele>98.0</ele><time>2026-03-29T13:02:57Z</time></trkpt><trkpt lat="45.380656343058696" lon="9.223475699793713"><ele>98.33333333333333</ele><time>2026-03-29T13:02:58Z</time></trkpt><trkpt lat="45.380568740738944" lon="9.223669833046422"><ele>98.66666666666666</ele><time>2026-03-29T13:02:59Z</time></trkpt><trkpt lat="45.38047603079203" lon="9.223864855620524"><ele>99.0</ele><time>2026-03-29T13:03:00Z</time></trkpt><trkpt lat="45.38037676628353" lon="9.224054571195817"><ele>99.0</ele><time>2026-03-29T13:03:01Z</time></trkpt><trkpt lat="45.38027351961301" lon="9.224237640842263"><ele>99.0</ele><time>2026-03-29T13:03:02Z</time></trkpt><trkpt lat="45.38016775843156" lon="9.22441643373024"><ele>99.0</ele><time>2026-03-29T13:03:03Z</time></trkpt><trkpt lat="45.38006017014418" lon="9.224595122205676"><ele>99.0</ele><time>2026-03-29T13:03:04Z</time></trkpt><trkpt lat="45.37994751505663" lon="9.224773901860923"><ele>99.0</ele><time>2026-03-29T13:03:05Z</time></trkpt><trkpt lat="45.379828061386334" lon="9.224943105463598"><ele>99.0</ele><time>2026-03-29T13:03:06Z</time></trkpt><trkpt lat="45.37970101019578" lon="9.2251077655366"><ele>99.33333333333334</ele><time>2026-03-29T13:03:07Z</time></trkpt><trkpt lat="45.37956817264009" lon="9.225265869705082"><ele>99.66666666666667</ele><time>2026-03-29T13:03:08Z</time></trkpt><trkpt lat="45.379430891259304" lon="9.225423662200972"><ele>100.0</ele><time>2026-03-29T13:03:09Z</time></trkpt><trkpt lat="45.37928760566159" lon="9.225574523984017"><ele>99.66666666666667</ele><time>2026-03-29T13:03:10Z</time></trkpt><trkpt lat="45.37914036193188" lon="9.225708296686372"><ele>99.33333333333334</ele><time>2026-03-29T13:03:11Z</time></trkpt><trkpt lat="45.378994771437135" lon="9.225844175145571"><ele>99.0</ele><time>2026-03-29T13:03:12Z</time></trkpt><trkpt lat="45.37885563906633" lon="9.225971114858694"><ele>99.33333333333334</ele><time>2026-03-29T13:03:13Z</time></trkpt><trkpt lat="45.37872422722649" lon="9.226087143239692"><ele>99.66666666666667</ele><time>2026-03-29T13:03:14Z</time></trkpt><trkpt lat="45.378589249994725" lon="9.22619271986168"><ele>100.0</ele><time>2026-03-29T13:03:15Z</time></trkpt><trkpt lat="45.37844782059888" lon="9.226282885192832"><ele>100.0</ele><time>2026-03-29T13:03:16Z</time></trkpt><trkpt lat="45.37830233540181" lon="9.226376269661245"><ele>100.0</ele><time>2026-03-29T13:03:17Z</time></trkpt><trkpt lat="45.37815516608615" lon="9.226465063277947"><ele>100.0</ele><time>2026-03-29T13:03:18Z</time></trkpt><trkpt lat="45.378006093811024" lon="9.226543173923302"><ele>99.66666666666667</ele><time>2026-03-29T13:03:19Z</time></trkpt><trkpt lat="45.37785462412009" lon="9.226622269673395"><ele>99.33333333333334</ele><time>2026-03-29T13:03:20Z</time></trkpt><trkpt lat="45.37770509002527" lon="9.226694025310831"><ele>99.0</ele><time>2026-03-29T13:03:21Z</time></trkpt><trkpt lat="45.37754993897119" lon="9.226758368193703"><ele>99.0</ele><time>2026-03-29T13:03:22Z</time></trkpt><trkpt lat="45.377392964901915" lon="9.226811167690277"><ele>99.0</ele><time>2026-03-29T13:03:23Z</time></trkpt><trkpt lat="45.377240240816946" lon="9.226856735358384"><ele>99.0</ele><time>2026-03-29T13:03:23.999Z</time></trkpt><trkpt lat="45.377089101240536" lon="9.226898282033481"><ele>99.33333333333334</ele><time>2026-03-29T13:03:24.999Z</time></trkpt><trkpt lat="45.376939992730954" lon="9.226926302585529"><ele>99.66666666666667</ele><time>2026-03-29T13:03:25.999Z</time></trkpt><trkpt lat="45.376788888603826" lon="9.226950471298574"><ele>100.0</ele><time>2026-03-29T13:03:26.999Z</time></trkpt><trkpt lat="45.37662845554267" lon="9.226964528463968"><ele>100.0</ele><time>2026-03-29T13:03:27.999Z</time></trkpt><trkpt lat="45.37647038950912" lon="9.226978583252185"><ele>100.0</ele><time>2026-03-29T13:03:28.999Z</time></trkpt><trkpt lat="45.37630444786289" lon="9.226989289184742"><ele>100.0</ele><time>2026-03-29T13:03:29.999Z</time></trkpt><trkpt lat="45.3761420898659" lon="9.226998646787282"><ele>100.0</ele><time>2026-03-29T13:03:30.999Z</time></trkpt><trkpt lat="45.37597820060623" lon="9.227015538943224"><ele>100.0</ele><time>2026-03-29T13:03:31.999Z</time></trkpt><trkpt lat="45.37581265548286" lon="9.227033856290458"><ele>100.0</ele><time>2026-03-29T13:03:32.999Z</time></trkpt><trkpt lat="45.37566497618576" lon="9.227039925717767"><ele>100.0</ele><time>2026-03-29T13:03:33.999Z</time></trkpt><trkpt lat="45.37550707648473" lon="9.227047573997483"><ele>100.0</ele><time>2026-03-29T13:03:34.999Z</time></trkpt><trkpt lat="45.3753433955863" lon="9.227055293843861"><ele>100.0</ele><time>2026-03-29T13:03:35.999Z</time></trkpt><trkpt lat="45.37517832019506" lon="9.227063833553158"><ele>100.0</ele><time>2026-03-29T13:03:36.999Z</time></trkpt><trkpt lat="45.37501154688247" lon="9.227070778989642"><ele>100.0</ele><time>2026-03-29T13:03:37.999Z</time></trkpt><trkpt lat="45.37484714912877" lon="9.22708448251621"><ele>100.0</ele><time>2026-03-29T13:03:38.999Z</time></trkpt><trkpt lat="45.37468814797507" lon="9.227097307394564"><ele>99.75</ele><time>2026-03-29T13:03:39.999Z</time></trkpt><trkpt lat="45.3745398199484" lon="9.22710703125609"><ele>99.5</ele><time>2026-03-29T13:03:40.999Z</time></trkpt><trkpt lat="45.374390926922416" lon="9.227112203933512"><ele>99.25</ele><time>2026-03-29T13:03:41.999Z</time></trkpt><trkpt lat="45.37424308412402" lon="9.227120362052288"><ele>99.0</ele><time>2026-03-29T13:03:42.999Z</time></trkpt><trkpt lat="45.3740945679303" lon="9.227134553163285"><ele>99.0</ele><time>2026-03-29T13:03:43.999Z</time></trkpt><trkpt lat="45.37393903408612" lon="9.227148569126221"><ele>99.0</ele><time>2026-03-29T13:03:44.999Z</time></trkpt><trkpt lat="45.37378397012544" lon="9.227158922587709"><ele>99.0</ele><time>2026-03-29T13:03:45.999Z</time></trkpt><trkpt lat="45.373624604484974" lon="9.227170876162452"><ele>99.66666666666666</ele><time>2026-03-29T13:03:46.999Z</time></trkpt><trkpt lat="45.373462547125946" lon="9.22718212963486"><ele>100.33333333333333</ele><time>2026-03-29T13:03:47.999Z</time></trkpt><trkpt lat="45.37330445294603" lon="9.227186295103841"><ele>101.0</ele><time>2026-03-29T13:03:48.999Z</time></trkpt><trkpt lat="45.373151505720706" lon="9.227189352516849"><ele>100.0</ele><time>2026-03-29T13:03:49.999Z</time></trkpt><trkpt lat="45.372997135310506" lon="9.22719431067743"><ele>99.0</ele><time>2026-03-29T13:03:50.999Z</time></trkpt><trkpt lat="45.37284296580378" lon="9.227204419146213"><ele>98.0</ele><time>2026-03-29T13:03:51.999Z</time></trkpt><trkpt lat="45.3726834860912" lon="9.227213551736499"><ele>98.0</ele><time>2026-03-29T13:03:52.999Z</time></trkpt><trkpt lat="45.372522335881825" lon="9.227220552891882"><ele>98.0</ele><time>2026-03-29T13:03:53.999Z</time></trkpt><trkpt lat="45.37236158100053" lon="9.227229066312002"><ele>98.0</ele><time>2026-03-29T13:03:54.999Z</time></trkpt><trkpt lat="45.37219721435834" lon="9.227238877422911"><ele>97.66666666666666</ele><time>2026-03-29T13:03:55.999Z</time></trkpt><trkpt lat="45.37202819538611" lon="9.227249485905785"><ele>97.33333333333334</ele><time>2026-03-29T13:03:56.999Z</time></trkpt><trkpt lat="45.371857842670394" lon="9.227266293799996"><ele>97.0</ele><time>2026-03-29T13:03:57.999Z</time></trkpt><trkpt lat="45.371692321038736" lon="9.227278967053364"><ele>97.0</ele><time>2026-03-29T13:03:58.999Z</time></trkpt><trkpt lat="45.3715201245151" lon="9.227287670297892"><ele>97.0</ele><time>2026-03-29T13:03:59.999Z</time></trkpt><trkpt lat="45.37135408023182" lon="9.227300911908184"><ele>97.0</ele><time>2026-03-29T13:04:00.999Z</time></trkpt><trkpt lat="45.37118576950857" lon="9.227310733406918"><ele>97.33333333333334</ele><time>2026-03-29T13:04:01.999Z</time></trkpt><trkpt lat="45.37101399033749" lon="9.22732233885342"><ele>97.66666666666666</ele><time>2026-03-29T13:04:02.999Z</time></trkpt><trkpt lat="45.37084473682834" lon="9.227336140150218"><ele>98.0</ele><time>2026-03-29T13:04:03.999Z</time></trkpt><trkpt lat="45.370675335488905" lon="9.227341161949258"><ele>98.33333333333333</ele><time>2026-03-29T13:04:04.999Z</time></trkpt><trkpt lat="45.37051820273686" lon="9.227358389890025"><ele>98.66666666666666</ele><time>2026-03-29T13:04:05.999Z</time></trkpt><trkpt lat="45.37035621952157" lon="9.227367063794224"><ele>99.0</ele><time>2026-03-29T13:04:06.999Z</time></trkpt><trkpt lat="45.37019219677822" lon="9.227378399395896"><ele>99.0</ele><time>2026-03-29T13:04:07.999Z</time></trkpt><trkpt lat="45.37002614506294" lon="9.227385212007315"><ele>99.0</ele><time>2026-03-29T13:04:08.999Z</time></trkpt><trkpt lat="45.369859681917674" lon="9.227394307156596"><ele>99.0</ele><time>2026-03-29T13:04:09.999Z</time></trkpt><trkpt lat="45.369683404262716" lon="9.227418501623013"><ele>99.0</ele><time>2026-03-29T13:04:10.999Z</time></trkpt><trkpt lat="45.369508328704555" lon="9.227442536902233"><ele>99.0</ele><time>2026-03-29T13:04:11.999Z</time></trkpt><trkpt lat="45.36932843537864" lon="9.22747522018134"><ele>99.0</ele><time>2026-03-29T13:04:12.999Z</time></trkpt><trkpt lat="45.36914691426741" lon="9.227527221794844"><ele>99.0</ele><time>2026-03-29T13:04:13.999Z</time></trkpt><trkpt lat="45.36898087938228" lon="9.227582736386307"><ele>99.0</ele><time>2026-03-29T13:04:14.999Z</time></trkpt><trkpt lat="45.36881502956872" lon="9.227654338284255"><ele>99.0</ele><time>2026-03-29T13:04:15.999Z</time></trkpt><trkpt lat="45.36866969304973" lon="9.227711553555086"><ele>99.0</ele><time>2026-03-29T13:04:16.999Z</time></trkpt><trkpt lat="45.36849611970734" lon="9.227786624716279"><ele>99.0</ele><time>2026-03-29T13:04:17.999Z</time></trkpt><trkpt lat="45.368314550309215" lon="9.227868159289518"><ele>99.0</ele><time>2026-03-29T13:04:18.999Z</time></trkpt><trkpt lat="45.368144421382844" lon="9.227951132115566"><ele>98.66666666666666</ele><time>2026-03-29T13:04:19.999Z</time></trkpt><trkpt lat="45.36797708975682" lon="9.228026489626188"><ele>98.33333333333333</ele><time>2026-03-29T13:04:20.999Z</time></trkpt><trkpt lat="45.367809564721455" lon="9.228096894164382"><ele>98.0</ele><time>2026-03-29T13:04:21.999Z</time></trkpt><trkpt lat="45.36764223400659" lon="9.228166753066525"><ele>98.0</ele><time>2026-03-29T13:04:22.999Z</time></trkpt><trkpt lat="45.367474858758214" lon="9.228243984659555"><ele>98.0</ele><time>2026-03-29T13:04:23.999Z</time></trkpt><trkpt lat="45.367303520355826" lon="9.228318095925117"><ele>98.0</ele><time>2026-03-29T13:04:24.999Z</time></trkpt><trkpt lat="45.36713715108421" lon="9.228394001768354"><ele>98.33333333333333</ele><time>2026-03-29T13:04:25.999Z</time></trkpt><trkpt lat="45.366972822274384" lon="9.228485932973934"><ele>98.66666666666666</ele><time>2026-03-29T13:04:26.999Z</time></trkpt><trkpt lat="45.36680698724139" lon="9.228568772237429"><ele>99.0</ele><time>2026-03-29T13:04:27.999Z</time></trkpt><trkpt lat="45.36664258643762" lon="9.228649584441404"><ele>99.0</ele><time>2026-03-29T13:04:28.999Z</time></trkpt><trkpt lat="45.36647871398918" lon="9.228721913947423"><ele>99.0</ele><time>2026-03-29T13:04:29.999Z</time></trkpt><trkpt lat="45.366315073420765" lon="9.228803197202884"><ele>99.0</ele><time>2026-03-29T13:04:30.999Z</time></trkpt><trkpt lat="45.366145048097074" lon="9.228889105266651"><ele>98.66666666666666</ele><time>2026-03-29T13:04:31.999Z</time></trkpt><trkpt lat="45.36597790621833" lon="9.228971589099036"><ele>98.33333333333333</ele><time>2026-03-29T13:04:32.999Z</time></trkpt><trkpt lat="45.36580210647602" lon="9.22905744808847"><ele>98.0</ele><time>2026-03-29T13:04:33.999Z</time></trkpt><trkpt lat="45.36562608271441" lon="9.229133584609949"><ele>97.33333333333333</ele><time>2026-03-29T13:04:34.999Z</time></trkpt><trkpt lat="45.365452888506546" lon="9.229216460323112"><ele>96.66666666666666</ele><time>2026-03-29T13:04:35.999Z</time></trkpt><trkpt lat="45.3652816860496" lon="9.229301591035561"><ele>96.0</ele><time>2026-03-29T13:04:36.999Z</time></trkpt><trkpt lat="45.365106368434944" lon="9.229384480930406"><ele>96.0</ele><time>2026-03-29T13:04:38Z</time></trkpt><trkpt lat="45.36492882989" lon="9.229466670119711"><ele>96.0</ele><time>2026-03-29T13:04:39Z</time></trkpt><trkpt lat="45.3647501282975" lon="9.229549382115641"><ele>96.0</ele><time>2026-03-29T13:04:40Z</time></trkpt><trkpt lat="45.36456811954146" lon="9.229625194920489"><ele>96.0</ele><time>2026-03-29T13:04:41Z</time></trkpt><trkpt lat="45.364322575432894" lon="9.229698602493917"><ele>96.0</ele><time>2026-03-29T13:04:42Z</time></trkpt><trkpt lat="45.364056505631446" lon="9.22979022323878"><ele>96.33333333333334</ele><time>2026-03-29T13:04:43Z</time></trkpt><trkpt lat="45.36405161527318" lon="9.229907169258329"><ele>96.66666666666667</ele><time>2026-03-29T13:04:44Z</time></trkpt><trkpt lat="45.363884273216776" lon="9.229993822670822"><ele>97.0</ele><time>2026-03-29T13:04:45Z</time></trkpt><trkpt lat="45.363706717770995" lon="9.230087066837996"><ele>96.33333333333334</ele><time>2026-03-29T13:04:46Z</time></trkpt><trkpt lat="45.36352726291163" lon="9.23016239629228"><ele>95.66666666666667</ele><time>2026-03-29T13:04:47Z</time></trkpt><trkpt lat="45.36334869737844" lon="9.230242227996445"><ele>95.0</ele><time>2026-03-29T13:04:48Z</time></trkpt><trkpt lat="45.36318059876308" lon="9.230311956247144"><ele>94.66666666666667</ele><time>2026-03-29T13:04:49Z</time></trkpt><trkpt lat="45.36301652533441" lon="9.230394723463181"><ele>94.33333333333333</ele><time>2026-03-29T13:04:50Z</time></trkpt><trkpt lat="45.36285117200336" lon="9.23047944724371"><ele>94.0</ele><time>2026-03-29T13:04:51Z</time></trkpt><trkpt lat="45.36268599283638" lon="9.230553984960064"><ele>94.0</ele><time>2026-03-29T13:04:52Z</time></trkpt><trkpt lat="45.362525109133664" lon="9.230631354801465"><ele>94.0</ele><time>2026-03-29T13:04:53Z</time></trkpt><trkpt lat="45.36235440607683" lon="9.230717734666566"><ele>94.0</ele><time>2026-03-29T13:04:54Z</time></trkpt><trkpt lat="45.362176099306915" lon="9.230802972069522"><ele>94.33333333333333</ele><time>2026-03-29T13:04:55Z</time></trkpt><trkpt lat="45.362001498489946" lon="9.230886635582452"><ele>94.66666666666667</ele><time>2026-03-29T13:04:56Z</time></trkpt><trkpt lat="45.36181824452388" lon="9.230969150098232"><ele>95.0</ele><time>2026-03-29T13:04:57Z</time></trkpt><trkpt lat="45.361638506445985" lon="9.231059670826486"><ele>95.0</ele><time>2026-03-29T13:04:58Z</time></trkpt><trkpt lat="45.3614602331226" lon="9.23114710446292"><ele>95.0</ele><time>2026-03-29T13:04:59Z</time></trkpt><trkpt lat="45.36128191735923" lon="9.231236022888032"><ele>95.0</ele><time>2026-03-29T13:05:00Z</time></trkpt><trkpt lat="45.36110329581541" lon="9.231338118642924"><ele>95.0</ele><time>2026-03-29T13:05:01Z</time></trkpt><trkpt lat="45.360929842313176" lon="9.231424215548168"><ele>95.0</ele><time>2026-03-29T13:05:02Z</time></trkpt><trkpt lat="45.360754310229936" lon="9.23149836254463"><ele>95.0</ele><time>2026-03-29T13:05:03Z</time></trkpt><trkpt lat="45.36057563101361" lon="9.23158609135698"><ele>95.33333333333334</ele><time>2026-03-29T13:05:04Z</time></trkpt><trkpt lat="45.360402589048284" lon="9.231658714894605"><ele>95.66666666666667</ele><time>2026-03-29T13:05:05Z</time></trkpt><trkpt lat="45.36022083375228" lon="9.231745131740306"><ele>96.0</ele><time>2026-03-29T13:05:06Z</time></trkpt><trkpt lat="45.36005082925435" lon="9.231824784613424"><ele>96.0</ele><time>2026-03-29T13:05:07Z</time></trkpt><trkpt lat="45.359857494931155" lon="9.23191901128956"><ele>96.0</ele><time>2026-03-29T13:05:08Z</time></trkpt><trkpt lat="45.359674045829635" lon="9.232003392378346"><ele>96.0</ele><time>2026-03-29T13:05:09Z</time></trkpt><trkpt lat="45.35949228487056" lon="9.23208865256776"><ele>96.0</ele><time>2026-03-29T13:05:10Z</time></trkpt><trkpt lat="45.359302530788256" lon="9.232175113011847"><ele>96.0</ele><time>2026-03-29T13:05:11Z</time></trkpt><trkpt lat="45.35912001481692" lon="9.232261784443986"><ele>96.0</ele><time>2026-03-29T13:05:12Z</time></trkpt><trkpt lat="45.358941164839486" lon="9.23234702100215"><ele>96.33333333333334</ele><time>2026-03-29T13:05:13Z</time></trkpt><trkpt lat="45.358746855233875" lon="9.232439771118216"><ele>96.66666666666667</ele><time>2026-03-29T13:05:14Z</time></trkpt><trkpt lat="45.35855565033998" lon="9.232533181281166"><ele>97.0</ele><time>2026-03-29T13:05:15Z</time></trkpt><trkpt lat="45.35836633663825" lon="9.232622482187757"><ele>97.0</ele><time>2026-03-29T13:05:16Z</time></trkpt><trkpt lat="45.35817920647694" lon="9.232712049814104"><ele>97.0</ele><time>2026-03-29T13:05:17Z</time></trkpt><trkpt lat="45.35798797605095" lon="9.232792937899541"><ele>97.0</ele><time>2026-03-29T13:05:18Z</time></trkpt><trkpt lat="45.35780075978254" lon="9.232886766431426"><ele>97.0</ele><time>2026-03-29T13:05:19Z</time></trkpt><trkpt lat="45.357617431940945" lon="9.232978047301986"><ele>97.0</ele><time>2026-03-29T13:05:20Z</time></trkpt><trkpt lat="45.357436629465575" lon="9.233060691750929"><ele>97.0</ele><time>2026-03-29T13:05:21Z</time></trkpt><trkpt lat="45.357239516199755" lon="9.2331094370854"><ele>96.33333333333334</ele><time>2026-03-29T13:05:22Z</time></trkpt><trkpt lat="45.357058259986246" lon="9.233235107246577"><ele>95.66666666666667</ele><time>2026-03-29T13:05:23Z</time></trkpt><trkpt lat="45.35687462162866" lon="9.233326852444545"><ele>95.0</ele><time>2026-03-29T13:05:24Z</time></trkpt><trkpt lat="45.35668814603253" lon="9.233417456470734"><ele>95.0</ele><time>2026-03-29T13:05:25Z</time></trkpt><trkpt lat="45.35650855612193" lon="9.233496939253031"><ele>95.0</ele><time>2026-03-29T13:05:26Z</time></trkpt><trkpt lat="45.356330978136675" lon="9.233573352021688"><ele>95.0</ele><time>2026-03-29T13:05:27Z</time></trkpt><trkpt lat="45.356138236020726" lon="9.23368186325682"><ele>95.0</ele><time>2026-03-29T13:05:28Z</time></trkpt><trkpt lat="45.355951619352425" lon="9.233772389752415"><ele>95.0</ele><time>2026-03-29T13:05:29Z</time></trkpt><trkpt lat="45.35576795932957" lon="9.233863592149556"><ele>95.0</ele><time>2026-03-29T13:05:30Z</time></trkpt><trkpt lat="45.35558664696084" lon="9.233949624782825"><ele>94.66666666666667</ele><time>2026-03-29T13:05:31Z</time></trkpt><trkpt lat="45.35540814947463" lon="9.234036204632558"><ele>94.33333333333333</ele><time>2026-03-29T13:05:32Z</time></trkpt><trkpt lat="45.35523056945236" lon="9.234124349730434"><ele>94.0</ele><time>2026-03-29T13:05:33Z</time></trkpt><trkpt lat="45.3550472019711" lon="9.234213001815851"><ele>94.0</ele><time>2026-03-29T13:05:34Z</time></trkpt><trkpt lat="45.354873333384326" lon="9.23429430496019"><ele>94.0</ele><time>2026-03-29T13:05:35Z</time></trkpt><trkpt lat="45.3546984369879" lon="9.234380852553867"><ele>94.0</ele><time>2026-03-29T13:05:36Z</time></trkpt><trkpt lat="45.35452611851422" lon="9.234468184643223"><ele>94.0</ele><time>2026-03-29T13:05:37Z</time></trkpt><trkpt lat="45.3543486452607" lon="9.234554346430503"><ele>94.0</ele><time>2026-03-29T13:05:37.999Z</time></trkpt><trkpt lat="45.3541704922426" lon="9.234637176250773"><ele>94.0</ele><time>2026-03-29T13:05:38.999Z</time></trkpt><trkpt lat="45.35399227260531" lon="9.234722332955453"><ele>93.33333333333333</ele><time>2026-03-29T13:05:39.999Z</time></trkpt><trkpt lat="45.3538168597569" lon="9.234807285918453"><ele>92.66666666666667</ele><time>2026-03-29T13:05:40.999Z</time></trkpt><trkpt lat="45.35364208380234" lon="9.234899793636032"><ele>92.0</ele><time>2026-03-29T13:05:41.999Z</time></trkpt><trkpt lat="45.35346882068336" lon="9.234987663750472"><ele>92.0</ele><time>2026-03-29T13:05:42.999Z</time></trkpt><trkpt lat="45.353290614038585" lon="9.235066585071293"><ele>92.0</ele><time>2026-03-29T13:05:43.999Z</time></trkpt><trkpt lat="45.35310935437898" lon="9.235142594477773"><ele>92.0</ele><time>2026-03-29T13:05:44.999Z</time></trkpt><trkpt lat="45.35293095846494" lon="9.235230420333664"><ele>93.0</ele><time>2026-03-29T13:05:45.999Z</time></trkpt><trkpt lat="45.352750629021706" lon="9.235317734438727"><ele>94.0</ele><time>2026-03-29T13:05:46.999Z</time></trkpt><trkpt lat="45.35257088282381" lon="9.235398741134743"><ele>95.0</ele><time>2026-03-29T13:05:47.999Z</time></trkpt><trkpt lat="45.35238923781721" lon="9.235502533478408"><ele>95.0</ele><time>2026-03-29T13:05:48.999Z</time></trkpt><trkpt lat="45.35221342276469" lon="9.235592236137611"><ele>95.0</ele><time>2026-03-29T13:05:49.999Z</time></trkpt><trkpt lat="45.35204507842018" lon="9.235668910514205"><ele>95.0</ele><time>2026-03-29T13:05:50.999Z</time></trkpt><trkpt lat="45.351868837998786" lon="9.235751129265084"><ele>94.33333333333334</ele><time>2026-03-29T13:05:51.999Z</time></trkpt><trkpt lat="45.35168954470066" lon="9.235820776774313"><ele>93.66666666666667</ele><time>2026-03-29T13:05:52.999Z</time></trkpt><trkpt lat="45.35151097680313" lon="9.235918037728784"><ele>93.0</ele><time>2026-03-29T13:05:53.999Z</time></trkpt><trkpt lat="45.35133360598823" lon="9.236008407318993"><ele>93.0</ele><time>2026-03-29T13:05:54.999Z</time></trkpt><trkpt lat="45.35115931060929" lon="9.236092565470878"><ele>93.0</ele><time>2026-03-29T13:05:55.999Z</time></trkpt><trkpt lat="45.35097922860705" lon="9.23617534306251"><ele>93.0</ele><time>2026-03-29T13:05:56.999Z</time></trkpt><trkpt lat="45.35080303474808" lon="9.236263967092663"><ele>93.0</ele><time>2026-03-29T13:05:57.999Z</time></trkpt><trkpt lat="45.35062353061208" lon="9.23635285642446"><ele>93.0</ele><time>2026-03-29T13:05:58.999Z</time></trkpt><trkpt lat="45.35046413848171" lon="9.236451372910189"><ele>93.0</ele><time>2026-03-29T13:05:59.999Z</time></trkpt><trkpt lat="45.350265239055055" lon="9.236520685211389"><ele>92.66666666666667</ele><time>2026-03-29T13:06:00.999Z</time></trkpt><trkpt lat="45.35008713548402" lon="9.236613606665875"><ele>92.33333333333334</ele><time>2026-03-29T13:06:01.999Z</time></trkpt><trkpt lat="45.349913486475565" lon="9.236691502955779"><ele>92.0</ele><time>2026-03-29T13:06:02.999Z</time></trkpt><trkpt lat="45.349734865556194" lon="9.23678114490955"><ele>92.0</ele><time>2026-03-29T13:06:03.999Z</time></trkpt><trkpt lat="45.3495556533986" lon="9.236881360185984"><ele>92.0</ele><time>2026-03-29T13:06:04.999Z</time></trkpt><trkpt lat="45.3493825221638" lon="9.236972344785343"><ele>92.0</ele><time>2026-03-29T13:06:05.999Z</time></trkpt><trkpt lat="45.34921219140604" lon="9.237037254574398"><ele>92.0</ele><time>2026-03-29T13:06:06.999Z</time></trkpt><trkpt lat="45.34903540050358" lon="9.23711819112935"><ele>92.0</ele><time>2026-03-29T13:06:07.999Z</time></trkpt><trkpt lat="45.34886148112421" lon="9.237197558537474"><ele>92.0</ele><time>2026-03-29T13:06:08.999Z</time></trkpt><trkpt lat="45.34868755747305" lon="9.237286236610261"><ele>92.0</ele><time>2026-03-29T13:06:09.999Z</time></trkpt><trkpt lat="45.34851852148223" lon="9.237368717516405"><ele>92.0</ele><time>2026-03-29T13:06:10.999Z</time></trkpt><trkpt lat="45.34833619216383" lon="9.237478691897074"><ele>92.0</ele><time>2026-03-29T13:06:11.999Z</time></trkpt><trkpt lat="45.34816842558648" lon="9.237547795456834"><ele>91.66666666666667</ele><time>2026-03-29T13:06:12.999Z</time></trkpt><trkpt lat="45.347995188829536" lon="9.237632250466797"><ele>91.33333333333333</ele><time>2026-03-29T13:06:13.999Z</time></trkpt><trkpt lat="45.34782155345601" lon="9.237709439525199"><ele>91.0</ele><time>2026-03-29T13:06:14.999Z</time></trkpt><trkpt lat="45.347655568187776" lon="9.237789200581817"><ele>91.0</ele><time>2026-03-29T13:06:15.999Z</time></trkpt><trkpt lat="45.34748291127114" lon="9.237873985207298"><ele>91.0</ele><time>2026-03-29T13:06:16.999Z</time></trkpt><trkpt lat="45.34730992424702" lon="9.237948638202306"><ele>91.0</ele><time>2026-03-29T13:06:17.999Z</time></trkpt><trkpt lat="45.34713553795185" lon="9.238021860509013"><ele>91.0</ele><time>2026-03-29T13:06:18.999Z</time></trkpt><trkpt lat="45.34696444182907" lon="9.238109110239918"><ele>91.0</ele><time>2026-03-29T13:06:19.999Z</time></trkpt><trkpt lat="45.346795636401986" lon="9.238195111272365"><ele>91.0</ele><time>2026-03-29T13:06:20.999Z</time></trkpt><trkpt lat="45.34662637634322" lon="9.238278807794595"><ele>91.0</ele><time>2026-03-29T13:06:21.999Z</time></trkpt><trkpt lat="45.34645094415205" lon="9.238395362402924"><ele>91.0</ele><time>2026-03-29T13:06:22.999Z</time></trkpt><trkpt lat="45.34628347582804" lon="9.238500400748363"><ele>91.0</ele><time>2026-03-29T13:06:23.999Z</time></trkpt><trkpt lat="45.346124947607755" lon="9.238634838727007"><ele>91.33333333333333</ele><time>2026-03-29T13:06:24.999Z</time></trkpt><trkpt lat="45.34596114922507" lon="9.23873280134782"><ele>91.66666666666667</ele><time>2026-03-29T13:06:25.999Z</time></trkpt><trkpt lat="45.34580278078465" lon="9.238854652777494"><ele>92.0</ele><time>2026-03-29T13:06:26.999Z</time></trkpt><trkpt lat="45.345638378854936" lon="9.238976674528578"><ele>92.0</ele><time>2026-03-29T13:06:27.999Z</time></trkpt><trkpt lat="45.345483905945784" lon="9.239088562857157"><ele>92.0</ele><time>2026-03-29T13:06:28.999Z</time></trkpt><trkpt lat="45.34532458629247" lon="9.239227330428353"><ele>92.0</ele><time>2026-03-29T13:06:29.999Z</time></trkpt><trkpt lat="45.34517567574852" lon="9.239368682147788"><ele>92.0</ele><time>2026-03-29T13:06:30.999Z</time></trkpt><trkpt lat="45.345015845292295" lon="9.239508666452558"><ele>92.0</ele><time>2026-03-29T13:06:31.999Z</time></trkpt><trkpt lat="45.34486371625891" lon="9.239654343979396"><ele>92.0</ele><time>2026-03-29T13:06:32.999Z</time></trkpt><trkpt lat="45.34470922422932" lon="9.23980940780677"><ele>91.66666666666667</ele><time>2026-03-29T13:06:33.999Z</time></trkpt><trkpt lat="45.34455953398063" lon="9.239977924170995"><ele>91.33333333333333</ele><time>2026-03-29T13:06:34.999Z</time></trkpt><trkpt lat="45.34442190363085" lon="9.240140851845059"><ele>91.0</ele><time>2026-03-29T13:06:35.999Z</time></trkpt><trkpt lat="45.34425961127705" lon="9.240318543997978"><ele>91.0</ele><time>2026-03-29T13:06:36.999Z</time></trkpt><trkpt lat="45.34410521387237" lon="9.240489872774527"><ele>91.0</ele><time>2026-03-29T13:06:37.999Z</time></trkpt><trkpt lat="45.34395286960585" lon="9.240636875398271"><ele>91.0</ele><time>2026-03-29T13:06:38.999Z</time></trkpt><trkpt lat="45.34378873552188" lon="9.240859077570674"><ele>90.66666666666666</ele><time>2026-03-29T13:06:39.999Z</time></trkpt><trkpt lat="45.34364494806743" lon="9.241038016213324"><ele>90.33333333333333</ele><time>2026-03-29T13:06:40.999Z</time></trkpt><trkpt lat="45.34346124694989" lon="9.241242187590549"><ele>90.0</ele><time>2026-03-29T13:06:41.999Z</time></trkpt><trkpt lat="45.34330851220092" lon="9.241425402813093"><ele>90.0</ele><time>2026-03-29T13:06:42.999Z</time></trkpt><trkpt lat="45.34313637496663" lon="9.241614549457253"><ele>90.0</ele><time>2026-03-29T13:06:44Z</time></trkpt><trkpt lat="45.342983739795066" lon="9.241792176555862"><ele>90.0</ele><time>2026-03-29T13:06:45Z</time></trkpt><trkpt lat="45.342814186956915" lon="9.241976822438223"><ele>90.33333333333333</ele><time>2026-03-29T13:06:46Z</time></trkpt><trkpt lat="45.34265627490013" lon="9.242168414479712"><ele>90.66666666666666</ele><time>2026-03-29T13:06:47Z</time></trkpt><trkpt lat="45.34250438379133" lon="9.24235209275886"><ele>91.0</ele><time>2026-03-29T13:06:48Z</time></trkpt><trkpt lat="45.34235210359865" lon="9.24252419467369"><ele>91.0</ele><time>2026-03-29T13:06:49Z</time></trkpt><trkpt lat="45.34219964092309" lon="9.24269618880312"><ele>91.0</ele><time>2026-03-29T13:06:50Z</time></trkpt><trkpt lat="45.342045620932055" lon="9.24287013535257"><ele>91.0</ele><time>2026-03-29T13:06:51Z</time></trkpt><trkpt lat="45.34189318060979" lon="9.243045112847843"><ele>91.0</ele><time>2026-03-29T13:06:52Z</time></trkpt><trkpt lat="45.34174347367509" lon="9.243225457487764"><ele>91.0</ele><time>2026-03-29T13:06:53Z</time></trkpt><trkpt lat="45.34159340734363" lon="9.24340147569877"><ele>91.0</ele><time>2026-03-29T13:06:54Z</time></trkpt><trkpt lat="45.34145120907099" lon="9.24356928359394"><ele>91.0</ele><time>2026-03-29T13:06:55Z</time></trkpt><trkpt lat="45.34130059040493" lon="9.243729949263601"><ele>91.0</ele><time>2026-03-29T13:06:56Z</time></trkpt><trkpt lat="45.34114827190645" lon="9.243909807715006"><ele>91.0</ele><time>2026-03-29T13:06:57Z</time></trkpt><trkpt lat="45.340998620085905" lon="9.244074277933956"><ele>91.0</ele><time>2026-03-29T13:06:58Z</time></trkpt><trkpt lat="45.34084890196442" lon="9.244257118861823"><ele>91.0</ele><time>2026-03-29T13:06:59Z</time></trkpt><trkpt lat="45.340703244285656" lon="9.24443296303124"><ele>91.0</ele><time>2026-03-29T13:07:00Z</time></trkpt><trkpt lat="45.3405510958772" lon="9.244602100270981"><ele>91.0</ele><time>2026-03-29T13:07:01Z</time></trkpt><trkpt lat="45.34040408566347" lon="9.244771981688553"><ele>91.0</ele><time>2026-03-29T13:07:02Z</time></trkpt><trkpt lat="45.34025276070095" lon="9.244945261616053"><ele>91.0</ele><time>2026-03-29T13:07:03Z</time></trkpt><trkpt lat="45.3400997102444" lon="9.245120239373628"><ele>91.0</ele><time>2026-03-29T13:07:04Z</time></trkpt><trkpt lat="45.33995709456244" lon="9.245289184249128"><ele>91.0</ele><time>2026-03-29T13:07:05Z</time></trkpt><trkpt lat="45.33981111662582" lon="9.245460551548222"><ele>91.0</ele><time>2026-03-29T13:07:06Z</time></trkpt><trkpt lat="45.339667029043135" lon="9.245630892626519"><ele>92.0</ele><time>2026-03-29T13:07:07Z</time></trkpt><trkpt lat="45.33951743485166" lon="9.245803223060625"><ele>93.0</ele><time>2026-03-29T13:07:08Z</time></trkpt><trkpt lat="45.3393762247706" lon="9.245970259715602"><ele>94.0</ele><time>2026-03-29T13:07:09Z</time></trkpt><trkpt lat="45.339248936807216" lon="9.246132908606238"><ele>94.0</ele><time>2026-03-29T13:07:10Z</time></trkpt><trkpt lat="45.33908555482574" lon="9.246314088521398"><ele>94.0</ele><time>2026-03-29T13:07:11Z</time></trkpt><trkpt lat="45.338939935516485" lon="9.246472006504309"><ele>94.0</ele><time>2026-03-29T13:07:12Z</time></trkpt><trkpt lat="45.33879875351998" lon="9.246636254443743"><ele>93.66666666666666</ele><time>2026-03-29T13:07:13Z</time></trkpt><trkpt lat="45.33866128769407" lon="9.246806442476192"><ele>93.33333333333333</ele><time>2026-03-29T13:07:14Z</time></trkpt><trkpt lat="45.338518943398" lon="9.246968086465003"><ele>93.0</ele><time>2026-03-29T13:07:15Z</time></trkpt><trkpt lat="45.33837850052046" lon="9.247120270300874"><ele>93.0</ele><time>2026-03-29T13:07:16Z</time></trkpt><trkpt lat="45.33824224804215" lon="9.247268359744904"><ele>93.0</ele><time>2026-03-29T13:07:17Z</time></trkpt><trkpt lat="45.338104900739346" lon="9.247397783211985"><ele>93.0</ele><time>2026-03-29T13:07:18Z</time></trkpt><trkpt lat="45.33796361966713" lon="9.24756884356861"><ele>93.0</ele><time>2026-03-29T13:07:19Z</time></trkpt><trkpt lat="45.33782629610269" lon="9.247702178255752"><ele>93.0</ele><time>2026-03-29T13:07:20Z</time></trkpt><trkpt lat="45.33769983065915" lon="9.247823487515795"><ele>93.0</ele><time>2026-03-29T13:07:21Z</time></trkpt><trkpt lat="45.33757580996361" lon="9.247948429287494"><ele>93.0</ele><time>2026-03-29T13:07:22Z</time></trkpt><trkpt lat="45.337462172359565" lon="9.24807520307366"><ele>93.0</ele><time>2026-03-29T13:07:23Z</time></trkpt><trkpt lat="45.33737479688263" lon="9.248175870123294"><ele>93.0</ele><time>2026-03-29T13:07:24Z</time></trkpt><trkpt lat="45.33728072054339" lon="9.248285500010871"><ele>93.0</ele><time>2026-03-29T13:07:25Z</time></trkpt><trkpt lat="45.33718685864019" lon="9.248394868786354"><ele>93.0</ele><time>2026-03-29T13:07:26Z</time></trkpt><trkpt lat="45.3370977854522" lon="9.24851125299522"><ele>93.0</ele><time>2026-03-29T13:07:27Z</time></trkpt><trkpt lat="45.33695465478318" lon="9.248595601768397"><ele>93.0</ele><time>2026-03-29T13:07:28Z</time></trkpt><trkpt lat="45.3368510148017" lon="9.248665374744608"><ele>93.0</ele><time>2026-03-29T13:07:29Z</time></trkpt><trkpt lat="45.336753576798074" lon="9.248735399592483"><ele>93.0</ele><time>2026-03-29T13:07:30Z</time></trkpt><trkpt lat="45.33666577025327" lon="9.248794948499288"><ele>93.0</ele><time>2026-03-29T13:07:31Z</time></trkpt><trkpt lat="45.33658313669985" lon="9.248833100733886"><ele>93.0</ele><time>2026-03-29T13:07:32Z</time></trkpt><trkpt lat="45.336498648718276" lon="9.248848436832295"><ele>93.0</ele><time>2026-03-29T13:07:33Z</time></trkpt><trkpt lat="45.33641502741153" lon="9.2488666685709"><ele>93.0</ele><time>2026-03-29T13:07:34Z</time></trkpt><trkpt lat="45.336322674990406" lon="9.248862198654033"><ele>93.0</ele><time>2026-03-29T13:07:35Z</time></trkpt><trkpt lat="45.336224943928165" lon="9.24885049467771"><ele>92.83333333333333</ele><time>2026-03-29T13:07:36Z</time></trkpt><trkpt lat="45.33614063218019" lon="9.24887926158915"><ele>92.66666666666667</ele><time>2026-03-29T13:07:37Z</time></trkpt><trkpt lat="45.336070577075574" lon="9.24893516312953"><ele>92.5</ele><time>2026-03-29T13:07:38Z</time></trkpt><trkpt lat="45.33602380597357" lon="9.24902529965188"><ele>92.33333333333334</ele><time>2026-03-29T13:07:39Z</time></trkpt><trkpt lat="45.335995794936714" lon="9.249142201966535"><ele>92.16666666666667</ele><time>2026-03-29T13:07:40Z</time></trkpt><trkpt lat="45.3359859119119" lon="9.2492719562981"><ele>92.0</ele><time>2026-03-29T13:07:41Z</time></trkpt><trkpt lat="45.33599975620047" lon="9.249389263891471"><ele>92.39999999999999</ele><time>2026-03-29T13:07:42Z</time></trkpt><trkpt lat="45.33602994830322" lon="9.249501702924325"><ele>92.8</ele><time>2026-03-29T13:07:43Z</time></trkpt><trkpt lat="45.33608993837366" lon="9.249623126257555"><ele>93.2</ele><time>2026-03-29T13:07:44Z</time></trkpt><trkpt lat="45.336158495084014" lon="9.24975151259197"><ele>93.6</ele><time>2026-03-29T13:07:45Z</time></trkpt><trkpt lat="45.33623632551099" lon="9.249883165260925"><ele>94.0</ele><time>2026-03-29T13:07:46Z</time></trkpt><trkpt lat="45.336328901252415" lon="9.24999648581301"><ele>93.5</ele><time>2026-03-29T13:07:47Z</time></trkpt><trkpt lat="45.336435243844576" lon="9.250118511166852"><ele>93.0</ele><time>2026-03-29T13:07:48Z</time></trkpt><trkpt lat="45.336522987300704" lon="9.250258723568235"><ele>92.5</ele><time>2026-03-29T13:07:49Z</time></trkpt><trkpt lat="45.336615389686926" lon="9.250433284204073"><ele>92.0</ele><time>2026-03-29T13:07:50Z</time></trkpt><trkpt lat="45.33670803140263" lon="9.250608214594585"><ele>91.33333333333334</ele><time>2026-03-29T13:07:51Z</time></trkpt><trkpt lat="45.336768580531555" lon="9.250824184446767"><ele>90.66666666666667</ele><time>2026-03-29T13:07:52Z</time></trkpt><trkpt lat="45.33683950114826" lon="9.251042213111797"><ele>90.0</ele><time>2026-03-29T13:07:53Z</time></trkpt><trkpt lat="45.33692408474207" lon="9.251288975925995"><ele>89.66666666666667</ele><time>2026-03-29T13:07:54Z</time></trkpt><trkpt lat="45.33700940260286" lon="9.25152054477367"><ele>89.33333333333334</ele><time>2026-03-29T13:07:55Z</time></trkpt><trkpt lat="45.33709936259785" lon="9.25177126340626"><ele>89.0</ele><time>2026-03-29T13:07:56Z</time></trkpt><trkpt lat="45.33719021187944" lon="9.252028276937677"><ele>89.33333333333334</ele><time>2026-03-29T13:07:57Z</time></trkpt><trkpt lat="45.337282988092696" lon="9.25229358317525"><ele>89.66666666666667</ele><time>2026-03-29T13:07:58Z</time></trkpt><trkpt lat="45.33737878771386" lon="9.25256267590951"><ele>90.0</ele><time>2026-03-29T13:07:59Z</time></trkpt><trkpt lat="45.337479763396416" lon="9.252835205980885"><ele>90.0</ele><time>2026-03-29T13:08:00Z</time></trkpt><trkpt lat="45.33756375674686" lon="9.253107050727136"><ele>90.0</ele><time>2026-03-29T13:08:00.999Z</time></trkpt><trkpt lat="45.33766810257377" lon="9.253383695571015"><ele>90.0</ele><time>2026-03-29T13:08:01.999Z</time></trkpt><trkpt lat="45.33776139987095" lon="9.253654309943752"><ele>90.0</ele><time>2026-03-29T13:08:02.999Z</time></trkpt><trkpt lat="45.33785743292527" lon="9.25392020500441"><ele>90.0</ele><time>2026-03-29T13:08:03.999Z</time></trkpt><trkpt lat="45.33794918943406" lon="9.254185263904683"><ele>90.0</ele><time>2026-03-29T13:08:04.999Z</time></trkpt><trkpt lat="45.338037998813256" lon="9.25444690469695"><ele>90.0</ele><time>2026-03-29T13:08:05.999Z</time></trkpt><trkpt lat="45.33812691724691" lon="9.254707847169989"><ele>90.0</ele><time>2026-03-29T13:08:06.999Z</time></trkpt><trkpt lat="45.33821761896054" lon="9.254967936901924"><ele>90.0</ele><time>2026-03-29T13:08:07.999Z</time></trkpt><trkpt lat="45.33830665457444" lon="9.255217885907516"><ele>90.0</ele><time>2026-03-29T13:08:08.999Z</time></trkpt><trkpt lat="45.338395311788595" lon="9.255465612078346"><ele>90.0</ele><time>2026-03-29T13:08:09.999Z</time></trkpt><trkpt lat="45.33848273849994" lon="9.255717088243319"><ele>90.0</ele><time>2026-03-29T13:08:10.999Z</time></trkpt><trkpt lat="45.33857203939751" lon="9.25596498411455"><ele>90.0</ele><time>2026-03-29T13:08:11.999Z</time></trkpt><trkpt lat="45.338659476561936" lon="9.256215730166678"><ele>90.0</ele><time>2026-03-29T13:08:12.999Z</time></trkpt><trkpt lat="45.33874066417631" lon="9.25646526466506"><ele>90.0</ele><time>2026-03-29T13:08:13.999Z</time></trkpt><trkpt lat="45.33882881934744" lon="9.256712626099288"><ele>89.66666666666667</ele><time>2026-03-29T13:08:14.999Z</time></trkpt><trkpt lat="45.33891664735352" lon="9.25695772809116"><ele>89.33333333333334</ele><time>2026-03-29T13:08:15.999Z</time></trkpt><trkpt lat="45.339003838905406" lon="9.257202593856352"><ele>89.0</ele><time>2026-03-29T13:08:16.999Z</time></trkpt><trkpt lat="45.339089613838084" lon="9.257451547035124"><ele>89.0</ele><time>2026-03-29T13:08:17.999Z</time></trkpt><trkpt lat="45.33917060304089" lon="9.257702243016281"><ele>89.0</ele><time>2026-03-29T13:08:18.999Z</time></trkpt><trkpt lat="45.33925622861081" lon="9.257943974083128"><ele>89.0</ele><time>2026-03-29T13:08:19.999Z</time></trkpt><trkpt lat="45.339340445337974" lon="9.258190627841595"><ele>89.0</ele><time>2026-03-29T13:08:20.999Z</time></trkpt><trkpt lat="45.33943132853606" lon="9.258437349937177"><ele>89.0</ele><time>2026-03-29T13:08:21.999Z</time></trkpt><trkpt lat="45.33951578520869" lon="9.258677216680667"><ele>89.0</ele><time>2026-03-29T13:08:22.999Z</time></trkpt><trkpt lat="45.33960014539296" lon="9.258922420733255"><ele>88.66666666666667</ele><time>2026-03-29T13:08:23.999Z</time></trkpt><trkpt lat="45.33968459946505" lon="9.259166695068071"><ele>88.33333333333333</ele><time>2026-03-29T13:08:24.999Z</time></trkpt><trkpt lat="45.33977345694271" lon="9.259407557044327"><ele>88.0</ele><time>2026-03-29T13:08:25.999Z</time></trkpt><trkpt lat="45.33984645805387" lon="9.259663002708272"><ele>88.66666666666666</ele><time>2026-03-29T13:08:26.999Z</time></trkpt><trkpt lat="45.33992996129852" lon="9.259903714987068"><ele>89.33333333333333</ele><time>2026-03-29T13:08:27.999Z</time></trkpt><trkpt lat="45.34002597611801" lon="9.260131099489763"><ele>90.0</ele><time>2026-03-29T13:08:28.999Z</time></trkpt><trkpt lat="45.34009221841193" lon="9.260372203739864"><ele>90.0</ele><time>2026-03-29T13:08:29.999Z</time></trkpt><trkpt lat="45.340172456432555" lon="9.260603876475281"><ele>90.0</ele><time>2026-03-29T13:08:30.999Z</time></trkpt><trkpt lat="45.34024601093801" lon="9.260816251773884"><ele>90.0</ele><time>2026-03-29T13:08:31.999Z</time></trkpt><trkpt lat="45.34031391884209" lon="9.261012323544177"><ele>90.0</ele><time>2026-03-29T13:08:32.999Z</time></trkpt><trkpt lat="45.34037617426745" lon="9.261192074813358"><ele>90.0</ele><time>2026-03-29T13:08:33.999Z</time></trkpt><trkpt lat="45.34044196314993" lon="9.261382028292521"><ele>90.0</ele><time>2026-03-29T13:08:34.999Z</time></trkpt><trkpt lat="45.34050491315257" lon="9.261562053695485"><ele>90.0</ele><time>2026-03-29T13:08:35.999Z</time></trkpt><trkpt lat="45.34057160810402" lon="9.261753066118077"><ele>90.0</ele><time>2026-03-29T13:08:36.999Z</time></trkpt><trkpt lat="45.34064424575029" lon="9.26193043101769"><ele>90.0</ele><time>2026-03-29T13:08:37.999Z</time></trkpt><trkpt lat="45.34070933735126" lon="9.262107466421279"><ele>90.0</ele><time>2026-03-29T13:08:38.999Z</time></trkpt><trkpt lat="45.34077338009625" lon="9.262287817463077"><ele>90.0</ele><time>2026-03-29T13:08:39.999Z</time></trkpt><trkpt lat="45.34083237051183" lon="9.262467212537025"><ele>90.0</ele><time>2026-03-29T13:08:40.999Z</time></trkpt><trkpt lat="45.34089539342408" lon="9.262647669608725"><ele>90.0</ele><time>2026-03-29T13:08:41.999Z</time></trkpt><trkpt lat="45.340953233189516" lon="9.26282829144768"><ele>90.0</ele><time>2026-03-29T13:08:42.999Z</time></trkpt><trkpt lat="45.341016973950765" lon="9.263015587188962"><ele>90.0</ele><time>2026-03-29T13:08:43.999Z</time></trkpt><trkpt lat="45.34108831480375" lon="9.263205893765875"><ele>90.0</ele><time>2026-03-29T13:08:44.999Z</time></trkpt><trkpt lat="45.341159127527" lon="9.26339745127135"><ele>90.0</ele><time>2026-03-29T13:08:45.999Z</time></trkpt><trkpt lat="45.34122331790385" lon="9.263590618914659"><ele>90.0</ele><time>2026-03-29T13:08:46.999Z</time></trkpt><trkpt lat="45.34129600054653" lon="9.263789442041947"><ele>90.0</ele><time>2026-03-29T13:08:47.999Z</time></trkpt><trkpt lat="45.34135686192202" lon="9.264006023456538"><ele>90.0</ele><time>2026-03-29T13:08:48.999Z</time></trkpt><trkpt lat="45.341436587594195" lon="9.264183408280863"><ele>90.0</ele><time>2026-03-29T13:08:50Z</time></trkpt><trkpt lat="45.34150671371549" lon="9.264394155531143"><ele>89.66666666666667</ele><time>2026-03-29T13:08:51Z</time></trkpt><trkpt lat="45.34156356257924" lon="9.264568756227138"><ele>89.33333333333334</ele><time>2026-03-29T13:08:52Z</time></trkpt><trkpt lat="45.34163945786029" lon="9.264813683271509"><ele>89.0</ele><time>2026-03-29T13:08:53Z</time></trkpt><trkpt lat="45.341721533741804" lon="9.265024111743738"><ele>89.0</ele><time>2026-03-29T13:08:54Z</time></trkpt><trkpt lat="45.341796269604124" lon="9.26525112157648"><ele>89.0</ele><time>2026-03-29T13:08:55Z</time></trkpt><trkpt lat="45.34187552785662" lon="9.265470169417016"><ele>89.0</ele><time>2026-03-29T13:08:56Z</time></trkpt><trkpt lat="45.3419541770905" lon="9.265688991093601"><ele>89.0</ele><time>2026-03-29T13:08:57Z</time></trkpt><trkpt lat="45.34202824801725" lon="9.265894909323231"><ele>89.0</ele><time>2026-03-29T13:08:58Z</time></trkpt><trkpt lat="45.342092373587114" lon="9.266116305677851"><ele>89.0</ele><time>2026-03-29T13:08:59Z</time></trkpt><trkpt lat="45.342180471823674" lon="9.266323354561981"><ele>88.66666666666667</ele><time>2026-03-29T13:09:00Z</time></trkpt><trkpt lat="45.34224122039338" lon="9.26654253969984"><ele>88.33333333333333</ele><time>2026-03-29T13:09:01Z</time></trkpt><trkpt lat="45.34231924761555" lon="9.266766057294863"><ele>88.0</ele><time>2026-03-29T13:09:02Z</time></trkpt><trkpt lat="45.342406454378825" lon="9.266971981525185"><ele>88.0</ele><time>2026-03-29T13:09:03Z</time></trkpt><trkpt lat="45.342478849259614" lon="9.267184970481166"><ele>88.0</ele><time>2026-03-29T13:09:04Z</time></trkpt><trkpt lat="45.34254242816134" lon="9.26739212962721"><ele>88.0</ele><time>2026-03-29T13:09:05Z</time></trkpt><trkpt lat="45.342625865008245" lon="9.267597114723392"><ele>88.33333333333333</ele><time>2026-03-29T13:09:06Z</time></trkpt><trkpt lat="45.34269315613094" lon="9.267811028381308"><ele>88.66666666666667</ele><time>2026-03-29T13:09:07Z</time></trkpt><trkpt lat="45.342768856438965" lon="9.26801187135312"><ele>89.0</ele><time>2026-03-29T13:09:08Z</time></trkpt><trkpt lat="45.34283354917951" lon="9.268247550373653"><ele>89.25</ele><time>2026-03-29T13:09:09Z</time></trkpt><trkpt lat="45.342892532499874" lon="9.268382834195627"><ele>89.5</ele><time>2026-03-29T13:09:10Z</time></trkpt><trkpt lat="45.34295300841134" lon="9.26855095009323"><ele>89.75</ele><time>2026-03-29T13:09:11Z</time></trkpt><trkpt lat="45.34300545047327" lon="9.26870341756847"><ele>90.0</ele><time>2026-03-29T13:09:12Z</time></trkpt><trkpt lat="45.34305814730984" lon="9.268858551015567"><ele>90.33333333333333</ele><time>2026-03-29T13:09:13Z</time></trkpt><trkpt lat="45.343102427546334" lon="9.268998954782148"><ele>90.66666666666667</ele><time>2026-03-29T13:09:14Z</time></trkpt><trkpt lat="45.34314643004543" lon="9.269127793315825"><ele>91.0</ele><time>2026-03-29T13:09:15Z</time></trkpt><trkpt lat="45.34318425772269" lon="9.269236703618065"><ele>91.33333333333334</ele><time>2026-03-29T13:09:16Z</time></trkpt><trkpt lat="45.34321430036636" lon="9.269343314194629"><ele>91.66666666666667</ele><time>2026-03-29T13:09:17Z</time></trkpt><trkpt lat="45.34324749220061" lon="9.269429859279366"><ele>92.0</ele><time>2026-03-29T13:09:18Z</time></trkpt><trkpt lat="45.34327796142818" lon="9.26951870876578"><ele>92.0</ele><time>2026-03-29T13:09:19Z</time></trkpt><trkpt lat="45.34330238870651" lon="9.269612411849982"><ele>92.0</ele><time>2026-03-29T13:09:20Z</time></trkpt><trkpt lat="45.343320901458966" lon="9.269711936535296"><ele>92.0</ele><time>2026-03-29T13:09:21Z</time></trkpt><trkpt lat="45.34331327351406" lon="9.2698804510443"><ele>92.0</ele><time>2026-03-29T13:09:23Z</time></trkpt><trkpt lat="45.34329870637907" lon="9.2699747119255"><ele>92.0</ele><time>2026-03-29T13:09:24Z</time></trkpt><trkpt lat="45.343289196062905" lon="9.270074066735503"><ele>92.0</ele><time>2026-03-29T13:09:25Z</time></trkpt><trkpt lat="45.34330508410567" lon="9.270184501383367"><ele>91.8</ele><time>2026-03-29T13:09:26Z</time></trkpt><trkpt lat="45.34334197823803" lon="9.270290179119678"><ele>91.6</ele><time>2026-03-29T13:09:27Z</time></trkpt><trkpt lat="45.34339863649144" lon="9.270364960457975"><ele>91.39999999999999</ele><time>2026-03-29T13:09:28Z</time></trkpt><trkpt lat="45.34348792181232" lon="9.270434295210258"><ele>91.19999999999999</ele><time>2026-03-29T13:09:29Z</time></trkpt><trkpt lat="45.343573974934124" lon="9.270504496126925"><ele>91.0</ele><time>2026-03-29T13:09:30Z</time></trkpt><trkpt lat="45.34365573414342" lon="9.270613239896946"><ele>91.0</ele><time>2026-03-29T13:09:31Z</time></trkpt><trkpt lat="45.34371667241058" lon="9.270750597658827"><ele>91.0</ele><time>2026-03-29T13:09:32Z</time></trkpt><trkpt lat="45.343762428436705" lon="9.270915850002199"><ele>91.0</ele><time>2026-03-29T13:09:33Z</time></trkpt><trkpt lat="45.34382933044838" lon="9.271080325259645"><ele>91.0</ele><time>2026-03-29T13:09:34Z</time></trkpt><trkpt lat="45.343885812929315" lon="9.271262546078384"><ele>91.25</ele><time>2026-03-29T13:09:35Z</time></trkpt><trkpt lat="45.34394879583009" lon="9.271447205018687"><ele>91.5</ele><time>2026-03-29T13:09:36Z</time></trkpt><trkpt lat="45.34401398006556" lon="9.271631578361252"><ele>91.75</ele><time>2026-03-29T13:09:37Z</time></trkpt><trkpt lat="45.344077355385544" lon="9.271813673294664"><ele>92.0</ele><time>2026-03-29T13:09:38Z</time></trkpt><trkpt lat="45.344143146422255" lon="9.271993304464543"><ele>92.0</ele><time>2026-03-29T13:09:39Z</time></trkpt><trkpt lat="45.344206323957025" lon="9.272169134275666"><ele>92.0</ele><time>2026-03-29T13:09:40Z</time></trkpt><trkpt lat="45.34426789000866" lon="9.272349687079476"><ele>92.0</ele><time>2026-03-29T13:09:41Z</time></trkpt><trkpt lat="45.344326642647566" lon="9.272529641840087"><ele>92.0</ele><time>2026-03-29T13:09:42Z</time></trkpt><trkpt lat="45.3443858462768" lon="9.272703500888543"><ele>91.75</ele><time>2026-03-29T13:09:43Z</time></trkpt><trkpt lat="45.344442256233414" lon="9.272868505245269"><ele>91.5</ele><time>2026-03-29T13:09:44Z</time></trkpt><trkpt lat="45.34449487684313" lon="9.273024133896989"><ele>91.25</ele><time>2026-03-29T13:09:45Z</time></trkpt><trkpt lat="45.344557981706586" lon="9.273192905171737"><ele>91.0</ele><time>2026-03-29T13:09:46Z</time></trkpt><trkpt lat="45.34461981356617" lon="9.273376712965963"><ele>91.0</ele><time>2026-03-29T13:09:47Z</time></trkpt><trkpt lat="45.34468240806857" lon="9.273554773907742"><ele>91.0</ele><time>2026-03-29T13:09:48Z</time></trkpt><trkpt lat="45.34474499440264" lon="9.273735310279791"><ele>91.0</ele><time>2026-03-29T13:09:49Z</time></trkpt><trkpt lat="45.34480435632474" lon="9.273912283996097"><ele>91.0</ele><time>2026-03-29T13:09:50Z</time></trkpt><trkpt lat="45.34486399412988" lon="9.2740893792179"><ele>91.0</ele><time>2026-03-29T13:09:51Z</time></trkpt><trkpt lat="45.34492498033143" lon="9.274266605527517"><ele>91.0</ele><time>2026-03-29T13:09:52Z</time></trkpt><trkpt lat="45.344987709335676" lon="9.274442741177618"><ele>91.0</ele><time>2026-03-29T13:09:53Z</time></trkpt><trkpt lat="45.34504881411626" lon="9.274621364943238"><ele>91.0</ele><time>2026-03-29T13:09:54Z</time></trkpt><trkpt lat="45.34511098994916" lon="9.274788559641493"><ele>91.0</ele><time>2026-03-29T13:09:55Z</time></trkpt><trkpt lat="45.34516637367866" lon="9.274948345313966"><ele>91.0</ele><time>2026-03-29T13:09:56Z</time></trkpt><trkpt lat="45.34522343741594" lon="9.275113027929523"><ele>91.0</ele><time>2026-03-29T13:09:57Z</time></trkpt><trkpt lat="45.34528076465742" lon="9.275277348484755"><ele>91.0</ele><time>2026-03-29T13:09:58Z</time></trkpt><trkpt lat="45.345341221825485" lon="9.275441589240527"><ele>90.5</ele><time>2026-03-29T13:09:59Z</time></trkpt><trkpt lat="45.34540052156139" lon="9.27560823781429"><ele>90.0</ele><time>2026-03-29T13:10:00Z</time></trkpt><trkpt lat="45.345457535712" lon="9.27577497860566"><ele>89.5</ele><time>2026-03-29T13:10:01Z</time></trkpt><trkpt lat="45.34551990006395" lon="9.275931151748694"><ele>89.0</ele><time>2026-03-29T13:10:02Z</time></trkpt><trkpt lat="45.345578352752426" lon="9.276099573447235"><ele>89.0</ele><time>2026-03-29T13:10:03Z</time></trkpt><trkpt lat="45.345633823148034" lon="9.2762649799579"><ele>89.0</ele><time>2026-03-29T13:10:04Z</time></trkpt><trkpt lat="45.34568110655182" lon="9.276467310272809"><ele>89.0</ele><time>2026-03-29T13:10:05Z</time></trkpt><trkpt lat="45.345749086550455" lon="9.276612221958258"><ele>89.0</ele><time>2026-03-29T13:10:06Z</time></trkpt><trkpt lat="45.34581076137114" lon="9.276781289202871"><ele>89.0</ele><time>2026-03-29T13:10:07Z</time></trkpt><trkpt lat="45.34586844850878" lon="9.276955449361346"><ele>89.0</ele><time>2026-03-29T13:10:08Z</time></trkpt><trkpt lat="45.3459349531794" lon="9.277132496675888"><ele>89.0</ele><time>2026-03-29T13:10:08.999Z</time></trkpt><trkpt lat="45.345993347624585" lon="9.277313154910686"><ele>89.0</ele><time>2026-03-29T13:10:09.999Z</time></trkpt><trkpt lat="45.34605668738188" lon="9.277493317689503"><ele>89.0</ele><time>2026-03-29T13:10:10.999Z</time></trkpt><trkpt lat="45.34612381525887" lon="9.277666685031337"><ele>89.0</ele><time>2026-03-29T13:10:11.999Z</time></trkpt><trkpt lat="45.346192210359945" lon="9.277852980642743"><ele>89.0</ele><time>2026-03-29T13:10:12.999Z</time></trkpt><trkpt lat="45.34623774857771" lon="9.27802792093363"><ele>89.0</ele><time>2026-03-29T13:10:13.999Z</time></trkpt><trkpt lat="45.34632046685612" lon="9.278238011490899"><ele>89.25</ele><time>2026-03-29T13:10:14.999Z</time></trkpt><trkpt lat="45.34638375829938" lon="9.278441820450771"><ele>89.5</ele><time>2026-03-29T13:10:15.999Z</time></trkpt><trkpt lat="45.346439567068316" lon="9.278653650479432"><ele>89.75</ele><time>2026-03-29T13:10:16.999Z</time></trkpt><trkpt lat="45.34651721359673" lon="9.278808319590533"><ele>90.0</ele><time>2026-03-29T13:10:17.999Z</time></trkpt><trkpt lat="45.34658730851212" lon="9.278996092753339"><ele>90.0</ele><time>2026-03-29T13:10:18.999Z</time></trkpt><trkpt lat="45.3466502402799" lon="9.279187555770227"><ele>90.0</ele><time>2026-03-29T13:10:19.999Z</time></trkpt><trkpt lat="45.34671380530549" lon="9.27936295822594"><ele>90.0</ele><time>2026-03-29T13:10:20.999Z</time></trkpt><trkpt lat="45.34678071441157" lon="9.27954274997041"><ele>90.0</ele><time>2026-03-29T13:10:21.999Z</time></trkpt><trkpt lat="45.346841468632014" lon="9.279737832618023"><ele>90.0</ele><time>2026-03-29T13:10:22.999Z</time></trkpt><trkpt lat="45.34689693338854" lon="9.279895604338275"><ele>90.0</ele><time>2026-03-29T13:10:23.999Z</time></trkpt><trkpt lat="45.34694791052239" lon="9.280050117179613"><ele>90.0</ele><time>2026-03-29T13:10:24.999Z</time></trkpt><trkpt lat="45.34700343818723" lon="9.280206236299742"><ele>90.0</ele><time>2026-03-29T13:10:25.999Z</time></trkpt><trkpt lat="45.34705224151594" lon="9.280355212112939"><ele>90.0</ele><time>2026-03-29T13:10:26.999Z</time></trkpt><trkpt lat="45.34710430317932" lon="9.280501076799824"><ele>90.0</ele><time>2026-03-29T13:10:27.999Z</time></trkpt><trkpt lat="45.347152757712344" lon="9.280644585619239"><ele>90.0</ele><time>2026-03-29T13:10:28.999Z</time></trkpt><trkpt lat="45.34721065861551" lon="9.280786593703928"><ele>90.0</ele><time>2026-03-29T13:10:29.999Z</time></trkpt><trkpt lat="45.34726042254052" lon="9.280931554725354"><ele>90.0</ele><time>2026-03-29T13:10:30.999Z</time></trkpt><trkpt lat="45.3472711855887" lon="9.281093905579054"><ele>90.0</ele><time>2026-03-29T13:10:31.999Z</time></trkpt><trkpt lat="45.34733731603703" lon="9.281238300276584"><ele>90.0</ele><time>2026-03-29T13:10:32.999Z</time></trkpt><trkpt lat="45.34739150879819" lon="9.281367739718146"><ele>90.0</ele><time>2026-03-29T13:10:33.999Z</time></trkpt><trkpt lat="45.34742590989105" lon="9.281476416323182"><ele>90.0</ele><time>2026-03-29T13:10:34.999Z</time></trkpt><trkpt lat="45.347442574797654" lon="9.2816380204823"><ele>90.0</ele><time>2026-03-29T13:10:35.999Z</time></trkpt><trkpt lat="45.347445864879326" lon="9.281797910784224"><ele>90.0</ele><time>2026-03-29T13:10:36.999Z</time></trkpt><trkpt lat="45.347450135591984" lon="9.281965478285539"><ele>90.0</ele><time>2026-03-29T13:10:37.999Z</time></trkpt><trkpt lat="45.34746776148527" lon="9.282149644691476"><ele>90.0</ele><time>2026-03-29T13:10:38.999Z</time></trkpt><trkpt lat="45.34748362143004" lon="9.282279399381299"><ele>90.0</ele><time>2026-03-29T13:10:39.999Z</time></trkpt><trkpt lat="45.347537638230946" lon="9.28241732848821"><ele>90.0</ele><time>2026-03-29T13:10:40.999Z</time></trkpt><trkpt lat="45.34760681626545" lon="9.282552420280755"><ele>90.0</ele><time>2026-03-29T13:10:41.999Z</time></trkpt><trkpt lat="45.34770147052063" lon="9.282671303192753"><ele>90.0</ele><time>2026-03-29T13:10:42.999Z</time></trkpt><trkpt lat="45.34779643337582" lon="9.282783396531894"><ele>90.0</ele><time>2026-03-29T13:10:43.999Z</time></trkpt><trkpt lat="45.34788318575512" lon="9.282909041981432"><ele>90.0</ele><time>2026-03-29T13:10:44.999Z</time></trkpt><trkpt lat="45.347958046575314" lon="9.283047730349354"><ele>90.0</ele><time>2026-03-29T13:10:45.999Z</time></trkpt><trkpt lat="45.34802932414939" lon="9.283204413213245"><ele>90.0</ele><time>2026-03-29T13:10:46.999Z</time></trkpt><trkpt lat="45.348091971804635" lon="9.283370658842493"><ele>89.75</ele><time>2026-03-29T13:10:47.999Z</time></trkpt><trkpt lat="45.348150575454596" lon="9.283534272555068"><ele>89.5</ele><time>2026-03-29T13:10:48.999Z</time></trkpt><trkpt lat="45.34820512352336" lon="9.28369242263134"><ele>89.25</ele><time>2026-03-29T13:10:49.999Z</time></trkpt><trkpt lat="45.34826110212012" lon="9.28385226472094"><ele>89.0</ele><time>2026-03-29T13:10:50.999Z</time></trkpt><trkpt lat="45.348316392891164" lon="9.284015044133394"><ele>89.75</ele><time>2026-03-29T13:10:51.999Z</time></trkpt><trkpt lat="45.348368593869836" lon="9.284182223067235"><ele>90.5</ele><time>2026-03-29T13:10:52.999Z</time></trkpt><trkpt lat="45.348418415605096" lon="9.284351903807575"><ele>91.25</ele><time>2026-03-29T13:10:53.999Z</time></trkpt><trkpt lat="45.34848677067714" lon="9.284486251960201"><ele>92.0</ele><time>2026-03-29T13:10:54.999Z</time></trkpt><trkpt lat="45.34853359083697" lon="9.284625153982047"><ele>92.25</ele><time>2026-03-29T13:10:56Z</time></trkpt><trkpt lat="45.34858351972118" lon="9.284777566342076"><ele>92.5</ele><time>2026-03-29T13:10:57Z</time></trkpt><trkpt lat="45.3486369293153" lon="9.284931862296979"><ele>92.75</ele><time>2026-03-29T13:10:58Z</time></trkpt><trkpt lat="45.34869608744926" lon="9.28509352480569"><ele>93.0</ele><time>2026-03-29T13:10:59Z</time></trkpt><trkpt lat="45.34875331464501" lon="9.285265256317937"><ele>93.0</ele><time>2026-03-29T13:11:00Z</time></trkpt><trkpt lat="45.34883391846223" lon="9.285454199312827"><ele>93.0</ele><time>2026-03-29T13:11:01Z</time></trkpt><trkpt lat="45.34888373710118" lon="9.285638068498937"><ele>93.0</ele><time>2026-03-29T13:11:02Z</time></trkpt><trkpt lat="45.34894563452773" lon="9.285817313032739"><ele>93.0</ele><time>2026-03-29T13:11:03Z</time></trkpt><trkpt lat="45.34901741766428" lon="9.285995589131584"><ele>92.75</ele><time>2026-03-29T13:11:04Z</time></trkpt><trkpt lat="45.3490787658293" lon="9.286183107853535"><ele>92.5</ele><time>2026-03-29T13:11:05Z</time></trkpt><trkpt lat="45.349149457704556" lon="9.286372071589435"><ele>92.25</ele><time>2026-03-29T13:11:06Z</time></trkpt><trkpt lat="45.34921297628823" lon="9.28656128861992"><ele>92.0</ele><time>2026-03-29T13:11:07Z</time></trkpt><trkpt lat="45.34929285983957" lon="9.286768586932322"><ele>91.33333333333334</ele><time>2026-03-29T13:11:08Z</time></trkpt><trkpt lat="45.349361301742434" lon="9.286985899180262"><ele>90.66666666666667</ele><time>2026-03-29T13:11:09Z</time></trkpt><trkpt lat="45.349434436974406" lon="9.287199072924354"><ele>90.0</ele><time>2026-03-29T13:11:10Z</time></trkpt><trkpt lat="45.349509881355594" lon="9.287414892081733"><ele>90.0</ele><time>2026-03-29T13:11:11Z</time></trkpt><trkpt lat="45.34958633813761" lon="9.287636642927405"><ele>90.0</ele><time>2026-03-29T13:11:12Z</time></trkpt><trkpt lat="45.34966498300141" lon="9.287867682317586"><ele>90.0</ele><time>2026-03-29T13:11:13Z</time></trkpt><trkpt lat="45.34973736031439" lon="9.2881070675364"><ele>90.0</ele><time>2026-03-29T13:11:14Z</time></trkpt><trkpt lat="45.349818724721985" lon="9.288340480867994"><ele>90.0</ele><time>2026-03-29T13:11:15Z</time></trkpt><trkpt lat="45.34990681070212" lon="9.288580323683707"><ele>90.0</ele><time>2026-03-29T13:11:16Z</time></trkpt><trkpt lat="45.34999812108475" lon="9.288809698447608"><ele>89.66666666666667</ele><time>2026-03-29T13:11:17Z</time></trkpt><trkpt lat="45.350066369149616" lon="9.289043643284726"><ele>89.33333333333334</ele><time>2026-03-29T13:11:18Z</time></trkpt><trkpt lat="45.350145082491096" lon="9.28927237415179"><ele>89.0</ele><time>2026-03-29T13:11:19Z</time></trkpt><trkpt lat="45.35022496625921" lon="9.289493594057168"><ele>89.0</ele><time>2026-03-29T13:11:20Z</time></trkpt><trkpt lat="45.350301839964104" lon="9.289714524752512"><ele>89.0</ele><time>2026-03-29T13:11:21Z</time></trkpt><trkpt lat="45.35037669145681" lon="9.289933387449254"><ele>89.0</ele><time>2026-03-29T13:11:22Z</time></trkpt><trkpt lat="45.350451714019925" lon="9.29015777675562"><ele>89.0</ele><time>2026-03-29T13:11:23Z</time></trkpt><trkpt lat="45.35052543198663" lon="9.290370801965514"><ele>89.0</ele><time>2026-03-29T13:11:24Z</time></trkpt><trkpt lat="45.35059934947173" lon="9.290584257900582"><ele>89.0</ele><time>2026-03-29T13:11:25Z</time></trkpt><trkpt lat="45.350675267817664" lon="9.29079850117562"><ele>89.0</ele><time>2026-03-29T13:11:26Z</time></trkpt><trkpt lat="45.35075365063038" lon="9.291010571617631"><ele>89.0</ele><time>2026-03-29T13:11:27Z</time></trkpt><trkpt lat="45.350827493066106" lon="9.291223721482398"><ele>89.0</ele><time>2026-03-29T13:11:28Z</time></trkpt><trkpt lat="45.3509023539232" lon="9.291434613839968"><ele>89.0</ele><time>2026-03-29T13:11:29Z</time></trkpt><trkpt lat="45.350978850159336" lon="9.291647190881125"><ele>89.0</ele><time>2026-03-29T13:11:30Z</time></trkpt><trkpt lat="45.35105689259404" lon="9.291869628409259"><ele>89.0</ele><time>2026-03-29T13:11:31Z</time></trkpt><trkpt lat="45.3511334272286" lon="9.292089938601974"><ele>89.33333333333334</ele><time>2026-03-29T13:11:32Z</time></trkpt><trkpt lat="45.35121217113363" lon="9.292304470632654"><ele>89.66666666666667</ele><time>2026-03-29T13:11:33Z</time></trkpt><trkpt lat="45.3512892982459" lon="9.292524681101822"><ele>90.0</ele><time>2026-03-29T13:11:34Z</time></trkpt><trkpt lat="45.35136614964555" lon="9.292740736753656"><ele>90.0</ele><time>2026-03-29T13:11:35Z</time></trkpt><trkpt lat="45.35143565560408" lon="9.292960523673974"><ele>90.0</ele><time>2026-03-29T13:11:36Z</time></trkpt><trkpt lat="45.35151205895549" lon="9.293185367782536"><ele>90.0</ele><time>2026-03-29T13:11:37Z</time></trkpt><trkpt lat="45.35158784711309" lon="9.29340517536349"><ele>90.0</ele><time>2026-03-29T13:11:38Z</time></trkpt><trkpt lat="45.351666715524985" lon="9.293624853894224"><ele>90.0</ele><time>2026-03-29T13:11:39Z</time></trkpt><trkpt lat="45.351744785395496" lon="9.29383664256301"><ele>90.0</ele><time>2026-03-29T13:11:40Z</time></trkpt><trkpt lat="45.351818194238646" lon="9.294061483649267"><ele>89.66666666666667</ele><time>2026-03-29T13:11:41Z</time></trkpt><trkpt lat="45.35189552787138" lon="9.294284449729975"><ele>89.33333333333334</ele><time>2026-03-29T13:11:42Z</time></trkpt><trkpt lat="45.351972168813006" lon="9.29450306509949"><ele>89.0</ele><time>2026-03-29T13:11:43Z</time></trkpt><trkpt lat="45.35204631053931" lon="9.294720899958733"><ele>89.33333333333334</ele><time>2026-03-29T13:11:44Z</time></trkpt><trkpt lat="45.35212074190087" lon="9.294942483673475"><ele>89.66666666666667</ele><time>2026-03-29T13:11:45Z</time></trkpt><trkpt lat="45.35219861907027" lon="9.295166724405169"><ele>90.0</ele><time>2026-03-29T13:11:46Z</time></trkpt><trkpt lat="45.35227662486823" lon="9.295390505641505"><ele>90.66666666666667</ele><time>2026-03-29T13:11:47Z</time></trkpt><trkpt lat="45.35235429531703" lon="9.295612725638112"><ele>91.33333333333334</ele><time>2026-03-29T13:11:48Z</time></trkpt><trkpt lat="45.35243251282915" lon="9.2958297558575"><ele>92.0</ele><time>2026-03-29T13:11:49Z</time></trkpt><trkpt lat="45.35251282083508" lon="9.296050428193903"><ele>92.0</ele><time>2026-03-29T13:11:50Z</time></trkpt><trkpt lat="45.35258770425773" lon="9.29627153352746"><ele>92.0</ele><time>2026-03-29T13:11:51Z</time></trkpt><trkpt lat="45.3526577274298" lon="9.29648195839318"><ele>92.0</ele><time>2026-03-29T13:11:52Z</time></trkpt><trkpt lat="45.35272808503384" lon="9.296677798062843"><ele>92.0</ele><time>2026-03-29T13:11:53Z</time></trkpt><trkpt lat="45.352794224941505" lon="9.296886809641105"><ele>92.0</ele><time>2026-03-29T13:11:54Z</time></trkpt><trkpt lat="45.352858708270624" lon="9.297095258761615"><ele>92.0</ele><time>2026-03-29T13:11:55Z</time></trkpt><trkpt lat="45.35292402909959" lon="9.297309158705357"><ele>91.75</ele><time>2026-03-29T13:11:56Z</time></trkpt><trkpt lat="45.35299931620661" lon="9.297491749431599"><ele>91.5</ele><time>2026-03-29T13:11:57Z</time></trkpt><trkpt lat="45.35306720913771" lon="9.29767767985182"><ele>91.25</ele><time>2026-03-29T13:11:58Z</time></trkpt><trkpt lat="45.35312839352463" lon="9.297844737319533"><ele>91.0</ele><time>2026-03-29T13:11:59Z</time></trkpt><trkpt lat="45.35318940382054" lon="9.298026694428719"><ele>90.75</ele><time>2026-03-29T13:12:00Z</time></trkpt><trkpt lat="45.35324893726974" lon="9.298198933565407"><ele>90.5</ele><time>2026-03-29T13:12:01Z</time></trkpt><trkpt lat="45.353309553560756" lon="9.29836237966666"><ele>90.25</ele><time>2026-03-29T13:12:02Z</time></trkpt><trkpt lat="45.35336240668595" lon="9.298515682690363"><ele>90.0</ele><time>2026-03-29T13:12:03Z</time></trkpt><trkpt lat="45.353409462222054" lon="9.298649341700731"><ele>90.0</ele><time>2026-03-29T13:12:04Z</time></trkpt><trkpt lat="45.353450924472085" lon="9.298762270979147"><ele>90.0</ele><time>2026-03-29T13:12:05Z</time></trkpt><trkpt lat="45.353486228757234" lon="9.298864746504508"><ele>90.0</ele><time>2026-03-29T13:12:06Z</time></trkpt><trkpt lat="45.35351944276696" lon="9.298954129152843"><ele>90.0</ele><time>2026-03-29T13:12:07Z</time></trkpt><trkpt lat="45.35356388301556" lon="9.299074552176211"><ele>90.0</ele><time>2026-03-29T13:12:09Z</time></trkpt><trkpt lat="45.353596285691125" lon="9.299176169632998"><ele>90.0</ele><time>2026-03-29T13:12:13.999Z</time></trkpt><trkpt lat="45.353620431199644" lon="9.299273578318452"><ele>90.2</ele><time>2026-03-29T13:12:15.999Z</time></trkpt><trkpt lat="45.35361823161389" lon="9.29943433980546"><ele>90.4</ele><time>2026-03-29T13:12:17.999Z</time></trkpt><trkpt lat="45.353597477246424" lon="9.299529410221457"><ele>90.6</ele><time>2026-03-29T13:12:18.999Z</time></trkpt><trkpt lat="45.353568344565346" lon="9.299629795633813"><ele>90.8</ele><time>2026-03-29T13:12:19.999Z</time></trkpt><trkpt lat="45.35352534688766" lon="9.299727850807825"><ele>91.0</ele><time>2026-03-29T13:12:20.999Z</time></trkpt><trkpt lat="45.353445995263435" lon="9.299852288918125"><ele>91.0</ele><time>2026-03-29T13:12:21.999Z</time></trkpt><trkpt lat="45.35336359035518" lon="9.299967753684875"><ele>91.0</ele><time>2026-03-29T13:12:22.999Z</time></trkpt><trkpt lat="45.353254540326986" lon="9.300064813692169"><ele>91.0</ele><time>2026-03-29T13:12:23.999Z</time></trkpt><trkpt lat="45.35313328430051" lon="9.300188426357145"><ele>91.0</ele><time>2026-03-29T13:12:24.999Z</time></trkpt><trkpt lat="45.35299521018564" lon="9.300329686328435"><ele>90.66666666666666</ele><time>2026-03-29T13:12:25.999Z</time></trkpt><trkpt lat="45.35284262703583" lon="9.300480383919918"><ele>90.33333333333333</ele><time>2026-03-29T13:12:26.999Z</time></trkpt><trkpt lat="45.35268885793269" lon="9.300634211274915"><ele>90.0</ele><time>2026-03-29T13:12:27.999Z</time></trkpt><trkpt lat="45.35253542053401" lon="9.300795427500493"><ele>90.0</ele><time>2026-03-29T13:12:28.999Z</time></trkpt><trkpt lat="45.35239065462483" lon="9.300942888809844"><ele>90.0</ele><time>2026-03-29T13:12:29.999Z</time></trkpt><trkpt lat="45.35225223192354" lon="9.301067982365133"><ele>90.0</ele><time>2026-03-29T13:12:30.999Z</time></trkpt><trkpt lat="45.35212501117384" lon="9.30119537042938"><ele>90.0</ele><time>2026-03-29T13:12:31.999Z</time></trkpt><trkpt lat="45.35201293696189" lon="9.301315668187517"><ele>90.0</ele><time>2026-03-29T13:12:32.999Z</time></trkpt><trkpt lat="45.351885875909545" lon="9.301434659704961"><ele>90.0</ele><time>2026-03-29T13:12:33.999Z</time></trkpt><trkpt lat="45.35174876495297" lon="9.301563163638974"><ele>90.33333333333333</ele><time>2026-03-29T13:12:34.999Z</time></trkpt><trkpt lat="45.351615111752096" lon="9.301705609478812"><ele>90.66666666666666</ele><time>2026-03-29T13:12:35.999Z</time></trkpt><trkpt lat="45.35147229617306" lon="9.301863001879658"><ele>91.0</ele><time>2026-03-29T13:12:36.999Z</time></trkpt><trkpt lat="45.351332167581006" lon="9.301995814145346"><ele>91.0</ele><time>2026-03-29T13:12:37.999Z</time></trkpt><trkpt lat="45.35118756806198" lon="9.302140276681852"><ele>91.0</ele><time>2026-03-29T13:12:38.999Z</time></trkpt><trkpt lat="45.35104217473104" lon="9.30228294346966"><ele>91.0</ele><time>2026-03-29T13:12:39.999Z</time></trkpt><trkpt lat="45.35089909274206" lon="9.30242782249271"><ele>91.0</ele><time>2026-03-29T13:12:40.999Z</time></trkpt><trkpt lat="45.35075209570357" lon="9.302575055342077"><ele>91.0</ele><time>2026-03-29T13:12:41.999Z</time></trkpt><trkpt lat="45.350617229057406" lon="9.302712156931621"><ele>91.0</ele><time>2026-03-29T13:12:42.999Z</time></trkpt><trkpt lat="45.35049624638643" lon="9.302850211104827"><ele>91.0</ele><time>2026-03-29T13:12:43.999Z</time></trkpt><trkpt lat="45.350380399382644" lon="9.302960473146165"><ele>91.0</ele><time>2026-03-29T13:12:44.999Z</time></trkpt><trkpt lat="45.35026150974882" lon="9.303085770232576"><ele>91.0</ele><time>2026-03-29T13:12:45.999Z</time></trkpt><trkpt lat="45.350102307466706" lon="9.303235549942023"><ele>91.0</ele><time>2026-03-29T13:12:46.999Z</time></trkpt><trkpt lat="45.349990434465205" lon="9.30335270199765"><ele>91.0</ele><time>2026-03-29T13:12:47.999Z</time></trkpt><trkpt lat="45.34988339319712" lon="9.303487532626173"><ele>91.0</ele><time>2026-03-29T13:12:48.999Z</time></trkpt><trkpt lat="45.349786615536296" lon="9.30361041552383"><ele>91.0</ele><time>2026-03-29T13:12:49.999Z</time></trkpt><trkpt lat="45.34969158454114" lon="9.303731987984381"><ele>91.0</ele><time>2026-03-29T13:12:50.999Z</time></trkpt><trkpt lat="45.349603251209395" lon="9.303836057433355"><ele>91.0</ele><time>2026-03-29T13:12:51.999Z</time></trkpt><trkpt lat="45.34952340489823" lon="9.303968236226739"><ele>91.0</ele><time>2026-03-29T13:12:52.999Z</time></trkpt><trkpt lat="45.34942606833443" lon="9.304031544808945"><ele>91.0</ele><time>2026-03-29T13:12:53.999Z</time></trkpt><trkpt lat="45.34936156307058" lon="9.304104054127675"><ele>91.0</ele><time>2026-03-29T13:12:54.999Z</time></trkpt><trkpt lat="45.34930616125939" lon="9.304163217116276"><ele>91.16666666666666</ele><time>2026-03-29T13:12:55.999Z</time></trkpt><trkpt lat="45.349224055321415" lon="9.30425087986547"><ele>91.33333333333333</ele><time>2026-03-29T13:12:57.999Z</time></trkpt><trkpt lat="45.349146864227684" lon="9.304279367739365"><ele>91.5</ele><time>2026-03-29T13:12:58.999Z</time></trkpt><trkpt lat="45.349080222294646" lon="9.30433129357836"><ele>91.66666666666667</ele><time>2026-03-29T13:12:59.999Z</time></trkpt><trkpt lat="45.34903043766498" lon="9.304416536732267"><ele>91.83333333333334</ele><time>2026-03-29T13:13:00.999Z</time></trkpt><trkpt lat="45.34898919559948" lon="9.304548316316229"><ele>92.0</ele><time>2026-03-29T13:13:02Z</time></trkpt><trkpt lat="45.34901399475851" lon="9.304681376623641"><ele>92.0</ele><time>2026-03-29T13:13:03Z</time></trkpt><trkpt lat="45.34900443282883" lon="9.304814912012082"><ele>92.0</ele><time>2026-03-29T13:13:04Z</time></trkpt><trkpt lat="45.34892786778533" lon="9.30498616962234"><ele>92.0</ele><time>2026-03-29T13:13:05Z</time></trkpt><trkpt lat="45.3488791493308" lon="9.305192408188192"><ele>92.0</ele><time>2026-03-29T13:13:06Z</time></trkpt><trkpt lat="45.348770237936684" lon="9.305358339915488"><ele>92.0</ele><time>2026-03-29T13:13:07Z</time></trkpt><trkpt lat="45.348679593259426" lon="9.305564366641125"><ele>92.0</ele><time>2026-03-29T13:13:08Z</time></trkpt><trkpt lat="45.348607990983126" lon="9.305765250804644"><ele>92.0</ele><time>2026-03-29T13:13:09Z</time></trkpt><trkpt lat="45.34850011678766" lon="9.306042682917452"><ele>91.0</ele><time>2026-03-29T13:13:10Z</time></trkpt><trkpt lat="45.34841776309871" lon="9.306329033031547"><ele>90.0</ele><time>2026-03-29T13:13:11Z</time></trkpt><trkpt lat="45.348341186018715" lon="9.306611209592289"><ele>89.0</ele><time>2026-03-29T13:13:12Z</time></trkpt><trkpt lat="45.34826137503819" lon="9.306917096914228"><ele>89.5</ele><time>2026-03-29T13:13:13Z</time></trkpt><trkpt lat="45.348196093568426" lon="9.30726178748108"><ele>90.0</ele><time>2026-03-29T13:13:14Z</time></trkpt><trkpt lat="45.348109929931624" lon="9.307611733776648"><ele>89.5</ele><time>2026-03-29T13:13:15Z</time></trkpt><trkpt lat="45.348021463945386" lon="9.307966706596494"><ele>89.0</ele><time>2026-03-29T13:13:16Z</time></trkpt><trkpt lat="45.34795728936564" lon="9.308312352621625"><ele>89.0</ele><time>2026-03-29T13:13:17Z</time></trkpt><trkpt lat="45.34789429122342" lon="9.30865636802655"><ele>89.0</ele><time>2026-03-29T13:13:18Z</time></trkpt><trkpt lat="45.34783652967734" lon="9.308979335899188"><ele>89.33333333333334</ele><time>2026-03-29T13:13:19Z</time></trkpt><trkpt lat="45.347773278452614" lon="9.309268932552257"><ele>89.66666666666667</ele><time>2026-03-29T13:13:20Z</time></trkpt><trkpt lat="45.34771279592779" lon="9.309562220329875"><ele>90.0</ele><time>2026-03-29T13:13:21Z</time></trkpt><trkpt lat="45.347640602226434" lon="9.30985451392746"><ele>90.0</ele><time>2026-03-29T13:13:22Z</time></trkpt><trkpt lat="45.34756411726246" lon="9.310109560440287"><ele>90.0</ele><time>2026-03-29T13:13:23Z</time></trkpt><trkpt lat="45.34748802056186" lon="9.310352708359137"><ele>90.0</ele><time>2026-03-29T13:13:24Z</time></trkpt><trkpt lat="45.34739087636596" lon="9.310588051758792"><ele>89.66666666666667</ele><time>2026-03-29T13:13:25Z</time></trkpt><trkpt lat="45.347296740522246" lon="9.310804687566398"><ele>89.33333333333334</ele><time>2026-03-29T13:13:26Z</time></trkpt><trkpt lat="45.34718799592848" lon="9.311034428871558"><ele>89.0</ele><time>2026-03-29T13:13:27Z</time></trkpt><trkpt lat="45.347078302221846" lon="9.3112491920634"><ele>89.33333333333334</ele><time>2026-03-29T13:13:28Z</time></trkpt><trkpt lat="45.34694577516432" lon="9.311434870345746"><ele>89.66666666666667</ele><time>2026-03-29T13:13:29Z</time></trkpt><trkpt lat="45.34683029063375" lon="9.311623198715235"><ele>90.0</ele><time>2026-03-29T13:13:30Z</time></trkpt><trkpt lat="45.34670627382382" lon="9.311785107992142"><ele>90.0</ele><time>2026-03-29T13:13:31Z</time></trkpt><trkpt lat="45.34659087235779" lon="9.311916295500708"><ele>90.0</ele><time>2026-03-29T13:13:32Z</time></trkpt><trkpt lat="45.34647781527838" lon="9.312019718806019"><ele>90.0</ele><time>2026-03-29T13:13:33Z</time></trkpt><trkpt lat="45.34639635393992" lon="9.312092629575982"><ele>90.0</ele><time>2026-03-29T13:13:34Z</time></trkpt><trkpt lat="45.34630036458611" lon="9.31221828134589"><ele>89.66666666666667</ele><time>2026-03-29T13:13:35Z</time></trkpt><trkpt lat="45.34621181487999" lon="9.31232162846866"><ele>89.33333333333333</ele><time>2026-03-29T13:13:36Z</time></trkpt><trkpt lat="45.3461414338565" lon="9.312387447412931"><ele>89.0</ele><time>2026-03-29T13:13:37Z</time></trkpt><trkpt lat="45.346051017250694" lon="9.312420356133982"><ele>88.66666666666666</ele><time>2026-03-29T13:13:38Z</time></trkpt><trkpt lat="45.34597819915535" lon="9.312470204207795"><ele>88.33333333333333</ele><time>2026-03-29T13:13:39Z</time></trkpt><trkpt lat="45.34591296121529" lon="9.312516188798341"><ele>88.0</ele><time>2026-03-29T13:13:40Z</time></trkpt><trkpt lat="45.345844149551795" lon="9.312571636181865"><ele>88.0</ele><time>2026-03-29T13:13:41Z</time></trkpt><trkpt lat="45.34575689607292" lon="9.312566051147927"><ele>88.0</ele><time>2026-03-29T13:13:42Z</time></trkpt><trkpt lat="45.34566106488783" lon="9.312613811702269"><ele>88.0</ele><time>2026-03-29T13:13:43Z</time></trkpt><trkpt lat="45.34560598752294" lon="9.312685766509983"><ele>88.0</ele><time>2026-03-29T13:13:44Z</time></trkpt><trkpt lat="45.345580218567704" lon="9.31282088277129"><ele>88.0</ele><time>2026-03-29T13:13:45Z</time></trkpt><trkpt lat="45.34554886321793" lon="9.312950311296403"><ele>88.0</ele><time>2026-03-29T13:13:46Z</time></trkpt><trkpt lat="45.34550031584464" lon="9.313104978372692"><ele>88.0</ele><time>2026-03-29T13:13:47Z</time></trkpt><trkpt lat="45.34539078499918" lon="9.313295064431586"><ele>88.0</ele><time>2026-03-29T13:13:48Z</time></trkpt><trkpt lat="45.34526406468572" lon="9.313470745828601"><ele>88.0</ele><time>2026-03-29T13:13:49Z</time></trkpt><trkpt lat="45.3451244747012" lon="9.313658327132336"><ele>88.0</ele><time>2026-03-29T13:13:50Z</time></trkpt><trkpt lat="45.34497838080714" lon="9.313842824710797"><ele>88.0</ele><time>2026-03-29T13:13:51Z</time></trkpt><trkpt lat="45.34483233818968" lon="9.314041658637251"><ele>88.33333333333333</ele><time>2026-03-29T13:13:52Z</time></trkpt><trkpt lat="45.34467784809409" lon="9.314255064035503"><ele>88.66666666666667</ele><time>2026-03-29T13:13:53Z</time></trkpt><trkpt lat="45.34451420255861" lon="9.31447129797533"><ele>89.0</ele><time>2026-03-29T13:13:54Z</time></trkpt><trkpt lat="45.34436335295739" lon="9.314687590828546"><ele>89.0</ele><time>2026-03-29T13:13:55Z</time></trkpt><trkpt lat="45.34420227557027" lon="9.314911921564416"><ele>89.0</ele><time>2026-03-29T13:13:56Z</time></trkpt><trkpt lat="45.34403622190357" lon="9.31513981553442"><ele>89.0</ele><time>2026-03-29T13:13:57Z</time></trkpt><trkpt lat="45.34387297451443" lon="9.315359790422763"><ele>89.0</ele><time>2026-03-29T13:13:58Z</time></trkpt><trkpt lat="45.34371196902583" lon="9.315588672630724"><ele>89.0</ele><time>2026-03-29T13:13:59Z</time></trkpt><trkpt lat="45.34355878958514" lon="9.315810060104784"><ele>89.0</ele><time>2026-03-29T13:14:00Z</time></trkpt><trkpt lat="45.34340187758293" lon="9.316024707045392"><ele>89.0</ele><time>2026-03-29T13:14:01Z</time></trkpt><trkpt lat="45.34324091211149" lon="9.316240853746205"><ele>89.0</ele><time>2026-03-29T13:14:01.999Z</time></trkpt><trkpt lat="45.343081609058686" lon="9.316459180761989"><ele>89.0</ele><time>2026-03-29T13:14:02.999Z</time></trkpt><trkpt lat="45.34296581277024" lon="9.316689844064989"><ele>89.0</ele><time>2026-03-29T13:14:03.999Z</time></trkpt><trkpt lat="45.342785272122164" lon="9.316917817719537"><ele>89.33333333333334</ele><time>2026-03-29T13:14:04.999Z</time></trkpt><trkpt lat="45.342637660291466" lon="9.317156429284655"><ele>89.66666666666667</ele><time>2026-03-29T13:14:05.999Z</time></trkpt><trkpt lat="45.34249672060765" lon="9.317397731567818"><ele>90.0</ele><time>2026-03-29T13:14:06.999Z</time></trkpt><trkpt lat="45.3423587921063" lon="9.317643221546959"><ele>90.0</ele><time>2026-03-29T13:14:07.999Z</time></trkpt><trkpt lat="45.34222310072783" lon="9.31789556503172"><ele>90.0</ele><time>2026-03-29T13:14:08.999Z</time></trkpt><trkpt lat="45.342085923430275" lon="9.318138745053803"><ele>90.0</ele><time>2026-03-29T13:14:09.999Z</time></trkpt><trkpt lat="45.34195650964857" lon="9.318390120841684"><ele>90.0</ele><time>2026-03-29T13:14:10.999Z</time></trkpt><trkpt lat="45.34183008580963" lon="9.318642811143995"><ele>90.0</ele><time>2026-03-29T13:14:11.999Z</time></trkpt><trkpt lat="45.34169339775925" lon="9.318914379578066"><ele>89.66666666666667</ele><time>2026-03-29T13:14:12.999Z</time></trkpt><trkpt lat="45.341575156035226" lon="9.319154038114183"><ele>89.33333333333334</ele><time>2026-03-29T13:14:13.999Z</time></trkpt><trkpt lat="45.341450744793114" lon="9.31940129781063"><ele>89.0</ele><time>2026-03-29T13:14:14.999Z</time></trkpt><trkpt lat="45.341322684399344" lon="9.319652273631041"><ele>89.0</ele><time>2026-03-29T13:14:15.999Z</time></trkpt><trkpt lat="45.34119884996315" lon="9.3199011008295"><ele>89.0</ele><time>2026-03-29T13:14:16.999Z</time></trkpt><trkpt lat="45.34105881523671" lon="9.320150813065764"><ele>89.0</ele><time>2026-03-29T13:14:17.999Z</time></trkpt><trkpt lat="45.34094564754882" lon="9.32039752571252"><ele>89.66666666666667</ele><time>2026-03-29T13:14:18.999Z</time></trkpt><trkpt lat="45.34082009119058" lon="9.320636155336722"><ele>90.33333333333333</ele><time>2026-03-29T13:14:19.999Z</time></trkpt><trkpt lat="45.34069501406435" lon="9.320881283310458"><ele>91.0</ele><time>2026-03-29T13:14:20.999Z</time></trkpt><trkpt lat="45.340566688858466" lon="9.321120343168396"><ele>90.0</ele><time>2026-03-29T13:14:21.999Z</time></trkpt><trkpt lat="45.34043582855948" lon="9.321348880662248"><ele>89.0</ele><time>2026-03-29T13:14:22.999Z</time></trkpt><trkpt lat="45.34031264382981" lon="9.321562399657749"><ele>88.0</ele><time>2026-03-29T13:14:23.999Z</time></trkpt><trkpt lat="45.34015597422244" lon="9.32176967201526"><ele>88.0</ele><time>2026-03-29T13:14:24.999Z</time></trkpt><trkpt lat="45.34000039905417" lon="9.321951049050185"><ele>88.0</ele><time>2026-03-29T13:14:25.999Z</time></trkpt><trkpt lat="45.33982545922345" lon="9.322130333968813"><ele>88.0</ele><time>2026-03-29T13:14:26.999Z</time></trkpt><trkpt lat="45.339658298169795" lon="9.322297071030576"><ele>87.33333333333333</ele><time>2026-03-29T13:14:27.999Z</time></trkpt><trkpt lat="45.33948022614513" lon="9.322455041134246"><ele>86.66666666666667</ele><time>2026-03-29T13:14:28.999Z</time></trkpt><trkpt lat="45.33929064031135" lon="9.322601957355499"><ele>86.0</ele><time>2026-03-29T13:14:29.999Z</time></trkpt><trkpt lat="45.339097083075465" lon="9.322725069500246"><ele>86.0</ele><time>2026-03-29T13:14:30.999Z</time></trkpt><trkpt lat="45.338886177353075" lon="9.322844758359821"><ele>86.0</ele><time>2026-03-29T13:14:31.999Z</time></trkpt><trkpt lat="45.33868507512389" lon="9.322959755217152"><ele>86.0</ele><time>2026-03-29T13:14:32.999Z</time></trkpt><trkpt lat="45.33848264652114" lon="9.323072788186735"><ele>86.33333333333334</ele><time>2026-03-29T13:14:33.999Z</time></trkpt><trkpt lat="45.33827613752671" lon="9.323189779092075"><ele>86.66666666666667</ele><time>2026-03-29T13:14:34.999Z</time></trkpt><trkpt lat="45.338080697419834" lon="9.323319320682376"><ele>87.0</ele><time>2026-03-29T13:14:35.999Z</time></trkpt><trkpt lat="45.337889948231876" lon="9.323458101066453"><ele>87.0</ele><time>2026-03-29T13:14:36.999Z</time></trkpt><trkpt lat="45.33770316166032" lon="9.323611061717612"><ele>87.0</ele><time>2026-03-29T13:14:37.999Z</time></trkpt><trkpt lat="45.33752179685148" lon="9.323770965735386"><ele>87.0</ele><time>2026-03-29T13:14:38.999Z</time></trkpt><trkpt lat="45.337341797063445" lon="9.323970806301292"><ele>86.66666666666667</ele><time>2026-03-29T13:14:39.999Z</time></trkpt><trkpt lat="45.3371643448115" lon="9.324166503929643"><ele>86.33333333333334</ele><time>2026-03-29T13:14:40.999Z</time></trkpt><trkpt lat="45.33699538436144" lon="9.324375771589363"><ele>86.0</ele><time>2026-03-29T13:14:41.999Z</time></trkpt><trkpt lat="45.33683054047629" lon="9.324585913771722"><ele>86.5</ele><time>2026-03-29T13:14:42.999Z</time></trkpt><trkpt lat="45.3366731072632" lon="9.32480916529962"><ele>87.0</ele><time>2026-03-29T13:14:43.999Z</time></trkpt><trkpt lat="45.336522455398715" lon="9.32505282935243"><ele>87.0</ele><time>2026-03-29T13:14:44.999Z</time></trkpt><trkpt lat="45.336361053857914" lon="9.325253863516172"><ele>87.0</ele><time>2026-03-29T13:14:45.999Z</time></trkpt><trkpt lat="45.33621204850704" lon="9.32547267106948"><ele>87.0</ele><time>2026-03-29T13:14:46.999Z</time></trkpt><trkpt lat="45.33613860839258" lon="9.325792937875995"><ele>86.66666666666667</ele><time>2026-03-29T13:14:47.999Z</time></trkpt><trkpt lat="45.33603149001733" lon="9.326055397857468"><ele>86.33333333333334</ele><time>2026-03-29T13:14:48.999Z</time></trkpt><trkpt lat="45.33593027667539" lon="9.326336636786513"><ele>86.0</ele><time>2026-03-29T13:14:49.999Z</time></trkpt><trkpt lat="45.33583367205931" lon="9.326589117069462"><ele>85.66666666666667</ele><time>2026-03-29T13:14:50.999Z</time></trkpt><trkpt lat="45.33574623106487" lon="9.326858673903878"><ele>85.33333333333333</ele><time>2026-03-29T13:14:51.999Z</time></trkpt><trkpt lat="45.33566889977548" lon="9.327130770584706"><ele>85.0</ele><time>2026-03-29T13:14:52.999Z</time></trkpt><trkpt lat="45.33560153401736" lon="9.327410426871406"><ele>85.0</ele><time>2026-03-29T13:14:53.999Z</time></trkpt><trkpt lat="45.33554114375024" lon="9.327703792376978"><ele>85.0</ele><time>2026-03-29T13:14:54.999Z</time></trkpt><trkpt lat="45.33548715827754" lon="9.328007605894447"><ele>85.0</ele><time>2026-03-29T13:14:55.999Z</time></trkpt><trkpt lat="45.33544566068124" lon="9.328311171117543"><ele>85.0</ele><time>2026-03-29T13:14:56.999Z</time></trkpt><trkpt lat="45.335410740903036" lon="9.328615278073666"><ele>85.0</ele><time>2026-03-29T13:14:57.999Z</time></trkpt><trkpt lat="45.33538967912294" lon="9.328919598338311"><ele>85.0</ele><time>2026-03-29T13:14:58.999Z</time></trkpt><trkpt lat="45.33537441613212" lon="9.329221649934194"><ele>85.0</ele><time>2026-03-29T13:14:59.999Z</time></trkpt><trkpt lat="45.335363475223986" lon="9.329505354423045"><ele>85.0</ele><time>2026-03-29T13:15:00.999Z</time></trkpt><trkpt lat="45.335353481087076" lon="9.329758431593685"><ele>85.0</ele><time>2026-03-29T13:15:01.999Z</time></trkpt><trkpt lat="45.3353367098987" lon="9.3299927927622"><ele>85.0</ele><time>2026-03-29T13:15:02.999Z</time></trkpt><trkpt lat="45.33532254440296" lon="9.330205899816194"><ele>85.0</ele><time>2026-03-29T13:15:03.999Z</time></trkpt><trkpt lat="45.33530916506365" lon="9.33041636331968"><ele>85.0</ele><time>2026-03-29T13:15:04.999Z</time></trkpt><trkpt lat="45.33529506108584" lon="9.330614090383156"><ele>85.0</ele><time>2026-03-29T13:15:05.999Z</time></trkpt><trkpt lat="45.33528097925891" lon="9.330794199571956"><ele>85.0</ele><time>2026-03-29T13:15:06.999Z</time></trkpt><trkpt lat="45.33526460382038" lon="9.330954820434952"><ele>85.0</ele><time>2026-03-29T13:15:08Z</time></trkpt><trkpt lat="45.335243271188965" lon="9.331100990768928"><ele>85.0</ele><time>2026-03-29T13:15:09Z</time></trkpt><trkpt lat="45.33521393532125" lon="9.331252965337255"><ele>85.0</ele><time>2026-03-29T13:15:10Z</time></trkpt><trkpt lat="45.33519553776653" lon="9.331365739795528"><ele>85.0</ele><time>2026-03-29T13:15:11Z</time></trkpt><trkpt lat="45.33517615510332" lon="9.331466966081928"><ele>85.0</ele><time>2026-03-29T13:15:12Z</time></trkpt><trkpt lat="45.335144894412274" lon="9.331577241335033"><ele>85.0</ele><time>2026-03-29T13:15:13Z</time></trkpt><trkpt lat="45.33509106152778" lon="9.331687762737094"><ele>85.0</ele><time>2026-03-29T13:15:14Z</time></trkpt><trkpt lat="45.33503695398529" lon="9.331779315673682"><ele>85.0</ele><time>2026-03-29T13:15:15Z</time></trkpt><trkpt lat="45.335010905139754" lon="9.331879593413426"><ele>85.0</ele><time>2026-03-29T13:15:16Z</time></trkpt><trkpt lat="45.33501329334672" lon="9.33199672226365"><ele>85.0</ele><time>2026-03-29T13:15:17Z</time></trkpt><trkpt lat="45.33506220943601" lon="9.332098594476367"><ele>85.0</ele><time>2026-03-29T13:15:18Z</time></trkpt><trkpt lat="45.33512230493617" lon="9.332165431487333"><ele>85.0</ele><time>2026-03-29T13:15:19Z</time></trkpt><trkpt lat="45.335215398875654" lon="9.332174327256768"><ele>85.0</ele><time>2026-03-29T13:15:20Z</time></trkpt><trkpt lat="45.33530041044767" lon="9.332142283280772"><ele>85.0</ele><time>2026-03-29T13:15:21Z</time></trkpt><trkpt lat="45.33538459674349" lon="9.332085851654544"><ele>85.0</ele><time>2026-03-29T13:15:22Z</time></trkpt><trkpt lat="45.33547532804891" lon="9.332008269500943"><ele>85.75</ele><time>2026-03-29T13:15:23Z</time></trkpt><trkpt lat="45.33557259243759" lon="9.331920472747033"><ele>86.5</ele><time>2026-03-29T13:15:24Z</time></trkpt><trkpt lat="45.33569830686686" lon="9.33185415126674"><ele>87.25</ele><time>2026-03-29T13:15:25Z</time></trkpt><trkpt lat="45.335844292245675" lon="9.331822024868144"><ele>88.0</ele><time>2026-03-29T13:15:26Z</time></trkpt><trkpt lat="45.33598400588455" lon="9.331798082597897"><ele>88.0</ele><time>2026-03-29T13:15:27Z</time></trkpt><trkpt lat="45.33613013931415" lon="9.331776174911456"><ele>88.0</ele><time>2026-03-29T13:15:28Z</time></trkpt><trkpt lat="45.336261486216735" lon="9.331756765653612"><ele>88.0</ele><time>2026-03-29T13:15:29Z</time></trkpt><trkpt lat="45.336413940927315" lon="9.33174012939789"><ele>88.0</ele><time>2026-03-29T13:15:30Z</time></trkpt><trkpt lat="45.33656816149162" lon="9.331729801750626"><ele>87.66666666666666</ele><time>2026-03-29T13:15:31Z</time></trkpt><trkpt lat="45.33672739126909" lon="9.331733735471198"><ele>87.33333333333333</ele><time>2026-03-29T13:15:32Z</time></trkpt><trkpt lat="45.33688577395626" lon="9.331736720820372"><ele>87.0</ele><time>2026-03-29T13:15:33Z</time></trkpt><trkpt lat="45.33704436504861" lon="9.331744058660943"><ele>87.0</ele><time>2026-03-29T13:15:34Z</time></trkpt><trkpt lat="45.337203091245996" lon="9.331759559617371"><ele>87.0</ele><time>2026-03-29T13:15:35Z</time></trkpt><trkpt lat="45.33735855044972" lon="9.331779939656451"><ele>87.0</ele><time>2026-03-29T13:15:36Z</time></trkpt><trkpt lat="45.33751723527046" lon="9.331805910195959"><ele>86.75</ele><time>2026-03-29T13:15:37Z</time></trkpt><trkpt lat="45.33766474594823" lon="9.33183178426099"><ele>86.5</ele><time>2026-03-29T13:15:38Z</time></trkpt><trkpt lat="45.33778865665648" lon="9.33185767975501"><ele>86.25</ele><time>2026-03-29T13:15:39Z</time></trkpt><trkpt lat="45.337920076859575" lon="9.331883335993863"><ele>86.0</ele><time>2026-03-29T13:15:40Z</time></trkpt><trkpt lat="45.33805733128965" lon="9.331909724189668"><ele>86.0</ele><time>2026-03-29T13:15:41Z</time></trkpt><trkpt lat="45.33819535162031" lon="9.33193714794532"><ele>86.0</ele><time>2026-03-29T13:15:42Z</time></trkpt><trkpt lat="45.33833331927876" lon="9.33196947252146"><ele>86.0</ele><time>2026-03-29T13:15:43Z</time></trkpt><trkpt lat="45.33847950841691" lon="9.332002947980495"><ele>86.0</ele><time>2026-03-29T13:15:44Z</time></trkpt><trkpt lat="45.338622670432585" lon="9.332029164115857"><ele>86.0</ele><time>2026-03-29T13:15:45Z</time></trkpt><trkpt lat="45.338779465979314" lon="9.332057925182417"><ele>86.0</ele><time>2026-03-29T13:15:46Z</time></trkpt><trkpt lat="45.338931855329456" lon="9.332084082054768"><ele>86.0</ele><time>2026-03-29T13:15:47Z</time></trkpt><trkpt lat="45.33908232741284" lon="9.332111672957396"><ele>86.0</ele><time>2026-03-29T13:15:48Z</time></trkpt><trkpt lat="45.339236111187844" lon="9.332112031159037"><ele>86.0</ele><time>2026-03-29T13:15:49Z</time></trkpt><trkpt lat="45.33938383083785" lon="9.332130004331272"><ele>86.0</ele><time>2026-03-29T13:15:50Z</time></trkpt><trkpt lat="45.33955232297522" lon="9.332119019078503"><ele>86.0</ele><time>2026-03-29T13:15:51Z</time></trkpt><trkpt lat="45.339686171185804" lon="9.332107725805047"><ele>86.0</ele><time>2026-03-29T13:15:52Z</time></trkpt><trkpt lat="45.339822511475" lon="9.332097310733124"><ele>86.0</ele><time>2026-03-29T13:15:53Z</time></trkpt><trkpt lat="45.33996599652892" lon="9.33206940767681"><ele>86.0</ele><time>2026-03-29T13:15:54Z</time></trkpt><trkpt lat="45.34011695471515" lon="9.33204195765423"><ele>85.66666666666667</ele><time>2026-03-29T13:15:55Z</time></trkpt><trkpt lat="45.34025790811961" lon="9.332020181650025"><ele>85.33333333333333</ele><time>2026-03-29T13:15:56Z</time></trkpt><trkpt lat="45.340412875224" lon="9.331969735347805"><ele>85.0</ele><time>2026-03-29T13:15:57Z</time></trkpt><trkpt lat="45.34056804793725" lon="9.331924387718269"><ele>85.0</ele><time>2026-03-29T13:15:58Z</time></trkpt><trkpt lat="45.340710626970555" lon="9.331877342547038"><ele>85.0</ele><time>2026-03-29T13:15:59Z</time></trkpt><trkpt lat="45.34084234825249" lon="9.331823884515597"><ele>85.0</ele><time>2026-03-29T13:16:00Z</time></trkpt><trkpt lat="45.34096541881804" lon="9.331771827457668"><ele>85.0</ele><time>2026-03-29T13:16:01Z</time></trkpt><trkpt lat="45.341081706227804" lon="9.331721553901767"><ele>85.0</ele><time>2026-03-29T13:16:02Z</time></trkpt><trkpt lat="45.341188803402765" lon="9.331673753351247"><ele>85.0</ele><time>2026-03-29T13:16:03Z</time></trkpt><trkpt lat="45.341292843061424" lon="9.331632493925108"><ele>85.0</ele><time>2026-03-29T13:16:04Z</time></trkpt><trkpt lat="45.34138995930924" lon="9.331588942467564"><ele>85.0</ele><time>2026-03-29T13:16:05Z</time></trkpt><trkpt lat="45.34147755681493" lon="9.331586178636076"><ele>85.0</ele><time>2026-03-29T13:16:06Z</time></trkpt><trkpt lat="45.34156226240173" lon="9.331561472825442"><ele>85.0</ele><time>2026-03-29T13:16:07Z</time></trkpt><trkpt lat="45.34164101013342" lon="9.33153902773206"><ele>85.0</ele><time>2026-03-29T13:16:08Z</time></trkpt><trkpt lat="45.34171239989883" lon="9.331515312026971"><ele>85.0</ele><time>2026-03-29T13:16:09Z</time></trkpt><trkpt lat="45.34179069656134" lon="9.33149735382804"><ele>85.0</ele><time>2026-03-29T13:16:10Z</time></trkpt><trkpt lat="45.34193061277172" lon="9.3314815013818"><ele>85.0</ele><time>2026-03-29T13:16:12Z</time></trkpt><trkpt lat="45.34201086522664" lon="9.331538040257165"><ele>85.0</ele><time>2026-03-29T13:16:13Z</time></trkpt><trkpt lat="45.34210184870845" lon="9.331570335665237"><ele>85.0</ele><time>2026-03-29T13:16:14Z</time></trkpt><trkpt lat="45.342201272121756" lon="9.331605105381417"><ele>85.0</ele><time>2026-03-29T13:16:15Z</time></trkpt><trkpt lat="45.3422988037665" lon="9.331689278423847"><ele>85.0</ele><time>2026-03-29T13:16:15.999Z</time></trkpt><trkpt lat="45.3424071020283" lon="9.331759554466919"><ele>85.0</ele><time>2026-03-29T13:16:16.999Z</time></trkpt><trkpt lat="45.34251673608341" lon="9.331901497454437"><ele>85.33333333333333</ele><time>2026-03-29T13:16:17.999Z</time></trkpt><trkpt lat="45.34263624025903" lon="9.332032079868481"><ele>85.66666666666667</ele><time>2026-03-29T13:16:18.999Z</time></trkpt><trkpt lat="45.342754839493224" lon="9.33219127075338"><ele>86.0</ele><time>2026-03-29T13:16:19.999Z</time></trkpt><trkpt lat="45.34288844834512" lon="9.332325071609489"><ele>85.33333333333334</ele><time>2026-03-29T13:16:20.999Z</time></trkpt><trkpt lat="45.34302177919037" lon="9.332497483038521"><ele>84.66666666666667</ele><time>2026-03-29T13:16:21.999Z</time></trkpt><trkpt lat="45.34316566876079" lon="9.332663620334136"><ele>84.0</ele><time>2026-03-29T13:16:22.999Z</time></trkpt><trkpt lat="45.34329013730268" lon="9.332847776496077"><ele>83.66666666666667</ele><time>2026-03-29T13:16:23.999Z</time></trkpt><trkpt lat="45.34343378124701" lon="9.33303475561936"><ele>83.33333333333334</ele><time>2026-03-29T13:16:24.999Z</time></trkpt><trkpt lat="45.343578345619896" lon="9.333215851069443"><ele>83.0</ele><time>2026-03-29T13:16:25.999Z</time></trkpt><trkpt lat="45.343704877926186" lon="9.33339488904202"><ele>82.66666666666667</ele><time>2026-03-29T13:16:26.999Z</time></trkpt><trkpt lat="45.343850127188006" lon="9.333584140369911"><ele>82.33333333333333</ele><time>2026-03-29T13:16:27.999Z</time></trkpt><trkpt lat="45.343979051166954" lon="9.333782031034882"><ele>82.0</ele><time>2026-03-29T13:16:28.999Z</time></trkpt><trkpt lat="45.34410680221443" lon="9.333978259801052"><ele>80.33333333333333</ele><time>2026-03-29T13:16:29.999Z</time></trkpt><trkpt lat="45.34422465923571" lon="9.334173229722303"><ele>78.66666666666667</ele><time>2026-03-29T13:16:30.999Z</time></trkpt><trkpt lat="45.34434153475092" lon="9.334373088107094"><ele>77.0</ele><time>2026-03-29T13:16:31.999Z</time></trkpt><trkpt lat="45.34444482397784" lon="9.334544194083383"><ele>77.0</ele><time>2026-03-29T13:16:32.999Z</time></trkpt><trkpt lat="45.344538193390754" lon="9.33471828599901"><ele>77.0</ele><time>2026-03-29T13:16:33.999Z</time></trkpt><trkpt lat="45.34463458108009" lon="9.334906756235315"><ele>77.0</ele><time>2026-03-29T13:16:34.999Z</time></trkpt><trkpt lat="45.34471187227495" lon="9.335064893251197"><ele>76.66666666666667</ele><time>2026-03-29T13:16:35.999Z</time></trkpt><trkpt lat="45.34481657728877" lon="9.33524911494054"><ele>76.33333333333333</ele><time>2026-03-29T13:16:36.999Z</time></trkpt><trkpt lat="45.34490379274238" lon="9.33541796801424"><ele>76.0</ele><time>2026-03-29T13:16:37.999Z</time></trkpt><trkpt lat="45.34499214159803" lon="9.335595779183253"><ele>76.66666666666666</ele><time>2026-03-29T13:16:38.999Z</time></trkpt><trkpt lat="45.34507863279228" lon="9.335777434307998"><ele>77.33333333333333</ele><time>2026-03-29T13:16:39.999Z</time></trkpt><trkpt lat="45.3451632504671" lon="9.335962681274337"><ele>78.0</ele><time>2026-03-29T13:16:40.999Z</time></trkpt><trkpt lat="45.34524901805774" lon="9.336138621202855"><ele>78.0</ele><time>2026-03-29T13:16:41.999Z</time></trkpt><trkpt lat="45.3453271499969" lon="9.336329798266753"><ele>78.0</ele><time>2026-03-29T13:16:42.999Z</time></trkpt><trkpt lat="45.345408107287184" lon="9.336519277300916"><ele>78.0</ele><time>2026-03-29T13:16:43.999Z</time></trkpt><trkpt lat="45.34548125514388" lon="9.336693081622355"><ele>78.75</ele><time>2026-03-29T13:16:44.999Z</time></trkpt><trkpt lat="45.34553780935866" lon="9.336877863078882"><ele>79.5</ele><time>2026-03-29T13:16:45.999Z</time></trkpt><trkpt lat="45.345600276106715" lon="9.337038465823571"><ele>80.25</ele><time>2026-03-29T13:16:46.999Z</time></trkpt><trkpt lat="45.345688548928344" lon="9.337241051459232"><ele>81.0</ele><time>2026-03-29T13:16:47.999Z</time></trkpt><trkpt lat="45.34574691528632" lon="9.337447830359855"><ele>81.0</ele><time>2026-03-29T13:16:48.999Z</time></trkpt><trkpt lat="45.345813740355226" lon="9.337642555566998"><ele>81.0</ele><time>2026-03-29T13:16:49.999Z</time></trkpt><trkpt lat="45.345882859151686" lon="9.337851345667842"><ele>81.0</ele><time>2026-03-29T13:16:50.999Z</time></trkpt><trkpt lat="45.345948422118404" lon="9.338062253569069"><ele>81.0</ele><time>2026-03-29T13:16:51.999Z</time></trkpt><trkpt lat="45.34601565914188" lon="9.33828211728131"><ele>81.0</ele><time>2026-03-29T13:16:52.999Z</time></trkpt><trkpt lat="45.34607873908611" lon="9.338498157847917"><ele>81.0</ele><time>2026-03-29T13:16:53.999Z</time></trkpt><trkpt lat="45.34614046427456" lon="9.338719958844674"><ele>81.0</ele><time>2026-03-29T13:16:54.999Z</time></trkpt><trkpt lat="45.346215872463226" lon="9.338935306402616"><ele>81.0</ele><time>2026-03-29T13:16:55.999Z</time></trkpt><trkpt lat="45.346271115714394" lon="9.339153334577484"><ele>81.0</ele><time>2026-03-29T13:16:56.999Z</time></trkpt><trkpt lat="45.34631118229757" lon="9.339387852502208"><ele>81.0</ele><time>2026-03-29T13:16:57.999Z</time></trkpt><trkpt lat="45.34636361357504" lon="9.339614195562854"><ele>81.0</ele><time>2026-03-29T13:16:58.999Z</time></trkpt><trkpt lat="45.346435679540306" lon="9.339864088194906"><ele>81.0</ele><time>2026-03-29T13:16:59.999Z</time></trkpt><trkpt lat="45.34647597844845" lon="9.34007275544863"><ele>81.25</ele><time>2026-03-29T13:17:00.999Z</time></trkpt><trkpt lat="45.34651355041068" lon="9.340277611506886"><ele>81.5</ele><time>2026-03-29T13:17:01.999Z</time></trkpt><trkpt lat="45.34655474903378" lon="9.340463607543054"><ele>81.75</ele><time>2026-03-29T13:17:02.999Z</time></trkpt><trkpt lat="45.34659530381839" lon="9.340646696892849"><ele>82.0</ele><time>2026-03-29T13:17:03.999Z</time></trkpt><trkpt lat="45.346641047914915" lon="9.340853213997459"><ele>82.33333333333333</ele><time>2026-03-29T13:17:04.999Z</time></trkpt><trkpt lat="45.346682360242276" lon="9.341039723368294"><ele>82.66666666666667</ele><time>2026-03-29T13:17:05.999Z</time></trkpt><trkpt lat="45.34672866463001" lon="9.341250252708281"><ele>83.0</ele><time>2026-03-29T13:17:06.999Z</time></trkpt><trkpt lat="45.34677741690542" lon="9.341472934324678"><ele>83.33333333333334</ele><time>2026-03-29T13:17:07.999Z</time></trkpt><trkpt lat="45.34682873410279" lon="9.341706061928505"><ele>83.66666666666667</ele><time>2026-03-29T13:17:08.999Z</time></trkpt><trkpt lat="45.346880545800005" lon="9.34194143599553"><ele>84.0</ele><time>2026-03-29T13:17:09.999Z</time></trkpt><trkpt lat="45.3469417241547" lon="9.342167970024677"><ele>83.66666666666667</ele><time>2026-03-29T13:17:10.999Z</time></trkpt><trkpt lat="45.34699234776315" lon="9.342403557574176"><ele>83.33333333333334</ele><time>2026-03-29T13:17:11.999Z</time></trkpt><trkpt lat="45.34704531278043" lon="9.342639700257473"><ele>83.0</ele><time>2026-03-29T13:17:12.999Z</time></trkpt><trkpt lat="45.34709929097913" lon="9.34288116010343"><ele>83.0</ele><time>2026-03-29T13:17:14Z</time></trkpt><trkpt lat="45.3471522790509" lon="9.343113388731561"><ele>83.0</ele><time>2026-03-29T13:17:15Z</time></trkpt><trkpt lat="45.347185282294895" lon="9.343317511412288"><ele>83.0</ele><time>2026-03-29T13:17:16Z</time></trkpt><trkpt lat="45.34725013685528" lon="9.34356525523754"><ele>83.33333333333334</ele><time>2026-03-29T13:17:17Z</time></trkpt><trkpt lat="45.347302118665546" lon="9.34380608112135"><ele>83.66666666666667</ele><time>2026-03-29T13:17:18Z</time></trkpt><trkpt lat="45.34734373000197" lon="9.34403525997123"><ele>84.0</ele><time>2026-03-29T13:17:19Z</time></trkpt><trkpt lat="45.34738601699659" lon="9.344266403814773"><ele>84.0</ele><time>2026-03-29T13:17:20Z</time></trkpt><trkpt lat="45.34742224149558" lon="9.344503345905462"><ele>84.0</ele><time>2026-03-29T13:17:21Z</time></trkpt><trkpt lat="45.34743178316994" lon="9.344750215930926"><ele>84.0</ele><time>2026-03-29T13:17:22Z</time></trkpt><trkpt lat="45.34744667759911" lon="9.344992657129403"><ele>84.0</ele><time>2026-03-29T13:17:23Z</time></trkpt><trkpt lat="45.34745122180314" lon="9.345239757047214"><ele>84.0</ele><time>2026-03-29T13:17:24Z</time></trkpt><trkpt lat="45.34744536705202" lon="9.345499985459828"><ele>84.0</ele><time>2026-03-29T13:17:25Z</time></trkpt><trkpt lat="45.347435496562134" lon="9.345718047778766"><ele>84.25</ele><time>2026-03-29T13:17:26Z</time></trkpt><trkpt lat="45.34742451950099" lon="9.34591313005607"><ele>84.5</ele><time>2026-03-29T13:17:27Z</time></trkpt><trkpt lat="45.34739386160819" lon="9.346129299358147"><ele>84.75</ele><time>2026-03-29T13:17:28Z</time></trkpt><trkpt lat="45.34736863337897" lon="9.346337344012209"><ele>85.0</ele><time>2026-03-29T13:17:29Z</time></trkpt><trkpt lat="45.34730183651639" lon="9.34653811531228"><ele>85.0</ele><time>2026-03-29T13:17:30Z</time></trkpt><trkpt lat="45.34724334649527" lon="9.346734952336107"><ele>85.0</ele><time>2026-03-29T13:17:31Z</time></trkpt><trkpt lat="45.34717580145189" lon="9.346915510321184"><ele>85.0</ele><time>2026-03-29T13:17:32Z</time></trkpt><trkpt lat="45.3471057764402" lon="9.347069761851245"><ele>85.0</ele><time>2026-03-29T13:17:33Z</time></trkpt><trkpt lat="45.347029439710525" lon="9.347212903395151"><ele>85.25</ele><time>2026-03-29T13:17:34Z</time></trkpt><trkpt lat="45.346940300904556" lon="9.347356089132765"><ele>85.5</ele><time>2026-03-29T13:17:35Z</time></trkpt><trkpt lat="45.34685550429968" lon="9.347493656149757"><ele>85.75</ele><time>2026-03-29T13:17:36Z</time></trkpt><trkpt lat="45.34676612325521" lon="9.347603382503957"><ele>86.0</ele><time>2026-03-29T13:17:37Z</time></trkpt><trkpt lat="45.34668302558159" lon="9.347717322576298"><ele>86.0</ele><time>2026-03-29T13:17:38Z</time></trkpt><trkpt lat="45.346600868314965" lon="9.347812950556884"><ele>86.0</ele><time>2026-03-29T13:17:39Z</time></trkpt><trkpt lat="45.346530852706344" lon="9.34789710551349"><ele>86.0</ele><time>2026-03-29T13:17:40Z</time></trkpt><trkpt lat="45.34643815531412" lon="9.34799577727957"><ele>86.0</ele><time>2026-03-29T13:17:41Z</time></trkpt><trkpt lat="45.34634545020136" lon="9.34809527550813"><ele>86.0</ele><time>2026-03-29T13:17:42Z</time></trkpt><trkpt lat="45.34626784008203" lon="9.348207203601087"><ele>86.0</ele><time>2026-03-29T13:17:43Z</time></trkpt><trkpt lat="45.34619420991722" lon="9.34833178170893"><ele>86.0</ele><time>2026-03-29T13:17:44Z</time></trkpt><trkpt lat="45.34612749600424" lon="9.34846449408102"><ele>86.0</ele><time>2026-03-29T13:17:45Z</time></trkpt><trkpt lat="45.34607359184262" lon="9.348601538928998"><ele>86.0</ele><time>2026-03-29T13:17:46Z</time></trkpt><trkpt lat="45.34602696094694" lon="9.348749317706556"><ele>86.0</ele><time>2026-03-29T13:17:47Z</time></trkpt><trkpt lat="45.345998325467086" lon="9.348898620034195"><ele>86.0</ele><time>2026-03-29T13:17:48Z</time></trkpt><trkpt lat="45.34598536898293" lon="9.34904743795741"><ele>86.0</ele><time>2026-03-29T13:17:49Z</time></trkpt><trkpt lat="45.34598477826669" lon="9.349199999237191"><ele>86.0</ele><time>2026-03-29T13:17:50Z</time></trkpt><trkpt lat="45.34599281729539" lon="9.349340849384769"><ele>86.0</ele><time>2026-03-29T13:17:51Z</time></trkpt><trkpt lat="45.3460191463989" lon="9.349472690165507"><ele>86.0</ele><time>2026-03-29T13:17:52Z</time></trkpt><trkpt lat="45.34604858828458" lon="9.349589770873012"><ele>86.0</ele><time>2026-03-29T13:17:53Z</time></trkpt><trkpt lat="45.34608847406358" lon="9.349704876338821"><ele>86.0</ele><time>2026-03-29T13:17:54Z</time></trkpt><trkpt lat="45.346150500760075" lon="9.349803696596114"><ele>86.0</ele><time>2026-03-29T13:17:55Z</time></trkpt><trkpt lat="45.346179026392335" lon="9.349902269256882"><ele>86.0</ele><time>2026-03-29T13:17:56Z</time></trkpt><trkpt lat="45.34625503072884" lon="9.350033605976796"><ele>86.0</ele><time>2026-03-29T13:17:58Z</time></trkpt><trkpt lat="45.34629530158026" lon="9.350189688003727"><ele>86.0</ele><time>2026-03-29T13:18:00Z</time></trkpt><trkpt lat="45.346298790368955" lon="9.350314682845536"><ele>86.0</ele><time>2026-03-29T13:18:01Z</time></trkpt><trkpt lat="45.346285700874226" lon="9.35043743530268"><ele>86.0</ele><time>2026-03-29T13:18:02Z</time></trkpt><trkpt lat="45.34623953358334" lon="9.35057072374629"><ele>86.0</ele><time>2026-03-29T13:18:03Z</time></trkpt><trkpt lat="45.3461617943216" lon="9.350713801799825"><ele>86.0</ele><time>2026-03-29T13:18:04Z</time></trkpt><trkpt lat="45.3460857041611" lon="9.350844921806745"><ele>86.0</ele><time>2026-03-29T13:18:05Z</time></trkpt><trkpt lat="45.346008686765835" lon="9.350996786585979"><ele>86.0</ele><time>2026-03-29T13:18:06Z</time></trkpt><trkpt lat="45.345921361477366" lon="9.351154585687873"><ele>86.0</ele><time>2026-03-29T13:18:07Z</time></trkpt><trkpt lat="45.345838207713285" lon="9.351288504417694"><ele>86.25</ele><time>2026-03-29T13:18:08Z</time></trkpt><trkpt lat="45.34575326996458" lon="9.351457380656818"><ele>86.5</ele><time>2026-03-29T13:18:09Z</time></trkpt><trkpt lat="45.34566581158785" lon="9.351619513100045"><ele>86.75</ele><time>2026-03-29T13:18:10Z</time></trkpt><trkpt lat="45.345576293386436" lon="9.351786490948264"><ele>87.0</ele><time>2026-03-29T13:18:11Z</time></trkpt><trkpt lat="45.34548542967159" lon="9.351951016042573"><ele>87.0</ele><time>2026-03-29T13:18:12Z</time></trkpt><trkpt lat="45.34539037627314" lon="9.3521184790799"><ele>87.0</ele><time>2026-03-29T13:18:13Z</time></trkpt><trkpt lat="45.34529284909892" lon="9.352282221034857"><ele>87.0</ele><time>2026-03-29T13:18:14Z</time></trkpt><trkpt lat="45.345203937499484" lon="9.35245877330901"><ele>87.0</ele><time>2026-03-29T13:18:15Z</time></trkpt><trkpt lat="45.34511562612899" lon="9.35263825613829"><ele>87.0</ele><time>2026-03-29T13:18:16Z</time></trkpt><trkpt lat="45.34503234699026" lon="9.35282903711896"><ele>87.0</ele><time>2026-03-29T13:18:17Z</time></trkpt><trkpt lat="45.34495166888508" lon="9.353025041960281"><ele>86.66666666666667</ele><time>2026-03-29T13:18:18Z</time></trkpt><trkpt lat="45.34487344815119" lon="9.353223767828819"><ele>86.33333333333334</ele><time>2026-03-29T13:18:19Z</time></trkpt><trkpt lat="45.34480056714825" lon="9.353427145166515"><ele>86.0</ele><time>2026-03-29T13:18:20Z</time></trkpt><trkpt lat="45.34473157274562" lon="9.353627797826098"><ele>85.75</ele><time>2026-03-29T13:18:21Z</time></trkpt><trkpt lat="45.34466960115518" lon="9.353804978370512"><ele>85.5</ele><time>2026-03-29T13:18:22Z</time></trkpt><trkpt lat="45.34460778151998" lon="9.353975128108198"><ele>85.25</ele><time>2026-03-29T13:18:23Z</time></trkpt><trkpt lat="45.344547006887495" lon="9.354144770916765"><ele>85.0</ele><time>2026-03-29T13:18:24Z</time></trkpt><trkpt lat="45.344486457240706" lon="9.354283740821044"><ele>85.0</ele><time>2026-03-29T13:18:24.999Z</time></trkpt><trkpt lat="45.34444566100629" lon="9.354371329729995"><ele>85.0</ele><time>2026-03-29T13:18:25.999Z</time></trkpt><trkpt lat="45.34439870255446" lon="9.354473241088408"><ele>85.0</ele><time>2026-03-29T13:18:26.999Z</time></trkpt><trkpt lat="45.344332085736234" lon="9.354601942930923"><ele>85.0</ele><time>2026-03-29T13:18:28.999Z</time></trkpt><trkpt lat="45.34423508153296" lon="9.354709275957232"><ele>85.0</ele><time>2026-03-29T13:18:30.999Z</time></trkpt><trkpt lat="45.344165637175834" lon="9.354731577526254"><ele>85.0</ele><time>2026-03-29T13:18:31.999Z</time></trkpt><trkpt lat="45.34409002407756" lon="9.354772432744207"><ele>85.0</ele><time>2026-03-29T13:18:32.999Z</time></trkpt><trkpt lat="45.344026344039776" lon="9.354849673497382"><ele>85.0</ele><time>2026-03-29T13:18:33.999Z</time></trkpt><trkpt lat="45.34397688439724" lon="9.354957744120027"><ele>85.0</ele><time>2026-03-29T13:18:34.999Z</time></trkpt><trkpt lat="45.34395832336911" lon="9.355081167502751"><ele>85.0</ele><time>2026-03-29T13:18:35.999Z</time></trkpt><trkpt lat="45.343960441055394" lon="9.355209806925574"><ele>85.0</ele><time>2026-03-29T13:18:36.999Z</time></trkpt><trkpt lat="45.34398482401973" lon="9.35533992480251"><ele>85.0</ele><time>2026-03-29T13:18:37.999Z</time></trkpt><trkpt lat="45.34401433114296" lon="9.355474029353145"><ele>85.0</ele><time>2026-03-29T13:18:38.999Z</time></trkpt><trkpt lat="45.34402651392155" lon="9.35561452054831"><ele>85.0</ele><time>2026-03-29T13:18:39.999Z</time></trkpt><trkpt lat="45.34400599185272" lon="9.355774221797752"><ele>85.0</ele><time>2026-03-29T13:18:40.999Z</time></trkpt><trkpt lat="45.34394946082029" lon="9.355942062209065"><ele>85.0</ele><time>2026-03-29T13:18:41.999Z</time></trkpt><trkpt lat="45.34387947897088" lon="9.3561546168682"><ele>85.33333333333333</ele><time>2026-03-29T13:18:42.999Z</time></trkpt><trkpt lat="45.34382146843466" lon="9.356375482204724"><ele>85.66666666666667</ele><time>2026-03-29T13:18:43.999Z</time></trkpt><trkpt lat="45.34373413256344" lon="9.356616194810055"><ele>86.0</ele><time>2026-03-29T13:18:44.999Z</time></trkpt><trkpt lat="45.34364106247167" lon="9.356870718814168"><ele>86.0</ele><time>2026-03-29T13:18:45.999Z</time></trkpt><trkpt lat="45.34356292692912" lon="9.35715454654945"><ele>86.0</ele><time>2026-03-29T13:18:46.999Z</time></trkpt><trkpt lat="45.343470667684606" lon="9.357423545365888"><ele>86.0</ele><time>2026-03-29T13:18:47.999Z</time></trkpt><trkpt lat="45.343381525704984" lon="9.35769395768126"><ele>86.33333333333334</ele><time>2026-03-29T13:18:48.999Z</time></trkpt><trkpt lat="45.34329275142794" lon="9.35796327951175"><ele>86.66666666666667</ele><time>2026-03-29T13:18:49.999Z</time></trkpt><trkpt lat="45.34320699806411" lon="9.358227186827367"><ele>87.0</ele><time>2026-03-29T13:18:50.999Z</time></trkpt><trkpt lat="45.34312231791505" lon="9.358483884791527"><ele>87.0</ele><time>2026-03-29T13:18:51.999Z</time></trkpt><trkpt lat="45.34303464881068" lon="9.358740016079873"><ele>87.0</ele><time>2026-03-29T13:18:52.999Z</time></trkpt><trkpt lat="45.34294564290858" lon="9.35899581323258"><ele>87.0</ele><time>2026-03-29T13:18:53.999Z</time></trkpt><trkpt lat="45.34286288632637" lon="9.359250941165831"><ele>87.0</ele><time>2026-03-29T13:18:54.999Z</time></trkpt><trkpt lat="45.34278058234098" lon="9.359497754805252"><ele>87.0</ele><time>2026-03-29T13:18:55.999Z</time></trkpt><trkpt lat="45.342684138928604" lon="9.359747883674535"><ele>87.0</ele><time>2026-03-29T13:18:56.999Z</time></trkpt><trkpt lat="45.34259399521849" lon="9.360005633758393"><ele>88.0</ele><time>2026-03-29T13:18:57.999Z</time></trkpt><trkpt lat="45.34247593337452" lon="9.360220720868538"><ele>89.0</ele><time>2026-03-29T13:18:58.999Z</time></trkpt><trkpt lat="45.34235218637747" lon="9.360443461812567"><ele>90.0</ele><time>2026-03-29T13:18:59.999Z</time></trkpt><trkpt lat="45.342230852515726" lon="9.360659632666254"><ele>89.0</ele><time>2026-03-29T13:19:00.999Z</time></trkpt><trkpt lat="45.34208753989943" lon="9.360809850852041"><ele>88.0</ele><time>2026-03-29T13:19:01.999Z</time></trkpt><trkpt lat="45.341945417652276" lon="9.360969021865829"><ele>87.0</ele><time>2026-03-29T13:19:02.999Z</time></trkpt><trkpt lat="45.34179319641102" lon="9.361142284201533"><ele>87.0</ele><time>2026-03-29T13:19:03.999Z</time></trkpt><trkpt lat="45.341642020719824" lon="9.36128399733952"><ele>87.0</ele><time>2026-03-29T13:19:04.999Z</time></trkpt><trkpt lat="45.341516178022836" lon="9.361438640689716"><ele>87.0</ele><time>2026-03-29T13:19:05.999Z</time></trkpt><trkpt lat="45.34138899630776" lon="9.361583722584557"><ele>87.0</ele><time>2026-03-29T13:19:06.999Z</time></trkpt><trkpt lat="45.34126262536395" lon="9.361734807393232"><ele>87.0</ele><time>2026-03-29T13:19:07.999Z</time></trkpt><trkpt lat="45.34112628974989" lon="9.361862109295078"><ele>87.0</ele><time>2026-03-29T13:19:08.999Z</time></trkpt><trkpt lat="45.341007972048764" lon="9.361994330545127"><ele>87.0</ele><time>2026-03-29T13:19:09.999Z</time></trkpt><trkpt lat="45.34090317357685" lon="9.362103789591943"><ele>87.0</ele><time>2026-03-29T13:19:10.999Z</time></trkpt><trkpt lat="45.34080664587307" lon="9.362195795114793"><ele>87.0</ele><time>2026-03-29T13:19:11.999Z</time></trkpt><trkpt lat="45.34071434331397" lon="9.362278273321007"><ele>87.0</ele><time>2026-03-29T13:19:12.999Z</time></trkpt><trkpt lat="45.34062294923081" lon="9.362351393694114"><ele>87.19999999999999</ele><time>2026-03-29T13:19:13.999Z</time></trkpt><trkpt lat="45.34053568365961" lon="9.362415315642542"><ele>87.4</ele><time>2026-03-29T13:19:14.999Z</time></trkpt><trkpt lat="45.34045231873883" lon="9.36246585552734"><ele>87.6</ele><time>2026-03-29T13:19:15.999Z</time></trkpt><trkpt lat="45.3403622309669" lon="9.362499059049718"><ele>87.80000000000001</ele><time>2026-03-29T13:19:16.999Z</time></trkpt><trkpt lat="45.34026416309498" lon="9.362512802474992"><ele>88.0</ele><time>2026-03-29T13:19:17.999Z</time></trkpt><trkpt lat="45.34017830267997" lon="9.362561678626898"><ele>88.0</ele><time>2026-03-29T13:19:18.999Z</time></trkpt><trkpt lat="45.34012185388879" lon="9.362646577186114"><ele>88.0</ele><time>2026-03-29T13:19:20Z</time></trkpt><trkpt lat="45.34006689423726" lon="9.362794302222515"><ele>88.0</ele><time>2026-03-29T13:19:21Z</time></trkpt><trkpt lat="45.34002529484843" lon="9.362968212697105"><ele>88.0</ele><time>2026-03-29T13:19:22Z</time></trkpt><trkpt lat="45.33994758963511" lon="9.363110920674801"><ele>88.0</ele><time>2026-03-29T13:19:23Z</time></trkpt><trkpt lat="45.33983476544633" lon="9.363246537004684"><ele>88.0</ele><time>2026-03-29T13:19:24Z</time></trkpt><trkpt lat="45.33970995377013" lon="9.363381662891678"><ele>88.0</ele><time>2026-03-29T13:19:25Z</time></trkpt><trkpt lat="45.33958506238786" lon="9.363514159631965"><ele>88.0</ele><time>2026-03-29T13:19:26Z</time></trkpt><trkpt lat="45.33944368647042" lon="9.363638889451604"><ele>88.0</ele><time>2026-03-29T13:19:27Z</time></trkpt><trkpt lat="45.33930295905872" lon="9.363792121450789"><ele>88.0</ele><time>2026-03-29T13:19:28Z</time></trkpt><trkpt lat="45.33916428360733" lon="9.36395078119727"><ele>88.0</ele><time>2026-03-29T13:19:29Z</time></trkpt><trkpt lat="45.33901130955962" lon="9.364109129216901"><ele>88.0</ele><time>2026-03-29T13:19:30Z</time></trkpt><trkpt lat="45.338870977121736" lon="9.364273007948984"><ele>88.0</ele><time>2026-03-29T13:19:31Z</time></trkpt><trkpt lat="45.33874605390239" lon="9.36443915473542"><ele>87.66666666666666</ele><time>2026-03-29T13:19:32Z</time></trkpt><trkpt lat="45.338616936426476" lon="9.364626638024982"><ele>87.33333333333333</ele><time>2026-03-29T13:19:33Z</time></trkpt><trkpt lat="45.33849970697141" lon="9.364837764691325"><ele>87.0</ele><time>2026-03-29T13:19:34Z</time></trkpt><trkpt lat="45.338383381680046" lon="9.36507009367528"><ele>87.0</ele><time>2026-03-29T13:19:35Z</time></trkpt><trkpt lat="45.338277854835844" lon="9.365319814780902"><ele>87.0</ele><time>2026-03-29T13:19:36Z</time></trkpt><trkpt lat="45.338174783296644" lon="9.365569887437397"><ele>87.0</ele><time>2026-03-29T13:19:37Z</time></trkpt><trkpt lat="45.33806858130741" lon="9.365824757309296"><ele>86.66666666666667</ele><time>2026-03-29T13:19:38Z</time></trkpt><trkpt lat="45.33796355893444" lon="9.366070679276467"><ele>86.33333333333334</ele><time>2026-03-29T13:19:39Z</time></trkpt><trkpt lat="45.337865585370075" lon="9.36631368360662"><ele>86.0</ele><time>2026-03-29T13:19:40Z</time></trkpt><trkpt lat="45.3377633088179" lon="9.366562133943034"><ele>86.0</ele><time>2026-03-29T13:19:41Z</time></trkpt><trkpt lat="45.33766031201631" lon="9.36679414319763"><ele>86.0</ele><time>2026-03-29T13:19:42Z</time></trkpt><trkpt lat="45.33756333473187" lon="9.367023284723327"><ele>86.0</ele><time>2026-03-29T13:19:43Z</time></trkpt><trkpt lat="45.33746997698342" lon="9.367225922933802"><ele>85.66666666666667</ele><time>2026-03-29T13:19:44Z</time></trkpt><trkpt lat="45.33739978058657" lon="9.367459131008909"><ele>85.33333333333333</ele><time>2026-03-29T13:19:45Z</time></trkpt><trkpt lat="45.33732949703908" lon="9.367657744218027"><ele>85.0</ele><time>2026-03-29T13:19:46Z</time></trkpt><trkpt lat="45.33726051385695" lon="9.36785448848874"><ele>85.33333333333333</ele><time>2026-03-29T13:19:47Z</time></trkpt><trkpt lat="45.33719445109757" lon="9.368061200281687"><ele>85.66666666666667</ele><time>2026-03-29T13:19:48Z</time></trkpt><trkpt lat="45.33712923722239" lon="9.368256811797714"><ele>86.0</ele><time>2026-03-29T13:19:49Z</time></trkpt><trkpt lat="45.3370645397063" lon="9.368457856763614"><ele>86.0</ele><time>2026-03-29T13:19:50Z</time></trkpt><trkpt lat="45.3369961963889" lon="9.368629283852012"><ele>86.0</ele><time>2026-03-29T13:19:51Z</time></trkpt><trkpt lat="45.33691687729611" lon="9.368784837983203"><ele>86.0</ele><time>2026-03-29T13:19:52Z</time></trkpt><trkpt lat="45.33686878099178" lon="9.368900722287492"><ele>86.0</ele><time>2026-03-29T13:19:53Z</time></trkpt><trkpt lat="45.33681291907544" lon="9.368998247140217"><ele>86.0</ele><time>2026-03-29T13:19:54Z</time></trkpt><trkpt lat="45.336737405064966" lon="9.369078497762382"><ele>86.0</ele><time>2026-03-29T13:19:55Z</time></trkpt><trkpt lat="45.336660120659204" lon="9.369154588376489"><ele>86.0</ele><time>2026-03-29T13:19:56Z</time></trkpt><trkpt lat="45.33661815290311" lon="9.36926234239543"><ele>86.0</ele><time>2026-03-29T13:19:57Z</time></trkpt><trkpt lat="45.33661769708562" lon="9.369402900484747"><ele>86.0</ele><time>2026-03-29T13:19:58Z</time></trkpt><trkpt lat="45.33664227835908" lon="9.36956884388792"><ele>86.25</ele><time>2026-03-29T13:19:59Z</time></trkpt><trkpt lat="45.33666263447728" lon="9.369756657392939"><ele>86.5</ele><time>2026-03-29T13:20:00Z</time></trkpt><trkpt lat="45.3366457707468" lon="9.369968254215795"><ele>86.75</ele><time>2026-03-29T13:20:01Z</time></trkpt><trkpt lat="45.33658465132962" lon="9.370186311803288"><ele>87.0</ele><time>2026-03-29T13:20:02Z</time></trkpt><trkpt lat="45.33651128318712" lon="9.370417883050537"><ele>87.0</ele><time>2026-03-29T13:20:03Z</time></trkpt><trkpt lat="45.33644022182898" lon="9.370674002432871"><ele>87.0</ele><time>2026-03-29T13:20:04Z</time></trkpt><trkpt lat="45.33636486282418" lon="9.370944535867991"><ele>87.0</ele><time>2026-03-29T13:20:05Z</time></trkpt><trkpt lat="45.336289656398954" lon="9.37121346997029"><ele>86.33333333333333</ele><time>2026-03-29T13:20:06Z</time></trkpt><trkpt lat="45.336202372443815" lon="9.371509817972122"><ele>85.66666666666666</ele><time>2026-03-29T13:20:07Z</time></trkpt><trkpt lat="45.33613701743374" lon="9.371798684958256"><ele>85.0</ele><time>2026-03-29T13:20:08Z</time></trkpt><trkpt lat="45.336080437889976" lon="9.372061533079375"><ele>85.0</ele><time>2026-03-29T13:20:09Z</time></trkpt><trkpt lat="45.33602793322673" lon="9.37232726696151"><ele>85.0</ele><time>2026-03-29T13:20:10Z</time></trkpt><trkpt lat="45.3359847811202" lon="9.372591811073034"><ele>85.0</ele><time>2026-03-29T13:20:11Z</time></trkpt><trkpt lat="45.335957377161044" lon="9.372866729738014"><ele>85.33333333333333</ele><time>2026-03-29T13:20:12Z</time></trkpt><trkpt lat="45.33593677772058" lon="9.373121953255446"><ele>85.66666666666667</ele><time>2026-03-29T13:20:13Z</time></trkpt><trkpt lat="45.33592462930785" lon="9.373397191540896"><ele>86.0</ele><time>2026-03-29T13:20:14Z</time></trkpt><trkpt lat="45.33592946218657" lon="9.373654679418253"><ele>85.66666666666667</ele><time>2026-03-29T13:20:15Z</time></trkpt><trkpt lat="45.33593365005407" lon="9.373924241160275"><ele>85.33333333333333</ele><time>2026-03-29T13:20:16Z</time></trkpt><trkpt lat="45.335941012638045" lon="9.374193016782117"><ele>85.0</ele><time>2026-03-29T13:20:17Z</time></trkpt><trkpt lat="45.335942796984924" lon="9.374467600861355"><ele>85.0</ele><time>2026-03-29T13:20:18Z</time></trkpt><trkpt lat="45.33594807389325" lon="9.374744111334433"><ele>85.0</ele><time>2026-03-29T13:20:19Z</time></trkpt><trkpt lat="45.335952509229685" lon="9.375016569208269"><ele>85.0</ele><time>2026-03-29T13:20:20Z</time></trkpt><trkpt lat="45.335953520995865" lon="9.375291427205497"><ele>85.33333333333333</ele><time>2026-03-29T13:20:21Z</time></trkpt><trkpt lat="45.33595759590645" lon="9.375555672145637"><ele>85.66666666666667</ele><time>2026-03-29T13:20:22Z</time></trkpt><trkpt lat="45.33595820942506" lon="9.375816305227179"><ele>86.0</ele><time>2026-03-29T13:20:23Z</time></trkpt><trkpt lat="45.33596602391966" lon="9.376075519939757"><ele>85.66666666666667</ele><time>2026-03-29T13:20:24Z</time></trkpt><trkpt lat="45.33597982100397" lon="9.376356684914596"><ele>85.33333333333333</ele><time>2026-03-29T13:20:25Z</time></trkpt><trkpt lat="45.335962349620125" lon="9.376584371174703"><ele>85.0</ele><time>2026-03-29T13:20:26Z</time></trkpt><trkpt lat="45.335958284887816" lon="9.376812880019212"><ele>85.0</ele><time>2026-03-29T13:20:27Z</time></trkpt><trkpt lat="45.33596246882195" lon="9.377114579754284"><ele>85.0</ele><time>2026-03-29T13:20:28Z</time></trkpt><trkpt lat="45.335953612814954" lon="9.37738895750045"><ele>85.0</ele><time>2026-03-29T13:20:29Z</time></trkpt><trkpt lat="45.33593352051146" lon="9.377663017311873"><ele>84.66666666666666</ele><time>2026-03-29T13:20:30Z</time></trkpt><trkpt lat="45.335904956681645" lon="9.377934508379392"><ele>84.33333333333333</ele><time>2026-03-29T13:20:31Z</time></trkpt><trkpt lat="45.335865748175394" lon="9.378211920101592"><ele>84.0</ele><time>2026-03-29T13:20:31.999Z</time></trkpt><trkpt lat="45.33582731925592" lon="9.37848021822804"><ele>84.0</ele><time>2026-03-29T13:20:32.999Z</time></trkpt><trkpt lat="45.33578971956163" lon="9.37873671097315"><ele>84.0</ele><time>2026-03-29T13:20:33.999Z</time></trkpt><trkpt lat="45.33576360161432" lon="9.378986804095808"><ele>84.0</ele><time>2026-03-29T13:20:34.999Z</time></trkpt><trkpt lat="45.335733920606195" lon="9.379240955869935"><ele>84.0</ele><time>2026-03-29T13:20:35.999Z</time></trkpt><trkpt lat="45.33570078765792" lon="9.379492454178216"><ele>84.0</ele><time>2026-03-29T13:20:36.999Z</time></trkpt><trkpt lat="45.335668596483195" lon="9.37974155602661"><ele>84.0</ele><time>2026-03-29T13:20:37.999Z</time></trkpt><trkpt lat="45.3356372610045" lon="9.379986124996337"><ele>84.0</ele><time>2026-03-29T13:20:38.999Z</time></trkpt><trkpt lat="45.335606629973334" lon="9.380224826400125"><ele>84.0</ele><time>2026-03-29T13:20:39.999Z</time></trkpt><trkpt lat="45.33557480297706" lon="9.380467201623542"><ele>84.0</ele><time>2026-03-29T13:20:40.999Z</time></trkpt><trkpt lat="45.335542909507886" lon="9.380710723514637"><ele>84.0</ele><time>2026-03-29T13:20:41.999Z</time></trkpt><trkpt lat="45.33550886556111" lon="9.380950250217321"><ele>84.0</ele><time>2026-03-29T13:20:42.999Z</time></trkpt><trkpt lat="45.335474478664054" lon="9.381195115236096"><ele>84.0</ele><time>2026-03-29T13:20:43.999Z</time></trkpt><trkpt lat="45.33544209121316" lon="9.381436964752362"><ele>84.0</ele><time>2026-03-29T13:20:44.999Z</time></trkpt><trkpt lat="45.33541587942054" lon="9.38167183319991"><ele>84.0</ele><time>2026-03-29T13:20:45.999Z</time></trkpt><trkpt lat="45.33538351116112" lon="9.38191438726843"><ele>84.0</ele><time>2026-03-29T13:20:46.999Z</time></trkpt><trkpt lat="45.33535950275117" lon="9.382160450552332"><ele>84.0</ele><time>2026-03-29T13:20:47.999Z</time></trkpt><trkpt lat="45.335320339040486" lon="9.382390978449111"><ele>84.0</ele><time>2026-03-29T13:20:48.999Z</time></trkpt><trkpt lat="45.33528843495807" lon="9.382621938051118"><ele>84.0</ele><time>2026-03-29T13:20:49.999Z</time></trkpt><trkpt lat="45.33525810973022" lon="9.382851765155078"><ele>84.0</ele><time>2026-03-29T13:20:50.999Z</time></trkpt><trkpt lat="45.33523359035639" lon="9.38307658494395"><ele>84.0</ele><time>2026-03-29T13:20:51.999Z</time></trkpt><trkpt lat="45.335194222665685" lon="9.383311976841872"><ele>84.0</ele><time>2026-03-29T13:20:52.999Z</time></trkpt><trkpt lat="45.33516326182024" lon="9.383549550649805"><ele>84.0</ele><time>2026-03-29T13:20:53.999Z</time></trkpt><trkpt lat="45.335123208419986" lon="9.383784280128907"><ele>84.0</ele><time>2026-03-29T13:20:54.999Z</time></trkpt><trkpt lat="45.33508862515194" lon="9.384027723025321"><ele>84.0</ele><time>2026-03-29T13:20:55.999Z</time></trkpt><trkpt lat="45.335070539299686" lon="9.38425302384848"><ele>83.75</ele><time>2026-03-29T13:20:56.999Z</time></trkpt><trkpt lat="45.33506028397786" lon="9.384476121941173"><ele>83.5</ele><time>2026-03-29T13:20:57.999Z</time></trkpt><trkpt lat="45.33507370413067" lon="9.384671800173987"><ele>83.25</ele><time>2026-03-29T13:20:58.999Z</time></trkpt><trkpt lat="45.33511145166217" lon="9.38484778114731"><ele>83.0</ele><time>2026-03-29T13:20:59.999Z</time></trkpt><trkpt lat="45.3351422557307" lon="9.38502230371655"><ele>83.4</ele><time>2026-03-29T13:21:00.999Z</time></trkpt><trkpt lat="45.335175936027866" lon="9.38519109252849"><ele>83.80000000000001</ele><time>2026-03-29T13:21:01.999Z</time></trkpt><trkpt lat="45.33520351459932" lon="9.385330829893158"><ele>84.2</ele><time>2026-03-29T13:21:02.999Z</time></trkpt><trkpt lat="45.33522770355309" lon="9.385450240081346"><ele>84.6</ele><time>2026-03-29T13:21:03.999Z</time></trkpt><trkpt lat="45.33526361582683" lon="9.385560503840967"><ele>85.0</ele><time>2026-03-29T13:21:04.999Z</time></trkpt><trkpt lat="45.33528076120603" lon="9.385654910996996"><ele>85.0</ele><time>2026-03-29T13:21:05.999Z</time></trkpt><trkpt lat="45.33530090010332" lon="9.385743289220793"><ele>85.0</ele><time>2026-03-29T13:21:06.999Z</time></trkpt><trkpt lat="45.33532664914846" lon="9.385831365716447"><ele>85.0</ele><time>2026-03-29T13:21:07.999Z</time></trkpt><trkpt lat="45.33532784664542" lon="9.385924619820688"><ele>85.0</ele><time>2026-03-29T13:21:08.999Z</time></trkpt><trkpt lat="45.33532559798058" lon="9.386017706995265"><ele>85.0</ele><time>2026-03-29T13:21:09.999Z</time></trkpt><trkpt lat="45.335299875816055" lon="9.386105917985413"><ele>85.0</ele><time>2026-03-29T13:21:10.999Z</time></trkpt><trkpt lat="45.335280935915925" lon="9.38628020244925"><ele>84.8</ele><time>2026-03-29T13:21:12.999Z</time></trkpt><trkpt lat="45.335339416240195" lon="9.386443022370987"><ele>84.6</ele><time>2026-03-29T13:21:14.999Z</time></trkpt><trkpt lat="45.335395339146345" lon="9.386540156644053"><ele>84.4</ele><time>2026-03-29T13:21:15.999Z</time></trkpt><trkpt lat="45.33544072104795" lon="9.386625128624027"><ele>84.2</ele><time>2026-03-29T13:21:16.999Z</time></trkpt><trkpt lat="45.33549759676429" lon="9.386774805059746"><ele>84.0</ele><time>2026-03-29T13:21:17.999Z</time></trkpt><trkpt lat="45.335552532748615" lon="9.386968729377571"><ele>83.75</ele><time>2026-03-29T13:21:18.999Z</time></trkpt><trkpt lat="45.33561209814983" lon="9.387158540977323"><ele>83.5</ele><time>2026-03-29T13:21:19.999Z</time></trkpt><trkpt lat="45.33565404886922" lon="9.387347909312455"><ele>83.25</ele><time>2026-03-29T13:21:20.999Z</time></trkpt><trkpt lat="45.33571210620104" lon="9.387535785339209"><ele>83.0</ele><time>2026-03-29T13:21:21.999Z</time></trkpt><trkpt lat="45.33577012066652" lon="9.387754401437155"><ele>82.66666666666667</ele><time>2026-03-29T13:21:22.999Z</time></trkpt><trkpt lat="45.335845418192314" lon="9.38795222247735"><ele>82.33333333333333</ele><time>2026-03-29T13:21:23.999Z</time></trkpt><trkpt lat="45.33594353033188" lon="9.388180104812156"><ele>82.0</ele><time>2026-03-29T13:21:24.999Z</time></trkpt><trkpt lat="45.33603089881349" lon="9.388410685855604"><ele>82.0</ele><time>2026-03-29T13:21:26Z</time></trkpt><trkpt lat="45.33610651634646" lon="9.38861012394359"><ele>82.0</ele><time>2026-03-29T13:21:27Z</time></trkpt><trkpt lat="45.336184934123224" lon="9.388805397583635"><ele>82.0</ele><time>2026-03-29T13:21:28Z</time></trkpt><trkpt lat="45.33626505980387" lon="9.388986689360726"><ele>82.66666666666666</ele><time>2026-03-29T13:21:29Z</time></trkpt><trkpt lat="45.33632858591934" lon="9.389213010584117"><ele>83.33333333333333</ele><time>2026-03-29T13:21:30Z</time></trkpt><trkpt lat="45.336428338678004" lon="9.38946086090244"><ele>84.0</ele><time>2026-03-29T13:21:31Z</time></trkpt><trkpt lat="45.33648978421943" lon="9.38970913389977"><ele>84.0</ele><time>2026-03-29T13:21:32Z</time></trkpt><trkpt lat="45.33656708710906" lon="9.389948245855742"><ele>84.0</ele><time>2026-03-29T13:21:33Z</time></trkpt><trkpt lat="45.33661369140618" lon="9.39019954153783"><ele>84.0</ele><time>2026-03-29T13:21:34Z</time></trkpt><trkpt lat="45.3366662705092" lon="9.3904381192515"><ele>83.33333333333333</ele><time>2026-03-29T13:21:35Z</time></trkpt><trkpt lat="45.3367199473512" lon="9.39069980907364"><ele>82.66666666666666</ele><time>2026-03-29T13:21:36Z</time></trkpt><trkpt lat="45.336779842001484" lon="9.390996402010584"><ele>82.0</ele><time>2026-03-29T13:21:37Z</time></trkpt><trkpt lat="45.33684126974694" lon="9.391301176986522"><ele>82.0</ele><time>2026-03-29T13:21:38Z</time></trkpt><trkpt lat="45.33689823535744" lon="9.391585671706677"><ele>82.0</ele><time>2026-03-29T13:21:39Z</time></trkpt><trkpt lat="45.33695573380208" lon="9.391845531730366"><ele>82.0</ele><time>2026-03-29T13:21:40Z</time></trkpt><trkpt lat="45.33700471046481" lon="9.392083711181883"><ele>82.0</ele><time>2026-03-29T13:21:41Z</time></trkpt><trkpt lat="45.337058693638454" lon="9.392322672394748"><ele>82.0</ele><time>2026-03-29T13:21:42Z</time></trkpt><trkpt lat="45.33710105160815" lon="9.392536442277935"><ele>82.0</ele><time>2026-03-29T13:21:43Z</time></trkpt><trkpt lat="45.33713368984603" lon="9.392745647360995"><ele>82.0</ele><time>2026-03-29T13:21:44Z</time></trkpt><trkpt lat="45.3371650149673" lon="9.392925308326632"><ele>82.0</ele><time>2026-03-29T13:21:45Z</time></trkpt><trkpt lat="45.337211323588505" lon="9.393118088390864"><ele>82.0</ele><time>2026-03-29T13:21:46Z</time></trkpt><trkpt lat="45.3372498420265" lon="9.393324554418836"><ele>82.0</ele><time>2026-03-29T13:21:47Z</time></trkpt><trkpt lat="45.337290495913216" lon="9.393526204248982"><ele>82.0</ele><time>2026-03-29T13:21:48Z</time></trkpt><trkpt lat="45.337328612176854" lon="9.393743568853008"><ele>82.0</ele><time>2026-03-29T13:21:49Z</time></trkpt><trkpt lat="45.337369636713454" lon="9.393954930492656"><ele>82.0</ele><time>2026-03-29T13:21:50Z</time></trkpt><trkpt lat="45.33741606402921" lon="9.394171749159606"><ele>82.0</ele><time>2026-03-29T13:21:51Z</time></trkpt><trkpt lat="45.337454909593944" lon="9.394401132754304"><ele>82.0</ele><time>2026-03-29T13:21:52Z</time></trkpt><trkpt lat="45.33751021076732" lon="9.394617805561404"><ele>82.0</ele><time>2026-03-29T13:21:53Z</time></trkpt><trkpt lat="45.33755607631715" lon="9.39485201187478"><ele>82.0</ele><time>2026-03-29T13:21:54Z</time></trkpt><trkpt lat="45.33758461856236" lon="9.395095618463195"><ele>82.0</ele><time>2026-03-29T13:21:55Z</time></trkpt><trkpt lat="45.33764084314192" lon="9.395330054914826"><ele>82.0</ele><time>2026-03-29T13:21:56Z</time></trkpt><trkpt lat="45.33769680126193" lon="9.39554812352095"><ele>82.33333333333333</ele><time>2026-03-29T13:21:57Z</time></trkpt><trkpt lat="45.33773637461015" lon="9.395796701599572"><ele>82.66666666666667</ele><time>2026-03-29T13:21:58Z</time></trkpt><trkpt lat="45.337782467068855" lon="9.396034207188224"><ele>83.0</ele><time>2026-03-29T13:21:59Z</time></trkpt><trkpt lat="45.33783268809962" lon="9.396259052141188"><ele>82.66666666666667</ele><time>2026-03-29T13:22:00Z</time></trkpt><trkpt lat="45.33786939677096" lon="9.396489750053918"><ele>82.33333333333333</ele><time>2026-03-29T13:22:01Z</time></trkpt><trkpt lat="45.33791221163598" lon="9.396714360155096"><ele>82.0</ele><time>2026-03-29T13:22:02Z</time></trkpt><trkpt lat="45.33796171536301" lon="9.396941745067812"><ele>82.0</ele><time>2026-03-29T13:22:03Z</time></trkpt><trkpt lat="45.338011306467884" lon="9.397184192634938"><ele>82.0</ele><time>2026-03-29T13:22:04Z</time></trkpt><trkpt lat="45.33805445328517" lon="9.397387794534632"><ele>82.0</ele><time>2026-03-29T13:22:05Z</time></trkpt><trkpt lat="45.338101232167475" lon="9.397609915579109"><ele>81.66666666666666</ele><time>2026-03-29T13:22:06Z</time></trkpt><trkpt lat="45.33815682551485" lon="9.397854581958095"><ele>81.33333333333333</ele><time>2026-03-29T13:22:07Z</time></trkpt><trkpt lat="45.33820033394317" lon="9.398098939048355"><ele>81.0</ele><time>2026-03-29T13:22:08Z</time></trkpt><trkpt lat="45.33824289354703" lon="9.39834402333927"><ele>81.0</ele><time>2026-03-29T13:22:09Z</time></trkpt><trkpt lat="45.33829050904231" lon="9.398581113145628"><ele>81.0</ele><time>2026-03-29T13:22:10Z</time></trkpt><trkpt lat="45.33834283489058" lon="9.398827206071486"><ele>81.0</ele><time>2026-03-29T13:22:11Z</time></trkpt><trkpt lat="45.3383924744468" lon="9.399070779738338"><ele>81.0</ele><time>2026-03-29T13:22:12Z</time></trkpt><trkpt lat="45.338442041762264" lon="9.399301846033719"><ele>81.0</ele><time>2026-03-29T13:22:13Z</time></trkpt><trkpt lat="45.33848475465481" lon="9.399521568806174"><ele>81.0</ele><time>2026-03-29T13:22:14Z</time></trkpt><trkpt lat="45.338513659169166" lon="9.399732643138366"><ele>81.0</ele><time>2026-03-29T13:22:15Z</time></trkpt><trkpt lat="45.33856696900829" lon="9.39993948780003"><ele>81.0</ele><time>2026-03-29T13:22:16Z</time></trkpt><trkpt lat="45.338599374963536" lon="9.400160183885355"><ele>81.0</ele><time>2026-03-29T13:22:17Z</time></trkpt><trkpt lat="45.3386561651472" lon="9.400386549565933"><ele>81.33333333333333</ele><time>2026-03-29T13:22:18Z</time></trkpt><trkpt lat="45.3386978981699" lon="9.400621043608258"><ele>81.66666666666666</ele><time>2026-03-29T13:22:19Z</time></trkpt><trkpt lat="45.33874302477473" lon="9.400852123763721"><ele>82.0</ele><time>2026-03-29T13:22:20Z</time></trkpt><trkpt lat="45.338788291210186" lon="9.401078695093348"><ele>82.0</ele><time>2026-03-29T13:22:21Z</time></trkpt><trkpt lat="45.33883357264081" lon="9.401302301613557"><ele>82.0</ele><time>2026-03-29T13:22:22Z</time></trkpt><trkpt lat="45.33887447023102" lon="9.40151831756435"><ele>82.0</ele><time>2026-03-29T13:22:23Z</time></trkpt><trkpt lat="45.33891971722979" lon="9.401731988267075"><ele>82.0</ele><time>2026-03-29T13:22:24Z</time></trkpt><trkpt lat="45.33895889076869" lon="9.401945979641244"><ele>82.0</ele><time>2026-03-29T13:22:25Z</time></trkpt><trkpt lat="45.33899867737326" lon="9.402154704563507"><ele>82.0</ele><time>2026-03-29T13:22:26Z</time></trkpt><trkpt lat="45.339040686303655" lon="9.402372761451415"><ele>81.66666666666666</ele><time>2026-03-29T13:22:27Z</time></trkpt><trkpt lat="45.33908424913347" lon="9.402587144471921"><ele>81.33333333333333</ele><time>2026-03-29T13:22:28Z</time></trkpt><trkpt lat="45.33913082957556" lon="9.40280374241429"><ele>81.0</ele><time>2026-03-29T13:22:29Z</time></trkpt><trkpt lat="45.3391720595903" lon="9.403019733620376"><ele>81.0</ele><time>2026-03-29T13:22:30Z</time></trkpt><trkpt lat="45.339214750656375" lon="9.40323877463281"><ele>81.0</ele><time>2026-03-29T13:22:31Z</time></trkpt><trkpt lat="45.339259447082505" lon="9.403456970112453"><ele>81.0</ele><time>2026-03-29T13:22:32Z</time></trkpt><trkpt lat="45.33930200098221" lon="9.403680028446622"><ele>81.66666666666667</ele><time>2026-03-29T13:22:33Z</time></trkpt><trkpt lat="45.33934699862852" lon="9.403902450135421"><ele>82.33333333333334</ele><time>2026-03-29T13:22:34Z</time></trkpt><trkpt lat="45.3393920046022" lon="9.404122781762524"><ele>83.0</ele><time>2026-03-29T13:22:35Z</time></trkpt><trkpt lat="45.33943583885748" lon="9.404343548833559"><ele>83.0</ele><time>2026-03-29T13:22:36Z</time></trkpt><trkpt lat="45.33947647036357" lon="9.404568458054756"><ele>83.0</ele><time>2026-03-29T13:22:37Z</time></trkpt><trkpt lat="45.33951658224009" lon="9.4047843134943"><ele>83.0</ele><time>2026-03-29T13:22:37.999Z</time></trkpt><trkpt lat="45.33955250690057" lon="9.405015086279912"><ele>83.0</ele><time>2026-03-29T13:22:38.999Z</time></trkpt><trkpt lat="45.339591092263994" lon="9.405206820145148"><ele>83.0</ele><time>2026-03-29T13:22:39.999Z</time></trkpt><trkpt lat="45.33962254937131" lon="9.405423446772726"><ele>83.0</ele><time>2026-03-29T13:22:40.999Z</time></trkpt><trkpt lat="45.33965817140949" lon="9.405635899792006"><ele>83.0</ele><time>2026-03-29T13:22:41.999Z</time></trkpt><trkpt lat="45.339686318509585" lon="9.405852818106064"><ele>83.33333333333334</ele><time>2026-03-29T13:22:42.999Z</time></trkpt><trkpt lat="45.33970839022936" lon="9.406080172579204"><ele>83.66666666666667</ele><time>2026-03-29T13:22:43.999Z</time></trkpt><trkpt lat="45.33972391494796" lon="9.40632359582007"><ele>84.0</ele><time>2026-03-29T13:22:44.999Z</time></trkpt><trkpt lat="45.33973178208676" lon="9.406574976369232"><ele>83.33333333333333</ele><time>2026-03-29T13:22:45.999Z</time></trkpt><trkpt lat="45.33974025202221" lon="9.40681879446142"><ele>82.66666666666666</ele><time>2026-03-29T13:22:46.999Z</time></trkpt><trkpt lat="45.33973016654364" lon="9.407067272551348"><ele>82.0</ele><time>2026-03-29T13:22:47.999Z</time></trkpt><trkpt lat="45.33971291143965" lon="9.407294869429778"><ele>82.0</ele><time>2026-03-29T13:22:48.999Z</time></trkpt><trkpt lat="45.33969055306387" lon="9.407506439610621"><ele>82.0</ele><time>2026-03-29T13:22:49.999Z</time></trkpt><trkpt lat="45.33966022167488" lon="9.407735913558438"><ele>82.0</ele><time>2026-03-29T13:22:50.999Z</time></trkpt><trkpt lat="45.33962069717454" lon="9.407954602624915"><ele>82.33333333333333</ele><time>2026-03-29T13:22:51.999Z</time></trkpt><trkpt lat="45.33956943287845" lon="9.408180954242086"><ele>82.66666666666667</ele><time>2026-03-29T13:22:52.999Z</time></trkpt><trkpt lat="45.33952302888895" lon="9.408403516501052"><ele>83.0</ele><time>2026-03-29T13:22:53.999Z</time></trkpt><trkpt lat="45.33945880501121" lon="9.408631348360439"><ele>83.66666666666667</ele><time>2026-03-29T13:22:54.999Z</time></trkpt><trkpt lat="45.33937736934688" lon="9.408846216006934"><ele>84.33333333333333</ele><time>2026-03-29T13:22:55.999Z</time></trkpt><trkpt lat="45.33930092405557" lon="9.409058877485979"><ele>85.0</ele><time>2026-03-29T13:22:56.999Z</time></trkpt><trkpt lat="45.33921661159237" lon="9.409264783328927"><ele>85.0</ele><time>2026-03-29T13:22:57.999Z</time></trkpt><trkpt lat="45.339143961834225" lon="9.409475843142758"><ele>85.0</ele><time>2026-03-29T13:22:58.999Z</time></trkpt><trkpt lat="45.33904151903567" lon="9.409643700290577"><ele>85.0</ele><time>2026-03-29T13:22:59.999Z</time></trkpt><trkpt lat="45.33896695024701" lon="9.409821999518732"><ele>84.75</ele><time>2026-03-29T13:23:00.999Z</time></trkpt><trkpt lat="45.33887462043681" lon="9.409977643528212"><ele>84.5</ele><time>2026-03-29T13:23:01.999Z</time></trkpt><trkpt lat="45.338772053939735" lon="9.410126367286145"><ele>84.25</ele><time>2026-03-29T13:23:02.999Z</time></trkpt><trkpt lat="45.33869126757718" lon="9.410256540364882"><ele>84.0</ele><time>2026-03-29T13:23:03.999Z</time></trkpt><trkpt lat="45.33860310110617" lon="9.41037455160218"><ele>84.2</ele><time>2026-03-29T13:23:04.999Z</time></trkpt><trkpt lat="45.33850940082455" lon="9.410493428084783"><ele>84.4</ele><time>2026-03-29T13:23:05.999Z</time></trkpt><trkpt lat="45.338427905880515" lon="9.410581300794636"><ele>84.6</ele><time>2026-03-29T13:23:06.999Z</time></trkpt><trkpt lat="45.33835078075741" lon="9.410665662230592"><ele>84.8</ele><time>2026-03-29T13:23:07.999Z</time></trkpt><trkpt lat="45.338272650191286" lon="9.410724439512308"><ele>85.0</ele><time>2026-03-29T13:23:08.999Z</time></trkpt><trkpt lat="45.338196578092045" lon="9.410774754172714"><ele>85.0</ele><time>2026-03-29T13:23:09.999Z</time></trkpt><trkpt lat="45.33810782973367" lon="9.41082002955996"><ele>85.0</ele><time>2026-03-29T13:23:10.999Z</time></trkpt><trkpt lat="45.33801504300451" lon="9.410846419998867"><ele>85.0</ele><time>2026-03-29T13:23:11.999Z</time></trkpt><trkpt lat="45.337922527282196" lon="9.410847254533092"><ele>85.0</ele><time>2026-03-29T13:23:12.999Z</time></trkpt><trkpt lat="45.33784591770409" lon="9.410859977884517"><ele>85.0</ele><time>2026-03-29T13:23:13.999Z</time></trkpt><trkpt lat="45.3377589347621" lon="9.410954655658935"><ele>85.0</ele><time>2026-03-29T13:23:14.999Z</time></trkpt><trkpt lat="45.337682293008015" lon="9.411091462554664"><ele>85.0</ele><time>2026-03-29T13:23:15.999Z</time></trkpt><trkpt lat="45.33762692589263" lon="9.41122262012139"><ele>85.0</ele><time>2026-03-29T13:23:16.999Z</time></trkpt><trkpt lat="45.33753201004878" lon="9.411334494558066"><ele>85.0</ele><time>2026-03-29T13:23:17.999Z</time></trkpt><trkpt lat="45.337415063715284" lon="9.411410524508765"><ele>85.0</ele><time>2026-03-29T13:23:18.999Z</time></trkpt><trkpt lat="45.33728369368354" lon="9.411477773884808"><ele>85.0</ele><time>2026-03-29T13:23:19.999Z</time></trkpt><trkpt lat="45.33714777758313" lon="9.411545593197932"><ele>85.0</ele><time>2026-03-29T13:23:20.999Z</time></trkpt><trkpt lat="45.33696472873854" lon="9.411631506067"><ele>85.0</ele><time>2026-03-29T13:23:21.999Z</time></trkpt><trkpt lat="45.33678941675092" lon="9.41171270860061"><ele>85.0</ele><time>2026-03-29T13:23:22.999Z</time></trkpt><trkpt lat="45.336618555302884" lon="9.41178321957503"><ele>85.0</ele><time>2026-03-29T13:23:23.999Z</time></trkpt><trkpt lat="45.3364462076859" lon="9.411859676320894"><ele>84.66666666666666</ele><time>2026-03-29T13:23:24.999Z</time></trkpt><trkpt lat="45.33626851504382" lon="9.411940803051719"><ele>84.33333333333333</ele><time>2026-03-29T13:23:25.999Z</time></trkpt><trkpt lat="45.33610409284167" lon="9.412015583055796"><ele>84.0</ele><time>2026-03-29T13:23:26.999Z</time></trkpt><trkpt lat="45.335960634106634" lon="9.41208630154021"><ele>84.0</ele><time>2026-03-29T13:23:27.999Z</time></trkpt><trkpt lat="45.3358237885276" lon="9.412141948374531"><ele>84.0</ele><time>2026-03-29T13:23:28.999Z</time></trkpt><trkpt lat="45.335688912307766" lon="9.412209260415592"><ele>84.0</ele><time>2026-03-29T13:23:29.999Z</time></trkpt><trkpt lat="45.33555665205534" lon="9.412268879339031"><ele>84.0</ele><time>2026-03-29T13:23:30.999Z</time></trkpt><trkpt lat="45.335417960875496" lon="9.412306176792091"><ele>84.0</ele><time>2026-03-29T13:23:32Z</time></trkpt><trkpt lat="45.335272312179214" lon="9.41238832405242"><ele>84.0</ele><time>2026-03-29T13:23:33Z</time></trkpt><trkpt lat="45.33512319981157" lon="9.412455484500814"><ele>84.0</ele><time>2026-03-29T13:23:34Z</time></trkpt><trkpt lat="45.334968542717036" lon="9.412518186997598"><ele>84.0</ele><time>2026-03-29T13:23:35Z</time></trkpt><trkpt lat="45.334812639988854" lon="9.412585311597828"><ele>84.0</ele><time>2026-03-29T13:23:36Z</time></trkpt><trkpt lat="45.33465696167578" lon="9.412655768998775"><ele>84.0</ele><time>2026-03-29T13:23:37Z</time></trkpt><trkpt lat="45.334495152171975" lon="9.412731357622627"><ele>84.66666666666667</ele><time>2026-03-29T13:23:38Z</time></trkpt><trkpt lat="45.33434028671451" lon="9.41279434143183"><ele>85.33333333333334</ele><time>2026-03-29T13:23:39Z</time></trkpt><trkpt lat="45.33417719435933" lon="9.41286169489761"><ele>86.0</ele><time>2026-03-29T13:23:40Z</time></trkpt><trkpt lat="45.33401958755113" lon="9.412937620440976"><ele>85.5</ele><time>2026-03-29T13:23:41Z</time></trkpt><trkpt lat="45.33388076978076" lon="9.413001433014422"><ele>85.0</ele><time>2026-03-29T13:23:42Z</time></trkpt><trkpt lat="45.33374087622976" lon="9.413092091712064"><ele>84.5</ele><time>2026-03-29T13:23:43Z</time></trkpt><trkpt lat="45.33360803355751" lon="9.413178629998294"><ele>84.0</ele><time>2026-03-29T13:23:44Z</time></trkpt><trkpt lat="45.333464581252215" lon="9.413264630486132"><ele>84.0</ele><time>2026-03-29T13:23:45Z</time></trkpt><trkpt lat="45.33333746335028" lon="9.41337466299073"><ele>84.0</ele><time>2026-03-29T13:23:46Z</time></trkpt><trkpt lat="45.33321632556305" lon="9.413464906510905"><ele>84.0</ele><time>2026-03-29T13:23:47Z</time></trkpt><trkpt lat="45.33309029773362" lon="9.413582855277042"><ele>84.0</ele><time>2026-03-29T13:23:48Z</time></trkpt><trkpt lat="45.33296975894741" lon="9.413702056841847"><ele>84.0</ele><time>2026-03-29T13:23:49Z</time></trkpt><trkpt lat="45.3328508451556" lon="9.413831239168399"><ele>84.0</ele><time>2026-03-29T13:23:50Z</time></trkpt><trkpt lat="45.332734596753305" lon="9.413970376923897"><ele>84.0</ele><time>2026-03-29T13:23:51Z</time></trkpt><trkpt lat="45.33262402347393" lon="9.41412403054847"><ele>84.0</ele><time>2026-03-29T13:23:52Z</time></trkpt><trkpt lat="45.33251070750461" lon="9.414282165809478"><ele>84.0</ele><time>2026-03-29T13:23:53Z</time></trkpt><trkpt lat="45.332409098587696" lon="9.414442838692558"><ele>84.0</ele><time>2026-03-29T13:23:54Z</time></trkpt><trkpt lat="45.33231837746158" lon="9.414588418030212"><ele>84.0</ele><time>2026-03-29T13:23:55Z</time></trkpt><trkpt lat="45.332235851724015" lon="9.414719464935215"><ele>83.75</ele><time>2026-03-29T13:23:56Z</time></trkpt><trkpt lat="45.332158867090435" lon="9.414866999445357"><ele>83.5</ele><time>2026-03-29T13:23:57Z</time></trkpt><trkpt lat="45.332090436541066" lon="9.41500623436148"><ele>83.25</ele><time>2026-03-29T13:23:58Z</time></trkpt><trkpt lat="45.33201995433622" lon="9.415148839295897"><ele>83.0</ele><time>2026-03-29T13:23:59Z</time></trkpt><trkpt lat="45.33195515640995" lon="9.41529448181075"><ele>83.0</ele><time>2026-03-29T13:24:00Z</time></trkpt><trkpt lat="45.33190458044301" lon="9.415420809957057"><ele>83.0</ele><time>2026-03-29T13:24:01Z</time></trkpt><trkpt lat="45.33185346906623" lon="9.415560705909837"><ele>83.0</ele><time>2026-03-29T13:24:02Z</time></trkpt><trkpt lat="45.33180589753639" lon="9.415677733798228"><ele>83.0</ele><time>2026-03-29T13:24:03Z</time></trkpt><trkpt lat="45.33174804255158" lon="9.415787332715858"><ele>83.0</ele><time>2026-03-29T13:24:04Z</time></trkpt><trkpt lat="45.33169179621439" lon="9.415877497401974"><ele>83.0</ele><time>2026-03-29T13:24:05Z</time></trkpt><trkpt lat="45.33162024890683" lon="9.415971474351712"><ele>83.0</ele><time>2026-03-29T13:24:06Z</time></trkpt><trkpt lat="45.3315425479461" lon="9.41604777625404"><ele>83.0</ele><time>2026-03-29T13:24:07Z</time></trkpt><trkpt lat="45.33149499009761" lon="9.41613845321582"><ele>83.0</ele><time>2026-03-29T13:24:08Z</time></trkpt><trkpt lat="45.331469596193735" lon="9.416272076737283"><ele>83.0</ele><time>2026-03-29T13:24:09Z</time></trkpt><trkpt lat="45.33147206725675" lon="9.416409914861342"><ele>83.0</ele><time>2026-03-29T13:24:10Z</time></trkpt><trkpt lat="45.33150995278683" lon="9.416569357865622"><ele>83.0</ele><time>2026-03-29T13:24:11Z</time></trkpt><trkpt lat="45.331516471963084" lon="9.416745762283254"><ele>83.0</ele><time>2026-03-29T13:24:12Z</time></trkpt><trkpt lat="45.33150266289468" lon="9.416929027168523"><ele>83.0</ele><time>2026-03-29T13:24:13Z</time></trkpt><trkpt lat="45.331467837964844" lon="9.417124669342854"><ele>82.33333333333334</ele><time>2026-03-29T13:24:14Z</time></trkpt><trkpt lat="45.33143996663795" lon="9.41732545115099"><ele>81.66666666666667</ele><time>2026-03-29T13:24:15Z</time></trkpt><trkpt lat="45.331427265855275" lon="9.41754174097438"><ele>81.0</ele><time>2026-03-29T13:24:16Z</time></trkpt><trkpt lat="45.331422179431804" lon="9.417767588667315"><ele>81.0</ele><time>2026-03-29T13:24:17Z</time></trkpt><trkpt lat="45.33142002290019" lon="9.41800531655414"><ele>81.0</ele><time>2026-03-29T13:24:18Z</time></trkpt><trkpt lat="45.33142040433994" lon="9.418215385667432"><ele>81.0</ele><time>2026-03-29T13:24:19Z</time></trkpt><trkpt lat="45.3314276241" lon="9.4184506348644"><ele>81.0</ele><time>2026-03-29T13:24:20Z</time></trkpt><trkpt lat="45.33144223068391" lon="9.418689252844333"><ele>81.0</ele><time>2026-03-29T13:24:21Z</time></trkpt><trkpt lat="45.33146232200235" lon="9.41892873132062"><ele>81.0</ele><time>2026-03-29T13:24:22Z</time></trkpt><trkpt lat="45.33146985533999" lon="9.419162457397668"><ele>81.0</ele><time>2026-03-29T13:24:23Z</time></trkpt><trkpt lat="45.331479481115835" lon="9.419376669388319"><ele>81.0</ele><time>2026-03-29T13:24:24Z</time></trkpt><trkpt lat="45.331489964081086" lon="9.419573569824646"><ele>81.0</ele><time>2026-03-29T13:24:25Z</time></trkpt><trkpt lat="45.3315020257862" lon="9.419773446311636"><ele>81.0</ele><time>2026-03-29T13:24:26Z</time></trkpt><trkpt lat="45.331511975416866" lon="9.419971746254594"><ele>81.0</ele><time>2026-03-29T13:24:27Z</time></trkpt><trkpt lat="45.331525657164875" lon="9.420167554916025"><ele>81.0</ele><time>2026-03-29T13:24:28Z</time></trkpt><trkpt lat="45.33152396017636" lon="9.420333497998948"><ele>81.0</ele><time>2026-03-29T13:24:29Z</time></trkpt><trkpt lat="45.33153803809657" lon="9.420559474033256"><ele>81.0</ele><time>2026-03-29T13:24:30Z</time></trkpt><trkpt lat="45.33154419165549" lon="9.420768766235648"><ele>81.0</ele><time>2026-03-29T13:24:31Z</time></trkpt><trkpt lat="45.33156570330015" lon="9.420983810789807"><ele>81.0</ele><time>2026-03-29T13:24:32Z</time></trkpt><trkpt lat="45.331584356102354" lon="9.421197876340852"><ele>81.0</ele><time>2026-03-29T13:24:33Z</time></trkpt><trkpt lat="45.33159997415181" lon="9.421413428665307"><ele>80.66666666666667</ele><time>2026-03-29T13:24:34Z</time></trkpt><trkpt lat="45.3316156519858" lon="9.421633470077559"><ele>80.33333333333334</ele><time>2026-03-29T13:24:35Z</time></trkpt><trkpt lat="45.33163051717495" lon="9.421843271934836"><ele>80.0</ele><time>2026-03-29T13:24:36Z</time></trkpt><trkpt lat="45.33164711335879" lon="9.42205437387485"><ele>80.33333333333334</ele><time>2026-03-29T13:24:37Z</time></trkpt><trkpt lat="45.331651985659086" lon="9.422271095373112"><ele>80.66666666666667</ele><time>2026-03-29T13:24:38Z</time></trkpt><trkpt lat="45.3316543941015" lon="9.422490580349208"><ele>81.0</ele><time>2026-03-29T13:24:39Z</time></trkpt><trkpt lat="45.33164856542397" lon="9.422716414774552"><ele>81.0</ele><time>2026-03-29T13:24:40Z</time></trkpt><trkpt lat="45.33163524632332" lon="9.422947368537768"><ele>81.0</ele><time>2026-03-29T13:24:40.999Z</time></trkpt><trkpt lat="45.331611749394774" lon="9.423183191377568"><ele>81.0</ele><time>2026-03-29T13:24:41.999Z</time></trkpt><trkpt lat="45.331588301310354" lon="9.42341060841473"><ele>81.0</ele><time>2026-03-29T13:24:42.999Z</time></trkpt><trkpt lat="45.331567766711366" lon="9.423644762284763"><ele>81.0</ele><time>2026-03-29T13:24:43.999Z</time></trkpt><trkpt lat="45.33154505547847" lon="9.423874475816046"><ele>81.0</ele><time>2026-03-29T13:24:44.999Z</time></trkpt><trkpt lat="45.33152243334309" lon="9.42411240119825"><ele>81.0</ele><time>2026-03-29T13:24:45.999Z</time></trkpt><trkpt lat="45.33150134151587" lon="9.424337892046935"><ele>81.0</ele><time>2026-03-29T13:24:46.999Z</time></trkpt><trkpt lat="45.33147404881293" lon="9.424568250183743"><ele>81.0</ele><time>2026-03-29T13:24:47.999Z</time></trkpt><trkpt lat="45.33144891027699" lon="9.424804390382782"><ele>81.0</ele><time>2026-03-29T13:24:48.999Z</time></trkpt><trkpt lat="45.33143159135822" lon="9.42503900270794"><ele>81.0</ele><time>2026-03-29T13:24:49.999Z</time></trkpt><trkpt lat="45.33140453768396" lon="9.425263544174296"><ele>81.0</ele><time>2026-03-29T13:24:50.999Z</time></trkpt><trkpt lat="45.33138506198197" lon="9.425508620031797"><ele>80.66666666666667</ele><time>2026-03-29T13:24:51.999Z</time></trkpt><trkpt lat="45.33136021400063" lon="9.425752817880051"><ele>80.33333333333334</ele><time>2026-03-29T13:24:52.999Z</time></trkpt><trkpt lat="45.33133222374228" lon="9.425994107485025"><ele>80.0</ele><time>2026-03-29T13:24:53.999Z</time></trkpt><trkpt lat="45.33130342147639" lon="9.426231788618143"><ele>80.0</ele><time>2026-03-29T13:24:54.999Z</time></trkpt><trkpt lat="45.331284696885575" lon="9.426476078426575"><ele>80.0</ele><time>2026-03-29T13:24:55.999Z</time></trkpt><trkpt lat="45.331258553952075" lon="9.426721598921143"><ele>80.0</ele><time>2026-03-29T13:24:56.999Z</time></trkpt><trkpt lat="45.33123388133482" lon="9.426971607410836"><ele>80.0</ele><time>2026-03-29T13:24:57.999Z</time></trkpt><trkpt lat="45.33120542241252" lon="9.427215740516715"><ele>80.0</ele><time>2026-03-29T13:24:58.999Z</time></trkpt><trkpt lat="45.33118049461235" lon="9.42745971116996"><ele>80.0</ele><time>2026-03-29T13:24:59.999Z</time></trkpt><trkpt lat="45.33115234607011" lon="9.427719355603614"><ele>80.0</ele><time>2026-03-29T13:25:00.999Z</time></trkpt><trkpt lat="45.33113488840846" lon="9.427966779794207"><ele>80.0</ele><time>2026-03-29T13:25:01.999Z</time></trkpt><trkpt lat="45.33111417137033" lon="9.428210265869923"><ele>80.0</ele><time>2026-03-29T13:25:02.999Z</time></trkpt><trkpt lat="45.331080551340094" lon="9.428453689177395"><ele>80.0</ele><time>2026-03-29T13:25:03.999Z</time></trkpt><trkpt lat="45.331057941871215" lon="9.428693747773652"><ele>80.0</ele><time>2026-03-29T13:25:04.999Z</time></trkpt><trkpt lat="45.331037047550424" lon="9.428927317987974"><ele>80.0</ele><time>2026-03-29T13:25:05.999Z</time></trkpt><trkpt lat="45.33101889416772" lon="9.429159365333502"><ele>80.66666666666667</ele><time>2026-03-29T13:25:06.999Z</time></trkpt><trkpt lat="45.33099069484049" lon="9.429390538802567"><ele>81.33333333333333</ele><time>2026-03-29T13:25:07.999Z</time></trkpt><trkpt lat="45.330970390753706" lon="9.429635232150414"><ele>82.0</ele><time>2026-03-29T13:25:08.999Z</time></trkpt><trkpt lat="45.330942425474966" lon="9.429862060036346"><ele>83.0</ele><time>2026-03-29T13:25:09.999Z</time></trkpt><trkpt lat="45.330915955550644" lon="9.430093625893857"><ele>84.0</ele><time>2026-03-29T13:25:10.999Z</time></trkpt><trkpt lat="45.33087274991784" lon="9.430324316472065"><ele>85.0</ele><time>2026-03-29T13:25:11.999Z</time></trkpt><trkpt lat="45.330836903797454" lon="9.430554980068413"><ele>85.0</ele><time>2026-03-29T13:25:12.999Z</time></trkpt><trkpt lat="45.33080836260637" lon="9.430800347058966"><ele>85.0</ele><time>2026-03-29T13:25:13.999Z</time></trkpt><trkpt lat="45.330761167017634" lon="9.431034573685855"><ele>85.0</ele><time>2026-03-29T13:25:14.999Z</time></trkpt><trkpt lat="45.33069453495178" lon="9.431259726842255"><ele>84.0</ele><time>2026-03-29T13:25:15.999Z</time></trkpt><trkpt lat="45.33063562711995" lon="9.43149904501897"><ele>83.0</ele><time>2026-03-29T13:25:16.999Z</time></trkpt><trkpt lat="45.330573928046526" lon="9.43174394941137"><ele>82.0</ele><time>2026-03-29T13:25:17.999Z</time></trkpt><trkpt lat="45.33051441335938" lon="9.43197363975272"><ele>81.66666666666666</ele><time>2026-03-29T13:25:18.999Z</time></trkpt><trkpt lat="45.33045059734454" lon="9.43221726840514"><ele>81.33333333333333</ele><time>2026-03-29T13:25:19.999Z</time></trkpt><trkpt lat="45.33038968491586" lon="9.432445400474759"><ele>81.0</ele><time>2026-03-29T13:25:20.999Z</time></trkpt><trkpt lat="45.33034283201156" lon="9.432682146650532"><ele>81.0</ele><time>2026-03-29T13:25:21.999Z</time></trkpt><trkpt lat="45.33026735489086" lon="9.43290348398627"><ele>81.0</ele><time>2026-03-29T13:25:22.999Z</time></trkpt><trkpt lat="45.33020938673019" lon="9.433121383886702"><ele>81.0</ele><time>2026-03-29T13:25:23.999Z</time></trkpt><trkpt lat="45.33015574851838" lon="9.43332278645803"><ele>81.33333333333333</ele><time>2026-03-29T13:25:24.999Z</time></trkpt><trkpt lat="45.33010938225457" lon="9.43349688378093"><ele>81.66666666666666</ele><time>2026-03-29T13:25:25.999Z</time></trkpt><trkpt lat="45.33004793935315" lon="9.433727590737407"><ele>82.0</ele><time>2026-03-29T13:25:26.999Z</time></trkpt><trkpt lat="45.32999576699637" lon="9.433926757424427"><ele>82.66666666666666</ele><time>2026-03-29T13:25:27.999Z</time></trkpt><trkpt lat="45.32994105837718" lon="9.43413506002766"><ele>83.33333333333333</ele><time>2026-03-29T13:25:28.999Z</time></trkpt><trkpt lat="45.32989833178454" lon="9.434361050087233"><ele>84.0</ele><time>2026-03-29T13:25:29.999Z</time></trkpt><trkpt lat="45.32982581880958" lon="9.434573833809804"><ele>84.33333333333333</ele><time>2026-03-29T13:25:30.999Z</time></trkpt><trkpt lat="45.32976867331553" lon="9.434791414922673"><ele>84.66666666666666</ele><time>2026-03-29T13:25:31.999Z</time></trkpt><trkpt lat="45.329712401383084" lon="9.435005669925244"><ele>85.0</ele><time>2026-03-29T13:25:32.999Z</time></trkpt><trkpt lat="45.32965638308103" lon="9.435219397657056"><ele>85.0</ele><time>2026-03-29T13:25:33.999Z</time></trkpt><trkpt lat="45.3295977797486" lon="9.435438958830805"><ele>85.0</ele><time>2026-03-29T13:25:34.999Z</time></trkpt><trkpt lat="45.32953769240267" lon="9.435665089568657"><ele>85.0</ele><time>2026-03-29T13:25:35.999Z</time></trkpt><trkpt lat="45.32947768975613" lon="9.435893508615745"><ele>84.66666666666666</ele><time>2026-03-29T13:25:36.999Z</time></trkpt><trkpt lat="45.329418462098474" lon="9.436119936652714"><ele>84.33333333333333</ele><time>2026-03-29T13:25:38Z</time></trkpt><trkpt lat="45.329358503795596" lon="9.436348929750393"><ele>84.0</ele><time>2026-03-29T13:25:39Z</time></trkpt><trkpt lat="45.32929950553355" lon="9.436574256291308"><ele>84.0</ele><time>2026-03-29T13:25:40Z</time></trkpt><trkpt lat="45.3292446403639" lon="9.436783537373216"><ele>84.0</ele><time>2026-03-29T13:25:41Z</time></trkpt><trkpt lat="45.32918819976699" lon="9.43699783433419"><ele>84.0</ele><time>2026-03-29T13:25:42Z</time></trkpt><trkpt lat="45.329141677533705" lon="9.437234872224648"><ele>84.0</ele><time>2026-03-29T13:25:43Z</time></trkpt><trkpt lat="45.329061943198376" lon="9.437472054499455"><ele>84.0</ele><time>2026-03-29T13:25:44Z</time></trkpt><trkpt lat="45.32899790297295" lon="9.437712920908593"><ele>84.0</ele><time>2026-03-29T13:25:45Z</time></trkpt><trkpt lat="45.32893363784618" lon="9.43796098858659"><ele>84.0</ele><time>2026-03-29T13:25:46Z</time></trkpt><trkpt lat="45.328870602669426" lon="9.438208314989733"><ele>84.0</ele><time>2026-03-29T13:25:47Z</time></trkpt><trkpt lat="45.32880752383678" lon="9.438453211969394"><ele>84.0</ele><time>2026-03-29T13:25:48Z</time></trkpt><trkpt lat="45.32875825333155" lon="9.438702202331738"><ele>83.66666666666667</ele><time>2026-03-29T13:25:49Z</time></trkpt><trkpt lat="45.328697138089304" lon="9.438939806386646"><ele>83.33333333333334</ele><time>2026-03-29T13:25:50Z</time></trkpt><trkpt lat="45.32863677859932" lon="9.439177335856751"><ele>83.0</ele><time>2026-03-29T13:25:51Z</time></trkpt><trkpt lat="45.328563501177634" lon="9.439396853841718"><ele>83.0</ele><time>2026-03-29T13:25:52Z</time></trkpt><trkpt lat="45.32850926965182" lon="9.43959666516962"><ele>83.0</ele><time>2026-03-29T13:25:53Z</time></trkpt><trkpt lat="45.32845365296319" lon="9.439804553985738"><ele>83.0</ele><time>2026-03-29T13:25:54Z</time></trkpt><trkpt lat="45.328398215907505" lon="9.440011164760605"><ele>83.33333333333334</ele><time>2026-03-29T13:25:55Z</time></trkpt><trkpt lat="45.32834133345749" lon="9.440221066675264"><ele>83.66666666666667</ele><time>2026-03-29T13:25:56Z</time></trkpt><trkpt lat="45.32828239159507" lon="9.440433226607075"><ele>84.0</ele><time>2026-03-29T13:25:57Z</time></trkpt><trkpt lat="45.32822056737805" lon="9.440648368577488"><ele>84.33333333333333</ele><time>2026-03-29T13:25:58Z</time></trkpt><trkpt lat="45.32815774365596" lon="9.440866235342805"><ele>84.66666666666666</ele><time>2026-03-29T13:25:59Z</time></trkpt><trkpt lat="45.328090304340236" lon="9.44108698525295"><ele>85.0</ele><time>2026-03-29T13:26:00Z</time></trkpt><trkpt lat="45.32802496868252" lon="9.441301015351227"><ele>83.66666666666666</ele><time>2026-03-29T13:26:01Z</time></trkpt><trkpt lat="45.32797217054678" lon="9.441527952997866"><ele>82.33333333333333</ele><time>2026-03-29T13:26:02Z</time></trkpt><trkpt lat="45.32790303075093" lon="9.441732183265156"><ele>81.0</ele><time>2026-03-29T13:26:03Z</time></trkpt><trkpt lat="45.327833297656206" lon="9.441963587495447"><ele>81.33333333333333</ele><time>2026-03-29T13:26:04Z</time></trkpt><trkpt lat="45.32774551171123" lon="9.442177176149459"><ele>81.66666666666666</ele><time>2026-03-29T13:26:05Z</time></trkpt><trkpt lat="45.32767317916326" lon="9.442398392842463"><ele>82.0</ele><time>2026-03-29T13:26:06Z</time></trkpt><trkpt lat="45.32759886439986" lon="9.442627177996334"><ele>82.0</ele><time>2026-03-29T13:26:07Z</time></trkpt><trkpt lat="45.327517028397665" lon="9.44287401172108"><ele>82.0</ele><time>2026-03-29T13:26:08Z</time></trkpt><trkpt lat="45.32745113538675" lon="9.44306940764811"><ele>82.0</ele><time>2026-03-29T13:26:09Z</time></trkpt><trkpt lat="45.3273793822165" lon="9.443285254225286"><ele>82.33333333333333</ele><time>2026-03-29T13:26:10Z</time></trkpt><trkpt lat="45.32730731029215" lon="9.443504701679851"><ele>82.66666666666667</ele><time>2026-03-29T13:26:11Z</time></trkpt><trkpt lat="45.32723510605895" lon="9.443722254142815"><ele>83.0</ele><time>2026-03-29T13:26:12Z</time></trkpt><trkpt lat="45.327174827997965" lon="9.443954804680814"><ele>82.33333333333334</ele><time>2026-03-29T13:26:13Z</time></trkpt><trkpt lat="45.327103534583365" lon="9.444171837387142"><ele>81.66666666666667</ele><time>2026-03-29T13:26:14Z</time></trkpt><trkpt lat="45.32701729625395" lon="9.444377262823936"><ele>81.0</ele><time>2026-03-29T13:26:15Z</time></trkpt><trkpt lat="45.32695782888181" lon="9.444611910542045"><ele>80.66666666666667</ele><time>2026-03-29T13:26:16Z</time></trkpt><trkpt lat="45.32687712472519" lon="9.444828326717667"><ele>80.33333333333334</ele><time>2026-03-29T13:26:17Z</time></trkpt><trkpt lat="45.32680871028533" lon="9.445046925826968"><ele>80.0</ele><time>2026-03-29T13:26:18Z</time></trkpt><trkpt lat="45.326726598830064" lon="9.445280028059424"><ele>80.33333333333334</ele><time>2026-03-29T13:26:19Z</time></trkpt><trkpt lat="45.3266441332585" lon="9.445500506849703"><ele>80.66666666666667</ele><time>2026-03-29T13:26:20Z</time></trkpt><trkpt lat="45.3265871906612" lon="9.445711043564048"><ele>81.0</ele><time>2026-03-29T13:26:21Z</time></trkpt><trkpt lat="45.326517946785984" lon="9.44592884246028"><ele>81.0</ele><time>2026-03-29T13:26:22Z</time></trkpt><trkpt lat="45.32644760486495" lon="9.44614462767505"><ele>81.0</ele><time>2026-03-29T13:26:23Z</time></trkpt><trkpt lat="45.32636704525881" lon="9.446355100819014"><ele>81.0</ele><time>2026-03-29T13:26:24Z</time></trkpt><trkpt lat="45.32630073389091" lon="9.446565134477211"><ele>80.66666666666667</ele><time>2026-03-29T13:26:25Z</time></trkpt><trkpt lat="45.326241415136465" lon="9.44677387812954"><ele>80.33333333333334</ele><time>2026-03-29T13:26:26Z</time></trkpt><trkpt lat="45.326171022559414" lon="9.446977175041372"><ele>80.0</ele><time>2026-03-29T13:26:27Z</time></trkpt><trkpt lat="45.32609638499098" lon="9.447178368077065"><ele>80.0</ele><time>2026-03-29T13:26:28Z</time></trkpt><trkpt lat="45.326042483966184" lon="9.447362041034209"><ele>80.0</ele><time>2026-03-29T13:26:29Z</time></trkpt><trkpt lat="45.32597491152544" lon="9.447555535894104"><ele>80.0</ele><time>2026-03-29T13:26:30Z</time></trkpt><trkpt lat="45.325907635148106" lon="9.447745888245715"><ele>80.0</ele><time>2026-03-29T13:26:31Z</time></trkpt><trkpt lat="45.325843829081386" lon="9.447957034045373"><ele>80.0</ele><time>2026-03-29T13:26:32Z</time></trkpt><trkpt lat="45.32577444156476" lon="9.448151448784591"><ele>80.0</ele><time>2026-03-29T13:26:33Z</time></trkpt><trkpt lat="45.3257098480859" lon="9.44835127834683"><ele>80.0</ele><time>2026-03-29T13:26:34Z</time></trkpt><trkpt lat="45.32564298781732" lon="9.448558611693253"><ele>80.0</ele><time>2026-03-29T13:26:35Z</time></trkpt><trkpt lat="45.325570477334985" lon="9.448767798946031"><ele>80.0</ele><time>2026-03-29T13:26:36Z</time></trkpt><trkpt lat="45.325505780286036" lon="9.448971765996033"><ele>80.0</ele><time>2026-03-29T13:26:37Z</time></trkpt><trkpt lat="45.325435802806645" lon="9.449190757686427"><ele>80.33333333333334</ele><time>2026-03-29T13:26:38Z</time></trkpt><trkpt lat="45.32536892548031" lon="9.449402696488221"><ele>80.66666666666667</ele><time>2026-03-29T13:26:39Z</time></trkpt><trkpt lat="45.32529615917831" lon="9.449614751290804"><ele>81.0</ele><time>2026-03-29T13:26:40Z</time></trkpt><trkpt lat="45.32521971370236" lon="9.44983508820834"><ele>81.0</ele><time>2026-03-29T13:26:41Z</time></trkpt><trkpt lat="45.325150997138344" lon="9.45003586926117"><ele>81.0</ele><time>2026-03-29T13:26:42Z</time></trkpt><trkpt lat="45.32508646677311" lon="9.450268546729077"><ele>81.0</ele><time>2026-03-29T13:26:43Z</time></trkpt><trkpt lat="45.32502650506964" lon="9.450478291110597"><ele>80.66666666666667</ele><time>2026-03-29T13:26:44Z</time></trkpt><trkpt lat="45.324951334124854" lon="9.450682361414971"><ele>80.33333333333334</ele><time>2026-03-29T13:26:45Z</time></trkpt><trkpt lat="45.32490154683065" lon="9.450909015025742"><ele>80.0</ele><time>2026-03-29T13:26:45.999Z</time></trkpt><trkpt lat="45.32484021332278" lon="9.451152898818247"><ele>80.0</ele><time>2026-03-29T13:26:46.999Z</time></trkpt><trkpt lat="45.32479099984365" lon="9.45140185701497"><ele>80.0</ele><time>2026-03-29T13:26:47.999Z</time></trkpt><trkpt lat="45.324744614880416" lon="9.451641698633916"><ele>80.0</ele><time>2026-03-29T13:26:48.999Z</time></trkpt><trkpt lat="45.32469678725282" lon="9.451876791558293"><ele>80.0</ele><time>2026-03-29T13:26:49.999Z</time></trkpt><trkpt lat="45.32464696248361" lon="9.452104009315793"><ele>80.0</ele><time>2026-03-29T13:26:50.999Z</time></trkpt><trkpt lat="45.324608761786344" lon="9.452333243497035"><ele>80.0</ele><time>2026-03-29T13:26:51.999Z</time></trkpt><trkpt lat="45.32455320381347" lon="9.452551284431976"><ele>80.25</ele><time>2026-03-29T13:26:52.999Z</time></trkpt><trkpt lat="45.324521804909686" lon="9.452767467909872"><ele>80.5</ele><time>2026-03-29T13:26:53.999Z</time></trkpt><trkpt lat="45.32447750305155" lon="9.452970703335376"><ele>80.75</ele><time>2026-03-29T13:26:54.999Z</time></trkpt><trkpt lat="45.324437670510754" lon="9.453160469347601"><ele>81.0</ele><time>2026-03-29T13:26:55.999Z</time></trkpt><trkpt lat="45.32439611261289" lon="9.453334240044402"><ele>81.0</ele><time>2026-03-29T13:26:56.999Z</time></trkpt><trkpt lat="45.32436477475291" lon="9.453492027470343"><ele>81.0</ele><time>2026-03-29T13:26:57.999Z</time></trkpt><trkpt lat="45.324340967600584" lon="9.453639072552374"><ele>81.0</ele><time>2026-03-29T13:26:58.999Z</time></trkpt><trkpt lat="45.324301608770554" lon="9.453832348428582"><ele>81.0</ele><time>2026-03-29T13:26:59.999Z</time></trkpt><trkpt lat="45.32427180502539" lon="9.454001676815555"><ele>81.0</ele><time>2026-03-29T13:27:00.999Z</time></trkpt><trkpt lat="45.32423093580185" lon="9.454188819247141"><ele>81.0</ele><time>2026-03-29T13:27:01.999Z</time></trkpt><trkpt lat="45.32419291388427" lon="9.45438281238041"><ele>81.0</ele><time>2026-03-29T13:27:02.999Z</time></trkpt><trkpt lat="45.32415242304888" lon="9.454580970734822"><ele>81.0</ele><time>2026-03-29T13:27:03.999Z</time></trkpt><trkpt lat="45.32411483253512" lon="9.454782872503793"><ele>81.0</ele><time>2026-03-29T13:27:04.999Z</time></trkpt><trkpt lat="45.32406967549074" lon="9.454984203749072"><ele>81.0</ele><time>2026-03-29T13:27:05.999Z</time></trkpt><trkpt lat="45.32402894583533" lon="9.45518147108029"><ele>81.0</ele><time>2026-03-29T13:27:06.999Z</time></trkpt><trkpt lat="45.32398647261509" lon="9.455386633631731"><ele>81.0</ele><time>2026-03-29T13:27:07.999Z</time></trkpt><trkpt lat="45.323942977163256" lon="9.455585178936941"><ele>80.66666666666667</ele><time>2026-03-29T13:27:08.999Z</time></trkpt><trkpt lat="45.32389633552826" lon="9.455782711153857"><ele>80.33333333333334</ele><time>2026-03-29T13:27:09.999Z</time></trkpt><trkpt lat="45.323844371572186" lon="9.455985749981604"><ele>80.0</ele><time>2026-03-29T13:27:10.999Z</time></trkpt><trkpt lat="45.32378167761672" lon="9.456188977536689"><ele>80.33333333333334</ele><time>2026-03-29T13:27:11.999Z</time></trkpt><trkpt lat="45.323715053687565" lon="9.456379480493416"><ele>80.66666666666667</ele><time>2026-03-29T13:27:12.999Z</time></trkpt><trkpt lat="45.32364344297847" lon="9.456568132215445"><ele>81.0</ele><time>2026-03-29T13:27:13.999Z</time></trkpt><trkpt lat="45.32355659859171" lon="9.456751373641254"><ele>81.0</ele><time>2026-03-29T13:27:14.999Z</time></trkpt><trkpt lat="45.32346701886899" lon="9.456934710295206"><ele>81.0</ele><time>2026-03-29T13:27:15.999Z</time></trkpt><trkpt lat="45.323369261695454" lon="9.457121066843127"><ele>81.0</ele><time>2026-03-29T13:27:16.999Z</time></trkpt><trkpt lat="45.323250410171646" lon="9.457306131485737"><ele>81.0</ele><time>2026-03-29T13:27:17.999Z</time></trkpt><trkpt lat="45.32313083979401" lon="9.457481378879512"><ele>81.0</ele><time>2026-03-29T13:27:18.999Z</time></trkpt><trkpt lat="45.323060918669654" lon="9.457700446128708"><ele>81.0</ele><time>2026-03-29T13:27:19.999Z</time></trkpt><trkpt lat="45.322952881375976" lon="9.457895119745872"><ele>81.0</ele><time>2026-03-29T13:27:20.999Z</time></trkpt><trkpt lat="45.32285628103872" lon="9.458113517865069"><ele>81.0</ele><time>2026-03-29T13:27:21.999Z</time></trkpt><trkpt lat="45.32271925503541" lon="9.458356699100918"><ele>81.0</ele><time>2026-03-29T13:27:22.999Z</time></trkpt><trkpt lat="45.32258436176618" lon="9.458616897683777"><ele>81.0</ele><time>2026-03-29T13:27:23.999Z</time></trkpt><trkpt lat="45.32242977436374" lon="9.45889267345945"><ele>81.0</ele><time>2026-03-29T13:27:24.999Z</time></trkpt><trkpt lat="45.32227369841506" lon="9.4591770354513"><ele>81.33333333333333</ele><time>2026-03-29T13:27:25.999Z</time></trkpt><trkpt lat="45.32212234495184" lon="9.459446836897959"><ele>81.66666666666666</ele><time>2026-03-29T13:27:26.999Z</time></trkpt><trkpt lat="45.32198463439744" lon="9.459647839869168"><ele>82.0</ele><time>2026-03-29T13:27:27.999Z</time></trkpt><trkpt lat="45.32180778223475" lon="9.460011957877446"><ele>80.5</ele><time>2026-03-29T13:27:28.999Z</time></trkpt><trkpt lat="45.32165990824166" lon="9.460313023761437"><ele>79.0</ele><time>2026-03-29T13:27:29.999Z</time></trkpt><trkpt lat="45.32151310762171" lon="9.460586708610832"><ele>79.5</ele><time>2026-03-29T13:27:30.999Z</time></trkpt><trkpt lat="45.32136678457819" lon="9.460861281861336"><ele>80.0</ele><time>2026-03-29T13:27:31.999Z</time></trkpt><trkpt lat="45.321220092932485" lon="9.461138837000416"><ele>80.0</ele><time>2026-03-29T13:27:32.999Z</time></trkpt><trkpt lat="45.321075168845674" lon="9.461403982743594"><ele>80.0</ele><time>2026-03-29T13:27:33.999Z</time></trkpt><trkpt lat="45.3209232850346" lon="9.461675875898662"><ele>80.0</ele><time>2026-03-29T13:27:34.999Z</time></trkpt><trkpt lat="45.32077942138843" lon="9.461946565098428"><ele>80.0</ele><time>2026-03-29T13:27:35.999Z</time></trkpt><trkpt lat="45.32063288551878" lon="9.462223072827676"><ele>79.0</ele><time>2026-03-29T13:27:36.999Z</time></trkpt><trkpt lat="45.32047660416403" lon="9.462520677657484"><ele>78.0</ele><time>2026-03-29T13:27:37.999Z</time></trkpt><trkpt lat="45.32032745301523" lon="9.462819298627425"><ele>78.5</ele><time>2026-03-29T13:27:38.999Z</time></trkpt><trkpt lat="45.32017826206963" lon="9.463111021054722"><ele>79.0</ele><time>2026-03-29T13:27:39.999Z</time></trkpt><trkpt lat="45.32003983144056" lon="9.463402821961667"><ele>79.0</ele><time>2026-03-29T13:27:40.999Z</time></trkpt><trkpt lat="45.319911677000015" lon="9.463698960718505"><ele>79.0</ele><time>2026-03-29T13:27:41.999Z</time></trkpt><trkpt lat="45.31978247786017" lon="9.464000755450408"><ele>78.5</ele><time>2026-03-29T13:27:42.999Z</time></trkpt><trkpt lat="45.31965758320157" lon="9.464307482806696"><ele>78.0</ele><time>2026-03-29T13:27:44Z</time></trkpt><trkpt lat="45.31953787799614" lon="9.464639292459594"><ele>78.0</ele><time>2026-03-29T13:27:45Z</time></trkpt><trkpt lat="45.31943296846805" lon="9.46496580184791"><ele>78.0</ele><time>2026-03-29T13:27:46Z</time></trkpt><trkpt lat="45.31932841660925" lon="9.465292366740677"><ele>77.5</ele><time>2026-03-29T13:27:47Z</time></trkpt><trkpt lat="45.319219154745845" lon="9.465614491551266"><ele>77.0</ele><time>2026-03-29T13:27:48Z</time></trkpt><trkpt lat="45.319108006640924" lon="9.465941633666704"><ele>77.0</ele><time>2026-03-29T13:27:49Z</time></trkpt><trkpt lat="45.318999625560124" lon="9.466260874461124"><ele>77.0</ele><time>2026-03-29T13:27:50Z</time></trkpt><trkpt lat="45.31889888392273" lon="9.466588122702339"><ele>77.0</ele><time>2026-03-29T13:27:51Z</time></trkpt><trkpt lat="45.318795179974394" lon="9.46691796926852"><ele>77.0</ele><time>2026-03-29T13:27:52Z</time></trkpt><trkpt lat="45.318692865212725" lon="9.467242146632614"><ele>75.5</ele><time>2026-03-29T13:27:53Z</time></trkpt><trkpt lat="45.318586987806256" lon="9.467565094246446"><ele>74.0</ele><time>2026-03-29T13:27:54Z</time></trkpt><trkpt lat="45.31847756287763" lon="9.467888390738157"><ele>73.5</ele><time>2026-03-29T13:27:55Z</time></trkpt><trkpt lat="45.31838241717761" lon="9.468199857083917"><ele>73.0</ele><time>2026-03-29T13:27:56Z</time></trkpt><trkpt lat="45.31828675771446" lon="9.468513767137328"><ele>74.0</ele><time>2026-03-29T13:27:57Z</time></trkpt><trkpt lat="45.31818828677554" lon="9.468835609886892"><ele>75.0</ele><time>2026-03-29T13:27:58Z</time></trkpt><trkpt lat="45.31809186711198" lon="9.469126964374729"><ele>76.0</ele><time>2026-03-29T13:27:59Z</time></trkpt><trkpt lat="45.31798847196538" lon="9.469426428284006"><ele>77.0</ele><time>2026-03-29T13:28:00Z</time></trkpt><trkpt lat="45.31788898793113" lon="9.469708910192166"><ele>77.0</ele><time>2026-03-29T13:28:01Z</time></trkpt><trkpt lat="45.31778354505462" lon="9.469979982022306"><ele>77.0</ele><time>2026-03-29T13:28:02Z</time></trkpt><trkpt lat="45.31766720552487" lon="9.470257515375039"><ele>77.0</ele><time>2026-03-29T13:28:03Z</time></trkpt><trkpt lat="45.31753645908532" lon="9.470515284377038"><ele>77.0</ele><time>2026-03-29T13:28:04Z</time></trkpt><trkpt lat="45.31738821936595" lon="9.470768864816726"><ele>77.0</ele><time>2026-03-29T13:28:05Z</time></trkpt><trkpt lat="45.3172331161446" lon="9.470996646132637"><ele>76.66666666666667</ele><time>2026-03-29T13:28:06Z</time></trkpt><trkpt lat="45.31706986511879" lon="9.471215306904433"><ele>76.33333333333333</ele><time>2026-03-29T13:28:07Z</time></trkpt><trkpt lat="45.31690399719884" lon="9.471418637029537"><ele>76.0</ele><time>2026-03-29T13:28:08Z</time></trkpt><trkpt lat="45.31673173615795" lon="9.471639835039143"><ele>76.0</ele><time>2026-03-29T13:28:09Z</time></trkpt><trkpt lat="45.316559794282135" lon="9.47183112348611"><ele>76.0</ele><time>2026-03-29T13:28:10Z</time></trkpt><trkpt lat="45.31637623837271" lon="9.472015584306739"><ele>76.0</ele><time>2026-03-29T13:28:11Z</time></trkpt><trkpt lat="45.31618862054742" lon="9.472174228060519"><ele>77.0</ele><time>2026-03-29T13:28:12Z</time></trkpt><trkpt lat="45.3159968435229" lon="9.472320394722207"><ele>78.0</ele><time>2026-03-29T13:28:13Z</time></trkpt><trkpt lat="45.31579442033502" lon="9.472442236827932"><ele>79.0</ele><time>2026-03-29T13:28:14Z</time></trkpt><trkpt lat="45.31557894172101" lon="9.472554174518505"><ele>77.5</ele><time>2026-03-29T13:28:15Z</time></trkpt><trkpt lat="45.31535077629611" lon="9.472654656011935"><ele>76.0</ele><time>2026-03-29T13:28:16Z</time></trkpt><trkpt lat="45.315125087293154" lon="9.472738661878621"><ele>76.0</ele><time>2026-03-29T13:28:17Z</time></trkpt><trkpt lat="45.31488937209386" lon="9.472811211130233"><ele>76.0</ele><time>2026-03-29T13:28:18Z</time></trkpt><trkpt lat="45.31465574744099" lon="9.472881852223228"><ele>77.0</ele><time>2026-03-29T13:28:19Z</time></trkpt><trkpt lat="45.31440867372039" lon="9.472936146966513"><ele>78.0</ele><time>2026-03-29T13:28:20Z</time></trkpt><trkpt lat="45.314154408725926" lon="9.472983109109418"><ele>78.5</ele><time>2026-03-29T13:28:21Z</time></trkpt><trkpt lat="45.31389372935752" lon="9.473044882082819"><ele>79.0</ele><time>2026-03-29T13:28:22Z</time></trkpt><trkpt lat="45.31363138213002" lon="9.473068568055949"><ele>79.0</ele><time>2026-03-29T13:28:23Z</time></trkpt><trkpt lat="45.3133859100262" lon="9.473109056204203"><ele>79.0</ele><time>2026-03-29T13:28:24Z</time></trkpt><trkpt lat="45.31314658398613" lon="9.473149674614355"><ele>79.0</ele><time>2026-03-29T13:28:25Z</time></trkpt><trkpt lat="45.31290879703202" lon="9.473192201548448"><ele>79.0</ele><time>2026-03-29T13:28:26Z</time></trkpt><trkpt lat="45.31267255473467" lon="9.47323363659341"><ele>79.0</ele><time>2026-03-29T13:28:27Z</time></trkpt><trkpt lat="45.31243615691283" lon="9.473272979293053"><ele>79.0</ele><time>2026-03-29T13:28:28Z</time></trkpt><trkpt lat="45.312195811780825" lon="9.473315284334527"><ele>79.5</ele><time>2026-03-29T13:28:29Z</time></trkpt><trkpt lat="45.31196358937772" lon="9.473356195554649"><ele>80.0</ele><time>2026-03-29T13:28:30Z</time></trkpt><trkpt lat="45.31172935983386" lon="9.473398831423047"><ele>80.0</ele><time>2026-03-29T13:28:31Z</time></trkpt><trkpt lat="45.311501298180325" lon="9.473441634657432"><ele>80.0</ele><time>2026-03-29T13:28:32Z</time></trkpt><trkpt lat="45.311273149125135" lon="9.473486184432225"><ele>79.33333333333334</ele><time>2026-03-29T13:28:33Z</time></trkpt><trkpt lat="45.31105163774969" lon="9.473518259861592"><ele>78.66666666666667</ele><time>2026-03-29T13:28:34Z</time></trkpt><trkpt lat="45.31083417942688" lon="9.473556952006886"><ele>78.0</ele><time>2026-03-29T13:28:35Z</time></trkpt><trkpt lat="45.31060845683425" lon="9.473599885537322"><ele>78.0</ele><time>2026-03-29T13:28:36Z</time></trkpt><trkpt lat="45.310393264548374" lon="9.47363535081826"><ele>78.0</ele><time>2026-03-29T13:28:37Z</time></trkpt><trkpt lat="45.31017236427663" lon="9.473669845691418"><ele>78.0</ele><time>2026-03-29T13:28:38Z</time></trkpt><trkpt lat="45.309947198899806" lon="9.473716448504089"><ele>77.0</ele><time>2026-03-29T13:28:39Z</time></trkpt><trkpt lat="45.30973485757496" lon="9.473749710985132"><ele>76.0</ele><time>2026-03-29T13:28:40Z</time></trkpt><trkpt lat="45.309515702026836" lon="9.473794178491657"><ele>75.0</ele><time>2026-03-29T13:28:41Z</time></trkpt><trkpt lat="45.3093034546761" lon="9.473849310468543"><ele>75.0</ele><time>2026-03-29T13:28:42Z</time></trkpt><trkpt lat="45.30909606028632" lon="9.473925246893883"><ele>75.0</ele><time>2026-03-29T13:28:43Z</time></trkpt><trkpt lat="45.308870852982345" lon="9.474031880116145"><ele>75.5</ele><time>2026-03-29T13:28:44Z</time></trkpt><trkpt lat="45.30865505871564" lon="9.474147682758693"><ele>76.0</ele><time>2026-03-29T13:28:45Z</time></trkpt><trkpt lat="45.30843999922723" lon="9.474285125972942"><ele>76.0</ele><time>2026-03-29T13:28:46Z</time></trkpt><trkpt lat="45.30822820420128" lon="9.474429275192938"><ele>76.0</ele><time>2026-03-29T13:28:47Z</time></trkpt><trkpt lat="45.30802277662687" lon="9.474582771349938"><ele>75.5</ele><time>2026-03-29T13:28:48Z</time></trkpt><trkpt lat="45.30782374196293" lon="9.47474818705084"><ele>75.0</ele><time>2026-03-29T13:28:49Z</time></trkpt><trkpt lat="45.30763440863419" lon="9.474911016354353"><ele>75.0</ele><time>2026-03-29T13:28:50Z</time></trkpt><trkpt lat="45.30745103893191" lon="9.47511272719459"><ele>75.0</ele><time>2026-03-29T13:28:51Z</time></trkpt><trkpt lat="45.30727806506598" lon="9.475308813205631"><ele>76.0</ele><time>2026-03-29T13:28:51.999Z</time></trkpt><trkpt lat="45.307127525923505" lon="9.475525247036265"><ele>77.0</ele><time>2026-03-29T13:28:52.999Z</time></trkpt><trkpt lat="45.30695762588072" lon="9.475756936848207"><ele>78.0</ele><time>2026-03-29T13:28:53.999Z</time></trkpt><trkpt lat="45.30680325830904" lon="9.475982190954152"><ele>78.0</ele><time>2026-03-29T13:28:54.999Z</time></trkpt><trkpt lat="45.30666151974893" lon="9.476211977045077"><ele>78.0</ele><time>2026-03-29T13:28:55.999Z</time></trkpt><trkpt lat="45.30651613523822" lon="9.476464522598326"><ele>78.0</ele><time>2026-03-29T13:28:56.999Z</time></trkpt><trkpt lat="45.30637974695295" lon="9.476722330385714"><ele>77.5</ele><time>2026-03-29T13:28:57.999Z</time></trkpt><trkpt lat="45.306246939781026" lon="9.476965929481569"><ele>77.0</ele><time>2026-03-29T13:28:58.999Z</time></trkpt><trkpt lat="45.306127473221046" lon="9.477253213611217"><ele>77.0</ele><time>2026-03-29T13:28:59.999Z</time></trkpt><trkpt lat="45.30600056729266" lon="9.477564195928156"><ele>77.0</ele><time>2026-03-29T13:29:00.999Z</time></trkpt><trkpt lat="45.305872207681595" lon="9.47788468015715"><ele>77.5</ele><time>2026-03-29T13:29:01.999Z</time></trkpt><trkpt lat="45.30573591788243" lon="9.47820555408734"><ele>78.0</ele><time>2026-03-29T13:29:02.999Z</time></trkpt><trkpt lat="45.3056017099184" lon="9.4785196100854"><ele>77.0</ele><time>2026-03-29T13:29:03.999Z</time></trkpt><trkpt lat="45.30547480688505" lon="9.478816089494195"><ele>76.0</ele><time>2026-03-29T13:29:04.999Z</time></trkpt><trkpt lat="45.305351060632944" lon="9.47909418626555"><ele>76.0</ele><time>2026-03-29T13:29:05.999Z</time></trkpt><trkpt lat="45.30522335501752" lon="9.47937421024878"><ele>76.0</ele><time>2026-03-29T13:29:06.999Z</time></trkpt><trkpt lat="45.30507805108822" lon="9.479649148226615"><ele>76.5</ele><time>2026-03-29T13:29:07.999Z</time></trkpt><trkpt lat="45.30492049782847" lon="9.479906020848718"><ele>77.0</ele><time>2026-03-29T13:29:08.999Z</time></trkpt><trkpt lat="45.304754598499926" lon="9.48016876888491"><ele>76.5</ele><time>2026-03-29T13:29:09.999Z</time></trkpt><trkpt lat="45.304583252529554" lon="9.480430186256376"><ele>76.0</ele><time>2026-03-29T13:29:10.999Z</time></trkpt><trkpt lat="45.30442173057641" lon="9.480699568886"><ele>76.0</ele><time>2026-03-29T13:29:11.999Z</time></trkpt><trkpt lat="45.30426430229291" lon="9.480960198436028"><ele>76.0</ele><time>2026-03-29T13:29:12.999Z</time></trkpt><trkpt lat="45.30410345052251" lon="9.481219821110672"><ele>76.0</ele><time>2026-03-29T13:29:13.999Z</time></trkpt><trkpt lat="45.3039405249781" lon="9.481477703958674"><ele>76.0</ele><time>2026-03-29T13:29:14.999Z</time></trkpt><trkpt lat="45.30377547128539" lon="9.481742397313845"><ele>75.0</ele><time>2026-03-29T13:29:15.999Z</time></trkpt><trkpt lat="45.303621540812316" lon="9.482017132852308"><ele>74.0</ele><time>2026-03-29T13:29:16.999Z</time></trkpt><trkpt lat="45.303454758070764" lon="9.482289533648544"><ele>76.0</ele><time>2026-03-29T13:29:17.999Z</time></trkpt><trkpt lat="45.303281479212856" lon="9.48256437604735"><ele>78.0</ele><time>2026-03-29T13:29:18.999Z</time></trkpt><trkpt lat="45.303111737051005" lon="9.482831960705976"><ele>77.0</ele><time>2026-03-29T13:29:19.999Z</time></trkpt><trkpt lat="45.30294384061209" lon="9.483095208555701"><ele>76.0</ele><time>2026-03-29T13:29:20.999Z</time></trkpt><trkpt lat="45.302765871516065" lon="9.483356289411281"><ele>76.0</ele><time>2026-03-29T13:29:21.999Z</time></trkpt><trkpt lat="45.302588385753175" lon="9.483624628257099"><ele>76.0</ele><time>2026-03-29T13:29:22.999Z</time></trkpt><trkpt lat="45.30240834422221" lon="9.483911174153823"><ele>75.0</ele><time>2026-03-29T13:29:23.999Z</time></trkpt><trkpt lat="45.30224194377567" lon="9.484183988155383"><ele>74.0</ele><time>2026-03-29T13:29:24.999Z</time></trkpt><trkpt lat="45.30208896596732" lon="9.484442858928702"><ele>75.5</ele><time>2026-03-29T13:29:25.999Z</time></trkpt><trkpt lat="45.30193764008677" lon="9.484699251327523"><ele>77.0</ele><time>2026-03-29T13:29:26.999Z</time></trkpt><trkpt lat="45.30179271206756" lon="9.484952979755073"><ele>77.0</ele><time>2026-03-29T13:29:27.999Z</time></trkpt><trkpt lat="45.30165714922506" lon="9.485204924967848"><ele>77.0</ele><time>2026-03-29T13:29:28.999Z</time></trkpt><trkpt lat="45.301528219865844" lon="9.485459466766276"><ele>77.0</ele><time>2026-03-29T13:29:29.999Z</time></trkpt><trkpt lat="45.301405424091485" lon="9.48572014799533"><ele>76.0</ele><time>2026-03-29T13:29:30.999Z</time></trkpt><trkpt lat="45.30128198540128" lon="9.48598752618562"><ele>75.0</ele><time>2026-03-29T13:29:31.999Z</time></trkpt><trkpt lat="45.30116079468823" lon="9.486261604408973"><ele>75.0</ele><time>2026-03-29T13:29:32.999Z</time></trkpt><trkpt lat="45.30104553968363" lon="9.486542058568132"><ele>75.0</ele><time>2026-03-29T13:29:33.999Z</time></trkpt><trkpt lat="45.30093377333229" lon="9.486830282074216"><ele>76.0</ele><time>2026-03-29T13:29:34.999Z</time></trkpt><trkpt lat="45.3008261656122" lon="9.487127720177725"><ele>77.0</ele><time>2026-03-29T13:29:35.999Z</time></trkpt><trkpt lat="45.300724000084585" lon="9.487425841596052"><ele>77.0</ele><time>2026-03-29T13:29:36.999Z</time></trkpt><trkpt lat="45.30062077794554" lon="9.487729719425237"><ele>77.0</ele><time>2026-03-29T13:29:37.999Z</time></trkpt><trkpt lat="45.300517715755774" lon="9.488032725161359"><ele>75.5</ele><time>2026-03-29T13:29:38.999Z</time></trkpt><trkpt lat="45.30041466648401" lon="9.488334904908463"><ele>74.0</ele><time>2026-03-29T13:29:39.999Z</time></trkpt><trkpt lat="45.30031333741994" lon="9.488639339108827"><ele>74.0</ele><time>2026-03-29T13:29:40.999Z</time></trkpt><trkpt lat="45.30021197780854" lon="9.488935867836924"><ele>74.0</ele><time>2026-03-29T13:29:41.999Z</time></trkpt><trkpt lat="45.30010840098322" lon="9.489236703730116"><ele>74.0</ele><time>2026-03-29T13:29:42.999Z</time></trkpt><trkpt lat="45.30000964413333" lon="9.489535572269999"><ele>74.0</ele><time>2026-03-29T13:29:43.999Z</time></trkpt><trkpt lat="45.29991592401318" lon="9.489821271270376"><ele>74.0</ele><time>2026-03-29T13:29:44.999Z</time></trkpt><trkpt lat="45.29981431596134" lon="9.490102791492633"><ele>74.0</ele><time>2026-03-29T13:29:45.999Z</time></trkpt><trkpt lat="45.29972321026947" lon="9.490407391260641"><ele>74.33333333333334</ele><time>2026-03-29T13:29:46.999Z</time></trkpt><trkpt lat="45.29964364360885" lon="9.490707471725225"><ele>74.66666666666667</ele><time>2026-03-29T13:29:47.999Z</time></trkpt><trkpt lat="45.29957907230948" lon="9.491012112837971"><ele>75.0</ele><time>2026-03-29T13:29:48.999Z</time></trkpt><trkpt lat="45.299523653048546" lon="9.49133402919977"><ele>76.5</ele><time>2026-03-29T13:29:50Z</time></trkpt><trkpt lat="45.2994689298688" lon="9.49164953863473"><ele>78.0</ele><time>2026-03-29T13:29:51Z</time></trkpt><trkpt lat="45.29941477975813" lon="9.491970141167732"><ele>77.0</ele><time>2026-03-29T13:29:52Z</time></trkpt><trkpt lat="45.29935247417591" lon="9.492288412880031"><ele>76.0</ele><time>2026-03-29T13:29:53Z</time></trkpt><trkpt lat="45.29929157508543" lon="9.492614150225485"><ele>76.0</ele><time>2026-03-29T13:29:54Z</time></trkpt><trkpt lat="45.29923758375219" lon="9.492934284263713"><ele>76.0</ele><time>2026-03-29T13:29:55Z</time></trkpt><trkpt lat="45.2991800438023" lon="9.493253606936754"><ele>76.0</ele><time>2026-03-29T13:29:56Z</time></trkpt><trkpt lat="45.299117284813484" lon="9.493573306117847"><ele>76.0</ele><time>2026-03-29T13:29:57Z</time></trkpt><trkpt lat="45.299038896336704" lon="9.493918930368107"><ele>76.5</ele><time>2026-03-29T13:29:58Z</time></trkpt><trkpt lat="45.29897975055729" lon="9.494252779789312"><ele>77.0</ele><time>2026-03-29T13:29:59Z</time></trkpt><trkpt lat="45.298927823779124" lon="9.494565589102896"><ele>76.5</ele><time>2026-03-29T13:30:00Z</time></trkpt><trkpt lat="45.29885557243604" lon="9.494911346784958"><ele>76.0</ele><time>2026-03-29T13:30:01Z</time></trkpt><trkpt lat="45.29879759795358" lon="9.495254359721544"><ele>75.5</ele><time>2026-03-29T13:30:02Z</time></trkpt><trkpt lat="45.298734774286245" lon="9.495586225655398"><ele>75.0</ele><time>2026-03-29T13:30:03Z</time></trkpt><trkpt lat="45.298669511362824" lon="9.495930162005797"><ele>75.5</ele><time>2026-03-29T13:30:04Z</time></trkpt><trkpt lat="45.29860483594416" lon="9.49627169732602"><ele>76.0</ele><time>2026-03-29T13:30:05Z</time></trkpt><trkpt lat="45.2985401720905" lon="9.496609379813677"><ele>76.0</ele><time>2026-03-29T13:30:06Z</time></trkpt><trkpt lat="45.298475827779704" lon="9.49694111960988"><ele>76.0</ele><time>2026-03-29T13:30:07Z</time></trkpt><trkpt lat="45.29841944378438" lon="9.497260059432207"><ele>76.0</ele><time>2026-03-29T13:30:08Z</time></trkpt><trkpt lat="45.2983583142713" lon="9.497585794148963"><ele>76.0</ele><time>2026-03-29T13:30:09Z</time></trkpt><trkpt lat="45.298292109903954" lon="9.497920256877755"><ele>76.5</ele><time>2026-03-29T13:30:10Z</time></trkpt><trkpt lat="45.298231376068784" lon="9.498249142892865"><ele>77.0</ele><time>2026-03-29T13:30:11Z</time></trkpt><trkpt lat="45.298166928749026" lon="9.498574909739423"><ele>78.0</ele><time>2026-03-29T13:30:12Z</time></trkpt><trkpt lat="45.298108193579644" lon="9.49890272064571"><ele>79.0</ele><time>2026-03-29T13:30:13Z</time></trkpt><trkpt lat="45.29804759178526" lon="9.499226427165464"><ele>77.0</ele><time>2026-03-29T13:30:14Z</time></trkpt><trkpt lat="45.29798990142684" lon="9.49955073187627"><ele>75.0</ele><time>2026-03-29T13:30:15Z</time></trkpt><trkpt lat="45.297931598590026" lon="9.499887534312197"><ele>75.0</ele><time>2026-03-29T13:30:16Z</time></trkpt><trkpt lat="45.297873459781414" lon="9.50020325447511"><ele>75.0</ele><time>2026-03-29T13:30:17Z</time></trkpt><trkpt lat="45.29782245846226" lon="9.50048932983888"><ele>75.0</ele><time>2026-03-29T13:30:18Z</time></trkpt><trkpt lat="45.297788094195255" lon="9.500747564835393"><ele>75.33333333333333</ele><time>2026-03-29T13:30:19Z</time></trkpt><trkpt lat="45.29777940448944" lon="9.501001022416128"><ele>75.66666666666666</ele><time>2026-03-29T13:30:20Z</time></trkpt><trkpt lat="45.297799328284924" lon="9.501241253175376"><ele>76.0</ele><time>2026-03-29T13:30:21Z</time></trkpt><trkpt lat="45.29763617056716" lon="9.501436598129027"><ele>76.0</ele><time>2026-03-29T13:30:22Z</time></trkpt><trkpt lat="45.297598197751924" lon="9.501626302611312"><ele>76.0</ele><time>2026-03-29T13:30:23Z</time></trkpt><trkpt lat="45.29756709294413" lon="9.501806082049058"><ele>76.0</ele><time>2026-03-29T13:30:24Z</time></trkpt><trkpt lat="45.297532865779324" lon="9.50198255350502"><ele>76.0</ele><time>2026-03-29T13:30:25Z</time></trkpt><trkpt lat="45.2975014817159" lon="9.502159491543066"><ele>76.0</ele><time>2026-03-29T13:30:26Z</time></trkpt><trkpt lat="45.29746799253813" lon="9.502322212915514"><ele>76.0</ele><time>2026-03-29T13:30:27Z</time></trkpt><trkpt lat="45.29743397833356" lon="9.502461987930051"><ele>76.0</ele><time>2026-03-29T13:30:28Z</time></trkpt><trkpt lat="45.297399843548206" lon="9.50256892305531"><ele>76.0</ele><time>2026-03-29T13:30:29Z</time></trkpt><trkpt lat="45.29735997918577" lon="9.502664257202971"><ele>76.0</ele><time>2026-03-29T13:30:30Z</time></trkpt><trkpt lat="45.29730596642661" lon="9.502746163673107"><ele>75.8</ele><time>2026-03-29T13:30:31Z</time></trkpt><trkpt lat="45.29723312653164" lon="9.502830757638094"><ele>75.6</ele><time>2026-03-29T13:30:32Z</time></trkpt><trkpt lat="45.29717244834502" lon="9.502950212472026"><ele>75.4</ele><time>2026-03-29T13:30:33Z</time></trkpt><trkpt lat="45.297148813086224" lon="9.503080442089413"><ele>75.2</ele><time>2026-03-29T13:30:34Z</time></trkpt><trkpt lat="45.297145119252995" lon="9.503234211383026"><ele>75.0</ele><time>2026-03-29T13:30:35Z</time></trkpt><trkpt lat="45.297166519019555" lon="9.503402827045834"><ele>75.0</ele><time>2026-03-29T13:30:36Z</time></trkpt><trkpt lat="45.29720058257492" lon="9.50357722674897"><ele>75.0</ele><time>2026-03-29T13:30:37Z</time></trkpt><trkpt lat="45.29720845918902" lon="9.5037893395881"><ele>75.0</ele><time>2026-03-29T13:30:38Z</time></trkpt><trkpt lat="45.29718297398632" lon="9.504008845858593"><ele>75.0</ele><time>2026-03-29T13:30:39Z</time></trkpt><trkpt lat="45.2971396959919" lon="9.504224374786707"><ele>75.25</ele><time>2026-03-29T13:30:40Z</time></trkpt><trkpt lat="45.29709555428119" lon="9.504421341137238"><ele>75.5</ele><time>2026-03-29T13:30:41Z</time></trkpt><trkpt lat="45.29705502680672" lon="9.504621148242611"><ele>75.75</ele><time>2026-03-29T13:30:42Z</time></trkpt><trkpt lat="45.29701484349416" lon="9.504810409357516"><ele>76.0</ele><time>2026-03-29T13:30:43Z</time></trkpt><trkpt lat="45.29697839404783" lon="9.505021095056462"><ele>76.0</ele><time>2026-03-29T13:30:44Z</time></trkpt><trkpt lat="45.29693882485331" lon="9.505236576028494"><ele>76.0</ele><time>2026-03-29T13:30:45Z</time></trkpt><trkpt lat="45.296894874656815" lon="9.505475827483476"><ele>76.0</ele><time>2026-03-29T13:30:46Z</time></trkpt><trkpt lat="45.29684835998754" lon="9.505724537626643"><ele>75.66666666666666</ele><time>2026-03-29T13:30:47Z</time></trkpt><trkpt lat="45.29679703877666" lon="9.50599595866406"><ele>75.33333333333333</ele><time>2026-03-29T13:30:48Z</time></trkpt><trkpt lat="45.29674338845042" lon="9.50626905328251"><ele>75.0</ele><time>2026-03-29T13:30:49Z</time></trkpt><trkpt lat="45.29669411297853" lon="9.506564804466807"><ele>75.0</ele><time>2026-03-29T13:30:50Z</time></trkpt><trkpt lat="45.2966349005587" lon="9.506886811777786"><ele>75.0</ele><time>2026-03-29T13:30:51Z</time></trkpt><trkpt lat="45.296570682034286" lon="9.507228872878157"><ele>75.5</ele><time>2026-03-29T13:30:52Z</time></trkpt><trkpt lat="45.296506789147145" lon="9.507553048087928"><ele>76.0</ele><time>2026-03-29T13:30:53Z</time></trkpt><trkpt lat="45.29644325461276" lon="9.507886572124415"><ele>75.5</ele><time>2026-03-29T13:30:54Z</time></trkpt><trkpt lat="45.29638138436828" lon="9.50822012309569"><ele>75.0</ele><time>2026-03-29T13:30:55Z</time></trkpt><trkpt lat="45.296323680152604" lon="9.508574486599523"><ele>74.5</ele><time>2026-03-29T13:30:56Z</time></trkpt><trkpt lat="45.29626358830326" lon="9.508946913390817"><ele>74.0</ele><time>2026-03-29T13:30:57Z</time></trkpt><trkpt lat="45.29619439998499" lon="9.509319474351978"><ele>74.5</ele><time>2026-03-29T13:30:58Z</time></trkpt><trkpt lat="45.29612445911666" lon="9.509686660236024"><ele>75.0</ele><time>2026-03-29T13:30:58.999Z</time></trkpt><trkpt lat="45.29605095042621" lon="9.510054381078735"><ele>75.0</ele><time>2026-03-29T13:30:59.999Z</time></trkpt><trkpt lat="45.295974937261995" lon="9.51046388683618"><ele>75.0</ele><time>2026-03-29T13:31:00.999Z</time></trkpt><trkpt lat="45.29589840653203" lon="9.510844066470279"><ele>75.0</ele><time>2026-03-29T13:31:01.999Z</time></trkpt><trkpt lat="45.29583715820322" lon="9.511182211734218"><ele>75.0</ele><time>2026-03-29T13:31:02.999Z</time></trkpt><trkpt lat="45.29576952792457" lon="9.511497445103206"><ele>75.33333333333333</ele><time>2026-03-29T13:31:03.999Z</time></trkpt><trkpt lat="45.295715404500804" lon="9.51180655169763"><ele>75.66666666666666</ele><time>2026-03-29T13:31:04.999Z</time></trkpt><trkpt lat="45.295651540335" lon="9.512109441051138"><ele>76.0</ele><time>2026-03-29T13:31:05.999Z</time></trkpt><trkpt lat="45.295589588422786" lon="9.512409898726105"><ele>75.66666666666666</ele><time>2026-03-29T13:31:06.999Z</time></trkpt><trkpt lat="45.29553021210885" lon="9.512700467536803"><ele>75.33333333333333</ele><time>2026-03-29T13:31:07.999Z</time></trkpt><trkpt lat="45.29547612475303" lon="9.512993402882499"><ele>75.0</ele><time>2026-03-29T13:31:08.999Z</time></trkpt><trkpt lat="45.295422411180816" lon="9.513279195966216"><ele>74.66666666666667</ele><time>2026-03-29T13:31:09.999Z</time></trkpt><trkpt lat="45.29536927105128" lon="9.513563770153496"><ele>74.33333333333334</ele><time>2026-03-29T13:31:10.999Z</time></trkpt><trkpt lat="45.29531155307077" lon="9.51385385572968"><ele>74.0</ele><time>2026-03-29T13:31:11.999Z</time></trkpt><trkpt lat="45.29525589639166" lon="9.514136056282183"><ele>75.0</ele><time>2026-03-29T13:31:12.999Z</time></trkpt><trkpt lat="45.29520786350182" lon="9.514435259048824"><ele>76.0</ele><time>2026-03-29T13:31:13.999Z</time></trkpt><trkpt lat="45.29514330238145" lon="9.514719028808274"><ele>77.0</ele><time>2026-03-29T13:31:14.999Z</time></trkpt><trkpt lat="45.295097484268254" lon="9.51498321142522"><ele>77.0</ele><time>2026-03-29T13:31:15.999Z</time></trkpt><trkpt lat="45.29505072039919" lon="9.515246247156192"><ele>77.0</ele><time>2026-03-29T13:31:16.999Z</time></trkpt><trkpt lat="45.29500438036742" lon="9.515499604472684"><ele>77.0</ele><time>2026-03-29T13:31:17.999Z</time></trkpt><trkpt lat="45.294958335361294" lon="9.515760426300112"><ele>77.0</ele><time>2026-03-29T13:31:18.999Z</time></trkpt><trkpt lat="45.294907927057565" lon="9.516041028789337"><ele>77.0</ele><time>2026-03-29T13:31:19.999Z</time></trkpt><trkpt lat="45.29485754280081" lon="9.51631578655728"><ele>77.0</ele><time>2026-03-29T13:31:20.999Z</time></trkpt><trkpt lat="45.294804885944686" lon="9.51658781194184"><ele>77.0</ele><time>2026-03-29T13:31:21.999Z</time></trkpt><trkpt lat="45.2947523945107" lon="9.516851447745312"><ele>77.0</ele><time>2026-03-29T13:31:22.999Z</time></trkpt><trkpt lat="45.29471346145884" lon="9.517099627158792"><ele>77.0</ele><time>2026-03-29T13:31:23.999Z</time></trkpt><trkpt lat="45.29469890563471" lon="9.517330737242649"><ele>76.33333333333334</ele><time>2026-03-29T13:31:24.999Z</time></trkpt><trkpt lat="45.294644718417125" lon="9.517557334606513"><ele>75.66666666666667</ele><time>2026-03-29T13:31:25.999Z</time></trkpt><trkpt lat="45.29459985272398" lon="9.517792218271785"><ele>75.0</ele><time>2026-03-29T13:31:26.999Z</time></trkpt><trkpt lat="45.294557286629555" lon="9.518033923160148"><ele>74.66666666666667</ele><time>2026-03-29T13:31:27.999Z</time></trkpt><trkpt lat="45.29450368468171" lon="9.518285899126639"><ele>74.33333333333334</ele><time>2026-03-29T13:31:28.999Z</time></trkpt><trkpt lat="45.29444442686726" lon="9.518526600843835"><ele>74.0</ele><time>2026-03-29T13:31:29.999Z</time></trkpt><trkpt lat="45.29438241543019" lon="9.51875199489468"><ele>73.66666666666667</ele><time>2026-03-29T13:31:30.999Z</time></trkpt><trkpt lat="45.29431363677451" lon="9.518984770545188"><ele>73.33333333333333</ele><time>2026-03-29T13:31:31.999Z</time></trkpt><trkpt lat="45.294269729684046" lon="9.519184757410876"><ele>73.0</ele><time>2026-03-29T13:31:32.999Z</time></trkpt><trkpt lat="45.294207532132056" lon="9.519430945122284"><ele>73.33333333333333</ele><time>2026-03-29T13:31:33.999Z</time></trkpt><trkpt lat="45.294165076946435" lon="9.519651482274183"><ele>73.66666666666667</ele><time>2026-03-29T13:31:34.999Z</time></trkpt><trkpt lat="45.29414432365464" lon="9.519879739446463"><ele>74.0</ele><time>2026-03-29T13:31:35.999Z</time></trkpt><trkpt lat="45.29413912698315" lon="9.520111870398024"><ele>74.0</ele><time>2026-03-29T13:31:36.999Z</time></trkpt><trkpt lat="45.294147848630736" lon="9.520306803661507"><ele>74.0</ele><time>2026-03-29T13:31:37.999Z</time></trkpt><trkpt lat="45.294161223928505" lon="9.520496386504472"><ele>74.0</ele><time>2026-03-29T13:31:38.999Z</time></trkpt><trkpt lat="45.294178246687096" lon="9.520681502023454"><ele>74.0</ele><time>2026-03-29T13:31:39.999Z</time></trkpt><trkpt lat="45.294191948267894" lon="9.520868775578414"><ele>74.0</ele><time>2026-03-29T13:31:40.999Z</time></trkpt><trkpt lat="45.294205130561075" lon="9.52105351312263"><ele>74.0</ele><time>2026-03-29T13:31:41.999Z</time></trkpt><trkpt lat="45.29421480861393" lon="9.521210092708172"><ele>74.0</ele><time>2026-03-29T13:31:42.999Z</time></trkpt><trkpt lat="45.294212283720725" lon="9.521343754511124"><ele>74.0</ele><time>2026-03-29T13:31:43.999Z</time></trkpt><trkpt lat="45.29421460466951" lon="9.521474009844235"><ele>74.0</ele><time>2026-03-29T13:31:44.999Z</time></trkpt><trkpt lat="45.29422488512987" lon="9.521570095721776"><ele>74.0</ele><time>2026-03-29T13:31:45.999Z</time></trkpt><trkpt lat="45.29422112643886" lon="9.521697117391367"><ele>74.0</ele><time>2026-03-29T13:31:46.999Z</time></trkpt><trkpt lat="45.294201164717435" lon="9.521826444338826"><ele>74.0</ele><time>2026-03-29T13:31:47.999Z</time></trkpt><trkpt lat="45.29420197622075" lon="9.521970289672057"><ele>74.0</ele><time>2026-03-29T13:31:48.999Z</time></trkpt><trkpt lat="45.294194337665076" lon="9.522129763283672"><ele>74.0</ele><time>2026-03-29T13:31:49.999Z</time></trkpt><trkpt lat="45.294182803063954" lon="9.52229511246403"><ele>73.75</ele><time>2026-03-29T13:31:50.999Z</time></trkpt><trkpt lat="45.29416647316133" lon="9.522472929069863"><ele>73.5</ele><time>2026-03-29T13:31:51.999Z</time></trkpt><trkpt lat="45.29412162247426" lon="9.522635201384562"><ele>73.25</ele><time>2026-03-29T13:31:52.999Z</time></trkpt><trkpt lat="45.29406619402696" lon="9.522783706764276"><ele>73.0</ele><time>2026-03-29T13:31:53.999Z</time></trkpt><trkpt lat="45.2940170052853" lon="9.522957159087207"><ele>72.5</ele><time>2026-03-29T13:31:54.999Z</time></trkpt><trkpt lat="45.293948295051244" lon="9.523103772053298"><ele>72.0</ele><time>2026-03-29T13:31:56Z</time></trkpt><trkpt lat="45.29386284028215" lon="9.523256662909152"><ele>71.5</ele><time>2026-03-29T13:31:57Z</time></trkpt><trkpt lat="45.293740664745926" lon="9.52345727505403"><ele>71.0</ele><time>2026-03-29T13:31:58Z</time></trkpt><trkpt lat="45.29362885570714" lon="9.523648494187801"><ele>72.0</ele><time>2026-03-29T13:31:59Z</time></trkpt><trkpt lat="45.29350589708858" lon="9.523853703383805"><ele>73.0</ele><time>2026-03-29T13:32:00Z</time></trkpt><trkpt lat="45.293393758076824" lon="9.524012448967047"><ele>74.0</ele><time>2026-03-29T13:32:01Z</time></trkpt><trkpt lat="45.29329041554519" lon="9.524186389942557"><ele>74.0</ele><time>2026-03-29T13:32:02Z</time></trkpt><trkpt lat="45.293180450292354" lon="9.524372376111181"><ele>74.0</ele><time>2026-03-29T13:32:03Z</time></trkpt><trkpt lat="45.29306829496004" lon="9.524561986002107"><ele>74.0</ele><time>2026-03-29T13:32:04Z</time></trkpt><trkpt lat="45.29295637406107" lon="9.524748166413698"><ele>74.33333333333334</ele><time>2026-03-29T13:32:05Z</time></trkpt><trkpt lat="45.29281822627046" lon="9.524977863446301"><ele>74.66666666666667</ele><time>2026-03-29T13:32:06Z</time></trkpt><trkpt lat="45.29271574167961" lon="9.52514815052478"><ele>75.0</ele><time>2026-03-29T13:32:07Z</time></trkpt><trkpt lat="45.29260141869845" lon="9.525338311749557"><ele>75.0</ele><time>2026-03-29T13:32:08Z</time></trkpt><trkpt lat="45.292480066702524" lon="9.525540164883887"><ele>75.0</ele><time>2026-03-29T13:32:09Z</time></trkpt><trkpt lat="45.29236875921088" lon="9.525725310231033"><ele>75.0</ele><time>2026-03-29T13:32:10Z</time></trkpt><trkpt lat="45.292251860246296" lon="9.525919756581324"><ele>75.0</ele><time>2026-03-29T13:32:11Z</time></trkpt><trkpt lat="45.29213287294882" lon="9.5261175220547"><ele>75.0</ele><time>2026-03-29T13:32:12Z</time></trkpt><trkpt lat="45.292044895042515" lon="9.52629128649651"><ele>75.0</ele><time>2026-03-29T13:32:13Z</time></trkpt><trkpt lat="45.291918217184296" lon="9.526505891534791"><ele>74.66666666666667</ele><time>2026-03-29T13:32:14Z</time></trkpt><trkpt lat="45.291807542901225" lon="9.526698097737109"><ele>74.33333333333334</ele><time>2026-03-29T13:32:15Z</time></trkpt><trkpt lat="45.291687876193286" lon="9.526904501096638"><ele>74.0</ele><time>2026-03-29T13:32:16Z</time></trkpt><trkpt lat="45.29155884474975" lon="9.527105958605665"><ele>73.66666666666667</ele><time>2026-03-29T13:32:17Z</time></trkpt><trkpt lat="45.29142904729608" lon="9.527320408029949"><ele>73.33333333333333</ele><time>2026-03-29T13:32:18Z</time></trkpt><trkpt lat="45.291313876346685" lon="9.527529482230749"><ele>73.0</ele><time>2026-03-29T13:32:19Z</time></trkpt><trkpt lat="45.2911865057605" lon="9.527744796648696"><ele>74.0</ele><time>2026-03-29T13:32:20Z</time></trkpt><trkpt lat="45.29106152416269" lon="9.527946699339282"><ele>75.0</ele><time>2026-03-29T13:32:21Z</time></trkpt><trkpt lat="45.29093084844361" lon="9.528173355846514"><ele>76.0</ele><time>2026-03-29T13:32:22Z</time></trkpt><trkpt lat="45.29080861757366" lon="9.528367657973718"><ele>76.0</ele><time>2026-03-29T13:32:23Z</time></trkpt><trkpt lat="45.29067820325808" lon="9.528578801138682"><ele>76.0</ele><time>2026-03-29T13:32:24Z</time></trkpt><trkpt lat="45.29055224307339" lon="9.528789035877852"><ele>76.0</ele><time>2026-03-29T13:32:25Z</time></trkpt><trkpt lat="45.29042082670443" lon="9.529005505491114"><ele>76.0</ele><time>2026-03-29T13:32:26Z</time></trkpt><trkpt lat="45.29028663557784" lon="9.529222465026782"><ele>76.0</ele><time>2026-03-29T13:32:27Z</time></trkpt><trkpt lat="45.290154185169335" lon="9.529439378340356"><ele>76.0</ele><time>2026-03-29T13:32:28Z</time></trkpt><trkpt lat="45.29003482004892" lon="9.529639992820778"><ele>76.0</ele><time>2026-03-29T13:32:29Z</time></trkpt><trkpt lat="45.28991785462065" lon="9.529827770369469"><ele>76.0</ele><time>2026-03-29T13:32:30Z</time></trkpt><trkpt lat="45.289805928451514" lon="9.530011801634872"><ele>76.0</ele><time>2026-03-29T13:32:31Z</time></trkpt><trkpt lat="45.289698533726934" lon="9.530189486395065"><ele>75.66666666666666</ele><time>2026-03-29T13:32:32Z</time></trkpt><trkpt lat="45.289585373445156" lon="9.530375590300231"><ele>75.33333333333333</ele><time>2026-03-29T13:32:33Z</time></trkpt><trkpt lat="45.289465448055196" lon="9.530584471348707"><ele>75.0</ele><time>2026-03-29T13:32:34Z</time></trkpt><trkpt lat="45.28933029824657" lon="9.530800837100651"><ele>74.66666666666667</ele><time>2026-03-29T13:32:35Z</time></trkpt><trkpt lat="45.289194522716315" lon="9.531031643424315"><ele>74.33333333333334</ele><time>2026-03-29T13:32:36Z</time></trkpt><trkpt lat="45.28906522236303" lon="9.531255663434557"><ele>74.0</ele><time>2026-03-29T13:32:37Z</time></trkpt><trkpt lat="45.288930070749544" lon="9.531478279594657"><ele>73.66666666666667</ele><time>2026-03-29T13:32:38Z</time></trkpt><trkpt lat="45.2888011449432" lon="9.531690583157294"><ele>73.33333333333333</ele><time>2026-03-29T13:32:39Z</time></trkpt><trkpt lat="45.28866530796895" lon="9.531898832237664"><ele>73.0</ele><time>2026-03-29T13:32:40Z</time></trkpt><trkpt lat="45.28853826539327" lon="9.53209591706449"><ele>73.66666666666666</ele><time>2026-03-29T13:32:41Z</time></trkpt><trkpt lat="45.28841836560115" lon="9.532297988328137"><ele>74.33333333333333</ele><time>2026-03-29T13:32:42Z</time></trkpt><trkpt lat="45.28829908486947" lon="9.532489484652398"><ele>75.0</ele><time>2026-03-29T13:32:43Z</time></trkpt><trkpt lat="45.2881764224493" lon="9.532686665594008"><ele>74.33333333333333</ele><time>2026-03-29T13:32:44Z</time></trkpt><trkpt lat="45.288066464079805" lon="9.532893314250032"><ele>73.66666666666666</ele><time>2026-03-29T13:32:45Z</time></trkpt><trkpt lat="45.287939946727285" lon="9.533090609911733"><ele>73.0</ele><time>2026-03-29T13:32:46Z</time></trkpt><trkpt lat="45.28782165405848" lon="9.533284615822406"><ele>73.0</ele><time>2026-03-29T13:32:47Z</time></trkpt><trkpt lat="45.287692694535025" lon="9.533479712724091"><ele>73.0</ele><time>2026-03-29T13:32:48Z</time></trkpt><trkpt lat="45.28757259589959" lon="9.53365143492628"><ele>73.0</ele><time>2026-03-29T13:32:49Z</time></trkpt><trkpt lat="45.287452058360735" lon="9.533828825979981"><ele>73.0</ele><time>2026-03-29T13:32:50Z</time></trkpt><trkpt lat="45.28731948054971" lon="9.534003834251418"><ele>73.0</ele><time>2026-03-29T13:32:51Z</time></trkpt><trkpt lat="45.287160740462596" lon="9.534204393039742"><ele>73.0</ele><time>2026-03-29T13:32:52Z</time></trkpt><trkpt lat="45.286978321257145" lon="9.534398726707733"><ele>73.0</ele><time>2026-03-29T13:32:53Z</time></trkpt><trkpt lat="45.28679077386304" lon="9.53458381396137"><ele>73.0</ele><time>2026-03-29T13:32:54Z</time></trkpt><trkpt lat="45.28661645542752" lon="9.534782060526327"><ele>73.0</ele><time>2026-03-29T13:32:55Z</time></trkpt><trkpt lat="45.28643037128933" lon="9.534947372610468"><ele>73.0</ele><time>2026-03-29T13:32:56Z</time></trkpt><trkpt lat="45.2862624238146" lon="9.535134122526953"><ele>73.0</ele><time>2026-03-29T13:32:57Z</time></trkpt><trkpt lat="45.28608095811555" lon="9.535297269714533"><ele>72.66666666666666</ele><time>2026-03-29T13:32:58Z</time></trkpt><trkpt lat="45.28589430644835" lon="9.535480215515786"><ele>72.33333333333333</ele><time>2026-03-29T13:32:59Z</time></trkpt><trkpt lat="45.28571973970656" lon="9.535640838880825"><ele>72.0</ele><time>2026-03-29T13:33:00Z</time></trkpt><trkpt lat="45.28555524740678" lon="9.53579776070594"><ele>72.0</ele><time>2026-03-29T13:33:01Z</time></trkpt><trkpt lat="45.285400100703264" lon="9.535948735989923"><ele>72.0</ele><time>2026-03-29T13:33:02Z</time></trkpt><trkpt lat="45.28524910134941" lon="9.536095739790289"><ele>72.0</ele><time>2026-03-29T13:33:03Z</time></trkpt><trkpt lat="45.285090686571635" lon="9.536241031705327"><ele>72.0</ele><time>2026-03-29T13:33:04Z</time></trkpt><trkpt lat="45.284935613546565" lon="9.53638607605084"><ele>72.0</ele><time>2026-03-29T13:33:05Z</time></trkpt><trkpt lat="45.28477641297081" lon="9.536538573251017"><ele>72.0</ele><time>2026-03-29T13:33:06Z</time></trkpt><trkpt lat="45.284622397328434" lon="9.536691089410473"><ele>72.66666666666667</ele><time>2026-03-29T13:33:06.999Z</time></trkpt><trkpt lat="45.28446997905109" lon="9.536838107423682"><ele>73.33333333333334</ele><time>2026-03-29T13:33:07.999Z</time></trkpt><trkpt lat="45.284319953140596" lon="9.536975060949572"><ele>74.0</ele><time>2026-03-29T13:33:08.999Z</time></trkpt><trkpt lat="45.28417438129004" lon="9.537114104338801"><ele>74.0</ele><time>2026-03-29T13:33:09.999Z</time></trkpt><trkpt lat="45.284026335380425" lon="9.537249002723327"><ele>74.0</ele><time>2026-03-29T13:33:10.999Z</time></trkpt><trkpt lat="45.28387555180563" lon="9.53737735557781"><ele>74.0</ele><time>2026-03-29T13:33:11.999Z</time></trkpt><trkpt lat="45.28371468291247" lon="9.537512211401665"><ele>74.0</ele><time>2026-03-29T13:33:12.999Z</time></trkpt><trkpt lat="45.28358128172007" lon="9.537638675296291"><ele>74.0</ele><time>2026-03-29T13:33:13.999Z</time></trkpt><trkpt lat="45.2833900825375" lon="9.537810180883309"><ele>74.0</ele><time>2026-03-29T13:33:14.999Z</time></trkpt><trkpt lat="45.28321685113595" lon="9.537981377765067"><ele>73.66666666666667</ele><time>2026-03-29T13:33:15.999Z</time></trkpt><trkpt lat="45.283049343935616" lon="9.53816085435407"><ele>73.33333333333333</ele><time>2026-03-29T13:33:16.999Z</time></trkpt><trkpt lat="45.28288341986305" lon="9.538332124918574"><ele>73.0</ele><time>2026-03-29T13:33:17.999Z</time></trkpt><trkpt lat="45.282714978110604" lon="9.538507120479712"><ele>73.0</ele><time>2026-03-29T13:33:18.999Z</time></trkpt><trkpt lat="45.28255228426236" lon="9.538666624525437"><ele>73.0</ele><time>2026-03-29T13:33:19.999Z</time></trkpt><trkpt lat="45.282401038994436" lon="9.538814652827485"><ele>73.0</ele><time>2026-03-29T13:33:20.999Z</time></trkpt><trkpt lat="45.28227448563859" lon="9.538944391326206"><ele>72.66666666666666</ele><time>2026-03-29T13:33:21.999Z</time></trkpt><trkpt lat="45.282091176538486" lon="9.539113374733242"><ele>72.33333333333333</ele><time>2026-03-29T13:33:22.999Z</time></trkpt><trkpt lat="45.2819276318033" lon="9.539269179218755"><ele>72.0</ele><time>2026-03-29T13:33:23.999Z</time></trkpt><trkpt lat="45.28176995280278" lon="9.539423047872717"><ele>71.66666666666667</ele><time>2026-03-29T13:33:24.999Z</time></trkpt><trkpt lat="45.2815905212186" lon="9.53959714956701"><ele>71.33333333333334</ele><time>2026-03-29T13:33:25.999Z</time></trkpt><trkpt lat="45.28142233524166" lon="9.53975763820855"><ele>71.0</ele><time>2026-03-29T13:33:26.999Z</time></trkpt><trkpt lat="45.28125534272727" lon="9.539915991842758"><ele>71.0</ele><time>2026-03-29T13:33:27.999Z</time></trkpt><trkpt lat="45.28109024482327" lon="9.540068710328327"><ele>71.0</ele><time>2026-03-29T13:33:28.999Z</time></trkpt><trkpt lat="45.280925516461814" lon="9.540217840221755"><ele>71.0</ele><time>2026-03-29T13:33:29.999Z</time></trkpt><trkpt lat="45.280757897635304" lon="9.540367537423705"><ele>71.0</ele><time>2026-03-29T13:33:30.999Z</time></trkpt><trkpt lat="45.28060439909611" lon="9.540539008498072"><ele>71.0</ele><time>2026-03-29T13:33:31.999Z</time></trkpt><trkpt lat="45.28042666638321" lon="9.540701756173949"><ele>71.0</ele><time>2026-03-29T13:33:32.999Z</time></trkpt><trkpt lat="45.280266739069" lon="9.54084015363357"><ele>71.0</ele><time>2026-03-29T13:33:33.999Z</time></trkpt><trkpt lat="45.280103717173056" lon="9.541006703991595"><ele>71.0</ele><time>2026-03-29T13:33:34.999Z</time></trkpt><trkpt lat="45.27993404710592" lon="9.54116378395557"><ele>71.0</ele><time>2026-03-29T13:33:35.999Z</time></trkpt><trkpt lat="45.279769064444636" lon="9.541315447241164"><ele>71.0</ele><time>2026-03-29T13:33:36.999Z</time></trkpt><trkpt lat="45.27960375182015" lon="9.541475273361266"><ele>71.0</ele><time>2026-03-29T13:33:37.999Z</time></trkpt><trkpt lat="45.27943898685018" lon="9.541638249128745"><ele>71.0</ele><time>2026-03-29T13:33:38.999Z</time></trkpt><trkpt lat="45.27927411125183" lon="9.541797692268064"><ele>71.0</ele><time>2026-03-29T13:33:39.999Z</time></trkpt><trkpt lat="45.27910403949259" lon="9.541956978922068"><ele>71.0</ele><time>2026-03-29T13:33:40.999Z</time></trkpt><trkpt lat="45.278931944876284" lon="9.54211860753554"><ele>71.0</ele><time>2026-03-29T13:33:41.999Z</time></trkpt><trkpt lat="45.27876103964997" lon="9.54228055576432"><ele>71.0</ele><time>2026-03-29T13:33:42.999Z</time></trkpt><trkpt lat="45.27859248501095" lon="9.542447902195125"><ele>71.0</ele><time>2026-03-29T13:33:43.999Z</time></trkpt><trkpt lat="45.278416551059934" lon="9.542618800606864"><ele>71.0</ele><time>2026-03-29T13:33:44.999Z</time></trkpt><trkpt lat="45.27824954533031" lon="9.54276365556834"><ele>71.33333333333334</ele><time>2026-03-29T13:33:45.999Z</time></trkpt><trkpt lat="45.27807721347602" lon="9.542942478046246"><ele>71.66666666666667</ele><time>2026-03-29T13:33:46.999Z</time></trkpt><trkpt lat="45.27792089383009" lon="9.543098728265058"><ele>72.0</ele><time>2026-03-29T13:33:47.999Z</time></trkpt><trkpt lat="45.277730531956884" lon="9.543281614794997"><ele>72.0</ele><time>2026-03-29T13:33:48.999Z</time></trkpt><trkpt lat="45.27755485650657" lon="9.543452313859493"><ele>72.0</ele><time>2026-03-29T13:33:49.999Z</time></trkpt><trkpt lat="45.2773762247126" lon="9.543615528630742"><ele>72.0</ele><time>2026-03-29T13:33:50.999Z</time></trkpt><trkpt lat="45.27720169178007" lon="9.543785456267592"><ele>72.33333333333333</ele><time>2026-03-29T13:33:51.999Z</time></trkpt><trkpt lat="45.27702114762138" lon="9.54394600636771"><ele>72.66666666666666</ele><time>2026-03-29T13:33:52.999Z</time></trkpt><trkpt lat="45.27684441027919" lon="9.544118698492532"><ele>73.0</ele><time>2026-03-29T13:33:53.999Z</time></trkpt><trkpt lat="45.276664960161845" lon="9.544282436963046"><ele>73.0</ele><time>2026-03-29T13:33:54.999Z</time></trkpt><trkpt lat="45.2764743264098" lon="9.544473379719022"><ele>73.0</ele><time>2026-03-29T13:33:55.999Z</time></trkpt><trkpt lat="45.27629401485542" lon="9.544643612740117"><ele>72.33333333333333</ele><time>2026-03-29T13:33:56.999Z</time></trkpt><trkpt lat="45.276111104496174" lon="9.54481674405318"><ele>71.66666666666667</ele><time>2026-03-29T13:33:57.999Z</time></trkpt><trkpt lat="45.27592970471426" lon="9.544990277750108"><ele>71.0</ele><time>2026-03-29T13:33:58.999Z</time></trkpt><trkpt lat="45.27575747144669" lon="9.54515725677011"><ele>71.0</ele><time>2026-03-29T13:33:59.999Z</time></trkpt><trkpt lat="45.275578549356716" lon="9.545324506972197"><ele>71.0</ele><time>2026-03-29T13:34:00.999Z</time></trkpt><trkpt lat="45.275402463800816" lon="9.545489114143795"><ele>71.0</ele><time>2026-03-29T13:34:02Z</time></trkpt><trkpt lat="45.2752278297532" lon="9.545668590530624"><ele>71.0</ele><time>2026-03-29T13:34:03Z</time></trkpt><trkpt lat="45.275053784984145" lon="9.545834664011085"><ele>71.0</ele><time>2026-03-29T13:34:04Z</time></trkpt><trkpt lat="45.27487972418881" lon="9.545981503309532"><ele>71.0</ele><time>2026-03-29T13:34:05Z</time></trkpt><trkpt lat="45.274702003766144" lon="9.54615812479056"><ele>71.0</ele><time>2026-03-29T13:34:06Z</time></trkpt><trkpt lat="45.27452271184212" lon="9.546326731683562"><ele>71.0</ele><time>2026-03-29T13:34:07Z</time></trkpt><trkpt lat="45.27434457764438" lon="9.546504974681886"><ele>71.0</ele><time>2026-03-29T13:34:08Z</time></trkpt><trkpt lat="45.274165126375095" lon="9.546684299927396"><ele>71.0</ele><time>2026-03-29T13:34:09Z</time></trkpt><trkpt lat="45.27401305686902" lon="9.546815013990809"><ele>71.0</ele><time>2026-03-29T13:34:10Z</time></trkpt><trkpt lat="45.27380828171528" lon="9.54700971670149"><ele>71.0</ele><time>2026-03-29T13:34:11Z</time></trkpt><trkpt lat="45.27362592664693" lon="9.547190660516272"><ele>71.0</ele><time>2026-03-29T13:34:12Z</time></trkpt><trkpt lat="45.27342993520195" lon="9.547378767776378"><ele>71.0</ele><time>2026-03-29T13:34:13Z</time></trkpt><trkpt lat="45.27324764430081" lon="9.547551081338293"><ele>70.66666666666667</ele><time>2026-03-29T13:34:14Z</time></trkpt><trkpt lat="45.27306794847241" lon="9.547713564011389"><ele>70.33333333333333</ele><time>2026-03-29T13:34:15Z</time></trkpt><trkpt lat="45.272906836197514" lon="9.547886668587152"><ele>70.0</ele><time>2026-03-29T13:34:16Z</time></trkpt><trkpt lat="45.27271635765404" lon="9.548066367373519"><ele>70.0</ele><time>2026-03-29T13:34:17Z</time></trkpt><trkpt lat="45.27254041443668" lon="9.548228169980288"><ele>70.0</ele><time>2026-03-29T13:34:18Z</time></trkpt><trkpt lat="45.272356860303134" lon="9.548400528938334"><ele>70.0</ele><time>2026-03-29T13:34:19Z</time></trkpt><trkpt lat="45.27218719029989" lon="9.548563818354202"><ele>70.33333333333333</ele><time>2026-03-29T13:34:20Z</time></trkpt><trkpt lat="45.27200717379414" lon="9.548729884160613"><ele>70.66666666666667</ele><time>2026-03-29T13:34:21Z</time></trkpt><trkpt lat="45.27183334671111" lon="9.54890503322363"><ele>71.0</ele><time>2026-03-29T13:34:22Z</time></trkpt><trkpt lat="45.271656223397216" lon="9.549073288669447"><ele>71.0</ele><time>2026-03-29T13:34:23Z</time></trkpt><trkpt lat="45.271481395344935" lon="9.549238790552057"><ele>71.0</ele><time>2026-03-29T13:34:24Z</time></trkpt><trkpt lat="45.271303496245565" lon="9.549414691674396"><ele>71.0</ele><time>2026-03-29T13:34:25Z</time></trkpt><trkpt lat="45.27110767436955" lon="9.549575761196179"><ele>71.0</ele><time>2026-03-29T13:34:26Z</time></trkpt><trkpt lat="45.27093298586296" lon="9.54976658943525"><ele>71.0</ele><time>2026-03-29T13:34:27Z</time></trkpt><trkpt lat="45.27075552113767" lon="9.549937392737514"><ele>71.0</ele><time>2026-03-29T13:34:28Z</time></trkpt><trkpt lat="45.27057304346489" lon="9.550103567114332"><ele>70.66666666666667</ele><time>2026-03-29T13:34:29Z</time></trkpt><trkpt lat="45.27039165858202" lon="9.550277487811458"><ele>70.33333333333333</ele><time>2026-03-29T13:34:30Z</time></trkpt><trkpt lat="45.270211937981024" lon="9.550446782638772"><ele>70.0</ele><time>2026-03-29T13:34:31Z</time></trkpt><trkpt lat="45.27003114004735" lon="9.550619230730547"><ele>70.0</ele><time>2026-03-29T13:34:32Z</time></trkpt><trkpt lat="45.269852569668146" lon="9.550795536586826"><ele>70.0</ele><time>2026-03-29T13:34:33Z</time></trkpt><trkpt lat="45.26967559994953" lon="9.550962963887052"><ele>70.0</ele><time>2026-03-29T13:34:34Z</time></trkpt><trkpt lat="45.269492581050855" lon="9.551115036837531"><ele>70.0</ele><time>2026-03-29T13:34:35Z</time></trkpt><trkpt lat="45.26933322612515" lon="9.551292663764258"><ele>70.0</ele><time>2026-03-29T13:34:36Z</time></trkpt><trkpt lat="45.26917108821683" lon="9.55144372262278"><ele>70.0</ele><time>2026-03-29T13:34:37Z</time></trkpt><trkpt lat="45.26898567303136" lon="9.551617762478818"><ele>69.66666666666666</ele><time>2026-03-29T13:34:38Z</time></trkpt><trkpt lat="45.26881305055952" lon="9.551788048161411"><ele>69.33333333333333</ele><time>2026-03-29T13:34:39Z</time></trkpt><trkpt lat="45.26863247858166" lon="9.55193364065273"><ele>69.0</ele><time>2026-03-29T13:34:40Z</time></trkpt><trkpt lat="45.26846587471905" lon="9.55211866984952"><ele>69.0</ele><time>2026-03-29T13:34:41Z</time></trkpt><trkpt lat="45.26828685168172" lon="9.552262596888466"><ele>69.0</ele><time>2026-03-29T13:34:42Z</time></trkpt><trkpt lat="45.268115805006985" lon="9.552425398033192"><ele>69.0</ele><time>2026-03-29T13:34:43Z</time></trkpt><trkpt lat="45.267952449473896" lon="9.552607057056186"><ele>69.0</ele><time>2026-03-29T13:34:44Z</time></trkpt><trkpt lat="45.26777632707562" lon="9.552750059889533"><ele>69.0</ele><time>2026-03-29T13:34:45Z</time></trkpt><trkpt lat="45.267610961168536" lon="9.552944245626124"><ele>69.0</ele><time>2026-03-29T13:34:46Z</time></trkpt><trkpt lat="45.26741082360865" lon="9.553136929015487"><ele>69.0</ele><time>2026-03-29T13:34:47Z</time></trkpt><trkpt lat="45.267248349164184" lon="9.553298906620377"><ele>69.0</ele><time>2026-03-29T13:34:48Z</time></trkpt><trkpt lat="45.267049736973924" lon="9.553474030905901"><ele>69.0</ele><time>2026-03-29T13:34:49Z</time></trkpt><trkpt lat="45.2668600909883" lon="9.553624327264671"><ele>69.5</ele><time>2026-03-29T13:34:50Z</time></trkpt><trkpt lat="45.26666589865008" lon="9.553827727566539"><ele>70.0</ele><time>2026-03-29T13:34:51Z</time></trkpt><trkpt lat="45.26647636324062" lon="9.554004681165603"><ele>70.0</ele><time>2026-03-29T13:34:52Z</time></trkpt><trkpt lat="45.26628642603173" lon="9.554183746010265"><ele>70.0</ele><time>2026-03-29T13:34:53Z</time></trkpt><trkpt lat="45.26610458883444" lon="9.55435690127686"><ele>70.0</ele><time>2026-03-29T13:34:54Z</time></trkpt><trkpt lat="45.26591891396897" lon="9.554535619545515"><ele>70.0</ele><time>2026-03-29T13:34:55Z</time></trkpt><trkpt lat="45.26573458092947" lon="9.55471453983112"><ele>70.0</ele><time>2026-03-29T13:34:56Z</time></trkpt><trkpt lat="45.26555250427448" lon="9.554886503173321"><ele>70.0</ele><time>2026-03-29T13:34:57Z</time></trkpt><trkpt lat="45.265372046369" lon="9.555059343950399"><ele>70.0</ele><time>2026-03-29T13:34:58Z</time></trkpt><trkpt lat="45.26518379929531" lon="9.555218053266989"><ele>70.0</ele><time>2026-03-29T13:34:59Z</time></trkpt><trkpt lat="45.26501317619965" lon="9.555412382419155"><ele>70.0</ele><time>2026-03-29T13:35:00Z</time></trkpt><trkpt lat="45.264874933618955" lon="9.555673817023816"><ele>70.0</ele><time>2026-03-29T13:35:01Z</time></trkpt><trkpt lat="45.26465277511956" lon="9.555733817419457"><ele>70.0</ele><time>2026-03-29T13:35:02Z</time></trkpt><trkpt lat="45.26447191447143" lon="9.555900537754459"><ele>70.0</ele><time>2026-03-29T13:35:02.999Z</time></trkpt><trkpt lat="45.26429719075008" lon="9.556068733216604"><ele>70.0</ele><time>2026-03-29T13:35:03.999Z</time></trkpt><trkpt lat="45.26411988909629" lon="9.556234299283252"><ele>70.0</ele><time>2026-03-29T13:35:04.999Z</time></trkpt><trkpt lat="45.263960715212356" lon="9.556388376154974"><ele>70.0</ele><time>2026-03-29T13:35:05.999Z</time></trkpt><trkpt lat="45.26378081352815" lon="9.556554540885527"><ele>70.0</ele><time>2026-03-29T13:35:06.999Z</time></trkpt><trkpt lat="45.26361503736319" lon="9.556711750163169"><ele>70.0</ele><time>2026-03-29T13:35:07.999Z</time></trkpt><trkpt lat="45.26344758277401" lon="9.556862755089215"><ele>70.0</ele><time>2026-03-29T13:35:08.999Z</time></trkpt><trkpt lat="45.26327458173702" lon="9.557013425335509"><ele>70.33333333333333</ele><time>2026-03-29T13:35:09.999Z</time></trkpt><trkpt lat="45.26310374668885" lon="9.557169084710463"><ele>70.66666666666667</ele><time>2026-03-29T13:35:10.999Z</time></trkpt><trkpt lat="45.26293530895441" lon="9.557311490058751"><ele>71.0</ele><time>2026-03-29T13:35:11.999Z</time></trkpt><trkpt lat="45.262764615695964" lon="9.557458394450196"><ele>71.0</ele><time>2026-03-29T13:35:12.999Z</time></trkpt><trkpt lat="45.262598055076246" lon="9.557599710720446"><ele>71.0</ele><time>2026-03-29T13:35:13.999Z</time></trkpt><trkpt lat="45.26245063981432" lon="9.557728492244985"><ele>71.0</ele><time>2026-03-29T13:35:14.999Z</time></trkpt><trkpt lat="45.26231293827039" lon="9.557860643688706"><ele>71.0</ele><time>2026-03-29T13:35:15.999Z</time></trkpt><trkpt lat="45.262148652126264" lon="9.558002251865837"><ele>71.0</ele><time>2026-03-29T13:35:16.999Z</time></trkpt><trkpt lat="45.26203268514146" lon="9.558122180957458"><ele>71.0</ele><time>2026-03-29T13:35:17.999Z</time></trkpt><trkpt lat="45.261919289583815" lon="9.558226708541293"><ele>71.0</ele><time>2026-03-29T13:35:18.999Z</time></trkpt><trkpt lat="45.26181654782695" lon="9.558339182543012"><ele>71.0</ele><time>2026-03-29T13:35:19.999Z</time></trkpt><trkpt lat="45.261709780946916" lon="9.558447951873566"><ele>71.0</ele><time>2026-03-29T13:35:20.999Z</time></trkpt><trkpt lat="45.261608186219604" lon="9.558551723626671"><ele>71.0</ele><time>2026-03-29T13:35:21.999Z</time></trkpt><trkpt lat="45.261499157321495" lon="9.558659559764651"><ele>70.5</ele><time>2026-03-29T13:35:22.999Z</time></trkpt><trkpt lat="45.261386465813146" lon="9.55877377577464"><ele>70.0</ele><time>2026-03-29T13:35:23.999Z</time></trkpt><trkpt lat="45.26126577351215" lon="9.558896806652955"><ele>69.5</ele><time>2026-03-29T13:35:24.999Z</time></trkpt><trkpt lat="45.26114518863179" lon="9.559012986243914"><ele>69.0</ele><time>2026-03-29T13:35:25.999Z</time></trkpt><trkpt lat="45.261018799859926" lon="9.559137594192448"><ele>69.0</ele><time>2026-03-29T13:35:26.999Z</time></trkpt><trkpt lat="45.26089375552227" lon="9.559251929534947"><ele>69.0</ele><time>2026-03-29T13:35:27.999Z</time></trkpt><trkpt lat="45.26077345809578" lon="9.559373583134509"><ele>69.0</ele><time>2026-03-29T13:35:28.999Z</time></trkpt><trkpt lat="45.26065657718383" lon="9.559496349865295"><ele>69.0</ele><time>2026-03-29T13:35:29.999Z</time></trkpt><trkpt lat="45.26053377234152" lon="9.559623645345075"><ele>69.66666666666667</ele><time>2026-03-29T13:35:30.999Z</time></trkpt><trkpt lat="45.26040224168655" lon="9.559742062377994"><ele>70.33333333333334</ele><time>2026-03-29T13:35:31.999Z</time></trkpt><trkpt lat="45.26026642014488" lon="9.559878085589967"><ele>71.0</ele><time>2026-03-29T13:35:32.999Z</time></trkpt><trkpt lat="45.260124145543244" lon="9.560009182252381"><ele>71.0</ele><time>2026-03-29T13:35:33.999Z</time></trkpt><trkpt lat="45.25998767509047" lon="9.560140876725969"><ele>71.0</ele><time>2026-03-29T13:35:34.999Z</time></trkpt><trkpt lat="45.259850219340635" lon="9.560255223482764"><ele>71.0</ele><time>2026-03-29T13:35:35.999Z</time></trkpt><trkpt lat="45.259742106670146" lon="9.56040483133279"><ele>70.66666666666667</ele><time>2026-03-29T13:35:36.999Z</time></trkpt><trkpt lat="45.25961898741289" lon="9.560534096028414"><ele>70.33333333333333</ele><time>2026-03-29T13:35:37.999Z</time></trkpt><trkpt lat="45.25949559496258" lon="9.56065755208606"><ele>70.0</ele><time>2026-03-29T13:35:38.999Z</time></trkpt><trkpt lat="45.2593652669783" lon="9.560797217020507"><ele>70.0</ele><time>2026-03-29T13:35:39.999Z</time></trkpt><trkpt lat="45.25922554731587" lon="9.560926400270601"><ele>70.0</ele><time>2026-03-29T13:35:40.999Z</time></trkpt><trkpt lat="45.25909832870342" lon="9.561068210332916"><ele>70.0</ele><time>2026-03-29T13:35:41.999Z</time></trkpt><trkpt lat="45.25895420914734" lon="9.56120109481185"><ele>70.0</ele><time>2026-03-29T13:35:42.999Z</time></trkpt><trkpt lat="45.25883506494287" lon="9.561361216916444"><ele>70.0</ele><time>2026-03-29T13:35:43.999Z</time></trkpt><trkpt lat="45.25867837197068" lon="9.561486261162191"><ele>70.0</ele><time>2026-03-29T13:35:44.999Z</time></trkpt><trkpt lat="45.25852280857348" lon="9.56162745895485"><ele>70.0</ele><time>2026-03-29T13:35:45.999Z</time></trkpt><trkpt lat="45.258379445359644" lon="9.561760341541767"><ele>70.0</ele><time>2026-03-29T13:35:46.999Z</time></trkpt><trkpt lat="45.25823240167102" lon="9.561898387395873"><ele>70.0</ele><time>2026-03-29T13:35:47.999Z</time></trkpt><trkpt lat="45.258086004247765" lon="9.562056719524515"><ele>70.0</ele><time>2026-03-29T13:35:48.999Z</time></trkpt><trkpt lat="45.25793686294627" lon="9.562202761857002"><ele>70.0</ele><time>2026-03-29T13:35:49.999Z</time></trkpt><trkpt lat="45.25777815440909" lon="9.562354789105127"><ele>70.0</ele><time>2026-03-29T13:35:50.999Z</time></trkpt><trkpt lat="45.257613520974516" lon="9.562487747555325"><ele>70.0</ele><time>2026-03-29T13:35:51.999Z</time></trkpt><trkpt lat="45.257463473506064" lon="9.5626575289171"><ele>70.0</ele><time>2026-03-29T13:35:52.999Z</time></trkpt><trkpt lat="45.25730926854343" lon="9.562815226129654"><ele>70.0</ele><time>2026-03-29T13:35:53.999Z</time></trkpt><trkpt lat="45.257142267000916" lon="9.562952576173128"><ele>70.0</ele><time>2026-03-29T13:35:54.999Z</time></trkpt><trkpt lat="45.25698200170149" lon="9.563134539490392"><ele>70.0</ele><time>2026-03-29T13:35:55.999Z</time></trkpt><trkpt lat="45.256816479652095" lon="9.56329760500907"><ele>70.0</ele><time>2026-03-29T13:35:56.999Z</time></trkpt><trkpt lat="45.25666313187268" lon="9.563429263845245"><ele>70.0</ele><time>2026-03-29T13:35:57.999Z</time></trkpt><trkpt lat="45.25650849858775" lon="9.56360958337116"><ele>70.0</ele><time>2026-03-29T13:35:58.999Z</time></trkpt><trkpt lat="45.256346209731056" lon="9.563746340953928"><ele>70.0</ele><time>2026-03-29T13:35:59.999Z</time></trkpt><trkpt lat="45.25618678081683" lon="9.563910263702052"><ele>69.66666666666666</ele><time>2026-03-29T13:36:00.999Z</time></trkpt><trkpt lat="45.25604705726603" lon="9.564079808778693"><ele>69.33333333333333</ele><time>2026-03-29T13:36:01.999Z</time></trkpt><trkpt lat="45.25588981628015" lon="9.56422089339934"><ele>69.0</ele><time>2026-03-29T13:36:02.999Z</time></trkpt><trkpt lat="45.255722372663755" lon="9.564386998344112"><ele>68.66666666666667</ele><time>2026-03-29T13:36:03.999Z</time></trkpt><trkpt lat="45.25556089584681" lon="9.564552436181595"><ele>68.33333333333334</ele><time>2026-03-29T13:36:04.999Z</time></trkpt><trkpt lat="45.25540151709168" lon="9.564715724491485"><ele>68.0</ele><time>2026-03-29T13:36:05.999Z</time></trkpt><trkpt lat="45.255240459133" lon="9.564880876245592"><ele>68.0</ele><time>2026-03-29T13:36:06.999Z</time></trkpt><trkpt lat="45.25507978322511" lon="9.565047806319447"><ele>68.0</ele><time>2026-03-29T13:36:08Z</time></trkpt><trkpt lat="45.25492172132756" lon="9.56521202063194"><ele>68.0</ele><time>2026-03-29T13:36:09Z</time></trkpt><trkpt lat="45.25476184716199" lon="9.565378117757096"><ele>68.66666666666667</ele><time>2026-03-29T13:36:10Z</time></trkpt><trkpt lat="45.25460887827115" lon="9.565537040827783"><ele>69.33333333333333</ele><time>2026-03-29T13:36:11Z</time></trkpt><trkpt lat="45.25445203146379" lon="9.565699859529834"><ele>70.0</ele><time>2026-03-29T13:36:12Z</time></trkpt><trkpt lat="45.2542798900612" lon="9.565877785421963"><ele>70.0</ele><time>2026-03-29T13:36:13Z</time></trkpt><trkpt lat="45.25411871309016" lon="9.566044378437994"><ele>70.0</ele><time>2026-03-29T13:36:14Z</time></trkpt><trkpt lat="45.253986385964986" lon="9.566203622445956"><ele>70.0</ele><time>2026-03-29T13:36:15Z</time></trkpt><trkpt lat="45.253829620520236" lon="9.566343119962589"><ele>69.33333333333333</ele><time>2026-03-29T13:36:16Z</time></trkpt><trkpt lat="45.25367961741965" lon="9.56649803946383"><ele>68.66666666666667</ele><time>2026-03-29T13:36:17Z</time></trkpt><trkpt lat="45.25353600208119" lon="9.566646361834241"><ele>68.0</ele><time>2026-03-29T13:36:18Z</time></trkpt><trkpt lat="45.25338996414516" lon="9.56681139635736"><ele>68.0</ele><time>2026-03-29T13:36:19Z</time></trkpt><trkpt lat="45.25325535839193" lon="9.566964382690276"><ele>68.0</ele><time>2026-03-29T13:36:20Z</time></trkpt><trkpt lat="45.253107519315016" lon="9.56708808936478"><ele>68.0</ele><time>2026-03-29T13:36:21Z</time></trkpt><trkpt lat="45.25296064795178" lon="9.567239271384333"><ele>68.0</ele><time>2026-03-29T13:36:22Z</time></trkpt><trkpt lat="45.25282801079512" lon="9.567375801400004"><ele>68.0</ele><time>2026-03-29T13:36:23Z</time></trkpt><trkpt lat="45.25267951320373" lon="9.567546837087349"><ele>68.0</ele><time>2026-03-29T13:36:24Z</time></trkpt><trkpt lat="45.25254154257664" lon="9.56769045429804"><ele>68.0</ele><time>2026-03-29T13:36:25Z</time></trkpt><trkpt lat="45.25239110731559" lon="9.567825528023732"><ele>68.0</ele><time>2026-03-29T13:36:26Z</time></trkpt><trkpt lat="45.252270290528934" lon="9.567973491244894"><ele>68.0</ele><time>2026-03-29T13:36:27Z</time></trkpt><trkpt lat="45.252139329979535" lon="9.568108450589648"><ele>67.66666666666667</ele><time>2026-03-29T13:36:28Z</time></trkpt><trkpt lat="45.252014345669984" lon="9.568238717299579"><ele>67.33333333333333</ele><time>2026-03-29T13:36:29Z</time></trkpt><trkpt lat="45.25187524875003" lon="9.568374672177374"><ele>67.0</ele><time>2026-03-29T13:36:30Z</time></trkpt><trkpt lat="45.25174146978365" lon="9.568515783381018"><ele>67.0</ele><time>2026-03-29T13:36:31Z</time></trkpt><trkpt lat="45.251612384498465" lon="9.568651137518632"><ele>67.0</ele><time>2026-03-29T13:36:32Z</time></trkpt><trkpt lat="45.25148400028072" lon="9.5687771939229"><ele>67.0</ele><time>2026-03-29T13:36:33Z</time></trkpt><trkpt lat="45.25134483920827" lon="9.568899181810885"><ele>68.33333333333333</ele><time>2026-03-29T13:36:34Z</time></trkpt><trkpt lat="45.25122618570783" lon="9.56904604970952"><ele>69.66666666666667</ele><time>2026-03-29T13:36:35Z</time></trkpt><trkpt lat="45.251097880974086" lon="9.569165678834691"><ele>71.0</ele><time>2026-03-29T13:36:36Z</time></trkpt><trkpt lat="45.25096512623219" lon="9.569287218100888"><ele>71.0</ele><time>2026-03-29T13:36:37Z</time></trkpt><trkpt lat="45.250835111775714" lon="9.569419619709223"><ele>71.0</ele><time>2026-03-29T13:36:38Z</time></trkpt><trkpt lat="45.25071234931909" lon="9.569553868826164"><ele>71.0</ele><time>2026-03-29T13:36:39Z</time></trkpt><trkpt lat="45.250583479779294" lon="9.569696114329366"><ele>70.33333333333334</ele><time>2026-03-29T13:36:40Z</time></trkpt><trkpt lat="45.25044877900713" lon="9.569845279250487"><ele>69.66666666666667</ele><time>2026-03-29T13:36:41Z</time></trkpt><trkpt lat="45.250304113099354" lon="9.570009042546848"><ele>69.0</ele><time>2026-03-29T13:36:42Z</time></trkpt><trkpt lat="45.250147760298674" lon="9.570195424831615"><ele>68.66666666666667</ele><time>2026-03-29T13:36:43Z</time></trkpt><trkpt lat="45.249988377236846" lon="9.570379480962643"><ele>68.33333333333334</ele><time>2026-03-29T13:36:44Z</time></trkpt><trkpt lat="45.2498203387266" lon="9.57055559044747"><ele>68.0</ele><time>2026-03-29T13:36:45Z</time></trkpt><trkpt lat="45.24966465996221" lon="9.570763971623531"><ele>68.0</ele><time>2026-03-29T13:36:46Z</time></trkpt><trkpt lat="45.249500428657846" lon="9.570944799400136"><ele>68.0</ele><time>2026-03-29T13:36:47Z</time></trkpt><trkpt lat="45.24932819134909" lon="9.571144584214908"><ele>68.0</ele><time>2026-03-29T13:36:48Z</time></trkpt><trkpt lat="45.24916332279663" lon="9.571341715176386"><ele>68.0</ele><time>2026-03-29T13:36:49Z</time></trkpt><trkpt lat="45.248991395498074" lon="9.571536606418352"><ele>68.0</ele><time>2026-03-29T13:36:50Z</time></trkpt><trkpt lat="45.24881076844463" lon="9.571738828673798"><ele>68.0</ele><time>2026-03-29T13:36:51Z</time></trkpt><trkpt lat="45.24863326587069" lon="9.57193755290185"><ele>68.0</ele><time>2026-03-29T13:36:52Z</time></trkpt><trkpt lat="45.248451747950384" lon="9.572143781415186"><ele>68.0</ele><time>2026-03-29T13:36:53Z</time></trkpt><trkpt lat="45.24826874191992" lon="9.572351712647531"><ele>68.0</ele><time>2026-03-29T13:36:54Z</time></trkpt><trkpt lat="45.24808918294873" lon="9.572555726223413"><ele>68.0</ele><time>2026-03-29T13:36:55Z</time></trkpt><trkpt lat="45.2479242492543" lon="9.572772682405787"><ele>68.0</ele><time>2026-03-29T13:36:56Z</time></trkpt><trkpt lat="45.24774905037253" lon="9.572943352607737"><ele>68.0</ele><time>2026-03-29T13:36:57Z</time></trkpt><trkpt lat="45.247582204497434" lon="9.57313205654704"><ele>68.0</ele><time>2026-03-29T13:36:58Z</time></trkpt><trkpt lat="45.247428159550644" lon="9.573305145557534"><ele>68.0</ele><time>2026-03-29T13:36:59Z</time></trkpt><trkpt lat="45.24725084775623" lon="9.573504378030151"><ele>68.0</ele><time>2026-03-29T13:37:00Z</time></trkpt><trkpt lat="45.24709430805621" lon="9.57368027022878"><ele>68.0</ele><time>2026-03-29T13:37:01Z</time></trkpt><trkpt lat="45.246944050192525" lon="9.573871369223538"><ele>68.0</ele><time>2026-03-29T13:37:02Z</time></trkpt><trkpt lat="45.24678964519947" lon="9.574025451700962"><ele>68.0</ele><time>2026-03-29T13:37:03Z</time></trkpt><trkpt lat="45.24664686936275" lon="9.57418752774675"><ele>68.0</ele><time>2026-03-29T13:37:04Z</time></trkpt><trkpt lat="45.24652229653127" lon="9.574328940097413"><ele>68.0</ele><time>2026-03-29T13:37:05Z</time></trkpt><trkpt lat="45.24637321612573" lon="9.574498172989431"><ele>68.0</ele><time>2026-03-29T13:37:06Z</time></trkpt><trkpt lat="45.246230477327735" lon="9.57465949732966"><ele>67.66666666666667</ele><time>2026-03-29T13:37:07Z</time></trkpt><trkpt lat="45.2460922346672" lon="9.574815608133921"><ele>67.33333333333333</ele><time>2026-03-29T13:37:08Z</time></trkpt><trkpt lat="45.24595039012632" lon="9.574975786208856"><ele>67.0</ele><time>2026-03-29T13:37:08.999Z</time></trkpt><trkpt lat="45.245800258559925" lon="9.575145322491405"><ele>67.0</ele><time>2026-03-29T13:37:09.999Z</time></trkpt><trkpt lat="45.24565102767528" lon="9.575313841609507"><ele>67.0</ele><time>2026-03-29T13:37:10.999Z</time></trkpt><trkpt lat="45.24550001607902" lon="9.575484371642139"><ele>67.0</ele><time>2026-03-29T13:37:11.999Z</time></trkpt><trkpt lat="45.24535152625843" lon="9.57565205397644"><ele>66.66666666666666</ele><time>2026-03-29T13:37:12.999Z</time></trkpt><trkpt lat="45.24520281634042" lon="9.575819984846982"><ele>66.33333333333333</ele><time>2026-03-29T13:37:13.999Z</time></trkpt><trkpt lat="45.24505550260605" lon="9.575986339037042"><ele>66.0</ele><time>2026-03-29T13:37:14.999Z</time></trkpt><trkpt lat="45.24491355511628" lon="9.576146633428806"><ele>66.33333333333333</ele><time>2026-03-29T13:37:15.999Z</time></trkpt><trkpt lat="45.24477473414967" lon="9.576332024483971"><ele>66.66666666666666</ele><time>2026-03-29T13:37:16.999Z</time></trkpt><trkpt lat="45.24462190403621" lon="9.576477128017892"><ele>67.0</ele><time>2026-03-29T13:37:17.999Z</time></trkpt><trkpt lat="45.24448209292418" lon="9.576635720277332"><ele>67.0</ele><time>2026-03-29T13:37:18.999Z</time></trkpt><trkpt lat="45.24435854300141" lon="9.576776719077834"><ele>67.0</ele><time>2026-03-29T13:37:19.999Z</time></trkpt><trkpt lat="45.24420571927334" lon="9.57695143803377"><ele>67.0</ele><time>2026-03-29T13:37:20.999Z</time></trkpt><trkpt lat="45.24406129189551" lon="9.577117552476707"><ele>67.0</ele><time>2026-03-29T13:37:21.999Z</time></trkpt><trkpt lat="45.243934823600206" lon="9.577291698622137"><ele>67.0</ele><time>2026-03-29T13:37:22.999Z</time></trkpt><trkpt lat="45.24379730949949" lon="9.57745043961291"><ele>67.0</ele><time>2026-03-29T13:37:23.999Z</time></trkpt><trkpt lat="45.2436519740118" lon="9.577589879657028"><ele>67.0</ele><time>2026-03-29T13:37:24.999Z</time></trkpt><trkpt lat="45.24352745150989" lon="9.577764055272734"><ele>67.0</ele><time>2026-03-29T13:37:25.999Z</time></trkpt><trkpt lat="45.2433921455207" lon="9.577904318524544"><ele>67.0</ele><time>2026-03-29T13:37:26.999Z</time></trkpt><trkpt lat="45.24328119632131" lon="9.578093906674628"><ele>66.66666666666666</ele><time>2026-03-29T13:37:27.999Z</time></trkpt><trkpt lat="45.24315485552905" lon="9.578288756625135"><ele>66.33333333333333</ele><time>2026-03-29T13:37:28.999Z</time></trkpt><trkpt lat="45.243045377442186" lon="9.578484145067758"><ele>66.0</ele><time>2026-03-29T13:37:29.999Z</time></trkpt><trkpt lat="45.242923346346586" lon="9.578674475263101"><ele>66.33333333333333</ele><time>2026-03-29T13:37:30.999Z</time></trkpt><trkpt lat="45.24281141565807" lon="9.5788788883167"><ele>66.66666666666666</ele><time>2026-03-29T13:37:31.999Z</time></trkpt><trkpt lat="45.24270005829222" lon="9.579083840178052"><ele>67.0</ele><time>2026-03-29T13:37:32.999Z</time></trkpt><trkpt lat="45.24260611173841" lon="9.579293555932745"><ele>67.0</ele><time>2026-03-29T13:37:33.999Z</time></trkpt><trkpt lat="45.24248107491413" lon="9.579490796185087"><ele>67.0</ele><time>2026-03-29T13:37:34.999Z</time></trkpt><trkpt lat="45.2423703647547" lon="9.579696538633224"><ele>67.0</ele><time>2026-03-29T13:37:35.999Z</time></trkpt><trkpt lat="45.24226296840955" lon="9.579896123532922"><ele>66.66666666666666</ele><time>2026-03-29T13:37:36.999Z</time></trkpt><trkpt lat="45.24215247891324" lon="9.580102588749167"><ele>66.33333333333333</ele><time>2026-03-29T13:37:37.999Z</time></trkpt><trkpt lat="45.24204435272883" lon="9.580304315335283"><ele>66.0</ele><time>2026-03-29T13:37:38.999Z</time></trkpt><trkpt lat="45.24193295336966" lon="9.580512148463114"><ele>66.0</ele><time>2026-03-29T13:37:39.999Z</time></trkpt><trkpt lat="45.24181863873106" lon="9.580725210449426"><ele>66.0</ele><time>2026-03-29T13:37:40.999Z</time></trkpt><trkpt lat="45.2417040926804" lon="9.580937532519282"><ele>66.0</ele><time>2026-03-29T13:37:41.999Z</time></trkpt><trkpt lat="45.24159868572903" lon="9.581132914386403"><ele>66.33333333333333</ele><time>2026-03-29T13:37:42.999Z</time></trkpt><trkpt lat="45.24149701145863" lon="9.581321377311077"><ele>66.66666666666666</ele><time>2026-03-29T13:37:43.999Z</time></trkpt><trkpt lat="45.24139101478123" lon="9.581518001474347"><ele>67.0</ele><time>2026-03-29T13:37:44.999Z</time></trkpt><trkpt lat="45.24128057644014" lon="9.581723617362645"><ele>67.0</ele><time>2026-03-29T13:37:45.999Z</time></trkpt><trkpt lat="45.24116605385569" lon="9.581936837308378"><ele>67.0</ele><time>2026-03-29T13:37:46.999Z</time></trkpt><trkpt lat="45.24105226985914" lon="9.582148682184014"><ele>67.0</ele><time>2026-03-29T13:37:47.999Z</time></trkpt><trkpt lat="45.24093796811313" lon="9.582361490989044"><ele>67.0</ele><time>2026-03-29T13:37:48.999Z</time></trkpt><trkpt lat="45.24082173394754" lon="9.58257688893992"><ele>67.0</ele><time>2026-03-29T13:37:49.999Z</time></trkpt><trkpt lat="45.24071345363203" lon="9.582777498717181"><ele>67.0</ele><time>2026-03-29T13:37:50.999Z</time></trkpt><trkpt lat="45.240607745338465" lon="9.582973343500813"><ele>66.0</ele><time>2026-03-29T13:37:51.999Z</time></trkpt><trkpt lat="45.24050561347806" lon="9.583162562230767"><ele>65.0</ele><time>2026-03-29T13:37:52.999Z</time></trkpt><trkpt lat="45.240395410259715" lon="9.583366138045983"><ele>64.0</ele><time>2026-03-29T13:37:53.999Z</time></trkpt><trkpt lat="45.240283508877596" lon="9.58357585952602"><ele>64.0</ele><time>2026-03-29T13:37:54.999Z</time></trkpt><trkpt lat="45.24018412125798" lon="9.583800298255825"><ele>64.0</ele><time>2026-03-29T13:37:55.999Z</time></trkpt><trkpt lat="45.24007241341501" lon="9.584005590240045"><ele>64.0</ele><time>2026-03-29T13:37:56.999Z</time></trkpt><trkpt lat="45.239955773597536" lon="9.584209721889456"><ele>64.0</ele><time>2026-03-29T13:37:57.999Z</time></trkpt><trkpt lat="45.23984864204232" lon="9.58442475505069"><ele>64.0</ele><time>2026-03-29T13:37:58.999Z</time></trkpt><trkpt lat="45.23972708847922" lon="9.58463564946173"><ele>64.0</ele><time>2026-03-29T13:37:59.999Z</time></trkpt><trkpt lat="45.23961188576416" lon="9.58484077632229"><ele>65.0</ele><time>2026-03-29T13:38:00.999Z</time></trkpt><trkpt lat="45.23950072171809" lon="9.585054952007834"><ele>66.0</ele><time>2026-03-29T13:38:01.999Z</time></trkpt><trkpt lat="45.23938642650078" lon="9.585268097267688"><ele>67.0</ele><time>2026-03-29T13:38:02.999Z</time></trkpt><trkpt lat="45.23926585930607" lon="9.585488461095208"><ele>67.0</ele><time>2026-03-29T13:38:03.999Z</time></trkpt><trkpt lat="45.239142441642336" lon="9.585713621520789"><ele>67.0</ele><time>2026-03-29T13:38:04.999Z</time></trkpt><trkpt lat="45.239021899219864" lon="9.58593458814191"><ele>67.0</ele><time>2026-03-29T13:38:05.999Z</time></trkpt><trkpt lat="45.23890185263295" lon="9.586154694269622"><ele>66.33333333333333</ele><time>2026-03-29T13:38:06.999Z</time></trkpt><trkpt lat="45.23878419424883" lon="9.586372703690497"><ele>65.66666666666667</ele><time>2026-03-29T13:38:07.999Z</time></trkpt><trkpt lat="45.23867120618747" lon="9.586584840899253"><ele>65.0</ele><time>2026-03-29T13:38:08.999Z</time></trkpt><trkpt lat="45.23856300414192" lon="9.58678811829989"><ele>65.0</ele><time>2026-03-29T13:38:09.999Z</time></trkpt><trkpt lat="45.23845423844596" lon="9.586989060804603"><ele>65.0</ele><time>2026-03-29T13:38:10.999Z</time></trkpt><trkpt lat="45.23834514539791" lon="9.587193705265847"><ele>65.0</ele><time>2026-03-29T13:38:11.999Z</time></trkpt><trkpt lat="45.23822630864048" lon="9.587399010032001"><ele>65.0</ele><time>2026-03-29T13:38:12.999Z</time></trkpt><trkpt lat="45.238100242364744" lon="9.587610066281446"><ele>65.0</ele><time>2026-03-29T13:38:14Z</time></trkpt><trkpt lat="45.23798429270236" lon="9.587837677830528"><ele>65.0</ele><time>2026-03-29T13:38:15Z</time></trkpt><trkpt lat="45.2378573116412" lon="9.588054259690306"><ele>65.33333333333334</ele><time>2026-03-29T13:38:16Z</time></trkpt><trkpt lat="45.237730170980434" lon="9.588268297897326"><ele>65.66666666666667</ele><time>2026-03-29T13:38:17Z</time></trkpt><trkpt lat="45.2376040827285" lon="9.588481584623208"><ele>66.0</ele><time>2026-03-29T13:38:18Z</time></trkpt><trkpt lat="45.237478893560294" lon="9.588698751948204"><ele>66.0</ele><time>2026-03-29T13:38:19Z</time></trkpt><trkpt lat="45.23735372158397" lon="9.588912681660144"><ele>66.0</ele><time>2026-03-29T13:38:20Z</time></trkpt><trkpt lat="45.23722674558041" lon="9.58912073351042"><ele>66.0</ele><time>2026-03-29T13:38:21Z</time></trkpt><trkpt lat="45.23710734928463" lon="9.589325487649841"><ele>66.66666666666667</ele><time>2026-03-29T13:38:22Z</time></trkpt><trkpt lat="45.23699224458029" lon="9.589522136659575"><ele>67.33333333333334</ele><time>2026-03-29T13:38:23Z</time></trkpt><trkpt lat="45.23687761407887" lon="9.589717648324877"><ele>68.0</ele><time>2026-03-29T13:38:24Z</time></trkpt><trkpt lat="45.236763237531164" lon="9.589912983548372"><ele>68.0</ele><time>2026-03-29T13:38:25Z</time></trkpt><trkpt lat="45.236644974710785" lon="9.590115248100984"><ele>68.0</ele><time>2026-03-29T13:38:26Z</time></trkpt><trkpt lat="45.23652581709784" lon="9.590313818409326"><ele>68.0</ele><time>2026-03-29T13:38:27Z</time></trkpt><trkpt lat="45.2364091261884" lon="9.590503371958949"><ele>68.33333333333334</ele><time>2026-03-29T13:38:28Z</time></trkpt><trkpt lat="45.23629420634976" lon="9.59069066317298"><ele>68.66666666666667</ele><time>2026-03-29T13:38:29Z</time></trkpt><trkpt lat="45.23618475932467" lon="9.590872028048999"><ele>69.0</ele><time>2026-03-29T13:38:30Z</time></trkpt><trkpt lat="45.23607960368858" lon="9.591051854878911"><ele>68.66666666666667</ele><time>2026-03-29T13:38:31Z</time></trkpt><trkpt lat="45.23597244116336" lon="9.591225411233895"><ele>68.33333333333334</ele><time>2026-03-29T13:38:32Z</time></trkpt><trkpt lat="45.23586484417993" lon="9.59142269012164"><ele>68.0</ele><time>2026-03-29T13:38:33Z</time></trkpt><trkpt lat="45.23575431148778" lon="9.591609832514031"><ele>68.0</ele><time>2026-03-29T13:38:34Z</time></trkpt><trkpt lat="45.235641998645725" lon="9.59180658702508"><ele>68.0</ele><time>2026-03-29T13:38:35Z</time></trkpt><trkpt lat="45.23552959969273" lon="9.592000478368634"><ele>68.0</ele><time>2026-03-29T13:38:36Z</time></trkpt><trkpt lat="45.23540495599561" lon="9.592179824637814"><ele>67.0</ele><time>2026-03-29T13:38:37Z</time></trkpt><trkpt lat="45.2352889998338" lon="9.592377563013335"><ele>66.0</ele><time>2026-03-29T13:38:38Z</time></trkpt><trkpt lat="45.23516813910751" lon="9.592583664892683"><ele>65.0</ele><time>2026-03-29T13:38:39Z</time></trkpt><trkpt lat="45.23505974166001" lon="9.592803929036311"><ele>64.66666666666667</ele><time>2026-03-29T13:38:40Z</time></trkpt><trkpt lat="45.23492545065031" lon="9.59299494403096"><ele>64.33333333333333</ele><time>2026-03-29T13:38:41Z</time></trkpt><trkpt lat="45.23480257054725" lon="9.593195327144867"><ele>64.0</ele><time>2026-03-29T13:38:42Z</time></trkpt><trkpt lat="45.234673875374945" lon="9.59339292797709"><ele>64.33333333333333</ele><time>2026-03-29T13:38:43Z</time></trkpt><trkpt lat="45.234544171399286" lon="9.593585614646189"><ele>64.66666666666667</ele><time>2026-03-29T13:38:44Z</time></trkpt><trkpt lat="45.23441267608554" lon="9.593780026186524"><ele>65.0</ele><time>2026-03-29T13:38:45Z</time></trkpt><trkpt lat="45.2342803678136" lon="9.593969326287535"><ele>65.0</ele><time>2026-03-29T13:38:46Z</time></trkpt><trkpt lat="45.234149913654214" lon="9.594149516185233"><ele>65.0</ele><time>2026-03-29T13:38:47Z</time></trkpt><trkpt lat="45.23401551300136" lon="9.59432409684373"><ele>65.0</ele><time>2026-03-29T13:38:48Z</time></trkpt><trkpt lat="45.2338772201905" lon="9.59449159763128"><ele>65.33333333333334</ele><time>2026-03-29T13:38:49Z</time></trkpt><trkpt lat="45.233739211862314" lon="9.594656864168508"><ele>65.66666666666667</ele><time>2026-03-29T13:38:50Z</time></trkpt><trkpt lat="45.23359990150983" lon="9.594820415101273"><ele>66.0</ele><time>2026-03-29T13:38:51Z</time></trkpt><trkpt lat="45.23346064328318" lon="9.594980511045291"><ele>66.0</ele><time>2026-03-29T13:38:52Z</time></trkpt><trkpt lat="45.23331800331063" lon="9.595132636140296"><ele>66.0</ele><time>2026-03-29T13:38:53Z</time></trkpt><trkpt lat="45.23317241687086" lon="9.59527880780877"><ele>66.0</ele><time>2026-03-29T13:38:54Z</time></trkpt><trkpt lat="45.23303224278929" lon="9.59541862236654"><ele>65.33333333333333</ele><time>2026-03-29T13:38:55Z</time></trkpt><trkpt lat="45.23289212492408" lon="9.595556172454058"><ele>64.66666666666666</ele><time>2026-03-29T13:38:56Z</time></trkpt><trkpt lat="45.23276034566143" lon="9.59570770948267"><ele>64.0</ele><time>2026-03-29T13:38:57Z</time></trkpt><trkpt lat="45.232609429077" lon="9.59583986652872"><ele>64.0</ele><time>2026-03-29T13:38:58Z</time></trkpt><trkpt lat="45.23244342303307" lon="9.595949839486675"><ele>64.0</ele><time>2026-03-29T13:38:59Z</time></trkpt><trkpt lat="45.232279320278984" lon="9.596080413673732"><ele>64.0</ele><time>2026-03-29T13:39:00Z</time></trkpt><trkpt lat="45.23211586858633" lon="9.596208064549119"><ele>64.33333333333333</ele><time>2026-03-29T13:39:01Z</time></trkpt><trkpt lat="45.23195264451468" lon="9.59633118882147"><ele>64.66666666666667</ele><time>2026-03-29T13:39:02Z</time></trkpt><trkpt lat="45.23178586584915" lon="9.596450379658407"><ele>65.0</ele><time>2026-03-29T13:39:03Z</time></trkpt><trkpt lat="45.23161999709611" lon="9.596555677510695"><ele>65.33333333333334</ele><time>2026-03-29T13:39:04Z</time></trkpt><trkpt lat="45.23145514062316" lon="9.596660251345215"><ele>65.66666666666667</ele><time>2026-03-29T13:39:05Z</time></trkpt><trkpt lat="45.231288890679906" lon="9.596765709177252"><ele>66.0</ele><time>2026-03-29T13:39:06Z</time></trkpt><trkpt lat="45.23112453624101" lon="9.5968698109142"><ele>66.0</ele><time>2026-03-29T13:39:07Z</time></trkpt><trkpt lat="45.23096409003049" lon="9.596970201534345"><ele>66.0</ele><time>2026-03-29T13:39:08Z</time></trkpt><trkpt lat="45.23080709068361" lon="9.597068435484504"><ele>66.0</ele><time>2026-03-29T13:39:09Z</time></trkpt><trkpt lat="45.23064819307729" lon="9.597167857218551"><ele>66.0</ele><time>2026-03-29T13:39:10Z</time></trkpt><trkpt lat="45.23050067819239" lon="9.597260097383042"><ele>66.0</ele><time>2026-03-29T13:39:11Z</time></trkpt><trkpt lat="45.23034625100973" lon="9.59735604763493"><ele>66.0</ele><time>2026-03-29T13:39:12Z</time></trkpt><trkpt lat="45.23018744360387" lon="9.597454719541782"><ele>66.0</ele><time>2026-03-29T13:39:13Z</time></trkpt><trkpt lat="45.23003310920117" lon="9.597575238737534"><ele>66.0</ele><time>2026-03-29T13:39:14Z</time></trkpt><trkpt lat="45.22987497832439" lon="9.597669618315777"><ele>66.0</ele><time>2026-03-29T13:39:15Z</time></trkpt><trkpt lat="45.229724727744944" lon="9.597761638218541"><ele>65.75</ele><time>2026-03-29T13:39:16Z</time></trkpt><trkpt lat="45.229582847624364" lon="9.59785053317015"><ele>65.5</ele><time>2026-03-29T13:39:17Z</time></trkpt><trkpt lat="45.22944704097047" lon="9.59793396761646"><ele>65.25</ele><time>2026-03-29T13:39:18Z</time></trkpt><trkpt lat="45.22931935782016" lon="9.598012879635613"><ele>65.0</ele><time>2026-03-29T13:39:18.999Z</time></trkpt><trkpt lat="45.2292031902248" lon="9.59808323763234"><ele>65.0</ele><time>2026-03-29T13:39:19.999Z</time></trkpt><trkpt lat="45.22909691517328" lon="9.598150200479772"><ele>65.0</ele><time>2026-03-29T13:39:20.999Z</time></trkpt><trkpt lat="45.228995678042196" lon="9.598206773920133"><ele>65.0</ele><time>2026-03-29T13:39:21.999Z</time></trkpt><trkpt lat="45.22890318173789" lon="9.598267554269762"><ele>65.0</ele><time>2026-03-29T13:39:22.999Z</time></trkpt><trkpt lat="45.2288282115807" lon="9.598322856637743"><ele>65.0</ele><time>2026-03-29T13:39:23.999Z</time></trkpt><trkpt lat="45.22876033737873" lon="9.598366779873835"><ele>65.0</ele><time>2026-03-29T13:39:24.999Z</time></trkpt><trkpt lat="45.228691084467826" lon="9.598377872974341"><ele>65.0</ele><time>2026-03-29T13:39:25.999Z</time></trkpt><trkpt lat="45.22862702142268" lon="9.598380199346618"><ele>65.0</ele><time>2026-03-29T13:39:26.999Z</time></trkpt><trkpt lat="45.228561602297404" lon="9.598374968140671"><ele>65.0</ele><time>2026-03-29T13:39:27.999Z</time></trkpt><trkpt lat="45.228498458175686" lon="9.598372940541118"><ele>65.0</ele><time>2026-03-29T13:39:28.999Z</time></trkpt><trkpt lat="45.2283929682037" lon="9.59839188895612"><ele>65.0</ele><time>2026-03-29T13:39:30.999Z</time></trkpt><trkpt lat="45.228312317782155" lon="9.598421475614991"><ele>65.0</ele><time>2026-03-29T13:39:32.999Z</time></trkpt><trkpt lat="45.22822472223279" lon="9.598374491622465"><ele>65.0</ele><time>2026-03-29T13:39:35.999Z</time></trkpt><trkpt lat="45.228228421879045" lon="9.598564888226662"><ele>65.0</ele><time>2026-03-29T13:40:30Z</time></trkpt><trkpt lat="45.228183975185786" lon="9.59842119368436"><ele>65.0</ele><time>2026-03-29T13:40:32Z</time></trkpt><trkpt lat="45.228294100345025" lon="9.59840368403203"><ele>65.0</ele><time>2026-03-29T13:44:03.999Z</time></trkpt><trkpt lat="45.228217290912944" lon="9.59860877864793"><ele>65.0</ele><time>2026-03-29T13:44:04.999Z</time></trkpt><trkpt lat="45.228200696299986" lon="9.598719695100778"><ele>65.0</ele><time>2026-03-29T13:44:07.999Z</time></trkpt><trkpt lat="45.22807916445697" lon="9.598818705595345"><ele>65.0</ele><time>2026-03-29T13:44:09.999Z</time></trkpt><trkpt lat="45.22797825254548" lon="9.598834630788607"><ele>65.0</ele><time>2026-03-29T13:44:10.999Z</time></trkpt><trkpt lat="45.22786362842448" lon="9.59892283086041"><ele>65.0</ele><time>2026-03-29T13:44:11.999Z</time></trkpt><trkpt lat="45.22774499338318" lon="9.598992668842065"><ele>65.0</ele><time>2026-03-29T13:44:12.999Z</time></trkpt><trkpt lat="45.2276241256984" lon="9.599066254605209"><ele>65.0</ele><time>2026-03-29T13:44:13.999Z</time></trkpt><trkpt lat="45.22749539573904" lon="9.599144102606578"><ele>65.0</ele><time>2026-03-29T13:44:14.999Z</time></trkpt><trkpt lat="45.227371820884976" lon="9.59922245046615"><ele>65.0</ele><time>2026-03-29T13:44:15.999Z</time></trkpt><trkpt lat="45.22724951281494" lon="9.599299458782351"><ele>65.0</ele><time>2026-03-29T13:44:16.999Z</time></trkpt><trkpt lat="45.22712607783963" lon="9.599373142932127"><ele>65.0</ele><time>2026-03-29T13:44:17.999Z</time></trkpt><trkpt lat="45.22698678133851" lon="9.599462017300308"><ele>65.0</ele><time>2026-03-29T13:44:18.999Z</time></trkpt><trkpt lat="45.22685123315115" lon="9.5995492257702"><ele>65.0</ele><time>2026-03-29T13:44:19.999Z</time></trkpt><trkpt lat="45.226711243623214" lon="9.599635618021642"><ele>65.0</ele><time>2026-03-29T13:44:20.999Z</time></trkpt><trkpt lat="45.226574800312584" lon="9.599717565048362"><ele>65.0</ele><time>2026-03-29T13:44:21.999Z</time></trkpt><trkpt lat="45.22644036197426" lon="9.599803936315148"><ele>65.0</ele><time>2026-03-29T13:44:22.999Z</time></trkpt><trkpt lat="45.226308093860645" lon="9.59989008372539"><ele>65.0</ele><time>2026-03-29T13:44:23.999Z</time></trkpt><trkpt lat="45.22617396390967" lon="9.599976992122054"><ele>65.0</ele><time>2026-03-29T13:44:24.999Z</time></trkpt><trkpt lat="45.2260447549466" lon="9.600059627919698"><ele>65.0</ele><time>2026-03-29T13:44:25.999Z</time></trkpt><trkpt lat="45.22590031412147" lon="9.600124731410782"><ele>65.0</ele><time>2026-03-29T13:44:26.999Z</time></trkpt><trkpt lat="45.22575295227703" lon="9.60021641858032"><ele>64.66666666666667</ele><time>2026-03-29T13:44:27.999Z</time></trkpt><trkpt lat="45.2255950567051" lon="9.600315015855141"><ele>64.33333333333333</ele><time>2026-03-29T13:44:28.999Z</time></trkpt><trkpt lat="45.22543007855914" lon="9.600418350534632"><ele>64.0</ele><time>2026-03-29T13:44:29.999Z</time></trkpt><trkpt lat="45.22526236230795" lon="9.600523400302515"><ele>64.0</ele><time>2026-03-29T13:44:30.999Z</time></trkpt><trkpt lat="45.22512210632696" lon="9.600630202568192"><ele>64.0</ele><time>2026-03-29T13:44:31.999Z</time></trkpt><trkpt lat="45.224970940362674" lon="9.600725866502222"><ele>64.0</ele><time>2026-03-29T13:44:32.999Z</time></trkpt><trkpt lat="45.22480788268208" lon="9.600805714599044"><ele>64.0</ele><time>2026-03-29T13:44:33.999Z</time></trkpt><trkpt lat="45.22464706459267" lon="9.600905222364057"><ele>64.0</ele><time>2026-03-29T13:44:34.999Z</time></trkpt><trkpt lat="45.224485281877925" lon="9.601005870283988"><ele>64.0</ele><time>2026-03-29T13:44:35.999Z</time></trkpt><trkpt lat="45.22430214247938" lon="9.601121125939942"><ele>64.33333333333333</ele><time>2026-03-29T13:44:36.999Z</time></trkpt><trkpt lat="45.22411893900533" lon="9.601236422015184"><ele>64.66666666666667</ele><time>2026-03-29T13:44:37.999Z</time></trkpt><trkpt lat="45.22394197209587" lon="9.601353255415335"><ele>65.0</ele><time>2026-03-29T13:44:39Z</time></trkpt><trkpt lat="45.223776752741365" lon="9.601470225452985"><ele>64.33333333333334</ele><time>2026-03-29T13:44:40Z</time></trkpt><trkpt lat="45.223598277337345" lon="9.601589043435997"><ele>63.66666666666667</ele><time>2026-03-29T13:44:41Z</time></trkpt><trkpt lat="45.22341572736625" lon="9.601697640919376"><ele>63.0</ele><time>2026-03-29T13:44:42Z</time></trkpt><trkpt lat="45.22324677196832" lon="9.601806706484263"><ele>63.33333333333333</ele><time>2026-03-29T13:44:43Z</time></trkpt><trkpt lat="45.223073412653775" lon="9.601913445545692"><ele>63.666666666666664</ele><time>2026-03-29T13:44:44Z</time></trkpt><trkpt lat="45.22289853921861" lon="9.602028995112095"><ele>64.0</ele><time>2026-03-29T13:44:45Z</time></trkpt><trkpt lat="45.222717186381416" lon="9.602118149407938"><ele>64.0</ele><time>2026-03-29T13:44:46Z</time></trkpt><trkpt lat="45.2225466561672" lon="9.602224574292647"><ele>64.0</ele><time>2026-03-29T13:44:47Z</time></trkpt><trkpt lat="45.22237733177715" lon="9.602330316335934"><ele>64.0</ele><time>2026-03-29T13:44:48Z</time></trkpt><trkpt lat="45.22220388755444" lon="9.602458073865881"><ele>64.0</ele><time>2026-03-29T13:44:49Z</time></trkpt><trkpt lat="45.22202606657567" lon="9.602573613503507"><ele>64.0</ele><time>2026-03-29T13:44:50Z</time></trkpt><trkpt lat="45.221852115513386" lon="9.602682217233173"><ele>64.0</ele><time>2026-03-29T13:44:51Z</time></trkpt><trkpt lat="45.221670149916584" lon="9.602794985537573"><ele>64.0</ele><time>2026-03-29T13:44:52Z</time></trkpt><trkpt lat="45.22148062766084" lon="9.602889195521707"><ele>64.0</ele><time>2026-03-29T13:44:53Z</time></trkpt><trkpt lat="45.221297682364145" lon="9.603003055949788"><ele>64.0</ele><time>2026-03-29T13:44:54Z</time></trkpt><trkpt lat="45.221118359518734" lon="9.603114661816708"><ele>64.0</ele><time>2026-03-29T13:44:55Z</time></trkpt><trkpt lat="45.22094075421119" lon="9.603225348374048"><ele>64.0</ele><time>2026-03-29T13:44:56Z</time></trkpt><trkpt lat="45.220757712362555" lon="9.603339441308291"><ele>64.0</ele><time>2026-03-29T13:44:57Z</time></trkpt><trkpt lat="45.22056157284893" lon="9.603462995852396"><ele>63.666666666666664</ele><time>2026-03-29T13:44:58Z</time></trkpt><trkpt lat="45.22036347486342" lon="9.603587948637417"><ele>63.33333333333333</ele><time>2026-03-29T13:44:59Z</time></trkpt><trkpt lat="45.220164498017404" lon="9.603713455599982"><ele>63.0</ele><time>2026-03-29T13:45:00Z</time></trkpt><trkpt lat="45.2199708579827" lon="9.603835168374138"><ele>63.33333333333333</ele><time>2026-03-29T13:45:01Z</time></trkpt><trkpt lat="45.21977925673077" lon="9.603955343633714"><ele>63.666666666666664</ele><time>2026-03-29T13:45:02Z</time></trkpt><trkpt lat="45.219589207446504" lon="9.60407454731386"><ele>64.0</ele><time>2026-03-29T13:45:03Z</time></trkpt><trkpt lat="45.21940216065809" lon="9.60419186594615"><ele>64.0</ele><time>2026-03-29T13:45:04Z</time></trkpt><trkpt lat="45.219218652701706" lon="9.604306964914576"><ele>64.0</ele><time>2026-03-29T13:45:05Z</time></trkpt><trkpt lat="45.21903166827826" lon="9.60442424323782"><ele>64.0</ele><time>2026-03-29T13:45:06Z</time></trkpt><trkpt lat="45.218839605359165" lon="9.604543942410825"><ele>64.33333333333333</ele><time>2026-03-29T13:45:07Z</time></trkpt><trkpt lat="45.21863657333358" lon="9.60467067248258"><ele>64.66666666666667</ele><time>2026-03-29T13:45:08Z</time></trkpt><trkpt lat="45.21843986008938" lon="9.604793458452388"><ele>65.0</ele><time>2026-03-29T13:45:09Z</time></trkpt><trkpt lat="45.21824527514069" lon="9.604914915969179"><ele>65.33333333333334</ele><time>2026-03-29T13:45:10Z</time></trkpt><trkpt lat="45.21803841309103" lon="9.605045323232924"><ele>65.66666666666667</ele><time>2026-03-29T13:45:11Z</time></trkpt><trkpt lat="45.217839894515386" lon="9.605170560572168"><ele>66.0</ele><time>2026-03-29T13:45:12Z</time></trkpt><trkpt lat="45.217642230931695" lon="9.605295258499716"><ele>65.66666666666667</ele><time>2026-03-29T13:45:13Z</time></trkpt><trkpt lat="45.217440985740936" lon="9.605422215897352"><ele>65.33333333333334</ele><time>2026-03-29T13:45:13.999Z</time></trkpt><trkpt lat="45.21724204704967" lon="9.60554771823268"><ele>65.0</ele><time>2026-03-29T13:45:14.999Z</time></trkpt><trkpt lat="45.217037302902895" lon="9.60567688297029"><ele>65.0</ele><time>2026-03-29T13:45:15.999Z</time></trkpt><trkpt lat="45.21683539023259" lon="9.605804261511333"><ele>65.0</ele><time>2026-03-29T13:45:16.999Z</time></trkpt><trkpt lat="45.216628243052426" lon="9.605934942244135"><ele>65.0</ele><time>2026-03-29T13:45:17.999Z</time></trkpt><trkpt lat="45.216421855235374" lon="9.606065143922477"><ele>64.5</ele><time>2026-03-29T13:45:18.999Z</time></trkpt><trkpt lat="45.21620989164995" lon="9.606198531846525"><ele>64.0</ele><time>2026-03-29T13:45:19.999Z</time></trkpt><trkpt lat="45.21599611252847" lon="9.606332838272532"><ele>64.0</ele><time>2026-03-29T13:45:20.999Z</time></trkpt><trkpt lat="45.215780970036526" lon="9.606468001314065"><ele>64.0</ele><time>2026-03-29T13:45:21.999Z</time></trkpt><trkpt lat="45.21556617028536" lon="9.606602948980443"><ele>64.0</ele><time>2026-03-29T13:45:22.999Z</time></trkpt><trkpt lat="45.215355272092026" lon="9.606735445516417"><ele>64.0</ele><time>2026-03-29T13:45:23.999Z</time></trkpt><trkpt lat="45.2151381224627" lon="9.60687186954724"><ele>64.0</ele><time>2026-03-29T13:45:24.999Z</time></trkpt><trkpt lat="45.214926599247605" lon="9.607004760573368"><ele>64.0</ele><time>2026-03-29T13:45:25.999Z</time></trkpt><trkpt lat="45.214714337104915" lon="9.607138114013878"><ele>64.5</ele><time>2026-03-29T13:45:26.999Z</time></trkpt><trkpt lat="45.214500716952344" lon="9.607272320628029"><ele>65.0</ele><time>2026-03-29T13:45:27.999Z</time></trkpt><trkpt lat="45.214292262978915" lon="9.607403281588834"><ele>65.0</ele><time>2026-03-29T13:45:28.999Z</time></trkpt><trkpt lat="45.21408187054235" lon="9.607535384432614"><ele>65.0</ele><time>2026-03-29T13:45:29.999Z</time></trkpt><trkpt lat="45.21386685514623" lon="9.607670373433791"><ele>64.5</ele><time>2026-03-29T13:45:30.999Z</time></trkpt><trkpt lat="45.213648489663775" lon="9.607807465644832"><ele>64.0</ele><time>2026-03-29T13:45:31.999Z</time></trkpt><trkpt lat="45.213429756410555" lon="9.607944788786646"><ele>63.5</ele><time>2026-03-29T13:45:32.999Z</time></trkpt><trkpt lat="45.213226487674575" lon="9.608072403122542"><ele>63.0</ele><time>2026-03-29T13:45:33.999Z</time></trkpt><trkpt lat="45.21301538276139" lon="9.608204937068038"><ele>63.0</ele><time>2026-03-29T13:45:34.999Z</time></trkpt><trkpt lat="45.21281801204062" lon="9.60832884701261"><ele>63.0</ele><time>2026-03-29T13:45:35.999Z</time></trkpt><trkpt lat="45.21260963436008" lon="9.608459666996131"><ele>63.0</ele><time>2026-03-29T13:45:36.999Z</time></trkpt><trkpt lat="45.212398616126016" lon="9.608628869588566"><ele>63.0</ele><time>2026-03-29T13:45:37.999Z</time></trkpt><trkpt lat="45.21219355712196" lon="9.608760576128107"><ele>63.0</ele><time>2026-03-29T13:45:38.999Z</time></trkpt><trkpt lat="45.21198283728696" lon="9.608892579636183"><ele>63.0</ele><time>2026-03-29T13:45:39.999Z</time></trkpt><trkpt lat="45.21176470027672" lon="9.60903073469896"><ele>63.0</ele><time>2026-03-29T13:45:40.999Z</time></trkpt><trkpt lat="45.211552713738385" lon="9.609159068031973"><ele>62.5</ele><time>2026-03-29T13:45:41.999Z</time></trkpt><trkpt lat="45.21133678776069" lon="9.609294751653815"><ele>62.0</ele><time>2026-03-29T13:45:42.999Z</time></trkpt><trkpt lat="45.211128157198445" lon="9.609428664325225"><ele>62.0</ele><time>2026-03-29T13:45:43.999Z</time></trkpt><trkpt lat="45.21091475174668" lon="9.609555663908974"><ele>62.0</ele><time>2026-03-29T13:45:44.999Z</time></trkpt><trkpt lat="45.21070063334084" lon="9.609691897217594"><ele>62.5</ele><time>2026-03-29T13:45:45.999Z</time></trkpt><trkpt lat="45.21048948124856" lon="9.609849452346754"><ele>63.0</ele><time>2026-03-29T13:45:46.999Z</time></trkpt><trkpt lat="45.210272897665924" lon="9.60996795257559"><ele>63.0</ele><time>2026-03-29T13:45:47.999Z</time></trkpt><trkpt lat="45.210061928103485" lon="9.610096319531449"><ele>63.0</ele><time>2026-03-29T13:45:48.999Z</time></trkpt><trkpt lat="45.20984872263929" lon="9.610227832193084"><ele>63.33333333333333</ele><time>2026-03-29T13:45:49.999Z</time></trkpt><trkpt lat="45.20963982312297" lon="9.610349386345876"><ele>63.666666666666664</ele><time>2026-03-29T13:45:50.999Z</time></trkpt><trkpt lat="45.209436284597366" lon="9.610473822748007"><ele>64.0</ele><time>2026-03-29T13:45:51.999Z</time></trkpt><trkpt lat="45.20925312482183" lon="9.610623212592257"><ele>64.0</ele><time>2026-03-29T13:45:52.999Z</time></trkpt><trkpt lat="45.20905074383606" lon="9.610702944414234"><ele>64.0</ele><time>2026-03-29T13:45:53.999Z</time></trkpt><trkpt lat="45.208862244048426" lon="9.610788550009792"><ele>64.0</ele><time>2026-03-29T13:45:54.999Z</time></trkpt><trkpt lat="45.20865839558774" lon="9.610877712722354"><ele>64.5</ele><time>2026-03-29T13:45:55.999Z</time></trkpt><trkpt lat="45.20843098121527" lon="9.610915067880306"><ele>65.0</ele><time>2026-03-29T13:45:56.999Z</time></trkpt><trkpt lat="45.20820584696733" lon="9.6109327575564"><ele>64.5</ele><time>2026-03-29T13:45:57.999Z</time></trkpt><trkpt lat="45.20797234470566" lon="9.610962043432822"><ele>64.0</ele><time>2026-03-29T13:45:58.999Z</time></trkpt><trkpt lat="45.207745770813666" lon="9.61099184629215"><ele>64.0</ele><time>2026-03-29T13:45:59.999Z</time></trkpt><trkpt lat="45.20753283597888" lon="9.61101380851828"><ele>64.0</ele><time>2026-03-29T13:46:00.999Z</time></trkpt><trkpt lat="45.20732751747957" lon="9.611031529824809"><ele>64.0</ele><time>2026-03-29T13:46:01.999Z</time></trkpt><trkpt lat="45.20713636320056" lon="9.61104619193162"><ele>64.0</ele><time>2026-03-29T13:46:02.999Z</time></trkpt><trkpt lat="45.20695353415907" lon="9.611072287190847"><ele>64.0</ele><time>2026-03-29T13:46:03.999Z</time></trkpt><trkpt lat="45.20676602381612" lon="9.611129560080068"><ele>64.0</ele><time>2026-03-29T13:46:04.999Z</time></trkpt><trkpt lat="45.20658045043022" lon="9.61120367304644"><ele>63.33333333333333</ele><time>2026-03-29T13:46:05.999Z</time></trkpt><trkpt lat="45.20640258567829" lon="9.611292228725858"><ele>62.66666666666667</ele><time>2026-03-29T13:46:06.999Z</time></trkpt><trkpt lat="45.20622376915297" lon="9.611457511424979"><ele>62.0</ele><time>2026-03-29T13:46:07.999Z</time></trkpt><trkpt lat="45.20604621054593" lon="9.611628014816974"><ele>62.0</ele><time>2026-03-29T13:46:08.999Z</time></trkpt><trkpt lat="45.205875794385626" lon="9.611818380853006"><ele>62.0</ele><time>2026-03-29T13:46:09.999Z</time></trkpt><trkpt lat="45.205700328366206" lon="9.612018768652119"><ele>62.0</ele><time>2026-03-29T13:46:10.999Z</time></trkpt><trkpt lat="45.20551964251698" lon="9.612215113302536"><ele>62.66666666666667</ele><time>2026-03-29T13:46:11.999Z</time></trkpt><trkpt lat="45.20534112488322" lon="9.612401811296394"><ele>63.33333333333333</ele><time>2026-03-29T13:46:12.999Z</time></trkpt><trkpt lat="45.205169168394804" lon="9.612587805556775"><ele>64.0</ele><time>2026-03-29T13:46:13.999Z</time></trkpt><trkpt lat="45.20500277640901" lon="9.612768890456328"><ele>63.666666666666664</ele><time>2026-03-29T13:46:14.999Z</time></trkpt><trkpt lat="45.20484807369265" lon="9.61292460963907"><ele>63.33333333333333</ele><time>2026-03-29T13:46:15.999Z</time></trkpt><trkpt lat="45.20468938185604" lon="9.613095486597905"><ele>63.0</ele><time>2026-03-29T13:46:16.999Z</time></trkpt><trkpt lat="45.204534855623436" lon="9.613254928406507"><ele>63.0</ele><time>2026-03-29T13:46:17.999Z</time></trkpt><trkpt lat="45.2043777966706" lon="9.613400347677986"><ele>63.0</ele><time>2026-03-29T13:46:18.999Z</time></trkpt><trkpt lat="45.20422979635309" lon="9.6135731672645"><ele>63.0</ele><time>2026-03-29T13:46:19.999Z</time></trkpt><trkpt lat="45.20407681859485" lon="9.613736100612867"><ele>62.66666666666667</ele><time>2026-03-29T13:46:20.999Z</time></trkpt><trkpt lat="45.20392839020084" lon="9.61389297566498"><ele>62.333333333333336</ele><time>2026-03-29T13:46:21.999Z</time></trkpt><trkpt lat="45.203782618408745" lon="9.614049452757236"><ele>62.0</ele><time>2026-03-29T13:46:22.999Z</time></trkpt><trkpt lat="45.2036316922226" lon="9.614205223626643"><ele>62.0</ele><time>2026-03-29T13:46:23.999Z</time></trkpt><trkpt lat="45.203485660646656" lon="9.614361626839338"><ele>62.0</ele><time>2026-03-29T13:46:24.999Z</time></trkpt><trkpt lat="45.20333946673567" lon="9.61451698078358"><ele>62.0</ele><time>2026-03-29T13:46:25.999Z</time></trkpt><trkpt lat="45.20319231131065" lon="9.614677804342124"><ele>62.66666666666667</ele><time>2026-03-29T13:46:26.999Z</time></trkpt><trkpt lat="45.20304757309147" lon="9.61482743279969"><ele>63.33333333333333</ele><time>2026-03-29T13:46:27.999Z</time></trkpt><trkpt lat="45.20288676383083" lon="9.614970585960025"><ele>64.0</ele><time>2026-03-29T13:46:28.999Z</time></trkpt><trkpt lat="45.20274706807832" lon="9.615114728870747"><ele>64.0</ele><time>2026-03-29T13:46:29.999Z</time></trkpt><trkpt lat="45.20261005997029" lon="9.615271620900355"><ele>64.0</ele><time>2026-03-29T13:46:30.999Z</time></trkpt><trkpt lat="45.20248686821475" lon="9.615399206434908"><ele>64.0</ele><time>2026-03-29T13:46:31.999Z</time></trkpt><trkpt lat="45.20236313257835" lon="9.615527234290807"><ele>64.0</ele><time>2026-03-29T13:46:32.999Z</time></trkpt><trkpt lat="45.20225083843171" lon="9.615650411734787"><ele>64.0</ele><time>2026-03-29T13:46:33.999Z</time></trkpt><trkpt lat="45.20214499192781" lon="9.61576884853037"><ele>64.0</ele><time>2026-03-29T13:46:34.999Z</time></trkpt><trkpt lat="45.20204681654856" lon="9.615894396181998"><ele>64.0</ele><time>2026-03-29T13:46:35.999Z</time></trkpt><trkpt lat="45.201953157449296" lon="9.616041203836678"><ele>64.0</ele><time>2026-03-29T13:46:36.999Z</time></trkpt><trkpt lat="45.201896289485894" lon="9.616248956428281"><ele>64.0</ele><time>2026-03-29T13:46:38Z</time></trkpt><trkpt lat="45.20185140344177" lon="9.616359868350056"><ele>64.0</ele><time>2026-03-29T13:46:39Z</time></trkpt><trkpt lat="45.201808390243286" lon="9.616485241839026"><ele>64.0</ele><time>2026-03-29T13:46:40Z</time></trkpt><trkpt lat="45.201766921050755" lon="9.616603112632056"><ele>64.0</ele><time>2026-03-29T13:46:41Z</time></trkpt><trkpt lat="45.20174370066032" lon="9.616709492750275"><ele>63.99999999999999</ele><time>2026-03-29T13:46:42Z</time></trkpt><trkpt lat="45.20172060324323" lon="9.616803002965112"><ele>64.0</ele><time>2026-03-29T13:46:43Z</time></trkpt><trkpt lat="45.201678886450416" lon="9.616949508126783"><ele>64.0</ele><time>2026-03-29T13:46:45Z</time></trkpt><trkpt lat="45.20164795615278" lon="9.617059676532"><ele>64.0</ele><time>2026-03-29T13:46:47Z</time></trkpt><trkpt lat="45.20162259090294" lon="9.617163675720224"><ele>63.99999999999999</ele><time>2026-03-29T13:46:50Z</time></trkpt><trkpt lat="45.20158869888752" lon="9.617292389216747"><ele>64.0</ele><time>2026-03-29T13:46:57Z</time></trkpt><trkpt lat="45.20153149351933" lon="9.617473791094238"><ele>64.0</ele><time>2026-03-29T13:46:59Z</time></trkpt><trkpt lat="45.20150038883288" lon="9.6175791196046"><ele>64.0</ele><time>2026-03-29T13:47:00Z</time></trkpt><trkpt lat="45.20146378524891" lon="9.617704083560977"><ele>64.0</ele><time>2026-03-29T13:47:01Z</time></trkpt><trkpt lat="45.201422498628524" lon="9.617842973257527"><ele>64.0</ele><time>2026-03-29T13:47:02Z</time></trkpt><trkpt lat="45.20137215059097" lon="9.617978316877705"><ele>64.0</ele><time>2026-03-29T13:47:03Z</time></trkpt><trkpt lat="45.20131856610008" lon="9.618124988358042"><ele>63.33333333333333</ele><time>2026-03-29T13:47:04Z</time></trkpt><trkpt lat="45.20127213460841" lon="9.61832073711661"><ele>62.66666666666667</ele><time>2026-03-29T13:47:05Z</time></trkpt><trkpt lat="45.20119538484691" lon="9.618558820121285"><ele>62.0</ele><time>2026-03-29T13:47:06Z</time></trkpt><trkpt lat="45.20109889269341" lon="9.618762318293426"><ele>62.0</ele><time>2026-03-29T13:47:07Z</time></trkpt><trkpt lat="45.201041620289914" lon="9.618983559029884"><ele>62.0</ele><time>2026-03-29T13:47:08Z</time></trkpt><trkpt lat="45.200958079079086" lon="9.619167133498213"><ele>62.0</ele><time>2026-03-29T13:47:09Z</time></trkpt><trkpt lat="45.200887866117704" lon="9.619351116668799"><ele>62.66666666666667</ele><time>2026-03-29T13:47:10Z</time></trkpt><trkpt lat="45.20084039370307" lon="9.619589727655896"><ele>63.33333333333333</ele><time>2026-03-29T13:47:11Z</time></trkpt><trkpt lat="45.20073581889951" lon="9.619837524275862"><ele>64.0</ele><time>2026-03-29T13:47:12Z</time></trkpt><trkpt lat="45.20059940998936" lon="9.620062720177287"><ele>63.33333333333333</ele><time>2026-03-29T13:47:13Z</time></trkpt><trkpt lat="45.200438292801344" lon="9.620269818984253"><ele>62.66666666666667</ele><time>2026-03-29T13:47:14Z</time></trkpt><trkpt lat="45.20047741692365" lon="9.620381188091638"><ele>62.0</ele><time>2026-03-29T13:47:15Z</time></trkpt><trkpt lat="45.20037144744318" lon="9.620561099161119"><ele>62.0</ele><time>2026-03-29T13:47:16Z</time></trkpt><trkpt lat="45.20025271029648" lon="9.620743249549196"><ele>62.0</ele><time>2026-03-29T13:47:17Z</time></trkpt><trkpt lat="45.20015027237354" lon="9.620959696029114"><ele>62.0</ele><time>2026-03-29T13:47:18Z</time></trkpt><trkpt lat="45.20003679536114" lon="9.62114439096741"><ele>62.0</ele><time>2026-03-29T13:47:19Z</time></trkpt><trkpt lat="45.19988957043568" lon="9.621321941820929"><ele>62.0</ele><time>2026-03-29T13:47:20Z</time></trkpt><trkpt lat="45.19975238031206" lon="9.621507914000851"><ele>62.0</ele><time>2026-03-29T13:47:21Z</time></trkpt><trkpt lat="45.199597862006605" lon="9.621684268452322"><ele>62.0</ele><time>2026-03-29T13:47:22Z</time></trkpt><trkpt lat="45.19945532660121" lon="9.621886329403148"><ele>62.0</ele><time>2026-03-29T13:47:23Z</time></trkpt><trkpt lat="45.199326851111806" lon="9.62206845874483"><ele>62.0</ele><time>2026-03-29T13:47:24Z</time></trkpt><trkpt lat="45.199207467205184" lon="9.622263019500483"><ele>62.0</ele><time>2026-03-29T13:47:25Z</time></trkpt><trkpt lat="45.19910409257458" lon="9.62240580968234"><ele>62.0</ele><time>2026-03-29T13:47:26Z</time></trkpt><trkpt lat="45.198937974840405" lon="9.622619737284316"><ele>62.0</ele><time>2026-03-29T13:47:27Z</time></trkpt><trkpt lat="45.19879530051897" lon="9.622821995164971"><ele>61.333333333333336</ele><time>2026-03-29T13:47:28Z</time></trkpt><trkpt lat="45.198648115605906" lon="9.623029678003347"><ele>60.66666666666667</ele><time>2026-03-29T13:47:29Z</time></trkpt><trkpt lat="45.19849800557302" lon="9.623241001463004"><ele>60.0</ele><time>2026-03-29T13:47:30Z</time></trkpt><trkpt lat="45.19834895032861" lon="9.62345084000028"><ele>60.0</ele><time>2026-03-29T13:47:31Z</time></trkpt><trkpt lat="45.198199645454906" lon="9.623661029967401"><ele>60.0</ele><time>2026-03-29T13:47:32Z</time></trkpt><trkpt lat="45.19806045944092" lon="9.62388031032543"><ele>60.0</ele><time>2026-03-29T13:47:33Z</time></trkpt><trkpt lat="45.19792243958312" lon="9.62407911405791"><ele>60.0</ele><time>2026-03-29T13:47:34Z</time></trkpt><trkpt lat="45.197762444585784" lon="9.624283965287992"><ele>60.0</ele><time>2026-03-29T13:47:35Z</time></trkpt><trkpt lat="45.19760275533799" lon="9.624449568300182"><ele>60.0</ele><time>2026-03-29T13:47:36Z</time></trkpt><trkpt lat="45.19744291274936" lon="9.624625236500133"><ele>60.0</ele><time>2026-03-29T13:47:37Z</time></trkpt><trkpt lat="45.19727068887935" lon="9.6248009508938"><ele>60.0</ele><time>2026-03-29T13:47:37.999Z</time></trkpt><trkpt lat="45.19708403422304" lon="9.62497689721868"><ele>60.0</ele><time>2026-03-29T13:47:38.999Z</time></trkpt><trkpt lat="45.19689348049967" lon="9.625138525704578"><ele>60.0</ele><time>2026-03-29T13:47:39.999Z</time></trkpt><trkpt lat="45.196700781225616" lon="9.625296227961808"><ele>60.0</ele><time>2026-03-29T13:47:40.999Z</time></trkpt><trkpt lat="45.19651828392979" lon="9.625444579582052"><ele>60.0</ele><time>2026-03-29T13:47:41.999Z</time></trkpt><trkpt lat="45.196316081366575" lon="9.62560930472625"><ele>60.33333333333333</ele><time>2026-03-29T13:47:42.999Z</time></trkpt><trkpt lat="45.19612779449615" lon="9.625762774294707"><ele>60.666666666666664</ele><time>2026-03-29T13:47:43.999Z</time></trkpt><trkpt lat="45.19593185153634" lon="9.625922802508164"><ele>61.0</ele><time>2026-03-29T13:47:44.999Z</time></trkpt><trkpt lat="45.1957442692645" lon="9.626076002469182"><ele>62.0</ele><time>2026-03-29T13:47:45.999Z</time></trkpt><trkpt lat="45.19556102939874" lon="9.626248058050962"><ele>63.0</ele><time>2026-03-29T13:47:46.999Z</time></trkpt><trkpt lat="45.19537893961904" lon="9.626398968730504"><ele>64.0</ele><time>2026-03-29T13:47:47.999Z</time></trkpt><trkpt lat="45.19519938189742" lon="9.626521016370223"><ele>64.0</ele><time>2026-03-29T13:47:48.999Z</time></trkpt><trkpt lat="45.19499832545633" lon="9.626685220802905"><ele>64.0</ele><time>2026-03-29T13:47:49.999Z</time></trkpt><trkpt lat="45.19482095799517" lon="9.626830078240337"><ele>64.0</ele><time>2026-03-29T13:47:50.999Z</time></trkpt><trkpt lat="45.19463210139657" lon="9.626984318960037"><ele>63.0</ele><time>2026-03-29T13:47:51.999Z</time></trkpt><trkpt lat="45.1944403866537" lon="9.62714089389579"><ele>62.0</ele><time>2026-03-29T13:47:52.999Z</time></trkpt><trkpt lat="45.19425598610545" lon="9.627292442275115"><ele>61.0</ele><time>2026-03-29T13:47:53.999Z</time></trkpt><trkpt lat="45.19407696111291" lon="9.627439857720478"><ele>61.0</ele><time>2026-03-29T13:47:54.999Z</time></trkpt><trkpt lat="45.193890954357286" lon="9.627593022186767"><ele>61.0</ele><time>2026-03-29T13:47:55.999Z</time></trkpt><trkpt lat="45.19371186868161" lon="9.627740487610032"><ele>61.0</ele><time>2026-03-29T13:47:56.999Z</time></trkpt><trkpt lat="45.193525651855104" lon="9.627897772205843"><ele>61.0</ele><time>2026-03-29T13:47:57.999Z</time></trkpt><trkpt lat="45.19334606271673" lon="9.628065454483837"><ele>61.0</ele><time>2026-03-29T13:47:58.999Z</time></trkpt><trkpt lat="45.1931865091807" lon="9.628265491474462"><ele>61.0</ele><time>2026-03-29T13:47:59.999Z</time></trkpt><trkpt lat="45.19302494536123" lon="9.628454702211227"><ele>61.5</ele><time>2026-03-29T13:48:00.999Z</time></trkpt><trkpt lat="45.19286772222101" lon="9.628705439650522"><ele>62.0</ele><time>2026-03-29T13:48:01.999Z</time></trkpt><trkpt lat="45.192689644100355" lon="9.628934490123854"><ele>62.0</ele><time>2026-03-29T13:48:02.999Z</time></trkpt><trkpt lat="45.19252253391193" lon="9.629181930743144"><ele>62.0</ele><time>2026-03-29T13:48:03.999Z</time></trkpt><trkpt lat="45.19236222168393" lon="9.629419302220787"><ele>62.0</ele><time>2026-03-29T13:48:04.999Z</time></trkpt><trkpt lat="45.19222112205096" lon="9.629651516854178"><ele>62.0</ele><time>2026-03-29T13:48:05.999Z</time></trkpt><trkpt lat="45.19203787825608" lon="9.629897407542106"><ele>62.0</ele><time>2026-03-29T13:48:06.999Z</time></trkpt><trkpt lat="45.191889281936255" lon="9.630115117522932"><ele>62.0</ele><time>2026-03-29T13:48:07.999Z</time></trkpt><trkpt lat="45.19174579252334" lon="9.630325346039605"><ele>62.0</ele><time>2026-03-29T13:48:08.999Z</time></trkpt><trkpt lat="45.191597829522735" lon="9.630542128880299"><ele>62.333333333333336</ele><time>2026-03-29T13:48:09.999Z</time></trkpt><trkpt lat="45.191450796337655" lon="9.63075933155083"><ele>62.66666666666667</ele><time>2026-03-29T13:48:10.999Z</time></trkpt><trkpt lat="45.191324802129635" lon="9.630992976883853"><ele>63.0</ele><time>2026-03-29T13:48:11.999Z</time></trkpt><trkpt lat="45.19118060431076" lon="9.631202565959729"><ele>63.0</ele><time>2026-03-29T13:48:12.999Z</time></trkpt><trkpt lat="45.1910384826489" lon="9.631412040733114"><ele>63.0</ele><time>2026-03-29T13:48:13.999Z</time></trkpt><trkpt lat="45.19090197981962" lon="9.631624313770345"><ele>63.0</ele><time>2026-03-29T13:48:14.999Z</time></trkpt><trkpt lat="45.19077125690645" lon="9.631830844330706"><ele>64.0</ele><time>2026-03-29T13:48:15.999Z</time></trkpt><trkpt lat="45.19064329024139" lon="9.6320604204181"><ele>65.0</ele><time>2026-03-29T13:48:16.999Z</time></trkpt><trkpt lat="45.19051752923623" lon="9.632301335266929"><ele>66.0</ele><time>2026-03-29T13:48:17.999Z</time></trkpt><trkpt lat="45.1903957777607" lon="9.632551600932075"><ele>66.0</ele><time>2026-03-29T13:48:18.999Z</time></trkpt><trkpt lat="45.190278269719656" lon="9.63280046834123"><ele>66.0</ele><time>2026-03-29T13:48:19.999Z</time></trkpt><trkpt lat="45.19016955503619" lon="9.633055666855965"><ele>66.0</ele><time>2026-03-29T13:48:20.999Z</time></trkpt><trkpt lat="45.19006936523848" lon="9.633315738555439"><ele>65.66666666666667</ele><time>2026-03-29T13:48:21.999Z</time></trkpt><trkpt lat="45.18997653759169" lon="9.633587984927226"><ele>65.33333333333334</ele><time>2026-03-29T13:48:22.999Z</time></trkpt><trkpt lat="45.18987973989439" lon="9.633850957620137"><ele>65.0</ele><time>2026-03-29T13:48:23.999Z</time></trkpt><trkpt lat="45.189788845955434" lon="9.634122009091623"><ele>65.33333333333334</ele><time>2026-03-29T13:48:24.999Z</time></trkpt><trkpt lat="45.18970571806099" lon="9.634395077858033"><ele>65.66666666666667</ele><time>2026-03-29T13:48:25.999Z</time></trkpt><trkpt lat="45.189619905850506" lon="9.634678913600522"><ele>66.0</ele><time>2026-03-29T13:48:26.999Z</time></trkpt><trkpt lat="45.18953152442775" lon="9.634961015309589"><ele>66.0</ele><time>2026-03-29T13:48:27.999Z</time></trkpt><trkpt lat="45.18943813367094" lon="9.635240356274592"><ele>66.0</ele><time>2026-03-29T13:48:28.999Z</time></trkpt><trkpt lat="45.1893511679159" lon="9.635514036101101"><ele>66.0</ele><time>2026-03-29T13:48:29.999Z</time></trkpt><trkpt lat="45.189262864304716" lon="9.63579700049735"><ele>64.33333333333333</ele><time>2026-03-29T13:48:30.999Z</time></trkpt><trkpt lat="45.18916659377501" lon="9.63606146676604"><ele>62.666666666666664</ele><time>2026-03-29T13:48:31.999Z</time></trkpt><trkpt lat="45.18909566354593" lon="9.636325680017508"><ele>61.0</ele><time>2026-03-29T13:48:32.999Z</time></trkpt><trkpt lat="45.18902770153216" lon="9.636601737581685"><ele>60.0</ele><time>2026-03-29T13:48:33.999Z</time></trkpt><trkpt lat="45.18897855292972" lon="9.63688479553554"><ele>59.0</ele><time>2026-03-29T13:48:34.999Z</time></trkpt><trkpt lat="45.1889236125905" lon="9.637157921904004"><ele>58.0</ele><time>2026-03-29T13:48:35.999Z</time></trkpt><trkpt lat="45.18884540350187" lon="9.637463041215277"><ele>58.0</ele><time>2026-03-29T13:48:36.999Z</time></trkpt><trkpt lat="45.188774362603944" lon="9.637762301725457"><ele>58.0</ele><time>2026-03-29T13:48:37.999Z</time></trkpt><trkpt lat="45.18870106837927" lon="9.638075453082765"><ele>58.5</ele><time>2026-03-29T13:48:38.999Z</time></trkpt><trkpt lat="45.188643464975165" lon="9.638389692647024"><ele>59.0</ele><time>2026-03-29T13:48:39.999Z</time></trkpt><trkpt lat="45.188562791576935" lon="9.638681455945775"><ele>60.333333333333336</ele><time>2026-03-29T13:48:40.999Z</time></trkpt><trkpt lat="45.188498581523426" lon="9.638987472108633"><ele>61.66666666666667</ele><time>2026-03-29T13:48:41.999Z</time></trkpt><trkpt lat="45.18843411566135" lon="9.639287014232954"><ele>63.0</ele><time>2026-03-29T13:48:42.999Z</time></trkpt><trkpt lat="45.18836311889692" lon="9.63958588781258"><ele>63.33333333333333</ele><time>2026-03-29T13:48:44Z</time></trkpt><trkpt lat="45.18830361474193" lon="9.639876478530633"><ele>63.666666666666664</ele><time>2026-03-29T13:48:45Z</time></trkpt><trkpt lat="45.18824243860809" lon="9.640152987222203"><ele>64.0</ele><time>2026-03-29T13:48:46Z</time></trkpt><trkpt lat="45.188177438606154" lon="9.64045358525651"><ele>63.33333333333333</ele><time>2026-03-29T13:48:47Z</time></trkpt><trkpt lat="45.1880979278849" lon="9.640724942828946"><ele>62.66666666666667</ele><time>2026-03-29T13:48:48Z</time></trkpt><trkpt lat="45.18803271602727" lon="9.640996964105831"><ele>62.0</ele><time>2026-03-29T13:48:49Z</time></trkpt><trkpt lat="45.187969524495635" lon="9.641267000346076"><ele>62.0</ele><time>2026-03-29T13:48:50Z</time></trkpt><trkpt lat="45.18791290416707" lon="9.641513050828717"><ele>62.0</ele><time>2026-03-29T13:48:51Z</time></trkpt><trkpt lat="45.18784925074219" lon="9.641747498431673"><ele>62.0</ele><time>2026-03-29T13:48:52Z</time></trkpt><trkpt lat="45.18776894926121" lon="9.641971726813601"><ele>62.333333333333336</ele><time>2026-03-29T13:48:53Z</time></trkpt><trkpt lat="45.187701393124584" lon="9.642239601413658"><ele>62.66666666666667</ele><time>2026-03-29T13:48:54Z</time></trkpt><trkpt lat="45.18756630042225" lon="9.642396442354503"><ele>63.0</ele><time>2026-03-29T13:48:55Z</time></trkpt><trkpt lat="45.18745693341027" lon="9.642577388256624"><ele>63.33333333333333</ele><time>2026-03-29T13:48:56Z</time></trkpt><trkpt lat="45.18734049941511" lon="9.642746395830951"><ele>63.666666666666664</ele><time>2026-03-29T13:48:57Z</time></trkpt><trkpt lat="45.18724165008581" lon="9.642917179706824"><ele>64.0</ele><time>2026-03-29T13:48:58Z</time></trkpt><trkpt lat="45.18712545629782" lon="9.643079446934104"><ele>64.33333333333333</ele><time>2026-03-29T13:48:59Z</time></trkpt><trkpt lat="45.186979128889256" lon="9.643211887029222"><ele>64.66666666666667</ele><time>2026-03-29T13:49:00Z</time></trkpt><trkpt lat="45.18690889123464" lon="9.643367534012466"><ele>65.0</ele><time>2026-03-29T13:49:01Z</time></trkpt><trkpt lat="45.18680950577564" lon="9.643527660524683"><ele>64.33333333333334</ele><time>2026-03-29T13:49:02Z</time></trkpt><trkpt lat="45.18672807505451" lon="9.64368587036132"><ele>63.66666666666667</ele><time>2026-03-29T13:49:03Z</time></trkpt><trkpt lat="45.18659764538176" lon="9.643849792563586"><ele>63.0</ele><time>2026-03-29T13:49:04Z</time></trkpt><trkpt lat="45.18648805799951" lon="9.644016870034346"><ele>62.33333333333333</ele><time>2026-03-29T13:49:05Z</time></trkpt><trkpt lat="45.18638389747065" lon="9.644179862139962"><ele>61.666666666666664</ele><time>2026-03-29T13:49:06Z</time></trkpt><trkpt lat="45.186273310806435" lon="9.644353549850331"><ele>61.0</ele><time>2026-03-29T13:49:07Z</time></trkpt><trkpt lat="45.18616794565123" lon="9.644509932811163"><ele>61.0</ele><time>2026-03-29T13:49:08Z</time></trkpt><trkpt lat="45.18606346780244" lon="9.644660220976572"><ele>61.0</ele><time>2026-03-29T13:49:09Z</time></trkpt><trkpt lat="45.18594989875231" lon="9.644830304806485"><ele>61.0</ele><time>2026-03-29T13:49:10Z</time></trkpt><trkpt lat="45.18581877719135" lon="9.64503613827158"><ele>61.0</ele><time>2026-03-29T13:49:11Z</time></trkpt><trkpt lat="45.185682286290046" lon="9.645243398835536"><ele>61.0</ele><time>2026-03-29T13:49:12Z</time></trkpt><trkpt lat="45.18554799458485" lon="9.645444436537291"><ele>61.0</ele><time>2026-03-29T13:49:13Z</time></trkpt><trkpt lat="45.18541871327868" lon="9.645632427612743"><ele>61.0</ele><time>2026-03-29T13:49:14Z</time></trkpt><trkpt lat="45.185298164773386" lon="9.645820024019864"><ele>61.0</ele><time>2026-03-29T13:49:15Z</time></trkpt><trkpt lat="45.18518079926228" lon="9.645997592725278"><ele>61.0</ele><time>2026-03-29T13:49:16Z</time></trkpt><trkpt lat="45.18508436891575" lon="9.646148870166797"><ele>60.666666666666664</ele><time>2026-03-29T13:49:17Z</time></trkpt><trkpt lat="45.18498275786939" lon="9.646307125528335"><ele>60.33333333333333</ele><time>2026-03-29T13:49:18Z</time></trkpt><trkpt lat="45.184877225222394" lon="9.646468583506843"><ele>60.0</ele><time>2026-03-29T13:49:19Z</time></trkpt><trkpt lat="45.18476350886136" lon="9.646622198577704"><ele>60.5</ele><time>2026-03-29T13:49:20Z</time></trkpt><trkpt lat="45.18466542915682" lon="9.646759875295276"><ele>61.0</ele><time>2026-03-29T13:49:21Z</time></trkpt><trkpt lat="45.184553509902834" lon="9.646865358012374"><ele>61.5</ele><time>2026-03-29T13:49:22Z</time></trkpt><trkpt lat="45.18445870025954" lon="9.647008427758893"><ele>62.0</ele><time>2026-03-29T13:49:23Z</time></trkpt><trkpt lat="45.184358881235525" lon="9.647157134645978"><ele>62.0</ele><time>2026-03-29T13:49:24Z</time></trkpt><trkpt lat="45.1842801727042" lon="9.647273748394182"><ele>62.0</ele><time>2026-03-29T13:49:25Z</time></trkpt><trkpt lat="45.184208458042455" lon="9.647384422773362"><ele>62.0</ele><time>2026-03-29T13:49:26Z</time></trkpt><trkpt lat="45.184149544305605" lon="9.647479160552464"><ele>62.0</ele><time>2026-03-29T13:49:27Z</time></trkpt><trkpt lat="45.18410536102202" lon="9.647571241519735"><ele>62.0</ele><time>2026-03-29T13:49:28Z</time></trkpt><trkpt lat="45.18396211700557" lon="9.647652544263158"><ele>62.0</ele><time>2026-03-29T13:49:30Z</time></trkpt><trkpt lat="45.183883527033935" lon="9.647696884496149"><ele>62.0</ele><time>2026-03-29T13:49:31Z</time></trkpt><trkpt lat="45.183833850766504" lon="9.647794928321483"><ele>62.0</ele><time>2026-03-29T13:49:32Z</time></trkpt><trkpt lat="45.183786977567415" lon="9.647931722136926"><ele>62.0</ele><time>2026-03-29T13:49:33Z</time></trkpt><trkpt lat="45.18372311496941" lon="9.648051037332452"><ele>62.0</ele><time>2026-03-29T13:49:34Z</time></trkpt><trkpt lat="45.18364622845569" lon="9.648150720428108"><ele>62.0</ele><time>2026-03-29T13:49:35Z</time></trkpt><trkpt lat="45.18355609703281" lon="9.648254445335851"><ele>62.0</ele><time>2026-03-29T13:49:36Z</time></trkpt><trkpt lat="45.18346253001926" lon="9.648357301800642"><ele>62.0</ele><time>2026-03-29T13:49:37Z</time></trkpt><trkpt lat="45.1833613117376" lon="9.64844577360353"><ele>62.0</ele><time>2026-03-29T13:49:38Z</time></trkpt><trkpt lat="45.18324314978693" lon="9.648546238276579"><ele>62.25</ele><time>2026-03-29T13:49:39Z</time></trkpt><trkpt lat="45.18313866667324" lon="9.648657447101154"><ele>62.5</ele><time>2026-03-29T13:49:40Z</time></trkpt><trkpt lat="45.18303347852356" lon="9.648768460108604"><ele>62.75</ele><time>2026-03-29T13:49:41Z</time></trkpt><trkpt lat="45.182931873361014" lon="9.648875369119297"><ele>63.0</ele><time>2026-03-29T13:49:42Z</time></trkpt><trkpt lat="45.18282931909501" lon="9.64898327678036"><ele>63.0</ele><time>2026-03-29T13:49:43Z</time></trkpt><trkpt lat="45.182734709057065" lon="9.649083443911035"><ele>63.0</ele><time>2026-03-29T13:49:44Z</time></trkpt><trkpt lat="45.18263940380405" lon="9.64918433086032"><ele>63.0</ele><time>2026-03-29T13:49:45Z</time></trkpt><trkpt lat="45.18256097005433" lon="9.649295548790624"><ele>63.0</ele><time>2026-03-29T13:49:46Z</time></trkpt><trkpt lat="45.182459984866156" lon="9.649385452148795"><ele>63.0</ele><time>2026-03-29T13:49:47Z</time></trkpt><trkpt lat="45.18236628283755" lon="9.649482971471087"><ele>63.0</ele><time>2026-03-29T13:49:48Z</time></trkpt><trkpt lat="45.18227848787327" lon="9.649576379036924"><ele>63.0</ele><time>2026-03-29T13:49:49Z</time></trkpt><trkpt lat="45.18219545084047" lon="9.649662397704292"><ele>63.0</ele><time>2026-03-29T13:49:50Z</time></trkpt><trkpt lat="45.18209842666336" lon="9.649730087426263"><ele>63.0</ele><time>2026-03-29T13:49:51Z</time></trkpt><trkpt lat="45.18199308650935" lon="9.6498212577768"><ele>63.0</ele><time>2026-03-29T13:49:51.999Z</time></trkpt><trkpt lat="45.18191206544771" lon="9.649903260163319"><ele>63.0</ele><time>2026-03-29T13:49:52.999Z</time></trkpt><trkpt lat="45.18182070436622" lon="9.650028860509718"><ele>63.0</ele><time>2026-03-29T13:49:53.999Z</time></trkpt><trkpt lat="45.18173622857005" lon="9.6501263442968"><ele>63.0</ele><time>2026-03-29T13:49:54.999Z</time></trkpt><trkpt lat="45.181653449816274" lon="9.650231423126128"><ele>63.0</ele><time>2026-03-29T13:49:55.999Z</time></trkpt><trkpt lat="45.181569846500544" lon="9.650330371285188"><ele>63.2</ele><time>2026-03-29T13:49:56.999Z</time></trkpt><trkpt lat="45.18150843912772" lon="9.650405159935042"><ele>63.4</ele><time>2026-03-29T13:49:57.999Z</time></trkpt><trkpt lat="45.18142471327433" lon="9.650504146012407"><ele>63.60000000000001</ele><time>2026-03-29T13:49:58.999Z</time></trkpt><trkpt lat="45.181346840908994" lon="9.65056921077951"><ele>63.800000000000004</ele><time>2026-03-29T13:49:59.999Z</time></trkpt><trkpt lat="45.181284052552456" lon="9.650633902241955"><ele>64.0</ele><time>2026-03-29T13:50:00.999Z</time></trkpt><trkpt lat="45.18121860032584" lon="9.650725090743629"><ele>64.0</ele><time>2026-03-29T13:50:01.999Z</time></trkpt><trkpt lat="45.18115759503964" lon="9.650817548028476"><ele>64.0</ele><time>2026-03-29T13:50:02.999Z</time></trkpt><trkpt lat="45.18105241362923" lon="9.650877578425447"><ele>64.0</ele><time>2026-03-29T13:50:03.999Z</time></trkpt><trkpt lat="45.180971251063795" lon="9.65096577661166"><ele>64.0</ele><time>2026-03-29T13:50:04.999Z</time></trkpt><trkpt lat="45.18087581523435" lon="9.651075298663805"><ele>64.0</ele><time>2026-03-29T13:50:05.999Z</time></trkpt><trkpt lat="45.18077584753225" lon="9.651190205252368"><ele>64.5</ele><time>2026-03-29T13:50:06.999Z</time></trkpt><trkpt lat="45.18067800463381" lon="9.651291420205185"><ele>65.0</ele><time>2026-03-29T13:50:07.999Z</time></trkpt><trkpt lat="45.18056445806579" lon="9.651399873682852"><ele>65.5</ele><time>2026-03-29T13:50:08.999Z</time></trkpt><trkpt lat="45.180477110055605" lon="9.65151835629384"><ele>66.0</ele><time>2026-03-29T13:50:09.999Z</time></trkpt><trkpt lat="45.18037605599568" lon="9.651621464328414"><ele>66.0</ele><time>2026-03-29T13:50:10.999Z</time></trkpt><trkpt lat="45.18028087028089" lon="9.6517194017471"><ele>66.0</ele><time>2026-03-29T13:50:11.999Z</time></trkpt><trkpt lat="45.18017971349026" lon="9.65181568946876"><ele>66.0</ele><time>2026-03-29T13:50:12.999Z</time></trkpt><trkpt lat="45.18009787192155" lon="9.651915164468772"><ele>66.0</ele><time>2026-03-29T13:50:13.999Z</time></trkpt><trkpt lat="45.18000755471572" lon="9.652006220608332"><ele>66.2</ele><time>2026-03-29T13:50:14.999Z</time></trkpt><trkpt lat="45.17991846335241" lon="9.652092011352265"><ele>66.39999999999999</ele><time>2026-03-29T13:50:15.999Z</time></trkpt><trkpt lat="45.17983790121556" lon="9.652145830042699"><ele>66.6</ele><time>2026-03-29T13:50:16.999Z</time></trkpt><trkpt lat="45.17975740402298" lon="9.652192304782954"><ele>66.8</ele><time>2026-03-29T13:50:17.999Z</time></trkpt><trkpt lat="45.17967066418706" lon="9.652227687693307"><ele>67.0</ele><time>2026-03-29T13:50:18.999Z</time></trkpt><trkpt lat="45.179587906211665" lon="9.652254801007814"><ele>66.5</ele><time>2026-03-29T13:50:19.999Z</time></trkpt><trkpt lat="45.179521604513056" lon="9.652267746193694"><ele>66.0</ele><time>2026-03-29T13:50:20.999Z</time></trkpt><trkpt lat="45.17944558399201" lon="9.652281820866504"><ele>65.5</ele><time>2026-03-29T13:50:21.999Z</time></trkpt><trkpt lat="45.1793647817374" lon="9.652294351074993"><ele>65.0</ele><time>2026-03-29T13:50:22.999Z</time></trkpt><trkpt lat="45.179257294279786" lon="9.652311019427328"><ele>64.5</ele><time>2026-03-29T13:50:24.999Z</time></trkpt><trkpt lat="45.17918848792868" lon="9.652339236447084"><ele>64.0</ele><time>2026-03-29T13:50:25.999Z</time></trkpt><trkpt lat="45.17905363729029" lon="9.65235683380157"><ele>63.99999999999999</ele><time>2026-03-29T13:50:27.999Z</time></trkpt><trkpt lat="45.17899911161383" lon="9.65240585550776"><ele>64.0</ele><time>2026-03-29T13:50:28.999Z</time></trkpt><trkpt lat="45.17892479830884" lon="9.652416566351901"><ele>64.0</ele><time>2026-03-29T13:50:29.999Z</time></trkpt><trkpt lat="45.17886540615282" lon="9.652452196896142"><ele>64.0</ele><time>2026-03-29T13:50:30.999Z</time></trkpt><trkpt lat="45.178795466662" lon="9.652533605377611"><ele>63.99999999999999</ele><time>2026-03-29T13:50:31.999Z</time></trkpt><trkpt lat="45.1787051650269" lon="9.652565734833894"><ele>64.0</ele><time>2026-03-29T13:50:32.999Z</time></trkpt><trkpt lat="45.17863185795463" lon="9.652637524580626"><ele>63.99999999999999</ele><time>2026-03-29T13:50:33.999Z</time></trkpt><trkpt lat="45.178565789331344" lon="9.652704385288793"><ele>64.0</ele><time>2026-03-29T13:50:34.999Z</time></trkpt><trkpt lat="45.178491891428" lon="9.6527801015019"><ele>64.0</ele><time>2026-03-29T13:50:35.999Z</time></trkpt><trkpt lat="45.178426537025196" lon="9.652863521132224"><ele>64.0</ele><time>2026-03-29T13:50:36.999Z</time></trkpt><trkpt lat="45.17834377891812" lon="9.652907005710873"><ele>63.99999999999999</ele><time>2026-03-29T13:50:37.999Z</time></trkpt><trkpt lat="45.17829227517674" lon="9.653001940550732"><ele>64.0</ele><time>2026-03-29T13:50:39.999Z</time></trkpt><trkpt lat="45.17823008918137" lon="9.653058856810212"><ele>63.6</ele><time>2026-03-29T13:50:42.999Z</time></trkpt><trkpt lat="45.1781325391771" lon="9.653168095033802"><ele>63.2</ele><time>2026-03-29T13:50:54Z</time></trkpt><trkpt lat="45.178065240584566" lon="9.653232602589789"><ele>62.800000000000004</ele><time>2026-03-29T13:50:55Z</time></trkpt><trkpt lat="45.17800200916843" lon="9.653305171063462"><ele>62.400000000000006</ele><time>2026-03-29T13:50:56Z</time></trkpt><trkpt lat="45.177924484853975" lon="9.653377829882286"><ele>62.0</ele><time>2026-03-29T13:50:57Z</time></trkpt><trkpt lat="45.17783947338058" lon="9.653466496845358"><ele>62.0</ele><time>2026-03-29T13:50:58Z</time></trkpt><trkpt lat="45.17775893168698" lon="9.653553904362287"><ele>62.0</ele><time>2026-03-29T13:50:59Z</time></trkpt><trkpt lat="45.17767369016442" lon="9.653647703089307"><ele>62.0</ele><time>2026-03-29T13:51:00Z</time></trkpt><trkpt lat="45.17758642401215" lon="9.653736416774779"><ele>62.0</ele><time>2026-03-29T13:51:01Z</time></trkpt><trkpt lat="45.17749743502988" lon="9.653830898947083"><ele>62.0</ele><time>2026-03-29T13:51:02Z</time></trkpt><trkpt lat="45.177404430603026" lon="9.653934352238005"><ele>61.5</ele><time>2026-03-29T13:51:03Z</time></trkpt><trkpt lat="45.17730299132454" lon="9.654037702067988"><ele>61.0</ele><time>2026-03-29T13:51:04Z</time></trkpt><trkpt lat="45.177187397813334" lon="9.654166988735177"><ele>60.5</ele><time>2026-03-29T13:51:05Z</time></trkpt><trkpt lat="45.177064994058135" lon="9.654291528860723"><ele>60.0</ele><time>2026-03-29T13:51:06Z</time></trkpt><trkpt lat="45.1769467842373" lon="9.654425156253987"><ele>60.33333333333333</ele><time>2026-03-29T13:51:07Z</time></trkpt><trkpt lat="45.17682183216477" lon="9.654579794030651"><ele>60.666666666666664</ele><time>2026-03-29T13:51:08Z</time></trkpt><trkpt lat="45.17668437085924" lon="9.654742891993779"><ele>61.0</ele><time>2026-03-29T13:51:09Z</time></trkpt><trkpt lat="45.17656568345671" lon="9.654874801622425"><ele>61.0</ele><time>2026-03-29T13:51:10Z</time></trkpt><trkpt lat="45.17645431965735" lon="9.655004498843711"><ele>61.0</ele><time>2026-03-29T13:51:11Z</time></trkpt><trkpt lat="45.17634059835964" lon="9.655093215226987"><ele>61.0</ele><time>2026-03-29T13:51:12Z</time></trkpt><trkpt lat="45.17623882295519" lon="9.655180532464763"><ele>61.0</ele><time>2026-03-29T13:51:13Z</time></trkpt><trkpt lat="45.17613792415105" lon="9.655249572432913"><ele>60.99999999999999</ele><time>2026-03-29T13:51:14Z</time></trkpt><trkpt lat="45.176068154613965" lon="9.655275837726354"><ele>61.0</ele><time>2026-03-29T13:51:15Z</time></trkpt><trkpt lat="45.17597661328816" lon="9.655285400327655"><ele>61.0</ele><time>2026-03-29T13:51:16Z</time></trkpt><trkpt lat="45.17587621064869" lon="9.655282526164015"><ele>61.0</ele><time>2026-03-29T13:51:17Z</time></trkpt><trkpt lat="45.175788193864626" lon="9.655302951968922"><ele>60.99999999999999</ele><time>2026-03-29T13:51:18Z</time></trkpt><trkpt lat="45.17573628246005" lon="9.65537327552451"><ele>61.0</ele><time>2026-03-29T13:51:19Z</time></trkpt><trkpt lat="45.17569513911451" lon="9.655471773952812"><ele>61.0</ele><time>2026-03-29T13:51:20Z</time></trkpt><trkpt lat="45.17566381026371" lon="9.65557958081507"><ele>60.99999999999999</ele><time>2026-03-29T13:51:21Z</time></trkpt><trkpt lat="45.1757174980074" lon="9.655712561041844"><ele>60.99999999999999</ele><time>2026-03-29T13:51:22Z</time></trkpt><trkpt lat="45.175782491964036" lon="9.655839349525898"><ele>61.0</ele><time>2026-03-29T13:51:23Z</time></trkpt><trkpt lat="45.17586675712245" lon="9.65597244440962"><ele>61.0</ele><time>2026-03-29T13:51:24Z</time></trkpt><trkpt lat="45.17594811507951" lon="9.656142637639817"><ele>62.0</ele><time>2026-03-29T13:51:25Z</time></trkpt><trkpt lat="45.17599745933078" lon="9.656368674358683"><ele>63.0</ele><time>2026-03-29T13:51:26Z</time></trkpt><trkpt lat="45.17600090755723" lon="9.656634879631504"><ele>64.0</ele><time>2026-03-29T13:51:27Z</time></trkpt><trkpt lat="45.17603999412788" lon="9.656881951933693"><ele>63.75</ele><time>2026-03-29T13:51:28Z</time></trkpt><trkpt lat="45.17607671307013" lon="9.65710749093712"><ele>63.5</ele><time>2026-03-29T13:51:29Z</time></trkpt><trkpt lat="45.176110515965206" lon="9.657309633018244"><ele>63.25</ele><time>2026-03-29T13:51:30Z</time></trkpt><trkpt lat="45.176141691437344" lon="9.657497955628003"><ele>63.0</ele><time>2026-03-29T13:51:31Z</time></trkpt><trkpt lat="45.1761725963736" lon="9.657686228481172"><ele>62.33333333333333</ele><time>2026-03-29T13:51:32Z</time></trkpt><trkpt lat="45.176207139051584" lon="9.657898178634188"><ele>61.666666666666664</ele><time>2026-03-29T13:51:33Z</time></trkpt><trkpt lat="45.17623985575819" lon="9.65809892479868"><ele>61.0</ele><time>2026-03-29T13:51:34Z</time></trkpt><trkpt lat="45.1762716948106" lon="9.658314768433675"><ele>61.0</ele><time>2026-03-29T13:51:35Z</time></trkpt><trkpt lat="45.17632063391492" lon="9.658533768696694"><ele>61.0</ele><time>2026-03-29T13:51:36Z</time></trkpt><trkpt lat="45.17636171047071" lon="9.658767729195807"><ele>61.0</ele><time>2026-03-29T13:51:37Z</time></trkpt><trkpt lat="45.17639592362766" lon="9.659015713596645"><ele>61.0</ele><time>2026-03-29T13:51:38Z</time></trkpt><trkpt lat="45.17642958690658" lon="9.659271595593797"><ele>61.0</ele><time>2026-03-29T13:51:39Z</time></trkpt><trkpt lat="45.176471971261975" lon="9.65953627624023"><ele>61.0</ele><time>2026-03-29T13:51:40Z</time></trkpt><trkpt lat="45.17651857677006" lon="9.659827317018403"><ele>61.33333333333333</ele><time>2026-03-29T13:51:41Z</time></trkpt><trkpt lat="45.176568925970834" lon="9.660141173609968"><ele>61.66666666666667</ele><time>2026-03-29T13:51:42Z</time></trkpt><trkpt lat="45.176633069940564" lon="9.660428329794323"><ele>62.0</ele><time>2026-03-29T13:51:43Z</time></trkpt><trkpt lat="45.17668200022047" lon="9.660736473326615"><ele>62.333333333333336</ele><time>2026-03-29T13:51:44Z</time></trkpt><trkpt lat="45.176722707642" lon="9.66104804740604"><ele>62.66666666666667</ele><time>2026-03-29T13:51:45Z</time></trkpt><trkpt lat="45.176769071942545" lon="9.661359323867567"><ele>63.0</ele><time>2026-03-29T13:51:46Z</time></trkpt><trkpt lat="45.17682048833577" lon="9.661672259948546"><ele>62.5</ele><time>2026-03-29T13:51:47Z</time></trkpt><trkpt lat="45.17687219084725" lon="9.661986937421325"><ele>62.0</ele><time>2026-03-29T13:51:48Z</time></trkpt><trkpt lat="45.17692404007472" lon="9.662302507847174"><ele>62.0</ele><time>2026-03-29T13:51:49Z</time></trkpt><trkpt lat="45.17696996527978" lon="9.662582022820636"><ele>62.0</ele><time>2026-03-29T13:51:50Z</time></trkpt><trkpt lat="45.177016910600344" lon="9.662867746578438"><ele>62.0</ele><time>2026-03-29T13:51:51Z</time></trkpt><trkpt lat="45.177058401372015" lon="9.663120272327864"><ele>62.0</ele><time>2026-03-29T13:51:52Z</time></trkpt><trkpt lat="45.17709914456681" lon="9.66337204474563"><ele>62.0</ele><time>2026-03-29T13:51:53Z</time></trkpt><trkpt lat="45.177133604305375" lon="9.66358553802187"><ele>62.0</ele><time>2026-03-29T13:51:54Z</time></trkpt><trkpt lat="45.17717139334059" lon="9.6638163329555"><ele>62.0</ele><time>2026-03-29T13:51:54.999Z</time></trkpt><trkpt lat="45.177203906564145" lon="9.664039865266238"><ele>62.0</ele><time>2026-03-29T13:51:55.999Z</time></trkpt><trkpt lat="45.177227538286274" lon="9.664254868812286"><ele>62.0</ele><time>2026-03-29T13:51:56.999Z</time></trkpt><trkpt lat="45.17723771132296" lon="9.66447961762381"><ele>62.0</ele><time>2026-03-29T13:51:57.999Z</time></trkpt><trkpt lat="45.17723450654097" lon="9.664707384751399"><ele>62.0</ele><time>2026-03-29T13:51:58.999Z</time></trkpt><trkpt lat="45.17721244780339" lon="9.664949048974963"><ele>62.0</ele><time>2026-03-29T13:51:59.999Z</time></trkpt><trkpt lat="45.17717688018153" lon="9.665181489568058"><ele>62.0</ele><time>2026-03-29T13:52:00.999Z</time></trkpt><trkpt lat="45.17711764343572" lon="9.665429852710789"><ele>62.0</ele><time>2026-03-29T13:52:01.999Z</time></trkpt><trkpt lat="45.17704378944428" lon="9.665667805215401"><ele>62.0</ele><time>2026-03-29T13:52:02.999Z</time></trkpt><trkpt lat="45.17695125564836" lon="9.66589524611069"><ele>61.333333333333336</ele><time>2026-03-29T13:52:03.999Z</time></trkpt><trkpt lat="45.1768430589443" lon="9.666118695270288"><ele>60.66666666666667</ele><time>2026-03-29T13:52:04.999Z</time></trkpt><trkpt lat="45.17671160831779" lon="9.666362885776303"><ele>60.0</ele><time>2026-03-29T13:52:05.999Z</time></trkpt><trkpt lat="45.17658254644896" lon="9.666602638796892"><ele>60.0</ele><time>2026-03-29T13:52:06.999Z</time></trkpt><trkpt lat="45.17645357561207" lon="9.666842222706446"><ele>60.0</ele><time>2026-03-29T13:52:07.999Z</time></trkpt><trkpt lat="45.17631945999881" lon="9.667091012759405"><ele>60.0</ele><time>2026-03-29T13:52:08.999Z</time></trkpt><trkpt lat="45.17618319167931" lon="9.667343579290808"><ele>60.0</ele><time>2026-03-29T13:52:09.999Z</time></trkpt><trkpt lat="45.1760465914123" lon="9.667596760945862"><ele>60.0</ele><time>2026-03-29T13:52:10.999Z</time></trkpt><trkpt lat="45.17591582901056" lon="9.667839122539647"><ele>60.0</ele><time>2026-03-29T13:52:11.999Z</time></trkpt><trkpt lat="45.17578085573819" lon="9.668089700418689"><ele>60.33333333333333</ele><time>2026-03-29T13:52:12.999Z</time></trkpt><trkpt lat="45.175644298746924" lon="9.66834357518665"><ele>60.666666666666664</ele><time>2026-03-29T13:52:13.999Z</time></trkpt><trkpt lat="45.17550908966748" lon="9.668594944090863"><ele>61.0</ele><time>2026-03-29T13:52:14.999Z</time></trkpt><trkpt lat="45.175369372028534" lon="9.66885469486082"><ele>61.5</ele><time>2026-03-29T13:52:15.999Z</time></trkpt><trkpt lat="45.17522293840927" lon="9.669127981341534"><ele>62.0</ele><time>2026-03-29T13:52:16.999Z</time></trkpt><trkpt lat="45.17508877353434" lon="9.669378802363187"><ele>62.0</ele><time>2026-03-29T13:52:17.999Z</time></trkpt><trkpt lat="45.17495256530262" lon="9.669631288810518"><ele>62.0</ele><time>2026-03-29T13:52:18.999Z</time></trkpt><trkpt lat="45.174822911353615" lon="9.669871193172586"><ele>62.0</ele><time>2026-03-29T13:52:19.999Z</time></trkpt><trkpt lat="45.174697305059404" lon="9.670103607997977"><ele>61.66666666666667</ele><time>2026-03-29T13:52:20.999Z</time></trkpt><trkpt lat="45.174567853143685" lon="9.670343138511194"><ele>61.33333333333333</ele><time>2026-03-29T13:52:21.999Z</time></trkpt><trkpt lat="45.17443512480163" lon="9.670588731552396"><ele>61.0</ele><time>2026-03-29T13:52:22.999Z</time></trkpt><trkpt lat="45.17431181197329" lon="9.670816902638647"><ele>61.0</ele><time>2026-03-29T13:52:23.999Z</time></trkpt><trkpt lat="45.17418389493163" lon="9.671054870454615"><ele>61.0</ele><time>2026-03-29T13:52:24.999Z</time></trkpt><trkpt lat="45.17405729543587" lon="9.671290818789448"><ele>61.0</ele><time>2026-03-29T13:52:25.999Z</time></trkpt><trkpt lat="45.17393194271668" lon="9.671524985977657"><ele>61.0</ele><time>2026-03-29T13:52:26.999Z</time></trkpt><trkpt lat="45.17381671592226" lon="9.671739491616966"><ele>61.0</ele><time>2026-03-29T13:52:27.999Z</time></trkpt><trkpt lat="45.17370607454212" lon="9.671944874634741"><ele>61.0</ele><time>2026-03-29T13:52:28.999Z</time></trkpt><trkpt lat="45.17360370853361" lon="9.672134896129975"><ele>61.0</ele><time>2026-03-29T13:52:29.999Z</time></trkpt><trkpt lat="45.17352518755095" lon="9.67231223826444"><ele>61.0</ele><time>2026-03-29T13:52:30.999Z</time></trkpt><trkpt lat="45.173415632475844" lon="9.672484020818406"><ele>61.0</ele><time>2026-03-29T13:52:31.999Z</time></trkpt><trkpt lat="45.17333547448174" lon="9.672637374149224"><ele>61.0</ele><time>2026-03-29T13:52:32.999Z</time></trkpt><trkpt lat="45.1732763650046" lon="9.672791202999802"><ele>61.199999999999996</ele><time>2026-03-29T13:52:33.999Z</time></trkpt><trkpt lat="45.17320361051177" lon="9.672892320422102"><ele>61.39999999999999</ele><time>2026-03-29T13:52:34.999Z</time></trkpt><trkpt lat="45.173106245908144" lon="9.672957054527089"><ele>61.6</ele><time>2026-03-29T13:52:35.999Z</time></trkpt><trkpt lat="45.1730089399052" lon="9.672956116706654"><ele>61.8</ele><time>2026-03-29T13:52:36.999Z</time></trkpt><trkpt lat="45.17295191292413" lon="9.673001040240303"><ele>62.0</ele><time>2026-03-29T13:52:37.999Z</time></trkpt><trkpt lat="45.17289768250406" lon="9.673111085104368"><ele>61.6</ele><time>2026-03-29T13:52:38.999Z</time></trkpt><trkpt lat="45.17289721872685" lon="9.673237478778601"><ele>61.2</ele><time>2026-03-29T13:52:39.999Z</time></trkpt><trkpt lat="45.17293076838804" lon="9.673319909824375"><ele>60.8</ele><time>2026-03-29T13:52:40.999Z</time></trkpt><trkpt lat="45.172954491877945" lon="9.673429676143469"><ele>60.4</ele><time>2026-03-29T13:52:41.999Z</time></trkpt><trkpt lat="45.17304092792936" lon="9.673471076492755"><ele>60.0</ele><time>2026-03-29T13:52:42.999Z</time></trkpt><trkpt lat="45.17317190278778" lon="9.673471844577685"><ele>60.4</ele><time>2026-03-29T13:52:44.999Z</time></trkpt><trkpt lat="45.173247782364804" lon="9.673441947202798"><ele>60.8</ele><time>2026-03-29T13:52:45.999Z</time></trkpt><trkpt lat="45.173331321124984" lon="9.673419050770725"><ele>61.2</ele><time>2026-03-29T13:52:46.999Z</time></trkpt><trkpt lat="45.173411011652185" lon="9.673408659495916"><ele>61.6</ele><time>2026-03-29T13:52:47.999Z</time></trkpt><trkpt lat="45.17350278569867" lon="9.673441522637408"><ele>62.0</ele><time>2026-03-29T13:52:48.999Z</time></trkpt><trkpt lat="45.1735750296685" lon="9.673570194462824"><ele>61.75</ele><time>2026-03-29T13:52:49.999Z</time></trkpt><trkpt lat="45.17363395196241" lon="9.673660251409832"><ele>61.5</ele><time>2026-03-29T13:52:50.999Z</time></trkpt><trkpt lat="45.173702701558284" lon="9.673796631827198"><ele>61.25</ele><time>2026-03-29T13:52:51.999Z</time></trkpt><trkpt lat="45.17377702127702" lon="9.673976573233062"><ele>61.0</ele><time>2026-03-29T13:52:52.999Z</time></trkpt><trkpt lat="45.17385651634395" lon="9.674165970896532"><ele>61.0</ele><time>2026-03-29T13:52:53.999Z</time></trkpt><trkpt lat="45.17393957867713" lon="9.674359592037938"><ele>61.0</ele><time>2026-03-29T13:52:54.999Z</time></trkpt><trkpt lat="45.174027946987344" lon="9.674533441709642"><ele>61.0</ele><time>2026-03-29T13:52:56Z</time></trkpt><trkpt lat="45.17411018773386" lon="9.674720212359794"><ele>61.0</ele><time>2026-03-29T13:52:57Z</time></trkpt><trkpt lat="45.174174344552284" lon="9.67493695230983"><ele>61.0</ele><time>2026-03-29T13:52:58Z</time></trkpt><trkpt lat="45.1742403114367" lon="9.675162271330056"><ele>61.0</ele><time>2026-03-29T13:52:59Z</time></trkpt><trkpt lat="45.17430448711217" lon="9.675399064693842"><ele>61.0</ele><time>2026-03-29T13:53:00Z</time></trkpt><trkpt lat="45.17437131704688" lon="9.675651374846076"><ele>61.0</ele><time>2026-03-29T13:53:01Z</time></trkpt><trkpt lat="45.17443491608277" lon="9.675888208094271"><ele>61.0</ele><time>2026-03-29T13:53:02Z</time></trkpt><trkpt lat="45.17449721321743" lon="9.676119977184294"><ele>61.0</ele><time>2026-03-29T13:53:03Z</time></trkpt><trkpt lat="45.17457146851147" lon="9.676336990572977"><ele>61.0</ele><time>2026-03-29T13:53:04Z</time></trkpt><trkpt lat="45.174615315987424" lon="9.676560301260436"><ele>61.0</ele><time>2026-03-29T13:53:05Z</time></trkpt><trkpt lat="45.174696365868186" lon="9.6768109276236"><ele>60.666666666666664</ele><time>2026-03-29T13:53:06Z</time></trkpt><trkpt lat="45.17476100863753" lon="9.677041229820349"><ele>60.33333333333333</ele><time>2026-03-29T13:53:07Z</time></trkpt><trkpt lat="45.1748310948025" lon="9.677252099423676"><ele>60.0</ele><time>2026-03-29T13:53:08Z</time></trkpt><trkpt lat="45.174895029338764" lon="9.677425870605234"><ele>60.0</ele><time>2026-03-29T13:53:09Z</time></trkpt><trkpt lat="45.17500888638277" lon="9.677605795091388"><ele>60.0</ele><time>2026-03-29T13:53:10Z</time></trkpt><trkpt lat="45.175087307641405" lon="9.677712376185605"><ele>60.0</ele><time>2026-03-29T13:53:11Z</time></trkpt><trkpt lat="45.1751775677491" lon="9.677834433528503"><ele>60.0</ele><time>2026-03-29T13:53:12Z</time></trkpt><trkpt lat="45.175253597472945" lon="9.677951947008758"><ele>60.0</ele><time>2026-03-29T13:53:13Z</time></trkpt><trkpt lat="45.1753121602504" lon="9.678059007185539"><ele>60.0</ele><time>2026-03-29T13:53:14Z</time></trkpt><trkpt lat="45.17534854818289" lon="9.678166237075674"><ele>60.0</ele><time>2026-03-29T13:53:15Z</time></trkpt><trkpt lat="45.17536393803167" lon="9.678281241455473"><ele>60.0</ele><time>2026-03-29T13:53:16Z</time></trkpt><trkpt lat="45.17534909537568" lon="9.678426088657258"><ele>60.0</ele><time>2026-03-29T13:53:17Z</time></trkpt><trkpt lat="45.175311342866536" lon="9.678553368455866"><ele>59.8</ele><time>2026-03-29T13:53:18Z</time></trkpt><trkpt lat="45.17524937544596" lon="9.678654935281935"><ele>59.6</ele><time>2026-03-29T13:53:19Z</time></trkpt><trkpt lat="45.175166199758806" lon="9.678740619472633"><ele>59.400000000000006</ele><time>2026-03-29T13:53:20Z</time></trkpt><trkpt lat="45.175070683770485" lon="9.678793557638976"><ele>59.2</ele><time>2026-03-29T13:53:21Z</time></trkpt><trkpt lat="45.17496554189334" lon="9.678804836063529"><ele>59.0</ele><time>2026-03-29T13:53:22Z</time></trkpt><trkpt lat="45.17487045319986" lon="9.678772748632245"><ele>59.0</ele><time>2026-03-29T13:53:23Z</time></trkpt><trkpt lat="45.17478554603983" lon="9.678698158122986"><ele>59.00000000000001</ele><time>2026-03-29T13:53:24Z</time></trkpt><trkpt lat="45.17471290325072" lon="9.678595321883831"><ele>59.00000000000001</ele><time>2026-03-29T13:53:25Z</time></trkpt><trkpt lat="45.17466563414046" lon="9.678467132256024"><ele>59.0</ele><time>2026-03-29T13:53:26Z</time></trkpt><trkpt lat="45.17462413771931" lon="9.678329884952007"><ele>59.0</ele><time>2026-03-29T13:53:27Z</time></trkpt><trkpt lat="45.17463349674268" lon="9.678133304516553"><ele>59.0</ele><time>2026-03-29T13:53:28Z</time></trkpt><trkpt lat="45.17461512392838" lon="9.677909801331891"><ele>59.0</ele><time>2026-03-29T13:53:29Z</time></trkpt><trkpt lat="45.17458716441513" lon="9.677675995864378"><ele>59.0</ele><time>2026-03-29T13:53:30Z</time></trkpt><trkpt lat="45.174553446460656" lon="9.677417894280076"><ele>59.333333333333336</ele><time>2026-03-29T13:53:31Z</time></trkpt><trkpt lat="45.17452281249179" lon="9.677144006917848"><ele>59.66666666666667</ele><time>2026-03-29T13:53:32Z</time></trkpt><trkpt lat="45.1744696070157" lon="9.676869726586435"><ele>60.0</ele><time>2026-03-29T13:53:33Z</time></trkpt><trkpt lat="45.17441400967808" lon="9.676598168805375"><ele>60.33333333333333</ele><time>2026-03-29T13:53:34Z</time></trkpt><trkpt lat="45.17435684208194" lon="9.676338578085746"><ele>60.666666666666664</ele><time>2026-03-29T13:53:35Z</time></trkpt><trkpt lat="45.1742972376928" lon="9.676087284397061"><ele>61.0</ele><time>2026-03-29T13:53:36Z</time></trkpt><trkpt lat="45.174237993270495" lon="9.67584627695458"><ele>61.33333333333333</ele><time>2026-03-29T13:53:37Z</time></trkpt><trkpt lat="45.174175179332124" lon="9.67559511380137"><ele>61.66666666666667</ele><time>2026-03-29T13:53:38Z</time></trkpt><trkpt lat="45.174092765274004" lon="9.67534003256376"><ele>62.0</ele><time>2026-03-29T13:53:39Z</time></trkpt><trkpt lat="45.174002037358065" lon="9.675087028515255"><ele>62.0</ele><time>2026-03-29T13:53:40Z</time></trkpt><trkpt lat="45.1738961144188" lon="9.674844976390283"><ele>62.0</ele><time>2026-03-29T13:53:41Z</time></trkpt><trkpt lat="45.17378219093915" lon="9.674624490115379"><ele>62.0</ele><time>2026-03-29T13:53:42Z</time></trkpt><trkpt lat="45.173682266827555" lon="9.674379883706333"><ele>61.66666666666667</ele><time>2026-03-29T13:53:43Z</time></trkpt><trkpt lat="45.17358321948351" lon="9.674128146228243"><ele>61.33333333333333</ele><time>2026-03-29T13:53:44Z</time></trkpt><trkpt lat="45.17347348660907" lon="9.673893761846584"><ele>61.0</ele><time>2026-03-29T13:53:45Z</time></trkpt><trkpt lat="45.17336099925201" lon="9.67366065796739"><ele>61.33333333333333</ele><time>2026-03-29T13:53:46Z</time></trkpt><trkpt lat="45.173241837064666" lon="9.673420807847798"><ele>61.66666666666667</ele><time>2026-03-29T13:53:47Z</time></trkpt><trkpt lat="45.17312158414104" lon="9.673185445973814"><ele>62.0</ele><time>2026-03-29T13:53:48Z</time></trkpt><trkpt lat="45.17299606770015" lon="9.672963592837204"><ele>62.0</ele><time>2026-03-29T13:53:49Z</time></trkpt><trkpt lat="45.17286056606966" lon="9.67274463072964"><ele>62.0</ele><time>2026-03-29T13:53:50Z</time></trkpt><trkpt lat="45.172721469776356" lon="9.672528286462919"><ele>62.0</ele><time>2026-03-29T13:53:51Z</time></trkpt><trkpt lat="45.172583376780665" lon="9.67231719938772"><ele>62.0</ele><time>2026-03-29T13:53:52Z</time></trkpt><trkpt lat="45.17243036415285" lon="9.672117000862173"><ele>62.0</ele><time>2026-03-29T13:53:53Z</time></trkpt><trkpt lat="45.17227099577004" lon="9.671920776089152"><ele>62.0</ele><time>2026-03-29T13:53:54Z</time></trkpt><trkpt lat="45.17210695593374" lon="9.671711526101845"><ele>61.66666666666667</ele><time>2026-03-29T13:53:55Z</time></trkpt><trkpt lat="45.17192836787516" lon="9.671513437691011"><ele>61.33333333333333</ele><time>2026-03-29T13:53:56Z</time></trkpt><trkpt lat="45.17174984060326" lon="9.671331429245297"><ele>61.0</ele><time>2026-03-29T13:53:57Z</time></trkpt><trkpt lat="45.171565151114244" lon="9.671131031827064"><ele>60.5</ele><time>2026-03-29T13:53:58Z</time></trkpt><trkpt lat="45.17137466569931" lon="9.670931574365623"><ele>60.0</ele><time>2026-03-29T13:53:59Z</time></trkpt><trkpt lat="45.171183501867304" lon="9.670753880928624"><ele>60.0</ele><time>2026-03-29T13:54:00Z</time></trkpt><trkpt lat="45.17098203541038" lon="9.67058277401121"><ele>60.0</ele><time>2026-03-29T13:54:01Z</time></trkpt><trkpt lat="45.17079376763533" lon="9.670416160085258"><ele>60.5</ele><time>2026-03-29T13:54:02Z</time></trkpt><trkpt lat="45.17058666178586" lon="9.670226952360176"><ele>61.0</ele><time>2026-03-29T13:54:03Z</time></trkpt><trkpt lat="45.17037667883525" lon="9.67001981401324"><ele>61.0</ele><time>2026-03-29T13:54:04Z</time></trkpt><trkpt lat="45.170183869527726" lon="9.669848132057377"><ele>61.0</ele><time>2026-03-29T13:54:05Z</time></trkpt><trkpt lat="45.169985900746966" lon="9.669668547801601"><ele>61.0</ele><time>2026-03-29T13:54:06Z</time></trkpt><trkpt lat="45.16979379517352" lon="9.669491662782878"><ele>61.0</ele><time>2026-03-29T13:54:07Z</time></trkpt><trkpt lat="45.16959833934249" lon="9.669306905423435"><ele>60.5</ele><time>2026-03-29T13:54:08Z</time></trkpt><trkpt lat="45.16940409855772" lon="9.669108577932313"><ele>60.0</ele><time>2026-03-29T13:54:08.999Z</time></trkpt><trkpt lat="45.16921446963047" lon="9.668908415062006"><ele>60.0</ele><time>2026-03-29T13:54:09.999Z</time></trkpt><trkpt lat="45.169030747681695" lon="9.668697532511892"><ele>60.0</ele><time>2026-03-29T13:54:10.999Z</time></trkpt><trkpt lat="45.16886072983817" lon="9.66848074191002"><ele>60.0</ele><time>2026-03-29T13:54:11.999Z</time></trkpt><trkpt lat="45.168706520449895" lon="9.668251826926939"><ele>60.0</ele><time>2026-03-29T13:54:12.999Z</time></trkpt><trkpt lat="45.16852793111387" lon="9.668008168262908"><ele>59.5</ele><time>2026-03-29T13:54:13.999Z</time></trkpt><trkpt lat="45.16837145786635" lon="9.667742810975414"><ele>59.0</ele><time>2026-03-29T13:54:14.999Z</time></trkpt><trkpt lat="45.168208302968964" lon="9.667483558221603"><ele>60.0</ele><time>2026-03-29T13:54:15.999Z</time></trkpt><trkpt lat="45.1680581430641" lon="9.667231639792014"><ele>61.0</ele><time>2026-03-29T13:54:16.999Z</time></trkpt><trkpt lat="45.16790172086198" lon="9.666975842931418"><ele>60.5</ele><time>2026-03-29T13:54:17.999Z</time></trkpt><trkpt lat="45.16774601424474" lon="9.666725164316368"><ele>60.0</ele><time>2026-03-29T13:54:18.999Z</time></trkpt><trkpt lat="45.1675864162243" lon="9.666478706564774"><ele>60.0</ele><time>2026-03-29T13:54:19.999Z</time></trkpt><trkpt lat="45.16743955396174" lon="9.666222566435923"><ele>60.0</ele><time>2026-03-29T13:54:20.999Z</time></trkpt><trkpt lat="45.167286777906014" lon="9.665983718096387"><ele>60.5</ele><time>2026-03-29T13:54:21.999Z</time></trkpt><trkpt lat="45.16713305161993" lon="9.665743674173195"><ele>61.0</ele><time>2026-03-29T13:54:22.999Z</time></trkpt><trkpt lat="45.16698940775903" lon="9.665503764292339"><ele>61.0</ele><time>2026-03-29T13:54:23.999Z</time></trkpt><trkpt lat="45.16683999066444" lon="9.665268083806826"><ele>61.0</ele><time>2026-03-29T13:54:24.999Z</time></trkpt><trkpt lat="45.166692388308704" lon="9.665034873347647"><ele>61.0</ele><time>2026-03-29T13:54:25.999Z</time></trkpt><trkpt lat="45.166552152463964" lon="9.664800276794182"><ele>60.33333333333333</ele><time>2026-03-29T13:54:26.999Z</time></trkpt><trkpt lat="45.166409443731126" lon="9.66458011108599"><ele>59.66666666666667</ele><time>2026-03-29T13:54:27.999Z</time></trkpt><trkpt lat="45.166269549625724" lon="9.664355320032564"><ele>59.0</ele><time>2026-03-29T13:54:28.999Z</time></trkpt><trkpt lat="45.16613449766718" lon="9.664134201849421"><ele>59.0</ele><time>2026-03-29T13:54:29.999Z</time></trkpt><trkpt lat="45.16599694633374" lon="9.663927556115123"><ele>59.0</ele><time>2026-03-29T13:54:30.999Z</time></trkpt><trkpt lat="45.16586075069068" lon="9.663732738090289"><ele>59.0</ele><time>2026-03-29T13:54:31.999Z</time></trkpt><trkpt lat="45.16575202038028" lon="9.66354179247779"><ele>58.0</ele><time>2026-03-29T13:54:32.999Z</time></trkpt><trkpt lat="45.165644076300325" lon="9.66334296364677"><ele>57.0</ele><time>2026-03-29T13:54:33.999Z</time></trkpt><trkpt lat="45.165536715942544" lon="9.663209866390122"><ele>56.0</ele><time>2026-03-29T13:54:34.999Z</time></trkpt><trkpt lat="45.165443938823245" lon="9.663044024082867"><ele>56.0</ele><time>2026-03-29T13:54:35.999Z</time></trkpt><trkpt lat="45.165354887866094" lon="9.66290198680274"><ele>56.0</ele><time>2026-03-29T13:54:36.999Z</time></trkpt><trkpt lat="45.16526919203588" lon="9.66277348212203"><ele>56.0</ele><time>2026-03-29T13:54:37.999Z</time></trkpt><trkpt lat="45.1652023366412" lon="9.662652301710645"><ele>56.0</ele><time>2026-03-29T13:54:38.999Z</time></trkpt><trkpt lat="45.165133118396575" lon="9.662542310525806"><ele>56.00000000000001</ele><time>2026-03-29T13:54:39.999Z</time></trkpt><trkpt lat="45.16507920300274" lon="9.662446880521461"><ele>56.0</ele><time>2026-03-29T13:54:40.999Z</time></trkpt><trkpt lat="45.16504929997989" lon="9.662352964992067"><ele>56.0</ele><time>2026-03-29T13:54:41.999Z</time></trkpt><trkpt lat="45.16501806697471" lon="9.662256106780763"><ele>56.0</ele><time>2026-03-29T13:54:42.999Z</time></trkpt><trkpt lat="45.16501822828884" lon="9.66211794116104"><ele>56.00000000000001</ele><time>2026-03-29T13:54:43.999Z</time></trkpt><trkpt lat="45.165005755301536" lon="9.661995399461672"><ele>56.0</ele><time>2026-03-29T13:54:44.999Z</time></trkpt><trkpt lat="45.164994448766905" lon="9.66187279345929"><ele>56.00000000000001</ele><time>2026-03-29T13:54:45.999Z</time></trkpt><trkpt lat="45.164947850553794" lon="9.66178164688255"><ele>56.0</ele><time>2026-03-29T13:54:46.999Z</time></trkpt><trkpt lat="45.16489248526291" lon="9.661727357271166"><ele>56.0</ele><time>2026-03-29T13:54:47.999Z</time></trkpt><trkpt lat="45.164823556319064" lon="9.661699519775334"><ele>56.0</ele><time>2026-03-29T13:54:48.999Z</time></trkpt><trkpt lat="45.164740382101826" lon="9.661713127013835"><ele>56.00000000000001</ele><time>2026-03-29T13:54:49.999Z</time></trkpt><trkpt lat="45.16466704216992" lon="9.661766197389497"><ele>56.0</ele><time>2026-03-29T13:54:50.999Z</time></trkpt><trkpt lat="45.16460316698448" lon="9.661846900503871"><ele>56.16666666666667</ele><time>2026-03-29T13:54:51.999Z</time></trkpt><trkpt lat="45.16458271142271" lon="9.661983527366447"><ele>56.333333333333336</ele><time>2026-03-29T13:54:52.999Z</time></trkpt><trkpt lat="45.16458944549684" lon="9.662090221356546"><ele>56.5</ele><time>2026-03-29T13:54:53.999Z</time></trkpt><trkpt lat="45.16462448900573" lon="9.662175025272568"><ele>56.66666666666667</ele><time>2026-03-29T13:54:54.999Z</time></trkpt><trkpt lat="45.16467619335694" lon="9.66225750897959"><ele>56.833333333333336</ele><time>2026-03-29T13:54:55.999Z</time></trkpt><trkpt lat="45.16478911556729" lon="9.66230058334494"><ele>57.0</ele><time>2026-03-29T13:54:56.999Z</time></trkpt><trkpt lat="45.16489360567384" lon="9.662353708058218"><ele>56.75</ele><time>2026-03-29T13:54:57.999Z</time></trkpt><trkpt lat="45.16499406886417" lon="9.662418773875267"><ele>56.5</ele><time>2026-03-29T13:54:58.999Z</time></trkpt><trkpt lat="45.16510037287657" lon="9.662507468344472"><ele>56.25</ele><time>2026-03-29T13:54:59.999Z</time></trkpt><trkpt lat="45.16519152588797" lon="9.662657748504131"><ele>56.0</ele><time>2026-03-29T13:55:00.999Z</time></trkpt><trkpt lat="45.16528734960417" lon="9.662810405045533"><ele>56.0</ele><time>2026-03-29T13:55:02Z</time></trkpt><trkpt lat="45.16538750827883" lon="9.662977630224445"><ele>56.0</ele><time>2026-03-29T13:55:03Z</time></trkpt><trkpt lat="45.16548546985882" lon="9.663139244188674"><ele>56.0</ele><time>2026-03-29T13:55:04Z</time></trkpt><trkpt lat="45.16558560265259" lon="9.663297597363991"><ele>56.0</ele><time>2026-03-29T13:55:05Z</time></trkpt><trkpt lat="45.16568760570075" lon="9.663454048277242"><ele>56.0</ele><time>2026-03-29T13:55:06Z</time></trkpt><trkpt lat="45.16578864047264" lon="9.663611294703928"><ele>56.0</ele><time>2026-03-29T13:55:07Z</time></trkpt><trkpt lat="45.16588887336149" lon="9.663776470221496"><ele>57.0</ele><time>2026-03-29T13:55:08Z</time></trkpt><trkpt lat="45.16599173049197" lon="9.66395990942899"><ele>58.0</ele><time>2026-03-29T13:55:09Z</time></trkpt><trkpt lat="45.16610851530799" lon="9.66415324131749"><ele>59.0</ele><time>2026-03-29T13:55:10Z</time></trkpt><trkpt lat="45.16625412605039" lon="9.664387920463222"><ele>59.0</ele><time>2026-03-29T13:55:11Z</time></trkpt><trkpt lat="45.1664265635599" lon="9.664654701604517"><ele>59.0</ele><time>2026-03-29T13:55:12Z</time></trkpt><trkpt lat="45.16659915008041" lon="9.66494176736774"><ele>60.0</ele><time>2026-03-29T13:55:13Z</time></trkpt><trkpt lat="45.16676543788575" lon="9.665206264217126"><ele>61.0</ele><time>2026-03-29T13:55:14Z</time></trkpt><trkpt lat="45.16692489961294" lon="9.665470401371818"><ele>61.0</ele><time>2026-03-29T13:55:15Z</time></trkpt><trkpt lat="45.16709585226711" lon="9.665725244855803"><ele>61.0</ele><time>2026-03-29T13:55:16Z</time></trkpt><trkpt lat="45.167251794200226" lon="9.665978276562232"><ele>60.5</ele><time>2026-03-29T13:55:17Z</time></trkpt><trkpt lat="45.16741702743335" lon="9.666253639455649"><ele>60.0</ele><time>2026-03-29T13:55:18Z</time></trkpt><trkpt lat="45.16759527197462" lon="9.666540724579864"><ele>60.0</ele><time>2026-03-29T13:55:19Z</time></trkpt><trkpt lat="45.167786750114935" lon="9.666842075567594"><ele>60.0</ele><time>2026-03-29T13:55:20Z</time></trkpt><trkpt lat="45.16797657088182" lon="9.667153270040403"><ele>60.5</ele><time>2026-03-29T13:55:21Z</time></trkpt><trkpt lat="45.16815169558033" lon="9.66743211461107"><ele>61.0</ele><time>2026-03-29T13:55:22Z</time></trkpt><trkpt lat="45.16831548588883" lon="9.66770288329487"><ele>60.5</ele><time>2026-03-29T13:55:23Z</time></trkpt><trkpt lat="45.168478758834276" lon="9.66796984497214"><ele>60.0</ele><time>2026-03-29T13:55:24Z</time></trkpt><trkpt lat="45.16864704966923" lon="9.66822041111996"><ele>60.0</ele><time>2026-03-29T13:55:25Z</time></trkpt><trkpt lat="45.16881208823333" lon="9.66846868169098"><ele>60.0</ele><time>2026-03-29T13:55:26Z</time></trkpt><trkpt lat="45.16898011388118" lon="9.668701927950208"><ele>60.0</ele><time>2026-03-29T13:55:27Z</time></trkpt><trkpt lat="45.16917118844398" lon="9.66893694009946"><ele>60.0</ele><time>2026-03-29T13:55:28Z</time></trkpt><trkpt lat="45.169357923105814" lon="9.669160204408223"><ele>60.0</ele><time>2026-03-29T13:55:29Z</time></trkpt><trkpt lat="45.1695613577077" lon="9.669351810967397"><ele>60.0</ele><time>2026-03-29T13:55:30Z</time></trkpt><trkpt lat="45.16977561305768" lon="9.669549462006541"><ele>60.5</ele><time>2026-03-29T13:55:31Z</time></trkpt><trkpt lat="45.16999527787741" lon="9.669751404419245"><ele>61.0</ele><time>2026-03-29T13:55:32Z</time></trkpt><trkpt lat="45.17020069833063" lon="9.669945389279214"><ele>61.0</ele><time>2026-03-29T13:55:33Z</time></trkpt><trkpt lat="45.17040075798578" lon="9.670103722313991"><ele>61.0</ele><time>2026-03-29T13:55:34Z</time></trkpt><trkpt lat="45.170618851855245" lon="9.670301779758589"><ele>60.5</ele><time>2026-03-29T13:55:35Z</time></trkpt><trkpt lat="45.17081508343192" lon="9.670492267059416"><ele>60.0</ele><time>2026-03-29T13:55:36Z</time></trkpt><trkpt lat="45.171009331273304" lon="9.67067337437239"><ele>60.0</ele><time>2026-03-29T13:55:37Z</time></trkpt><trkpt lat="45.17121628570466" lon="9.67084859477877"><ele>60.0</ele><time>2026-03-29T13:55:38Z</time></trkpt><trkpt lat="45.171408958896095" lon="9.671048940993147"><ele>60.5</ele><time>2026-03-29T13:55:39Z</time></trkpt><trkpt lat="45.1716093633486" lon="9.671239142002728"><ele>61.0</ele><time>2026-03-29T13:55:40Z</time></trkpt><trkpt lat="45.17180524513481" lon="9.671445338757163"><ele>61.0</ele><time>2026-03-29T13:55:41Z</time></trkpt><trkpt lat="45.17200280415642" lon="9.671648229871597"><ele>61.0</ele><time>2026-03-29T13:55:42Z</time></trkpt><trkpt lat="45.172180245431235" lon="9.671844717805769"><ele>61.0</ele><time>2026-03-29T13:55:43Z</time></trkpt><trkpt lat="45.17233158923421" lon="9.672057467805848"><ele>61.0</ele><time>2026-03-29T13:55:44Z</time></trkpt><trkpt lat="45.172481746812224" lon="9.672277027347283"><ele>61.0</ele><time>2026-03-29T13:55:45Z</time></trkpt><trkpt lat="45.1726381035936" lon="9.672488038396816"><ele>61.33333333333333</ele><time>2026-03-29T13:55:46Z</time></trkpt><trkpt lat="45.17279069228928" lon="9.672712115933763"><ele>61.66666666666667</ele><time>2026-03-29T13:55:47Z</time></trkpt><trkpt lat="45.17293456972469" lon="9.672955980276848"><ele>62.0</ele><time>2026-03-29T13:55:48Z</time></trkpt><trkpt lat="45.17308257444882" lon="9.673205633214645"><ele>62.0</ele><time>2026-03-29T13:55:49Z</time></trkpt><trkpt lat="45.17321798317174" lon="9.673453100864695"><ele>62.0</ele><time>2026-03-29T13:55:50Z</time></trkpt><trkpt lat="45.173349007517054" lon="9.673708960154807"><ele>62.0</ele><time>2026-03-29T13:55:51Z</time></trkpt><trkpt lat="45.17347098700418" lon="9.673969166155418"><ele>62.0</ele><time>2026-03-29T13:55:52Z</time></trkpt><trkpt lat="45.17358833354713" lon="9.67423538343999"><ele>62.0</ele><time>2026-03-29T13:55:53Z</time></trkpt><trkpt lat="45.17370270896272" lon="9.674508176152992"><ele>62.0</ele><time>2026-03-29T13:55:54Z</time></trkpt><trkpt lat="45.17381121529132" lon="9.674782944587859"><ele>62.0</ele><time>2026-03-29T13:55:55Z</time></trkpt><trkpt lat="45.17391236529212" lon="9.675082965617129"><ele>62.0</ele><time>2026-03-29T13:55:56Z</time></trkpt><trkpt lat="45.17402096414982" lon="9.675379027002904"><ele>62.0</ele><time>2026-03-29T13:55:57Z</time></trkpt><trkpt lat="45.174110052939106" lon="9.675683805899277"><ele>62.0</ele><time>2026-03-29T13:55:58Z</time></trkpt><trkpt lat="45.17419375664048" lon="9.67599194090554"><ele>61.5</ele><time>2026-03-29T13:55:59Z</time></trkpt><trkpt lat="45.17427472880661" lon="9.676315276132339"><ele>61.0</ele><time>2026-03-29T13:56:00Z</time></trkpt><trkpt lat="45.17434173720596" lon="9.676651751848535"><ele>60.5</ele><time>2026-03-29T13:56:01Z</time></trkpt><trkpt lat="45.17441318941218" lon="9.676981038056116"><ele>60.0</ele><time>2026-03-29T13:56:02Z</time></trkpt><trkpt lat="45.174469184145494" lon="9.677311146985668"><ele>60.0</ele><time>2026-03-29T13:56:03Z</time></trkpt><trkpt lat="45.17450430581204" lon="9.677657013571867"><ele>60.0</ele><time>2026-03-29T13:56:04Z</time></trkpt><trkpt lat="45.17454743531194" lon="9.678000721646704"><ele>59.5</ele><time>2026-03-29T13:56:05Z</time></trkpt><trkpt lat="45.17458346074404" lon="9.678347456143348"><ele>59.0</ele><time>2026-03-29T13:56:06Z</time></trkpt><trkpt lat="45.1746066549912" lon="9.678706618926043"><ele>59.0</ele><time>2026-03-29T13:56:07Z</time></trkpt><trkpt lat="45.17463103465797" lon="9.679078196334702"><ele>59.0</ele><time>2026-03-29T13:56:08Z</time></trkpt><trkpt lat="45.17465320057813" lon="9.679455155157976"><ele>59.0</ele><time>2026-03-29T13:56:08.999Z</time></trkpt><trkpt lat="45.17467632277936" lon="9.679830628811523"><ele>59.0</ele><time>2026-03-29T13:56:09.999Z</time></trkpt><trkpt lat="45.17469883146041" lon="9.680195113901812"><ele>59.0</ele><time>2026-03-29T13:56:10.999Z</time></trkpt><trkpt lat="45.17472051193053" lon="9.68055761211517"><ele>59.0</ele><time>2026-03-29T13:56:11.999Z</time></trkpt><trkpt lat="45.17474124043196" lon="9.680913865192364"><ele>59.0</ele><time>2026-03-29T13:56:12.999Z</time></trkpt><trkpt lat="45.17476229416752" lon="9.681265983233216"><ele>59.0</ele><time>2026-03-29T13:56:13.999Z</time></trkpt><trkpt lat="45.17478240193436" lon="9.681604438806067"><ele>59.0</ele><time>2026-03-29T13:56:14.999Z</time></trkpt><trkpt lat="45.17480467320925" lon="9.681979310860227"><ele>59.0</ele><time>2026-03-29T13:56:15.999Z</time></trkpt><trkpt lat="45.1748269054435" lon="9.682353525654564"><ele>59.0</ele><time>2026-03-29T13:56:16.999Z</time></trkpt><trkpt lat="45.174849339976824" lon="9.682723263822266"><ele>59.0</ele><time>2026-03-29T13:56:17.999Z</time></trkpt><trkpt lat="45.17487120448502" lon="9.683083127673994"><ele>59.5</ele><time>2026-03-29T13:56:18.999Z</time></trkpt><trkpt lat="45.17489391256776" lon="9.68344434039417"><ele>60.0</ele><time>2026-03-29T13:56:19.999Z</time></trkpt><trkpt lat="45.17491747710408" lon="9.68383045154989"><ele>60.0</ele><time>2026-03-29T13:56:20.999Z</time></trkpt><trkpt lat="45.174940500693545" lon="9.684207699731056"><ele>60.0</ele><time>2026-03-29T13:56:21.999Z</time></trkpt><trkpt lat="45.17496566385202" lon="9.684620004595558"><ele>60.0</ele><time>2026-03-29T13:56:22.999Z</time></trkpt><trkpt lat="45.17500536437839" lon="9.685031231393294"><ele>60.0</ele><time>2026-03-29T13:56:23.999Z</time></trkpt><trkpt lat="45.17502889668472" lon="9.68544424328417"><ele>60.0</ele><time>2026-03-29T13:56:24.999Z</time></trkpt><trkpt lat="45.17503871782122" lon="9.685832898952365"><ele>60.0</ele><time>2026-03-29T13:56:25.999Z</time></trkpt><trkpt lat="45.1750761046139" lon="9.68626153756113"><ele>60.5</ele><time>2026-03-29T13:56:26.999Z</time></trkpt><trkpt lat="45.1750963062248" lon="9.686675883840808"><ele>61.0</ele><time>2026-03-29T13:56:27.999Z</time></trkpt><trkpt lat="45.17511092206898" lon="9.687078487973594"><ele>61.0</ele><time>2026-03-29T13:56:28.999Z</time></trkpt><trkpt lat="45.175126541907176" lon="9.68748328082186"><ele>61.0</ele><time>2026-03-29T13:56:29.999Z</time></trkpt><trkpt lat="45.1751323370902" lon="9.68788693318134"><ele>60.0</ele><time>2026-03-29T13:56:30.999Z</time></trkpt><trkpt lat="45.175148132225736" lon="9.68828334283368"><ele>59.0</ele><time>2026-03-29T13:56:31.999Z</time></trkpt><trkpt lat="45.175162074815994" lon="9.688680031635727"><ele>59.0</ele><time>2026-03-29T13:56:32.999Z</time></trkpt><trkpt lat="45.17516995957684" lon="9.689075699529146"><ele>59.0</ele><time>2026-03-29T13:56:33.999Z</time></trkpt><trkpt lat="45.175179973901784" lon="9.689469844499023"><ele>59.0</ele><time>2026-03-29T13:56:34.999Z</time></trkpt><trkpt lat="45.175186410409566" lon="9.689862316226739"><ele>59.0</ele><time>2026-03-29T13:56:35.999Z</time></trkpt><trkpt lat="45.17519127580387" lon="9.690248260561292"><ele>59.5</ele><time>2026-03-29T13:56:36.999Z</time></trkpt><trkpt lat="45.175196350029836" lon="9.690635970094538"><ele>60.0</ele><time>2026-03-29T13:56:37.999Z</time></trkpt><trkpt lat="45.17519292229209" lon="9.691031172703081"><ele>60.5</ele><time>2026-03-29T13:56:38.999Z</time></trkpt><trkpt lat="45.175196849701045" lon="9.691400882768223"><ele>61.0</ele><time>2026-03-29T13:56:39.999Z</time></trkpt><trkpt lat="45.17519235696117" lon="9.691746916486988"><ele>60.0</ele><time>2026-03-29T13:56:40.999Z</time></trkpt><trkpt lat="45.17519037801463" lon="9.692077347469088"><ele>59.0</ele><time>2026-03-29T13:56:41.999Z</time></trkpt><trkpt lat="45.17518408216071" lon="9.69240424333962"><ele>59.0</ele><time>2026-03-29T13:56:42.999Z</time></trkpt><trkpt lat="45.17517792375376" lon="9.692713752305231"><ele>59.0</ele><time>2026-03-29T13:56:43.999Z</time></trkpt><trkpt lat="45.17517754639404" lon="9.693003944040413"><ele>59.0</ele><time>2026-03-29T13:56:44.999Z</time></trkpt><trkpt lat="45.175180145599775" lon="9.693272650933281"><ele>59.333333333333336</ele><time>2026-03-29T13:56:45.999Z</time></trkpt><trkpt lat="45.17516964161612" lon="9.69352520053191"><ele>59.66666666666667</ele><time>2026-03-29T13:56:46.999Z</time></trkpt><trkpt lat="45.17515991202378" lon="9.693772235407533"><ele>60.0</ele><time>2026-03-29T13:56:47.999Z</time></trkpt><trkpt lat="45.175152549094314" lon="9.693999996817103"><ele>60.0</ele><time>2026-03-29T13:56:48.999Z</time></trkpt><trkpt lat="45.17514505015725" lon="9.694211414442753"><ele>60.0</ele><time>2026-03-29T13:56:49.999Z</time></trkpt><trkpt lat="45.17513547404307" lon="9.69440159692604"><ele>60.0</ele><time>2026-03-29T13:56:50.999Z</time></trkpt><trkpt lat="45.175127741480324" lon="9.694534442834016"><ele>60.0</ele><time>2026-03-29T13:56:51.999Z</time></trkpt><trkpt lat="45.1751293395164" lon="9.694687907290296"><ele>60.0</ele><time>2026-03-29T13:56:52.999Z</time></trkpt><trkpt lat="45.175110213677726" lon="9.694805257615236"><ele>60.0</ele><time>2026-03-29T13:56:53.999Z</time></trkpt><trkpt lat="45.175054563068336" lon="9.694902642867346"><ele>60.0</ele><time>2026-03-29T13:56:54.999Z</time></trkpt><trkpt lat="45.174995463886255" lon="9.69498537134255"><ele>60.0</ele><time>2026-03-29T13:56:55.999Z</time></trkpt><trkpt lat="45.174966144233096" lon="9.69508116687235"><ele>60.0</ele><time>2026-03-29T13:56:56.999Z</time></trkpt><trkpt lat="45.17497661116437" lon="9.695206871380266"><ele>60.0</ele><time>2026-03-29T13:56:57.999Z</time></trkpt><trkpt lat="45.175032266456824" lon="9.695343551235823"><ele>60.0</ele><time>2026-03-29T13:56:58.999Z</time></trkpt><trkpt lat="45.17509152096772" lon="9.69548235703785"><ele>60.0</ele><time>2026-03-29T13:56:59.999Z</time></trkpt><trkpt lat="45.175119226486935" lon="9.69564057015757"><ele>60.0</ele><time>2026-03-29T13:57:00.999Z</time></trkpt><trkpt lat="45.17513929525502" lon="9.695821098395205"><ele>60.0</ele><time>2026-03-29T13:57:01.999Z</time></trkpt><trkpt lat="45.17511853675601" lon="9.696060513145646"><ele>59.66666666666667</ele><time>2026-03-29T13:57:02.999Z</time></trkpt><trkpt lat="45.17511232390863" lon="9.696324231960705"><ele>59.333333333333336</ele><time>2026-03-29T13:57:03.999Z</time></trkpt><trkpt lat="45.17511328855792" lon="9.696594655499885"><ele>59.0</ele><time>2026-03-29T13:57:04.999Z</time></trkpt><trkpt lat="45.17510429765925" lon="9.696923783557454"><ele>59.0</ele><time>2026-03-29T13:57:05.999Z</time></trkpt><trkpt lat="45.1750991298326" lon="9.697220208396319"><ele>59.0</ele><time>2026-03-29T13:57:06.999Z</time></trkpt><trkpt lat="45.17509570609449" lon="9.697500230812686"><ele>59.0</ele><time>2026-03-29T13:57:08Z</time></trkpt><trkpt lat="45.17508942141561" lon="9.697752743249861"><ele>58.66666666666667</ele><time>2026-03-29T13:57:09Z</time></trkpt><trkpt lat="45.17508297020986" lon="9.697993207881076"><ele>58.33333333333333</ele><time>2026-03-29T13:57:10Z</time></trkpt><trkpt lat="45.17507743364485" lon="9.698235913892999"><ele>58.0</ele><time>2026-03-29T13:57:11Z</time></trkpt><trkpt lat="45.17507504498787" lon="9.69847869067299"><ele>58.33333333333333</ele><time>2026-03-29T13:57:12Z</time></trkpt><trkpt lat="45.175069475127245" lon="9.698730741042022"><ele>58.66666666666667</ele><time>2026-03-29T13:57:13Z</time></trkpt><trkpt lat="45.1750661791171" lon="9.698997557309259"><ele>59.0</ele><time>2026-03-29T13:57:14Z</time></trkpt><trkpt lat="45.17505458598295" lon="9.699301527532972"><ele>59.0</ele><time>2026-03-29T13:57:15Z</time></trkpt><trkpt lat="45.175056988967924" lon="9.699615057174817"><ele>59.0</ele><time>2026-03-29T13:57:16Z</time></trkpt><trkpt lat="45.17503798814522" lon="9.699885674546284"><ele>59.0</ele><time>2026-03-29T13:57:17Z</time></trkpt><trkpt lat="45.17501136487027" lon="9.700190924080722"><ele>58.66666666666667</ele><time>2026-03-29T13:57:18Z</time></trkpt><trkpt lat="45.17498672636148" lon="9.700488947327283"><ele>58.33333333333333</ele><time>2026-03-29T13:57:19Z</time></trkpt><trkpt lat="45.17499560207438" lon="9.700758784760023"><ele>58.0</ele><time>2026-03-29T13:57:20Z</time></trkpt><trkpt lat="45.174979887323616" lon="9.701039496265807"><ele>58.33333333333333</ele><time>2026-03-29T13:57:21Z</time></trkpt><trkpt lat="45.17496679604391" lon="9.701319506625035"><ele>58.66666666666667</ele><time>2026-03-29T13:57:22Z</time></trkpt><trkpt lat="45.17495663596221" lon="9.701602014404138"><ele>59.0</ele><time>2026-03-29T13:57:23Z</time></trkpt><trkpt lat="45.17493850969965" lon="9.701892896427033"><ele>58.66666666666667</ele><time>2026-03-29T13:57:24Z</time></trkpt><trkpt lat="45.1749216108744" lon="9.702183901053596"><ele>58.33333333333333</ele><time>2026-03-29T13:57:25Z</time></trkpt><trkpt lat="45.174905572161336" lon="9.702472084716081"><ele>58.0</ele><time>2026-03-29T13:57:26Z</time></trkpt><trkpt lat="45.174888871331994" lon="9.702766165589551"><ele>58.0</ele><time>2026-03-29T13:57:27Z</time></trkpt><trkpt lat="45.17487102003228" lon="9.7030500772398"><ele>58.0</ele><time>2026-03-29T13:57:28Z</time></trkpt><trkpt lat="45.17485718527565" lon="9.703344240028015"><ele>58.0</ele><time>2026-03-29T13:57:29Z</time></trkpt><trkpt lat="45.174840943531315" lon="9.703638445991428"><ele>58.0</ele><time>2026-03-29T13:57:30Z</time></trkpt><trkpt lat="45.17482892074611" lon="9.7039274578814"><ele>58.0</ele><time>2026-03-29T13:57:31Z</time></trkpt><trkpt lat="45.174813369884085" lon="9.704208924112693"><ele>58.0</ele><time>2026-03-29T13:57:32Z</time></trkpt><trkpt lat="45.17479474935919" lon="9.70449189195334"><ele>58.0</ele><time>2026-03-29T13:57:33Z</time></trkpt><trkpt lat="45.174782291059046" lon="9.704764138042293"><ele>58.0</ele><time>2026-03-29T13:57:34Z</time></trkpt><trkpt lat="45.17477449860959" lon="9.705026072321578"><ele>58.0</ele><time>2026-03-29T13:57:35Z</time></trkpt><trkpt lat="45.17474156236459" lon="9.705274366246757"><ele>58.0</ele><time>2026-03-29T13:57:36Z</time></trkpt><trkpt lat="45.174720104211076" lon="9.705496462265376"><ele>58.0</ele><time>2026-03-29T13:57:37Z</time></trkpt><trkpt lat="45.17468459404543" lon="9.70569496523987"><ele>58.0</ele><time>2026-03-29T13:57:38Z</time></trkpt><trkpt lat="45.17465628304945" lon="9.705864245830606"><ele>58.0</ele><time>2026-03-29T13:57:39Z</time></trkpt><trkpt lat="45.17471594416891" lon="9.706059212299486"><ele>57.99999999999999</ele><time>2026-03-29T13:57:40Z</time></trkpt><trkpt lat="45.1747007924387" lon="9.706200812375124"><ele>58.0</ele><time>2026-03-29T13:57:41Z</time></trkpt><trkpt lat="45.17469460578107" lon="9.706307481961506"><ele>58.0</ele><time>2026-03-29T13:57:42Z</time></trkpt><trkpt lat="45.17467152761166" lon="9.7064188460803"><ele>58.0</ele><time>2026-03-29T13:57:43Z</time></trkpt><trkpt lat="45.17463303249963" lon="9.706514189182595"><ele>57.99999999999999</ele><time>2026-03-29T13:57:44Z</time></trkpt><trkpt lat="45.17456002387848" lon="9.706601550331575"><ele>58.0</ele><time>2026-03-29T13:57:45Z</time></trkpt><trkpt lat="45.174521534498396" lon="9.706719003206688"><ele>58.0</ele><time>2026-03-29T13:57:46Z</time></trkpt><trkpt lat="45.17448510240606" lon="9.70685341277807"><ele>58.0</ele><time>2026-03-29T13:57:47Z</time></trkpt><trkpt lat="45.174573084772376" lon="9.706968822195474"><ele>58.0</ele><time>2026-03-29T13:57:48Z</time></trkpt><trkpt lat="45.17462796637311" lon="9.70711853361516"><ele>58.0</ele><time>2026-03-29T13:57:49Z</time></trkpt><trkpt lat="45.17466058739273" lon="9.707264177524582"><ele>58.0</ele><time>2026-03-29T13:57:50Z</time></trkpt><trkpt lat="45.174661291909196" lon="9.707528105166434"><ele>58.0</ele><time>2026-03-29T13:57:51Z</time></trkpt><trkpt lat="45.17464680843601" lon="9.707798191444107"><ele>58.0</ele><time>2026-03-29T13:57:52Z</time></trkpt><trkpt lat="45.17461926948289" lon="9.708054666477501"><ele>58.0</ele><time>2026-03-29T13:57:53Z</time></trkpt><trkpt lat="45.17459446353307" lon="9.708330950077032"><ele>57.666666666666664</ele><time>2026-03-29T13:57:54Z</time></trkpt><trkpt lat="45.174579669068564" lon="9.708627991299595"><ele>57.33333333333333</ele><time>2026-03-29T13:57:55Z</time></trkpt><trkpt lat="45.1745592108713" lon="9.708932358692639"><ele>57.0</ele><time>2026-03-29T13:57:56Z</time></trkpt><trkpt lat="45.17453753331869" lon="9.709235500604452"><ele>57.33333333333333</ele><time>2026-03-29T13:57:57Z</time></trkpt><trkpt lat="45.174520399845576" lon="9.709528256331978"><ele>57.666666666666664</ele><time>2026-03-29T13:57:58Z</time></trkpt><trkpt lat="45.17450149975684" lon="9.7098292044241"><ele>58.0</ele><time>2026-03-29T13:57:59Z</time></trkpt><trkpt lat="45.174486584993936" lon="9.710125908277485"><ele>57.666666666666664</ele><time>2026-03-29T13:58:00Z</time></trkpt><trkpt lat="45.17447279115572" lon="9.710423245317617"><ele>57.33333333333333</ele><time>2026-03-29T13:58:01Z</time></trkpt><trkpt lat="45.17444981765677" lon="9.710740743987595"><ele>57.0</ele><time>2026-03-29T13:58:02Z</time></trkpt><trkpt lat="45.17440458262007" lon="9.711097226212361"><ele>57.0</ele><time>2026-03-29T13:58:03Z</time></trkpt><trkpt lat="45.17439730873743" lon="9.711402823239071"><ele>57.0</ele><time>2026-03-29T13:58:04Z</time></trkpt><trkpt lat="45.1743815411318" lon="9.711723918926014"><ele>57.0</ele><time>2026-03-29T13:58:05Z</time></trkpt><trkpt lat="45.17436492908099" lon="9.712040161707042"><ele>57.0</ele><time>2026-03-29T13:58:06Z</time></trkpt><trkpt lat="45.17434621572195" lon="9.712362019613954"><ele>57.0</ele><time>2026-03-29T13:58:07Z</time></trkpt><trkpt lat="45.174329762762454" lon="9.712684849467223"><ele>58.0</ele><time>2026-03-29T13:58:08Z</time></trkpt><trkpt lat="45.17431089099293" lon="9.713012861266314"><ele>59.0</ele><time>2026-03-29T13:58:09Z</time></trkpt><trkpt lat="45.17430149454716" lon="9.713319993914594"><ele>60.0</ele><time>2026-03-29T13:58:10Z</time></trkpt><trkpt lat="45.17428514319189" lon="9.713645735658694"><ele>60.0</ele><time>2026-03-29T13:58:11Z</time></trkpt><trkpt lat="45.17426644596165" lon="9.713959634660096"><ele>60.0</ele><time>2026-03-29T13:58:12Z</time></trkpt><trkpt lat="45.17424704840007" lon="9.714273319591761"><ele>60.0</ele><time>2026-03-29T13:58:12.999Z</time></trkpt><trkpt lat="45.17422919837098" lon="9.71458841228817"><ele>59.0</ele><time>2026-03-29T13:58:13.999Z</time></trkpt><trkpt lat="45.17421038304312" lon="9.71491064277243"><ele>58.0</ele><time>2026-03-29T13:58:14.999Z</time></trkpt><trkpt lat="45.17419356492637" lon="9.715236996662343"><ele>58.0</ele><time>2026-03-29T13:58:15.999Z</time></trkpt><trkpt lat="45.174173027770166" lon="9.715570286152074"><ele>58.0</ele><time>2026-03-29T13:58:16.999Z</time></trkpt><trkpt lat="45.174156078923104" lon="9.715898183457446"><ele>58.5</ele><time>2026-03-29T13:58:17.999Z</time></trkpt><trkpt lat="45.174139172534026" lon="9.716234497564058"><ele>59.0</ele><time>2026-03-29T13:58:18.999Z</time></trkpt><trkpt lat="45.17411667653369" lon="9.716578215149633"><ele>59.0</ele><time>2026-03-29T13:58:19.999Z</time></trkpt><trkpt lat="45.17408755661008" lon="9.716936071278964"><ele>59.0</ele><time>2026-03-29T13:58:20.999Z</time></trkpt><trkpt lat="45.17407170678496" lon="9.717290241292147"><ele>59.0</ele><time>2026-03-29T13:58:21.999Z</time></trkpt><trkpt lat="45.1740503895279" lon="9.717662959560851"><ele>59.0</ele><time>2026-03-29T13:58:22.999Z</time></trkpt><trkpt lat="45.17401599469844" lon="9.717964484709531"><ele>58.5</ele><time>2026-03-29T13:58:23.999Z</time></trkpt><trkpt lat="45.17399564250503" lon="9.71833343403901"><ele>58.0</ele><time>2026-03-29T13:58:24.999Z</time></trkpt><trkpt lat="45.173985248592004" lon="9.718716720790297"><ele>58.0</ele><time>2026-03-29T13:58:25.999Z</time></trkpt><trkpt lat="45.17396891773506" lon="9.71908490684028"><ele>58.0</ele><time>2026-03-29T13:58:26.999Z</time></trkpt><trkpt lat="45.17395300814604" lon="9.719439894381976"><ele>58.0</ele><time>2026-03-29T13:58:27.999Z</time></trkpt><trkpt lat="45.17393071565835" lon="9.719793312061814"><ele>58.0</ele><time>2026-03-29T13:58:28.999Z</time></trkpt><trkpt lat="45.17391246749428" lon="9.7201791495282"><ele>58.0</ele><time>2026-03-29T13:58:29.999Z</time></trkpt><trkpt lat="45.17389328411351" lon="9.720573171670454"><ele>58.0</ele><time>2026-03-29T13:58:30.999Z</time></trkpt><trkpt lat="45.17387294951817" lon="9.720960876335232"><ele>58.5</ele><time>2026-03-29T13:58:31.999Z</time></trkpt><trkpt lat="45.17385801366779" lon="9.721343695877218"><ele>59.0</ele><time>2026-03-29T13:58:32.999Z</time></trkpt><trkpt lat="45.1738389764546" lon="9.721721536867914"><ele>59.5</ele><time>2026-03-29T13:58:33.999Z</time></trkpt><trkpt lat="45.17382062516973" lon="9.72209563539954"><ele>60.0</ele><time>2026-03-29T13:58:34.999Z</time></trkpt><trkpt lat="45.173807106215115" lon="9.722471563906556"><ele>61.0</ele><time>2026-03-29T13:58:35.999Z</time></trkpt><trkpt lat="45.17379230494505" lon="9.72283932188798"><ele>62.0</ele><time>2026-03-29T13:58:36.999Z</time></trkpt><trkpt lat="45.17377946540097" lon="9.723209425147726"><ele>62.0</ele><time>2026-03-29T13:58:37.999Z</time></trkpt><trkpt lat="45.17376564893806" lon="9.723525103810488"><ele>62.0</ele><time>2026-03-29T13:58:38.999Z</time></trkpt><trkpt lat="45.17375407695944" lon="9.723909856650472"><ele>62.0</ele><time>2026-03-29T13:58:39.999Z</time></trkpt><trkpt lat="45.1737814544222" lon="9.724253758010486"><ele>62.0</ele><time>2026-03-29T13:58:40.999Z</time></trkpt><trkpt lat="45.17377333792425" lon="9.724607865478237"><ele>61.5</ele><time>2026-03-29T13:58:41.999Z</time></trkpt><trkpt lat="45.173764557501265" lon="9.72495391994012"><ele>61.0</ele><time>2026-03-29T13:58:42.999Z</time></trkpt><trkpt lat="45.17375786551192" lon="9.72528985643479"><ele>60.0</ele><time>2026-03-29T13:58:43.999Z</time></trkpt><trkpt lat="45.17375126083614" lon="9.72563328019124"><ele>59.0</ele><time>2026-03-29T13:58:44.999Z</time></trkpt><trkpt lat="45.17375005761874" lon="9.725963756740262"><ele>58.5</ele><time>2026-03-29T13:58:45.999Z</time></trkpt><trkpt lat="45.17375017872169" lon="9.726289844064558"><ele>58.0</ele><time>2026-03-29T13:58:46.999Z</time></trkpt><trkpt lat="45.173750976733864" lon="9.72661308381156"><ele>57.5</ele><time>2026-03-29T13:58:47.999Z</time></trkpt><trkpt lat="45.17375794124005" lon="9.726941173941444"><ele>57.0</ele><time>2026-03-29T13:58:48.999Z</time></trkpt><trkpt lat="45.17376548480432" lon="9.72726128152025"><ele>57.0</ele><time>2026-03-29T13:58:49.999Z</time></trkpt><trkpt lat="45.173770622694775" lon="9.727563652574595"><ele>57.0</ele><time>2026-03-29T13:58:50.999Z</time></trkpt><trkpt lat="45.17377775761761" lon="9.727844357274629"><ele>57.0</ele><time>2026-03-29T13:58:51.999Z</time></trkpt><trkpt lat="45.17377815553711" lon="9.728127060383521"><ele>57.33333333333333</ele><time>2026-03-29T13:58:52.999Z</time></trkpt><trkpt lat="45.17377638074233" lon="9.728410141936413"><ele>57.666666666666664</ele><time>2026-03-29T13:58:53.999Z</time></trkpt><trkpt lat="45.173776552331894" lon="9.728685798735855"><ele>58.0</ele><time>2026-03-29T13:58:54.999Z</time></trkpt><trkpt lat="45.173775214650306" lon="9.728942248853025"><ele>58.0</ele><time>2026-03-29T13:58:55.999Z</time></trkpt><trkpt lat="45.173775829024535" lon="9.729185847402782"><ele>58.0</ele><time>2026-03-29T13:58:56.999Z</time></trkpt><trkpt lat="45.17377871874067" lon="9.729408294366905"><ele>58.0</ele><time>2026-03-29T13:58:57.999Z</time></trkpt><trkpt lat="45.17377965269719" lon="9.729613280506987"><ele>58.0</ele><time>2026-03-29T13:58:58.999Z</time></trkpt><trkpt lat="45.17378005580781" lon="9.72978294888703"><ele>58.0</ele><time>2026-03-29T13:58:59.999Z</time></trkpt><trkpt lat="45.173776232572294" lon="9.72992451739629"><ele>58.0</ele><time>2026-03-29T13:59:00.999Z</time></trkpt><trkpt lat="45.17376825416751" lon="9.730040189173156"><ele>58.0</ele><time>2026-03-29T13:59:01.999Z</time></trkpt><trkpt lat="45.17374911650752" lon="9.730143592091293"><ele>58.0</ele><time>2026-03-29T13:59:02.999Z</time></trkpt><trkpt lat="45.17370040850553" lon="9.730239014758396"><ele>57.8</ele><time>2026-03-29T13:59:03.999Z</time></trkpt><trkpt lat="45.17364865994594" lon="9.730328907503626"><ele>57.599999999999994</ele><time>2026-03-29T13:59:04.999Z</time></trkpt><trkpt lat="45.173619120996364" lon="9.730446226966244"><ele>57.400000000000006</ele><time>2026-03-29T13:59:05.999Z</time></trkpt><trkpt lat="45.173639275955416" lon="9.730567741357547"><ele>57.2</ele><time>2026-03-29T13:59:06.999Z</time></trkpt><trkpt lat="45.17369929550103" lon="9.730706215012361"><ele>57.0</ele><time>2026-03-29T13:59:07.999Z</time></trkpt><trkpt lat="45.17376179859035" lon="9.730876665634861"><ele>57.0</ele><time>2026-03-29T13:59:08.999Z</time></trkpt><trkpt lat="45.17379864071578" lon="9.731093740834044"><ele>57.0</ele><time>2026-03-29T13:59:09.999Z</time></trkpt><trkpt lat="45.17381482741027" lon="9.73132942903607"><ele>57.0</ele><time>2026-03-29T13:59:10.999Z</time></trkpt><trkpt lat="45.17383830130082" lon="9.731603608366697"><ele>57.5</ele><time>2026-03-29T13:59:11.999Z</time></trkpt><trkpt lat="45.17386571897696" lon="9.731955277018885"><ele>58.0</ele><time>2026-03-29T13:59:12.999Z</time></trkpt><trkpt lat="45.17389392719388" lon="9.732353675226605"><ele>57.0</ele><time>2026-03-29T13:59:14Z</time></trkpt><trkpt lat="45.173911146094134" lon="9.732790576776734"><ele>56.0</ele><time>2026-03-29T13:59:15Z</time></trkpt><trkpt lat="45.173934772305145" lon="9.733199315098187"><ele>56.0</ele><time>2026-03-29T13:59:16Z</time></trkpt><trkpt lat="45.17395391454135" lon="9.73361710483561"><ele>56.0</ele><time>2026-03-29T13:59:17Z</time></trkpt><trkpt lat="45.17396850254493" lon="9.733981786740284"><ele>56.0</ele><time>2026-03-29T13:59:18Z</time></trkpt><trkpt lat="45.17399615109424" lon="9.73435028860951"><ele>56.0</ele><time>2026-03-29T13:59:19Z</time></trkpt><trkpt lat="45.17402264253158" lon="9.734731678566039"><ele>57.0</ele><time>2026-03-29T13:59:20Z</time></trkpt><trkpt lat="45.17404392470572" lon="9.735123592277219"><ele>58.0</ele><time>2026-03-29T13:59:21Z</time></trkpt><trkpt lat="45.17405454177159" lon="9.73550917502014"><ele>58.0</ele><time>2026-03-29T13:59:22Z</time></trkpt><trkpt lat="45.17406850177453" lon="9.73589012345391"><ele>58.0</ele><time>2026-03-29T13:59:23Z</time></trkpt><trkpt lat="45.17409099825223" lon="9.73626767015093"><ele>58.0</ele><time>2026-03-29T13:59:24Z</time></trkpt><trkpt lat="45.17411305675029" lon="9.736639842728945"><ele>58.0</ele><time>2026-03-29T13:59:25Z</time></trkpt><trkpt lat="45.174128660475766" lon="9.736966009163908"><ele>58.33333333333333</ele><time>2026-03-29T13:59:26Z</time></trkpt><trkpt lat="45.174143738741684" lon="9.73727404162977"><ele>58.66666666666667</ele><time>2026-03-29T13:59:27Z</time></trkpt><trkpt lat="45.17415707654906" lon="9.73758076712714"><ele>59.0</ele><time>2026-03-29T13:59:28Z</time></trkpt><trkpt lat="45.174182536708685" lon="9.7378994305496"><ele>59.0</ele><time>2026-03-29T13:59:29Z</time></trkpt><trkpt lat="45.174208115054334" lon="9.738250581034682"><ele>59.0</ele><time>2026-03-29T13:59:30Z</time></trkpt><trkpt lat="45.174223253362854" lon="9.738587287997277"><ele>59.5</ele><time>2026-03-29T13:59:31Z</time></trkpt><trkpt lat="45.17423883085713" lon="9.738915717641744"><ele>60.0</ele><time>2026-03-29T13:59:32Z</time></trkpt><trkpt lat="45.17425042485635" lon="9.73923795415437"><ele>59.5</ele><time>2026-03-29T13:59:33Z</time></trkpt><trkpt lat="45.17426604051213" lon="9.73960540830092"><ele>59.0</ele><time>2026-03-29T13:59:34Z</time></trkpt><trkpt lat="45.17428687939823" lon="9.739949298358725"><ele>58.0</ele><time>2026-03-29T13:59:35Z</time></trkpt><trkpt lat="45.17430560194951" lon="9.74029784779173"><ele>57.0</ele><time>2026-03-29T13:59:36Z</time></trkpt><trkpt lat="45.174322651871" lon="9.740653397518642"><ele>57.0</ele><time>2026-03-29T13:59:37Z</time></trkpt><trkpt lat="45.1743443213501" lon="9.741011552317232"><ele>57.0</ele><time>2026-03-29T13:59:38Z</time></trkpt><trkpt lat="45.17436636536407" lon="9.741366722329802"><ele>57.5</ele><time>2026-03-29T13:59:39Z</time></trkpt><trkpt lat="45.174382960307376" lon="9.741707712975595"><ele>58.0</ele><time>2026-03-29T13:59:40Z</time></trkpt><trkpt lat="45.174400437648785" lon="9.74204544564729"><ele>58.0</ele><time>2026-03-29T13:59:41Z</time></trkpt><trkpt lat="45.174416132782014" lon="9.74236821503592"><ele>58.0</ele><time>2026-03-29T13:59:42Z</time></trkpt><trkpt lat="45.174436511564856" lon="9.742696368183795"><ele>58.0</ele><time>2026-03-29T13:59:43Z</time></trkpt><trkpt lat="45.17445514586704" lon="9.743018958756124"><ele>58.0</ele><time>2026-03-29T13:59:44Z</time></trkpt><trkpt lat="45.17448181051702" lon="9.74334153455875"><ele>58.0</ele><time>2026-03-29T13:59:45Z</time></trkpt><trkpt lat="45.17450577383548" lon="9.743652645145293"><ele>58.0</ele><time>2026-03-29T13:59:46Z</time></trkpt><trkpt lat="45.1745662207535" lon="9.743964684932363"><ele>58.0</ele><time>2026-03-29T13:59:47Z</time></trkpt><trkpt lat="45.17462371943603" lon="9.74424405606436"><ele>57.666666666666664</ele><time>2026-03-29T13:59:48Z</time></trkpt><trkpt lat="45.17468688567453" lon="9.74451629195041"><ele>57.33333333333333</ele><time>2026-03-29T13:59:49Z</time></trkpt><trkpt lat="45.1747297837268" lon="9.744779613228179"><ele>57.0</ele><time>2026-03-29T13:59:50Z</time></trkpt><trkpt lat="45.17480761698786" lon="9.745034985536593"><ele>57.66666666666667</ele><time>2026-03-29T13:59:51Z</time></trkpt><trkpt lat="45.174870203992896" lon="9.745279522007426"><ele>58.333333333333336</ele><time>2026-03-29T13:59:52Z</time></trkpt><trkpt lat="45.174918447662094" lon="9.745490831676328"><ele>59.0</ele><time>2026-03-29T13:59:53Z</time></trkpt><trkpt lat="45.17497030596503" lon="9.74569185064824"><ele>59.0</ele><time>2026-03-29T13:59:54Z</time></trkpt><trkpt lat="45.175016947841634" lon="9.745879862978128"><ele>59.0</ele><time>2026-03-29T13:59:55Z</time></trkpt><trkpt lat="45.17505368232429" lon="9.74602800378144"><ele>59.0</ele><time>2026-03-29T13:59:56Z</time></trkpt><trkpt lat="45.17508641085372" lon="9.746203311545067"><ele>59.0</ele><time>2026-03-29T13:59:57Z</time></trkpt><trkpt lat="45.17512086345942" lon="9.746318757125557"><ele>58.833333333333336</ele><time>2026-03-29T13:59:58Z</time></trkpt><trkpt lat="45.17514015754615" lon="9.746437351113396"><ele>58.66666666666667</ele><time>2026-03-29T13:59:59Z</time></trkpt><trkpt lat="45.17512673592769" lon="9.746525282403077"><ele>58.5</ele><time>2026-03-29T14:00:00Z</time></trkpt><trkpt lat="45.1751317942682" lon="9.746625347239897"><ele>58.33333333333333</ele><time>2026-03-29T14:00:01Z</time></trkpt><trkpt lat="45.17508752690953" lon="9.746720646413888"><ele>58.166666666666664</ele><time>2026-03-29T14:00:02Z</time></trkpt><trkpt lat="45.17501018207447" lon="9.74681278944173"><ele>58.0</ele><time>2026-03-29T14:00:03Z</time></trkpt><trkpt lat="45.174903603144806" lon="9.74688434261567"><ele>57.666666666666664</ele><time>2026-03-29T14:00:04Z</time></trkpt><trkpt lat="45.17476273893125" lon="9.74694380189718"><ele>57.33333333333333</ele><time>2026-03-29T14:00:05Z</time></trkpt><trkpt lat="45.17460037220329" lon="9.746989035323438"><ele>57.0</ele><time>2026-03-29T14:00:06Z</time></trkpt><trkpt lat="45.17444227347319" lon="9.747032301657915"><ele>57.0</ele><time>2026-03-29T14:00:07Z</time></trkpt><trkpt lat="45.17426979430889" lon="9.747085166652218"><ele>57.0</ele><time>2026-03-29T14:00:08Z</time></trkpt><trkpt lat="45.1740949817432" lon="9.74713785202849"><ele>57.0</ele><time>2026-03-29T14:00:09Z</time></trkpt><trkpt lat="45.17392121269694" lon="9.747202895484774"><ele>57.33333333333333</ele><time>2026-03-29T14:00:10Z</time></trkpt><trkpt lat="45.173747815105415" lon="9.747262842146933"><ele>57.666666666666664</ele><time>2026-03-29T14:00:11Z</time></trkpt><trkpt lat="45.173574555862324" lon="9.747339774942533"><ele>58.0</ele><time>2026-03-29T14:00:12Z</time></trkpt><trkpt lat="45.173392043117005" lon="9.747452458477495"><ele>58.0</ele><time>2026-03-29T14:00:12.999Z</time></trkpt><trkpt lat="45.17321481594353" lon="9.747536403047624"><ele>58.0</ele><time>2026-03-29T14:00:13.999Z</time></trkpt><trkpt lat="45.173035175398915" lon="9.747633275506974"><ele>58.0</ele><time>2026-03-29T14:00:14.999Z</time></trkpt><trkpt lat="45.17285070374698" lon="9.747733364282192"><ele>58.0</ele><time>2026-03-29T14:00:15.999Z</time></trkpt><trkpt lat="45.17266382550731" lon="9.747849313478204"><ele>58.0</ele><time>2026-03-29T14:00:16.999Z</time></trkpt><trkpt lat="45.17248792938042" lon="9.747958146860531"><ele>58.0</ele><time>2026-03-29T14:00:17.999Z</time></trkpt><trkpt lat="45.17232336787772" lon="9.748068215529251"><ele>57.666666666666664</ele><time>2026-03-29T14:00:18.999Z</time></trkpt><trkpt lat="45.17217153081085" lon="9.748172995997072"><ele>57.33333333333333</ele><time>2026-03-29T14:00:19.999Z</time></trkpt><trkpt lat="45.17201597413716" lon="9.748292566023489"><ele>57.0</ele><time>2026-03-29T14:00:20.999Z</time></trkpt><trkpt lat="45.17185944816074" lon="9.748419294306364"><ele>57.0</ele><time>2026-03-29T14:00:21.999Z</time></trkpt><trkpt lat="45.17169247958666" lon="9.748561536140155"><ele>57.0</ele><time>2026-03-29T14:00:22.999Z</time></trkpt><trkpt lat="45.17152499893282" lon="9.748705527527862"><ele>57.0</ele><time>2026-03-29T14:00:23.999Z</time></trkpt><trkpt lat="45.17136184947994" lon="9.7488544014205"><ele>56.66666666666667</ele><time>2026-03-29T14:00:24.999Z</time></trkpt><trkpt lat="45.17119972300565" lon="9.749011489537311"><ele>56.333333333333336</ele><time>2026-03-29T14:00:25.999Z</time></trkpt><trkpt lat="45.17103927121019" lon="9.749171486561728"><ele>56.0</ele><time>2026-03-29T14:00:26.999Z</time></trkpt><trkpt lat="45.17087968028127" lon="9.749337755941571"><ele>56.0</ele><time>2026-03-29T14:00:27.999Z</time></trkpt><trkpt lat="45.17073217538819" lon="9.749498371345046"><ele>56.0</ele><time>2026-03-29T14:00:28.999Z</time></trkpt><trkpt lat="45.1705603728004" lon="9.749685670557612"><ele>56.0</ele><time>2026-03-29T14:00:29.999Z</time></trkpt><trkpt lat="45.17038961644704" lon="9.749895185266423"><ele>56.0</ele><time>2026-03-29T14:00:30.999Z</time></trkpt><trkpt lat="45.17023741699097" lon="9.750100969844366"><ele>56.0</ele><time>2026-03-29T14:00:31.999Z</time></trkpt><trkpt lat="45.1700739850681" lon="9.750307692266086"><ele>56.0</ele><time>2026-03-29T14:00:32.999Z</time></trkpt><trkpt lat="45.169907234266624" lon="9.750550618020961"><ele>56.5</ele><time>2026-03-29T14:00:33.999Z</time></trkpt><trkpt lat="45.16973405086588" lon="9.750804112694855"><ele>57.0</ele><time>2026-03-29T14:00:34.999Z</time></trkpt><trkpt lat="45.16958655440065" lon="9.751030935638237"><ele>57.66666666666667</ele><time>2026-03-29T14:00:35.999Z</time></trkpt><trkpt lat="45.169451820446525" lon="9.751248605051245"><ele>58.333333333333336</ele><time>2026-03-29T14:00:36.999Z</time></trkpt><trkpt lat="45.16930852028097" lon="9.75145320347204"><ele>59.0</ele><time>2026-03-29T14:00:37.999Z</time></trkpt><trkpt lat="45.16916740356203" lon="9.751671663928962"><ele>59.0</ele><time>2026-03-29T14:00:38.999Z</time></trkpt><trkpt lat="45.169017148483874" lon="9.75189561887024"><ele>59.0</ele><time>2026-03-29T14:00:39.999Z</time></trkpt><trkpt lat="45.16887462476777" lon="9.752122943402997"><ele>59.0</ele><time>2026-03-29T14:00:40.999Z</time></trkpt><trkpt lat="45.1687345789826" lon="9.752346306689857"><ele>59.0</ele><time>2026-03-29T14:00:41.999Z</time></trkpt><trkpt lat="45.16858819699486" lon="9.75257068001769"><ele>59.0</ele><time>2026-03-29T14:00:42.999Z</time></trkpt><trkpt lat="45.16844160702356" lon="9.752802116752417"><ele>59.0</ele><time>2026-03-29T14:00:43.999Z</time></trkpt><trkpt lat="45.16830714621809" lon="9.753000235312818"><ele>58.333333333333336</ele><time>2026-03-29T14:00:44.999Z</time></trkpt><trkpt lat="45.16816698666767" lon="9.75321242315958"><ele>57.66666666666667</ele><time>2026-03-29T14:00:45.999Z</time></trkpt><trkpt lat="45.16802368519259" lon="9.753426506899457"><ele>57.0</ele><time>2026-03-29T14:00:46.999Z</time></trkpt><trkpt lat="45.16786130011874" lon="9.75365730427883"><ele>57.0</ele><time>2026-03-29T14:00:47.999Z</time></trkpt><trkpt lat="45.167741337954205" lon="9.753873628840044"><ele>57.0</ele><time>2026-03-29T14:00:48.999Z</time></trkpt><trkpt lat="45.167599970286865" lon="9.754083397487541"><ele>57.0</ele><time>2026-03-29T14:00:49.999Z</time></trkpt><trkpt lat="45.167469412066374" lon="9.754288635461846"><ele>57.0</ele><time>2026-03-29T14:00:50.999Z</time></trkpt><trkpt lat="45.167342481027916" lon="9.754477194546961"><ele>57.0</ele><time>2026-03-29T14:00:51.999Z</time></trkpt><trkpt lat="45.167228038715066" lon="9.754652276834179"><ele>57.0</ele><time>2026-03-29T14:00:52.999Z</time></trkpt><trkpt lat="45.16711151765792" lon="9.75483366855219"><ele>57.0</ele><time>2026-03-29T14:00:53.999Z</time></trkpt><trkpt lat="45.16698725184756" lon="9.754990081261196"><ele>57.0</ele><time>2026-03-29T14:00:54.999Z</time></trkpt><trkpt lat="45.16687916798027" lon="9.755169832865946"><ele>57.0</ele><time>2026-03-29T14:00:55.999Z</time></trkpt><trkpt lat="45.16679023270083" lon="9.755305265427648"><ele>56.75</ele><time>2026-03-29T14:00:56.999Z</time></trkpt><trkpt lat="45.16670142185479" lon="9.755453144677608"><ele>56.5</ele><time>2026-03-29T14:00:57.999Z</time></trkpt><trkpt lat="45.16659999480966" lon="9.755601008849846"><ele>56.25</ele><time>2026-03-29T14:00:58.999Z</time></trkpt><trkpt lat="45.16650274946177" lon="9.755755344564873"><ele>56.0</ele><time>2026-03-29T14:00:59.999Z</time></trkpt><trkpt lat="45.16639384672885" lon="9.755895923458255"><ele>56.199999999999996</ele><time>2026-03-29T14:01:00.999Z</time></trkpt><trkpt lat="45.16632347284502" lon="9.756037733557973"><ele>56.39999999999999</ele><time>2026-03-29T14:01:01.999Z</time></trkpt><trkpt lat="45.16624777880956" lon="9.75615258839625"><ele>56.6</ele><time>2026-03-29T14:01:02.999Z</time></trkpt><trkpt lat="45.16616614668037" lon="9.756253321495134"><ele>56.8</ele><time>2026-03-29T14:01:03.999Z</time></trkpt><trkpt lat="45.16609163589491" lon="9.75633851674485"><ele>57.0</ele><time>2026-03-29T14:01:04.999Z</time></trkpt><trkpt lat="45.16602753214911" lon="9.756386057902567"><ele>57.0</ele><time>2026-03-29T14:01:05.999Z</time></trkpt><trkpt lat="45.16594185562028" lon="9.756419781207608"><ele>57.0</ele><time>2026-03-29T14:01:07.999Z</time></trkpt><trkpt lat="45.165844725375116" lon="9.756446130253499"><ele>57.0</ele><time>2026-03-29T14:01:09.999Z</time></trkpt><trkpt lat="45.165745254480036" lon="9.75646207951612"><ele>57.0</ele><time>2026-03-29T14:01:10.999Z</time></trkpt><trkpt lat="45.165643679523825" lon="9.756492956764594"><ele>57.0</ele><time>2026-03-29T14:01:11.999Z</time></trkpt><trkpt lat="45.165566497754895" lon="9.756562524635488"><ele>56.8</ele><time>2026-03-29T14:01:12.999Z</time></trkpt><trkpt lat="45.16551150789477" lon="9.756664175917209"><ele>56.6</ele><time>2026-03-29T14:01:13.999Z</time></trkpt><trkpt lat="45.16547696616783" lon="9.756785819302694"><ele>56.39999999999999</ele><time>2026-03-29T14:01:14.999Z</time></trkpt><trkpt lat="45.165437845634024" lon="9.75694217948432"><ele>56.199999999999996</ele><time>2026-03-29T14:01:15.999Z</time></trkpt><trkpt lat="45.165410880001254" lon="9.757135663245103"><ele>56.0</ele><time>2026-03-29T14:01:16.999Z</time></trkpt><trkpt lat="45.16539107840436" lon="9.757313500099036"><ele>56.0</ele><time>2026-03-29T14:01:17.999Z</time></trkpt><trkpt lat="45.165386853671016" lon="9.757499095767095"><ele>56.0</ele><time>2026-03-29T14:01:18.999Z</time></trkpt><trkpt lat="45.16524189602238" lon="9.75767150851138"><ele>56.0</ele><time>2026-03-29T14:01:20Z</time></trkpt><trkpt lat="45.16512017038134" lon="9.75783330134144"><ele>56.0</ele><time>2026-03-29T14:01:21Z</time></trkpt><trkpt lat="45.16501580279852" lon="9.75802817205374"><ele>56.0</ele><time>2026-03-29T14:01:22Z</time></trkpt><trkpt lat="45.1648873332005" lon="9.758214109738761"><ele>56.0</ele><time>2026-03-29T14:01:23Z</time></trkpt><trkpt lat="45.16475715583865" lon="9.758408530502296"><ele>56.0</ele><time>2026-03-29T14:01:24Z</time></trkpt><trkpt lat="45.16462295616756" lon="9.758597462068698"><ele>56.0</ele><time>2026-03-29T14:01:25Z</time></trkpt><trkpt lat="45.16449785124795" lon="9.758787092120036"><ele>56.0</ele><time>2026-03-29T14:01:26Z</time></trkpt><trkpt lat="45.164387476799305" lon="9.758973195914947"><ele>56.0</ele><time>2026-03-29T14:01:27Z</time></trkpt><trkpt lat="45.16427486651439" lon="9.759133602019988"><ele>56.0</ele><time>2026-03-29T14:01:28Z</time></trkpt><trkpt lat="45.164168093273105" lon="9.759291487577809"><ele>56.0</ele><time>2026-03-29T14:01:29Z</time></trkpt><trkpt lat="45.16406328953954" lon="9.759434994062284"><ele>55.75</ele><time>2026-03-29T14:01:30Z</time></trkpt><trkpt lat="45.16397328933895" lon="9.759559355196155"><ele>55.5</ele><time>2026-03-29T14:01:31Z</time></trkpt><trkpt lat="45.1638815642234" lon="9.759691824642868"><ele>55.25</ele><time>2026-03-29T14:01:32Z</time></trkpt><trkpt lat="45.163799161087816" lon="9.759785088997583"><ele>55.0</ele><time>2026-03-29T14:01:33Z</time></trkpt><trkpt lat="45.16371113761332" lon="9.759853475475403"><ele>55.0</ele><time>2026-03-29T14:01:34Z</time></trkpt><trkpt lat="45.163642439710436" lon="9.759894912606663"><ele>55.0</ele><time>2026-03-29T14:01:35Z</time></trkpt><trkpt lat="45.163517809350495" lon="9.759923483341089"><ele>55.0</ele><time>2026-03-29T14:01:37Z</time></trkpt><trkpt lat="45.16341686166833" lon="9.759727072395775"><ele>55.0</ele><time>2026-03-29T14:01:39Z</time></trkpt><trkpt lat="45.1633811838164" lon="9.759649287369879"><ele>55.0</ele><time>2026-03-29T14:01:40Z</time></trkpt><trkpt lat="45.163334970896855" lon="9.759455085755313"><ele>54.8</ele><time>2026-03-29T14:01:41Z</time></trkpt><trkpt lat="45.16327578390001" lon="9.759354400612596"><ele>54.6</ele><time>2026-03-29T14:01:42Z</time></trkpt><trkpt lat="45.163222101357626" lon="9.759208780658303"><ele>54.400000000000006</ele><time>2026-03-29T14:01:43Z</time></trkpt><trkpt lat="45.16317529397142" lon="9.75906129639667"><ele>54.2</ele><time>2026-03-29T14:01:44Z</time></trkpt><trkpt lat="45.16313124407322" lon="9.758923816283264"><ele>54.0</ele><time>2026-03-29T14:01:45Z</time></trkpt><trkpt lat="45.16308775387718" lon="9.758778585242434"><ele>53.833333333333336</ele><time>2026-03-29T14:01:46Z</time></trkpt><trkpt lat="45.16304533841428" lon="9.75865747119903"><ele>53.66666666666667</ele><time>2026-03-29T14:01:47Z</time></trkpt><trkpt lat="45.16301226482494" lon="9.758565266044647"><ele>53.5</ele><time>2026-03-29T14:01:48Z</time></trkpt><trkpt lat="45.162948555956504" lon="9.75840086158622"><ele>53.333333333333336</ele><time>2026-03-29T14:01:50Z</time></trkpt><trkpt lat="45.16291436057205" lon="9.75831799591546"><ele>53.16666666666667</ele><time>2026-03-29T14:01:51Z</time></trkpt><trkpt lat="45.16286294001527" lon="9.758228921099706"><ele>53.0</ele><time>2026-03-29T14:01:52Z</time></trkpt><trkpt lat="45.162800041225374" lon="9.758122888825989"><ele>53.0</ele><time>2026-03-29T14:01:53Z</time></trkpt><trkpt lat="45.162729345219475" lon="9.758004172229372"><ele>53.0</ele><time>2026-03-29T14:01:54Z</time></trkpt><trkpt lat="45.16264398562434" lon="9.757899530797184"><ele>53.0</ele><time>2026-03-29T14:01:55Z</time></trkpt><trkpt lat="45.16254762507102" lon="9.757793200517149"><ele>53.0</ele><time>2026-03-29T14:01:56Z</time></trkpt><trkpt lat="45.162435158366364" lon="9.75767997716916"><ele>53.333333333333336</ele><time>2026-03-29T14:01:57Z</time></trkpt><trkpt lat="45.162303819136284" lon="9.757573602008016"><ele>53.66666666666667</ele><time>2026-03-29T14:01:58Z</time></trkpt><trkpt lat="45.16216941733901" lon="9.757444743987099"><ele>54.0</ele><time>2026-03-29T14:01:59Z</time></trkpt><trkpt lat="45.16201971267947" lon="9.757377383295964"><ele>54.0</ele><time>2026-03-29T14:02:00Z</time></trkpt><trkpt lat="45.16186063209165" lon="9.757307190816405"><ele>54.0</ele><time>2026-03-29T14:02:01Z</time></trkpt><trkpt lat="45.1617192259502" lon="9.757200961181216"><ele>54.0</ele><time>2026-03-29T14:02:02Z</time></trkpt><trkpt lat="45.161537362852165" lon="9.757175691257633"><ele>54.0</ele><time>2026-03-29T14:02:03Z</time></trkpt><trkpt lat="45.16138531328382" lon="9.757138067418355"><ele>54.0</ele><time>2026-03-29T14:02:04Z</time></trkpt><trkpt lat="45.161237977175766" lon="9.75708098845524"><ele>54.0</ele><time>2026-03-29T14:02:05Z</time></trkpt><trkpt lat="45.16109439982115" lon="9.75701009954044"><ele>54.0</ele><time>2026-03-29T14:02:06Z</time></trkpt><trkpt lat="45.160920796936146" lon="9.7569431715441"><ele>54.0</ele><time>2026-03-29T14:02:07Z</time></trkpt><trkpt lat="45.1607637153133" lon="9.756885255898208"><ele>54.0</ele><time>2026-03-29T14:02:08Z</time></trkpt><trkpt lat="45.16060028553999" lon="9.75681868356086"><ele>54.66666666666667</ele><time>2026-03-29T14:02:09Z</time></trkpt><trkpt lat="45.16043845789568" lon="9.756745994113308"><ele>55.333333333333336</ele><time>2026-03-29T14:02:10Z</time></trkpt><trkpt lat="45.160278346477774" lon="9.756696518656172"><ele>56.0</ele><time>2026-03-29T14:02:11Z</time></trkpt><trkpt lat="45.16010359371857" lon="9.756649664134226"><ele>56.0</ele><time>2026-03-29T14:02:12Z</time></trkpt><trkpt lat="45.15992804501317" lon="9.756623149675208"><ele>56.0</ele><time>2026-03-29T14:02:13Z</time></trkpt><trkpt lat="45.159736861351625" lon="9.75663394057468"><ele>56.0</ele><time>2026-03-29T14:02:14Z</time></trkpt><trkpt lat="45.15955131844561" lon="9.75666990190838"><ele>55.66666666666667</ele><time>2026-03-29T14:02:15Z</time></trkpt><trkpt lat="45.159358448915185" lon="9.75672702235489"><ele>55.33333333333333</ele><time>2026-03-29T14:02:16Z</time></trkpt><trkpt lat="45.15915870976184" lon="9.75681269793261"><ele>55.0</ele><time>2026-03-29T14:02:17Z</time></trkpt><trkpt lat="45.15894764017353" lon="9.756886528340246"><ele>56.0</ele><time>2026-03-29T14:02:17.999Z</time></trkpt><trkpt lat="45.15872016565309" lon="9.756949773930286"><ele>57.0</ele><time>2026-03-29T14:02:18.999Z</time></trkpt><trkpt lat="45.15848414253168" lon="9.756991806521118"><ele>57.0</ele><time>2026-03-29T14:02:19.999Z</time></trkpt><trkpt lat="45.15824714005218" lon="9.757042541484113"><ele>57.0</ele><time>2026-03-29T14:02:20.999Z</time></trkpt><trkpt lat="45.15800860375839" lon="9.757105247348251"><ele>56.0</ele><time>2026-03-29T14:02:21.999Z</time></trkpt><trkpt lat="45.15776652808524" lon="9.757150971485776"><ele>55.0</ele><time>2026-03-29T14:02:22.999Z</time></trkpt><trkpt lat="45.15752554311179" lon="9.757207054542306"><ele>54.5</ele><time>2026-03-29T14:02:23.999Z</time></trkpt><trkpt lat="45.15728478101004" lon="9.75725529554214"><ele>54.0</ele><time>2026-03-29T14:02:24.999Z</time></trkpt><trkpt lat="45.15704758667816" lon="9.757301550878045"><ele>54.0</ele><time>2026-03-29T14:02:25.999Z</time></trkpt><trkpt lat="45.15681482448173" lon="9.757348825963001"><ele>54.0</ele><time>2026-03-29T14:02:26.999Z</time></trkpt><trkpt lat="45.15658651311284" lon="9.757396899942712"><ele>54.5</ele><time>2026-03-29T14:02:27.999Z</time></trkpt><trkpt lat="45.156359998845794" lon="9.757449262204053"><ele>55.0</ele><time>2026-03-29T14:02:28.999Z</time></trkpt><trkpt lat="45.1561394565128" lon="9.757516867851903"><ele>55.0</ele><time>2026-03-29T14:02:29.999Z</time></trkpt><trkpt lat="45.155928328899364" lon="9.757601365223207"><ele>55.0</ele><time>2026-03-29T14:02:30.999Z</time></trkpt><trkpt lat="45.155696657525596" lon="9.757714372900013"><ele>54.33333333333333</ele><time>2026-03-29T14:02:31.999Z</time></trkpt><trkpt lat="45.155490571720165" lon="9.757825934108363"><ele>53.66666666666667</ele><time>2026-03-29T14:02:32.999Z</time></trkpt><trkpt lat="45.155282581590825" lon="9.757923263872746"><ele>53.0</ele><time>2026-03-29T14:02:33.999Z</time></trkpt><trkpt lat="45.155060759024785" lon="9.758036872335172"><ele>53.333333333333336</ele><time>2026-03-29T14:02:34.999Z</time></trkpt><trkpt lat="45.154852263073636" lon="9.758140550524411"><ele>53.66666666666667</ele><time>2026-03-29T14:02:35.999Z</time></trkpt><trkpt lat="45.15464994800211" lon="9.758239148959104"><ele>54.0</ele><time>2026-03-29T14:02:36.999Z</time></trkpt><trkpt lat="45.154448801348764" lon="9.758339792537829"><ele>54.0</ele><time>2026-03-29T14:02:37.999Z</time></trkpt><trkpt lat="45.15425466853113" lon="9.75844090871091"><ele>54.0</ele><time>2026-03-29T14:02:38.999Z</time></trkpt><trkpt lat="45.154059936073125" lon="9.758537809665436"><ele>54.0</ele><time>2026-03-29T14:02:39.999Z</time></trkpt><trkpt lat="45.15387845888724" lon="9.758627929287524"><ele>54.33333333333333</ele><time>2026-03-29T14:02:40.999Z</time></trkpt><trkpt lat="45.15370332165578" lon="9.758693791364745"><ele>54.666666666666664</ele><time>2026-03-29T14:02:41.999Z</time></trkpt><trkpt lat="45.153516992890125" lon="9.758769523218978"><ele>55.0</ele><time>2026-03-29T14:02:42.999Z</time></trkpt><trkpt lat="45.15336546184619" lon="9.758798741363291"><ele>55.0</ele><time>2026-03-29T14:02:43.999Z</time></trkpt><trkpt lat="45.15322080945727" lon="9.758811301535694"><ele>55.0</ele><time>2026-03-29T14:02:44.999Z</time></trkpt><trkpt lat="45.15305965065695" lon="9.75881039804131"><ele>55.0</ele><time>2026-03-29T14:02:45.999Z</time></trkpt><trkpt lat="45.15289579270259" lon="9.758789275196914"><ele>54.33333333333333</ele><time>2026-03-29T14:02:46.999Z</time></trkpt><trkpt lat="45.15272875731125" lon="9.758735479457084"><ele>53.66666666666667</ele><time>2026-03-29T14:02:47.999Z</time></trkpt><trkpt lat="45.15256292396713" lon="9.758661579930576"><ele>53.0</ele><time>2026-03-29T14:02:48.999Z</time></trkpt><trkpt lat="45.15239137832033" lon="9.758570518653087"><ele>53.333333333333336</ele><time>2026-03-29T14:02:49.999Z</time></trkpt><trkpt lat="45.15221985030354" lon="9.758434404600006"><ele>53.66666666666667</ele><time>2026-03-29T14:02:50.999Z</time></trkpt><trkpt lat="45.15206004722407" lon="9.758267649245816"><ele>54.0</ele><time>2026-03-29T14:02:51.999Z</time></trkpt><trkpt lat="45.151881225659075" lon="9.758080278309537"><ele>54.0</ele><time>2026-03-29T14:02:52.999Z</time></trkpt><trkpt lat="45.15168879938906" lon="9.757875123180868"><ele>54.0</ele><time>2026-03-29T14:02:53.999Z</time></trkpt><trkpt lat="45.15148953771899" lon="9.757688485908764"><ele>54.0</ele><time>2026-03-29T14:02:54.999Z</time></trkpt><trkpt lat="45.15131057807775" lon="9.757490194983761"><ele>54.0</ele><time>2026-03-29T14:02:55.999Z</time></trkpt><trkpt lat="45.15114502068284" lon="9.75731549504817"><ele>54.0</ele><time>2026-03-29T14:02:56.999Z</time></trkpt><trkpt lat="45.15097598509484" lon="9.75712397741074"><ele>54.0</ele><time>2026-03-29T14:02:57.999Z</time></trkpt><trkpt lat="45.15082061581084" lon="9.75698145689838"><ele>54.0</ele><time>2026-03-29T14:02:58.999Z</time></trkpt><trkpt lat="45.1506619335294" lon="9.756828054784934"><ele>54.0</ele><time>2026-03-29T14:02:59.999Z</time></trkpt><trkpt lat="45.15054983955653" lon="9.756667239092378"><ele>53.66666666666667</ele><time>2026-03-29T14:03:00.999Z</time></trkpt><trkpt lat="45.150395903756824" lon="9.756678634651268"><ele>53.333333333333336</ele><time>2026-03-29T14:03:01.999Z</time></trkpt><trkpt lat="45.15022485708833" lon="9.756626142386724"><ele>53.0</ele><time>2026-03-29T14:03:02.999Z</time></trkpt><trkpt lat="45.15004442425501" lon="9.756600126747276"><ele>52.66666666666667</ele><time>2026-03-29T14:03:03.999Z</time></trkpt><trkpt lat="45.14986354484639" lon="9.756584856255268"><ele>52.33333333333333</ele><time>2026-03-29T14:03:04.999Z</time></trkpt><trkpt lat="45.14967013323772" lon="9.756627904659394"><ele>52.0</ele><time>2026-03-29T14:03:05.999Z</time></trkpt><trkpt lat="45.14948791102349" lon="9.756678276449765"><ele>52.0</ele><time>2026-03-29T14:03:06.999Z</time></trkpt><trkpt lat="45.14930768599641" lon="9.756735990487115"><ele>52.0</ele><time>2026-03-29T14:03:07.999Z</time></trkpt><trkpt lat="45.14913074358511" lon="9.756837569886518"><ele>52.0</ele><time>2026-03-29T14:03:08.999Z</time></trkpt><trkpt lat="45.148954043413504" lon="9.756967635550584"><ele>52.0</ele><time>2026-03-29T14:03:09.999Z</time></trkpt><trkpt lat="45.148766697492846" lon="9.757105890305759"><ele>52.0</ele><time>2026-03-29T14:03:10.999Z</time></trkpt><trkpt lat="45.14857086097958" lon="9.757247370430797"><ele>52.0</ele><time>2026-03-29T14:03:11.999Z</time></trkpt><trkpt lat="45.1483700868378" lon="9.757364689489606"><ele>52.33333333333333</ele><time>2026-03-29T14:03:12.999Z</time></trkpt><trkpt lat="45.14815968369959" lon="9.757465308973787"><ele>52.66666666666667</ele><time>2026-03-29T14:03:13.999Z</time></trkpt><trkpt lat="45.14794421737596" lon="9.757530448440582"><ele>53.0</ele><time>2026-03-29T14:03:14.999Z</time></trkpt><trkpt lat="45.14772416630045" lon="9.757581208316633"><ele>53.0</ele><time>2026-03-29T14:03:15.999Z</time></trkpt><trkpt lat="45.147493438790406" lon="9.757599546743215"><ele>53.0</ele><time>2026-03-29T14:03:16.999Z</time></trkpt><trkpt lat="45.147258233914144" lon="9.757618878531414"><ele>52.5</ele><time>2026-03-29T14:03:17.999Z</time></trkpt><trkpt lat="45.147012502431856" lon="9.75763125503771"><ele>52.0</ele><time>2026-03-29T14:03:18.999Z</time></trkpt><trkpt lat="45.14676199777612" lon="9.75764910580221"><ele>51.5</ele><time>2026-03-29T14:03:19.999Z</time></trkpt><trkpt lat="45.14650540536345" lon="9.757671968926868"><ele>51.0</ele><time>2026-03-29T14:03:20.999Z</time></trkpt><trkpt lat="45.146246623443446" lon="9.757685360980247"><ele>51.0</ele><time>2026-03-29T14:03:21.999Z</time></trkpt><trkpt lat="45.145979743952" lon="9.757677962516542"><ele>51.0</ele><time>2026-03-29T14:03:22.999Z</time></trkpt><trkpt lat="45.1457120524331" lon="9.75767455241567"><ele>51.0</ele><time>2026-03-29T14:03:23.999Z</time></trkpt><trkpt lat="45.145443322038844" lon="9.757665214210336"><ele>51.0</ele><time>2026-03-29T14:03:24.999Z</time></trkpt><trkpt lat="45.145174666827565" lon="9.757659955427895"><ele>51.0</ele><time>2026-03-29T14:03:26Z</time></trkpt><trkpt lat="45.14491217127978" lon="9.757658564155545"><ele>51.0</ele><time>2026-03-29T14:03:27Z</time></trkpt><trkpt lat="45.14465522161457" lon="9.757655787311672"><ele>51.5</ele><time>2026-03-29T14:03:28Z</time></trkpt><trkpt lat="45.144400903316026" lon="9.757645785556024"><ele>52.0</ele><time>2026-03-29T14:03:29Z</time></trkpt><trkpt lat="45.14415454472367" lon="9.757640491009282"><ele>52.0</ele><time>2026-03-29T14:03:30Z</time></trkpt><trkpt lat="45.14390865834013" lon="9.757638570625973"><ele>52.0</ele><time>2026-03-29T14:03:31Z</time></trkpt><trkpt lat="45.14367406200971" lon="9.757633444567574"><ele>52.0</ele><time>2026-03-29T14:03:32Z</time></trkpt><trkpt lat="45.14345185941423" lon="9.757632367260651"><ele>52.0</ele><time>2026-03-29T14:03:33Z</time></trkpt><trkpt lat="45.14323529738513" lon="9.757635848794951"><ele>52.0</ele><time>2026-03-29T14:03:34Z</time></trkpt><trkpt lat="45.14302153756561" lon="9.757661845312342"><ele>52.33333333333333</ele><time>2026-03-29T14:03:35Z</time></trkpt><trkpt lat="45.142813352079926" lon="9.757725620358464"><ele>52.66666666666667</ele><time>2026-03-29T14:03:36Z</time></trkpt><trkpt lat="45.14259730506058" lon="9.757804109645582"><ele>53.0</ele><time>2026-03-29T14:03:37Z</time></trkpt><trkpt lat="45.14238988177068" lon="9.757878477685429"><ele>53.0</ele><time>2026-03-29T14:03:38Z</time></trkpt><trkpt lat="45.14218577568999" lon="9.757945266562267"><ele>53.0</ele><time>2026-03-29T14:03:39Z</time></trkpt><trkpt lat="45.141980523677766" lon="9.757988980587504"><ele>53.0</ele><time>2026-03-29T14:03:40Z</time></trkpt><trkpt lat="45.141766329253976" lon="9.758005909919625"><ele>53.0</ele><time>2026-03-29T14:03:41Z</time></trkpt><trkpt lat="45.14155166607628" lon="9.758001282411689"><ele>53.0</ele><time>2026-03-29T14:03:42Z</time></trkpt><trkpt lat="45.14133748344073" lon="9.757975467857648"><ele>53.0</ele><time>2026-03-29T14:03:43Z</time></trkpt><trkpt lat="45.14112821849667" lon="9.757929354772893"><ele>52.5</ele><time>2026-03-29T14:03:44Z</time></trkpt><trkpt lat="45.1409104336931" lon="9.757863503996559"><ele>52.0</ele><time>2026-03-29T14:03:45Z</time></trkpt><trkpt lat="45.14068616139143" lon="9.757770042165424"><ele>51.5</ele><time>2026-03-29T14:03:46Z</time></trkpt><trkpt lat="45.14046267112242" lon="9.757670601226529"><ele>51.0</ele><time>2026-03-29T14:03:47Z</time></trkpt><trkpt lat="45.14024293572066" lon="9.757580072128368"><ele>51.0</ele><time>2026-03-29T14:03:48Z</time></trkpt><trkpt lat="45.14003345073896" lon="9.757468775176662"><ele>51.0</ele><time>2026-03-29T14:03:49Z</time></trkpt><trkpt lat="45.13982659031152" lon="9.757403858439918"><ele>51.0</ele><time>2026-03-29T14:03:50Z</time></trkpt><trkpt lat="45.139621515372184" lon="9.757312281987112"><ele>51.0</ele><time>2026-03-29T14:03:51Z</time></trkpt><trkpt lat="45.1394217337168" lon="9.757211435021304"><ele>51.0</ele><time>2026-03-29T14:03:52Z</time></trkpt><trkpt lat="45.139219891771326" lon="9.757091993190311"><ele>51.0</ele><time>2026-03-29T14:03:53Z</time></trkpt><trkpt lat="45.13901814608375" lon="9.756951831857238"><ele>52.0</ele><time>2026-03-29T14:03:54Z</time></trkpt><trkpt lat="45.138821682026155" lon="9.756792982974618"><ele>53.0</ele><time>2026-03-29T14:03:55Z</time></trkpt><trkpt lat="45.138624301469264" lon="9.756628953895135"><ele>53.0</ele><time>2026-03-29T14:03:56Z</time></trkpt><trkpt lat="45.138418619066" lon="9.756456447228677"><ele>53.0</ele><time>2026-03-29T14:03:57Z</time></trkpt><trkpt lat="45.13823877956731" lon="9.756275675303065"><ele>52.333333333333336</ele><time>2026-03-29T14:03:58Z</time></trkpt><trkpt lat="45.13808027508208" lon="9.756110678253144"><ele>51.66666666666667</ele><time>2026-03-29T14:03:59Z</time></trkpt><trkpt lat="45.13788310316912" lon="9.75597396704611"><ele>51.0</ele><time>2026-03-29T14:04:00Z</time></trkpt><trkpt lat="45.13770055537697" lon="9.755879720847354"><ele>51.0</ele><time>2026-03-29T14:04:01Z</time></trkpt><trkpt lat="45.13751550042074" lon="9.755794785893048"><ele>51.0</ele><time>2026-03-29T14:04:02Z</time></trkpt><trkpt lat="45.13734771888518" lon="9.755690627712854"><ele>51.0</ele><time>2026-03-29T14:04:03Z</time></trkpt><trkpt lat="45.137168462968404" lon="9.755649932026047"><ele>51.0</ele><time>2026-03-29T14:04:04Z</time></trkpt><trkpt lat="45.13694510986383" lon="9.755586451779855"><ele>51.0</ele><time>2026-03-29T14:04:05Z</time></trkpt><trkpt lat="45.13673542678922" lon="9.755557352395655"><ele>51.0</ele><time>2026-03-29T14:04:06Z</time></trkpt><trkpt lat="45.136500886917396" lon="9.755538524663013"><ele>50.66666666666667</ele><time>2026-03-29T14:04:07Z</time></trkpt><trkpt lat="45.13628716222725" lon="9.755530340665002"><ele>50.333333333333336</ele><time>2026-03-29T14:04:08Z</time></trkpt><trkpt lat="45.13605194991228" lon="9.755510466946248"><ele>50.0</ele><time>2026-03-29T14:04:09Z</time></trkpt><trkpt lat="45.13581687177377" lon="9.755489101361091"><ele>50.0</ele><time>2026-03-29T14:04:10Z</time></trkpt><trkpt lat="45.13557625920667" lon="9.755455963108695"><ele>50.0</ele><time>2026-03-29T14:04:11Z</time></trkpt><trkpt lat="45.13535133803058" lon="9.755434745274838"><ele>50.0</ele><time>2026-03-29T14:04:12Z</time></trkpt><trkpt lat="45.13512548954059" lon="9.755424345213534"><ele>50.0</ele><time>2026-03-29T14:04:13Z</time></trkpt><trkpt lat="45.13490657666015" lon="9.755407933171577"><ele>50.0</ele><time>2026-03-29T14:04:14Z</time></trkpt><trkpt lat="45.1346859349354" lon="9.75539220205733"><ele>50.333333333333336</ele><time>2026-03-29T14:04:15Z</time></trkpt><trkpt lat="45.13447205423575" lon="9.755374715042985"><ele>50.66666666666667</ele><time>2026-03-29T14:04:16Z</time></trkpt><trkpt lat="45.134257594259786" lon="9.755359201011778"><ele>51.0</ele><time>2026-03-29T14:04:17Z</time></trkpt><trkpt lat="45.13404449851731" lon="9.755348917541573"><ele>51.33333333333333</ele><time>2026-03-29T14:04:18Z</time></trkpt><trkpt lat="45.13383106789616" lon="9.755311866823028"><ele>51.666666666666664</ele><time>2026-03-29T14:04:19Z</time></trkpt><trkpt lat="45.133614571943724" lon="9.755292031089112"><ele>52.0</ele><time>2026-03-29T14:04:20Z</time></trkpt><trkpt lat="45.13347372021589" lon="9.75528830775015"><ele>52.0</ele><time>2026-03-29T14:04:21Z</time></trkpt><trkpt lat="45.13330825451985" lon="9.755272724241435"><ele>52.0</ele><time>2026-03-29T14:04:22Z</time></trkpt><trkpt lat="45.13314787579862" lon="9.755259526215665"><ele>52.0</ele><time>2026-03-29T14:04:23Z</time></trkpt><trkpt lat="45.13298878138593" lon="9.755248147334386"><ele>52.33333333333333</ele><time>2026-03-29T14:04:24Z</time></trkpt><trkpt lat="45.13282992002718" lon="9.75523483336328"><ele>52.66666666666667</ele><time>2026-03-29T14:04:25Z</time></trkpt><trkpt lat="45.13267182696702" lon="9.755224404508462"><ele>53.0</ele><time>2026-03-29T14:04:26Z</time></trkpt><trkpt lat="45.132513258501504" lon="9.755210404184776"><ele>52.0</ele><time>2026-03-29T14:04:27Z</time></trkpt><trkpt lat="45.132364681689424" lon="9.755201055531591"><ele>51.0</ele><time>2026-03-29T14:04:27.999Z</time></trkpt><trkpt lat="45.132220501745" lon="9.755189756278153"><ele>50.0</ele><time>2026-03-29T14:04:28.999Z</time></trkpt><trkpt lat="45.132091247219975" lon="9.755182501491532"><ele>49.0</ele><time>2026-03-29T14:04:29.999Z</time></trkpt><trkpt lat="45.13198264925091" lon="9.75517331475556"><ele>48.99999999999999</ele><time>2026-03-29T14:04:30.999Z</time></trkpt><trkpt lat="45.131891243378256" lon="9.755165978663861"><ele>49.0</ele><time>2026-03-29T14:04:31.999Z</time></trkpt><trkpt lat="45.13181198636412" lon="9.75515442869634"><ele>49.0</ele><time>2026-03-29T14:04:32.999Z</time></trkpt><trkpt lat="45.13172189324578" lon="9.755158073929522"><ele>49.0</ele><time>2026-03-29T14:04:33.999Z</time></trkpt><trkpt lat="45.131638032302675" lon="9.755146627776677"><ele>48.99999999999999</ele><time>2026-03-29T14:04:34.999Z</time></trkpt><trkpt lat="45.13157771717464" lon="9.755078016929309"><ele>49.0</ele><time>2026-03-29T14:04:35.999Z</time></trkpt><trkpt lat="45.131517696320294" lon="9.755003382139133"><ele>48.49999999999999</ele><time>2026-03-29T14:04:36.999Z</time></trkpt><trkpt lat="45.13144381989939" lon="9.754957339226262"><ele>48.0</ele><time>2026-03-29T14:04:37.999Z</time></trkpt><trkpt lat="45.13137428463325" lon="9.754938278293432"><ele>47.5</ele><time>2026-03-29T14:04:38.999Z</time></trkpt><trkpt lat="45.131288647931385" lon="9.754928258652228"><ele>47.0</ele><time>2026-03-29T14:04:39.999Z</time></trkpt><trkpt lat="45.13120037224683" lon="9.75501835364581"><ele>46.5</ele><time>2026-03-29T14:04:40.999Z</time></trkpt><trkpt lat="45.131117899041946" lon="9.755025237215822"><ele>46.0</ele><time>2026-03-29T14:04:41.999Z</time></trkpt><trkpt lat="45.13104194409358" lon="9.75498690851094"><ele>46.0</ele><time>2026-03-29T14:04:42.999Z</time></trkpt><trkpt lat="45.13097870613932" lon="9.754905246262163"><ele>46.0</ele><time>2026-03-29T14:04:43.999Z</time></trkpt><trkpt lat="45.13091859991286" lon="9.754773899075428"><ele>46.0</ele><time>2026-03-29T14:04:44.999Z</time></trkpt><trkpt lat="45.13086803778196" lon="9.754603339995231"><ele>46.0</ele><time>2026-03-29T14:04:45.999Z</time></trkpt><trkpt lat="45.13081629989748" lon="9.754446756917911"><ele>46.0</ele><time>2026-03-29T14:04:46.999Z</time></trkpt><trkpt lat="45.13074910314597" lon="9.754298962416572"><ele>45.75</ele><time>2026-03-29T14:04:47.999Z</time></trkpt><trkpt lat="45.130684871526725" lon="9.754145261362359"><ele>45.5</ele><time>2026-03-29T14:04:48.999Z</time></trkpt><trkpt lat="45.13060503672474" lon="9.753998905052374"><ele>45.25</ele><time>2026-03-29T14:04:49.999Z</time></trkpt><trkpt lat="45.13052964384369" lon="9.753866187361668"><ele>45.0</ele><time>2026-03-29T14:04:50.999Z</time></trkpt><trkpt lat="45.13045778280033" lon="9.753746240271054"><ele>45.0</ele><time>2026-03-29T14:04:51.999Z</time></trkpt><trkpt lat="45.13032875297532" lon="9.75361463913852"><ele>45.0</ele><time>2026-03-29T14:04:52.999Z</time></trkpt><trkpt lat="45.13023604228256" lon="9.753460234319533"><ele>45.0</ele><time>2026-03-29T14:04:53.999Z</time></trkpt><trkpt lat="45.130146510506286" lon="9.753295530512888"><ele>45.0</ele><time>2026-03-29T14:04:54.999Z</time></trkpt><trkpt lat="45.130039858394355" lon="9.753149631092482"><ele>45.333333333333336</ele><time>2026-03-29T14:04:55.999Z</time></trkpt><trkpt lat="45.12991290402373" lon="9.752982596183747"><ele>45.66666666666667</ele><time>2026-03-29T14:04:56.999Z</time></trkpt><trkpt lat="45.129778105118355" lon="9.752858835571422"><ele>46.0</ele><time>2026-03-29T14:04:57.999Z</time></trkpt><trkpt lat="45.1296167622374" lon="9.752707452896482"><ele>46.333333333333336</ele><time>2026-03-29T14:04:58.999Z</time></trkpt><trkpt lat="45.12945844503823" lon="9.752578860049947"><ele>46.666666666666664</ele><time>2026-03-29T14:04:59.999Z</time></trkpt><trkpt lat="45.12926215680142" lon="9.75246318863363"><ele>47.0</ele><time>2026-03-29T14:05:00.999Z</time></trkpt><trkpt lat="45.12907982305856" lon="9.752336127582687"><ele>45.0</ele><time>2026-03-29T14:05:01.999Z</time></trkpt><trkpt lat="45.12889664000966" lon="9.752204637606916"><ele>43.0</ele><time>2026-03-29T14:05:02.999Z</time></trkpt><trkpt lat="45.12871352590562" lon="9.75208108094639"><ele>41.0</ele><time>2026-03-29T14:05:03.999Z</time></trkpt><trkpt lat="45.12853171666851" lon="9.751940982957219"><ele>42.0</ele><time>2026-03-29T14:05:04.999Z</time></trkpt><trkpt lat="45.12835288440533" lon="9.751822627173159"><ele>43.0</ele><time>2026-03-29T14:05:05.999Z</time></trkpt><trkpt lat="45.128176723544996" lon="9.751697166398554"><ele>44.0</ele><time>2026-03-29T14:05:06.999Z</time></trkpt><trkpt lat="45.12799912619091" lon="9.751568921439421"><ele>44.33333333333333</ele><time>2026-03-29T14:05:07.999Z</time></trkpt><trkpt lat="45.1278267845006" lon="9.75144735881447"><ele>44.666666666666664</ele><time>2026-03-29T14:05:08.999Z</time></trkpt><trkpt lat="45.127647549865145" lon="9.751343686846434"><ele>45.0</ele><time>2026-03-29T14:05:09.999Z</time></trkpt><trkpt lat="45.12745910730383" lon="9.751279541245198"><ele>44.333333333333336</ele><time>2026-03-29T14:05:10.999Z</time></trkpt><trkpt lat="45.12727874546934" lon="9.751234043360764"><ele>43.66666666666667</ele><time>2026-03-29T14:05:11.999Z</time></trkpt><trkpt lat="45.12708572110959" lon="9.751186033322048"><ele>43.0</ele><time>2026-03-29T14:05:12.999Z</time></trkpt><trkpt lat="45.126872254642" lon="9.751125062847882"><ele>43.0</ele><time>2026-03-29T14:05:13.999Z</time></trkpt><trkpt lat="45.12669627373275" lon="9.751084436836527"><ele>43.0</ele><time>2026-03-29T14:05:14.999Z</time></trkpt><trkpt lat="45.12650067527721" lon="9.75103562191328"><ele>43.0</ele><time>2026-03-29T14:05:15.999Z</time></trkpt><trkpt lat="45.12631857601972" lon="9.750990449485208"><ele>43.333333333333336</ele><time>2026-03-29T14:05:16.999Z</time></trkpt><trkpt lat="45.12611565573204" lon="9.750959004779567"><ele>43.666666666666664</ele><time>2026-03-29T14:05:17.999Z</time></trkpt><trkpt lat="45.12591555908018" lon="9.75094105877105"><ele>44.0</ele><time>2026-03-29T14:05:18.999Z</time></trkpt><trkpt lat="45.12571016397088" lon="9.750934427476103"><ele>44.0</ele><time>2026-03-29T14:05:19.999Z</time></trkpt><trkpt lat="45.12550403606333" lon="9.75093450681907"><ele>44.0</ele><time>2026-03-29T14:05:20.999Z</time></trkpt><trkpt lat="45.12530009623599" lon="9.750943371353117"><ele>44.0</ele><time>2026-03-29T14:05:21.999Z</time></trkpt><trkpt lat="45.125088920798646" lon="9.750962029975925"><ele>44.0</ele><time>2026-03-29T14:05:22.999Z</time></trkpt><trkpt lat="45.124876589911175" lon="9.75098158183001"><ele>44.0</ele><time>2026-03-29T14:05:23.999Z</time></trkpt><trkpt lat="45.12467403489943" lon="9.750993924750972"><ele>44.0</ele><time>2026-03-29T14:05:24.999Z</time></trkpt><trkpt lat="45.12446833486007" lon="9.751015470241285"><ele>44.0</ele><time>2026-03-29T14:05:25.999Z</time></trkpt><trkpt lat="45.12427523591598" lon="9.751039160594921"><ele>44.0</ele><time>2026-03-29T14:05:26.999Z</time></trkpt><trkpt lat="45.124091284429774" lon="9.75104569864422"><ele>44.0</ele><time>2026-03-29T14:05:27.999Z</time></trkpt><trkpt lat="45.12392332337523" lon="9.751044578731255"><ele>44.75</ele><time>2026-03-29T14:05:28.999Z</time></trkpt><trkpt lat="45.12376334738359" lon="9.751023530359763"><ele>45.5</ele><time>2026-03-29T14:05:29.999Z</time></trkpt><trkpt lat="45.12363476593263" lon="9.75101331893181"><ele>46.25</ele><time>2026-03-29T14:05:30.999Z</time></trkpt><trkpt lat="45.1234878741306" lon="9.751007083804026"><ele>47.0</ele><time>2026-03-29T14:05:32Z</time></trkpt><trkpt lat="45.123337303924" lon="9.750969604936364"><ele>46.33333333333333</ele><time>2026-03-29T14:05:33Z</time></trkpt><trkpt lat="45.123142068812285" lon="9.750943860005105"><ele>45.666666666666664</ele><time>2026-03-29T14:05:34Z</time></trkpt><trkpt lat="45.12300314337008" lon="9.750849630302648"><ele>45.0</ele><time>2026-03-29T14:05:35Z</time></trkpt><trkpt lat="45.12288496606929" lon="9.750741986568926"><ele>45.0</ele><time>2026-03-29T14:05:36Z</time></trkpt><trkpt lat="45.12276938456009" lon="9.750629709883883"><ele>45.0</ele><time>2026-03-29T14:05:37Z</time></trkpt><trkpt lat="45.12265645017038" lon="9.750536387317494"><ele>45.0</ele><time>2026-03-29T14:05:38Z</time></trkpt><trkpt lat="45.12257203080664" lon="9.750424046410703"><ele>45.0</ele><time>2026-03-29T14:05:39Z</time></trkpt><trkpt lat="45.122501353708614" lon="9.750322420514486"><ele>45.0</ele><time>2026-03-29T14:05:40Z</time></trkpt><trkpt lat="45.122451117572126" lon="9.75021709733106"><ele>45.0</ele><time>2026-03-29T14:05:41Z</time></trkpt><trkpt lat="45.12241802732623" lon="9.750106402945372"><ele>45.0</ele><time>2026-03-29T14:05:42Z</time></trkpt><trkpt lat="45.122390087707636" lon="9.750003217953907"><ele>45.0</ele><time>2026-03-29T14:05:43Z</time></trkpt><trkpt lat="45.122294542055165" lon="9.7498757953739"><ele>45.0</ele><time>2026-03-29T14:05:45Z</time></trkpt><trkpt lat="45.122216927333675" lon="9.749888142963883"><ele>44.5</ele><time>2026-03-29T14:05:46Z</time></trkpt><trkpt lat="45.12215303065868" lon="9.749952568732363"><ele>44.0</ele><time>2026-03-29T14:05:47Z</time></trkpt><trkpt lat="45.12206893947463" lon="9.750162412775353"><ele>43.5</ele><time>2026-03-29T14:05:49Z</time></trkpt><trkpt lat="45.1220830767908" lon="9.75031732156509"><ele>43.0</ele><time>2026-03-29T14:05:50Z</time></trkpt><trkpt lat="45.12204093566057" lon="9.750499480015176"><ele>42.5</ele><time>2026-03-29T14:05:51Z</time></trkpt><trkpt lat="45.121976087364395" lon="9.750658516386121"><ele>42.0</ele><time>2026-03-29T14:05:52Z</time></trkpt><trkpt lat="45.12188314915398" lon="9.750820414480451"><ele>41.5</ele><time>2026-03-29T14:05:53Z</time></trkpt><trkpt lat="45.121794670134044" lon="9.750978068410538"><ele>41.0</ele><time>2026-03-29T14:05:54Z</time></trkpt><trkpt lat="45.12169338524639" lon="9.751150442809763"><ele>41.0</ele><time>2026-03-29T14:05:55Z</time></trkpt><trkpt lat="45.12159709890363" lon="9.751317312756289"><ele>41.0</ele><time>2026-03-29T14:05:56Z</time></trkpt><trkpt lat="45.121503619329005" lon="9.751479656165628"><ele>41.0</ele><time>2026-03-29T14:05:57Z</time></trkpt><trkpt lat="45.121415808435344" lon="9.751634317901662"><ele>41.0</ele><time>2026-03-29T14:05:58Z</time></trkpt><trkpt lat="45.121328721058475" lon="9.75178351791889"><ele>41.25</ele><time>2026-03-29T14:05:59Z</time></trkpt><trkpt lat="45.121238707068244" lon="9.751939543762116"><ele>41.5</ele><time>2026-03-29T14:06:00Z</time></trkpt><trkpt lat="45.12115128874945" lon="9.75210059106018"><ele>41.75</ele><time>2026-03-29T14:06:01Z</time></trkpt><trkpt lat="45.12106030910955" lon="9.75226314777846"><ele>42.0</ele><time>2026-03-29T14:06:02Z</time></trkpt><trkpt lat="45.12096862801405" lon="9.75242540656612"><ele>42.0</ele><time>2026-03-29T14:06:03Z</time></trkpt><trkpt lat="45.120871129694265" lon="9.752598997561572"><ele>42.0</ele><time>2026-03-29T14:06:04Z</time></trkpt><trkpt lat="45.12077083575766" lon="9.752780849433845"><ele>42.0</ele><time>2026-03-29T14:06:05Z</time></trkpt><trkpt lat="45.1206738564374" lon="9.75296182133505"><ele>41.333333333333336</ele><time>2026-03-29T14:06:06Z</time></trkpt><trkpt lat="45.12057248909314" lon="9.7531483955484"><ele>40.66666666666667</ele><time>2026-03-29T14:06:07Z</time></trkpt><trkpt lat="45.12047733809969" lon="9.753284590734886"><ele>40.0</ele><time>2026-03-29T14:06:08Z</time></trkpt><trkpt lat="45.12041253890549" lon="9.753487780190236"><ele>40.0</ele><time>2026-03-29T14:06:09Z</time></trkpt><trkpt lat="45.120330384654025" lon="9.753663829946113"><ele>40.0</ele><time>2026-03-29T14:06:10Z</time></trkpt><trkpt lat="45.12025041321023" lon="9.753838649133204"><ele>40.0</ele><time>2026-03-29T14:06:11Z</time></trkpt><trkpt lat="45.12016996701817" lon="9.754017260854681"><ele>40.0</ele><time>2026-03-29T14:06:12Z</time></trkpt><trkpt lat="45.12008783727841" lon="9.754192612282262"><ele>40.0</ele><time>2026-03-29T14:06:13Z</time></trkpt><trkpt lat="45.12000942014605" lon="9.754368684882628"><ele>40.0</ele><time>2026-03-29T14:06:14Z</time></trkpt><trkpt lat="45.11993993315441" lon="9.75453930302325"><ele>40.0</ele><time>2026-03-29T14:06:15Z</time></trkpt><trkpt lat="45.11986045473205" lon="9.754707568310515"><ele>40.0</ele><time>2026-03-29T14:06:16Z</time></trkpt><trkpt lat="45.11979988233437" lon="9.754862508925052"><ele>40.0</ele><time>2026-03-29T14:06:17Z</time></trkpt><trkpt lat="45.119740480081624" lon="9.754989893377374"><ele>40.0</ele><time>2026-03-29T14:06:18Z</time></trkpt><trkpt lat="45.11968244375192" lon="9.755122400151949"><ele>40.0</ele><time>2026-03-29T14:06:19Z</time></trkpt><trkpt lat="45.11962849534551" lon="9.755238877203665"><ele>40.0</ele><time>2026-03-29T14:06:20Z</time></trkpt><trkpt lat="45.119577662347986" lon="9.755338631295677"><ele>40.0</ele><time>2026-03-29T14:06:21Z</time></trkpt><trkpt lat="45.119517198874625" lon="9.755417466727433"><ele>40.5</ele><time>2026-03-29T14:06:22Z</time></trkpt><trkpt lat="45.11943961265319" lon="9.755477438257362"><ele>41.0</ele><time>2026-03-29T14:06:23Z</time></trkpt><trkpt lat="45.11933510139993" lon="9.755537709453723"><ele>41.5</ele><time>2026-03-29T14:06:24Z</time></trkpt><trkpt lat="45.119215089377015" lon="9.755608671403802"><ele>42.0</ele><time>2026-03-29T14:06:25Z</time></trkpt><trkpt lat="45.119101874125825" lon="9.75566723876249"><ele>42.0</ele><time>2026-03-29T14:06:26Z</time></trkpt><trkpt lat="45.11898786593037" lon="9.75577812472878"><ele>42.0</ele><time>2026-03-29T14:06:27Z</time></trkpt><trkpt lat="45.118867451984606" lon="9.755889752172305"><ele>42.0</ele><time>2026-03-29T14:06:28Z</time></trkpt><trkpt lat="45.118758213808974" lon="9.756024269497729"><ele>42.0</ele><time>2026-03-29T14:06:29Z</time></trkpt><trkpt lat="45.11865236955195" lon="9.756181054385621"><ele>42.0</ele><time>2026-03-29T14:06:30Z</time></trkpt><trkpt lat="45.11854249775851" lon="9.756323851544785"><ele>42.0</ele><time>2026-03-29T14:06:31Z</time></trkpt><trkpt lat="45.118437807093486" lon="9.756454330281048"><ele>42.0</ele><time>2026-03-29T14:06:32Z</time></trkpt><trkpt lat="45.118349050874805" lon="9.75658410085529"><ele>42.0</ele><time>2026-03-29T14:06:33Z</time></trkpt><trkpt lat="45.118258190910794" lon="9.756695861314189"><ele>42.0</ele><time>2026-03-29T14:06:34Z</time></trkpt><trkpt lat="45.11817536359672" lon="9.756797089293212"><ele>42.0</ele><time>2026-03-29T14:06:35Z</time></trkpt><trkpt lat="45.118099173436676" lon="9.756893859517024"><ele>42.0</ele><time>2026-03-29T14:06:36Z</time></trkpt><trkpt lat="45.11801169325447" lon="9.756959874423705"><ele>42.0</ele><time>2026-03-29T14:06:37Z</time></trkpt><trkpt lat="45.11791662040489" lon="9.757024072151903"><ele>42.0</ele><time>2026-03-29T14:06:38Z</time></trkpt><trkpt lat="45.11782583505303" lon="9.757016268390878"><ele>42.0</ele><time>2026-03-29T14:06:38.999Z</time></trkpt><trkpt lat="45.11771648546417" lon="9.757025542119518"><ele>42.0</ele><time>2026-03-29T14:06:39.999Z</time></trkpt><trkpt lat="45.117586557744445" lon="9.756989735123808"><ele>42.0</ele><time>2026-03-29T14:06:40.999Z</time></trkpt><trkpt lat="45.117447103813916" lon="9.756959856959897"><ele>42.0</ele><time>2026-03-29T14:06:41.999Z</time></trkpt><trkpt lat="45.11728475225639" lon="9.756902959490843"><ele>42.0</ele><time>2026-03-29T14:06:42.999Z</time></trkpt><trkpt lat="45.117161063776805" lon="9.756879855285323"><ele>42.0</ele><time>2026-03-29T14:06:43.999Z</time></trkpt><trkpt lat="45.1170092677248" lon="9.756873088788193"><ele>42.0</ele><time>2026-03-29T14:06:44.999Z</time></trkpt><trkpt lat="45.116864570936556" lon="9.756837947765382"><ele>42.0</ele><time>2026-03-29T14:06:45.999Z</time></trkpt><trkpt lat="45.11672413412921" lon="9.756821490573925"><ele>42.333333333333336</ele><time>2026-03-29T14:06:46.999Z</time></trkpt><trkpt lat="45.11658857977587" lon="9.756835968763639"><ele>42.66666666666667</ele><time>2026-03-29T14:06:47.999Z</time></trkpt><trkpt lat="45.11642478752298" lon="9.756903956234952"><ele>43.0</ele><time>2026-03-29T14:06:48.999Z</time></trkpt><trkpt lat="45.11626060183294" lon="9.756947265036205"><ele>43.0</ele><time>2026-03-29T14:06:49.999Z</time></trkpt><trkpt lat="45.11609648919274" lon="9.75700460238759"><ele>43.0</ele><time>2026-03-29T14:06:50.999Z</time></trkpt><trkpt lat="45.11592189914229" lon="9.757011933110693"><ele>43.0</ele><time>2026-03-29T14:06:51.999Z</time></trkpt><trkpt lat="45.11573442548127" lon="9.757033039664176"><ele>43.0</ele><time>2026-03-29T14:06:52.999Z</time></trkpt><trkpt lat="45.11557944871624" lon="9.75704840378975"><ele>43.0</ele><time>2026-03-29T14:06:53.999Z</time></trkpt><trkpt lat="45.11540525825577" lon="9.757085615812334"><ele>43.0</ele><time>2026-03-29T14:06:54.999Z</time></trkpt><trkpt lat="45.11526712970901" lon="9.757087312419792"><ele>43.0</ele><time>2026-03-29T14:06:55.999Z</time></trkpt><trkpt lat="45.11511424271814" lon="9.757061133662326"><ele>43.0</ele><time>2026-03-29T14:06:56.999Z</time></trkpt><trkpt lat="45.1149905213006" lon="9.757127068058088"><ele>43.0</ele><time>2026-03-29T14:06:57.999Z</time></trkpt><trkpt lat="45.1148548201993" lon="9.757138400630788"><ele>43.0</ele><time>2026-03-29T14:06:58.999Z</time></trkpt><trkpt lat="45.11473526706337" lon="9.757149016827132"><ele>43.4</ele><time>2026-03-29T14:06:59.999Z</time></trkpt><trkpt lat="45.11460917324006" lon="9.757162393506697"><ele>43.8</ele><time>2026-03-29T14:07:00.999Z</time></trkpt><trkpt lat="45.114493308069044" lon="9.757165847279511"><ele>44.2</ele><time>2026-03-29T14:07:01.999Z</time></trkpt><trkpt lat="45.11440176222468" lon="9.757183387073507"><ele>44.6</ele><time>2026-03-29T14:07:02.999Z</time></trkpt><trkpt lat="45.11430803677103" lon="9.757191983069964"><ele>45.0</ele><time>2026-03-29T14:07:03.999Z</time></trkpt><trkpt lat="45.11423169428266" lon="9.757216454315845"><ele>45.0</ele><time>2026-03-29T14:07:04.999Z</time></trkpt><trkpt lat="45.114138213217004" lon="9.757246568572096"><ele>45.0</ele><time>2026-03-29T14:07:06.999Z</time></trkpt><trkpt lat="45.1141022358748" lon="9.757350467213941"><ele>45.0</ele><time>2026-03-29T14:07:07.999Z</time></trkpt><trkpt lat="45.114041822919845" lon="9.757470209576836"><ele>45.0</ele><time>2026-03-29T14:07:08.999Z</time></trkpt><trkpt lat="45.11397757411287" lon="9.757607966613453"><ele>45.0</ele><time>2026-03-29T14:07:09.999Z</time></trkpt><trkpt lat="45.11393606826107" lon="9.75779973168324"><ele>45.25</ele><time>2026-03-29T14:07:10.999Z</time></trkpt><trkpt lat="45.11388121563258" lon="9.757982322180546"><ele>45.5</ele><time>2026-03-29T14:07:11.999Z</time></trkpt><trkpt lat="45.11386949562117" lon="9.758189158550943"><ele>45.75</ele><time>2026-03-29T14:07:12.999Z</time></trkpt><trkpt lat="45.113824541137426" lon="9.758405101391096"><ele>46.0</ele><time>2026-03-29T14:07:13.999Z</time></trkpt><trkpt lat="45.113780660540336" lon="9.75862993950742"><ele>46.0</ele><time>2026-03-29T14:07:14.999Z</time></trkpt><trkpt lat="45.11373195143401" lon="9.758856899938252"><ele>46.0</ele><time>2026-03-29T14:07:15.999Z</time></trkpt><trkpt lat="45.113689259915965" lon="9.75907516275944"><ele>46.0</ele><time>2026-03-29T14:07:16.999Z</time></trkpt><trkpt lat="45.11363726198408" lon="9.759299068703381"><ele>45.5</ele><time>2026-03-29T14:07:17.999Z</time></trkpt><trkpt lat="45.11360611855265" lon="9.759497469927718"><ele>45.0</ele><time>2026-03-29T14:07:18.999Z</time></trkpt><trkpt lat="45.11356402008953" lon="9.759691840086711"><ele>44.5</ele><time>2026-03-29T14:07:19.999Z</time></trkpt><trkpt lat="45.1135287110828" lon="9.759864623590772"><ele>44.0</ele><time>2026-03-29T14:07:20.999Z</time></trkpt><trkpt lat="45.11350092897081" lon="9.760014520970378"><ele>44.0</ele><time>2026-03-29T14:07:21.999Z</time></trkpt><trkpt lat="45.113468476179015" lon="9.7601368067952"><ele>44.0</ele><time>2026-03-29T14:07:22.999Z</time></trkpt><trkpt lat="45.113448650277284" lon="9.760248138746764"><ele>44.0</ele><time>2026-03-29T14:07:23.999Z</time></trkpt><trkpt lat="45.1134223296152" lon="9.760346316555761"><ele>44.0</ele><time>2026-03-29T14:07:24.999Z</time></trkpt><trkpt lat="45.11337568599764" lon="9.760450442457973"><ele>44.0</ele><time>2026-03-29T14:07:26.999Z</time></trkpt><trkpt lat="45.1133612529038" lon="9.760542047044641"><ele>44.0</ele><time>2026-03-29T14:07:28.999Z</time></trkpt><trkpt lat="45.113344215520186" lon="9.760639914589397"><ele>44.5</ele><time>2026-03-29T14:07:34.999Z</time></trkpt><trkpt lat="45.113317163217076" lon="9.760730417471537"><ele>45.0</ele><time>2026-03-29T14:07:43Z</time></trkpt><trkpt lat="45.11328100411376" lon="9.760834295673133"><ele>45.5</ele><time>2026-03-29T14:07:46Z</time></trkpt><trkpt lat="45.11310022492382" lon="9.760707819208328"><ele>46.0</ele><time>2026-03-29T14:07:49Z</time></trkpt><trkpt lat="45.11307263473683" lon="9.76053749803233"><ele>46.0</ele><time>2026-03-29T14:07:53Z</time></trkpt><trkpt lat="45.11308225109822" lon="9.76043971358123"><ele>46.0</ele><time>2026-03-29T14:07:55Z</time></trkpt><trkpt lat="45.11307885387535" lon="9.760350479592246"><ele>46.0</ele><time>2026-03-29T14:07:57Z</time></trkpt><trkpt lat="45.113086621007355" lon="9.76023090476692"><ele>46.0</ele><time>2026-03-29T14:08:00Z</time></trkpt><trkpt lat="45.11303480684186" lon="9.760175288303"><ele>46.0</ele><time>2026-03-29T14:08:22Z</time></trkpt><trkpt lat="45.112993340666" lon="9.76026913277392"><ele>46.0</ele><time>2026-03-29T14:08:26Z</time></trkpt><trkpt lat="45.11304711226868" lon="9.760169287487457"><ele>46.0</ele><time>2026-03-29T14:11:51Z</time></trkpt><trkpt lat="45.11309113708715" lon="9.760104692440809"><ele>45.5</ele><time>2026-03-29T14:11:58Z</time></trkpt><trkpt lat="45.11310025672656" lon="9.76001246324752"><ele>45.0</ele><time>2026-03-29T14:12:06Z</time></trkpt><trkpt lat="45.11316325847476" lon="9.76000655015025"><ele>44.5</ele><time>2026-03-29T14:12:18Z</time></trkpt><trkpt lat="45.113139370271305" lon="9.759914376592482"><ele>44.0</ele><time>2026-03-29T14:12:29Z</time></trkpt><trkpt lat="45.11305085996318" lon="9.759893208020753"><ele>43.5</ele><time>2026-03-29T14:12:51.999Z</time></trkpt><trkpt lat="45.11298571506902" lon="9.759825468146927"><ele>43.0</ele><time>2026-03-29T14:13:20.999Z</time></trkpt><trkpt lat="45.11309730873823" lon="9.759796379595771"><ele>43.0</ele><time>2026-03-29T14:13:40.999Z</time></trkpt><trkpt lat="45.11315085751555" lon="9.759732335987287"><ele>43.0</ele><time>2026-03-29T14:14:56.999Z</time></trkpt><trkpt lat="45.11318611720227" lon="9.759634525274228"><ele>43.0</ele><time>2026-03-29T14:15:04.999Z</time></trkpt><trkpt lat="45.11311091789968" lon="9.759606509995649"><ele>43.0</ele><time>2026-03-29T14:15:19.999Z</time></trkpt></trkseg><trkseg><trkpt lat="45.112922106627614" lon="9.760369655843531"><ele>46.0</ele><time>2026-03-29T15:15:28Z</time></trkpt><trkpt lat="45.11293717311047" lon="9.760463963595573"><ele>46.0</ele><time>2026-03-29T15:15:31Z</time></trkpt><trkpt lat="45.112970564954125" lon="9.7605609873562"><ele>46.0</ele><time>2026-03-29T15:15:34Z</time></trkpt><trkpt lat="45.113029233694114" lon="9.760614459371173"><ele>46.0</ele><time>2026-03-29T15:15:55Z</time></trkpt><trkpt lat="45.11306900676505" lon="9.760699404830326"><ele>46.0</ele><time>2026-03-29T15:15:57Z</time></trkpt><trkpt lat="45.113129890812466" lon="9.760778869373283"><ele>46.0</ele><time>2026-03-29T15:15:59Z</time></trkpt><trkpt lat="45.11320949041638" lon="9.760765142828657"><ele>46.0</ele><time>2026-03-29T15:16:01Z</time></trkpt><trkpt lat="45.11329917775396" lon="9.760607921397087"><ele>46.199999999999996</ele><time>2026-03-29T15:16:11Z</time></trkpt><trkpt lat="45.113336100509066" lon="9.760526683766653"><ele>46.4</ele><time>2026-03-29T15:16:25Z</time></trkpt><trkpt lat="45.11338569480385" lon="9.760455775453162"><ele>46.6</ele><time>2026-03-29T15:16:34Z</time></trkpt><trkpt lat="45.11344133368955" lon="9.760278683729847"><ele>46.8</ele><time>2026-03-29T15:16:36Z</time></trkpt><trkpt lat="45.11346422271676" lon="9.760155673920806"><ele>47.0</ele><time>2026-03-29T15:16:37Z</time></trkpt><trkpt lat="45.11353601242838" lon="9.760032513214483"><ele>46.400000000000006</ele><time>2026-03-29T15:16:38Z</time></trkpt><trkpt lat="45.11356339919698" lon="9.759897427763224"><ele>45.800000000000004</ele><time>2026-03-29T15:16:39Z</time></trkpt><trkpt lat="45.11359027777613" lon="9.75976485015738"><ele>45.2</ele><time>2026-03-29T15:16:40Z</time></trkpt><trkpt lat="45.113616132572105" lon="9.75963732163991"><ele>44.6</ele><time>2026-03-29T15:16:41Z</time></trkpt><trkpt lat="45.1136450459233" lon="9.759494092339073"><ele>44.0</ele><time>2026-03-29T15:16:42Z</time></trkpt><trkpt lat="45.113667314959265" lon="9.759382187267683"><ele>44.400000000000006</ele><time>2026-03-29T15:16:43Z</time></trkpt><trkpt lat="45.11369559762428" lon="9.759240062731694"><ele>44.8</ele><time>2026-03-29T15:16:44Z</time></trkpt><trkpt lat="45.11372540212157" lon="9.759090290796182"><ele>45.2</ele><time>2026-03-29T15:16:45Z</time></trkpt><trkpt lat="45.11375440688064" lon="9.758944537603908"><ele>45.599999999999994</ele><time>2026-03-29T15:16:46Z</time></trkpt><trkpt lat="45.11378360485035" lon="9.758795051955603"><ele>46.0</ele><time>2026-03-29T15:16:47Z</time></trkpt><trkpt lat="45.11379686928686" lon="9.7586442338861"><ele>46.0</ele><time>2026-03-29T15:16:48Z</time></trkpt><trkpt lat="45.113827091178656" lon="9.758487281692483"><ele>46.0</ele><time>2026-03-29T15:16:49Z</time></trkpt><trkpt lat="45.113874928435806" lon="9.758326387924846"><ele>46.0</ele><time>2026-03-29T15:16:50Z</time></trkpt><trkpt lat="45.11390574625568" lon="9.758168865048848"><ele>46.0</ele><time>2026-03-29T15:16:51Z</time></trkpt><trkpt lat="45.11392134679818" lon="9.758006985484263"><ele>46.0</ele><time>2026-03-29T15:16:52Z</time></trkpt><trkpt lat="45.113948006488634" lon="9.75787589073216"><ele>46.0</ele><time>2026-03-29T15:16:53Z</time></trkpt><trkpt lat="45.11398922294835" lon="9.75776459491791"><ele>46.0</ele><time>2026-03-29T15:16:54Z</time></trkpt><trkpt lat="45.11400723806442" lon="9.757648024665182"><ele>46.0</ele><time>2026-03-29T15:16:55Z</time></trkpt><trkpt lat="45.11403032035814" lon="9.757542043386689"><ele>46.0</ele><time>2026-03-29T15:16:56Z</time></trkpt><trkpt lat="45.11407958915698" lon="9.757462990552142"><ele>46.0</ele><time>2026-03-29T15:16:57Z</time></trkpt><trkpt lat="45.11410956544221" lon="9.757375557028965"><ele>45.833333333333336</ele><time>2026-03-29T15:16:58Z</time></trkpt><trkpt lat="45.11416227864288" lon="9.757307855192373"><ele>45.66666666666667</ele><time>2026-03-29T15:16:59Z</time></trkpt><trkpt lat="45.11422551134302" lon="9.757254334828469"><ele>45.5</ele><time>2026-03-29T15:17:00Z</time></trkpt><trkpt lat="45.11430573017739" lon="9.757213489071487"><ele>45.333333333333336</ele><time>2026-03-29T15:17:01Z</time></trkpt><trkpt lat="45.11439647660426" lon="9.757190978691291"><ele>45.166666666666664</ele><time>2026-03-29T15:17:02Z</time></trkpt><trkpt lat="45.11449878221531" lon="9.757199482228222"><ele>45.0</ele><time>2026-03-29T15:17:03Z</time></trkpt><trkpt lat="45.1146269877941" lon="9.757162152308629"><ele>45.0</ele><time>2026-03-29T15:17:04Z</time></trkpt><trkpt lat="45.11478059115156" lon="9.757158003280896"><ele>45.0</ele><time>2026-03-29T15:17:05Z</time></trkpt><trkpt lat="45.11493459619969" lon="9.757150847579727"><ele>45.0</ele><time>2026-03-29T15:17:06Z</time></trkpt><trkpt lat="45.11506652604042" lon="9.757143931525386"><ele>45.0</ele><time>2026-03-29T15:17:07Z</time></trkpt><trkpt lat="45.11521000701801" lon="9.75713136296927"><ele>44.333333333333336</ele><time>2026-03-29T15:17:08Z</time></trkpt><trkpt lat="45.115380740851705" lon="9.757107531798805"><ele>43.66666666666667</ele><time>2026-03-29T15:17:09Z</time></trkpt><trkpt lat="45.115536630407966" lon="9.75709201748797"><ele>43.0</ele><time>2026-03-29T15:17:10Z</time></trkpt><trkpt lat="45.11569475059653" lon="9.757073575644595"><ele>43.0</ele><time>2026-03-29T15:17:11Z</time></trkpt><trkpt lat="45.11584214039748" lon="9.757048448828355"><ele>43.0</ele><time>2026-03-29T15:17:12Z</time></trkpt><trkpt lat="45.115997190315454" lon="9.757026123734772"><ele>43.0</ele><time>2026-03-29T15:17:13Z</time></trkpt><trkpt lat="45.11614293749928" lon="9.757018427116135"><ele>43.0</ele><time>2026-03-29T15:17:14Z</time></trkpt><trkpt lat="45.11629789927786" lon="9.756982070094724"><ele>43.0</ele><time>2026-03-29T15:17:15Z</time></trkpt><trkpt lat="45.1164524397104" lon="9.756943104791622"><ele>43.0</ele><time>2026-03-29T15:17:16Z</time></trkpt><trkpt lat="45.11661949761322" lon="9.75690755209442"><ele>43.0</ele><time>2026-03-29T15:17:17Z</time></trkpt><trkpt lat="45.116787349276926" lon="9.756866121951955"><ele>43.0</ele><time>2026-03-29T15:17:18Z</time></trkpt><trkpt lat="45.11694553105744" lon="9.756893650778858"><ele>43.0</ele><time>2026-03-29T15:17:19Z</time></trkpt><trkpt lat="45.117102211829426" lon="9.756917505144159"><ele>42.66666666666667</ele><time>2026-03-29T15:17:20Z</time></trkpt><trkpt lat="45.11726447372029" lon="9.756941113763196"><ele>42.333333333333336</ele><time>2026-03-29T15:17:21Z</time></trkpt><trkpt lat="45.117426733049435" lon="9.756980424724256"><ele>42.0</ele><time>2026-03-29T15:17:22Z</time></trkpt><trkpt lat="45.117569352270564" lon="9.757005644574939"><ele>41.8</ele><time>2026-03-29T15:17:23Z</time></trkpt><trkpt lat="45.11767781214811" lon="9.75704267366495"><ele>41.6</ele><time>2026-03-29T15:17:24Z</time></trkpt><trkpt lat="45.11778870709959" lon="9.75705851771859"><ele>41.4</ele><time>2026-03-29T15:17:25Z</time></trkpt><trkpt lat="45.11789141533495" lon="9.757051967775084"><ele>41.199999999999996</ele><time>2026-03-29T15:17:26Z</time></trkpt><trkpt lat="45.11800647555705" lon="9.757008397770019"><ele>41.0</ele><time>2026-03-29T15:17:27Z</time></trkpt><trkpt lat="45.118105731130036" lon="9.756905418597702"><ele>41.33333333333333</ele><time>2026-03-29T15:17:28Z</time></trkpt><trkpt lat="45.1182368550945" lon="9.756769350816146"><ele>41.666666666666664</ele><time>2026-03-29T15:17:29Z</time></trkpt><trkpt lat="45.11836285232469" lon="9.756606472032763"><ele>42.0</ele><time>2026-03-29T15:17:30Z</time></trkpt><trkpt lat="45.11849904647621" lon="9.756429477927837"><ele>42.0</ele><time>2026-03-29T15:17:31Z</time></trkpt><trkpt lat="45.11862532001773" lon="9.75626772580348"><ele>42.0</ele><time>2026-03-29T15:17:32Z</time></trkpt><trkpt lat="45.118733551773566" lon="9.756129084522687"><ele>42.0</ele><time>2026-03-29T15:17:33Z</time></trkpt><trkpt lat="45.11884329777035" lon="9.755993046146997"><ele>42.0</ele><time>2026-03-29T15:17:34Z</time></trkpt><trkpt lat="45.11894438322302" lon="9.755879931121823"><ele>42.0</ele><time>2026-03-29T15:17:35Z</time></trkpt><trkpt lat="45.11903689556205" lon="9.755789350167044"><ele>42.0</ele><time>2026-03-29T15:17:36Z</time></trkpt><trkpt lat="45.11912355405088" lon="9.755715652565026"><ele>42.0</ele><time>2026-03-29T15:17:37Z</time></trkpt><trkpt lat="45.11920727958298" lon="9.755659356379683"><ele>42.0</ele><time>2026-03-29T15:17:38Z</time></trkpt><trkpt lat="45.1192727444636" lon="9.755607349339734"><ele>42.0</ele><time>2026-03-29T15:17:39Z</time></trkpt><trkpt lat="45.119374704643555" lon="9.755624549644816"><ele>42.0</ele><time>2026-03-29T15:17:41.001Z</time></trkpt><trkpt lat="45.11945663357593" lon="9.755669860915948"><ele>42.0</ele><time>2026-03-29T15:17:43.001Z</time></trkpt><trkpt lat="45.11955132335263" lon="9.755480499659786"><ele>42.0</ele><time>2026-03-29T15:17:44.001Z</time></trkpt><trkpt lat="45.11962096819351" lon="9.755323284803136"><ele>41.333333333333336</ele><time>2026-03-29T15:17:45.001Z</time></trkpt><trkpt lat="45.11972501959283" lon="9.755125194765373"><ele>40.66666666666667</ele><time>2026-03-29T15:17:46.001Z</time></trkpt><trkpt lat="45.11978397417032" lon="9.754887470454124"><ele>40.0</ele><time>2026-03-29T15:17:47.001Z</time></trkpt><trkpt lat="45.11988374312562" lon="9.754670718701531"><ele>40.0</ele><time>2026-03-29T15:17:48.001Z</time></trkpt><trkpt lat="45.119993728544394" lon="9.754457028019038"><ele>40.0</ele><time>2026-03-29T15:17:49.001Z</time></trkpt><trkpt lat="45.120086544979614" lon="9.754245580096407"><ele>40.0</ele><time>2026-03-29T15:17:50.001Z</time></trkpt><trkpt lat="45.12018378141239" lon="9.754005232828199"><ele>40.0</ele><time>2026-03-29T15:17:51.001Z</time></trkpt><trkpt lat="45.12031075029288" lon="9.7537954868146"><ele>40.0</ele><time>2026-03-29T15:17:52.001Z</time></trkpt><trkpt lat="45.120417778002576" lon="9.753555820828153"><ele>40.0</ele><time>2026-03-29T15:17:53.001Z</time></trkpt><trkpt lat="45.120506800018376" lon="9.753289360434907"><ele>40.0</ele><time>2026-03-29T15:17:54.001Z</time></trkpt><trkpt lat="45.12062373667071" lon="9.753062705479165"><ele>40.0</ele><time>2026-03-29T15:17:55.001Z</time></trkpt><trkpt lat="45.120745263774864" lon="9.752831275128907"><ele>40.0</ele><time>2026-03-29T15:17:56.001Z</time></trkpt><trkpt lat="45.120868094704626" lon="9.752604578025483"><ele>40.66666666666667</ele><time>2026-03-29T15:17:57.001Z</time></trkpt><trkpt lat="45.12099430720413" lon="9.75237612236072"><ele>41.333333333333336</ele><time>2026-03-29T15:17:58.001Z</time></trkpt><trkpt lat="45.12112151223644" lon="9.75216578910051"><ele>42.0</ele><time>2026-03-29T15:17:59.001Z</time></trkpt><trkpt lat="45.121239719249" lon="9.751957403644207"><ele>41.666666666666664</ele><time>2026-03-29T15:18:00.001Z</time></trkpt><trkpt lat="45.12134624265021" lon="9.751768164982026"><ele>41.33333333333333</ele><time>2026-03-29T15:18:01.001Z</time></trkpt><trkpt lat="45.121452428464416" lon="9.751579148113004"><ele>41.0</ele><time>2026-03-29T15:18:02.001Z</time></trkpt><trkpt lat="45.12155619117056" lon="9.751412002802867"><ele>41.0</ele><time>2026-03-29T15:18:03Z</time></trkpt><trkpt lat="45.12164519573809" lon="9.751246515222046"><ele>41.0</ele><time>2026-03-29T15:18:04Z</time></trkpt><trkpt lat="45.12175189523025" lon="9.751082600533815"><ele>41.0</ele><time>2026-03-29T15:18:05Z</time></trkpt><trkpt lat="45.12182812820766" lon="9.750935711220091"><ele>41.0</ele><time>2026-03-29T15:18:06Z</time></trkpt><trkpt lat="45.12189038975795" lon="9.750811231424763"><ele>41.0</ele><time>2026-03-29T15:18:07Z</time></trkpt><trkpt lat="45.121959958943066" lon="9.750715149972947"><ele>41.0</ele><time>2026-03-29T15:18:08Z</time></trkpt><trkpt lat="45.1220105480663" lon="9.75062433462726"><ele>41.0</ele><time>2026-03-29T15:18:09Z</time></trkpt><trkpt lat="45.12208751434913" lon="9.750519802089372"><ele>41.0</ele><time>2026-03-29T15:18:11Z</time></trkpt><trkpt lat="45.12214715015969" lon="9.750470063227848"><ele>41.0</ele><time>2026-03-29T15:18:13Z</time></trkpt><trkpt lat="45.12225346919462" lon="9.750424545461529"><ele>41.0</ele><time>2026-03-29T15:18:17Z</time></trkpt><trkpt lat="45.122340650788956" lon="9.750394407165404"><ele>41.0</ele><time>2026-03-29T15:18:19Z</time></trkpt><trkpt lat="45.12242737224177" lon="9.750429665591293"><ele>41.0</ele><time>2026-03-29T15:18:21Z</time></trkpt><trkpt lat="45.12251846055188" lon="9.75048614881622"><ele>41.0</ele><time>2026-03-29T15:18:23Z</time></trkpt><trkpt lat="45.12261837888484" lon="9.750537352132588"><ele>41.0</ele><time>2026-03-29T15:18:25Z</time></trkpt><trkpt lat="45.122720158357225" lon="9.750656960350783"><ele>41.666666666666664</ele><time>2026-03-29T15:18:28Z</time></trkpt><trkpt lat="45.12280899661356" lon="9.750747838474796"><ele>42.33333333333333</ele><time>2026-03-29T15:18:30Z</time></trkpt><trkpt lat="45.12290692437054" lon="9.750845049908882"><ele>43.0</ele><time>2026-03-29T15:18:32Z</time></trkpt><trkpt lat="45.12296878346901" lon="9.750899353008748"><ele>43.666666666666664</ele><time>2026-03-29T15:18:33Z</time></trkpt><trkpt lat="45.12302940409127" lon="9.750956006554793"><ele>44.333333333333336</ele><time>2026-03-29T15:18:34Z</time></trkpt><trkpt lat="45.12309674327746" lon="9.75099676515849"><ele>45.0</ele><time>2026-03-29T15:18:35Z</time></trkpt><trkpt lat="45.123161954268205" lon="9.751031753308288"><ele>44.2</ele><time>2026-03-29T15:18:36Z</time></trkpt><trkpt lat="45.123243228478984" lon="9.751087583043823"><ele>43.4</ele><time>2026-03-29T15:18:37Z</time></trkpt><trkpt lat="45.12334007610059" lon="9.75115067036919"><ele>42.599999999999994</ele><time>2026-03-29T15:18:38Z</time></trkpt><trkpt lat="45.12342864645429" lon="9.751161607626477"><ele>41.8</ele><time>2026-03-29T15:18:39Z</time></trkpt><trkpt lat="45.12354089708662" lon="9.75112839637729"><ele>41.0</ele><time>2026-03-29T15:18:40Z</time></trkpt><trkpt lat="45.12364124209298" lon="9.751131899404209"><ele>41.0</ele><time>2026-03-29T15:18:41Z</time></trkpt><trkpt lat="45.12373353775499" lon="9.751114472726945"><ele>41.0</ele><time>2026-03-29T15:18:42Z</time></trkpt><trkpt lat="45.12381677341574" lon="9.751106838529248"><ele>41.0</ele><time>2026-03-29T15:18:43Z</time></trkpt><trkpt lat="45.123900581986604" lon="9.751100488756991"><ele>41.0</ele><time>2026-03-29T15:18:44Z</time></trkpt><trkpt lat="45.12398841683272" lon="9.751090804126045"><ele>41.0</ele><time>2026-03-29T15:18:45Z</time></trkpt><trkpt lat="45.124081228723824" lon="9.751085522673545"><ele>41.0</ele><time>2026-03-29T15:18:46Z</time></trkpt><trkpt lat="45.124192001606374" lon="9.75108058504722"><ele>40.75</ele><time>2026-03-29T15:18:47Z</time></trkpt><trkpt lat="45.124284619010844" lon="9.751068298072031"><ele>40.5</ele><time>2026-03-29T15:18:48Z</time></trkpt><trkpt lat="45.12439154682996" lon="9.751062223627807"><ele>40.25</ele><time>2026-03-29T15:18:49Z</time></trkpt><trkpt lat="45.124509552106616" lon="9.751048614629669"><ele>40.0</ele><time>2026-03-29T15:18:50Z</time></trkpt><trkpt lat="45.124645481641316" lon="9.751034789140254"><ele>41.333333333333336</ele><time>2026-03-29T15:18:51Z</time></trkpt><trkpt lat="45.12479756368218" lon="9.75101973953231"><ele>42.666666666666664</ele><time>2026-03-29T15:18:52Z</time></trkpt><trkpt lat="45.12494357066847" lon="9.751006342248692"><ele>44.0</ele><time>2026-03-29T15:18:53Z</time></trkpt><trkpt lat="45.12509791626041" lon="9.750993091923274"><ele>44.0</ele><time>2026-03-29T15:18:54Z</time></trkpt><trkpt lat="45.12525069471744" lon="9.750982876668056"><ele>44.0</ele><time>2026-03-29T15:18:55Z</time></trkpt><trkpt lat="45.125413959716326" lon="9.750980768841702"><ele>44.0</ele><time>2026-03-29T15:18:56Z</time></trkpt><trkpt lat="45.12556101070391" lon="9.750966460668351"><ele>44.0</ele><time>2026-03-29T15:18:57Z</time></trkpt><trkpt lat="45.12571499713902" lon="9.750958680426537"><ele>44.0</ele><time>2026-03-29T15:18:58Z</time></trkpt><trkpt lat="45.12586550836184" lon="9.750967264230974"><ele>44.0</ele><time>2026-03-29T15:18:59Z</time></trkpt><trkpt lat="45.12600820757546" lon="9.750976691769717"><ele>44.0</ele><time>2026-03-29T15:19:00Z</time></trkpt><trkpt lat="45.12615062022236" lon="9.750996814358839"><ele>43.75</ele><time>2026-03-29T15:19:01Z</time></trkpt><trkpt lat="45.12629630904289" lon="9.751031687042829"><ele>43.5</ele><time>2026-03-29T15:19:02Z</time></trkpt><trkpt lat="45.12644381338922" lon="9.751062787506347"><ele>43.25</ele><time>2026-03-29T15:19:03Z</time></trkpt><trkpt lat="45.126591294784745" lon="9.751097169286014"><ele>43.0</ele><time>2026-03-29T15:19:04Z</time></trkpt><trkpt lat="45.126736915929044" lon="9.751139738947316"><ele>43.0</ele><time>2026-03-29T15:19:05Z</time></trkpt><trkpt lat="45.12688313205494" lon="9.751175697382505"><ele>43.0</ele><time>2026-03-29T15:19:06Z</time></trkpt><trkpt lat="45.127030067170885" lon="9.751211531269309"><ele>43.0</ele><time>2026-03-29T15:19:07Z</time></trkpt><trkpt lat="45.127176611072095" lon="9.751249888536766"><ele>43.0</ele><time>2026-03-29T15:19:08Z</time></trkpt><trkpt lat="45.12731640942717" lon="9.75128048605873"><ele>43.66666666666667</ele><time>2026-03-29T15:19:09Z</time></trkpt><trkpt lat="45.127475676406235" lon="9.75132998049684"><ele>44.333333333333336</ele><time>2026-03-29T15:19:10Z</time></trkpt><trkpt lat="45.1276408954393" lon="9.751389192250834"><ele>45.0</ele><time>2026-03-29T15:19:11Z</time></trkpt><trkpt lat="45.1277836899636" lon="9.751478791825575"><ele>45.0</ele><time>2026-03-29T15:19:12Z</time></trkpt><trkpt lat="45.12793344959135" lon="9.751588957360424"><ele>45.0</ele><time>2026-03-29T15:19:13Z</time></trkpt><trkpt lat="45.12807553446807" lon="9.751704749925167"><ele>45.0</ele><time>2026-03-29T15:19:14Z</time></trkpt><trkpt lat="45.12821039389993" lon="9.751818271166504"><ele>43.666666666666664</ele><time>2026-03-29T15:19:15Z</time></trkpt><trkpt lat="45.12838017699926" lon="9.751910240619424"><ele>42.33333333333333</ele><time>2026-03-29T15:19:16Z</time></trkpt><trkpt lat="45.12851685933897" lon="9.752005780020754"><ele>41.0</ele><time>2026-03-29T15:19:17Z</time></trkpt><trkpt lat="45.12865847436942" lon="9.752101849293547"><ele>41.0</ele><time>2026-03-29T15:19:18Z</time></trkpt><trkpt lat="45.128808324778184" lon="9.75219427373315"><ele>41.0</ele><time>2026-03-29T15:19:19Z</time></trkpt><trkpt lat="45.12894575763058" lon="9.752298584544118"><ele>41.0</ele><time>2026-03-29T15:19:20Z</time></trkpt><trkpt lat="45.12907481159712" lon="9.752397199277398"><ele>43.0</ele><time>2026-03-29T15:19:21Z</time></trkpt><trkpt lat="45.129209945055145" lon="9.752487381066112"><ele>45.0</ele><time>2026-03-29T15:19:22Z</time></trkpt><trkpt lat="45.129354128639854" lon="9.752565858288431"><ele>47.0</ele><time>2026-03-29T15:19:23Z</time></trkpt><trkpt lat="45.12948594857731" lon="9.752673940642058"><ele>46.75</ele><time>2026-03-29T15:19:24Z</time></trkpt><trkpt lat="45.129611807959314" lon="9.752790091229885"><ele>46.5</ele><time>2026-03-29T15:19:25Z</time></trkpt><trkpt lat="45.12972346460581" lon="9.75286571939053"><ele>46.25</ele><time>2026-03-29T15:19:26Z</time></trkpt><trkpt lat="45.12983698963549" lon="9.752973000260749"><ele>46.0</ele><time>2026-03-29T15:19:27Z</time></trkpt><trkpt lat="45.12995290866979" lon="9.753109355596822"><ele>46.0</ele><time>2026-03-29T15:19:28Z</time></trkpt><trkpt lat="45.13006458890546" lon="9.753281871595306"><ele>46.0</ele><time>2026-03-29T15:19:29Z</time></trkpt><trkpt lat="45.1301779326617" lon="9.75345276757404"><ele>46.0</ele><time>2026-03-29T15:19:30Z</time></trkpt><trkpt lat="45.130280736396465" lon="9.75362083406468"><ele>45.75</ele><time>2026-03-29T15:19:31Z</time></trkpt><trkpt lat="45.130397668411184" lon="9.753781122086961"><ele>45.5</ele><time>2026-03-29T15:19:32Z</time></trkpt><trkpt lat="45.13049557984454" lon="9.753932346966309"><ele>45.25</ele><time>2026-03-29T15:19:33Z</time></trkpt><trkpt lat="45.13058490771577" lon="9.754071604126372"><ele>45.0</ele><time>2026-03-29T15:19:34Z</time></trkpt><trkpt lat="45.130662790070396" lon="9.754211529306923"><ele>45.25</ele><time>2026-03-29T15:19:35Z</time></trkpt><trkpt lat="45.13073128681689" lon="9.754376851970035"><ele>45.5</ele><time>2026-03-29T15:19:36Z</time></trkpt><trkpt lat="45.130793755247694" lon="9.754537031750333"><ele>45.75</ele><time>2026-03-29T15:19:37Z</time></trkpt><trkpt lat="45.13085226197099" lon="9.754697777654938"><ele>46.0</ele><time>2026-03-29T15:19:38Z</time></trkpt><trkpt lat="45.1309035161054" lon="9.754835866307769"><ele>46.0</ele><time>2026-03-29T15:19:39Z</time></trkpt><trkpt lat="45.13095281661735" lon="9.754953117336997"><ele>46.0</ele><time>2026-03-29T15:19:40Z</time></trkpt><trkpt lat="45.131028905380354" lon="9.755024128699516"><ele>46.0</ele><time>2026-03-29T15:19:41Z</time></trkpt><trkpt lat="45.13107124235192" lon="9.755110712761878"><ele>46.0</ele><time>2026-03-29T15:19:42Z</time></trkpt><trkpt lat="45.13112835072826" lon="9.75519171533803"><ele>46.0</ele><time>2026-03-29T15:19:43Z</time></trkpt><trkpt lat="45.1311724786077" lon="9.755288652509659"><ele>46.0</ele><time>2026-03-29T15:19:44Z</time></trkpt><trkpt lat="45.13121778082016" lon="9.755382635648617"><ele>45.599999999999994</ele><time>2026-03-29T15:19:45Z</time></trkpt><trkpt lat="45.1312892061028" lon="9.75543701250153"><ele>45.2</ele><time>2026-03-29T15:19:46.001Z</time></trkpt><trkpt lat="45.13137046624911" lon="9.755436997560661"><ele>44.8</ele><time>2026-03-29T15:19:47.001Z</time></trkpt><trkpt lat="45.13145535994627" lon="9.755392426683873"><ele>44.400000000000006</ele><time>2026-03-29T15:19:48.001Z</time></trkpt><trkpt lat="45.131548457130364" lon="9.755314380743425"><ele>44.0</ele><time>2026-03-29T15:19:49.001Z</time></trkpt><trkpt lat="45.131622204019806" lon="9.755210324922178"><ele>45.25</ele><time>2026-03-29T15:19:50.001Z</time></trkpt><trkpt lat="45.13174181118613" lon="9.755188979460822"><ele>46.5</ele><time>2026-03-29T15:19:51.001Z</time></trkpt><trkpt lat="45.13185708554452" lon="9.755198699130752"><ele>47.75</ele><time>2026-03-29T15:19:52.001Z</time></trkpt><trkpt lat="45.13196841387034" lon="9.755187754485332"><ele>49.0</ele><time>2026-03-29T15:19:53.001Z</time></trkpt><trkpt lat="45.13208870210507" lon="9.755203312460814"><ele>49.25</ele><time>2026-03-29T15:19:54.001Z</time></trkpt><trkpt lat="45.132219510911995" lon="9.755216542648038"><ele>49.5</ele><time>2026-03-29T15:19:55.001Z</time></trkpt><trkpt lat="45.132356032930446" lon="9.75522894532417"><ele>49.75</ele><time>2026-03-29T15:19:56.001Z</time></trkpt><trkpt lat="45.132493273514896" lon="9.755241265685838"><ele>50.0</ele><time>2026-03-29T15:19:57.001Z</time></trkpt><trkpt lat="45.13262254477436" lon="9.755251923401245"><ele>50.75</ele><time>2026-03-29T15:19:58.001Z</time></trkpt><trkpt lat="45.132736181354076" lon="9.755272121214634"><ele>51.5</ele><time>2026-03-29T15:19:59.001Z</time></trkpt><trkpt lat="45.132881559519554" lon="9.755278790215307"><ele>52.25</ele><time>2026-03-29T15:20:00.001Z</time></trkpt><trkpt lat="45.133010372199315" lon="9.755292190737354"><ele>53.0</ele><time>2026-03-29T15:20:01.001Z</time></trkpt><trkpt lat="45.13314105194895" lon="9.75530724755292"><ele>52.75</ele><time>2026-03-29T15:20:02.001Z</time></trkpt><trkpt lat="45.1332620859003" lon="9.755316426693364"><ele>52.5</ele><time>2026-03-29T15:20:03.001Z</time></trkpt><trkpt lat="45.133382034192934" lon="9.755317987304784"><ele>52.25</ele><time>2026-03-29T15:20:04.001Z</time></trkpt><trkpt lat="45.13349336191062" lon="9.755320159247278"><ele>52.0</ele><time>2026-03-29T15:20:05.001Z</time></trkpt><trkpt lat="45.13359530465919" lon="9.755323553582745"><ele>52.0</ele><time>2026-03-29T15:20:06.001Z</time></trkpt><trkpt lat="45.13370586163949" lon="9.755338580822258"><ele>52.0</ele><time>2026-03-29T15:20:07.001Z</time></trkpt><trkpt lat="45.133835353245914" lon="9.755351600212112"><ele>52.0</ele><time>2026-03-29T15:20:08.001Z</time></trkpt><trkpt lat="45.133989656584426" lon="9.755366323400741"><ele>52.0</ele><time>2026-03-29T15:20:09.001Z</time></trkpt><trkpt lat="45.13414253630271" lon="9.755377442694389"><ele>51.75</ele><time>2026-03-29T15:20:10.001Z</time></trkpt><trkpt lat="45.13429172961727" lon="9.755390364211872"><ele>51.5</ele><time>2026-03-29T15:20:11.001Z</time></trkpt><trkpt lat="45.134439132148444" lon="9.755406402948603"><ele>51.25</ele><time>2026-03-29T15:20:12.001Z</time></trkpt><trkpt lat="45.13458751564641" lon="9.755423634639914"><ele>51.0</ele><time>2026-03-29T15:20:13.001Z</time></trkpt><trkpt lat="45.13474586924159" lon="9.75543562308375"><ele>50.66666666666667</ele><time>2026-03-29T15:20:14.001Z</time></trkpt><trkpt lat="45.13490879132024" lon="9.755449596425171"><ele>50.333333333333336</ele><time>2026-03-29T15:20:15.001Z</time></trkpt><trkpt lat="45.135077650301966" lon="9.755467058357896"><ele>50.0</ele><time>2026-03-29T15:20:16.001Z</time></trkpt><trkpt lat="45.135247181765564" lon="9.755473141307007"><ele>50.0</ele><time>2026-03-29T15:20:17Z</time></trkpt><trkpt lat="45.13542035989615" lon="9.755482988911407"><ele>50.0</ele><time>2026-03-29T15:20:18Z</time></trkpt><trkpt lat="45.13559406673296" lon="9.755498829291444"><ele>50.0</ele><time>2026-03-29T15:20:19Z</time></trkpt><trkpt lat="45.13577067248797" lon="9.755512602401339"><ele>50.0</ele><time>2026-03-29T15:20:20Z</time></trkpt><trkpt lat="45.135945829073115" lon="9.755526320915338"><ele>50.0</ele><time>2026-03-29T15:20:21Z</time></trkpt><trkpt lat="45.13611960699178" lon="9.755536651008136"><ele>50.0</ele><time>2026-03-29T15:20:22Z</time></trkpt><trkpt lat="45.13629120023542" lon="9.755549431720265"><ele>50.0</ele><time>2026-03-29T15:20:23Z</time></trkpt><trkpt lat="45.136450574206656" lon="9.755563933457296"><ele>50.0</ele><time>2026-03-29T15:20:24Z</time></trkpt><trkpt lat="45.13660711355941" lon="9.755595835330665"><ele>50.0</ele><time>2026-03-29T15:20:25Z</time></trkpt><trkpt lat="45.136775637643105" lon="9.75566727612703"><ele>50.333333333333336</ele><time>2026-03-29T15:20:26Z</time></trkpt><trkpt lat="45.136931478736216" lon="9.755674076433657"><ele>50.66666666666667</ele><time>2026-03-29T15:20:27Z</time></trkpt><trkpt lat="45.13708438519883" lon="9.755677404326333"><ele>51.0</ele><time>2026-03-29T15:20:28Z</time></trkpt><trkpt lat="45.13724113417201" lon="9.755723091531939"><ele>50.66666666666667</ele><time>2026-03-29T15:20:29Z</time></trkpt><trkpt lat="45.137391905728315" lon="9.755782158901557"><ele>50.333333333333336</ele><time>2026-03-29T15:20:30Z</time></trkpt><trkpt lat="45.13754249531388" lon="9.755857089823929"><ele>50.0</ele><time>2026-03-29T15:20:31Z</time></trkpt><trkpt lat="45.137690633688344" lon="9.755942549585075"><ele>50.333333333333336</ele><time>2026-03-29T15:20:32Z</time></trkpt><trkpt lat="45.1378402043416" lon="9.756037166965845"><ele>50.66666666666667</ele><time>2026-03-29T15:20:33Z</time></trkpt><trkpt lat="45.13798925184275" lon="9.756155134534502"><ele>51.0</ele><time>2026-03-29T15:20:34Z</time></trkpt><trkpt lat="45.1381324822743" lon="9.756276678632164"><ele>51.66666666666667</ele><time>2026-03-29T15:20:35Z</time></trkpt><trkpt lat="45.13828448253332" lon="9.756416001769129"><ele>52.333333333333336</ele><time>2026-03-29T15:20:36Z</time></trkpt><trkpt lat="45.138447373486976" lon="9.756543863245291"><ele>53.0</ele><time>2026-03-29T15:20:37Z</time></trkpt><trkpt lat="45.138599867073786" lon="9.756667996521472"><ele>53.0</ele><time>2026-03-29T15:20:38Z</time></trkpt><trkpt lat="45.13874425988753" lon="9.756804699860544"><ele>53.0</ele><time>2026-03-29T15:20:39Z</time></trkpt><trkpt lat="45.13889350674772" lon="9.756923404923034"><ele>53.0</ele><time>2026-03-29T15:20:40Z</time></trkpt><trkpt lat="45.139049666162705" lon="9.757024836987172"><ele>52.333333333333336</ele><time>2026-03-29T15:20:41Z</time></trkpt><trkpt lat="45.13920318306663" lon="9.757149082701714"><ele>51.66666666666667</ele><time>2026-03-29T15:20:42Z</time></trkpt><trkpt lat="45.13936723850662" lon="9.757252998104626"><ele>51.0</ele><time>2026-03-29T15:20:43Z</time></trkpt><trkpt lat="45.13953660317529" lon="9.757349479363437"><ele>51.0</ele><time>2026-03-29T15:20:44Z</time></trkpt><trkpt lat="45.13971652869242" lon="9.757446294240419"><ele>51.0</ele><time>2026-03-29T15:20:45Z</time></trkpt><trkpt lat="45.1398667633342" lon="9.757496708416776"><ele>51.0</ele><time>2026-03-29T15:20:46Z</time></trkpt><trkpt lat="45.14007432185277" lon="9.757562831672958"><ele>51.0</ele><time>2026-03-29T15:20:47Z</time></trkpt><trkpt lat="45.14026093571196" lon="9.75764384798495"><ele>51.0</ele><time>2026-03-29T15:20:48Z</time></trkpt><trkpt lat="45.140442445716204" lon="9.757723534043826"><ele>51.0</ele><time>2026-03-29T15:20:49Z</time></trkpt><trkpt lat="45.140622335477374" lon="9.757800366965622"><ele>51.0</ele><time>2026-03-29T15:20:50Z</time></trkpt><trkpt lat="45.14080205032364" lon="9.75789053783354"><ele>51.0</ele><time>2026-03-29T15:20:51Z</time></trkpt><trkpt lat="45.14098275465953" lon="9.757939869951391"><ele>51.0</ele><time>2026-03-29T15:20:52Z</time></trkpt><trkpt lat="45.1411754789234" lon="9.75797107561901"><ele>51.0</ele><time>2026-03-29T15:20:53Z</time></trkpt><trkpt lat="45.14134577536391" lon="9.75803780406952"><ele>51.0</ele><time>2026-03-29T15:20:54Z</time></trkpt><trkpt lat="45.141524875042656" lon="9.75805416557311"><ele>51.0</ele><time>2026-03-29T15:20:55Z</time></trkpt><trkpt lat="45.141717934252235" lon="9.758069751274505"><ele>51.66666666666667</ele><time>2026-03-29T15:20:56Z</time></trkpt><trkpt lat="45.141910310629186" lon="9.75806303872012"><ele>52.333333333333336</ele><time>2026-03-29T15:20:57Z</time></trkpt><trkpt lat="45.142105162345544" lon="9.758025451311315"><ele>53.0</ele><time>2026-03-29T15:20:58Z</time></trkpt><trkpt lat="45.1423002885458" lon="9.757968669093264"><ele>53.0</ele><time>2026-03-29T15:20:59Z</time></trkpt><trkpt lat="45.14249086619276" lon="9.757898686710982"><ele>53.0</ele><time>2026-03-29T15:21:00Z</time></trkpt><trkpt lat="45.142683833209865" lon="9.757819964124282"><ele>53.0</ele><time>2026-03-29T15:21:01Z</time></trkpt><trkpt lat="45.142877094495304" lon="9.757755274313597"><ele>53.0</ele><time>2026-03-29T15:21:02Z</time></trkpt><trkpt lat="45.14305894812982" lon="9.757725289709272"><ele>53.0</ele><time>2026-03-29T15:21:03Z</time></trkpt><trkpt lat="45.14324878540404" lon="9.757673745650004"><ele>53.0</ele><time>2026-03-29T15:21:04Z</time></trkpt><trkpt lat="45.143442465991" lon="9.757668663266289"><ele>52.66666666666667</ele><time>2026-03-29T15:21:05Z</time></trkpt><trkpt lat="45.143634556101176" lon="9.75767436831732"><ele>52.33333333333333</ele><time>2026-03-29T15:21:06Z</time></trkpt><trkpt lat="45.14383228256343" lon="9.757681310604376"><ele>52.0</ele><time>2026-03-29T15:21:07Z</time></trkpt><trkpt lat="45.144024628162335" lon="9.757686101185586"><ele>52.0</ele><time>2026-03-29T15:21:08Z</time></trkpt><trkpt lat="45.14421686711607" lon="9.75768434216662"><ele>52.0</ele><time>2026-03-29T15:21:09Z</time></trkpt><trkpt lat="45.144409911684846" lon="9.757690708095394"><ele>52.0</ele><time>2026-03-29T15:21:10Z</time></trkpt><trkpt lat="45.14459094322564" lon="9.75769148693944"><ele>51.666666666666664</ele><time>2026-03-29T15:21:11Z</time></trkpt><trkpt lat="45.144780303199475" lon="9.757706020438137"><ele>51.33333333333333</ele><time>2026-03-29T15:21:12Z</time></trkpt><trkpt lat="45.144927730291805" lon="9.757702922016234"><ele>51.0</ele><time>2026-03-29T15:21:13Z</time></trkpt><trkpt lat="45.14508989999006" lon="9.757700827077342"><ele>51.0</ele><time>2026-03-29T15:21:14Z</time></trkpt><trkpt lat="45.14524223170596" lon="9.757708053798718"><ele>51.0</ele><time>2026-03-29T15:21:15Z</time></trkpt><trkpt lat="45.14540376905649" lon="9.757698806805696"><ele>51.0</ele><time>2026-03-29T15:21:16Z</time></trkpt><trkpt lat="45.145567750836555" lon="9.757703890261142"><ele>50.66666666666667</ele><time>2026-03-29T15:21:17Z</time></trkpt><trkpt lat="45.14573745531366" lon="9.757708449393665"><ele>50.333333333333336</ele><time>2026-03-29T15:21:18Z</time></trkpt><trkpt lat="45.14592052972014" lon="9.757713769539535"><ele>50.0</ele><time>2026-03-29T15:21:19Z</time></trkpt><trkpt lat="45.14609605046262" lon="9.757710084486918"><ele>50.0</ele><time>2026-03-29T15:21:20Z</time></trkpt><trkpt lat="45.146276770759094" lon="9.75771501792004"><ele>50.0</ele><time>2026-03-29T15:21:21Z</time></trkpt><trkpt lat="45.14645077068974" lon="9.757693816835605"><ele>50.0</ele><time>2026-03-29T15:21:22Z</time></trkpt><trkpt lat="45.14662946241744" lon="9.757692223458427"><ele>50.66666666666667</ele><time>2026-03-29T15:21:23Z</time></trkpt><trkpt lat="45.14680559866289" lon="9.757678915104604"><ele>51.33333333333333</ele><time>2026-03-29T15:21:24Z</time></trkpt><trkpt lat="45.14697295860595" lon="9.757664325209156"><ele>52.0</ele><time>2026-03-29T15:21:25Z</time></trkpt><trkpt lat="45.14712819042893" lon="9.757648660862873"><ele>52.0</ele><time>2026-03-29T15:21:26Z</time></trkpt><trkpt lat="45.14728533171766" lon="9.757635358708031"><ele>52.0</ele><time>2026-03-29T15:21:27Z</time></trkpt><trkpt lat="45.147441882324756" lon="9.757622072734408"><ele>52.0</ele><time>2026-03-29T15:21:28Z</time></trkpt><trkpt lat="45.14759869922746" lon="9.7576049868185"><ele>52.33333333333333</ele><time>2026-03-29T15:21:29Z</time></trkpt><trkpt lat="45.147748289302235" lon="9.757592897883931"><ele>52.66666666666667</ele><time>2026-03-29T15:21:30Z</time></trkpt><trkpt lat="45.147901079400434" lon="9.757563769477395"><ele>53.0</ele><time>2026-03-29T15:21:31Z</time></trkpt><trkpt lat="45.14805276014383" lon="9.75751883133261"><ele>53.0</ele><time>2026-03-29T15:21:32Z</time></trkpt><trkpt lat="45.14820678946163" lon="9.757459492419152"><ele>53.0</ele><time>2026-03-29T15:21:33Z</time></trkpt><trkpt lat="45.14835836448129" lon="9.757382091529248"><ele>53.0</ele><time>2026-03-29T15:21:34Z</time></trkpt><trkpt lat="45.148500009764156" lon="9.757325381583764"><ele>52.75</ele><time>2026-03-29T15:21:35Z</time></trkpt><trkpt lat="45.148630614595774" lon="9.757244034661374"><ele>52.5</ele><time>2026-03-29T15:21:36Z</time></trkpt><trkpt lat="45.14875111856204" lon="9.757134538347406"><ele>52.25</ele><time>2026-03-29T15:21:37Z</time></trkpt><trkpt lat="45.14888901384594" lon="9.757064615682058"><ele>52.0</ele><time>2026-03-29T15:21:38Z</time></trkpt><trkpt lat="45.14901879336832" lon="9.7569753578603"><ele>52.0</ele><time>2026-03-29T15:21:39Z</time></trkpt><trkpt lat="45.14914597743787" lon="9.756865143894654"><ele>52.0</ele><time>2026-03-29T15:21:40Z</time></trkpt><trkpt lat="45.149283860311456" lon="9.756783336663071"><ele>52.0</ele><time>2026-03-29T15:21:41Z</time></trkpt><trkpt lat="45.149422872582065" lon="9.756718103167596"><ele>52.0</ele><time>2026-03-29T15:21:42Z</time></trkpt><trkpt lat="45.14956662845334" lon="9.756677678578741"><ele>52.0</ele><time>2026-03-29T15:21:43Z</time></trkpt><trkpt lat="45.149712200099465" lon="9.756653863602091"><ele>52.0</ele><time>2026-03-29T15:21:44Z</time></trkpt><trkpt lat="45.149853370438116" lon="9.756649270036798"><ele>52.0</ele><time>2026-03-29T15:21:45Z</time></trkpt><trkpt lat="45.149992129724616" lon="9.756654898855855"><ele>52.0</ele><time>2026-03-29T15:21:46Z</time></trkpt><trkpt lat="45.15013057587664" lon="9.756679115559104"><ele>52.0</ele><time>2026-03-29T15:21:47Z</time></trkpt><trkpt lat="45.15026854012999" lon="9.756717654041287"><ele>52.0</ele><time>2026-03-29T15:21:48Z</time></trkpt><trkpt lat="45.15040703989138" lon="9.756775235281827"><ele>52.0</ele><time>2026-03-29T15:21:49Z</time></trkpt><trkpt lat="45.15054843322001" lon="9.75685592229993"><ele>52.0</ele><time>2026-03-29T15:21:50Z</time></trkpt><trkpt lat="45.15069225696279" lon="9.75693742533984"><ele>52.666666666666664</ele><time>2026-03-29T15:21:51Z</time></trkpt><trkpt lat="45.15082734880117" lon="9.757052703412743"><ele>53.33333333333333</ele><time>2026-03-29T15:21:52.001Z</time></trkpt><trkpt lat="45.15095338882809" lon="9.757179658064754"><ele>54.0</ele><time>2026-03-29T15:21:53.001Z</time></trkpt><trkpt lat="45.15106935321924" lon="9.757315806563906"><ele>54.0</ele><time>2026-03-29T15:21:54.001Z</time></trkpt><trkpt lat="45.151179688795224" lon="9.757422340377898"><ele>54.0</ele><time>2026-03-29T15:21:55.001Z</time></trkpt><trkpt lat="45.15130278685564" lon="9.757543888329272"><ele>54.0</ele><time>2026-03-29T15:21:56.001Z</time></trkpt><trkpt lat="45.151424165574255" lon="9.757674599999275"><ele>54.0</ele><time>2026-03-29T15:21:57.001Z</time></trkpt><trkpt lat="45.15153886238599" lon="9.757778550674256"><ele>54.0</ele><time>2026-03-29T15:21:58.001Z</time></trkpt><trkpt lat="45.15165316549577" lon="9.757902629701556"><ele>54.0</ele><time>2026-03-29T15:21:59.001Z</time></trkpt><trkpt lat="45.15176686796219" lon="9.758022627728403"><ele>54.0</ele><time>2026-03-29T15:22:00.001Z</time></trkpt><trkpt lat="45.151869607988466" lon="9.758129333033143"><ele>54.0</ele><time>2026-03-29T15:22:01.001Z</time></trkpt><trkpt lat="45.1519784370479" lon="9.758243485876353"><ele>54.0</ele><time>2026-03-29T15:22:02.001Z</time></trkpt><trkpt lat="45.15208784177153" lon="9.758359630979134"><ele>54.0</ele><time>2026-03-29T15:22:03.001Z</time></trkpt><trkpt lat="45.15219709945175" lon="9.75846925159202"><ele>54.0</ele><time>2026-03-29T15:22:04.001Z</time></trkpt><trkpt lat="45.152309285246766" lon="9.758572030892912"><ele>54.0</ele><time>2026-03-29T15:22:05.001Z</time></trkpt><trkpt lat="45.152429766635485" lon="9.758654819084034"><ele>53.75</ele><time>2026-03-29T15:22:06.001Z</time></trkpt><trkpt lat="45.15255665876623" lon="9.758724973219445"><ele>53.5</ele><time>2026-03-29T15:22:07.001Z</time></trkpt><trkpt lat="45.15268807637133" lon="9.758782590638623"><ele>53.25</ele><time>2026-03-29T15:22:08.001Z</time></trkpt><trkpt lat="45.152825005163415" lon="9.758828643721477"><ele>53.0</ele><time>2026-03-29T15:22:09.001Z</time></trkpt><trkpt lat="45.15296614636683" lon="9.758858850838566"><ele>53.0</ele><time>2026-03-29T15:22:10.001Z</time></trkpt><trkpt lat="45.15310569429243" lon="9.75887098335682"><ele>53.0</ele><time>2026-03-29T15:22:11.001Z</time></trkpt><trkpt lat="45.15325172024574" lon="9.758867428500821"><ele>53.0</ele><time>2026-03-29T15:22:12.001Z</time></trkpt><trkpt lat="45.153401002397324" lon="9.758842591574203"><ele>53.0</ele><time>2026-03-29T15:22:13.001Z</time></trkpt><trkpt lat="45.153537601086136" lon="9.758790857919525"><ele>53.66666666666667</ele><time>2026-03-29T15:22:14.001Z</time></trkpt><trkpt lat="45.15369524387753" lon="9.758758130025871"><ele>54.33333333333333</ele><time>2026-03-29T15:22:15.001Z</time></trkpt><trkpt lat="45.15384316177465" lon="9.758691771569728"><ele>55.0</ele><time>2026-03-29T15:22:16Z</time></trkpt><trkpt lat="45.15397288411743" lon="9.758623025641809"><ele>54.666666666666664</ele><time>2026-03-29T15:22:17Z</time></trkpt><trkpt lat="45.15413571034129" lon="9.758519633462996"><ele>54.33333333333333</ele><time>2026-03-29T15:22:18Z</time></trkpt><trkpt lat="45.154296660738694" lon="9.758460262550084"><ele>54.0</ele><time>2026-03-29T15:22:19Z</time></trkpt><trkpt lat="45.15444376207688" lon="9.758386314375338"><ele>54.0</ele><time>2026-03-29T15:22:20Z</time></trkpt><trkpt lat="45.15455286624203" lon="9.758331467386192"><ele>54.0</ele><time>2026-03-29T15:22:21Z</time></trkpt><trkpt lat="45.15469932097716" lon="9.758257844320035"><ele>54.0</ele><time>2026-03-29T15:22:22Z</time></trkpt><trkpt lat="45.154831781995505" lon="9.75819125591601"><ele>54.0</ele><time>2026-03-29T15:22:23Z</time></trkpt><trkpt lat="45.154964341644344" lon="9.758124617981313"><ele>53.75</ele><time>2026-03-29T15:22:24Z</time></trkpt><trkpt lat="45.155097542736264" lon="9.758057657449752"><ele>53.5</ele><time>2026-03-29T15:22:25Z</time></trkpt><trkpt lat="45.155234353313034" lon="9.757988882427938"><ele>53.25</ele><time>2026-03-29T15:22:26Z</time></trkpt><trkpt lat="45.15536718897503" lon="9.75792211755392"><ele>53.0</ele><time>2026-03-29T15:22:27Z</time></trkpt><trkpt lat="45.1555078689247" lon="9.75785234027998"><ele>53.0</ele><time>2026-03-29T15:22:28Z</time></trkpt><trkpt lat="45.15563433931435" lon="9.757765421199519"><ele>53.0</ele><time>2026-03-29T15:22:29Z</time></trkpt><trkpt lat="45.155777259437514" lon="9.757698493615894"><ele>53.0</ele><time>2026-03-29T15:22:30Z</time></trkpt><trkpt lat="45.15591715050108" lon="9.75762743012124"><ele>53.0</ele><time>2026-03-29T15:22:31Z</time></trkpt><trkpt lat="45.156060210201844" lon="9.757567330416029"><ele>53.66666666666667</ele><time>2026-03-29T15:22:32Z</time></trkpt><trkpt lat="45.15620763733287" lon="9.757514954088101"><ele>54.33333333333333</ele><time>2026-03-29T15:22:33Z</time></trkpt><trkpt lat="45.15635481322797" lon="9.757476855097886"><ele>55.0</ele><time>2026-03-29T15:22:34Z</time></trkpt><trkpt lat="45.15650753955296" lon="9.757442426482235"><ele>54.75</ele><time>2026-03-29T15:22:35Z</time></trkpt><trkpt lat="45.15665816135611" lon="9.757406336563758"><ele>54.5</ele><time>2026-03-29T15:22:36Z</time></trkpt><trkpt lat="45.15679832432752" lon="9.757383054345333"><ele>54.25</ele><time>2026-03-29T15:22:37Z</time></trkpt><trkpt lat="45.15693545077193" lon="9.757352975400604"><ele>54.0</ele><time>2026-03-29T15:22:38Z</time></trkpt><trkpt lat="45.15707259798644" lon="9.757323735919094"><ele>54.0</ele><time>2026-03-29T15:22:39Z</time></trkpt><trkpt lat="45.1572176112032" lon="9.757291291855164"><ele>54.0</ele><time>2026-03-29T15:22:40Z</time></trkpt><trkpt lat="45.157365404330164" lon="9.757263434055183"><ele>54.0</ele><time>2026-03-29T15:22:41Z</time></trkpt><trkpt lat="45.1575152820042" lon="9.757227734190732"><ele>54.0</ele><time>2026-03-29T15:22:42Z</time></trkpt><trkpt lat="45.15766371167649" lon="9.757199289169469"><ele>54.33333333333333</ele><time>2026-03-29T15:22:43Z</time></trkpt><trkpt lat="45.15781641689031" lon="9.757174541787748"><ele>54.666666666666664</ele><time>2026-03-29T15:22:44Z</time></trkpt><trkpt lat="45.15796609768537" lon="9.757143996568972"><ele>55.0</ele><time>2026-03-29T15:22:45Z</time></trkpt><trkpt lat="45.15812263752351" lon="9.757114477315687"><ele>55.666666666666664</ele><time>2026-03-29T15:22:46Z</time></trkpt><trkpt lat="45.158272381015294" lon="9.757076691541634"><ele>56.33333333333333</ele><time>2026-03-29T15:22:47Z</time></trkpt><trkpt lat="45.15842634346103" lon="9.757037635515127"><ele>57.0</ele><time>2026-03-29T15:22:48Z</time></trkpt><trkpt lat="45.158580725070344" lon="9.757002483327886"><ele>57.0</ele><time>2026-03-29T15:22:49Z</time></trkpt><trkpt lat="45.15873855415889" lon="9.756962253925083"><ele>57.0</ele><time>2026-03-29T15:22:50Z</time></trkpt><trkpt lat="45.15889099603021" lon="9.756918555052755"><ele>57.0</ele><time>2026-03-29T15:22:51Z</time></trkpt><trkpt lat="45.15903936729845" lon="9.75686791052444"><ele>56.5</ele><time>2026-03-29T15:22:52Z</time></trkpt><trkpt lat="45.15918712170893" lon="9.756820360268181"><ele>56.0</ele><time>2026-03-29T15:22:53Z</time></trkpt><trkpt lat="45.159331651528866" lon="9.756762690143537"><ele>55.5</ele><time>2026-03-29T15:22:54Z</time></trkpt><trkpt lat="45.159475793625404" lon="9.75672697087598"><ele>55.0</ele><time>2026-03-29T15:22:55Z</time></trkpt><trkpt lat="45.159616125748364" lon="9.756679189358405"><ele>55.0</ele><time>2026-03-29T15:22:56Z</time></trkpt><trkpt lat="45.15976645017901" lon="9.756669963179666"><ele>55.0</ele><time>2026-03-29T15:22:57Z</time></trkpt><trkpt lat="45.15990115018662" lon="9.756666227987127"><ele>55.0</ele><time>2026-03-29T15:22:58Z</time></trkpt><trkpt lat="45.16001341786633" lon="9.75670615404783"><ele>55.0</ele><time>2026-03-29T15:22:59Z</time></trkpt><trkpt lat="45.160189576160256" lon="9.756728053067224"><ele>55.0</ele><time>2026-03-29T15:23:00Z</time></trkpt><trkpt lat="45.160348287473184" lon="9.756762322493744"><ele>55.0</ele><time>2026-03-29T15:23:01Z</time></trkpt><trkpt lat="45.160503713271645" lon="9.75680327074241"><ele>55.0</ele><time>2026-03-29T15:23:02Z</time></trkpt><trkpt lat="45.16069293201008" lon="9.756892419893052"><ele>54.75</ele><time>2026-03-29T15:23:03Z</time></trkpt><trkpt lat="45.16079255293861" lon="9.756927406321703"><ele>54.5</ele><time>2026-03-29T15:23:04Z</time></trkpt><trkpt lat="45.16093443325367" lon="9.75698819499979"><ele>54.25</ele><time>2026-03-29T15:23:05Z</time></trkpt><trkpt lat="45.16106338850627" lon="9.757048612454206"><ele>54.0</ele><time>2026-03-29T15:23:06Z</time></trkpt><trkpt lat="45.16118161583285" lon="9.757097610513375"><ele>54.0</ele><time>2026-03-29T15:23:07Z</time></trkpt><trkpt lat="45.16130752542973" lon="9.757151732682177"><ele>54.0</ele><time>2026-03-29T15:23:08Z</time></trkpt><trkpt lat="45.16143311850887" lon="9.757203443070303"><ele>54.0</ele><time>2026-03-29T15:23:09Z</time></trkpt><trkpt lat="45.16155441413067" lon="9.7572591651592"><ele>54.0</ele><time>2026-03-29T15:23:10Z</time></trkpt><trkpt lat="45.16167012195621" lon="9.757307262939506"><ele>54.0</ele><time>2026-03-29T15:23:11Z</time></trkpt><trkpt lat="45.16178337098271" lon="9.757353315575536"><ele>54.0</ele><time>2026-03-29T15:23:12Z</time></trkpt><trkpt lat="45.16189388111173" lon="9.757398277053294"><ele>54.0</ele><time>2026-03-29T15:23:13Z</time></trkpt><trkpt lat="45.162014596162884" lon="9.75745202666089"><ele>54.0</ele><time>2026-03-29T15:23:14Z</time></trkpt><trkpt lat="45.16213363780365" lon="9.757509935176907"><ele>54.0</ele><time>2026-03-29T15:23:15Z</time></trkpt><trkpt lat="45.16225788701168" lon="9.757580726374604"><ele>54.0</ele><time>2026-03-29T15:23:16Z</time></trkpt><trkpt lat="45.162371472086804" lon="9.7577031350217"><ele>54.0</ele><time>2026-03-29T15:23:17Z</time></trkpt><trkpt lat="45.162489923846245" lon="9.757796875529095"><ele>54.0</ele><time>2026-03-29T15:23:18Z</time></trkpt><trkpt lat="45.16260553727899" lon="9.757924345113912"><ele>53.5</ele><time>2026-03-29T15:23:19Z</time></trkpt><trkpt lat="45.16271087272526" lon="9.758059661991695"><ele>53.0</ele><time>2026-03-29T15:23:20Z</time></trkpt><trkpt lat="45.16278982233664" lon="9.758218963755182"><ele>52.5</ele><time>2026-03-29T15:23:21Z</time></trkpt><trkpt lat="45.16288161746694" lon="9.758348534223048"><ele>52.0</ele><time>2026-03-29T15:23:22Z</time></trkpt><trkpt lat="45.16294181698509" lon="9.75851388068283"><ele>52.25</ele><time>2026-03-29T15:23:23Z</time></trkpt><trkpt lat="45.16301393152122" lon="9.758665469690618"><ele>52.5</ele><time>2026-03-29T15:23:24Z</time></trkpt><trkpt lat="45.16307065701063" lon="9.758824466187779"><ele>52.75</ele><time>2026-03-29T15:23:25Z</time></trkpt><trkpt lat="45.163124343076724" lon="9.758984886273163"><ele>53.0</ele><time>2026-03-29T15:23:26Z</time></trkpt><trkpt lat="45.16316346796474" lon="9.759126989014336"><ele>53.16666666666667</ele><time>2026-03-29T15:23:27Z</time></trkpt><trkpt lat="45.16320992220556" lon="9.759262649702489"><ele>53.333333333333336</ele><time>2026-03-29T15:23:28Z</time></trkpt><trkpt lat="45.16325012203464" lon="9.759386747176373"><ele>53.5</ele><time>2026-03-29T15:23:29Z</time></trkpt><trkpt lat="45.16328719107977" lon="9.759503584202676"><ele>53.66666666666667</ele><time>2026-03-29T15:23:30Z</time></trkpt><trkpt lat="45.16331319798979" lon="9.75961164925391"><ele>53.833333333333336</ele><time>2026-03-29T15:23:31Z</time></trkpt><trkpt lat="45.16333753284705" lon="9.759698832495868"><ele>54.0</ele><time>2026-03-29T15:23:32Z</time></trkpt><trkpt lat="45.16335937319636" lon="9.759866969408922"><ele>54.166666666666664</ele><time>2026-03-29T15:23:34Z</time></trkpt><trkpt lat="45.163365671090254" lon="9.759964774692515"><ele>54.33333333333333</ele><time>2026-03-29T15:23:35Z</time></trkpt><trkpt lat="45.16336013050349" lon="9.760072107403873"><ele>54.5</ele><time>2026-03-29T15:23:36Z</time></trkpt><trkpt lat="45.163333071023075" lon="9.760173882806427"><ele>54.666666666666664</ele><time>2026-03-29T15:23:37Z</time></trkpt><trkpt lat="45.16332448129035" lon="9.760281404633295"><ele>54.83333333333333</ele><time>2026-03-29T15:23:38Z</time></trkpt><trkpt lat="45.16336000933158" lon="9.760382862310506"><ele>55.0</ele><time>2026-03-29T15:23:39Z</time></trkpt><trkpt lat="45.16342213874216" lon="9.760460576550926"><ele>54.99999999999999</ele><time>2026-03-29T15:23:40Z</time></trkpt><trkpt lat="45.163498188807935" lon="9.760484934246943"><ele>55.0</ele><time>2026-03-29T15:23:41Z</time></trkpt><trkpt lat="45.163572445908386" lon="9.760499423731938"><ele>55.0</ele><time>2026-03-29T15:23:42Z</time></trkpt><trkpt lat="45.16363628654778" lon="9.76044689946454"><ele>55.0</ele><time>2026-03-29T15:23:43Z</time></trkpt><trkpt lat="45.16368489490463" lon="9.760355946610195"><ele>54.99999999999999</ele><time>2026-03-29T15:23:44Z</time></trkpt><trkpt lat="45.163727632656546" lon="9.760237947800544"><ele>55.0</ele><time>2026-03-29T15:23:45Z</time></trkpt><trkpt lat="45.16375686280278" lon="9.760106881468372"><ele>55.0</ele><time>2026-03-29T15:23:46Z</time></trkpt><trkpt lat="45.1638017210629" lon="9.759961481079971"><ele>55.0</ele><time>2026-03-29T15:23:47Z</time></trkpt><trkpt lat="45.163865901805224" lon="9.759829321235136"><ele>55.0</ele><time>2026-03-29T15:23:48Z</time></trkpt><trkpt lat="45.16395683427377" lon="9.75968953186326"><ele>55.0</ele><time>2026-03-29T15:23:49Z</time></trkpt><trkpt lat="45.164052528281424" lon="9.759531286350132"><ele>55.33333333333333</ele><time>2026-03-29T15:23:50Z</time></trkpt><trkpt lat="45.16414839340672" lon="9.759370485526123"><ele>55.66666666666667</ele><time>2026-03-29T15:23:51Z</time></trkpt><trkpt lat="45.16424956126495" lon="9.759215720763667"><ele>56.0</ele><time>2026-03-29T15:23:52Z</time></trkpt><trkpt lat="45.16435423654272" lon="9.759055672934037"><ele>56.0</ele><time>2026-03-29T15:23:53Z</time></trkpt><trkpt lat="45.164476215051614" lon="9.7588838941664"><ele>56.0</ele><time>2026-03-29T15:23:54Z</time></trkpt><trkpt lat="45.164584217543506" lon="9.75872006993943"><ele>56.0</ele><time>2026-03-29T15:23:55Z</time></trkpt><trkpt lat="45.16468758284811" lon="9.758554873264066"><ele>56.0</ele><time>2026-03-29T15:23:56Z</time></trkpt><trkpt lat="45.1647855516456" lon="9.758397331507586"><ele>56.0</ele><time>2026-03-29T15:23:57Z</time></trkpt><trkpt lat="45.16488287525387" lon="9.758258064474942"><ele>56.0</ele><time>2026-03-29T15:23:58.001Z</time></trkpt><trkpt lat="45.164977852075644" lon="9.75811255558595"><ele>56.0</ele><time>2026-03-29T15:23:59.001Z</time></trkpt><trkpt lat="45.16506886335132" lon="9.757972526166254"><ele>56.00000000000001</ele><time>2026-03-29T15:24:00.001Z</time></trkpt><trkpt lat="45.165148417919525" lon="9.75784555544731"><ele>56.0</ele><time>2026-03-29T15:24:01.001Z</time></trkpt><trkpt lat="45.16521754261857" lon="9.757742355621431"><ele>56.0</ele><time>2026-03-29T15:24:02.001Z</time></trkpt><trkpt lat="45.165273406566186" lon="9.757656371038797"><ele>56.0</ele><time>2026-03-29T15:24:03.001Z</time></trkpt><trkpt lat="45.16532255011645" lon="9.757582666530846"><ele>56.00000000000001</ele><time>2026-03-29T15:24:04.001Z</time></trkpt><trkpt lat="45.16537162951825" lon="9.757507601867193"><ele>56.0</ele><time>2026-03-29T15:24:05.001Z</time></trkpt><trkpt lat="45.165419926963445" lon="9.757440015768307"><ele>56.00000000000001</ele><time>2026-03-29T15:24:06.001Z</time></trkpt><trkpt lat="45.1654760004318" lon="9.757380948992772"><ele>56.0</ele><time>2026-03-29T15:24:07.001Z</time></trkpt><trkpt lat="45.165548341906295" lon="9.757335038145557"><ele>56.0</ele><time>2026-03-29T15:24:08.001Z</time></trkpt><trkpt lat="45.16563225636165" lon="9.757323774071002"><ele>56.0</ele><time>2026-03-29T15:24:09.001Z</time></trkpt><trkpt lat="45.165730194310875" lon="9.757321031324048"><ele>56.00000000000001</ele><time>2026-03-29T15:24:10.001Z</time></trkpt><trkpt lat="45.16582415448029" lon="9.75731963916572"><ele>56.0</ele><time>2026-03-29T15:24:11.001Z</time></trkpt><trkpt lat="45.16591231745746" lon="9.757271502989765"><ele>56.199999999999996</ele><time>2026-03-29T15:24:12.001Z</time></trkpt><trkpt lat="45.16598907438765" lon="9.757172041910072"><ele>56.39999999999999</ele><time>2026-03-29T15:24:13Z</time></trkpt><trkpt lat="45.1660463645801" lon="9.757049562337855"><ele>56.6</ele><time>2026-03-29T15:24:14Z</time></trkpt><trkpt lat="45.166077786773265" lon="9.756891823040952"><ele>56.8</ele><time>2026-03-29T15:24:15Z</time></trkpt><trkpt lat="45.16610063706801" lon="9.756727006266521"><ele>57.0</ele><time>2026-03-29T15:24:16Z</time></trkpt><trkpt lat="45.16612411656103" lon="9.756558054058873"><ele>57.0</ele><time>2026-03-29T15:24:17Z</time></trkpt><trkpt lat="45.16616487385538" lon="9.756382720740834"><ele>57.0</ele><time>2026-03-29T15:24:18Z</time></trkpt><trkpt lat="45.1662108852987" lon="9.756195876074939"><ele>57.0</ele><time>2026-03-29T15:24:19Z</time></trkpt><trkpt lat="45.16633901980703" lon="9.756042578984356"><ele>57.0</ele><time>2026-03-29T15:24:20Z</time></trkpt><trkpt lat="45.1664553519568" lon="9.755871017839956"><ele>56.66666666666667</ele><time>2026-03-29T15:24:21Z</time></trkpt><trkpt lat="45.16656011639693" lon="9.755690953594225"><ele>56.333333333333336</ele><time>2026-03-29T15:24:22Z</time></trkpt><trkpt lat="45.16668032515138" lon="9.755517656464521"><ele>56.0</ele><time>2026-03-29T15:24:23Z</time></trkpt><trkpt lat="45.16679940016361" lon="9.755343309020775"><ele>56.333333333333336</ele><time>2026-03-29T15:24:24Z</time></trkpt><trkpt lat="45.16691948601095" lon="9.755152469927635"><ele>56.66666666666667</ele><time>2026-03-29T15:24:25Z</time></trkpt><trkpt lat="45.16703877024216" lon="9.754973129193848"><ele>57.0</ele><time>2026-03-29T15:24:26Z</time></trkpt><trkpt lat="45.167175438071006" lon="9.7547721850293"><ele>57.0</ele><time>2026-03-29T15:24:27Z</time></trkpt><trkpt lat="45.16731533767518" lon="9.754560199957977"><ele>57.0</ele><time>2026-03-29T15:24:28Z</time></trkpt><trkpt lat="45.16745735194806" lon="9.754343533654845"><ele>57.0</ele><time>2026-03-29T15:24:29Z</time></trkpt><trkpt lat="45.16759547642533" lon="9.75412335442276"><ele>57.0</ele><time>2026-03-29T15:24:30Z</time></trkpt><trkpt lat="45.167736411261785" lon="9.75391053183895"><ele>57.0</ele><time>2026-03-29T15:24:31Z</time></trkpt><trkpt lat="45.167878087172674" lon="9.753693045019688"><ele>57.0</ele><time>2026-03-29T15:24:32Z</time></trkpt><trkpt lat="45.1680230965127" lon="9.753477043061045"><ele>57.0</ele><time>2026-03-29T15:24:33Z</time></trkpt><trkpt lat="45.16816801599054" lon="9.753255263786063"><ele>57.0</ele><time>2026-03-29T15:24:34Z</time></trkpt><trkpt lat="45.1683126127349" lon="9.753033450386376"><ele>57.0</ele><time>2026-03-29T15:24:35Z</time></trkpt><trkpt lat="45.168456829167575" lon="9.752813608183462"><ele>57.66666666666667</ele><time>2026-03-29T15:24:36Z</time></trkpt><trkpt lat="45.16859969434215" lon="9.752592161569513"><ele>58.333333333333336</ele><time>2026-03-29T15:24:37Z</time></trkpt><trkpt lat="45.16874553137753" lon="9.752375853225614"><ele>59.0</ele><time>2026-03-29T15:24:38Z</time></trkpt><trkpt lat="45.16888954279692" lon="9.752158179209108"><ele>59.0</ele><time>2026-03-29T15:24:39Z</time></trkpt><trkpt lat="45.169033096428635" lon="9.751934125755318"><ele>59.0</ele><time>2026-03-29T15:24:40Z</time></trkpt><trkpt lat="45.16915828881632" lon="9.75171736241131"><ele>59.0</ele><time>2026-03-29T15:24:41Z</time></trkpt><trkpt lat="45.169318016783905" lon="9.751496239799216"><ele>59.0</ele><time>2026-03-29T15:24:42Z</time></trkpt><trkpt lat="45.16945055281073" lon="9.751291240666445"><ele>59.0</ele><time>2026-03-29T15:24:43Z</time></trkpt><trkpt lat="45.169572862599495" lon="9.751097687440318"><ele>59.0</ele><time>2026-03-29T15:24:44Z</time></trkpt><trkpt lat="45.16969243860363" lon="9.750935230958893"><ele>58.333333333333336</ele><time>2026-03-29T15:24:45Z</time></trkpt><trkpt lat="45.16980940753516" lon="9.750763605272702"><ele>57.66666666666667</ele><time>2026-03-29T15:24:46Z</time></trkpt><trkpt lat="45.16993035599776" lon="9.750587207742747"><ele>57.0</ele><time>2026-03-29T15:24:47Z</time></trkpt><trkpt lat="45.170056227609194" lon="9.7504100338692"><ele>57.0</ele><time>2026-03-29T15:24:48Z</time></trkpt><trkpt lat="45.17018802981201" lon="9.750228267768236"><ele>57.0</ele><time>2026-03-29T15:24:49Z</time></trkpt><trkpt lat="45.170323702311414" lon="9.7500452023467"><ele>57.0</ele><time>2026-03-29T15:24:50Z</time></trkpt><trkpt lat="45.17046619341299" lon="9.749859050825618"><ele>56.66666666666667</ele><time>2026-03-29T15:24:51Z</time></trkpt><trkpt lat="45.170612571898666" lon="9.74967691679448"><ele>56.333333333333336</ele><time>2026-03-29T15:24:52Z</time></trkpt><trkpt lat="45.170764815763484" lon="9.749502725711185"><ele>56.0</ele><time>2026-03-29T15:24:53Z</time></trkpt><trkpt lat="45.17092018506619" lon="9.749336862432939"><ele>56.0</ele><time>2026-03-29T15:24:54Z</time></trkpt><trkpt lat="45.17107592189382" lon="9.749171324217798"><ele>56.0</ele><time>2026-03-29T15:24:55Z</time></trkpt><trkpt lat="45.17123656889875" lon="9.749018905817202"><ele>56.0</ele><time>2026-03-29T15:24:56Z</time></trkpt><trkpt lat="45.17140229841339" lon="9.748863181618287"><ele>56.333333333333336</ele><time>2026-03-29T15:24:57Z</time></trkpt><trkpt lat="45.171572434057005" lon="9.748709216693603"><ele>56.66666666666667</ele><time>2026-03-29T15:24:58Z</time></trkpt><trkpt lat="45.17174284590653" lon="9.748559074042744"><ele>57.0</ele><time>2026-03-29T15:24:59Z</time></trkpt><trkpt lat="45.1719183515508" lon="9.748410716601077"><ele>57.0</ele><time>2026-03-29T15:25:00Z</time></trkpt><trkpt lat="45.172107788164574" lon="9.748264649800316"><ele>57.0</ele><time>2026-03-29T15:25:01Z</time></trkpt><trkpt lat="45.17229306771736" lon="9.748126521744567"><ele>57.0</ele><time>2026-03-29T15:25:02Z</time></trkpt><trkpt lat="45.172476647714234" lon="9.747996454642928"><ele>57.33333333333333</ele><time>2026-03-29T15:25:03Z</time></trkpt><trkpt lat="45.17266826156484" lon="9.747880588688295"><ele>57.666666666666664</ele><time>2026-03-29T15:25:04Z</time></trkpt><trkpt lat="45.17285850032972" lon="9.747760648003998"><ele>58.0</ele><time>2026-03-29T15:25:05Z</time></trkpt><trkpt lat="45.173048061828446" lon="9.747647594331823"><ele>58.0</ele><time>2026-03-29T15:25:06Z</time></trkpt><trkpt lat="45.173254651368595" lon="9.747562636451857"><ele>58.0</ele><time>2026-03-29T15:25:07Z</time></trkpt><trkpt lat="45.173483346867485" lon="9.747450896922443"><ele>58.0</ele><time>2026-03-29T15:25:08Z</time></trkpt><trkpt lat="45.17370086229218" lon="9.747349679757933"><ele>58.0</ele><time>2026-03-29T15:25:09Z</time></trkpt><trkpt lat="45.17390631261525" lon="9.747265956952178"><ele>58.0</ele><time>2026-03-29T15:25:10Z</time></trkpt><trkpt lat="45.17408938179484" lon="9.747198552020995"><ele>57.75</ele><time>2026-03-29T15:25:11Z</time></trkpt><trkpt lat="45.17425062376605" lon="9.74713041345599"><ele>57.5</ele><time>2026-03-29T15:25:12Z</time></trkpt><trkpt lat="45.174389584189775" lon="9.74708804784724"><ele>57.25</ele><time>2026-03-29T15:25:13Z</time></trkpt><trkpt lat="45.17451057504027" lon="9.747048452289857"><ele>57.0</ele><time>2026-03-29T15:25:14Z</time></trkpt><trkpt lat="45.174643191754704" lon="9.747022653531628"><ele>57.0</ele><time>2026-03-29T15:25:15Z</time></trkpt><trkpt lat="45.174777164056756" lon="9.747006147289914"><ele>57.0</ele><time>2026-03-29T15:25:16Z</time></trkpt><trkpt lat="45.1749018929032" lon="9.747025923753844"><ele>57.0</ele><time>2026-03-29T15:25:17Z</time></trkpt><trkpt lat="45.17501008130837" lon="9.747070735730924"><ele>57.0</ele><time>2026-03-29T15:25:18Z</time></trkpt><trkpt lat="45.17510970185729" lon="9.747108531361722"><ele>57.25</ele><time>2026-03-29T15:25:19Z</time></trkpt><trkpt lat="45.17521483470615" lon="9.747156044775473"><ele>57.5</ele><time>2026-03-29T15:25:20Z</time></trkpt><trkpt lat="45.17531889634558" lon="9.747175793732412"><ele>57.75</ele><time>2026-03-29T15:25:21Z</time></trkpt><trkpt lat="45.17543270231158" lon="9.747094734416939"><ele>58.0</ele><time>2026-03-29T15:25:22Z</time></trkpt><trkpt lat="45.17554886024716" lon="9.746976094027591"><ele>58.0</ele><time>2026-03-29T15:25:23Z</time></trkpt><trkpt lat="45.175677804358536" lon="9.74687506434724"><ele>58.0</ele><time>2026-03-29T15:25:24Z</time></trkpt><trkpt lat="45.17586529347478" lon="9.74676853901927"><ele>58.0</ele><time>2026-03-29T15:25:25Z</time></trkpt><trkpt lat="45.17607498156815" lon="9.746783348671286"><ele>57.666666666666664</ele><time>2026-03-29T15:25:26Z</time></trkpt><trkpt lat="45.17628637682205" lon="9.746781544417596"><ele>57.33333333333333</ele><time>2026-03-29T15:25:27Z</time></trkpt><trkpt lat="45.17649477896735" lon="9.746761332647276"><ele>57.0</ele><time>2026-03-29T15:25:28Z</time></trkpt><trkpt lat="45.17667776271836" lon="9.746745735574628"><ele>57.0</ele><time>2026-03-29T15:25:29Z</time></trkpt><trkpt lat="45.17685508009338" lon="9.746723628882448"><ele>57.0</ele><time>2026-03-29T15:25:30Z</time></trkpt><trkpt lat="45.177032005145485" lon="9.746702187981548"><ele>57.0</ele><time>2026-03-29T15:25:31Z</time></trkpt><trkpt lat="45.17721867543143" lon="9.74669186684673"><ele>56.33333333333333</ele><time>2026-03-29T15:25:32Z</time></trkpt><trkpt lat="45.177399924949675" lon="9.746680650998039"><ele>55.666666666666664</ele><time>2026-03-29T15:25:33Z</time></trkpt><trkpt lat="45.17758217551634" lon="9.746663167714543"><ele>55.0</ele><time>2026-03-29T15:25:34Z</time></trkpt><trkpt lat="45.17776492353266" lon="9.746648224094644"><ele>55.0</ele><time>2026-03-29T15:25:35Z</time></trkpt><trkpt lat="45.177946582683944" lon="9.746635467586879"><ele>55.0</ele><time>2026-03-29T15:25:36Z</time></trkpt><trkpt lat="45.17812359912315" lon="9.746607227894373"><ele>55.0</ele><time>2026-03-29T15:25:37Z</time></trkpt><trkpt lat="45.17831235833007" lon="9.746584931048835"><ele>55.0</ele><time>2026-03-29T15:25:38Z</time></trkpt><trkpt lat="45.1785023235465" lon="9.746572347486287"><ele>55.0</ele><time>2026-03-29T15:25:39Z</time></trkpt><trkpt lat="45.17869028782643" lon="9.746556511864583"><ele>55.0</ele><time>2026-03-29T15:25:40Z</time></trkpt><trkpt lat="45.17888213119908" lon="9.746540505146111"><ele>55.666666666666664</ele><time>2026-03-29T15:25:40.999Z</time></trkpt><trkpt lat="45.17908337561158" lon="9.746519352462723"><ele>56.33333333333333</ele><time>2026-03-29T15:25:41.999Z</time></trkpt><trkpt lat="45.17928965764264" lon="9.746500591858723"><ele>57.0</ele><time>2026-03-29T15:25:42.999Z</time></trkpt><trkpt lat="45.17950109712448" lon="9.746482283515155"><ele>57.0</ele><time>2026-03-29T15:25:43.999Z</time></trkpt><trkpt lat="45.1797053709017" lon="9.746474142930355"><ele>57.0</ele><time>2026-03-29T15:25:44.999Z</time></trkpt><trkpt lat="45.1799054508226" lon="9.746445587877089"><ele>57.0</ele><time>2026-03-29T15:25:45.999Z</time></trkpt><trkpt lat="45.18010864807416" lon="9.74642197041102"><ele>57.33333333333333</ele><time>2026-03-29T15:25:46.999Z</time></trkpt><trkpt lat="45.18031714894281" lon="9.746407446623431"><ele>57.666666666666664</ele><time>2026-03-29T15:25:47.999Z</time></trkpt><trkpt lat="45.18051716252773" lon="9.746387696985847"><ele>58.0</ele><time>2026-03-29T15:25:48.999Z</time></trkpt><trkpt lat="45.180716001783146" lon="9.746367821015214"><ele>58.0</ele><time>2026-03-29T15:25:49.999Z</time></trkpt><trkpt lat="45.180917136786945" lon="9.746350613360855"><ele>58.0</ele><time>2026-03-29T15:25:50.999Z</time></trkpt><trkpt lat="45.18112080105459" lon="9.746336061809647"><ele>58.0</ele><time>2026-03-29T15:25:51.999Z</time></trkpt><trkpt lat="45.18132236119165" lon="9.74631477480233"><ele>57.33333333333333</ele><time>2026-03-29T15:25:52.999Z</time></trkpt><trkpt lat="45.181533299494276" lon="9.746305764635236"><ele>56.66666666666667</ele><time>2026-03-29T15:25:53.999Z</time></trkpt><trkpt lat="45.18175462653089" lon="9.746274039258862"><ele>56.0</ele><time>2026-03-29T15:25:54.999Z</time></trkpt><trkpt lat="45.181975227490575" lon="9.746250298861993"><ele>56.0</ele><time>2026-03-29T15:25:55.999Z</time></trkpt><trkpt lat="45.182187063834654" lon="9.746260484727502"><ele>56.0</ele><time>2026-03-29T15:25:56.999Z</time></trkpt><trkpt lat="45.18240523396742" lon="9.746206711801646"><ele>56.0</ele><time>2026-03-29T15:25:57.999Z</time></trkpt><trkpt lat="45.18260217436534" lon="9.746174741500493"><ele>56.333333333333336</ele><time>2026-03-29T15:25:58.999Z</time></trkpt><trkpt lat="45.18280129262898" lon="9.746111610677643"><ele>56.66666666666667</ele><time>2026-03-29T15:25:59.999Z</time></trkpt><trkpt lat="45.18301030122849" lon="9.746046171464567"><ele>57.0</ele><time>2026-03-29T15:26:00.999Z</time></trkpt><trkpt lat="45.18321965566753" lon="9.745955177652815"><ele>57.0</ele><time>2026-03-29T15:26:01.999Z</time></trkpt><trkpt lat="45.18341531078708" lon="9.745833112355108"><ele>57.0</ele><time>2026-03-29T15:26:02.999Z</time></trkpt><trkpt lat="45.18362028126389" lon="9.745729030176525"><ele>57.0</ele><time>2026-03-29T15:26:04Z</time></trkpt><trkpt lat="45.183816599177334" lon="9.745606076438628"><ele>57.0</ele><time>2026-03-29T15:26:05Z</time></trkpt><trkpt lat="45.184024555497615" lon="9.745448579306363"><ele>57.0</ele><time>2026-03-29T15:26:06Z</time></trkpt><trkpt lat="45.1841922739442" lon="9.745310842459222"><ele>57.0</ele><time>2026-03-29T15:26:07Z</time></trkpt><trkpt lat="45.184355077406785" lon="9.745163260640993"><ele>57.0</ele><time>2026-03-29T15:26:08Z</time></trkpt><trkpt lat="45.184508658710996" lon="9.745017442283341"><ele>57.0</ele><time>2026-03-29T15:26:09Z</time></trkpt><trkpt lat="45.18465308051719" lon="9.744865041540557"><ele>57.0</ele><time>2026-03-29T15:26:10Z</time></trkpt><trkpt lat="45.184773176457455" lon="9.744719454324132"><ele>57.25</ele><time>2026-03-29T15:26:11Z</time></trkpt><trkpt lat="45.18488297522134" lon="9.744587722408694"><ele>57.5</ele><time>2026-03-29T15:26:12Z</time></trkpt><trkpt lat="45.18498678543656" lon="9.744453791110843"><ele>57.75</ele><time>2026-03-29T15:26:13Z</time></trkpt><trkpt lat="45.18508009980925" lon="9.744350800777157"><ele>58.0</ele><time>2026-03-29T15:26:14Z</time></trkpt><trkpt lat="45.18516694555348" lon="9.744259768865396"><ele>58.2</ele><time>2026-03-29T15:26:15Z</time></trkpt><trkpt lat="45.185252037195475" lon="9.744190946050917"><ele>58.4</ele><time>2026-03-29T15:26:16Z</time></trkpt><trkpt lat="45.18533494143689" lon="9.744145997256322"><ele>58.60000000000001</ele><time>2026-03-29T15:26:17Z</time></trkpt><trkpt lat="45.185411961805265" lon="9.744093092266537"><ele>58.800000000000004</ele><time>2026-03-29T15:26:18Z</time></trkpt><trkpt lat="45.185448779527654" lon="9.743987508554271"><ele>59.0</ele><time>2026-03-29T15:26:19Z</time></trkpt><trkpt lat="45.18544478108417" lon="9.743823317823896"><ele>59.0</ele><time>2026-03-29T15:26:20Z</time></trkpt><trkpt lat="45.18540594500323" lon="9.743669177512905"><ele>59.00000000000001</ele><time>2026-03-29T15:26:21Z</time></trkpt><trkpt lat="45.185401763005665" lon="9.74350895872192"><ele>59.00000000000001</ele><time>2026-03-29T15:26:22Z</time></trkpt><trkpt lat="45.18543958197787" lon="9.743378566567754"><ele>59.0</ele><time>2026-03-29T15:26:23Z</time></trkpt><trkpt lat="45.18551893641458" lon="9.743279202777556"><ele>59.0</ele><time>2026-03-29T15:26:24Z</time></trkpt><trkpt lat="45.18561304381967" lon="9.743165303800739"><ele>59.25</ele><time>2026-03-29T15:26:25Z</time></trkpt><trkpt lat="45.18569912041446" lon="9.743049868047892"><ele>59.5</ele><time>2026-03-29T15:26:26Z</time></trkpt><trkpt lat="45.18579670068969" lon="9.742912538896"><ele>59.75</ele><time>2026-03-29T15:26:27Z</time></trkpt><trkpt lat="45.18590435678811" lon="9.742762335945164"><ele>60.0</ele><time>2026-03-29T15:26:28Z</time></trkpt><trkpt lat="45.18603290679764" lon="9.742599599226132"><ele>60.0</ele><time>2026-03-29T15:26:29Z</time></trkpt><trkpt lat="45.186169518452914" lon="9.742465671840554"><ele>60.0</ele><time>2026-03-29T15:26:30Z</time></trkpt><trkpt lat="45.18627102809877" lon="9.742282449632986"><ele>60.0</ele><time>2026-03-29T15:26:31Z</time></trkpt><trkpt lat="45.18639421812261" lon="9.742104396808834"><ele>59.33333333333333</ele><time>2026-03-29T15:26:32Z</time></trkpt><trkpt lat="45.186516821284016" lon="9.741923740332153"><ele>58.666666666666664</ele><time>2026-03-29T15:26:33Z</time></trkpt><trkpt lat="45.18664717830549" lon="9.741741947560108"><ele>58.0</ele><time>2026-03-29T15:26:34Z</time></trkpt><trkpt lat="45.18678529873149" lon="9.741562230693944"><ele>58.0</ele><time>2026-03-29T15:26:35Z</time></trkpt><trkpt lat="45.18692419795766" lon="9.741370345212802"><ele>58.0</ele><time>2026-03-29T15:26:36Z</time></trkpt><trkpt lat="45.18706870838041" lon="9.741173456209136"><ele>58.0</ele><time>2026-03-29T15:26:37Z</time></trkpt><trkpt lat="45.18721848451714" lon="9.74097141166969"><ele>58.33333333333333</ele><time>2026-03-29T15:26:38Z</time></trkpt><trkpt lat="45.18736623378821" lon="9.74077119370135"><ele>58.66666666666667</ele><time>2026-03-29T15:26:39Z</time></trkpt><trkpt lat="45.187520121329904" lon="9.74055713858401"><ele>59.0</ele><time>2026-03-29T15:26:40Z</time></trkpt><trkpt lat="45.187669604669104" lon="9.740338426569235"><ele>59.333333333333336</ele><time>2026-03-29T15:26:41Z</time></trkpt><trkpt lat="45.1878237339364" lon="9.740126307222248"><ele>59.66666666666667</ele><time>2026-03-29T15:26:42Z</time></trkpt><trkpt lat="45.18797468616611" lon="9.739914454701031"><ele>60.0</ele><time>2026-03-29T15:26:43Z</time></trkpt><trkpt lat="45.18812900105023" lon="9.73971591583868"><ele>59.66666666666667</ele><time>2026-03-29T15:26:44Z</time></trkpt><trkpt lat="45.188283097766465" lon="9.739503587917037"><ele>59.333333333333336</ele><time>2026-03-29T15:26:45Z</time></trkpt><trkpt lat="45.188435716920175" lon="9.739303786035121"><ele>59.0</ele><time>2026-03-29T15:26:46Z</time></trkpt><trkpt lat="45.188585706012795" lon="9.739102339178286"><ele>59.0</ele><time>2026-03-29T15:26:47Z</time></trkpt><trkpt lat="45.18874053964461" lon="9.738894882950886"><ele>59.0</ele><time>2026-03-29T15:26:48Z</time></trkpt><trkpt lat="45.18890340305275" lon="9.73868880298312"><ele>59.0</ele><time>2026-03-29T15:26:49Z</time></trkpt><trkpt lat="45.18905595705221" lon="9.738493339185753"><ele>58.66666666666667</ele><time>2026-03-29T15:26:50Z</time></trkpt><trkpt lat="45.189226998717295" lon="9.738323377789435"><ele>58.33333333333333</ele><time>2026-03-29T15:26:51Z</time></trkpt><trkpt lat="45.1894131599996" lon="9.738169592603139"><ele>58.0</ele><time>2026-03-29T15:26:52Z</time></trkpt><trkpt lat="45.18959164992482" lon="9.73802089692172"><ele>58.0</ele><time>2026-03-29T15:26:53Z</time></trkpt><trkpt lat="45.18978192008544" lon="9.737889049327865"><ele>58.0</ele><time>2026-03-29T15:26:54Z</time></trkpt><trkpt lat="45.189975398265595" lon="9.73776295664516"><ele>58.0</ele><time>2026-03-29T15:26:55Z</time></trkpt><trkpt lat="45.19017350321894" lon="9.737637909232953"><ele>58.0</ele><time>2026-03-29T15:26:56Z</time></trkpt><trkpt lat="45.190369055894784" lon="9.737516054411298"><ele>58.0</ele><time>2026-03-29T15:26:57Z</time></trkpt><trkpt lat="45.190570448742285" lon="9.73739532152582"><ele>58.0</ele><time>2026-03-29T15:26:58Z</time></trkpt><trkpt lat="45.19077617023139" lon="9.737270371519461"><ele>58.5</ele><time>2026-03-29T15:26:59Z</time></trkpt><trkpt lat="45.190983808182374" lon="9.737137580176467"><ele>59.0</ele><time>2026-03-29T15:27:00Z</time></trkpt><trkpt lat="45.19119269011118" lon="9.73699447828778"><ele>58.5</ele><time>2026-03-29T15:27:01Z</time></trkpt><trkpt lat="45.191412453688756" lon="9.736865393446328"><ele>58.0</ele><time>2026-03-29T15:27:02Z</time></trkpt><trkpt lat="45.19161898281782" lon="9.736740300206964"><ele>57.666666666666664</ele><time>2026-03-29T15:27:03Z</time></trkpt><trkpt lat="45.19181438362034" lon="9.736623241908617"><ele>57.33333333333333</ele><time>2026-03-29T15:27:04Z</time></trkpt><trkpt lat="45.191994189600976" lon="9.736509853034915"><ele>57.0</ele><time>2026-03-29T15:27:05Z</time></trkpt><trkpt lat="45.19218825942717" lon="9.736387282036087"><ele>58.0</ele><time>2026-03-29T15:27:06Z</time></trkpt><trkpt lat="45.19237848435124" lon="9.73626699455978"><ele>59.0</ele><time>2026-03-29T15:27:07Z</time></trkpt><trkpt lat="45.19258244876723" lon="9.73613369357398"><ele>60.0</ele><time>2026-03-29T15:27:08Z</time></trkpt><trkpt lat="45.192776956435694" lon="9.736017772736146"><ele>60.33333333333333</ele><time>2026-03-29T15:27:09Z</time></trkpt><trkpt lat="45.192979534859646" lon="9.73589751743314"><ele>60.666666666666664</ele><time>2026-03-29T15:27:10Z</time></trkpt><trkpt lat="45.19317856947263" lon="9.73577693095707"><ele>61.0</ele><time>2026-03-29T15:27:11Z</time></trkpt><trkpt lat="45.193370248777576" lon="9.735656621640965"><ele>61.33333333333333</ele><time>2026-03-29T15:27:12Z</time></trkpt><trkpt lat="45.193557094941376" lon="9.735538048237302"><ele>61.66666666666667</ele><time>2026-03-29T15:27:13Z</time></trkpt><trkpt lat="45.19374243668491" lon="9.73541835317123"><ele>62.0</ele><time>2026-03-29T15:27:14Z</time></trkpt><trkpt lat="45.19392958949742" lon="9.735310472387996"><ele>61.66666666666667</ele><time>2026-03-29T15:27:15Z</time></trkpt><trkpt lat="45.19411684193109" lon="9.735192339527028"><ele>61.33333333333333</ele><time>2026-03-29T15:27:16Z</time></trkpt><trkpt lat="45.1943019696675" lon="9.735074295202198"><ele>61.0</ele><time>2026-03-29T15:27:17Z</time></trkpt><trkpt lat="45.194480500053686" lon="9.734937787472434"><ele>61.0</ele><time>2026-03-29T15:27:18Z</time></trkpt><trkpt lat="45.194653194312735" lon="9.734777228771108"><ele>61.0</ele><time>2026-03-29T15:27:19Z</time></trkpt><trkpt lat="45.194820396444506" lon="9.734599664774665"><ele>61.0</ele><time>2026-03-29T15:27:20Z</time></trkpt><trkpt lat="45.19499044298312" lon="9.73441402741698"><ele>61.0</ele><time>2026-03-29T15:27:21Z</time></trkpt><trkpt lat="45.19514940540692" lon="9.73421112887704"><ele>61.0</ele><time>2026-03-29T15:27:22Z</time></trkpt><trkpt lat="45.19531005776358" lon="9.734010445790691"><ele>61.0</ele><time>2026-03-29T15:27:23Z</time></trkpt><trkpt lat="45.19546690876944" lon="9.733813015491489"><ele>61.0</ele><time>2026-03-29T15:27:24Z</time></trkpt><trkpt lat="45.195623421181075" lon="9.733614694201174"><ele>61.0</ele><time>2026-03-29T15:27:25Z</time></trkpt><trkpt lat="45.19578300567132" lon="9.733423689110545"><ele>61.0</ele><time>2026-03-29T15:27:26Z</time></trkpt><trkpt lat="45.19594329410348" lon="9.733226421148146"><ele>61.0</ele><time>2026-03-29T15:27:27Z</time></trkpt><trkpt lat="45.196099922945194" lon="9.733028069309182"><ele>61.0</ele><time>2026-03-29T15:27:28Z</time></trkpt><trkpt lat="45.19626226877157" lon="9.73282192223156"><ele>61.0</ele><time>2026-03-29T15:27:29Z</time></trkpt><trkpt lat="45.19644764573309" lon="9.73259126603049"><ele>59.5</ele><time>2026-03-29T15:27:30Z</time></trkpt><trkpt lat="45.196628246764256" lon="9.732359947464431"><ele>58.0</ele><time>2026-03-29T15:27:31Z</time></trkpt><trkpt lat="45.19680842056198" lon="9.732125209574349"><ele>58.0</ele><time>2026-03-29T15:27:32Z</time></trkpt><trkpt lat="45.19698549765237" lon="9.731897777751634"><ele>58.0</ele><time>2026-03-29T15:27:33Z</time></trkpt><trkpt lat="45.19715929862779" lon="9.731685037936375"><ele>58.666666666666664</ele><time>2026-03-29T15:27:34Z</time></trkpt><trkpt lat="45.19732794163326" lon="9.731480954944237"><ele>59.33333333333333</ele><time>2026-03-29T15:27:35Z</time></trkpt><trkpt lat="45.19748290494116" lon="9.731303094350679"><ele>60.0</ele><time>2026-03-29T15:27:35.999Z</time></trkpt><trkpt lat="45.197661270415594" lon="9.731059516383853"><ele>60.5</ele><time>2026-03-29T15:27:36.999Z</time></trkpt><trkpt lat="45.19783494078952" lon="9.730842292803224"><ele>61.0</ele><time>2026-03-29T15:27:37.999Z</time></trkpt><trkpt lat="45.198008136056885" lon="9.73062552424645"><ele>61.0</ele><time>2026-03-29T15:27:38.999Z</time></trkpt><trkpt lat="45.19818450764061" lon="9.730405146845866"><ele>61.0</ele><time>2026-03-29T15:27:39.999Z</time></trkpt><trkpt lat="45.198355164340775" lon="9.730197001962063"><ele>60.33333333333333</ele><time>2026-03-29T15:27:40.999Z</time></trkpt><trkpt lat="45.19852099043488" lon="9.729990595532527"><ele>59.66666666666667</ele><time>2026-03-29T15:27:41.999Z</time></trkpt><trkpt lat="45.19868471508209" lon="9.729782316939957"><ele>59.0</ele><time>2026-03-29T15:27:42.999Z</time></trkpt><trkpt lat="45.19885317367532" lon="9.729574659998999"><ele>59.66666666666667</ele><time>2026-03-29T15:27:43.999Z</time></trkpt><trkpt lat="45.199020108704715" lon="9.72936535222651"><ele>60.33333333333333</ele><time>2026-03-29T15:27:44.999Z</time></trkpt><trkpt lat="45.19918679435602" lon="9.7291581619251"><ele>61.0</ele><time>2026-03-29T15:27:45.999Z</time></trkpt><trkpt lat="45.19935047658467" lon="9.728951231523077"><ele>61.0</ele><time>2026-03-29T15:27:46.999Z</time></trkpt><trkpt lat="45.199513927248006" lon="9.728745250327375"><ele>61.0</ele><time>2026-03-29T15:27:47.999Z</time></trkpt><trkpt lat="45.19967510583898" lon="9.728541342046126"><ele>61.0</ele><time>2026-03-29T15:27:48.999Z</time></trkpt><trkpt lat="45.1998362568117" lon="9.72834039268439"><ele>60.666666666666664</ele><time>2026-03-29T15:27:49.999Z</time></trkpt><trkpt lat="45.19999562882251" lon="9.728141590946327"><ele>60.33333333333333</ele><time>2026-03-29T15:27:50.999Z</time></trkpt><trkpt lat="45.200153847191054" lon="9.727944697906162"><ele>60.0</ele><time>2026-03-29T15:27:51.999Z</time></trkpt><trkpt lat="45.20031273257027" lon="9.727747462765748"><ele>60.0</ele><time>2026-03-29T15:27:52.999Z</time></trkpt><trkpt lat="45.200440185522204" lon="9.727575977712219"><ele>60.0</ele><time>2026-03-29T15:27:53.999Z</time></trkpt><trkpt lat="45.20062437121593" lon="9.72735355761497"><ele>60.0</ele><time>2026-03-29T15:27:54.999Z</time></trkpt><trkpt lat="45.20078508039774" lon="9.727154233353017"><ele>60.33333333333333</ele><time>2026-03-29T15:27:55.999Z</time></trkpt><trkpt lat="45.20094514089864" lon="9.726955209367963"><ele>60.666666666666664</ele><time>2026-03-29T15:27:56.999Z</time></trkpt><trkpt lat="45.201105061921005" lon="9.726757001325334"><ele>61.0</ele><time>2026-03-29T15:27:57.999Z</time></trkpt><trkpt lat="45.20127493762013" lon="9.726553836836784"><ele>60.5</ele><time>2026-03-29T15:27:58.999Z</time></trkpt><trkpt lat="45.20145749763225" lon="9.726331841767422"><ele>60.0</ele><time>2026-03-29T15:27:59.999Z</time></trkpt><trkpt lat="45.20164510503653" lon="9.72608453588127"><ele>59.66666666666667</ele><time>2026-03-29T15:28:00.999Z</time></trkpt><trkpt lat="45.201815779391616" lon="9.725868265645747"><ele>59.333333333333336</ele><time>2026-03-29T15:28:01.999Z</time></trkpt><trkpt lat="45.201972423954444" lon="9.725673804423183"><ele>59.0</ele><time>2026-03-29T15:28:02.999Z</time></trkpt><trkpt lat="45.20211991814337" lon="9.725489769075628"><ele>59.0</ele><time>2026-03-29T15:28:03.999Z</time></trkpt><trkpt lat="45.20226837010178" lon="9.725306818333765"><ele>59.0</ele><time>2026-03-29T15:28:04.999Z</time></trkpt><trkpt lat="45.20241076715629" lon="9.725126850261713"><ele>59.0</ele><time>2026-03-29T15:28:05.999Z</time></trkpt><trkpt lat="45.20255056905119" lon="9.72494769130999"><ele>59.66666666666667</ele><time>2026-03-29T15:28:06.999Z</time></trkpt><trkpt lat="45.20268749231195" lon="9.724777266425074"><ele>60.33333333333333</ele><time>2026-03-29T15:28:07.999Z</time></trkpt><trkpt lat="45.20283347736561" lon="9.724604349905524"><ele>61.0</ele><time>2026-03-29T15:28:08.999Z</time></trkpt><trkpt lat="45.202960303870206" lon="9.724444606518556"><ele>61.0</ele><time>2026-03-29T15:28:10Z</time></trkpt><trkpt lat="45.20307531508046" lon="9.724307710012978"><ele>61.0</ele><time>2026-03-29T15:28:11Z</time></trkpt><trkpt lat="45.203176781562306" lon="9.724193938993398"><ele>61.0</ele><time>2026-03-29T15:28:12Z</time></trkpt><trkpt lat="45.20327532785268" lon="9.724086899436713"><ele>61.0</ele><time>2026-03-29T15:28:13Z</time></trkpt><trkpt lat="45.20337986093613" lon="9.72398708632196"><ele>61.0</ele><time>2026-03-29T15:28:14Z</time></trkpt><trkpt lat="45.20350035930387" lon="9.72389971676374"><ele>61.0</ele><time>2026-03-29T15:28:15Z</time></trkpt><trkpt lat="45.20362916523277" lon="9.723820830496607"><ele>61.0</ele><time>2026-03-29T15:28:16Z</time></trkpt><trkpt lat="45.20374432641556" lon="9.723758932470353"><ele>61.0</ele><time>2026-03-29T15:28:17Z</time></trkpt><trkpt lat="45.203851232400346" lon="9.723700013964102"><ele>61.0</ele><time>2026-03-29T15:28:18Z</time></trkpt><trkpt lat="45.20394409963441" lon="9.723606261427728"><ele>61.0</ele><time>2026-03-29T15:28:19Z</time></trkpt><trkpt lat="45.20402235741471" lon="9.723462171536811"><ele>61.0</ele><time>2026-03-29T15:28:20Z</time></trkpt><trkpt lat="45.204082731035754" lon="9.723277660972583"><ele>61.0</ele><time>2026-03-29T15:28:21Z</time></trkpt><trkpt lat="45.20415378504956" lon="9.723084067500354"><ele>61.0</ele><time>2026-03-29T15:28:22Z</time></trkpt><trkpt lat="45.20424881962082" lon="9.722905245986261"><ele>61.0</ele><time>2026-03-29T15:28:23Z</time></trkpt><trkpt lat="45.20436700479295" lon="9.722707138219166"><ele>61.0</ele><time>2026-03-29T15:28:24Z</time></trkpt><trkpt lat="45.20449949398431" lon="9.722537682822377"><ele>61.0</ele><time>2026-03-29T15:28:25Z</time></trkpt><trkpt lat="45.20465369817243" lon="9.722351592289984"><ele>61.0</ele><time>2026-03-29T15:28:26Z</time></trkpt><trkpt lat="45.20483249528583" lon="9.722210962582611"><ele>61.0</ele><time>2026-03-29T15:28:27Z</time></trkpt><trkpt lat="45.20501378511913" lon="9.722033308200235"><ele>60.5</ele><time>2026-03-29T15:28:28Z</time></trkpt><trkpt lat="45.20519746253511" lon="9.721762033545849"><ele>60.0</ele><time>2026-03-29T15:28:29Z</time></trkpt><trkpt lat="45.20537207801856" lon="9.721504514843032"><ele>60.0</ele><time>2026-03-29T15:28:30Z</time></trkpt><trkpt lat="45.20555804809842" lon="9.721263599980833"><ele>60.0</ele><time>2026-03-29T15:28:31Z</time></trkpt><trkpt lat="45.20574908758497" lon="9.721026639321272"><ele>60.0</ele><time>2026-03-29T15:28:32Z</time></trkpt><trkpt lat="45.205923249064355" lon="9.72078181763648"><ele>60.0</ele><time>2026-03-29T15:28:33Z</time></trkpt><trkpt lat="45.20609211202869" lon="9.720526874921797"><ele>60.0</ele><time>2026-03-29T15:28:34Z</time></trkpt><trkpt lat="45.206274996604705" lon="9.720306608859214"><ele>60.0</ele><time>2026-03-29T15:28:35Z</time></trkpt><trkpt lat="45.20645184491513" lon="9.72009384456775"><ele>59.5</ele><time>2026-03-29T15:28:36Z</time></trkpt><trkpt lat="45.206623702711035" lon="9.719868759411879"><ele>59.0</ele><time>2026-03-29T15:28:37Z</time></trkpt><trkpt lat="45.206792625615975" lon="9.719656351985952"><ele>59.0</ele><time>2026-03-29T15:28:38Z</time></trkpt><trkpt lat="45.20696242998633" lon="9.719448635719857"><ele>59.0</ele><time>2026-03-29T15:28:39Z</time></trkpt><trkpt lat="45.20713039247836" lon="9.71924375972886"><ele>59.0</ele><time>2026-03-29T15:28:40Z</time></trkpt><trkpt lat="45.207297295534495" lon="9.719037279711099"><ele>59.333333333333336</ele><time>2026-03-29T15:28:41Z</time></trkpt><trkpt lat="45.20746308369097" lon="9.718832347984723"><ele>59.66666666666667</ele><time>2026-03-29T15:28:42Z</time></trkpt><trkpt lat="45.20762011349663" lon="9.718628437257498"><ele>60.0</ele><time>2026-03-29T15:28:43Z</time></trkpt><trkpt lat="45.20777692020211" lon="9.718427074675214"><ele>59.33333333333333</ele><time>2026-03-29T15:28:44Z</time></trkpt><trkpt lat="45.207936924974916" lon="9.71822881539194"><ele>58.666666666666664</ele><time>2026-03-29T15:28:45Z</time></trkpt><trkpt lat="45.208093740262235" lon="9.718036702135418"><ele>58.0</ele><time>2026-03-29T15:28:46Z</time></trkpt><trkpt lat="45.20824962212584" lon="9.717847266336458"><ele>58.666666666666664</ele><time>2026-03-29T15:28:47Z</time></trkpt><trkpt lat="45.20840398169741" lon="9.71766000408192"><ele>59.33333333333333</ele><time>2026-03-29T15:28:48Z</time></trkpt><trkpt lat="45.20855491269333" lon="9.717466871812032"><ele>60.0</ele><time>2026-03-29T15:28:49Z</time></trkpt><trkpt lat="45.20870480578032" lon="9.717277907146308"><ele>60.0</ele><time>2026-03-29T15:28:50Z</time></trkpt><trkpt lat="45.20885689221293" lon="9.71708999654123"><ele>60.0</ele><time>2026-03-29T15:28:51Z</time></trkpt><trkpt lat="45.209010853931574" lon="9.716901546238027"><ele>60.0</ele><time>2026-03-29T15:28:52Z</time></trkpt><trkpt lat="45.20915752702241" lon="9.716710644742397"><ele>60.0</ele><time>2026-03-29T15:28:53Z</time></trkpt><trkpt lat="45.20929847550626" lon="9.716511102805233"><ele>60.0</ele><time>2026-03-29T15:28:54Z</time></trkpt><trkpt lat="45.20944304031439" lon="9.716293929365886"><ele>60.0</ele><time>2026-03-29T15:28:55Z</time></trkpt><trkpt lat="45.20958464342317" lon="9.716057932322338"><ele>60.0</ele><time>2026-03-29T15:28:56Z</time></trkpt><trkpt lat="45.209711340558066" lon="9.71580204347528"><ele>60.0</ele><time>2026-03-29T15:28:57Z</time></trkpt><trkpt lat="45.20984720591913" lon="9.715549606116763"><ele>60.0</ele><time>2026-03-29T15:28:58Z</time></trkpt><trkpt lat="45.20997393282416" lon="9.715282933846684"><ele>59.0</ele><time>2026-03-29T15:28:59Z</time></trkpt><trkpt lat="45.21008889571276" lon="9.715028170185828"><ele>58.0</ele><time>2026-03-29T15:29:00Z</time></trkpt><trkpt lat="45.210222920028706" lon="9.714739617411254"><ele>58.0</ele><time>2026-03-29T15:29:01Z</time></trkpt><trkpt lat="45.21031741564985" lon="9.714498867291262"><ele>58.0</ele><time>2026-03-29T15:29:02Z</time></trkpt><trkpt lat="45.21044351308935" lon="9.714219283890381"><ele>58.0</ele><time>2026-03-29T15:29:03Z</time></trkpt><trkpt lat="45.210565419321334" lon="9.713955473001864"><ele>58.666666666666664</ele><time>2026-03-29T15:29:04Z</time></trkpt><trkpt lat="45.21068650480299" lon="9.713685900739259"><ele>59.33333333333333</ele><time>2026-03-29T15:29:05Z</time></trkpt><trkpt lat="45.2107965440107" lon="9.71342294612154"><ele>60.0</ele><time>2026-03-29T15:29:06Z</time></trkpt><trkpt lat="45.210914520229316" lon="9.713160073123245"><ele>60.0</ele><time>2026-03-29T15:29:07Z</time></trkpt><trkpt lat="45.21102799237545" lon="9.712895176251982"><ele>60.0</ele><time>2026-03-29T15:29:08Z</time></trkpt><trkpt lat="45.21115665241421" lon="9.712614526690771"><ele>59.66666666666667</ele><time>2026-03-29T15:29:09Z</time></trkpt><trkpt lat="45.21126966033806" lon="9.7123811423859"><ele>59.333333333333336</ele><time>2026-03-29T15:29:10Z</time></trkpt><trkpt lat="45.21138163421455" lon="9.712114481228438"><ele>59.0</ele><time>2026-03-29T15:29:11Z</time></trkpt><trkpt lat="45.21149716434421" lon="9.711866895100098"><ele>59.66666666666667</ele><time>2026-03-29T15:29:12Z</time></trkpt><trkpt lat="45.211611802789065" lon="9.711611837751622"><ele>60.33333333333333</ele><time>2026-03-29T15:29:13Z</time></trkpt><trkpt lat="45.21172589468063" lon="9.711356711628461"><ele>61.0</ele><time>2026-03-29T15:29:14Z</time></trkpt><trkpt lat="45.21184268142272" lon="9.711105116576046"><ele>61.33333333333333</ele><time>2026-03-29T15:29:15Z</time></trkpt><trkpt lat="45.21195071768325" lon="9.71085300346391"><ele>61.66666666666667</ele><time>2026-03-29T15:29:16Z</time></trkpt><trkpt lat="45.21206337196423" lon="9.710599493695952"><ele>62.0</ele><time>2026-03-29T15:29:17Z</time></trkpt><trkpt lat="45.21217722772405" lon="9.710350512623599"><ele>61.333333333333336</ele><time>2026-03-29T15:29:18Z</time></trkpt><trkpt lat="45.212288974260304" lon="9.71009647703568"><ele>60.66666666666667</ele><time>2026-03-29T15:29:19Z</time></trkpt><trkpt lat="45.2124006242154" lon="9.709843021799388"><ele>60.0</ele><time>2026-03-29T15:29:20Z</time></trkpt><trkpt lat="45.212511892296405" lon="9.709600292170581"><ele>60.0</ele><time>2026-03-29T15:29:21Z</time></trkpt><trkpt lat="45.2126231260845" lon="9.709354125985985"><ele>60.0</ele><time>2026-03-29T15:29:22Z</time></trkpt><trkpt lat="45.21271262014299" lon="9.709139363617902"><ele>60.0</ele><time>2026-03-29T15:29:23Z</time></trkpt><trkpt lat="45.21280745658443" lon="9.70893302368797"><ele>60.0</ele><time>2026-03-29T15:29:24Z</time></trkpt><trkpt lat="45.21289795085091" lon="9.708718734345467"><ele>60.0</ele><time>2026-03-29T15:29:25Z</time></trkpt><trkpt lat="45.212995343922856" lon="9.708508704770297"><ele>60.0</ele><time>2026-03-29T15:29:25.999Z</time></trkpt><trkpt lat="45.21309068959584" lon="9.708293753605995"><ele>60.0</ele><time>2026-03-29T15:29:26.999Z</time></trkpt><trkpt lat="45.21318746346788" lon="9.708078014981357"><ele>60.0</ele><time>2026-03-29T15:29:27.999Z</time></trkpt><trkpt lat="45.21328211168625" lon="9.707856524734764"><ele>60.0</ele><time>2026-03-29T15:29:28.999Z</time></trkpt><trkpt lat="45.21338481330775" lon="9.70763310769776"><ele>60.0</ele><time>2026-03-29T15:29:29.999Z</time></trkpt><trkpt lat="45.2134861824266" lon="9.707411758174286"><ele>60.0</ele><time>2026-03-29T15:29:30.999Z</time></trkpt><trkpt lat="45.21358775789082" lon="9.707183869150509"><ele>60.0</ele><time>2026-03-29T15:29:31.999Z</time></trkpt><trkpt lat="45.21368605109455" lon="9.706957101402098"><ele>60.0</ele><time>2026-03-29T15:29:32.999Z</time></trkpt><trkpt lat="45.21379001855828" lon="9.706732617673197"><ele>60.0</ele><time>2026-03-29T15:29:33.999Z</time></trkpt><trkpt lat="45.21389268950976" lon="9.70650731060565"><ele>60.0</ele><time>2026-03-29T15:29:34.999Z</time></trkpt><trkpt lat="45.21399562053425" lon="9.706274562166875"><ele>60.33333333333333</ele><time>2026-03-29T15:29:35.999Z</time></trkpt><trkpt lat="45.214096568749525" lon="9.70604677754384"><ele>60.666666666666664</ele><time>2026-03-29T15:29:36.999Z</time></trkpt><trkpt lat="45.21419570218293" lon="9.705816383465523"><ele>61.0</ele><time>2026-03-29T15:29:37.999Z</time></trkpt><trkpt lat="45.21429506525565" lon="9.705595758161797"><ele>61.0</ele><time>2026-03-29T15:29:38.999Z</time></trkpt><trkpt lat="45.21439390535762" lon="9.705374414528498"><ele>61.0</ele><time>2026-03-29T15:29:39.999Z</time></trkpt><trkpt lat="45.21448984432522" lon="9.705155344783144"><ele>61.0</ele><time>2026-03-29T15:29:40.999Z</time></trkpt><trkpt lat="45.214576165706355" lon="9.70491487048427"><ele>61.0</ele><time>2026-03-29T15:29:41.999Z</time></trkpt><trkpt lat="45.21465384164005" lon="9.704676826305764"><ele>61.0</ele><time>2026-03-29T15:29:42.999Z</time></trkpt><trkpt lat="45.21472413036068" lon="9.704434454144069"><ele>61.0</ele><time>2026-03-29T15:29:43.999Z</time></trkpt><trkpt lat="45.214792592842606" lon="9.704170095114462"><ele>61.0</ele><time>2026-03-29T15:29:44.999Z</time></trkpt><trkpt lat="45.214866297177615" lon="9.703898054677786"><ele>61.0</ele><time>2026-03-29T15:29:45.999Z</time></trkpt><trkpt lat="45.2149108252475" lon="9.703613996404343"><ele>61.0</ele><time>2026-03-29T15:29:46.999Z</time></trkpt><trkpt lat="45.21497012716132" lon="9.70333421242617"><ele>61.0</ele><time>2026-03-29T15:29:47.999Z</time></trkpt><trkpt lat="45.21500928135201" lon="9.703058005765415"><ele>61.0</ele><time>2026-03-29T15:29:48.999Z</time></trkpt><trkpt lat="45.215037935591575" lon="9.702779799201526"><ele>61.0</ele><time>2026-03-29T15:29:49.999Z</time></trkpt><trkpt lat="45.21506108178683" lon="9.702507521262149"><ele>61.0</ele><time>2026-03-29T15:29:50.999Z</time></trkpt><trkpt lat="45.21506799293423" lon="9.702214237080804"><ele>61.0</ele><time>2026-03-29T15:29:51.999Z</time></trkpt><trkpt lat="45.21507520023286" lon="9.70193803273517"><ele>61.0</ele><time>2026-03-29T15:29:52.999Z</time></trkpt><trkpt lat="45.215083637516976" lon="9.701643559625808"><ele>61.0</ele><time>2026-03-29T15:29:53.999Z</time></trkpt><trkpt lat="45.21508359821465" lon="9.701350394727614"><ele>61.0</ele><time>2026-03-29T15:29:54.999Z</time></trkpt><trkpt lat="45.2150780911442" lon="9.701028484520725"><ele>61.0</ele><time>2026-03-29T15:29:55.999Z</time></trkpt><trkpt lat="45.21507036636303" lon="9.700764189877402"><ele>61.0</ele><time>2026-03-29T15:29:56.999Z</time></trkpt><trkpt lat="45.215034836829886" lon="9.700486705591736"><ele>61.0</ele><time>2026-03-29T15:29:57.999Z</time></trkpt><trkpt lat="45.21501403483269" lon="9.700189090536162"><ele>61.0</ele><time>2026-03-29T15:29:58.999Z</time></trkpt><trkpt lat="45.214994657668484" lon="9.69989350602064"><ele>61.33333333333333</ele><time>2026-03-29T15:29:59.999Z</time></trkpt><trkpt lat="45.2149666479195" lon="9.69962276479705"><ele>61.66666666666667</ele><time>2026-03-29T15:30:00.999Z</time></trkpt><trkpt lat="45.21494984417028" lon="9.69937699033978"><ele>62.0</ele><time>2026-03-29T15:30:01.999Z</time></trkpt><trkpt lat="45.2149292162373" lon="9.699138881776582"><ele>62.0</ele><time>2026-03-29T15:30:02.999Z</time></trkpt><trkpt lat="45.214912055797" lon="9.698909479899687"><ele>62.0</ele><time>2026-03-29T15:30:03.999Z</time></trkpt><trkpt lat="45.214896133707114" lon="9.698681780059381"><ele>62.0</ele><time>2026-03-29T15:30:04.999Z</time></trkpt><trkpt lat="45.21488865784738" lon="9.698462683508808"><ele>62.0</ele><time>2026-03-29T15:30:05.999Z</time></trkpt><trkpt lat="45.21487314295704" lon="9.698245637674205"><ele>62.0</ele><time>2026-03-29T15:30:06.999Z</time></trkpt><trkpt lat="45.21484040165187" lon="9.69802113903569"><ele>62.0</ele><time>2026-03-29T15:30:07.999Z</time></trkpt><trkpt lat="45.21483933282539" lon="9.697777727996739"><ele>62.0</ele><time>2026-03-29T15:30:08.999Z</time></trkpt><trkpt lat="45.214820934624605" lon="9.697523376584469"><ele>62.0</ele><time>2026-03-29T15:30:09.999Z</time></trkpt><trkpt lat="45.21480308693553" lon="9.697276635799158"><ele>62.0</ele><time>2026-03-29T15:30:10.999Z</time></trkpt><trkpt lat="45.21478459798224" lon="9.697021029751792"><ele>61.75</ele><time>2026-03-29T15:30:11.999Z</time></trkpt><trkpt lat="45.2147557039291" lon="9.696808774121887"><ele>61.5</ele><time>2026-03-29T15:30:12.999Z</time></trkpt><trkpt lat="45.21474429122268" lon="9.696594091271919"><ele>61.25</ele><time>2026-03-29T15:30:13.999Z</time></trkpt><trkpt lat="45.21473244858125" lon="9.696398442149594"><ele>61.0</ele><time>2026-03-29T15:30:14.999Z</time></trkpt><trkpt lat="45.21471100372323" lon="9.696217761200346"><ele>60.99999999999999</ele><time>2026-03-29T15:30:16Z</time></trkpt><trkpt lat="45.214697286402526" lon="9.696051741543098"><ele>61.0</ele><time>2026-03-29T15:30:17Z</time></trkpt><trkpt lat="45.21469089042492" lon="9.69591961853281"><ele>61.0</ele><time>2026-03-29T15:30:18Z</time></trkpt><trkpt lat="45.214690693570134" lon="9.695797487101522"><ele>61.0</ele><time>2026-03-29T15:30:19Z</time></trkpt><trkpt lat="45.21469714932416" lon="9.695695349568934"><ele>60.99999999999999</ele><time>2026-03-29T15:30:20Z</time></trkpt><trkpt lat="45.21474833778279" lon="9.695613845701217"><ele>61.0</ele><time>2026-03-29T15:30:21Z</time></trkpt><trkpt lat="45.214810692630145" lon="9.695505966841466"><ele>61.0</ele><time>2026-03-29T15:30:22Z</time></trkpt><trkpt lat="45.214852002029026" lon="9.695375055683131"><ele>60.99999999999999</ele><time>2026-03-29T15:30:23Z</time></trkpt><trkpt lat="45.21484397376041" lon="9.695259409395026"><ele>60.99999999999999</ele><time>2026-03-29T15:30:24Z</time></trkpt><trkpt lat="45.21480769426206" lon="9.69514081313027"><ele>61.0</ele><time>2026-03-29T15:30:25Z</time></trkpt><trkpt lat="45.21474256074596" lon="9.69505636634429"><ele>61.0</ele><time>2026-03-29T15:30:26Z</time></trkpt><trkpt lat="45.21466425505819" lon="9.694957599640924"><ele>61.0</ele><time>2026-03-29T15:30:27Z</time></trkpt><trkpt lat="45.21458695317452" lon="9.694866074252223"><ele>61.0</ele><time>2026-03-29T15:30:28Z</time></trkpt><trkpt lat="45.214526020678235" lon="9.694740716727699"><ele>61.0</ele><time>2026-03-29T15:30:29Z</time></trkpt><trkpt lat="45.21450671751054" lon="9.694558680145237"><ele>61.0</ele><time>2026-03-29T15:30:30Z</time></trkpt><trkpt lat="45.214470561074194" lon="9.694384014584164"><ele>61.25</ele><time>2026-03-29T15:30:31Z</time></trkpt><trkpt lat="45.21441879668524" lon="9.694201076516707"><ele>61.5</ele><time>2026-03-29T15:30:32Z</time></trkpt><trkpt lat="45.21438098181304" lon="9.694014317533002"><ele>61.75</ele><time>2026-03-29T15:30:33Z</time></trkpt><trkpt lat="45.21434168773703" lon="9.693812660108788"><ele>62.0</ele><time>2026-03-29T15:30:34Z</time></trkpt><trkpt lat="45.21430318645412" lon="9.693613154450452"><ele>61.66666666666667</ele><time>2026-03-29T15:30:35Z</time></trkpt><trkpt lat="45.214256854143244" lon="9.693401159001523"><ele>61.33333333333333</ele><time>2026-03-29T15:30:36Z</time></trkpt><trkpt lat="45.214207815393934" lon="9.693189187805784"><ele>61.0</ele><time>2026-03-29T15:30:37Z</time></trkpt><trkpt lat="45.21416707316854" lon="9.692963181442812"><ele>61.0</ele><time>2026-03-29T15:30:38Z</time></trkpt><trkpt lat="45.21412440446545" lon="9.692733702871346"><ele>61.0</ele><time>2026-03-29T15:30:39Z</time></trkpt><trkpt lat="45.214088927872595" lon="9.692503757052696"><ele>61.0</ele><time>2026-03-29T15:30:40Z</time></trkpt><trkpt lat="45.21403746943431" lon="9.692283921087641"><ele>61.33333333333333</ele><time>2026-03-29T15:30:41Z</time></trkpt><trkpt lat="45.21397933933575" lon="9.692066409151723"><ele>61.66666666666667</ele><time>2026-03-29T15:30:42Z</time></trkpt><trkpt lat="45.213943680755335" lon="9.691852537834745"><ele>62.0</ele><time>2026-03-29T15:30:43Z</time></trkpt><trkpt lat="45.21390905400186" lon="9.691636334012047"><ele>62.0</ele><time>2026-03-29T15:30:44Z</time></trkpt><trkpt lat="45.21388243450441" lon="9.691405944293063"><ele>62.0</ele><time>2026-03-29T15:30:45Z</time></trkpt><trkpt lat="45.21386944085186" lon="9.691166569599755"><ele>62.0</ele><time>2026-03-29T15:30:46Z</time></trkpt><trkpt lat="45.21386056648262" lon="9.690910982623961"><ele>61.66666666666667</ele><time>2026-03-29T15:30:47Z</time></trkpt><trkpt lat="45.21386569846316" lon="9.690664102867615"><ele>61.33333333333333</ele><time>2026-03-29T15:30:48Z</time></trkpt><trkpt lat="45.213883711919635" lon="9.690418202091495"><ele>61.0</ele><time>2026-03-29T15:30:49Z</time></trkpt><trkpt lat="45.213917587951265" lon="9.690182228027963"><ele>61.0</ele><time>2026-03-29T15:30:50Z</time></trkpt><trkpt lat="45.2139571114811" lon="9.689927703902613"><ele>61.0</ele><time>2026-03-29T15:30:51Z</time></trkpt><trkpt lat="45.214011169959726" lon="9.689689239385618"><ele>61.0</ele><time>2026-03-29T15:30:52Z</time></trkpt><trkpt lat="45.21407345295539" lon="9.689451417202235"><ele>61.33333333333333</ele><time>2026-03-29T15:30:53Z</time></trkpt><trkpt lat="45.21415626239904" lon="9.689229247692591"><ele>61.66666666666667</ele><time>2026-03-29T15:30:54Z</time></trkpt><trkpt lat="45.21424096711971" lon="9.68900773505755"><ele>62.0</ele><time>2026-03-29T15:30:55Z</time></trkpt><trkpt lat="45.214332170058924" lon="9.688806060832551"><ele>62.0</ele><time>2026-03-29T15:30:56Z</time></trkpt><trkpt lat="45.21442428594449" lon="9.688618814889491"><ele>62.0</ele><time>2026-03-29T15:30:57Z</time></trkpt><trkpt lat="45.21451622068857" lon="9.688456226923945"><ele>62.0</ele><time>2026-03-29T15:30:58Z</time></trkpt><trkpt lat="45.214605061117595" lon="9.68832863636395"><ele>62.0</ele><time>2026-03-29T15:30:59Z</time></trkpt><trkpt lat="45.21469039472034" lon="9.68821935532484"><ele>62.0</ele><time>2026-03-29T15:31:00Z</time></trkpt><trkpt lat="45.21476324528173" lon="9.688123602210608"><ele>62.0</ele><time>2026-03-29T15:31:01Z</time></trkpt><trkpt lat="45.214831463178875" lon="9.688045358117956"><ele>62.0</ele><time>2026-03-29T15:31:02Z</time></trkpt><trkpt lat="45.21490293784924" lon="9.688000597345253"><ele>62.0</ele><time>2026-03-29T15:31:03Z</time></trkpt><trkpt lat="45.21498915219868" lon="9.687954922341248"><ele>62.0</ele><time>2026-03-29T15:31:04Z</time></trkpt><trkpt lat="45.215059226825396" lon="9.687862174267748"><ele>61.75</ele><time>2026-03-29T15:31:05Z</time></trkpt><trkpt lat="45.2151018865326" lon="9.687714573829544"><ele>61.5</ele><time>2026-03-29T15:31:06Z</time></trkpt><trkpt lat="45.21513679183919" lon="9.687538653917679"><ele>61.25</ele><time>2026-03-29T15:31:07Z</time></trkpt><trkpt lat="45.21519488427112" lon="9.687371099480401"><ele>61.0</ele><time>2026-03-29T15:31:08Z</time></trkpt><trkpt lat="45.21529672306945" lon="9.687207083052598"><ele>61.0</ele><time>2026-03-29T15:31:09Z</time></trkpt><trkpt lat="45.21541463086162" lon="9.687013544638887"><ele>61.0</ele><time>2026-03-29T15:31:10Z</time></trkpt><trkpt lat="45.21554385694807" lon="9.686804544733256"><ele>61.0</ele><time>2026-03-29T15:31:11Z</time></trkpt><trkpt lat="45.21567823157868" lon="9.68657465137585"><ele>61.0</ele><time>2026-03-29T15:31:12Z</time></trkpt><trkpt lat="45.21582499440302" lon="9.686344210321742"><ele>61.0</ele><time>2026-03-29T15:31:13Z</time></trkpt><trkpt lat="45.215981892813275" lon="9.68611350175092"><ele>61.0</ele><time>2026-03-29T15:31:14Z</time></trkpt><trkpt lat="45.216129903046046" lon="9.685876688842203"><ele>61.0</ele><time>2026-03-29T15:31:15Z</time></trkpt><trkpt lat="45.21625803832144" lon="9.68562698285118"><ele>61.0</ele><time>2026-03-29T15:31:16Z</time></trkpt><trkpt lat="45.21639826180091" lon="9.685383035293942"><ele>61.0</ele><time>2026-03-29T15:31:17Z</time></trkpt><trkpt lat="45.21654574655995" lon="9.685143762286774"><ele>59.33333333333333</ele><time>2026-03-29T15:31:18Z</time></trkpt><trkpt lat="45.21669044928775" lon="9.68490750855975"><ele>57.66666666666667</ele><time>2026-03-29T15:31:19Z</time></trkpt><trkpt lat="45.21683162945113" lon="9.68468063756843"><ele>56.0</ele><time>2026-03-29T15:31:20Z</time></trkpt><trkpt lat="45.21697351147302" lon="9.684449065335384"><ele>56.333333333333336</ele><time>2026-03-29T15:31:21Z</time></trkpt><trkpt lat="45.217112848355946" lon="9.684224783840945"><ele>56.66666666666667</ele><time>2026-03-29T15:31:22Z</time></trkpt><trkpt lat="45.217253207066925" lon="9.684013098031965"><ele>57.0</ele><time>2026-03-29T15:31:22.999Z</time></trkpt><trkpt lat="45.217392704220245" lon="9.683792092166279"><ele>57.66666666666667</ele><time>2026-03-29T15:31:23.999Z</time></trkpt><trkpt lat="45.21752758265566" lon="9.683560957914002"><ele>58.333333333333336</ele><time>2026-03-29T15:31:24.999Z</time></trkpt><trkpt lat="45.21767089295856" lon="9.683316359464287"><ele>59.0</ele><time>2026-03-29T15:31:25.999Z</time></trkpt><trkpt lat="45.21780544206389" lon="9.68309587956469"><ele>59.0</ele><time>2026-03-29T15:31:26.999Z</time></trkpt><trkpt lat="45.21793587845046" lon="9.682875773283138"><ele>59.0</ele><time>2026-03-29T15:31:27.999Z</time></trkpt><trkpt lat="45.218058083195444" lon="9.682651860607391"><ele>59.0</ele><time>2026-03-29T15:31:28.999Z</time></trkpt><trkpt lat="45.21816230440358" lon="9.682411439516928"><ele>59.333333333333336</ele><time>2026-03-29T15:31:29.999Z</time></trkpt><trkpt lat="45.21826933429043" lon="9.682181450567894"><ele>59.66666666666667</ele><time>2026-03-29T15:31:30.999Z</time></trkpt><trkpt lat="45.218365909121985" lon="9.681941253811246"><ele>60.0</ele><time>2026-03-29T15:31:31.999Z</time></trkpt><trkpt lat="45.21845233653397" lon="9.681693757153138"><ele>60.0</ele><time>2026-03-29T15:31:32.999Z</time></trkpt><trkpt lat="45.218548742427394" lon="9.68143342873884"><ele>60.0</ele><time>2026-03-29T15:31:33.999Z</time></trkpt><trkpt lat="45.21861659640922" lon="9.681194830080322"><ele>60.0</ele><time>2026-03-29T15:31:34.999Z</time></trkpt><trkpt lat="45.21868310181421" lon="9.680954269904808"><ele>59.66666666666667</ele><time>2026-03-29T15:31:35.999Z</time></trkpt><trkpt lat="45.2187503034654" lon="9.6807022358658"><ele>59.333333333333336</ele><time>2026-03-29T15:31:36.999Z</time></trkpt><trkpt lat="45.2188176585789" lon="9.680441376443145"><ele>59.0</ele><time>2026-03-29T15:31:37.999Z</time></trkpt><trkpt lat="45.21888333860989" lon="9.6801870043402"><ele>59.0</ele><time>2026-03-29T15:31:38.999Z</time></trkpt><trkpt lat="45.21894740031008" lon="9.679938900173674"><ele>59.0</ele><time>2026-03-29T15:31:39.999Z</time></trkpt><trkpt lat="45.219009830278296" lon="9.679697115175335"><ele>59.0</ele><time>2026-03-29T15:31:40.999Z</time></trkpt><trkpt lat="45.21907421788279" lon="9.679447748938296"><ele>59.0</ele><time>2026-03-29T15:31:41.999Z</time></trkpt><trkpt lat="45.219114547399926" lon="9.679232958454097"><ele>59.0</ele><time>2026-03-29T15:31:42.999Z</time></trkpt><trkpt lat="45.219171293002" lon="9.679025962981287"><ele>59.0</ele><time>2026-03-29T15:31:43.999Z</time></trkpt><trkpt lat="45.21923555583713" lon="9.678800995296143"><ele>59.0</ele><time>2026-03-29T15:31:44.999Z</time></trkpt><trkpt lat="45.219285862601936" lon="9.678591123680473"><ele>59.0</ele><time>2026-03-29T15:31:45.999Z</time></trkpt><trkpt lat="45.219342859173416" lon="9.67838710320333"><ele>59.0</ele><time>2026-03-29T15:31:46.999Z</time></trkpt><trkpt lat="45.21940078949918" lon="9.678186028773824"><ele>59.0</ele><time>2026-03-29T15:31:47.999Z</time></trkpt><trkpt lat="45.21945779518194" lon="9.67797063185586"><ele>59.0</ele><time>2026-03-29T15:31:48.999Z</time></trkpt><trkpt lat="45.21951589674857" lon="9.67775232201768"><ele>59.0</ele><time>2026-03-29T15:31:49.999Z</time></trkpt><trkpt lat="45.21957786168735" lon="9.677519694873105"><ele>58.66666666666667</ele><time>2026-03-29T15:31:50.999Z</time></trkpt><trkpt lat="45.21963723175727" lon="9.677276064367156"><ele>58.33333333333333</ele><time>2026-03-29T15:31:51.999Z</time></trkpt><trkpt lat="45.21969879165737" lon="9.677035438033109"><ele>58.0</ele><time>2026-03-29T15:31:52.999Z</time></trkpt><trkpt lat="45.21975845707528" lon="9.676784467835057"><ele>58.0</ele><time>2026-03-29T15:31:53.999Z</time></trkpt><trkpt lat="45.21982170219324" lon="9.676538561929423"><ele>58.0</ele><time>2026-03-29T15:31:54.999Z</time></trkpt><trkpt lat="45.21988628568999" lon="9.676288319585188"><ele>58.0</ele><time>2026-03-29T15:31:55.999Z</time></trkpt><trkpt lat="45.219952933217016" lon="9.676049001039983"><ele>58.0</ele><time>2026-03-29T15:31:56.999Z</time></trkpt><trkpt lat="45.220008442340756" lon="9.675836606164767"><ele>58.0</ele><time>2026-03-29T15:31:57.999Z</time></trkpt><trkpt lat="45.220066520027615" lon="9.675614383664147"><ele>58.0</ele><time>2026-03-29T15:31:58.999Z</time></trkpt><trkpt lat="45.220143582448706" lon="9.675289147082356"><ele>57.666666666666664</ele><time>2026-03-29T15:31:59.999Z</time></trkpt><trkpt lat="45.22021255068808" lon="9.675048176751853"><ele>57.33333333333333</ele><time>2026-03-29T15:32:00.999Z</time></trkpt><trkpt lat="45.22027002241895" lon="9.674802767834453"><ele>57.0</ele><time>2026-03-29T15:32:01.999Z</time></trkpt><trkpt lat="45.220329673997895" lon="9.674563143565743"><ele>55.66666666666667</ele><time>2026-03-29T15:32:02.999Z</time></trkpt><trkpt lat="45.22039788421742" lon="9.674310646607287"><ele>54.333333333333336</ele><time>2026-03-29T15:32:03.999Z</time></trkpt><trkpt lat="45.22046703386165" lon="9.674061748907752"><ele>53.0</ele><time>2026-03-29T15:32:04.999Z</time></trkpt><trkpt lat="45.22052948611482" lon="9.673804444492061"><ele>53.333333333333336</ele><time>2026-03-29T15:32:05.999Z</time></trkpt><trkpt lat="45.22061225695981" lon="9.673523352094822"><ele>53.66666666666667</ele><time>2026-03-29T15:32:06.999Z</time></trkpt><trkpt lat="45.22066945554929" lon="9.673278413271072"><ele>54.0</ele><time>2026-03-29T15:32:07.999Z</time></trkpt><trkpt lat="45.220729276757275" lon="9.673016033123433"><ele>54.0</ele><time>2026-03-29T15:32:08.999Z</time></trkpt><trkpt lat="45.220795451446" lon="9.672758004452938"><ele>54.0</ele><time>2026-03-29T15:32:09.999Z</time></trkpt><trkpt lat="45.22086196350312" lon="9.67249725477234"><ele>54.0</ele><time>2026-03-29T15:32:10.999Z</time></trkpt><trkpt lat="45.220931982679986" lon="9.672226612149391"><ele>54.0</ele><time>2026-03-29T15:32:11.999Z</time></trkpt><trkpt lat="45.22100335769157" lon="9.671962344781354"><ele>54.0</ele><time>2026-03-29T15:32:12.999Z</time></trkpt><trkpt lat="45.22107505721103" lon="9.671688480982684"><ele>54.0</ele><time>2026-03-29T15:32:13.999Z</time></trkpt><trkpt lat="45.221144964587936" lon="9.67141453070368"><ele>55.0</ele><time>2026-03-29T15:32:14.999Z</time></trkpt><trkpt lat="45.22122098342015" lon="9.67114948233078"><ele>56.0</ele><time>2026-03-29T15:32:15.999Z</time></trkpt><trkpt lat="45.22129042366818" lon="9.670886297302571"><ele>57.0</ele><time>2026-03-29T15:32:16.999Z</time></trkpt><trkpt lat="45.221381627311594" lon="9.670621932564664"><ele>57.0</ele><time>2026-03-29T15:32:17.999Z</time></trkpt><trkpt lat="45.22144405726736" lon="9.670394947204171"><ele>57.0</ele><time>2026-03-29T15:32:18.999Z</time></trkpt><trkpt lat="45.221522356110256" lon="9.67014705757427"><ele>57.0</ele><time>2026-03-29T15:32:19.999Z</time></trkpt><trkpt lat="45.22160935661578" lon="9.669906326534647"><ele>58.0</ele><time>2026-03-29T15:32:20.999Z</time></trkpt><trkpt lat="45.22170386253735" lon="9.66967192334881"><ele>59.0</ele><time>2026-03-29T15:32:22Z</time></trkpt><trkpt lat="45.221796281647336" lon="9.669440573695244"><ele>60.0</ele><time>2026-03-29T15:32:23Z</time></trkpt><trkpt lat="45.22191216556171" lon="9.669214029918363"><ele>60.0</ele><time>2026-03-29T15:32:24Z</time></trkpt><trkpt lat="45.22203963208034" lon="9.669022307002413"><ele>60.0</ele><time>2026-03-29T15:32:25Z</time></trkpt><trkpt lat="45.22216532725224" lon="9.66877457470256"><ele>60.0</ele><time>2026-03-29T15:32:26Z</time></trkpt><trkpt lat="45.22230006744884" lon="9.66852408772849"><ele>59.66666666666667</ele><time>2026-03-29T15:32:27Z</time></trkpt><trkpt lat="45.222428247415586" lon="9.668260774772264"><ele>59.333333333333336</ele><time>2026-03-29T15:32:28Z</time></trkpt><trkpt lat="45.222545991851376" lon="9.66803532467664"><ele>59.0</ele><time>2026-03-29T15:32:29Z</time></trkpt><trkpt lat="45.22267044691411" lon="9.667801187723754"><ele>58.333333333333336</ele><time>2026-03-29T15:32:30Z</time></trkpt><trkpt lat="45.22279289492418" lon="9.667569162166998"><ele>57.66666666666667</ele><time>2026-03-29T15:32:31Z</time></trkpt><trkpt lat="45.22291391164605" lon="9.667338347989556"><ele>57.0</ele><time>2026-03-29T15:32:32Z</time></trkpt><trkpt lat="45.223032138545406" lon="9.667109334322737"><ele>57.0</ele><time>2026-03-29T15:32:33Z</time></trkpt><trkpt lat="45.223146007403834" lon="9.666897133603356"><ele>57.0</ele><time>2026-03-29T15:32:34Z</time></trkpt><trkpt lat="45.22326483106928" lon="9.66670364835333"><ele>57.0</ele><time>2026-03-29T15:32:35Z</time></trkpt><trkpt lat="45.22335625694089" lon="9.666521016511146"><ele>57.0</ele><time>2026-03-29T15:32:36Z</time></trkpt><trkpt lat="45.22343524781201" lon="9.666355037602928"><ele>57.0</ele><time>2026-03-29T15:32:37Z</time></trkpt><trkpt lat="45.22351440100288" lon="9.6661988162967"><ele>57.0</ele><time>2026-03-29T15:32:38Z</time></trkpt><trkpt lat="45.22359319742088" lon="9.666055753358995"><ele>57.0</ele><time>2026-03-29T15:32:39Z</time></trkpt><trkpt lat="45.223688026617175" lon="9.665898432487602"><ele>57.0</ele><time>2026-03-29T15:32:40Z</time></trkpt><trkpt lat="45.223774695058204" lon="9.665743849899217"><ele>57.0</ele><time>2026-03-29T15:32:41Z</time></trkpt><trkpt lat="45.22385189009096" lon="9.665603034348443"><ele>57.0</ele><time>2026-03-29T15:32:42Z</time></trkpt><trkpt lat="45.223920557179625" lon="9.665506483517524"><ele>57.0</ele><time>2026-03-29T15:32:43Z</time></trkpt><trkpt lat="45.22398201838101" lon="9.665408145946813"><ele>58.0</ele><time>2026-03-29T15:32:44Z</time></trkpt><trkpt lat="45.22404861404016" lon="9.665307950109899"><ele>59.0</ele><time>2026-03-29T15:32:45Z</time></trkpt><trkpt lat="45.224132521772994" lon="9.66518632319293"><ele>60.0</ele><time>2026-03-29T15:32:46Z</time></trkpt><trkpt lat="45.224219505135515" lon="9.665057311345153"><ele>61.0</ele><time>2026-03-29T15:32:47Z</time></trkpt><trkpt lat="45.22431207938307" lon="9.664915619939963"><ele>61.0</ele><time>2026-03-29T15:32:48Z</time></trkpt><trkpt lat="45.2244197642343" lon="9.66475681463795"><ele>61.0</ele><time>2026-03-29T15:32:49Z</time></trkpt><trkpt lat="45.224540418986024" lon="9.66456481326209"><ele>61.0</ele><time>2026-03-29T15:32:50Z</time></trkpt><trkpt lat="45.22466494966975" lon="9.664370939795235"><ele>60.666666666666664</ele><time>2026-03-29T15:32:51Z</time></trkpt><trkpt lat="45.224792980414286" lon="9.664180575804666"><ele>60.33333333333333</ele><time>2026-03-29T15:32:52Z</time></trkpt><trkpt lat="45.22492129876319" lon="9.66398886638518"><ele>60.0</ele><time>2026-03-29T15:32:53Z</time></trkpt><trkpt lat="45.225047611260095" lon="9.663787569763258"><ele>60.0</ele><time>2026-03-29T15:32:54Z</time></trkpt><trkpt lat="45.22517006044857" lon="9.663622082480202"><ele>60.0</ele><time>2026-03-29T15:32:55Z</time></trkpt><trkpt lat="45.22526661092986" lon="9.663452339296851"><ele>60.0</ele><time>2026-03-29T15:32:56Z</time></trkpt><trkpt lat="45.225352709447286" lon="9.663335865167603"><ele>60.0</ele><time>2026-03-29T15:32:57Z</time></trkpt><trkpt lat="45.22542518977769" lon="9.663242971203418"><ele>60.0</ele><time>2026-03-29T15:32:58Z</time></trkpt><trkpt lat="45.225503855421145" lon="9.663156350160733"><ele>60.0</ele><time>2026-03-29T15:32:59Z</time></trkpt><trkpt lat="45.225619215969246" lon="9.663052103291061"><ele>60.0</ele><time>2026-03-29T15:33:01Z</time></trkpt><trkpt lat="45.22570292566804" lon="9.663014505642193"><ele>60.0</ele><time>2026-03-29T15:33:02Z</time></trkpt><trkpt lat="45.225789003736665" lon="9.662965990404306"><ele>60.0</ele><time>2026-03-29T15:33:03Z</time></trkpt><trkpt lat="45.225909430287665" lon="9.66300886819309"><ele>60.2</ele><time>2026-03-29T15:33:04Z</time></trkpt><trkpt lat="45.22601402837967" lon="9.662957104336968"><ele>60.4</ele><time>2026-03-29T15:33:05Z</time></trkpt><trkpt lat="45.226072445992976" lon="9.662838634261725"><ele>60.599999999999994</ele><time>2026-03-29T15:33:06Z</time></trkpt><trkpt lat="45.226109690730375" lon="9.662686780998174"><ele>60.8</ele><time>2026-03-29T15:33:07Z</time></trkpt><trkpt lat="45.2261383275013" lon="9.662530725475465"><ele>61.0</ele><time>2026-03-29T15:33:08Z</time></trkpt><trkpt lat="45.22611784894801" lon="9.662362025565201"><ele>61.0</ele><time>2026-03-29T15:33:09Z</time></trkpt><trkpt lat="45.22611070585447" lon="9.662202131503612"><ele>60.99999999999999</ele><time>2026-03-29T15:33:10Z</time></trkpt><trkpt lat="45.226128961889785" lon="9.662081069193281"><ele>60.99999999999999</ele><time>2026-03-29T15:33:11Z</time></trkpt><trkpt lat="45.226180883016404" lon="9.661944385877284"><ele>61.0</ele><time>2026-03-29T15:33:12Z</time></trkpt><trkpt lat="45.226259600109884" lon="9.661789554163818"><ele>61.0</ele><time>2026-03-29T15:33:13Z</time></trkpt><trkpt lat="45.22636053848809" lon="9.66161147023015"><ele>61.0</ele><time>2026-03-29T15:33:14Z</time></trkpt><trkpt lat="45.22648972092312" lon="9.661409543722794"><ele>61.0</ele><time>2026-03-29T15:33:15Z</time></trkpt><trkpt lat="45.22661887170155" lon="9.661176041866778"><ele>61.0</ele><time>2026-03-29T15:33:16Z</time></trkpt><trkpt lat="45.226773020778126" lon="9.660897343287697"><ele>61.0</ele><time>2026-03-29T15:33:17Z</time></trkpt><trkpt lat="45.22691704677111" lon="9.660635324920657"><ele>61.0</ele><time>2026-03-29T15:33:18Z</time></trkpt><trkpt lat="45.22705897876543" lon="9.660373630013716"><ele>61.0</ele><time>2026-03-29T15:33:19Z</time></trkpt><trkpt lat="45.227193254730146" lon="9.660089097069836"><ele>61.0</ele><time>2026-03-29T15:33:20Z</time></trkpt><trkpt lat="45.2273359851521" lon="9.65983490530194"><ele>61.0</ele><time>2026-03-29T15:33:21Z</time></trkpt><trkpt lat="45.227474527185876" lon="9.659586832634"><ele>61.0</ele><time>2026-03-29T15:33:22Z</time></trkpt><trkpt lat="45.22760312902236" lon="9.659337722814856"><ele>61.0</ele><time>2026-03-29T15:33:22.999Z</time></trkpt><trkpt lat="45.22773685961899" lon="9.659100041135996"><ele>60.666666666666664</ele><time>2026-03-29T15:33:23.999Z</time></trkpt><trkpt lat="45.22789087924093" lon="9.658883523159925"><ele>60.33333333333333</ele><time>2026-03-29T15:33:24.999Z</time></trkpt><trkpt lat="45.2280273360801" lon="9.658675617036133"><ele>60.0</ele><time>2026-03-29T15:33:25.999Z</time></trkpt><trkpt lat="45.22816071258237" lon="9.658477853908852"><ele>61.0</ele><time>2026-03-29T15:33:26.999Z</time></trkpt><trkpt lat="45.228327182126975" lon="9.658235529972236"><ele>62.0</ele><time>2026-03-29T15:33:27.999Z</time></trkpt><trkpt lat="45.22847819207475" lon="9.658007380968362"><ele>62.0</ele><time>2026-03-29T15:33:28.999Z</time></trkpt><trkpt lat="45.228628297487006" lon="9.657796171636384"><ele>62.0</ele><time>2026-03-29T15:33:29.999Z</time></trkpt><trkpt lat="45.22877132218349" lon="9.657582378036238"><ele>62.0</ele><time>2026-03-29T15:33:30.999Z</time></trkpt><trkpt lat="45.228919151151494" lon="9.657377123573125"><ele>62.333333333333336</ele><time>2026-03-29T15:33:31.999Z</time></trkpt><trkpt lat="45.22906362976279" lon="9.657175895404151"><ele>62.66666666666667</ele><time>2026-03-29T15:33:32.999Z</time></trkpt><trkpt lat="45.229208452897524" lon="9.65697273010835"><ele>63.0</ele><time>2026-03-29T15:33:33.999Z</time></trkpt><trkpt lat="45.22935092496792" lon="9.656769899247687"><ele>63.0</ele><time>2026-03-29T15:33:34.999Z</time></trkpt><trkpt lat="45.2294902697292" lon="9.65656386099466"><ele>63.0</ele><time>2026-03-29T15:33:35.999Z</time></trkpt><trkpt lat="45.229634320314986" lon="9.656345574916505"><ele>63.0</ele><time>2026-03-29T15:33:36.999Z</time></trkpt><trkpt lat="45.229784638176554" lon="9.656133916251196"><ele>63.0</ele><time>2026-03-29T15:33:37.999Z</time></trkpt><trkpt lat="45.22993266878167" lon="9.65591672426783"><ele>63.0</ele><time>2026-03-29T15:33:38.999Z</time></trkpt><trkpt lat="45.23008272434607" lon="9.655700030416856"><ele>63.0</ele><time>2026-03-29T15:33:39.999Z</time></trkpt><trkpt lat="45.230237259951686" lon="9.655481757498196"><ele>63.0</ele><time>2026-03-29T15:33:40.999Z</time></trkpt><trkpt lat="45.23039456663262" lon="9.655260657191773"><ele>63.0</ele><time>2026-03-29T15:33:41.999Z</time></trkpt><trkpt lat="45.23054868095064" lon="9.65503367171047"><ele>63.0</ele><time>2026-03-29T15:33:42.999Z</time></trkpt><trkpt lat="45.23070152225383" lon="9.654808824804412"><ele>62.0</ele><time>2026-03-29T15:33:43.999Z</time></trkpt><trkpt lat="45.23086041250878" lon="9.654580318924484"><ele>61.0</ele><time>2026-03-29T15:33:44.999Z</time></trkpt><trkpt lat="45.23101072425629" lon="9.654344898743451"><ele>61.0</ele><time>2026-03-29T15:33:45.999Z</time></trkpt><trkpt lat="45.23116702196619" lon="9.654121133764361"><ele>61.0</ele><time>2026-03-29T15:33:46.999Z</time></trkpt><trkpt lat="45.23132002919946" lon="9.653881179326225"><ele>61.0</ele><time>2026-03-29T15:33:47.999Z</time></trkpt><trkpt lat="45.23146129922125" lon="9.6536539888407"><ele>61.0</ele><time>2026-03-29T15:33:48.999Z</time></trkpt><trkpt lat="45.231585407276434" lon="9.653448100034632"><ele>61.0</ele><time>2026-03-29T15:33:49.999Z</time></trkpt><trkpt lat="45.23170424579182" lon="9.653241834463039"><ele>61.33333333333333</ele><time>2026-03-29T15:33:50.999Z</time></trkpt><trkpt lat="45.23179857583197" lon="9.653080466591703"><ele>61.66666666666667</ele><time>2026-03-29T15:33:51.999Z</time></trkpt><trkpt lat="45.23190664369183" lon="9.652877161911547"><ele>62.0</ele><time>2026-03-29T15:33:52.999Z</time></trkpt><trkpt lat="45.232025754829024" lon="9.652671834607881"><ele>62.0</ele><time>2026-03-29T15:33:53.999Z</time></trkpt><trkpt lat="45.23214342271839" lon="9.652464775017663"><ele>62.0</ele><time>2026-03-29T15:33:54.999Z</time></trkpt><trkpt lat="45.23224757839481" lon="9.652268929405505"><ele>62.0</ele><time>2026-03-29T15:33:55.999Z</time></trkpt><trkpt lat="45.232341655653386" lon="9.652082997618471"><ele>62.0</ele><time>2026-03-29T15:33:56.999Z</time></trkpt><trkpt lat="45.23243440404873" lon="9.651917964718752"><ele>62.0</ele><time>2026-03-29T15:33:57.999Z</time></trkpt><trkpt lat="45.232510796573514" lon="9.651759590008849"><ele>62.0</ele><time>2026-03-29T15:33:58.999Z</time></trkpt><trkpt lat="45.23258785396889" lon="9.651618727014274"><ele>62.0</ele><time>2026-03-29T15:33:59.999Z</time></trkpt><trkpt lat="45.232668370183596" lon="9.65148845909537"><ele>62.0</ele><time>2026-03-29T15:34:00.999Z</time></trkpt><trkpt lat="45.23274595838468" lon="9.651380852799242"><ele>62.0</ele><time>2026-03-29T15:34:01.999Z</time></trkpt><trkpt lat="45.23282179158641" lon="9.651300580235027"><ele>62.0</ele><time>2026-03-29T15:34:02.999Z</time></trkpt><trkpt lat="45.23290082096928" lon="9.65122355711556"><ele>62.0</ele><time>2026-03-29T15:34:03.999Z</time></trkpt><trkpt lat="45.23298364378483" lon="9.651127569126603"><ele>62.0</ele><time>2026-03-29T15:34:04.999Z</time></trkpt><trkpt lat="45.233082152130144" lon="9.6510696868195"><ele>62.25</ele><time>2026-03-29T15:34:05.999Z</time></trkpt><trkpt lat="45.23315693365804" lon="9.650956971268943"><ele>62.5</ele><time>2026-03-29T15:34:06.999Z</time></trkpt><trkpt lat="45.23320339432369" lon="9.650801052669104"><ele>62.75</ele><time>2026-03-29T15:34:07.999Z</time></trkpt><trkpt lat="45.23322780240142" lon="9.650610189173126"><ele>63.0</ele><time>2026-03-29T15:34:08.999Z</time></trkpt><trkpt lat="45.23327900285685" lon="9.650412494366705"><ele>63.0</ele><time>2026-03-29T15:34:09.999Z</time></trkpt><trkpt lat="45.23335649353125" lon="9.650199981455142"><ele>63.0</ele><time>2026-03-29T15:34:10.999Z</time></trkpt><trkpt lat="45.23346305411609" lon="9.649974971756679"><ele>63.0</ele><time>2026-03-29T15:34:11.999Z</time></trkpt><trkpt lat="45.23357950781886" lon="9.64974976287194"><ele>63.0</ele><time>2026-03-29T15:34:12.999Z</time></trkpt><trkpt lat="45.23370233639464" lon="9.649494738412404"><ele>63.0</ele><time>2026-03-29T15:34:13.999Z</time></trkpt><trkpt lat="45.23385201073187" lon="9.649249120014032"><ele>63.0</ele><time>2026-03-29T15:34:14.999Z</time></trkpt><trkpt lat="45.23398317636228" lon="9.648972013604094"><ele>63.0</ele><time>2026-03-29T15:34:15.999Z</time></trkpt><trkpt lat="45.23412698814539" lon="9.648706882623463"><ele>63.0</ele><time>2026-03-29T15:34:16.999Z</time></trkpt><trkpt lat="45.23426296338962" lon="9.648449748339562"><ele>63.0</ele><time>2026-03-29T15:34:17.999Z</time></trkpt><trkpt lat="45.23439244926618" lon="9.64820376912207"><ele>63.0</ele><time>2026-03-29T15:34:18.999Z</time></trkpt><trkpt lat="45.234539406694104" lon="9.647948203459135"><ele>63.0</ele><time>2026-03-29T15:34:19.999Z</time></trkpt><trkpt lat="45.23467038292764" lon="9.647669402341098"><ele>63.5</ele><time>2026-03-29T15:34:20.999Z</time></trkpt><trkpt lat="45.23481433881419" lon="9.64740444114967"><ele>64.0</ele><time>2026-03-29T15:34:21.999Z</time></trkpt><trkpt lat="45.23495595545782" lon="9.647143247922916"><ele>63.0</ele><time>2026-03-29T15:34:22.999Z</time></trkpt><trkpt lat="45.235091906023115" lon="9.646882817603096"><ele>62.0</ele><time>2026-03-29T15:34:23.999Z</time></trkpt><trkpt lat="45.235225713115575" lon="9.646626252314432"><ele>62.0</ele><time>2026-03-29T15:34:24.999Z</time></trkpt><trkpt lat="45.23538342535287" lon="9.646336346608608"><ele>62.0</ele><time>2026-03-29T15:34:25.999Z</time></trkpt><trkpt lat="45.235548344441874" lon="9.646009986774322"><ele>62.5</ele><time>2026-03-29T15:34:26.999Z</time></trkpt><trkpt lat="45.235734486383215" lon="9.645691980196274"><ele>63.0</ele><time>2026-03-29T15:34:28Z</time></trkpt><trkpt lat="45.23589826723665" lon="9.645346646188003"><ele>63.5</ele><time>2026-03-29T15:34:29Z</time></trkpt><trkpt lat="45.236075139810104" lon="9.645032029824717"><ele>64.0</ele><time>2026-03-29T15:34:30Z</time></trkpt><trkpt lat="45.23624316910478" lon="9.6447225039746"><ele>63.5</ele><time>2026-03-29T15:34:31Z</time></trkpt><trkpt lat="45.2364067361985" lon="9.644413378990873"><ele>63.0</ele><time>2026-03-29T15:34:32Z</time></trkpt><trkpt lat="45.23657361959991" lon="9.644105644067162"><ele>64.0</ele><time>2026-03-29T15:34:33Z</time></trkpt><trkpt lat="45.23673924829669" lon="9.643800994398422"><ele>65.0</ele><time>2026-03-29T15:34:34Z</time></trkpt><trkpt lat="45.236900274664045" lon="9.643487226654468"><ele>65.0</ele><time>2026-03-29T15:34:35Z</time></trkpt><trkpt lat="45.237059713947886" lon="9.643196626066237"><ele>65.0</ele><time>2026-03-29T15:34:36Z</time></trkpt><trkpt lat="45.237214038929615" lon="9.642902229272364"><ele>64.5</ele><time>2026-03-29T15:34:37Z</time></trkpt><trkpt lat="45.23737259281587" lon="9.642614172791303"><ele>64.0</ele><time>2026-03-29T15:34:38Z</time></trkpt><trkpt lat="45.237578067092024" lon="9.642337038446806"><ele>64.0</ele><time>2026-03-29T15:34:39Z</time></trkpt><trkpt lat="45.23770673186292" lon="9.642027527397886"><ele>64.0</ele><time>2026-03-29T15:34:40Z</time></trkpt><trkpt lat="45.23784686172181" lon="9.6417445089549"><ele>63.5</ele><time>2026-03-29T15:34:41Z</time></trkpt><trkpt lat="45.23802541154298" lon="9.641481981000634"><ele>63.0</ele><time>2026-03-29T15:34:42Z</time></trkpt><trkpt lat="45.238153030729386" lon="9.641196271697826"><ele>63.0</ele><time>2026-03-29T15:34:43Z</time></trkpt><trkpt lat="45.238281595622254" lon="9.640924427797424"><ele>63.0</ele><time>2026-03-29T15:34:44Z</time></trkpt><trkpt lat="45.23841624954306" lon="9.640651668215515"><ele>63.0</ele><time>2026-03-29T15:34:45Z</time></trkpt><trkpt lat="45.23855016369423" lon="9.64039341999964"><ele>63.0</ele><time>2026-03-29T15:34:46Z</time></trkpt><trkpt lat="45.23868786083146" lon="9.640118069857571"><ele>62.5</ele><time>2026-03-29T15:34:47Z</time></trkpt><trkpt lat="45.23883098038334" lon="9.639849099122046"><ele>62.0</ele><time>2026-03-29T15:34:48Z</time></trkpt><trkpt lat="45.23898325737605" lon="9.639576379443907"><ele>62.5</ele><time>2026-03-29T15:34:49Z</time></trkpt><trkpt lat="45.239122573779895" lon="9.639304554235375"><ele>63.0</ele><time>2026-03-29T15:34:50Z</time></trkpt><trkpt lat="45.23927011422332" lon="9.639028452620538"><ele>63.0</ele><time>2026-03-29T15:34:51Z</time></trkpt><trkpt lat="45.23942090462435" lon="9.638744292571303"><ele>63.0</ele><time>2026-03-29T15:34:52Z</time></trkpt><trkpt lat="45.23957172033482" lon="9.638464944943506"><ele>63.0</ele><time>2026-03-29T15:34:53Z</time></trkpt><trkpt lat="45.23971863998989" lon="9.638176012467534"><ele>63.0</ele><time>2026-03-29T15:34:54Z</time></trkpt><trkpt lat="45.23986487886089" lon="9.637899961238592"><ele>64.0</ele><time>2026-03-29T15:34:55Z</time></trkpt><trkpt lat="45.24000827280589" lon="9.637627932517603"><ele>65.0</ele><time>2026-03-29T15:34:56Z</time></trkpt><trkpt lat="45.240150807080745" lon="9.637352012413144"><ele>65.0</ele><time>2026-03-29T15:34:57Z</time></trkpt><trkpt lat="45.24029396400776" lon="9.637084687311447"><ele>65.0</ele><time>2026-03-29T15:34:58Z</time></trkpt><trkpt lat="45.240459423875826" lon="9.63678464758478"><ele>64.66666666666667</ele><time>2026-03-29T15:34:59Z</time></trkpt><trkpt lat="45.24057049294117" lon="9.636543102778012"><ele>64.33333333333333</ele><time>2026-03-29T15:35:00Z</time></trkpt><trkpt lat="45.24071086980291" lon="9.636277556760085"><ele>64.0</ele><time>2026-03-29T15:35:01Z</time></trkpt><trkpt lat="45.240856506499725" lon="9.636013814925064"><ele>63.5</ele><time>2026-03-29T15:35:02Z</time></trkpt><trkpt lat="45.24099876163359" lon="9.635748107869246"><ele>63.0</ele><time>2026-03-29T15:35:03Z</time></trkpt><trkpt lat="45.241143196902165" lon="9.635475242910962"><ele>63.5</ele><time>2026-03-29T15:35:04Z</time></trkpt><trkpt lat="45.24129086523764" lon="9.635202812671327"><ele>64.0</ele><time>2026-03-29T15:35:05Z</time></trkpt><trkpt lat="45.24143744891987" lon="9.634938307508829"><ele>64.5</ele><time>2026-03-29T15:35:06Z</time></trkpt><trkpt lat="45.24158326228082" lon="9.634663599935477"><ele>65.0</ele><time>2026-03-29T15:35:07Z</time></trkpt><trkpt lat="45.24172808372886" lon="9.634387983107409"><ele>63.5</ele><time>2026-03-29T15:35:08Z</time></trkpt><trkpt lat="45.24187476327947" lon="9.63410571880738"><ele>62.0</ele><time>2026-03-29T15:35:09Z</time></trkpt><trkpt lat="45.2420256376788" lon="9.633830472113006"><ele>62.0</ele><time>2026-03-29T15:35:10Z</time></trkpt><trkpt lat="45.242173175679774" lon="9.633548372637662"><ele>62.0</ele><time>2026-03-29T15:35:11Z</time></trkpt><trkpt lat="45.24232620367227" lon="9.633260980918811"><ele>62.5</ele><time>2026-03-29T15:35:12Z</time></trkpt><trkpt lat="45.24247193034984" lon="9.63299141573977"><ele>63.0</ele><time>2026-03-29T15:35:13Z</time></trkpt><trkpt lat="45.242621103358495" lon="9.63270943343563"><ele>63.0</ele><time>2026-03-29T15:35:14Z</time></trkpt><trkpt lat="45.24276696762855" lon="9.632427224616876"><ele>63.0</ele><time>2026-03-29T15:35:15Z</time></trkpt><trkpt lat="45.242915838799206" lon="9.632152474764254"><ele>63.0</ele><time>2026-03-29T15:35:16Z</time></trkpt><trkpt lat="45.24305831378227" lon="9.631888839376765"><ele>63.0</ele><time>2026-03-29T15:35:17Z</time></trkpt><trkpt lat="45.24320731634353" lon="9.63160455864436"><ele>63.0</ele><time>2026-03-29T15:35:18Z</time></trkpt><trkpt lat="45.243354373322475" lon="9.63133765771196"><ele>63.0</ele><time>2026-03-29T15:35:19Z</time></trkpt><trkpt lat="45.243498060597204" lon="9.631047797036988"><ele>63.0</ele><time>2026-03-29T15:35:20Z</time></trkpt><trkpt lat="45.24366873427215" lon="9.63075293051846"><ele>63.0</ele><time>2026-03-29T15:35:21Z</time></trkpt><trkpt lat="45.24382074842061" lon="9.630471343416028"><ele>64.0</ele><time>2026-03-29T15:35:22Z</time></trkpt><trkpt lat="45.2439766132322" lon="9.630185339446934"><ele>65.0</ele><time>2026-03-29T15:35:23Z</time></trkpt><trkpt lat="45.24412403548218" lon="9.62989494000135"><ele>65.0</ele><time>2026-03-29T15:35:24Z</time></trkpt><trkpt lat="45.244270715720674" lon="9.629610067274415"><ele>65.0</ele><time>2026-03-29T15:35:25Z</time></trkpt><trkpt lat="45.24442722527238" lon="9.6293035871218"><ele>64.5</ele><time>2026-03-29T15:35:26Z</time></trkpt><trkpt lat="45.24456593888268" lon="9.629055078294845"><ele>64.0</ele><time>2026-03-29T15:35:27Z</time></trkpt><trkpt lat="45.24471533971286" lon="9.628771101084286"><ele>64.5</ele><time>2026-03-29T15:35:27.999Z</time></trkpt><trkpt lat="45.24486183109542" lon="9.628490038614142"><ele>65.0</ele><time>2026-03-29T15:35:28.999Z</time></trkpt><trkpt lat="45.24500246132659" lon="9.628212612336167"><ele>65.0</ele><time>2026-03-29T15:35:29.999Z</time></trkpt><trkpt lat="45.24514888781533" lon="9.627955083562135"><ele>65.0</ele><time>2026-03-29T15:35:30.999Z</time></trkpt><trkpt lat="45.24528905284586" lon="9.627691421218158"><ele>65.0</ele><time>2026-03-29T15:35:31.999Z</time></trkpt><trkpt lat="45.24541456228551" lon="9.627444162330354"><ele>65.0</ele><time>2026-03-29T15:35:32.999Z</time></trkpt><trkpt lat="45.2455408876616" lon="9.627208725658942"><ele>65.0</ele><time>2026-03-29T15:35:33.999Z</time></trkpt><trkpt lat="45.24565546237702" lon="9.626972654067446"><ele>65.0</ele><time>2026-03-29T15:35:34.999Z</time></trkpt><trkpt lat="45.24577334864849" lon="9.626771662583906"><ele>65.0</ele><time>2026-03-29T15:35:35.999Z</time></trkpt><trkpt lat="45.24588420257303" lon="9.626565517694997"><ele>65.0</ele><time>2026-03-29T15:35:36.999Z</time></trkpt><trkpt lat="45.24599476721222" lon="9.626346521721315"><ele>64.33333333333334</ele><time>2026-03-29T15:35:37.999Z</time></trkpt><trkpt lat="45.24611014588172" lon="9.626126330428248"><ele>63.66666666666667</ele><time>2026-03-29T15:35:38.999Z</time></trkpt><trkpt lat="45.246226135849405" lon="9.625907269306667"><ele>63.0</ele><time>2026-03-29T15:35:39.999Z</time></trkpt><trkpt lat="45.24634144564498" lon="9.625688857409385"><ele>63.0</ele><time>2026-03-29T15:35:40.999Z</time></trkpt><trkpt lat="45.24645404702362" lon="9.625488551461546"><ele>63.0</ele><time>2026-03-29T15:35:41.999Z</time></trkpt><trkpt lat="45.24657289318895" lon="9.625307210490668"><ele>63.0</ele><time>2026-03-29T15:35:42.999Z</time></trkpt><trkpt lat="45.24669210743656" lon="9.625127333045226"><ele>63.0</ele><time>2026-03-29T15:35:43.999Z</time></trkpt><trkpt lat="45.24682009127073" lon="9.624959206014557"><ele>63.0</ele><time>2026-03-29T15:35:44.999Z</time></trkpt><trkpt lat="45.24694914204139" lon="9.624782278252844"><ele>63.0</ele><time>2026-03-29T15:35:45.999Z</time></trkpt><trkpt lat="45.24709199515482" lon="9.624617555180116"><ele>63.33333333333333</ele><time>2026-03-29T15:35:46.999Z</time></trkpt><trkpt lat="45.24723503044535" lon="9.624451210819815"><ele>63.666666666666664</ele><time>2026-03-29T15:35:47.999Z</time></trkpt><trkpt lat="45.24737393701944" lon="9.624289340376075"><ele>64.0</ele><time>2026-03-29T15:35:48.999Z</time></trkpt><trkpt lat="45.24751380070053" lon="9.624127574825376"><ele>64.0</ele><time>2026-03-29T15:35:49.999Z</time></trkpt><trkpt lat="45.24766052183412" lon="9.62397274459075"><ele>64.0</ele><time>2026-03-29T15:35:50.999Z</time></trkpt><trkpt lat="45.24780481704505" lon="9.62382680240786"><ele>64.0</ele><time>2026-03-29T15:35:51.999Z</time></trkpt><trkpt lat="45.24795179349051" lon="9.623680141650748"><ele>63.666666666666664</ele><time>2026-03-29T15:35:52.999Z</time></trkpt><trkpt lat="45.24808872696337" lon="9.623537280220107"><ele>63.33333333333333</ele><time>2026-03-29T15:35:53.999Z</time></trkpt><trkpt lat="45.24823224481218" lon="9.6233978026478"><ele>63.0</ele><time>2026-03-29T15:35:54.999Z</time></trkpt><trkpt lat="45.24837348474273" lon="9.623266848536327"><ele>63.0</ele><time>2026-03-29T15:35:55.999Z</time></trkpt><trkpt lat="45.24851723083359" lon="9.623137191607725"><ele>63.0</ele><time>2026-03-29T15:35:56.999Z</time></trkpt><trkpt lat="45.24865567086714" lon="9.622999282391184"><ele>63.0</ele><time>2026-03-29T15:35:57.999Z</time></trkpt><trkpt lat="45.24879130244203" lon="9.622863733843099"><ele>63.33333333333333</ele><time>2026-03-29T15:35:58.999Z</time></trkpt><trkpt lat="45.24892616674776" lon="9.622730889538683"><ele>63.666666666666664</ele><time>2026-03-29T15:35:59.999Z</time></trkpt><trkpt lat="45.24906205066608" lon="9.622590498941747"><ele>64.0</ele><time>2026-03-29T15:36:00.999Z</time></trkpt><trkpt lat="45.24917224443327" lon="9.622466736254928"><ele>64.0</ele><time>2026-03-29T15:36:01.999Z</time></trkpt><trkpt lat="45.24929808520298" lon="9.62231613773844"><ele>64.0</ele><time>2026-03-29T15:36:02.999Z</time></trkpt><trkpt lat="45.24944224303229" lon="9.62216534635312"><ele>64.0</ele><time>2026-03-29T15:36:03.999Z</time></trkpt><trkpt lat="45.2495620593665" lon="9.622011225321259"><ele>64.5</ele><time>2026-03-29T15:36:04.999Z</time></trkpt><trkpt lat="45.24966089136185" lon="9.621866792544877"><ele>65.0</ele><time>2026-03-29T15:36:05.999Z</time></trkpt><trkpt lat="45.24975319932424" lon="9.621705989319913"><ele>65.5</ele><time>2026-03-29T15:36:06.999Z</time></trkpt><trkpt lat="45.249852580565964" lon="9.62154829482123"><ele>66.0</ele><time>2026-03-29T15:36:07.999Z</time></trkpt><trkpt lat="45.24994197293288" lon="9.621383194536717"><ele>66.0</ele><time>2026-03-29T15:36:08.999Z</time></trkpt><trkpt lat="45.25003291803973" lon="9.621179734378604"><ele>66.0</ele><time>2026-03-29T15:36:09.999Z</time></trkpt><trkpt lat="45.25011745896753" lon="9.620997765337975"><ele>66.0</ele><time>2026-03-29T15:36:10.999Z</time></trkpt><trkpt lat="45.25020253577239" lon="9.620796454234965"><ele>65.66666666666667</ele><time>2026-03-29T15:36:11.999Z</time></trkpt><trkpt lat="45.25028177517724" lon="9.620593369421856"><ele>65.33333333333334</ele><time>2026-03-29T15:36:12.999Z</time></trkpt><trkpt lat="45.250355792989" lon="9.620367072593986"><ele>65.0</ele><time>2026-03-29T15:36:13.999Z</time></trkpt><trkpt lat="45.25042637258558" lon="9.620148326498711"><ele>64.66666666666667</ele><time>2026-03-29T15:36:14.999Z</time></trkpt><trkpt lat="45.25050412520756" lon="9.619922862700314"><ele>64.33333333333333</ele><time>2026-03-29T15:36:15.999Z</time></trkpt><trkpt lat="45.250574979727176" lon="9.61969648352149"><ele>64.0</ele><time>2026-03-29T15:36:16.999Z</time></trkpt><trkpt lat="45.25064405245617" lon="9.619469757681593"><ele>64.0</ele><time>2026-03-29T15:36:17.999Z</time></trkpt><trkpt lat="45.25071988420576" lon="9.619234852288802"><ele>64.0</ele><time>2026-03-29T15:36:18.999Z</time></trkpt><trkpt lat="45.250794029245135" lon="9.619010155769768"><ele>64.0</ele><time>2026-03-29T15:36:19.999Z</time></trkpt><trkpt lat="45.250858391175186" lon="9.618788559877176"><ele>64.66666666666666</ele><time>2026-03-29T15:36:20.999Z</time></trkpt><trkpt lat="45.25093724683811" lon="9.61855616587064"><ele>65.33333333333333</ele><time>2026-03-29T15:36:21.999Z</time></trkpt><trkpt lat="45.25101328303734" lon="9.61832865669431"><ele>66.0</ele><time>2026-03-29T15:36:22.999Z</time></trkpt><trkpt lat="45.25108604378751" lon="9.61808085340656"><ele>66.0</ele><time>2026-03-29T15:36:23.999Z</time></trkpt><trkpt lat="45.25116267721167" lon="9.617851318074969"><ele>66.0</ele><time>2026-03-29T15:36:24.999Z</time></trkpt><trkpt lat="45.25123898892495" lon="9.61762153083756"><ele>66.0</ele><time>2026-03-29T15:36:25.999Z</time></trkpt><trkpt lat="45.251313682511935" lon="9.617382089176283"><ele>66.33333333333333</ele><time>2026-03-29T15:36:26.999Z</time></trkpt><trkpt lat="45.25140159181662" lon="9.617161263013143"><ele>66.66666666666666</ele><time>2026-03-29T15:36:27.999Z</time></trkpt><trkpt lat="45.25147768018769" lon="9.616891751614082"><ele>67.0</ele><time>2026-03-29T15:36:28.999Z</time></trkpt><trkpt lat="45.25156031772257" lon="9.616670737366054"><ele>66.66666666666666</ele><time>2026-03-29T15:36:29.999Z</time></trkpt><trkpt lat="45.251635640182954" lon="9.616400710531783"><ele>66.33333333333333</ele><time>2026-03-29T15:36:30.999Z</time></trkpt><trkpt lat="45.251716703186574" lon="9.616151644816672"><ele>66.0</ele><time>2026-03-29T15:36:31.999Z</time></trkpt><trkpt lat="45.251797662392896" lon="9.615904166192857"><ele>66.0</ele><time>2026-03-29T15:36:32.999Z</time></trkpt><trkpt lat="45.251884167500144" lon="9.615646678764136"><ele>66.0</ele><time>2026-03-29T15:36:34Z</time></trkpt><trkpt lat="45.251969710963586" lon="9.615391695617662"><ele>66.0</ele><time>2026-03-29T15:36:35Z</time></trkpt><trkpt lat="45.252053015194676" lon="9.615135910971714"><ele>66.0</ele><time>2026-03-29T15:36:36Z</time></trkpt><trkpt lat="45.252128415836964" lon="9.614882704798745"><ele>66.0</ele><time>2026-03-29T15:36:37Z</time></trkpt><trkpt lat="45.25222327194462" lon="9.614614945616859"><ele>66.0</ele><time>2026-03-29T15:36:38Z</time></trkpt><trkpt lat="45.25231062231074" lon="9.614348270379118"><ele>66.0</ele><time>2026-03-29T15:36:39Z</time></trkpt><trkpt lat="45.25240222771926" lon="9.61406430342125"><ele>66.0</ele><time>2026-03-29T15:36:40Z</time></trkpt><trkpt lat="45.252491476245005" lon="9.613784011954644"><ele>66.0</ele><time>2026-03-29T15:36:41Z</time></trkpt><trkpt lat="45.252583866742505" lon="9.613501032752685"><ele>66.0</ele><time>2026-03-29T15:36:42Z</time></trkpt><trkpt lat="45.252674158258976" lon="9.613226345304486"><ele>66.0</ele><time>2026-03-29T15:36:43Z</time></trkpt><trkpt lat="45.252768889324656" lon="9.612949196723022"><ele>66.0</ele><time>2026-03-29T15:36:44Z</time></trkpt><trkpt lat="45.252862891052565" lon="9.6126694206645"><ele>66.0</ele><time>2026-03-29T15:36:45Z</time></trkpt><trkpt lat="45.2529541087208" lon="9.612389963218986"><ele>66.0</ele><time>2026-03-29T15:36:46Z</time></trkpt><trkpt lat="45.2530431017893" lon="9.612105657155134"><ele>66.0</ele><time>2026-03-29T15:36:47Z</time></trkpt><trkpt lat="45.25313350416303" lon="9.611816964952231"><ele>65.66666666666667</ele><time>2026-03-29T15:36:48Z</time></trkpt><trkpt lat="45.25322807506819" lon="9.611540173718735"><ele>65.33333333333334</ele><time>2026-03-29T15:36:49Z</time></trkpt><trkpt lat="45.25331817504039" lon="9.611252506699067"><ele>65.0</ele><time>2026-03-29T15:36:50Z</time></trkpt><trkpt lat="45.25341700586082" lon="9.610974614222197"><ele>64.33333333333334</ele><time>2026-03-29T15:36:51Z</time></trkpt><trkpt lat="45.25350758080298" lon="9.610695926320135"><ele>63.66666666666667</ele><time>2026-03-29T15:36:52Z</time></trkpt><trkpt lat="45.253595009749155" lon="9.610416442210136"><ele>63.0</ele><time>2026-03-29T15:36:53Z</time></trkpt><trkpt lat="45.25368717938496" lon="9.610137260432971"><ele>63.0</ele><time>2026-03-29T15:36:54Z</time></trkpt><trkpt lat="45.25378228959311" lon="9.609860394307812"><ele>63.0</ele><time>2026-03-29T15:36:55Z</time></trkpt><trkpt lat="45.2538852025195" lon="9.609580109736182"><ele>63.0</ele><time>2026-03-29T15:36:56Z</time></trkpt><trkpt lat="45.253996540413574" lon="9.609325711697592"><ele>63.33333333333333</ele><time>2026-03-29T15:36:57Z</time></trkpt><trkpt lat="45.254115818036716" lon="9.60907526940966"><ele>63.666666666666664</ele><time>2026-03-29T15:36:58Z</time></trkpt><trkpt lat="45.25424389770035" lon="9.60883279308121"><ele>64.0</ele><time>2026-03-29T15:36:59Z</time></trkpt><trkpt lat="45.25437337501244" lon="9.608590948775703"><ele>64.0</ele><time>2026-03-29T15:37:00Z</time></trkpt><trkpt lat="45.254503861045606" lon="9.608353985985412"><ele>64.0</ele><time>2026-03-29T15:37:01Z</time></trkpt><trkpt lat="45.254630529001886" lon="9.60811091190921"><ele>64.0</ele><time>2026-03-29T15:37:02Z</time></trkpt><trkpt lat="45.25475632687873" lon="9.607870901461782"><ele>63.33333333333333</ele><time>2026-03-29T15:37:03Z</time></trkpt><trkpt lat="45.25488569873615" lon="9.607624829481137"><ele>62.66666666666667</ele><time>2026-03-29T15:37:04Z</time></trkpt><trkpt lat="45.25500542867278" lon="9.607386906694247"><ele>62.0</ele><time>2026-03-29T15:37:05Z</time></trkpt><trkpt lat="45.255130909740245" lon="9.607151048448767"><ele>62.333333333333336</ele><time>2026-03-29T15:37:06Z</time></trkpt><trkpt lat="45.255261761526626" lon="9.606919229375643"><ele>62.66666666666667</ele><time>2026-03-29T15:37:07Z</time></trkpt><trkpt lat="45.25540089090682" lon="9.60668798646767"><ele>63.0</ele><time>2026-03-29T15:37:08Z</time></trkpt><trkpt lat="45.25555161067162" lon="9.606478902965176"><ele>64.0</ele><time>2026-03-29T15:37:09Z</time></trkpt><trkpt lat="45.255711478895655" lon="9.606274969162124"><ele>65.0</ele><time>2026-03-29T15:37:10Z</time></trkpt><trkpt lat="45.25588981654395" lon="9.606050527292133"><ele>65.0</ele><time>2026-03-29T15:37:11Z</time></trkpt><trkpt lat="45.256039479789436" lon="9.605845329279742"><ele>65.0</ele><time>2026-03-29T15:37:12Z</time></trkpt><trkpt lat="45.25622903985787" lon="9.605659607256278"><ele>65.0</ele><time>2026-03-29T15:37:13Z</time></trkpt><trkpt lat="45.25640209724172" lon="9.605453329322781"><ele>65.5</ele><time>2026-03-29T15:37:14Z</time></trkpt><trkpt lat="45.25657307917178" lon="9.605240475340398"><ele>66.0</ele><time>2026-03-29T15:37:15Z</time></trkpt><trkpt lat="45.25674830871605" lon="9.605029568138816"><ele>66.0</ele><time>2026-03-29T15:37:16Z</time></trkpt><trkpt lat="45.256892820850034" lon="9.604818743652906"><ele>66.0</ele><time>2026-03-29T15:37:17Z</time></trkpt><trkpt lat="45.25708697658879" lon="9.604607397340377"><ele>66.0</ele><time>2026-03-29T15:37:18Z</time></trkpt><trkpt lat="45.257260186035275" lon="9.604408445724626"><ele>66.0</ele><time>2026-03-29T15:37:19Z</time></trkpt><trkpt lat="45.25743409340568" lon="9.604196290014846"><ele>66.0</ele><time>2026-03-29T15:37:20Z</time></trkpt><trkpt lat="45.25760526961542" lon="9.603985046501343"><ele>66.0</ele><time>2026-03-29T15:37:21Z</time></trkpt><trkpt lat="45.25777896737629" lon="9.60377622938189"><ele>66.0</ele><time>2026-03-29T15:37:22Z</time></trkpt><trkpt lat="45.25795385872444" lon="9.603566863740365"><ele>66.0</ele><time>2026-03-29T15:37:23Z</time></trkpt><trkpt lat="45.25812950183282" lon="9.603359317438187"><ele>66.5</ele><time>2026-03-29T15:37:24Z</time></trkpt><trkpt lat="45.25830515953543" lon="9.603146177335988"><ele>67.0</ele><time>2026-03-29T15:37:25Z</time></trkpt><trkpt lat="45.25847817338979" lon="9.602934155976639"><ele>67.0</ele><time>2026-03-29T15:37:26Z</time></trkpt><trkpt lat="45.25865439348273" lon="9.602714904063165"><ele>67.0</ele><time>2026-03-29T15:37:27Z</time></trkpt><trkpt lat="45.25883010020948" lon="9.60250444881716"><ele>67.0</ele><time>2026-03-29T15:37:28Z</time></trkpt><trkpt lat="45.25900810407636" lon="9.60229770479537"><ele>67.0</ele><time>2026-03-29T15:37:29Z</time></trkpt><trkpt lat="45.259182543126144" lon="9.602087207937714"><ele>67.0</ele><time>2026-03-29T15:37:30Z</time></trkpt><trkpt lat="45.25935136309252" lon="9.60187165858311"><ele>67.0</ele><time>2026-03-29T15:37:31Z</time></trkpt><trkpt lat="45.25951775172519" lon="9.601653863389894"><ele>67.0</ele><time>2026-03-29T15:37:32Z</time></trkpt><trkpt lat="45.2597017719687" lon="9.601446856317263"><ele>67.0</ele><time>2026-03-29T15:37:33Z</time></trkpt><trkpt lat="45.259890415238324" lon="9.601238171195186"><ele>67.0</ele><time>2026-03-29T15:37:34Z</time></trkpt><trkpt lat="45.26007657165006" lon="9.601021315996894"><ele>67.0</ele><time>2026-03-29T15:37:35Z</time></trkpt><trkpt lat="45.26025470843272" lon="9.600807649090157"><ele>67.0</ele><time>2026-03-29T15:37:36Z</time></trkpt><trkpt lat="45.26043236918824" lon="9.600597560523017"><ele>67.0</ele><time>2026-03-29T15:37:37Z</time></trkpt><trkpt lat="45.260608444727005" lon="9.600388048140466"><ele>67.0</ele><time>2026-03-29T15:37:37.999Z</time></trkpt><trkpt lat="45.26078714186328" lon="9.600175106339144"><ele>67.0</ele><time>2026-03-29T15:37:38.999Z</time></trkpt><trkpt lat="45.260964027659924" lon="9.59996295025021"><ele>67.0</ele><time>2026-03-29T15:37:39.999Z</time></trkpt><trkpt lat="45.26114518419135" lon="9.59975213323066"><ele>67.0</ele><time>2026-03-29T15:37:40.999Z</time></trkpt><trkpt lat="45.26131809930132" lon="9.599544468641115"><ele>67.0</ele><time>2026-03-29T15:37:41.999Z</time></trkpt><trkpt lat="45.26149315816205" lon="9.599328438136647"><ele>67.0</ele><time>2026-03-29T15:37:42.999Z</time></trkpt><trkpt lat="45.26166255762992" lon="9.599123350170633"><ele>67.0</ele><time>2026-03-29T15:37:43.999Z</time></trkpt><trkpt lat="45.26181886863841" lon="9.598907900216606"><ele>67.0</ele><time>2026-03-29T15:37:44.999Z</time></trkpt><trkpt lat="45.26198625861412" lon="9.598704140152252"><ele>67.0</ele><time>2026-03-29T15:37:45.999Z</time></trkpt><trkpt lat="45.26214740142036" lon="9.598502959712105"><ele>67.0</ele><time>2026-03-29T15:37:46.999Z</time></trkpt><trkpt lat="45.26231115638915" lon="9.598305779957746"><ele>67.0</ele><time>2026-03-29T15:37:47.999Z</time></trkpt><trkpt lat="45.26246377810307" lon="9.598116187149802"><ele>67.0</ele><time>2026-03-29T15:37:48.999Z</time></trkpt><trkpt lat="45.26261843592046" lon="9.59792230963189"><ele>67.33333333333333</ele><time>2026-03-29T15:37:49.999Z</time></trkpt><trkpt lat="45.262787173727055" lon="9.597719452846576"><ele>67.66666666666667</ele><time>2026-03-29T15:37:50.999Z</time></trkpt><trkpt lat="45.262941985690944" lon="9.597519850752313"><ele>68.0</ele><time>2026-03-29T15:37:51.999Z</time></trkpt><trkpt lat="45.26310789105363" lon="9.597316462189381"><ele>68.5</ele><time>2026-03-29T15:37:52.999Z</time></trkpt><trkpt lat="45.26330037222778" lon="9.597113540188003"><ele>69.0</ele><time>2026-03-29T15:37:53.999Z</time></trkpt><trkpt lat="45.26347087708681" lon="9.596908185822569"><ele>69.5</ele><time>2026-03-29T15:37:54.999Z</time></trkpt><trkpt lat="45.26363972675426" lon="9.59670225226043"><ele>70.0</ele><time>2026-03-29T15:37:55.999Z</time></trkpt><trkpt lat="45.263816859811385" lon="9.596491452064795"><ele>70.0</ele><time>2026-03-29T15:37:56.999Z</time></trkpt><trkpt lat="45.26399015292585" lon="9.596286048055449"><ele>70.0</ele><time>2026-03-29T15:37:57.999Z</time></trkpt><trkpt lat="45.2641579291372" lon="9.596083486040685"><ele>70.0</ele><time>2026-03-29T15:37:58.999Z</time></trkpt><trkpt lat="45.264328986611154" lon="9.595879800333083"><ele>70.0</ele><time>2026-03-29T15:37:59.999Z</time></trkpt><trkpt lat="45.264508052280846" lon="9.59566143201082"><ele>70.0</ele><time>2026-03-29T15:38:00.999Z</time></trkpt><trkpt lat="45.264681642369794" lon="9.595453910967866"><ele>69.5</ele><time>2026-03-29T15:38:01.999Z</time></trkpt><trkpt lat="45.26485939354529" lon="9.595244598096714"><ele>69.0</ele><time>2026-03-29T15:38:02.999Z</time></trkpt><trkpt lat="45.26503425798353" lon="9.59503905885943"><ele>69.0</ele><time>2026-03-29T15:38:03.999Z</time></trkpt><trkpt lat="45.2652055371472" lon="9.59482619018356"><ele>69.0</ele><time>2026-03-29T15:38:04.999Z</time></trkpt><trkpt lat="45.26537041075076" lon="9.594621098438465"><ele>69.0</ele><time>2026-03-29T15:38:05.999Z</time></trkpt><trkpt lat="45.26554748478652" lon="9.59441810536832"><ele>69.33333333333333</ele><time>2026-03-29T15:38:06.999Z</time></trkpt><trkpt lat="45.265716465390355" lon="9.594209308575866"><ele>69.66666666666666</ele><time>2026-03-29T15:38:07.999Z</time></trkpt><trkpt lat="45.265890601259706" lon="9.594009438123024"><ele>70.0</ele><time>2026-03-29T15:38:08.999Z</time></trkpt><trkpt lat="45.26606597937352" lon="9.593805098397906"><ele>69.0</ele><time>2026-03-29T15:38:09.999Z</time></trkpt><trkpt lat="45.26624152598702" lon="9.593604946807975"><ele>68.0</ele><time>2026-03-29T15:38:10.999Z</time></trkpt><trkpt lat="45.26642548639883" lon="9.593407510891343"><ele>68.5</ele><time>2026-03-29T15:38:11.999Z</time></trkpt><trkpt lat="45.266613336357935" lon="9.5932102411246"><ele>69.0</ele><time>2026-03-29T15:38:12.999Z</time></trkpt><trkpt lat="45.266805178271376" lon="9.593013377445658"><ele>68.66666666666667</ele><time>2026-03-29T15:38:13.999Z</time></trkpt><trkpt lat="45.26700122667401" lon="9.59281628460819"><ele>68.33333333333334</ele><time>2026-03-29T15:38:14.999Z</time></trkpt><trkpt lat="45.267155713608965" lon="9.592615631880081"><ele>68.0</ele><time>2026-03-29T15:38:15.999Z</time></trkpt><trkpt lat="45.26734224772269" lon="9.592426276790269"><ele>68.66666666666667</ele><time>2026-03-29T15:38:16.999Z</time></trkpt><trkpt lat="45.267427260177996" lon="9.592186280504736"><ele>69.33333333333333</ele><time>2026-03-29T15:38:17.999Z</time></trkpt><trkpt lat="45.26759434517541" lon="9.591971219339861"><ele>70.0</ele><time>2026-03-29T15:38:18.999Z</time></trkpt><trkpt lat="45.26774729293768" lon="9.591746737109426"><ele>70.0</ele><time>2026-03-29T15:38:19.999Z</time></trkpt><trkpt lat="45.26790019619177" lon="9.591519228416868"><ele>70.0</ele><time>2026-03-29T15:38:20.999Z</time></trkpt><trkpt lat="45.268065380267124" lon="9.591291856530624"><ele>71.0</ele><time>2026-03-29T15:38:21.999Z</time></trkpt><trkpt lat="45.26822101581042" lon="9.59105386866609"><ele>72.0</ele><time>2026-03-29T15:38:22.999Z</time></trkpt><trkpt lat="45.268370028318785" lon="9.590804700097998"><ele>72.0</ele><time>2026-03-29T15:38:23.999Z</time></trkpt><trkpt lat="45.2685128878083" lon="9.590528382072163"><ele>72.0</ele><time>2026-03-29T15:38:24.999Z</time></trkpt><trkpt lat="45.2686534335956" lon="9.590242640492932"><ele>71.33333333333333</ele><time>2026-03-29T15:38:25.999Z</time></trkpt><trkpt lat="45.26879970703224" lon="9.589985056668507"><ele>70.66666666666666</ele><time>2026-03-29T15:38:26.999Z</time></trkpt><trkpt lat="45.26892546370793" lon="9.589735354186836"><ele>70.0</ele><time>2026-03-29T15:38:27.999Z</time></trkpt><trkpt lat="45.2690451170621" lon="9.589490090492987"><ele>69.66666666666666</ele><time>2026-03-29T15:38:28.999Z</time></trkpt><trkpt lat="45.26916178819374" lon="9.589242478271187"><ele>69.33333333333333</ele><time>2026-03-29T15:38:29.999Z</time></trkpt><trkpt lat="45.26928355729795" lon="9.588998153735286"><ele>69.0</ele><time>2026-03-29T15:38:30.999Z</time></trkpt><trkpt lat="45.26940502125767" lon="9.588752268934433"><ele>68.66666666666667</ele><time>2026-03-29T15:38:31.999Z</time></trkpt><trkpt lat="45.269523111230775" lon="9.588507504738848"><ele>68.33333333333334</ele><time>2026-03-29T15:38:32.999Z</time></trkpt><trkpt lat="45.269642612717405" lon="9.588258690186084"><ele>68.0</ele><time>2026-03-29T15:38:33.999Z</time></trkpt><trkpt lat="45.2697673727607" lon="9.588006593813695"><ele>68.66666666666667</ele><time>2026-03-29T15:38:34.999Z</time></trkpt><trkpt lat="45.269892715951016" lon="9.587756975792198"><ele>69.33333333333333</ele><time>2026-03-29T15:38:35.999Z</time></trkpt><trkpt lat="45.27001709591796" lon="9.587507144263537"><ele>70.0</ele><time>2026-03-29T15:38:36.999Z</time></trkpt><trkpt lat="45.270136833330284" lon="9.587265803159092"><ele>70.0</ele><time>2026-03-29T15:38:37.999Z</time></trkpt><trkpt lat="45.27026023737832" lon="9.58702296549367"><ele>70.0</ele><time>2026-03-29T15:38:38.999Z</time></trkpt><trkpt lat="45.27038518267921" lon="9.586775188415682"><ele>70.0</ele><time>2026-03-29T15:38:40Z</time></trkpt><trkpt lat="45.2705093396244" lon="9.58652032451632"><ele>70.0</ele><time>2026-03-29T15:38:41Z</time></trkpt><trkpt lat="45.27062099658286" lon="9.58627485877126"><ele>70.0</ele><time>2026-03-29T15:38:42Z</time></trkpt><trkpt lat="45.27073398487745" lon="9.586055997229582"><ele>70.0</ele><time>2026-03-29T15:38:43Z</time></trkpt><trkpt lat="45.270847736810495" lon="9.585827139175464"><ele>69.66666666666666</ele><time>2026-03-29T15:38:44Z</time></trkpt><trkpt lat="45.27095318986427" lon="9.585614977674304"><ele>69.33333333333333</ele><time>2026-03-29T15:38:45Z</time></trkpt><trkpt lat="45.27107285511577" lon="9.5853733244313"><ele>69.0</ele><time>2026-03-29T15:38:46Z</time></trkpt><trkpt lat="45.27119773320654" lon="9.585120821831545"><ele>69.0</ele><time>2026-03-29T15:38:47Z</time></trkpt><trkpt lat="45.27132061248782" lon="9.584872360813424"><ele>69.0</ele><time>2026-03-29T15:38:48Z</time></trkpt><trkpt lat="45.27144406885761" lon="9.584622732916921"><ele>69.0</ele><time>2026-03-29T15:38:49Z</time></trkpt><trkpt lat="45.27155870495614" lon="9.58439093957076"><ele>69.33333333333333</ele><time>2026-03-29T15:38:50Z</time></trkpt><trkpt lat="45.27167966180211" lon="9.584146365695778"><ele>69.66666666666666</ele><time>2026-03-29T15:38:51Z</time></trkpt><trkpt lat="45.27178668736295" lon="9.583900813140325"><ele>70.0</ele><time>2026-03-29T15:38:52Z</time></trkpt><trkpt lat="45.27190697110066" lon="9.583661847645349"><ele>70.33333333333333</ele><time>2026-03-29T15:38:53Z</time></trkpt><trkpt lat="45.272024668649486" lon="9.58343040735954"><ele>70.66666666666667</ele><time>2026-03-29T15:38:54Z</time></trkpt><trkpt lat="45.272157802239676" lon="9.583195332651393"><ele>71.0</ele><time>2026-03-29T15:38:55Z</time></trkpt><trkpt lat="45.27230484403599" lon="9.582977114976021"><ele>70.33333333333334</ele><time>2026-03-29T15:38:56Z</time></trkpt><trkpt lat="45.2724401239402" lon="9.582764969564256"><ele>69.66666666666667</ele><time>2026-03-29T15:38:57Z</time></trkpt><trkpt lat="45.27249258764388" lon="9.582478723277887"><ele>69.0</ele><time>2026-03-29T15:38:58Z</time></trkpt><trkpt lat="45.27262966934703" lon="9.582205853699561"><ele>68.33333333333333</ele><time>2026-03-29T15:38:59Z</time></trkpt><trkpt lat="45.27273820750728" lon="9.581997543410054"><ele>67.66666666666666</ele><time>2026-03-29T15:39:00Z</time></trkpt><trkpt lat="45.272852702749766" lon="9.581797401806641"><ele>67.0</ele><time>2026-03-29T15:39:01Z</time></trkpt><trkpt lat="45.27294503818613" lon="9.58159133869239"><ele>67.0</ele><time>2026-03-29T15:39:02Z</time></trkpt><trkpt lat="45.27303887554797" lon="9.581405444194425"><ele>67.0</ele><time>2026-03-29T15:39:03Z</time></trkpt><trkpt lat="45.27312657260722" lon="9.581229393449847"><ele>67.0</ele><time>2026-03-29T15:39:04Z</time></trkpt><trkpt lat="45.273210113878086" lon="9.581057488630517"><ele>67.5</ele><time>2026-03-29T15:39:05Z</time></trkpt><trkpt lat="45.27328569020961" lon="9.580890814077195"><ele>68.0</ele><time>2026-03-29T15:39:06Z</time></trkpt><trkpt lat="45.273363419448636" lon="9.580728784177412"><ele>68.5</ele><time>2026-03-29T15:39:07Z</time></trkpt><trkpt lat="45.2734908323286" lon="9.580634387318048"><ele>69.0</ele><time>2026-03-29T15:39:08Z</time></trkpt><trkpt lat="45.27361345491725" lon="9.580520039668786"><ele>69.0</ele><time>2026-03-29T15:39:09Z</time></trkpt><trkpt lat="45.273682660078464" lon="9.580452471321355"><ele>69.0</ele><time>2026-03-29T15:39:10Z</time></trkpt><trkpt lat="45.27374448153348" lon="9.580402226587433"><ele>69.0</ele><time>2026-03-29T15:39:12Z</time></trkpt><trkpt lat="45.27387001418603" lon="9.580233029409744"><ele>69.0</ele><time>2026-03-29T15:39:20Z</time></trkpt><trkpt lat="45.27397086002466" lon="9.580077952306402"><ele>69.0</ele><time>2026-03-29T15:39:21Z</time></trkpt><trkpt lat="45.27405719111341" lon="9.579868005511726"><ele>69.0</ele><time>2026-03-29T15:39:22Z</time></trkpt><trkpt lat="45.274137437264486" lon="9.57963852506133"><ele>69.0</ele><time>2026-03-29T15:39:23Z</time></trkpt><trkpt lat="45.2742080205027" lon="9.579398029230333"><ele>69.0</ele><time>2026-03-29T15:39:24Z</time></trkpt><trkpt lat="45.27426784585131" lon="9.579153733225924"><ele>69.0</ele><time>2026-03-29T15:39:25Z</time></trkpt><trkpt lat="45.27432460509122" lon="9.578898113788055"><ele>69.0</ele><time>2026-03-29T15:39:26Z</time></trkpt><trkpt lat="45.274416173692266" lon="9.578660446251508"><ele>69.66666666666667</ele><time>2026-03-29T15:39:27Z</time></trkpt><trkpt lat="45.274515228450795" lon="9.578402780240257"><ele>70.33333333333334</ele><time>2026-03-29T15:39:28Z</time></trkpt><trkpt lat="45.274632986645486" lon="9.57816452270084"><ele>71.0</ele><time>2026-03-29T15:39:29Z</time></trkpt><trkpt lat="45.27476256564784" lon="9.577912025583823"><ele>73.0</ele><time>2026-03-29T15:39:30Z</time></trkpt><trkpt lat="45.27489556233892" lon="9.577638976620237"><ele>75.0</ele><time>2026-03-29T15:39:31Z</time></trkpt><trkpt lat="45.275031221513366" lon="9.577365536649355"><ele>75.0</ele><time>2026-03-29T15:39:32Z</time></trkpt><trkpt lat="45.2751677046284" lon="9.577089418243695"><ele>75.0</ele><time>2026-03-29T15:39:33Z</time></trkpt><trkpt lat="45.275307513653324" lon="9.57680815528527"><ele>73.0</ele><time>2026-03-29T15:39:34Z</time></trkpt><trkpt lat="45.27544872639876" lon="9.576525992917139"><ele>71.0</ele><time>2026-03-29T15:39:35Z</time></trkpt><trkpt lat="45.27559274293897" lon="9.576253545782835"><ele>70.5</ele><time>2026-03-29T15:39:36Z</time></trkpt><trkpt lat="45.275736338636904" lon="9.575946709501777"><ele>70.0</ele><time>2026-03-29T15:39:36.999Z</time></trkpt><trkpt lat="45.275884741315764" lon="9.57564657290186"><ele>70.0</ele><time>2026-03-29T15:39:37.999Z</time></trkpt><trkpt lat="45.27603111951287" lon="9.575358607059263"><ele>70.0</ele><time>2026-03-29T15:39:38.999Z</time></trkpt><trkpt lat="45.27617386845825" lon="9.575071066792395"><ele>70.5</ele><time>2026-03-29T15:39:39.999Z</time></trkpt><trkpt lat="45.27631115501806" lon="9.574783425361373"><ele>71.0</ele><time>2026-03-29T15:39:40.999Z</time></trkpt><trkpt lat="45.27645513806094" lon="9.574499303002955"><ele>71.0</ele><time>2026-03-29T15:39:41.999Z</time></trkpt><trkpt lat="45.2765942541785" lon="9.574218238728148"><ele>71.0</ele><time>2026-03-29T15:39:42.999Z</time></trkpt><trkpt lat="45.27673336166079" lon="9.573937606320703"><ele>71.0</ele><time>2026-03-29T15:39:43.999Z</time></trkpt><trkpt lat="45.276867430649396" lon="9.573659610499837"><ele>71.0</ele><time>2026-03-29T15:39:44.999Z</time></trkpt><trkpt lat="45.27700043979863" lon="9.573390223127118"><ele>71.0</ele><time>2026-03-29T15:39:45.999Z</time></trkpt><trkpt lat="45.27713663502881" lon="9.573123714633326"><ele>71.0</ele><time>2026-03-29T15:39:46.999Z</time></trkpt><trkpt lat="45.277275079260065" lon="9.572856553055997"><ele>71.5</ele><time>2026-03-29T15:39:47.999Z</time></trkpt><trkpt lat="45.27740950385291" lon="9.572584943208268"><ele>72.0</ele><time>2026-03-29T15:39:48.999Z</time></trkpt><trkpt lat="45.2775440685052" lon="9.572313843917689"><ele>72.0</ele><time>2026-03-29T15:39:49.999Z</time></trkpt><trkpt lat="45.27767597319759" lon="9.572035517289809"><ele>72.0</ele><time>2026-03-29T15:39:50.999Z</time></trkpt><trkpt lat="45.27780153527668" lon="9.571780932602273"><ele>71.5</ele><time>2026-03-29T15:39:51.999Z</time></trkpt><trkpt lat="45.277940965613375" lon="9.57149469656794"><ele>71.0</ele><time>2026-03-29T15:39:52.999Z</time></trkpt><trkpt lat="45.27806896017027" lon="9.571249682970937"><ele>71.0</ele><time>2026-03-29T15:39:53.999Z</time></trkpt><trkpt lat="45.27819889918013" lon="9.570990057754294"><ele>71.0</ele><time>2026-03-29T15:39:54.999Z</time></trkpt><trkpt lat="45.27832779928133" lon="9.57072278514565"><ele>71.0</ele><time>2026-03-29T15:39:55.999Z</time></trkpt><trkpt lat="45.27845834865646" lon="9.570454041946169"><ele>71.0</ele><time>2026-03-29T15:39:56.999Z</time></trkpt><trkpt lat="45.27859087720458" lon="9.57018392523581"><ele>70.5</ele><time>2026-03-29T15:39:57.999Z</time></trkpt><trkpt lat="45.27871778350231" lon="9.569918633461263"><ele>70.0</ele><time>2026-03-29T15:39:58.999Z</time></trkpt><trkpt lat="45.27884803529135" lon="9.569651528825965"><ele>70.5</ele><time>2026-03-29T15:39:59.999Z</time></trkpt><trkpt lat="45.27897898104996" lon="9.56939052033696"><ele>71.0</ele><time>2026-03-29T15:40:00.999Z</time></trkpt><trkpt lat="45.27911432187937" lon="9.569127372885465"><ele>71.0</ele><time>2026-03-29T15:40:01.999Z</time></trkpt><trkpt lat="45.27926095819933" lon="9.568852618738356"><ele>71.0</ele><time>2026-03-29T15:40:02.999Z</time></trkpt><trkpt lat="45.2793863785306" lon="9.568569527064078"><ele>71.0</ele><time>2026-03-29T15:40:03.999Z</time></trkpt><trkpt lat="45.27950920653642" lon="9.568327966344581"><ele>71.0</ele><time>2026-03-29T15:40:04.999Z</time></trkpt><trkpt lat="45.27962553886497" lon="9.56809630710263"><ele>71.0</ele><time>2026-03-29T15:40:05.999Z</time></trkpt><trkpt lat="45.27973085249057" lon="9.56788484271427"><ele>71.33333333333334</ele><time>2026-03-29T15:40:06.999Z</time></trkpt><trkpt lat="45.279854997256656" lon="9.56764982535435"><ele>71.66666666666667</ele><time>2026-03-29T15:40:07.999Z</time></trkpt><trkpt lat="45.27992743793688" lon="9.567473345097994"><ele>72.0</ele><time>2026-03-29T15:40:08.999Z</time></trkpt><trkpt lat="45.28001495614571" lon="9.567285641179199"><ele>72.0</ele><time>2026-03-29T15:40:09.999Z</time></trkpt><trkpt lat="45.28010214817668" lon="9.56710835415945"><ele>72.0</ele><time>2026-03-29T15:40:10.999Z</time></trkpt><trkpt lat="45.28019104453663" lon="9.566949299188776"><ele>72.0</ele><time>2026-03-29T15:40:11.999Z</time></trkpt><trkpt lat="45.28028412490258" lon="9.566797791461395"><ele>72.0</ele><time>2026-03-29T15:40:12.999Z</time></trkpt><trkpt lat="45.28039092172937" lon="9.566651360206059"><ele>72.0</ele><time>2026-03-29T15:40:13.999Z</time></trkpt><trkpt lat="45.28049124366588" lon="9.566538027473891"><ele>72.0</ele><time>2026-03-29T15:40:14.999Z</time></trkpt><trkpt lat="45.28059430819106" lon="9.566436244289385"><ele>72.0</ele><time>2026-03-29T15:40:15.999Z</time></trkpt><trkpt lat="45.28068527263746" lon="9.566322821493019"><ele>72.0</ele><time>2026-03-29T15:40:16.999Z</time></trkpt><trkpt lat="45.28075502337691" lon="9.566192463500233"><ele>72.33333333333333</ele><time>2026-03-29T15:40:17.999Z</time></trkpt><trkpt lat="45.28081566607793" lon="9.566000765064464"><ele>72.66666666666666</ele><time>2026-03-29T15:40:18.999Z</time></trkpt><trkpt lat="45.28086597941889" lon="9.565784826062023"><ele>73.0</ele><time>2026-03-29T15:40:19.999Z</time></trkpt><trkpt lat="45.280921513432894" lon="9.565544060273012"><ele>73.0</ele><time>2026-03-29T15:40:20.999Z</time></trkpt><trkpt lat="45.280981278392765" lon="9.565286682477655"><ele>73.0</ele><time>2026-03-29T15:40:21.999Z</time></trkpt><trkpt lat="45.281101803522326" lon="9.565114239890534"><ele>73.0</ele><time>2026-03-29T15:40:22.999Z</time></trkpt><trkpt lat="45.28121817582778" lon="9.564810907860927"><ele>73.0</ele><time>2026-03-29T15:40:23.999Z</time></trkpt><trkpt lat="45.2813482801643" lon="9.564563141441608"><ele>73.0</ele><time>2026-03-29T15:40:24.999Z</time></trkpt><trkpt lat="45.28147922491193" lon="9.564311270592809"><ele>73.0</ele><time>2026-03-29T15:40:25.999Z</time></trkpt><trkpt lat="45.28160863140958" lon="9.564055082757092"><ele>73.0</ele><time>2026-03-29T15:40:26.999Z</time></trkpt><trkpt lat="45.28173877625684" lon="9.563791675834555"><ele>73.0</ele><time>2026-03-29T15:40:27.999Z</time></trkpt><trkpt lat="45.28187139316171" lon="9.56352455928506"><ele>72.5</ele><time>2026-03-29T15:40:28.999Z</time></trkpt><trkpt lat="45.28200730595992" lon="9.563252403493117"><ele>72.0</ele><time>2026-03-29T15:40:29.999Z</time></trkpt><trkpt lat="45.28214335301031" lon="9.562979888173157"><ele>73.0</ele><time>2026-03-29T15:40:30.999Z</time></trkpt><trkpt lat="45.282278840250754" lon="9.562706675513446"><ele>74.0</ele><time>2026-03-29T15:40:31.999Z</time></trkpt><trkpt lat="45.282409379825395" lon="9.562442171047621"><ele>74.0</ele><time>2026-03-29T15:40:32.999Z</time></trkpt><trkpt lat="45.282540032845205" lon="9.562180078775006"><ele>74.0</ele><time>2026-03-29T15:40:33.999Z</time></trkpt><trkpt lat="45.28267099256143" lon="9.561920767142732"><ele>73.66666666666667</ele><time>2026-03-29T15:40:34.999Z</time></trkpt><trkpt lat="45.282797496988024" lon="9.561659613344254"><ele>73.33333333333333</ele><time>2026-03-29T15:40:35.999Z</time></trkpt><trkpt lat="45.28292012439122" lon="9.561399489692512"><ele>73.0</ele><time>2026-03-29T15:40:36.999Z</time></trkpt><trkpt lat="45.28304048699048" lon="9.561151241092453"><ele>74.0</ele><time>2026-03-29T15:40:37.999Z</time></trkpt><trkpt lat="45.28316202508412" lon="9.560914153990627"><ele>75.0</ele><time>2026-03-29T15:40:38.999Z</time></trkpt><trkpt lat="45.28328265657651" lon="9.560671241287245"><ele>76.0</ele><time>2026-03-29T15:40:39.999Z</time></trkpt><trkpt lat="45.283404385973505" lon="9.560434294662077"><ele>75.33333333333333</ele><time>2026-03-29T15:40:40.999Z</time></trkpt><trkpt lat="45.283522681569984" lon="9.56020300256884"><ele>74.66666666666667</ele><time>2026-03-29T15:40:41.999Z</time></trkpt><trkpt lat="45.2836352020145" lon="9.559967997126142"><ele>74.0</ele><time>2026-03-29T15:40:42.999Z</time></trkpt><trkpt lat="45.283743167475464" lon="9.559745455469448"><ele>74.33333333333334</ele><time>2026-03-29T15:40:43.999Z</time></trkpt><trkpt lat="45.28384203162778" lon="9.559533492190978"><ele>74.66666666666667</ele><time>2026-03-29T15:40:44.999Z</time></trkpt><trkpt lat="45.283939451966475" lon="9.559319375988379"><ele>75.0</ele><time>2026-03-29T15:40:46Z</time></trkpt><trkpt lat="45.28402874595924" lon="9.559084226399328"><ele>75.0</ele><time>2026-03-29T15:40:47Z</time></trkpt><trkpt lat="45.28412722438505" lon="9.558841277056844"><ele>75.0</ele><time>2026-03-29T15:40:48Z</time></trkpt><trkpt lat="45.284218273130286" lon="9.55859452818423"><ele>75.0</ele><time>2026-03-29T15:40:49Z</time></trkpt><trkpt lat="45.28430268924524" lon="9.558347871609284"><ele>74.33333333333333</ele><time>2026-03-29T15:40:50Z</time></trkpt><trkpt lat="45.284385776884484" lon="9.55810543892741"><ele>73.66666666666666</ele><time>2026-03-29T15:40:51Z</time></trkpt><trkpt lat="45.284463670024145" lon="9.557865041028531"><ele>73.0</ele><time>2026-03-29T15:40:52Z</time></trkpt><trkpt lat="45.28454593613478" lon="9.557617242190286"><ele>73.0</ele><time>2026-03-29T15:40:53Z</time></trkpt><trkpt lat="45.284624333898435" lon="9.557374823465247"><ele>73.0</ele><time>2026-03-29T15:40:54Z</time></trkpt><trkpt lat="45.284703235987365" lon="9.557144508848815"><ele>73.0</ele><time>2026-03-29T15:40:55Z</time></trkpt><trkpt lat="45.28478519867296" lon="9.55692921167698"><ele>73.33333333333333</ele><time>2026-03-29T15:40:56Z</time></trkpt><trkpt lat="45.28483598526785" lon="9.556736975879549"><ele>73.66666666666667</ele><time>2026-03-29T15:40:57Z</time></trkpt><trkpt lat="45.28490306562595" lon="9.55651373066051"><ele>74.0</ele><time>2026-03-29T15:40:58Z</time></trkpt><trkpt lat="45.28497132825118" lon="9.556303088150573"><ele>74.33333333333334</ele><time>2026-03-29T15:40:59Z</time></trkpt><trkpt lat="45.28504140333144" lon="9.556088830897695"><ele>74.66666666666667</ele><time>2026-03-29T15:41:00Z</time></trkpt><trkpt lat="45.28510609768179" lon="9.555866311980592"><ele>75.0</ele><time>2026-03-29T15:41:01Z</time></trkpt><trkpt lat="45.28517492890925" lon="9.555637971122058"><ele>75.0</ele><time>2026-03-29T15:41:02Z</time></trkpt><trkpt lat="45.28524533678768" lon="9.555416225059025"><ele>75.0</ele><time>2026-03-29T15:41:03Z</time></trkpt><trkpt lat="45.285324371636584" lon="9.555186446921107"><ele>75.0</ele><time>2026-03-29T15:41:04Z</time></trkpt><trkpt lat="45.28540040491572" lon="9.554934729274835"><ele>74.66666666666667</ele><time>2026-03-29T15:41:05Z</time></trkpt><trkpt lat="45.285479020766196" lon="9.55468114772275"><ele>74.33333333333334</ele><time>2026-03-29T15:41:06Z</time></trkpt><trkpt lat="45.285560861300915" lon="9.554432310982241"><ele>74.0</ele><time>2026-03-29T15:41:07Z</time></trkpt><trkpt lat="45.28564470826749" lon="9.554189352346555"><ele>74.0</ele><time>2026-03-29T15:41:08Z</time></trkpt><trkpt lat="45.28573325211856" lon="9.553955103497588"><ele>74.0</ele><time>2026-03-29T15:41:09Z</time></trkpt><trkpt lat="45.28582467236166" lon="9.55372053983466"><ele>74.0</ele><time>2026-03-29T15:41:10Z</time></trkpt><trkpt lat="45.28591923914598" lon="9.553493435346628"><ele>74.0</ele><time>2026-03-29T15:41:11Z</time></trkpt><trkpt lat="45.28602075128994" lon="9.553264898050033"><ele>74.0</ele><time>2026-03-29T15:41:12Z</time></trkpt><trkpt lat="45.286120618073454" lon="9.553036471424301"><ele>74.0</ele><time>2026-03-29T15:41:13Z</time></trkpt><trkpt lat="45.28622262173788" lon="9.552807720765317"><ele>74.0</ele><time>2026-03-29T15:41:14Z</time></trkpt><trkpt lat="45.286324791994126" lon="9.552583881347882"><ele>74.0</ele><time>2026-03-29T15:41:15Z</time></trkpt><trkpt lat="45.28643183795633" lon="9.552367439048002"><ele>74.0</ele><time>2026-03-29T15:41:16Z</time></trkpt><trkpt lat="45.2865419824384" lon="9.552145779923324"><ele>74.0</ele><time>2026-03-29T15:41:17Z</time></trkpt><trkpt lat="45.28665244042189" lon="9.551921402332164"><ele>74.0</ele><time>2026-03-29T15:41:18Z</time></trkpt><trkpt lat="45.28676364998257" lon="9.551710733289"><ele>74.0</ele><time>2026-03-29T15:41:19Z</time></trkpt><trkpt lat="45.28687055414049" lon="9.551489981755617"><ele>74.0</ele><time>2026-03-29T15:41:20Z</time></trkpt><trkpt lat="45.28697950096354" lon="9.551273059887622"><ele>74.0</ele><time>2026-03-29T15:41:21Z</time></trkpt><trkpt lat="45.28708542821051" lon="9.551048244411168"><ele>74.0</ele><time>2026-03-29T15:41:22Z</time></trkpt><trkpt lat="45.28719006595069" lon="9.550824752899247"><ele>73.33333333333334</ele><time>2026-03-29T15:41:23Z</time></trkpt><trkpt lat="45.287298781014925" lon="9.550592163368378"><ele>72.66666666666667</ele><time>2026-03-29T15:41:24Z</time></trkpt><trkpt lat="45.287419319697335" lon="9.550356485390582"><ele>72.0</ele><time>2026-03-29T15:41:25Z</time></trkpt><trkpt lat="45.287529268649564" lon="9.550125136252145"><ele>72.0</ele><time>2026-03-29T15:41:26Z</time></trkpt><trkpt lat="45.287644163829206" lon="9.549890453398826"><ele>72.0</ele><time>2026-03-29T15:41:27Z</time></trkpt><trkpt lat="45.28775528360797" lon="9.549663962514135"><ele>72.0</ele><time>2026-03-29T15:41:28Z</time></trkpt><trkpt lat="45.28786802386782" lon="9.549430422515204"><ele>72.0</ele><time>2026-03-29T15:41:29Z</time></trkpt><trkpt lat="45.28798235197411" lon="9.54919293631951"><ele>72.0</ele><time>2026-03-29T15:41:30Z</time></trkpt><trkpt lat="45.288096817662584" lon="9.548957182667255"><ele>72.0</ele><time>2026-03-29T15:41:31Z</time></trkpt><trkpt lat="45.28821340999274" lon="9.548725084427655"><ele>72.33333333333333</ele><time>2026-03-29T15:41:32Z</time></trkpt><trkpt lat="45.288318237115355" lon="9.54849236919714"><ele>72.66666666666666</ele><time>2026-03-29T15:41:33Z</time></trkpt><trkpt lat="45.288426688731136" lon="9.548261424784704"><ele>73.0</ele><time>2026-03-29T15:41:34Z</time></trkpt><trkpt lat="45.288526837560966" lon="9.548013028028418"><ele>72.33333333333333</ele><time>2026-03-29T15:41:35Z</time></trkpt><trkpt lat="45.288617350429995" lon="9.54775241565127"><ele>71.66666666666667</ele><time>2026-03-29T15:41:36Z</time></trkpt><trkpt lat="45.28870058904823" lon="9.54748346384204"><ele>71.0</ele><time>2026-03-29T15:41:37Z</time></trkpt><trkpt lat="45.2887756888963" lon="9.54721717414078"><ele>70.66666666666667</ele><time>2026-03-29T15:41:38Z</time></trkpt><trkpt lat="45.28884221435188" lon="9.546954471639186"><ele>70.33333333333333</ele><time>2026-03-29T15:41:39Z</time></trkpt><trkpt lat="45.28890066385538" lon="9.54668715675847"><ele>70.0</ele><time>2026-03-29T15:41:40Z</time></trkpt><trkpt lat="45.28894634271503" lon="9.546424924462128"><ele>70.66666666666666</ele><time>2026-03-29T15:41:41Z</time></trkpt><trkpt lat="45.28897803648924" lon="9.54616671513381"><ele>71.33333333333333</ele><time>2026-03-29T15:41:42Z</time></trkpt><trkpt lat="45.28900643430683" lon="9.545891145964944"><ele>72.0</ele><time>2026-03-29T15:41:43Z</time></trkpt><trkpt lat="45.28902378208533" lon="9.545625341343715"><ele>71.66666666666667</ele><time>2026-03-29T15:41:44Z</time></trkpt><trkpt lat="45.28903590479477" lon="9.545358898426445"><ele>71.33333333333334</ele><time>2026-03-29T15:41:45Z</time></trkpt><trkpt lat="45.289039881809416" lon="9.545090096454935"><ele>71.0</ele><time>2026-03-29T15:41:46Z</time></trkpt><trkpt lat="45.28903132371566" lon="9.5448186074962"><ele>70.66666666666667</ele><time>2026-03-29T15:41:46.999Z</time></trkpt><trkpt lat="45.28901735117091" lon="9.544541269533173"><ele>70.33333333333333</ele><time>2026-03-29T15:41:47.999Z</time></trkpt><trkpt lat="45.2889925275281" lon="9.544265206426216"><ele>70.0</ele><time>2026-03-29T15:41:48.999Z</time></trkpt><trkpt lat="45.28896540222457" lon="9.543986196576876"><ele>70.33333333333333</ele><time>2026-03-29T15:41:49.999Z</time></trkpt><trkpt lat="45.28893650805121" lon="9.54370801431179"><ele>70.66666666666667</ele><time>2026-03-29T15:41:50.999Z</time></trkpt><trkpt lat="45.288911440876376" lon="9.543444920823415"><ele>71.0</ele><time>2026-03-29T15:41:51.999Z</time></trkpt><trkpt lat="45.28888385637004" lon="9.54318127348293"><ele>71.0</ele><time>2026-03-29T15:41:52.999Z</time></trkpt><trkpt lat="45.2888648248298" lon="9.542934440915372"><ele>71.0</ele><time>2026-03-29T15:41:53.999Z</time></trkpt><trkpt lat="45.288838489231495" lon="9.542706153338653"><ele>71.0</ele><time>2026-03-29T15:41:54.999Z</time></trkpt><trkpt lat="45.28881621047245" lon="9.5424675850776"><ele>71.33333333333334</ele><time>2026-03-29T15:41:55.999Z</time></trkpt><trkpt lat="45.288791985903046" lon="9.542240209985941"><ele>71.66666666666667</ele><time>2026-03-29T15:41:56.999Z</time></trkpt><trkpt lat="45.28876804784905" lon="9.542012397221415"><ele>72.0</ele><time>2026-03-29T15:41:57.999Z</time></trkpt><trkpt lat="45.288744713538364" lon="9.541782258656736"><ele>72.33333333333333</ele><time>2026-03-29T15:41:58.999Z</time></trkpt><trkpt lat="45.28872492772377" lon="9.541554999528707"><ele>72.66666666666666</ele><time>2026-03-29T15:41:59.999Z</time></trkpt><trkpt lat="45.28870132888882" lon="9.541326060811807"><ele>73.0</ele><time>2026-03-29T15:42:00.999Z</time></trkpt><trkpt lat="45.288678543669654" lon="9.541095361284214"><ele>73.66666666666666</ele><time>2026-03-29T15:42:01.999Z</time></trkpt><trkpt lat="45.28865214007658" lon="9.540865879627502"><ele>74.33333333333333</ele><time>2026-03-29T15:42:02.999Z</time></trkpt><trkpt lat="45.28862621715017" lon="9.5406189869455"><ele>75.0</ele><time>2026-03-29T15:42:03.999Z</time></trkpt><trkpt lat="45.28861249892076" lon="9.54038730769815"><ele>75.0</ele><time>2026-03-29T15:42:04.999Z</time></trkpt><trkpt lat="45.28857833234015" lon="9.540166164090396"><ele>75.0</ele><time>2026-03-29T15:42:05.999Z</time></trkpt><trkpt lat="45.28857167096087" lon="9.539981078107507"><ele>75.0</ele><time>2026-03-29T15:42:06.999Z</time></trkpt><trkpt lat="45.28853798157967" lon="9.5397494055428"><ele>74.66666666666667</ele><time>2026-03-29T15:42:07.999Z</time></trkpt><trkpt lat="45.28851595974146" lon="9.539528563431627"><ele>74.33333333333334</ele><time>2026-03-29T15:42:08.999Z</time></trkpt><trkpt lat="45.28849265628012" lon="9.539298574157733"><ele>74.0</ele><time>2026-03-29T15:42:09.999Z</time></trkpt><trkpt lat="45.28847319629732" lon="9.539077608330746"><ele>74.0</ele><time>2026-03-29T15:42:10.999Z</time></trkpt><trkpt lat="45.28845265541999" lon="9.538851611020878"><ele>74.0</ele><time>2026-03-29T15:42:11.999Z</time></trkpt><trkpt lat="45.28842897084116" lon="9.538625520018458"><ele>74.0</ele><time>2026-03-29T15:42:12.999Z</time></trkpt><trkpt lat="45.28840501576468" lon="9.538401768773447"><ele>73.66666666666667</ele><time>2026-03-29T15:42:13.999Z</time></trkpt><trkpt lat="45.28838367859723" lon="9.538175056264672"><ele>73.33333333333333</ele><time>2026-03-29T15:42:14.999Z</time></trkpt><trkpt lat="45.28836052928967" lon="9.537950828124924"><ele>73.0</ele><time>2026-03-29T15:42:15.999Z</time></trkpt><trkpt lat="45.288341024990636" lon="9.537725827743861"><ele>73.0</ele><time>2026-03-29T15:42:16.999Z</time></trkpt><trkpt lat="45.288318385735614" lon="9.537494558085326"><ele>73.0</ele><time>2026-03-29T15:42:17.999Z</time></trkpt><trkpt lat="45.288313632393326" lon="9.537286701684732"><ele>73.0</ele><time>2026-03-29T15:42:18.999Z</time></trkpt><trkpt lat="45.288293635507074" lon="9.537073523604763"><ele>73.0</ele><time>2026-03-29T15:42:19.999Z</time></trkpt><trkpt lat="45.28827247138141" lon="9.536847902061485"><ele>73.0</ele><time>2026-03-29T15:42:20.999Z</time></trkpt><trkpt lat="45.2882433749054" lon="9.536629969855548"><ele>73.0</ele><time>2026-03-29T15:42:21.999Z</time></trkpt><trkpt lat="45.288217762260416" lon="9.536414084364816"><ele>73.33333333333333</ele><time>2026-03-29T15:42:22.999Z</time></trkpt><trkpt lat="45.288199154297246" lon="9.536199484113986"><ele>73.66666666666667</ele><time>2026-03-29T15:42:23.999Z</time></trkpt><trkpt lat="45.288177535334235" lon="9.535982053014855"><ele>74.0</ele><time>2026-03-29T15:42:24.999Z</time></trkpt><trkpt lat="45.28815901139072" lon="9.535759102309546"><ele>74.0</ele><time>2026-03-29T15:42:25.999Z</time></trkpt><trkpt lat="45.28813685443497" lon="9.535549995773936"><ele>74.0</ele><time>2026-03-29T15:42:26.999Z</time></trkpt><trkpt lat="45.28812005226255" lon="9.535340179539356"><ele>74.0</ele><time>2026-03-29T15:42:27.999Z</time></trkpt><trkpt lat="45.28809605574539" lon="9.535142201113024"><ele>74.0</ele><time>2026-03-29T15:42:28.999Z</time></trkpt><trkpt lat="45.28807936179946" lon="9.534965925034015"><ele>73.75</ele><time>2026-03-29T15:42:29.999Z</time></trkpt><trkpt lat="45.28806575748329" lon="9.534794452351145"><ele>73.5</ele><time>2026-03-29T15:42:30.999Z</time></trkpt><trkpt lat="45.28805092296827" lon="9.534618114338222"><ele>73.25</ele><time>2026-03-29T15:42:31.999Z</time></trkpt><trkpt lat="45.288035205057305" lon="9.534449010422971"><ele>73.0</ele><time>2026-03-29T15:42:32.999Z</time></trkpt><trkpt lat="45.288017131923745" lon="9.53429168795035"><ele>73.0</ele><time>2026-03-29T15:42:33.999Z</time></trkpt><trkpt lat="45.28801222814135" lon="9.534127303896934"><ele>73.0</ele><time>2026-03-29T15:42:34.999Z</time></trkpt><trkpt lat="45.28799263709578" lon="9.533999588589985"><ele>73.0</ele><time>2026-03-29T15:42:35.999Z</time></trkpt><trkpt lat="45.28798347130027" lon="9.533865673292668"><ele>73.0</ele><time>2026-03-29T15:42:36.999Z</time></trkpt><trkpt lat="45.28797352695507" lon="9.533758030705652"><ele>73.0</ele><time>2026-03-29T15:42:37.999Z</time></trkpt><trkpt lat="45.28795847679323" lon="9.533646252865793"><ele>73.0</ele><time>2026-03-29T15:42:38.999Z</time></trkpt><trkpt lat="45.28794949194461" lon="9.533552249524462"><ele>73.0</ele><time>2026-03-29T15:42:39.999Z</time></trkpt><trkpt lat="45.28794805562625" lon="9.533454271385216"><ele>73.0</ele><time>2026-03-29T15:42:40.999Z</time></trkpt><trkpt lat="45.28793765107551" lon="9.533352034766926"><ele>73.0</ele><time>2026-03-29T15:42:42.999Z</time></trkpt><trkpt lat="45.28793114604278" lon="9.533221119210724"><ele>73.0</ele><time>2026-03-29T15:42:47.999Z</time></trkpt><trkpt lat="45.28796616809277" lon="9.533121682634805"><ele>73.0</ele><time>2026-03-29T15:42:48.999Z</time></trkpt><trkpt lat="45.288054845470015" lon="9.533005620355285"><ele>73.66666666666666</ele><time>2026-03-29T15:42:49.999Z</time></trkpt><trkpt lat="45.28813931342939" lon="9.53285247093582"><ele>74.33333333333333</ele><time>2026-03-29T15:42:50.999Z</time></trkpt><trkpt lat="45.28824777995252" lon="9.53267533694294"><ele>75.0</ele><time>2026-03-29T15:42:52Z</time></trkpt><trkpt lat="45.28835173408085" lon="9.532487587963928"><ele>75.0</ele><time>2026-03-29T15:42:53Z</time></trkpt><trkpt lat="45.28846334363634" lon="9.5323003016088"><ele>75.0</ele><time>2026-03-29T15:42:54Z</time></trkpt><trkpt lat="45.28858197703949" lon="9.532116334214244"><ele>75.0</ele><time>2026-03-29T15:42:55Z</time></trkpt><trkpt lat="45.288713040090286" lon="9.531913872418999"><ele>74.33333333333333</ele><time>2026-03-29T15:42:56Z</time></trkpt><trkpt lat="45.28883314823293" lon="9.531688298965147"><ele>73.66666666666666</ele><time>2026-03-29T15:42:57Z</time></trkpt><trkpt lat="45.28895456658544" lon="9.531481345065115"><ele>73.0</ele><time>2026-03-29T15:42:58Z</time></trkpt><trkpt lat="45.289069383972304" lon="9.531289678478313"><ele>73.33333333333333</ele><time>2026-03-29T15:42:59Z</time></trkpt><trkpt lat="45.28918191096652" lon="9.53107740081618"><ele>73.66666666666667</ele><time>2026-03-29T15:43:00Z</time></trkpt><trkpt lat="45.28930650228148" lon="9.530901063760226"><ele>74.0</ele><time>2026-03-29T15:43:01Z</time></trkpt><trkpt lat="45.28942162464448" lon="9.530721845932497"><ele>74.0</ele><time>2026-03-29T15:43:02Z</time></trkpt><trkpt lat="45.28954465229697" lon="9.530527421666878"><ele>74.0</ele><time>2026-03-29T15:43:03Z</time></trkpt><trkpt lat="45.28966830160533" lon="9.53031894710343"><ele>74.0</ele><time>2026-03-29T15:43:04Z</time></trkpt><trkpt lat="45.28976176773047" lon="9.530143043889172"><ele>74.66666666666667</ele><time>2026-03-29T15:43:05Z</time></trkpt><trkpt lat="45.28986743996216" lon="9.529987765501904"><ele>75.33333333333333</ele><time>2026-03-29T15:43:06Z</time></trkpt><trkpt lat="45.2899650739559" lon="9.529834062295292"><ele>76.0</ele><time>2026-03-29T15:43:07Z</time></trkpt><trkpt lat="45.29004923020221" lon="9.529649331913289"><ele>76.0</ele><time>2026-03-29T15:43:08Z</time></trkpt><trkpt lat="45.29015525834114" lon="9.529466281256987"><ele>76.0</ele><time>2026-03-29T15:43:09Z</time></trkpt><trkpt lat="45.290255777782406" lon="9.529303798241529"><ele>76.0</ele><time>2026-03-29T15:43:10Z</time></trkpt><trkpt lat="45.2903700374426" lon="9.52914008603907"><ele>76.0</ele><time>2026-03-29T15:43:11Z</time></trkpt><trkpt lat="45.29047035903366" lon="9.52895858123058"><ele>76.0</ele><time>2026-03-29T15:43:12Z</time></trkpt><trkpt lat="45.29057875723658" lon="9.528790503619515"><ele>76.0</ele><time>2026-03-29T15:43:13Z</time></trkpt><trkpt lat="45.290679707307206" lon="9.528638213338532"><ele>76.0</ele><time>2026-03-29T15:43:14Z</time></trkpt><trkpt lat="45.290764080453705" lon="9.528489469198012"><ele>76.0</ele><time>2026-03-29T15:43:15Z</time></trkpt><trkpt lat="45.290865160119175" lon="9.528337829668889"><ele>76.0</ele><time>2026-03-29T15:43:16Z</time></trkpt><trkpt lat="45.29096462714715" lon="9.528185222419204"><ele>76.0</ele><time>2026-03-29T15:43:17Z</time></trkpt><trkpt lat="45.291075593235824" lon="9.52804780859582"><ele>76.25</ele><time>2026-03-29T15:43:18Z</time></trkpt><trkpt lat="45.291135301727685" lon="9.527874639916305"><ele>76.5</ele><time>2026-03-29T15:43:19Z</time></trkpt><trkpt lat="45.29123961791297" lon="9.527722467730005"><ele>76.75</ele><time>2026-03-29T15:43:20Z</time></trkpt><trkpt lat="45.291338814508435" lon="9.527554700247613"><ele>77.0</ele><time>2026-03-29T15:43:21Z</time></trkpt><trkpt lat="45.29143109491817" lon="9.52740058622773"><ele>76.0</ele><time>2026-03-29T15:43:22Z</time></trkpt><trkpt lat="45.291523306486745" lon="9.527225846989424"><ele>75.0</ele><time>2026-03-29T15:43:23Z</time></trkpt><trkpt lat="45.29162568817565" lon="9.52703380693627"><ele>74.0</ele><time>2026-03-29T15:43:24Z</time></trkpt><trkpt lat="45.291730180224945" lon="9.526846125379894"><ele>74.0</ele><time>2026-03-29T15:43:25Z</time></trkpt><trkpt lat="45.29183437742541" lon="9.526680614366203"><ele>74.0</ele><time>2026-03-29T15:43:26Z</time></trkpt><trkpt lat="45.29193887770815" lon="9.526508691131674"><ele>74.0</ele><time>2026-03-29T15:43:27Z</time></trkpt><trkpt lat="45.29203431156693" lon="9.526345408484566"><ele>74.0</ele><time>2026-03-29T15:43:28Z</time></trkpt><trkpt lat="45.29212931643785" lon="9.526187631737342"><ele>74.0</ele><time>2026-03-29T15:43:29Z</time></trkpt><trkpt lat="45.29222298707468" lon="9.526030422175577"><ele>74.0</ele><time>2026-03-29T15:43:30Z</time></trkpt><trkpt lat="45.29232583073311" lon="9.52587498554953"><ele>74.0</ele><time>2026-03-29T15:43:31Z</time></trkpt><trkpt lat="45.292421296492066" lon="9.525715575744353"><ele>74.0</ele><time>2026-03-29T15:43:32Z</time></trkpt><trkpt lat="45.292507861465516" lon="9.525565303710847"><ele>74.0</ele><time>2026-03-29T15:43:33Z</time></trkpt><trkpt lat="45.2925961921924" lon="9.52540502351525"><ele>74.0</ele><time>2026-03-29T15:43:34Z</time></trkpt><trkpt lat="45.29272401930509" lon="9.52526276160007"><ele>74.0</ele><time>2026-03-29T15:43:35Z</time></trkpt><trkpt lat="45.292778649887325" lon="9.525127322556134"><ele>74.25</ele><time>2026-03-29T15:43:36Z</time></trkpt><trkpt lat="45.2928543129803" lon="9.524990066878063"><ele>74.5</ele><time>2026-03-29T15:43:37Z</time></trkpt><trkpt lat="45.29292999263387" lon="9.524868404703865"><ele>74.75</ele><time>2026-03-29T15:43:38Z</time></trkpt><trkpt lat="45.29299758658118" lon="9.524753066636796"><ele>75.0</ele><time>2026-03-29T15:43:39Z</time></trkpt><trkpt lat="45.29306988134246" lon="9.52462668006636"><ele>74.75</ele><time>2026-03-29T15:43:40Z</time></trkpt><trkpt lat="45.29316589472353" lon="9.524487908115596"><ele>74.5</ele><time>2026-03-29T15:43:41Z</time></trkpt><trkpt lat="45.29325356832262" lon="9.524339325387581"><ele>74.25</ele><time>2026-03-29T15:43:42Z</time></trkpt><trkpt lat="45.29333884483005" lon="9.524184543406358"><ele>74.0</ele><time>2026-03-29T15:43:43Z</time></trkpt><trkpt lat="45.293422887737414" lon="9.5240280581205"><ele>74.0</ele><time>2026-03-29T15:43:44Z</time></trkpt><trkpt lat="45.29351415669503" lon="9.523883741116514"><ele>74.0</ele><time>2026-03-29T15:43:45Z</time></trkpt><trkpt lat="45.293593269486095" lon="9.523748176831516"><ele>74.0</ele><time>2026-03-29T15:43:45.999Z</time></trkpt><trkpt lat="45.29366780942616" lon="9.523617920712473"><ele>74.0</ele><time>2026-03-29T15:43:46.999Z</time></trkpt><trkpt lat="45.293736724340135" lon="9.52349876997937"><ele>74.5</ele><time>2026-03-29T15:43:47.999Z</time></trkpt><trkpt lat="45.293822509263535" lon="9.523360808224393"><ele>75.0</ele><time>2026-03-29T15:43:48.999Z</time></trkpt><trkpt lat="45.29391154480371" lon="9.523227828099644"><ele>75.5</ele><time>2026-03-29T15:43:49.999Z</time></trkpt><trkpt lat="45.293995092125236" lon="9.52308333247095"><ele>76.0</ele><time>2026-03-29T15:43:50.999Z</time></trkpt><trkpt lat="45.2940722833294" lon="9.52294471428634"><ele>75.39999999999999</ele><time>2026-03-29T15:43:51.999Z</time></trkpt><trkpt lat="45.29413997585743" lon="9.52284197586639"><ele>74.8</ele><time>2026-03-29T15:43:52.999Z</time></trkpt><trkpt lat="45.29420551721064" lon="9.522747410214"><ele>74.19999999999999</ele><time>2026-03-29T15:43:53.999Z</time></trkpt><trkpt lat="45.294268269714586" lon="9.522656540325153"><ele>73.6</ele><time>2026-03-29T15:43:54.999Z</time></trkpt><trkpt lat="45.29433398768088" lon="9.522582239884565"><ele>73.0</ele><time>2026-03-29T15:43:55.999Z</time></trkpt><trkpt lat="45.2944057574179" lon="9.522513610965131"><ele>73.0</ele><time>2026-03-29T15:43:57.999Z</time></trkpt><trkpt lat="45.294465419265585" lon="9.522477133095123"><ele>73.0</ele><time>2026-03-29T15:43:59.999Z</time></trkpt><trkpt lat="45.29458168874279" lon="9.522413068068802"><ele>73.0</ele><time>2026-03-29T15:44:01.999Z</time></trkpt><trkpt lat="45.29465368856457" lon="9.522378393107912"><ele>73.0</ele><time>2026-03-29T15:44:02.999Z</time></trkpt><trkpt lat="45.29472187933003" lon="9.522357203656972"><ele>73.0</ele><time>2026-03-29T15:44:03.999Z</time></trkpt><trkpt lat="45.29479574899302" lon="9.52231565335141"><ele>73.0</ele><time>2026-03-29T15:44:04.999Z</time></trkpt><trkpt lat="45.29486972591432" lon="9.522234952948573"><ele>72.83333333333333</ele><time>2026-03-29T15:44:05.999Z</time></trkpt><trkpt lat="45.294934846129955" lon="9.522150298787192"><ele>72.66666666666666</ele><time>2026-03-29T15:44:06.999Z</time></trkpt><trkpt lat="45.294997854003675" lon="9.522074332986431"><ele>72.5</ele><time>2026-03-29T15:44:07.999Z</time></trkpt><trkpt lat="45.29504088682272" lon="9.52198016131189"><ele>72.33333333333333</ele><time>2026-03-29T15:44:08.999Z</time></trkpt><trkpt lat="45.29505819846053" lon="9.521891714933028"><ele>72.16666666666667</ele><time>2026-03-29T15:44:09.999Z</time></trkpt><trkpt lat="45.29510242235272" lon="9.521781999242691"><ele>72.0</ele><time>2026-03-29T15:44:10.999Z</time></trkpt><trkpt lat="45.29509564590371" lon="9.521659653652927"><ele>72.0</ele><time>2026-03-29T15:44:11.999Z</time></trkpt><trkpt lat="45.29507228210064" lon="9.521549595762247"><ele>72.0</ele><time>2026-03-29T15:44:12.999Z</time></trkpt><trkpt lat="45.29502912297036" lon="9.521455711963258"><ele>72.0</ele><time>2026-03-29T15:44:13.999Z</time></trkpt><trkpt lat="45.29497848051429" lon="9.521355464623367"><ele>72.0</ele><time>2026-03-29T15:44:14.999Z</time></trkpt><trkpt lat="45.294918548191255" lon="9.521261740453902"><ele>72.0</ele><time>2026-03-29T15:44:15.999Z</time></trkpt><trkpt lat="45.294846097091614" lon="9.52114056927837"><ele>72.0</ele><time>2026-03-29T15:44:16.999Z</time></trkpt><trkpt lat="45.29477870663425" lon="9.521082828051957"><ele>71.75</ele><time>2026-03-29T15:44:17.999Z</time></trkpt><trkpt lat="45.29471986753161" lon="9.520963333692068"><ele>71.5</ele><time>2026-03-29T15:44:18.999Z</time></trkpt><trkpt lat="45.29469174912273" lon="9.520817682684308"><ele>71.25</ele><time>2026-03-29T15:44:19.999Z</time></trkpt><trkpt lat="45.29467691662638" lon="9.520618148403988"><ele>71.0</ele><time>2026-03-29T15:44:20.999Z</time></trkpt><trkpt lat="45.29465265479953" lon="9.520436364225251"><ele>72.0</ele><time>2026-03-29T15:44:21.999Z</time></trkpt><trkpt lat="45.294639055664554" lon="9.520221271071371"><ele>73.0</ele><time>2026-03-29T15:44:22.999Z</time></trkpt><trkpt lat="45.29463717311124" lon="9.51998320269171"><ele>74.0</ele><time>2026-03-29T15:44:23.999Z</time></trkpt><trkpt lat="45.2946385599836" lon="9.519729608778299"><ele>73.66666666666667</ele><time>2026-03-29T15:44:24.999Z</time></trkpt><trkpt lat="45.29464427215413" lon="9.519495754258926"><ele>73.33333333333333</ele><time>2026-03-29T15:44:25.999Z</time></trkpt><trkpt lat="45.29465038871739" lon="9.519189837770897"><ele>73.0</ele><time>2026-03-29T15:44:26.999Z</time></trkpt><trkpt lat="45.29467143638484" lon="9.518911289733708"><ele>73.33333333333333</ele><time>2026-03-29T15:44:27.999Z</time></trkpt><trkpt lat="45.29468823928828" lon="9.518628839944482"><ele>73.66666666666667</ele><time>2026-03-29T15:44:28.999Z</time></trkpt><trkpt lat="45.294708673793075" lon="9.518369193203105"><ele>74.0</ele><time>2026-03-29T15:44:29.999Z</time></trkpt><trkpt lat="45.29474207174175" lon="9.518109129394027"><ele>75.0</ele><time>2026-03-29T15:44:30.999Z</time></trkpt><trkpt lat="45.29476732320499" lon="9.517866390331458"><ele>76.0</ele><time>2026-03-29T15:44:31.999Z</time></trkpt><trkpt lat="45.29479202315689" lon="9.517641677053591"><ele>77.0</ele><time>2026-03-29T15:44:32.999Z</time></trkpt><trkpt lat="45.294812764991896" lon="9.517421155766478"><ele>77.0</ele><time>2026-03-29T15:44:33.999Z</time></trkpt><trkpt lat="45.2948345944676" lon="9.517197627120805"><ele>77.0</ele><time>2026-03-29T15:44:34.999Z</time></trkpt><trkpt lat="45.29486507393128" lon="9.516995219509486"><ele>77.0</ele><time>2026-03-29T15:44:35.999Z</time></trkpt><trkpt lat="45.294904358029385" lon="9.5167338031957"><ele>77.0</ele><time>2026-03-29T15:44:36.999Z</time></trkpt><trkpt lat="45.294937820973495" lon="9.516500855995742"><ele>77.0</ele><time>2026-03-29T15:44:37.999Z</time></trkpt><trkpt lat="45.29496477177744" lon="9.516252161442859"><ele>77.0</ele><time>2026-03-29T15:44:38.999Z</time></trkpt><trkpt lat="45.295004779805325" lon="9.516012104069235"><ele>77.0</ele><time>2026-03-29T15:44:39.999Z</time></trkpt><trkpt lat="45.295065093238556" lon="9.515770629985045"><ele>77.0</ele><time>2026-03-29T15:44:40.999Z</time></trkpt><trkpt lat="45.29511593751146" lon="9.515531925727798"><ele>77.0</ele><time>2026-03-29T15:44:41.999Z</time></trkpt><trkpt lat="45.29512217360543" lon="9.515305955478869"><ele>77.33333333333334</ele><time>2026-03-29T15:44:42.999Z</time></trkpt><trkpt lat="45.295165030041424" lon="9.515068281123325"><ele>77.66666666666667</ele><time>2026-03-29T15:44:43.999Z</time></trkpt><trkpt lat="45.29520989555544" lon="9.514821542442096"><ele>78.0</ele><time>2026-03-29T15:44:44.999Z</time></trkpt><trkpt lat="45.295254065903514" lon="9.514602744407014"><ele>77.66666666666667</ele><time>2026-03-29T15:44:45.999Z</time></trkpt><trkpt lat="45.29530169650402" lon="9.514383320375897"><ele>77.33333333333334</ele><time>2026-03-29T15:44:46.999Z</time></trkpt><trkpt lat="45.295339151868845" lon="9.51417589920141"><ele>77.0</ele><time>2026-03-29T15:44:47.999Z</time></trkpt><trkpt lat="45.295373936743864" lon="9.513969171595729"><ele>77.0</ele><time>2026-03-29T15:44:48.999Z</time></trkpt><trkpt lat="45.29540743504776" lon="9.513759335121101"><ele>77.0</ele><time>2026-03-29T15:44:49.999Z</time></trkpt><trkpt lat="45.295447684817695" lon="9.513539286004033"><ele>77.0</ele><time>2026-03-29T15:44:50.999Z</time></trkpt><trkpt lat="45.295487885275286" lon="9.5133176680896"><ele>76.66666666666667</ele><time>2026-03-29T15:44:51.999Z</time></trkpt><trkpt lat="45.29553257970938" lon="9.513088211952269"><ele>76.33333333333333</ele><time>2026-03-29T15:44:52.999Z</time></trkpt><trkpt lat="45.295577622077744" lon="9.512852648961445"><ele>76.0</ele><time>2026-03-29T15:44:53.999Z</time></trkpt><trkpt lat="45.2956188478082" lon="9.512619694360216"><ele>76.0</ele><time>2026-03-29T15:44:54.999Z</time></trkpt><trkpt lat="45.29565086883428" lon="9.512372516968993"><ele>76.0</ele><time>2026-03-29T15:44:55.999Z</time></trkpt><trkpt lat="45.295707614421445" lon="9.512123463228441"><ele>76.0</ele><time>2026-03-29T15:44:56.999Z</time></trkpt><trkpt lat="45.295751945644575" lon="9.511833436115076"><ele>76.0</ele><time>2026-03-29T15:44:58Z</time></trkpt><trkpt lat="45.2958092240654" lon="9.511507221308305"><ele>76.0</ele><time>2026-03-29T15:44:59Z</time></trkpt><trkpt lat="45.29586953838907" lon="9.511198252522936"><ele>75.5</ele><time>2026-03-29T15:45:00Z</time></trkpt><trkpt lat="45.295928004623" lon="9.510889333084533"><ele>75.0</ele><time>2026-03-29T15:45:01Z</time></trkpt><trkpt lat="45.29599656640771" lon="9.51055453497348"><ele>75.0</ele><time>2026-03-29T15:45:02Z</time></trkpt><trkpt lat="45.29606457195659" lon="9.51019987466572"><ele>75.0</ele><time>2026-03-29T15:45:03Z</time></trkpt><trkpt lat="45.29612879003053" lon="9.509870791526453"><ele>74.5</ele><time>2026-03-29T15:45:04Z</time></trkpt><trkpt lat="45.29618954018024" lon="9.509545782653143"><ele>74.0</ele><time>2026-03-29T15:45:05Z</time></trkpt><trkpt lat="45.29628184248728" lon="9.509269765866435"><ele>74.0</ele><time>2026-03-29T15:45:06Z</time></trkpt><trkpt lat="45.29633932321362" lon="9.508945813723312"><ele>74.0</ele><time>2026-03-29T15:45:07Z</time></trkpt><trkpt lat="45.29639018013291" lon="9.50861692910345"><ele>74.66666666666667</ele><time>2026-03-29T15:45:08Z</time></trkpt><trkpt lat="45.29644759252899" lon="9.50831870612215"><ele>75.33333333333333</ele><time>2026-03-29T15:45:09Z</time></trkpt><trkpt lat="45.29650490085932" lon="9.508016380778548"><ele>76.0</ele><time>2026-03-29T15:45:10Z</time></trkpt><trkpt lat="45.29655681440986" lon="9.507705665435624"><ele>76.0</ele><time>2026-03-29T15:45:11Z</time></trkpt><trkpt lat="45.2966071864757" lon="9.507422309127861"><ele>76.0</ele><time>2026-03-29T15:45:12Z</time></trkpt><trkpt lat="45.29665220661595" lon="9.50713239857301"><ele>76.0</ele><time>2026-03-29T15:45:13Z</time></trkpt><trkpt lat="45.29670578482341" lon="9.506862145593091"><ele>75.66666666666666</ele><time>2026-03-29T15:45:14Z</time></trkpt><trkpt lat="45.29675463415749" lon="9.506583666745254"><ele>75.33333333333333</ele><time>2026-03-29T15:45:15Z</time></trkpt><trkpt lat="45.29680518297323" lon="9.50629315114462"><ele>75.0</ele><time>2026-03-29T15:45:16Z</time></trkpt><trkpt lat="45.2968556782357" lon="9.506010722984485"><ele>75.0</ele><time>2026-03-29T15:45:17Z</time></trkpt><trkpt lat="45.29691899211669" lon="9.50572761236046"><ele>75.0</ele><time>2026-03-29T15:45:18Z</time></trkpt><trkpt lat="45.296963067059195" lon="9.505459969003493"><ele>75.0</ele><time>2026-03-29T15:45:19Z</time></trkpt><trkpt lat="45.29700196112524" lon="9.50520475182925"><ele>75.33333333333333</ele><time>2026-03-29T15:45:20Z</time></trkpt><trkpt lat="45.2970549397643" lon="9.504984995102177"><ele>75.66666666666666</ele><time>2026-03-29T15:45:21Z</time></trkpt><trkpt lat="45.2971051507994" lon="9.504756476018356"><ele>76.0</ele><time>2026-03-29T15:45:22Z</time></trkpt><trkpt lat="45.297135243775166" lon="9.504550812151036"><ele>76.0</ele><time>2026-03-29T15:45:23Z</time></trkpt><trkpt lat="45.297164946776626" lon="9.504297946683854"><ele>76.0</ele><time>2026-03-29T15:45:24Z</time></trkpt><trkpt lat="45.29718824699049" lon="9.504139619273568"><ele>76.0</ele><time>2026-03-29T15:45:25Z</time></trkpt><trkpt lat="45.29719726688573" lon="9.504015391766485"><ele>76.0</ele><time>2026-03-29T15:45:26Z</time></trkpt><trkpt lat="45.29726106859037" lon="9.503852700150787"><ele>76.0</ele><time>2026-03-29T15:45:27Z</time></trkpt><trkpt lat="45.29729180230516" lon="9.503730630484077"><ele>76.0</ele><time>2026-03-29T15:45:28Z</time></trkpt><trkpt lat="45.29733052195065" lon="9.503643518821686"><ele>76.0</ele><time>2026-03-29T15:45:29Z</time></trkpt><trkpt lat="45.29738704394494" lon="9.503507606253907"><ele>76.0</ele><time>2026-03-29T15:45:31Z</time></trkpt><trkpt lat="45.297432460844234" lon="9.503441002167769"><ele>76.0</ele><time>2026-03-29T15:45:32Z</time></trkpt><trkpt lat="45.29748094841071" lon="9.50338184740317"><ele>76.0</ele><time>2026-03-29T15:45:33Z</time></trkpt><trkpt lat="45.29753214890994" lon="9.503294795130937"><ele>76.0</ele><time>2026-03-29T15:45:34Z</time></trkpt><trkpt lat="45.29756664046205" lon="9.503191326699561"><ele>76.0</ele><time>2026-03-29T15:45:35Z</time></trkpt><trkpt lat="45.29758500021278" lon="9.503073952870892"><ele>76.0</ele><time>2026-03-29T15:45:36Z</time></trkpt><trkpt lat="45.29757364500031" lon="9.502897751094164"><ele>76.0</ele><time>2026-03-29T15:45:37Z</time></trkpt><trkpt lat="45.297549765374406" lon="9.50273101641363"><ele>76.0</ele><time>2026-03-29T15:45:38Z</time></trkpt><trkpt lat="45.29753226899141" lon="9.5025503668338"><ele>76.0</ele><time>2026-03-29T15:45:39Z</time></trkpt><trkpt lat="45.29754555335269" lon="9.502356157580909"><ele>76.0</ele><time>2026-03-29T15:45:40Z</time></trkpt><trkpt lat="45.297569803318964" lon="9.502141387576616"><ele>76.0</ele><time>2026-03-29T15:45:41Z</time></trkpt><trkpt lat="45.29761401021007" lon="9.50190654209528"><ele>76.0</ele><time>2026-03-29T15:45:42Z</time></trkpt><trkpt lat="45.29766165094368" lon="9.501610756386393"><ele>76.0</ele><time>2026-03-29T15:45:43Z</time></trkpt><trkpt lat="45.29771838873489" lon="9.501319710842624"><ele>76.0</ele><time>2026-03-29T15:45:44Z</time></trkpt><trkpt lat="45.29777180997195" lon="9.501022936578465"><ele>76.33333333333333</ele><time>2026-03-29T15:45:45Z</time></trkpt><trkpt lat="45.29782854008549" lon="9.500717256259257"><ele>76.66666666666667</ele><time>2026-03-29T15:45:46Z</time></trkpt><trkpt lat="45.29787835549292" lon="9.500404226671737"><ele>77.0</ele><time>2026-03-29T15:45:47Z</time></trkpt><trkpt lat="45.2979368572172" lon="9.500118899920363"><ele>76.33333333333334</ele><time>2026-03-29T15:45:48Z</time></trkpt><trkpt lat="45.297989569690074" lon="9.4998329261966"><ele>75.66666666666667</ele><time>2026-03-29T15:45:49Z</time></trkpt><trkpt lat="45.298036684230894" lon="9.499579854384978"><ele>75.0</ele><time>2026-03-29T15:45:50Z</time></trkpt><trkpt lat="45.29809420692219" lon="9.499270452553539"><ele>75.66666666666667</ele><time>2026-03-29T15:45:51Z</time></trkpt><trkpt lat="45.29815193350051" lon="9.498980698794915"><ele>76.33333333333334</ele><time>2026-03-29T15:45:52Z</time></trkpt><trkpt lat="45.29820406327972" lon="9.498692347649843"><ele>77.0</ele><time>2026-03-29T15:45:53Z</time></trkpt><trkpt lat="45.29826237736826" lon="9.49839224830445"><ele>77.0</ele><time>2026-03-29T15:45:54Z</time></trkpt><trkpt lat="45.29831976570909" lon="9.498090555108915"><ele>77.0</ele><time>2026-03-29T15:45:54.999Z</time></trkpt><trkpt lat="45.298371675475245" lon="9.497794931130342"><ele>77.0</ele><time>2026-03-29T15:45:55.999Z</time></trkpt><trkpt lat="45.2984238810578" lon="9.497512383148859"><ele>76.66666666666667</ele><time>2026-03-29T15:45:56.999Z</time></trkpt><trkpt lat="45.29847528501471" lon="9.49723118373857"><ele>76.33333333333333</ele><time>2026-03-29T15:45:57.999Z</time></trkpt><trkpt lat="45.29852855547463" lon="9.496951727132425"><ele>76.0</ele><time>2026-03-29T15:45:58.999Z</time></trkpt><trkpt lat="45.29857775474146" lon="9.496682284872332"><ele>76.0</ele><time>2026-03-29T15:45:59.999Z</time></trkpt><trkpt lat="45.29861894554582" lon="9.4964063229494"><ele>76.0</ele><time>2026-03-29T15:46:00.999Z</time></trkpt><trkpt lat="45.298685966618976" lon="9.496114650634262"><ele>76.0</ele><time>2026-03-29T15:46:01.999Z</time></trkpt><trkpt lat="45.29874000326622" lon="9.495831172840925"><ele>76.0</ele><time>2026-03-29T15:46:02.999Z</time></trkpt><trkpt lat="45.298803800262405" lon="9.495544170071243"><ele>76.0</ele><time>2026-03-29T15:46:03.999Z</time></trkpt><trkpt lat="45.29886706746418" lon="9.495241164195626"><ele>76.0</ele><time>2026-03-29T15:46:04.999Z</time></trkpt><trkpt lat="45.29891521752464" lon="9.494935409344633"><ele>75.66666666666666</ele><time>2026-03-29T15:46:05.999Z</time></trkpt><trkpt lat="45.29896319320996" lon="9.494635293492957"><ele>75.33333333333333</ele><time>2026-03-29T15:46:06.999Z</time></trkpt><trkpt lat="45.29901779802213" lon="9.49433607942798"><ele>75.0</ele><time>2026-03-29T15:46:07.999Z</time></trkpt><trkpt lat="45.29907632848428" lon="9.494025292790274"><ele>75.5</ele><time>2026-03-29T15:46:08.999Z</time></trkpt><trkpt lat="45.29913780181856" lon="9.493706250633817"><ele>76.0</ele><time>2026-03-29T15:46:09.999Z</time></trkpt><trkpt lat="45.29919490432897" lon="9.493380743637763"><ele>76.0</ele><time>2026-03-29T15:46:10.999Z</time></trkpt><trkpt lat="45.299257180229475" lon="9.493061318257261"><ele>76.0</ele><time>2026-03-29T15:46:11.999Z</time></trkpt><trkpt lat="45.29931428712038" lon="9.49275264413085"><ele>76.0</ele><time>2026-03-29T15:46:12.999Z</time></trkpt><trkpt lat="45.29937531836886" lon="9.492442828737087"><ele>76.0</ele><time>2026-03-29T15:46:13.999Z</time></trkpt><trkpt lat="45.29943237139863" lon="9.492134255351012"><ele>77.0</ele><time>2026-03-29T15:46:14.999Z</time></trkpt><trkpt lat="45.29949146185004" lon="9.491821566514359"><ele>78.0</ele><time>2026-03-29T15:46:15.999Z</time></trkpt><trkpt lat="45.29954566157976" lon="9.491514550241847"><ele>77.0</ele><time>2026-03-29T15:46:16.999Z</time></trkpt><trkpt lat="45.29960454375543" lon="9.491202890483287"><ele>76.0</ele><time>2026-03-29T15:46:17.999Z</time></trkpt><trkpt lat="45.29965488684516" lon="9.490905996311971"><ele>75.0</ele><time>2026-03-29T15:46:18.999Z</time></trkpt><trkpt lat="45.29973033236872" lon="9.490628559218578"><ele>75.5</ele><time>2026-03-29T15:46:19.999Z</time></trkpt><trkpt lat="45.29980203552413" lon="9.490273885494588"><ele>76.0</ele><time>2026-03-29T15:46:20.999Z</time></trkpt><trkpt lat="45.29992368972278" lon="9.489971392765904"><ele>76.0</ele><time>2026-03-29T15:46:21.999Z</time></trkpt><trkpt lat="45.30004033717379" lon="9.48962804851417"><ele>76.0</ele><time>2026-03-29T15:46:22.999Z</time></trkpt><trkpt lat="45.30017690858852" lon="9.489261090373207"><ele>75.0</ele><time>2026-03-29T15:46:23.999Z</time></trkpt><trkpt lat="45.300302345273394" lon="9.488904815864668"><ele>74.0</ele><time>2026-03-29T15:46:24.999Z</time></trkpt><trkpt lat="45.30042680708543" lon="9.48855434234132"><ele>74.0</ele><time>2026-03-29T15:46:25.999Z</time></trkpt><trkpt lat="45.30055071205602" lon="9.488211148762934"><ele>74.0</ele><time>2026-03-29T15:46:26.999Z</time></trkpt><trkpt lat="45.30066854696346" lon="9.487876257056447"><ele>75.5</ele><time>2026-03-29T15:46:27.999Z</time></trkpt><trkpt lat="45.30078397139312" lon="9.487542195861577"><ele>77.0</ele><time>2026-03-29T15:46:28.999Z</time></trkpt><trkpt lat="45.30088824701927" lon="9.487245479249747"><ele>76.0</ele><time>2026-03-29T15:46:29.999Z</time></trkpt><trkpt lat="45.30100452480382" lon="9.486909923565019"><ele>75.0</ele><time>2026-03-29T15:46:30.999Z</time></trkpt><trkpt lat="45.30111911944513" lon="9.486614994741975"><ele>75.0</ele><time>2026-03-29T15:46:31.999Z</time></trkpt><trkpt lat="45.30124151695551" lon="9.48632217433526"><ele>75.0</ele><time>2026-03-29T15:46:32.999Z</time></trkpt><trkpt lat="45.30137816255928" lon="9.486011273832997"><ele>75.66666666666667</ele><time>2026-03-29T15:46:33.999Z</time></trkpt><trkpt lat="45.30153929514193" lon="9.485727492214693"><ele>76.33333333333334</ele><time>2026-03-29T15:46:34.999Z</time></trkpt><trkpt lat="45.30163393023298" lon="9.485489923673292"><ele>77.0</ele><time>2026-03-29T15:46:35.999Z</time></trkpt><trkpt lat="45.301769612176116" lon="9.48521625967616"><ele>77.0</ele><time>2026-03-29T15:46:36.999Z</time></trkpt><trkpt lat="45.301921004521446" lon="9.484936232340713"><ele>77.0</ele><time>2026-03-29T15:46:37.999Z</time></trkpt><trkpt lat="45.302078647491065" lon="9.484653762634203"><ele>77.0</ele><time>2026-03-29T15:46:38.999Z</time></trkpt><trkpt lat="45.30224205623624" lon="9.484383980753618"><ele>77.0</ele><time>2026-03-29T15:46:39.999Z</time></trkpt><trkpt lat="45.30240356655343" lon="9.48412287895261"><ele>77.0</ele><time>2026-03-29T15:46:40.999Z</time></trkpt><trkpt lat="45.302564822763564" lon="9.48386051805808"><ele>77.0</ele><time>2026-03-29T15:46:41.999Z</time></trkpt><trkpt lat="45.30272845328201" lon="9.483600708498162"><ele>76.5</ele><time>2026-03-29T15:46:42.999Z</time></trkpt><trkpt lat="45.30289494533151" lon="9.483335274983528"><ele>76.0</ele><time>2026-03-29T15:46:43.999Z</time></trkpt><trkpt lat="45.303056650550715" lon="9.4830737157021"><ele>77.0</ele><time>2026-03-29T15:46:44.999Z</time></trkpt><trkpt lat="45.303217011533896" lon="9.482814514907869"><ele>78.0</ele><time>2026-03-29T15:46:45.999Z</time></trkpt><trkpt lat="45.303374230128846" lon="9.482556833268765"><ele>78.0</ele><time>2026-03-29T15:46:46.999Z</time></trkpt><trkpt lat="45.30353125565374" lon="9.482304795887545"><ele>78.0</ele><time>2026-03-29T15:46:47.999Z</time></trkpt><trkpt lat="45.303687086350635" lon="9.482054566137982"><ele>77.0</ele><time>2026-03-29T15:46:48.999Z</time></trkpt><trkpt lat="45.30384466727568" lon="9.48179855504141"><ele>76.0</ele><time>2026-03-29T15:46:49.999Z</time></trkpt><trkpt lat="45.30399430637637" lon="9.481553050116514"><ele>76.0</ele><time>2026-03-29T15:46:50.999Z</time></trkpt><trkpt lat="45.30414051949605" lon="9.481309720853908"><ele>76.0</ele><time>2026-03-29T15:46:51.999Z</time></trkpt><trkpt lat="45.30428235577681" lon="9.481078432054117"><ele>76.0</ele><time>2026-03-29T15:46:52.999Z</time></trkpt><trkpt lat="45.30442616680825" lon="9.480839144038889"><ele>76.0</ele><time>2026-03-29T15:46:53.999Z</time></trkpt><trkpt lat="45.30458551755515" lon="9.480568605492884"><ele>76.0</ele><time>2026-03-29T15:46:54.999Z</time></trkpt><trkpt lat="45.30474634383438" lon="9.480290444972354"><ele>76.5</ele><time>2026-03-29T15:46:55.999Z</time></trkpt><trkpt lat="45.30490699432506" lon="9.480015074841285"><ele>77.0</ele><time>2026-03-29T15:46:56.999Z</time></trkpt><trkpt lat="45.30505217839182" lon="9.479750347936054"><ele>76.5</ele><time>2026-03-29T15:46:57.999Z</time></trkpt><trkpt lat="45.30520280564053" lon="9.479505653897764"><ele>76.0</ele><time>2026-03-29T15:46:58.999Z</time></trkpt><trkpt lat="45.30534876530927" lon="9.479235233745527"><ele>76.0</ele><time>2026-03-29T15:46:59.999Z</time></trkpt><trkpt lat="45.30548931081596" lon="9.478941680209891"><ele>76.0</ele><time>2026-03-29T15:47:00.999Z</time></trkpt><trkpt lat="45.30562788022535" lon="9.478628733642356"><ele>77.0</ele><time>2026-03-29T15:47:01.999Z</time></trkpt><trkpt lat="45.30576376391907" lon="9.478315085771658"><ele>78.0</ele><time>2026-03-29T15:47:02.999Z</time></trkpt><trkpt lat="45.305898548363935" lon="9.47800169570267"><ele>77.5</ele><time>2026-03-29T15:47:04Z</time></trkpt><trkpt lat="45.30603239554799" lon="9.477696929006875"><ele>77.0</ele><time>2026-03-29T15:47:05Z</time></trkpt><trkpt lat="45.306164704955954" lon="9.477398939586433"><ele>77.0</ele><time>2026-03-29T15:47:06Z</time></trkpt><trkpt lat="45.306293740187094" lon="9.477107572712185"><ele>77.0</ele><time>2026-03-29T15:47:07Z</time></trkpt><trkpt lat="45.30642277918754" lon="9.47684097749462"><ele>77.0</ele><time>2026-03-29T15:47:08Z</time></trkpt><trkpt lat="45.30655403861552" lon="9.47659309464526"><ele>77.0</ele><time>2026-03-29T15:47:09Z</time></trkpt><trkpt lat="45.30668712426953" lon="9.476331637996482"><ele>77.0</ele><time>2026-03-29T15:47:10Z</time></trkpt><trkpt lat="45.306842700601855" lon="9.476092595126339"><ele>77.5</ele><time>2026-03-29T15:47:11Z</time></trkpt><trkpt lat="45.307002835506275" lon="9.475848453001284"><ele>78.0</ele><time>2026-03-29T15:47:12Z</time></trkpt><trkpt lat="45.30715840990273" lon="9.475631013309751"><ele>76.5</ele><time>2026-03-29T15:47:13Z</time></trkpt><trkpt lat="45.30731434011643" lon="9.475434191186565"><ele>75.0</ele><time>2026-03-29T15:47:14Z</time></trkpt><trkpt lat="45.30751263179404" lon="9.475206646303391"><ele>75.0</ele><time>2026-03-29T15:47:15Z</time></trkpt><trkpt lat="45.307725378898134" lon="9.475005726507973"><ele>75.0</ele><time>2026-03-29T15:47:16Z</time></trkpt><trkpt lat="45.30795445449789" lon="9.474830470899505"><ele>75.5</ele><time>2026-03-29T15:47:17Z</time></trkpt><trkpt lat="45.308170487773296" lon="9.474646746733914"><ele>76.0</ele><time>2026-03-29T15:47:18Z</time></trkpt><trkpt lat="45.30840744441315" lon="9.474474813018078"><ele>76.0</ele><time>2026-03-29T15:47:19Z</time></trkpt><trkpt lat="45.30864509621066" lon="9.474322079605312"><ele>76.0</ele><time>2026-03-29T15:47:20Z</time></trkpt><trkpt lat="45.30889266659394" lon="9.47418252799894"><ele>75.5</ele><time>2026-03-29T15:47:21Z</time></trkpt><trkpt lat="45.3091369677029" lon="9.474075597456896"><ele>75.0</ele><time>2026-03-29T15:47:22Z</time></trkpt><trkpt lat="45.30938030419093" lon="9.473984472984752"><ele>75.0</ele><time>2026-03-29T15:47:23Z</time></trkpt><trkpt lat="45.30963067558959" lon="9.473909874819135"><ele>75.0</ele><time>2026-03-29T15:47:24Z</time></trkpt><trkpt lat="45.3098893099989" lon="9.473864295392154"><ele>76.5</ele><time>2026-03-29T15:47:25Z</time></trkpt><trkpt lat="45.31014390178821" lon="9.473825134179604"><ele>78.0</ele><time>2026-03-29T15:47:26Z</time></trkpt><trkpt lat="45.31040227917329" lon="9.473783932945297"><ele>78.0</ele><time>2026-03-29T15:47:27Z</time></trkpt><trkpt lat="45.310642423699804" lon="9.47374283090631"><ele>78.0</ele><time>2026-03-29T15:47:28Z</time></trkpt><trkpt lat="45.3108868337643" lon="9.47370420827876"><ele>78.0</ele><time>2026-03-29T15:47:29Z</time></trkpt><trkpt lat="45.311129322195825" lon="9.473656769682508"><ele>78.0</ele><time>2026-03-29T15:47:30Z</time></trkpt><trkpt lat="45.31136932455827" lon="9.473604596103709"><ele>79.0</ele><time>2026-03-29T15:47:31Z</time></trkpt><trkpt lat="45.31161379648438" lon="9.473562430844407"><ele>80.0</ele><time>2026-03-29T15:47:32Z</time></trkpt><trkpt lat="45.31185830834188" lon="9.473519782714959"><ele>80.0</ele><time>2026-03-29T15:47:33Z</time></trkpt><trkpt lat="45.31210912244268" lon="9.473473539252593"><ele>80.0</ele><time>2026-03-29T15:47:34Z</time></trkpt><trkpt lat="45.31235927041818" lon="9.473424574181916"><ele>79.5</ele><time>2026-03-29T15:47:35Z</time></trkpt><trkpt lat="45.31261649453282" lon="9.473370425378135"><ele>79.0</ele><time>2026-03-29T15:47:36Z</time></trkpt><trkpt lat="45.312862973705776" lon="9.473303443813439"><ele>79.0</ele><time>2026-03-29T15:47:37Z</time></trkpt><trkpt lat="45.31313019708574" lon="9.473264594425048"><ele>79.0</ele><time>2026-03-29T15:47:38Z</time></trkpt><trkpt lat="45.31338816377308" lon="9.473221496588017"><ele>79.0</ele><time>2026-03-29T15:47:39Z</time></trkpt><trkpt lat="45.31364491312093" lon="9.473173064748478"><ele>79.0</ele><time>2026-03-29T15:47:40Z</time></trkpt><trkpt lat="45.31390172718501" lon="9.473132261140623"><ele>78.5</ele><time>2026-03-29T15:47:41Z</time></trkpt><trkpt lat="45.31415588510423" lon="9.473093667444443"><ele>78.0</ele><time>2026-03-29T15:47:42Z</time></trkpt><trkpt lat="45.314411820360675" lon="9.473049433264206"><ele>78.0</ele><time>2026-03-29T15:47:43Z</time></trkpt><trkpt lat="45.314665552239276" lon="9.472982811180424"><ele>78.0</ele><time>2026-03-29T15:47:44Z</time></trkpt><trkpt lat="45.31491383196771" lon="9.472943699088935"><ele>77.0</ele><time>2026-03-29T15:47:45Z</time></trkpt><trkpt lat="45.31516028074085" lon="9.472876553114414"><ele>76.0</ele><time>2026-03-29T15:47:46Z</time></trkpt><trkpt lat="45.31539960528326" lon="9.472786492279159"><ele>77.5</ele><time>2026-03-29T15:47:47Z</time></trkpt><trkpt lat="45.315629984392366" lon="9.472678641374854"><ele>79.0</ele><time>2026-03-29T15:47:48Z</time></trkpt><trkpt lat="45.315857191384545" lon="9.472549409702022"><ele>79.0</ele><time>2026-03-29T15:47:49Z</time></trkpt><trkpt lat="45.31608064381844" lon="9.472410850361117"><ele>79.0</ele><time>2026-03-29T15:47:50Z</time></trkpt><trkpt lat="45.31629354397758" lon="9.472262205838485"><ele>77.5</ele><time>2026-03-29T15:47:51Z</time></trkpt><trkpt lat="45.316500369440355" lon="9.47208982744849"><ele>76.0</ele><time>2026-03-29T15:47:52Z</time></trkpt><trkpt lat="45.316687830418275" lon="9.471912896354128"><ele>76.0</ele><time>2026-03-29T15:47:53Z</time></trkpt><trkpt lat="45.31685075783898" lon="9.471671894855543"><ele>76.0</ele><time>2026-03-29T15:47:54Z</time></trkpt><trkpt lat="45.31702299186945" lon="9.471440722813515"><ele>76.0</ele><time>2026-03-29T15:47:55Z</time></trkpt><trkpt lat="45.31719879927223" lon="9.47119859605294"><ele>76.0</ele><time>2026-03-29T15:47:56Z</time></trkpt><trkpt lat="45.31735601194313" lon="9.470952010206226"><ele>76.33333333333333</ele><time>2026-03-29T15:47:57Z</time></trkpt><trkpt lat="45.3175123415203" lon="9.470718198842235"><ele>76.66666666666667</ele><time>2026-03-29T15:47:58Z</time></trkpt><trkpt lat="45.31765798124191" lon="9.470483158957087"><ele>77.0</ele><time>2026-03-29T15:47:58.999Z</time></trkpt><trkpt lat="45.31779613380293" lon="9.470184722169757"><ele>77.0</ele><time>2026-03-29T15:47:59.999Z</time></trkpt><trkpt lat="45.317919142727014" lon="9.46989455369141"><ele>77.0</ele><time>2026-03-29T15:48:00.999Z</time></trkpt><trkpt lat="45.31802966759535" lon="9.469594982307258"><ele>76.0</ele><time>2026-03-29T15:48:01.999Z</time></trkpt><trkpt lat="45.318133404582746" lon="9.46928425466957"><ele>75.0</ele><time>2026-03-29T15:48:02.999Z</time></trkpt><trkpt lat="45.31823452155279" lon="9.468935108068075"><ele>74.0</ele><time>2026-03-29T15:48:03.999Z</time></trkpt><trkpt lat="45.3183565812591" lon="9.468578831944674"><ele>73.0</ele><time>2026-03-29T15:48:04.999Z</time></trkpt><trkpt lat="45.318486185137424" lon="9.46822441992272"><ele>73.5</ele><time>2026-03-29T15:48:05.999Z</time></trkpt><trkpt lat="45.31863457386698" lon="9.467882645961211"><ele>74.0</ele><time>2026-03-29T15:48:06.999Z</time></trkpt><trkpt lat="45.318701088402996" lon="9.4675206799968"><ele>74.0</ele><time>2026-03-29T15:48:07.999Z</time></trkpt><trkpt lat="45.31881173424066" lon="9.467164356180827"><ele>74.0</ele><time>2026-03-29T15:48:08.999Z</time></trkpt><trkpt lat="45.31892128405097" lon="9.466811290869742"><ele>75.5</ele><time>2026-03-29T15:48:09.999Z</time></trkpt><trkpt lat="45.31903097809272" lon="9.466465147216079"><ele>77.0</ele><time>2026-03-29T15:48:10.999Z</time></trkpt><trkpt lat="45.31913499820036" lon="9.466122040584542"><ele>77.0</ele><time>2026-03-29T15:48:11.999Z</time></trkpt><trkpt lat="45.319239946448675" lon="9.46578911523501"><ele>77.0</ele><time>2026-03-29T15:48:12.999Z</time></trkpt><trkpt lat="45.319346677109735" lon="9.46545742797705"><ele>77.5</ele><time>2026-03-29T15:48:13.999Z</time></trkpt><trkpt lat="45.319449364494695" lon="9.465138634144317"><ele>78.0</ele><time>2026-03-29T15:48:14.999Z</time></trkpt><trkpt lat="45.319556588616734" lon="9.464821200629924"><ele>78.0</ele><time>2026-03-29T15:48:15.999Z</time></trkpt><trkpt lat="45.31966597032554" lon="9.464508765798401"><ele>78.0</ele><time>2026-03-29T15:48:16.999Z</time></trkpt><trkpt lat="45.31978255421083" lon="9.464188439431643"><ele>78.5</ele><time>2026-03-29T15:48:17.999Z</time></trkpt><trkpt lat="45.31991776309193" lon="9.463888995626052"><ele>79.0</ele><time>2026-03-29T15:48:18.999Z</time></trkpt><trkpt lat="45.32005408407138" lon="9.463586835014894"><ele>79.0</ele><time>2026-03-29T15:48:19.999Z</time></trkpt><trkpt lat="45.32019253967036" lon="9.463285231755393"><ele>79.0</ele><time>2026-03-29T15:48:20.999Z</time></trkpt><trkpt lat="45.32033601263585" lon="9.462988809140144"><ele>79.0</ele><time>2026-03-29T15:48:21.999Z</time></trkpt><trkpt lat="45.320486088109966" lon="9.462693359084746"><ele>79.0</ele><time>2026-03-29T15:48:22.999Z</time></trkpt><trkpt lat="45.32064220178604" lon="9.462401016229967"><ele>79.5</ele><time>2026-03-29T15:48:23.999Z</time></trkpt><trkpt lat="45.32080222310094" lon="9.462102653863385"><ele>80.0</ele><time>2026-03-29T15:48:24.999Z</time></trkpt><trkpt lat="45.32096501207962" lon="9.461801984854235"><ele>80.0</ele><time>2026-03-29T15:48:25.999Z</time></trkpt><trkpt lat="45.32112557846843" lon="9.46150311423522"><ele>80.0</ele><time>2026-03-29T15:48:26.999Z</time></trkpt><trkpt lat="45.32128289747788" lon="9.461200946200325"><ele>79.5</ele><time>2026-03-29T15:48:27.999Z</time></trkpt><trkpt lat="45.3214232552304" lon="9.460940172901363"><ele>79.0</ele><time>2026-03-29T15:48:28.999Z</time></trkpt><trkpt lat="45.321602241485294" lon="9.460611441799562"><ele>79.0</ele><time>2026-03-29T15:48:29.999Z</time></trkpt><trkpt lat="45.32175776046123" lon="9.460318031113776"><ele>79.0</ele><time>2026-03-29T15:48:30.999Z</time></trkpt><trkpt lat="45.321915437187215" lon="9.460022340575692"><ele>79.0</ele><time>2026-03-29T15:48:31.999Z</time></trkpt><trkpt lat="45.32206734634446" lon="9.45973697967402"><ele>79.0</ele><time>2026-03-29T15:48:32.999Z</time></trkpt><trkpt lat="45.32222482801286" lon="9.459436867838965"><ele>80.0</ele><time>2026-03-29T15:48:33.999Z</time></trkpt><trkpt lat="45.32238223410218" lon="9.459138403399646"><ele>81.0</ele><time>2026-03-29T15:48:34.999Z</time></trkpt><trkpt lat="45.32253287468276" lon="9.458846572226506"><ele>81.0</ele><time>2026-03-29T15:48:35.999Z</time></trkpt><trkpt lat="45.32269396854936" lon="9.45860355990119"><ele>81.0</ele><time>2026-03-29T15:48:36.999Z</time></trkpt><trkpt lat="45.322836755410435" lon="9.458300346930695"><ele>81.0</ele><time>2026-03-29T15:48:37.999Z</time></trkpt><trkpt lat="45.32298078308828" lon="9.458022794904974"><ele>81.0</ele><time>2026-03-29T15:48:38.999Z</time></trkpt><trkpt lat="45.323122969583366" lon="9.45774962261295"><ele>81.0</ele><time>2026-03-29T15:48:39.999Z</time></trkpt><trkpt lat="45.32326878294883" lon="9.457486645405721"><ele>81.0</ele><time>2026-03-29T15:48:40.999Z</time></trkpt><trkpt lat="45.32340154089939" lon="9.457249004385105"><ele>81.0</ele><time>2026-03-29T15:48:41.999Z</time></trkpt><trkpt lat="45.32352539784385" lon="9.457005563943035"><ele>81.0</ele><time>2026-03-29T15:48:42.999Z</time></trkpt><trkpt lat="45.32363826578758" lon="9.456759702687348"><ele>81.0</ele><time>2026-03-29T15:48:43.999Z</time></trkpt><trkpt lat="45.32374244460478" lon="9.456509746300663"><ele>81.0</ele><time>2026-03-29T15:48:44.999Z</time></trkpt><trkpt lat="45.32383041667045" lon="9.456251995215876"><ele>81.0</ele><time>2026-03-29T15:48:45.999Z</time></trkpt><trkpt lat="45.32389582462547" lon="9.455994702190184"><ele>81.0</ele><time>2026-03-29T15:48:46.999Z</time></trkpt><trkpt lat="45.323973141292484" lon="9.455706769204717"><ele>81.0</ele><time>2026-03-29T15:48:47.999Z</time></trkpt><trkpt lat="45.32403535668405" lon="9.455413629567532"><ele>81.0</ele><time>2026-03-29T15:48:48.999Z</time></trkpt><trkpt lat="45.324100895974816" lon="9.455108086026163"><ele>81.0</ele><time>2026-03-29T15:48:49.999Z</time></trkpt><trkpt lat="45.32416643257194" lon="9.454795655901451"><ele>81.0</ele><time>2026-03-29T15:48:50.999Z</time></trkpt><trkpt lat="45.324215068577075" lon="9.454475019628655"><ele>81.0</ele><time>2026-03-29T15:48:51.999Z</time></trkpt><trkpt lat="45.324272783373225" lon="9.454161030486922"><ele>81.0</ele><time>2026-03-29T15:48:52.999Z</time></trkpt><trkpt lat="45.32433510054046" lon="9.453831384447371"><ele>81.0</ele><time>2026-03-29T15:48:53.999Z</time></trkpt><trkpt lat="45.324414199757264" lon="9.453485015393484"><ele>81.0</ele><time>2026-03-29T15:48:54.999Z</time></trkpt><trkpt lat="45.32448163183056" lon="9.453138153305467"><ele>81.0</ele><time>2026-03-29T15:48:55.999Z</time></trkpt><trkpt lat="45.32454792298473" lon="9.452792675189627"><ele>81.0</ele><time>2026-03-29T15:48:56.999Z</time></trkpt><trkpt lat="45.32461729871589" lon="9.452440359047902"><ele>81.0</ele><time>2026-03-29T15:48:57.999Z</time></trkpt><trkpt lat="45.324684697774266" lon="9.452084432468956"><ele>79.5</ele><time>2026-03-29T15:48:58.999Z</time></trkpt><trkpt lat="45.32474823969959" lon="9.451749583998735"><ele>78.0</ele><time>2026-03-29T15:48:59.999Z</time></trkpt><trkpt lat="45.32481646656787" lon="9.451421216640545"><ele>79.0</ele><time>2026-03-29T15:49:00.999Z</time></trkpt><trkpt lat="45.3248832509317" lon="9.451094605610542"><ele>80.0</ele><time>2026-03-29T15:49:01.999Z</time></trkpt><trkpt lat="45.32495405116575" lon="9.450771476523533"><ele>80.0</ele><time>2026-03-29T15:49:02.999Z</time></trkpt><trkpt lat="45.32504600177612" lon="9.450461546610354"><ele>80.0</ele><time>2026-03-29T15:49:03.999Z</time></trkpt><trkpt lat="45.325146861243674" lon="9.45016574381863"><ele>80.5</ele><time>2026-03-29T15:49:04.999Z</time></trkpt><trkpt lat="45.325258050628534" lon="9.449865054134943"><ele>81.0</ele><time>2026-03-29T15:49:05.999Z</time></trkpt><trkpt lat="45.32534668066453" lon="9.449550048892913"><ele>81.5</ele><time>2026-03-29T15:49:06.999Z</time></trkpt><trkpt lat="45.3254462192519" lon="9.449245024633777"><ele>82.0</ele><time>2026-03-29T15:49:07.999Z</time></trkpt><trkpt lat="45.32554038363008" lon="9.448947950104078"><ele>81.0</ele><time>2026-03-29T15:49:08.999Z</time></trkpt><trkpt lat="45.325639452712835" lon="9.448646866141832"><ele>80.0</ele><time>2026-03-29T15:49:10Z</time></trkpt><trkpt lat="45.32573373366392" lon="9.448340650718846"><ele>80.0</ele><time>2026-03-29T15:49:11Z</time></trkpt><trkpt lat="45.325841362423574" lon="9.448047894889678"><ele>80.0</ele><time>2026-03-29T15:49:12Z</time></trkpt><trkpt lat="45.325935759169816" lon="9.447759978388927"><ele>80.0</ele><time>2026-03-29T15:49:13Z</time></trkpt><trkpt lat="45.3260237734268" lon="9.447469564166466"><ele>80.0</ele><time>2026-03-29T15:49:14Z</time></trkpt><trkpt lat="45.326129707829985" lon="9.447187860348198"><ele>80.0</ele><time>2026-03-29T15:49:15Z</time></trkpt><trkpt lat="45.32622795860144" lon="9.446908282784348"><ele>80.0</ele><time>2026-03-29T15:49:16Z</time></trkpt><trkpt lat="45.326305435002" lon="9.44662460326261"><ele>80.0</ele><time>2026-03-29T15:49:17Z</time></trkpt><trkpt lat="45.32640517965488" lon="9.44634594763285"><ele>80.0</ele><time>2026-03-29T15:49:18Z</time></trkpt><trkpt lat="45.32648616140816" lon="9.446057378752885"><ele>80.0</ele><time>2026-03-29T15:49:19Z</time></trkpt><trkpt lat="45.326593981972046" lon="9.445782011582697"><ele>80.0</ele><time>2026-03-29T15:49:20Z</time></trkpt><trkpt lat="45.32668599173764" lon="9.445524432025769"><ele>80.0</ele><time>2026-03-29T15:49:21Z</time></trkpt><trkpt lat="45.326775250434736" lon="9.445244226306388"><ele>80.0</ele><time>2026-03-29T15:49:22Z</time></trkpt><trkpt lat="45.32686846156051" lon="9.444972965724844"><ele>80.0</ele><time>2026-03-29T15:49:23Z</time></trkpt><trkpt lat="45.326962728106345" lon="9.444692468279825"><ele>80.0</ele><time>2026-03-29T15:49:24Z</time></trkpt><trkpt lat="45.327060976739034" lon="9.444398598278935"><ele>80.5</ele><time>2026-03-29T15:49:25Z</time></trkpt><trkpt lat="45.32715810769889" lon="9.444096649867078"><ele>81.0</ele><time>2026-03-29T15:49:26Z</time></trkpt><trkpt lat="45.32725471811839" lon="9.443801945874329"><ele>81.66666666666667</ele><time>2026-03-29T15:49:27Z</time></trkpt><trkpt lat="45.32734976478379" lon="9.44351445884021"><ele>82.33333333333334</ele><time>2026-03-29T15:49:28Z</time></trkpt><trkpt lat="45.327437361159205" lon="9.443245596899663"><ele>83.0</ele><time>2026-03-29T15:49:29Z</time></trkpt><trkpt lat="45.32752701147012" lon="9.443000362243922"><ele>82.66666666666667</ele><time>2026-03-29T15:49:30Z</time></trkpt><trkpt lat="45.32759957172641" lon="9.442751143294473"><ele>82.33333333333333</ele><time>2026-03-29T15:49:31Z</time></trkpt><trkpt lat="45.32768494888379" lon="9.442500050213514"><ele>82.0</ele><time>2026-03-29T15:49:32Z</time></trkpt><trkpt lat="45.32777056603578" lon="9.44225759606178"><ele>81.66666666666666</ele><time>2026-03-29T15:49:33Z</time></trkpt><trkpt lat="45.327857457431655" lon="9.441997583719147"><ele>81.33333333333333</ele><time>2026-03-29T15:49:34Z</time></trkpt><trkpt lat="45.327936000323575" lon="9.441740779879778"><ele>81.0</ele><time>2026-03-29T15:49:35Z</time></trkpt><trkpt lat="45.32801748377971" lon="9.441479769820083"><ele>82.33333333333333</ele><time>2026-03-29T15:49:36Z</time></trkpt><trkpt lat="45.328097171927894" lon="9.441205805803099"><ele>83.66666666666666</ele><time>2026-03-29T15:49:37Z</time></trkpt><trkpt lat="45.32818331600795" lon="9.440936724636114"><ele>85.0</ele><time>2026-03-29T15:49:38Z</time></trkpt><trkpt lat="45.328269939655364" lon="9.440666693595603"><ele>84.66666666666666</ele><time>2026-03-29T15:49:39Z</time></trkpt><trkpt lat="45.3283711338064" lon="9.440385055561686"><ele>84.33333333333333</ele><time>2026-03-29T15:49:40Z</time></trkpt><trkpt lat="45.328433174716785" lon="9.44010476342593"><ele>84.0</ele><time>2026-03-29T15:49:41Z</time></trkpt><trkpt lat="45.328503025446416" lon="9.439830042355215"><ele>83.66666666666667</ele><time>2026-03-29T15:49:42Z</time></trkpt><trkpt lat="45.328564841352396" lon="9.439562644266294"><ele>83.33333333333334</ele><time>2026-03-29T15:49:43Z</time></trkpt><trkpt lat="45.32862873714308" lon="9.439299218668982"><ele>83.0</ele><time>2026-03-29T15:49:44Z</time></trkpt><trkpt lat="45.32869796426471" lon="9.43903383390165"><ele>83.0</ele><time>2026-03-29T15:49:45Z</time></trkpt><trkpt lat="45.32876665448108" lon="9.438783521541348"><ele>83.0</ele><time>2026-03-29T15:49:46Z</time></trkpt><trkpt lat="45.328831639092954" lon="9.438537667077767"><ele>83.0</ele><time>2026-03-29T15:49:47Z</time></trkpt><trkpt lat="45.32889563521991" lon="9.438292648109256"><ele>83.0</ele><time>2026-03-29T15:49:48Z</time></trkpt><trkpt lat="45.32895836159589" lon="9.438051823478924"><ele>83.0</ele><time>2026-03-29T15:49:49Z</time></trkpt><trkpt lat="45.32901400240095" lon="9.437829367724756"><ele>83.0</ele><time>2026-03-29T15:49:50Z</time></trkpt><trkpt lat="45.329073019128046" lon="9.437603003545105"><ele>83.33333333333334</ele><time>2026-03-29T15:49:51Z</time></trkpt><trkpt lat="45.32913536558715" lon="9.43737980763458"><ele>83.66666666666667</ele><time>2026-03-29T15:49:52Z</time></trkpt><trkpt lat="45.32919565214954" lon="9.437143819741763"><ele>84.0</ele><time>2026-03-29T15:49:53Z</time></trkpt><trkpt lat="45.32925394847779" lon="9.436915669669212"><ele>84.0</ele><time>2026-03-29T15:49:54Z</time></trkpt><trkpt lat="45.32931226028701" lon="9.436708857525813"><ele>84.0</ele><time>2026-03-29T15:49:55Z</time></trkpt><trkpt lat="45.32935128040946" lon="9.436502470873624"><ele>84.0</ele><time>2026-03-29T15:49:56Z</time></trkpt><trkpt lat="45.32940156766727" lon="9.436294213997755"><ele>84.0</ele><time>2026-03-29T15:49:57Z</time></trkpt><trkpt lat="45.329464013120415" lon="9.436078359243893"><ele>84.0</ele><time>2026-03-29T15:49:58Z</time></trkpt><trkpt lat="45.32952559720237" lon="9.435842648737635"><ele>84.0</ele><time>2026-03-29T15:49:59Z</time></trkpt><trkpt lat="45.32959026103914" lon="9.435598909629523"><ele>84.33333333333333</ele><time>2026-03-29T15:50:00Z</time></trkpt><trkpt lat="45.329658690677505" lon="9.435335297288637"><ele>84.66666666666666</ele><time>2026-03-29T15:50:01Z</time></trkpt><trkpt lat="45.32972692586472" lon="9.435091367255644"><ele>85.0</ele><time>2026-03-29T15:50:02Z</time></trkpt><trkpt lat="45.329795020938235" lon="9.434842942845654"><ele>84.66666666666666</ele><time>2026-03-29T15:50:03Z</time></trkpt><trkpt lat="45.329856189626724" lon="9.434581455238874"><ele>84.33333333333333</ele><time>2026-03-29T15:50:04Z</time></trkpt><trkpt lat="45.329921748784635" lon="9.434334014286527"><ele>84.0</ele><time>2026-03-29T15:50:05Z</time></trkpt><trkpt lat="45.32999146326645" lon="9.434084971963411"><ele>84.0</ele><time>2026-03-29T15:50:05.999Z</time></trkpt><trkpt lat="45.3300552802359" lon="9.433847598859469"><ele>84.0</ele><time>2026-03-29T15:50:06.999Z</time></trkpt><trkpt lat="45.330117060173706" lon="9.433613185853938"><ele>84.0</ele><time>2026-03-29T15:50:07.999Z</time></trkpt><trkpt lat="45.33017611769109" lon="9.43337271341144"><ele>83.33333333333333</ele><time>2026-03-29T15:50:08.999Z</time></trkpt><trkpt lat="45.33023698554902" lon="9.433132465989976"><ele>82.66666666666666</ele><time>2026-03-29T15:50:09.999Z</time></trkpt><trkpt lat="45.33030433962682" lon="9.43288650889409"><ele>82.0</ele><time>2026-03-29T15:50:10.999Z</time></trkpt><trkpt lat="45.33035900636236" lon="9.432689374100464"><ele>82.0</ele><time>2026-03-29T15:50:11.999Z</time></trkpt><trkpt lat="45.33041398803182" lon="9.432484390070865"><ele>82.0</ele><time>2026-03-29T15:50:12.999Z</time></trkpt><trkpt lat="45.330468317306405" lon="9.432294965549955"><ele>82.0</ele><time>2026-03-29T15:50:13.999Z</time></trkpt><trkpt lat="45.33052187141328" lon="9.432089477674689"><ele>82.0</ele><time>2026-03-29T15:50:14.999Z</time></trkpt><trkpt lat="45.330574965975785" lon="9.431890295072087"><ele>82.0</ele><time>2026-03-29T15:50:15.999Z</time></trkpt><trkpt lat="45.3306344026154" lon="9.431704008775315"><ele>82.0</ele><time>2026-03-29T15:50:16.999Z</time></trkpt><trkpt lat="45.33067138963052" lon="9.431522539974518"><ele>82.0</ele><time>2026-03-29T15:50:17.999Z</time></trkpt><trkpt lat="45.33071238736818" lon="9.431339865442217"><ele>83.0</ele><time>2026-03-29T15:50:18.999Z</time></trkpt><trkpt lat="45.330762098970595" lon="9.431135140830259"><ele>84.0</ele><time>2026-03-29T15:50:19.999Z</time></trkpt><trkpt lat="45.33080798353979" lon="9.430922589190596"><ele>85.0</ele><time>2026-03-29T15:50:20.999Z</time></trkpt><trkpt lat="45.330847795558284" lon="9.430718634910107"><ele>85.0</ele><time>2026-03-29T15:50:21.999Z</time></trkpt><trkpt lat="45.33087234491112" lon="9.43053876266293"><ele>85.0</ele><time>2026-03-29T15:50:22.999Z</time></trkpt><trkpt lat="45.33089870104504" lon="9.430356895320765"><ele>85.0</ele><time>2026-03-29T15:50:23.999Z</time></trkpt><trkpt lat="45.33092512292235" lon="9.430176197516296"><ele>85.0</ele><time>2026-03-29T15:50:24.999Z</time></trkpt><trkpt lat="45.33094388877835" lon="9.4299974363507"><ele>85.0</ele><time>2026-03-29T15:50:25.999Z</time></trkpt><trkpt lat="45.33096744263135" lon="9.4298177346497"><ele>85.0</ele><time>2026-03-29T15:50:26.999Z</time></trkpt><trkpt lat="45.33098916759192" lon="9.429644655465829"><ele>85.0</ele><time>2026-03-29T15:50:27.999Z</time></trkpt><trkpt lat="45.33101911877963" lon="9.429445411809763"><ele>85.0</ele><time>2026-03-29T15:50:28.999Z</time></trkpt><trkpt lat="45.33104502917963" lon="9.429279826452687"><ele>84.25</ele><time>2026-03-29T15:50:29.999Z</time></trkpt><trkpt lat="45.33106286347017" lon="9.429077901847016"><ele>83.5</ele><time>2026-03-29T15:50:30.999Z</time></trkpt><trkpt lat="45.33108851008925" lon="9.428876559541324"><ele>82.75</ele><time>2026-03-29T15:50:31.999Z</time></trkpt><trkpt lat="45.331097281746096" lon="9.428680237275644"><ele>82.0</ele><time>2026-03-29T15:50:32.999Z</time></trkpt><trkpt lat="45.33112529732911" lon="9.428460929483252"><ele>81.33333333333333</ele><time>2026-03-29T15:50:33.999Z</time></trkpt><trkpt lat="45.33114726398578" lon="9.428240646312261"><ele>80.66666666666667</ele><time>2026-03-29T15:50:34.999Z</time></trkpt><trkpt lat="45.331170451740164" lon="9.428012649240463"><ele>80.0</ele><time>2026-03-29T15:50:35.999Z</time></trkpt><trkpt lat="45.331193056800466" lon="9.427783611790158"><ele>80.0</ele><time>2026-03-29T15:50:36.999Z</time></trkpt><trkpt lat="45.33121783343655" lon="9.42755738130844"><ele>80.0</ele><time>2026-03-29T15:50:37.999Z</time></trkpt><trkpt lat="45.33124778437393" lon="9.427303824576507"><ele>80.0</ele><time>2026-03-29T15:50:38.999Z</time></trkpt><trkpt lat="45.33126397569094" lon="9.427048758071582"><ele>80.0</ele><time>2026-03-29T15:50:39.999Z</time></trkpt><trkpt lat="45.33128200727726" lon="9.426793655330988"><ele>80.0</ele><time>2026-03-29T15:50:40.999Z</time></trkpt><trkpt lat="45.33132080425272" lon="9.426511894975103"><ele>80.0</ele><time>2026-03-29T15:50:41.999Z</time></trkpt><trkpt lat="45.331351713138766" lon="9.426206706885285"><ele>80.0</ele><time>2026-03-29T15:50:42.999Z</time></trkpt><trkpt lat="45.33137543505037" lon="9.425957679779831"><ele>80.0</ele><time>2026-03-29T15:50:43.999Z</time></trkpt><trkpt lat="45.33139924596794" lon="9.425687125515879"><ele>80.0</ele><time>2026-03-29T15:50:44.999Z</time></trkpt><trkpt lat="45.331424484127446" lon="9.425410377346621"><ele>80.33333333333334</ele><time>2026-03-29T15:50:45.999Z</time></trkpt><trkpt lat="45.33145107428155" lon="9.425130322795114"><ele>80.66666666666667</ele><time>2026-03-29T15:50:46.999Z</time></trkpt><trkpt lat="45.331485671079044" lon="9.42485871080293"><ele>81.0</ele><time>2026-03-29T15:50:47.999Z</time></trkpt><trkpt lat="45.331514234874874" lon="9.424598166424573"><ele>81.66666666666667</ele><time>2026-03-29T15:50:48.999Z</time></trkpt><trkpt lat="45.33154192792626" lon="9.424334063949793"><ele>82.33333333333334</ele><time>2026-03-29T15:50:49.999Z</time></trkpt><trkpt lat="45.331566856590136" lon="9.42408045749816"><ele>83.0</ele><time>2026-03-29T15:50:50.999Z</time></trkpt><trkpt lat="45.331595188215054" lon="9.423826463692853"><ele>82.33333333333334</ele><time>2026-03-29T15:50:51.999Z</time></trkpt><trkpt lat="45.33162599908429" lon="9.42357382337369"><ele>81.66666666666667</ele><time>2026-03-29T15:50:52.999Z</time></trkpt><trkpt lat="45.33165381135417" lon="9.423300978169816"><ele>81.0</ele><time>2026-03-29T15:50:53.999Z</time></trkpt><trkpt lat="45.33168116784658" lon="9.423027029226432"><ele>81.0</ele><time>2026-03-29T15:50:54.999Z</time></trkpt><trkpt lat="45.33170439869909" lon="9.422764956364935"><ele>81.0</ele><time>2026-03-29T15:50:55.999Z</time></trkpt><trkpt lat="45.33170786333384" lon="9.422543761802403"><ele>81.0</ele><time>2026-03-29T15:50:56.999Z</time></trkpt><trkpt lat="45.331712726274674" lon="9.422305521074138"><ele>80.66666666666667</ele><time>2026-03-29T15:50:57.999Z</time></trkpt><trkpt lat="45.331707772420266" lon="9.422047216575423"><ele>80.33333333333334</ele><time>2026-03-29T15:50:58.999Z</time></trkpt><trkpt lat="45.331685295088455" lon="9.421775758513588"><ele>80.0</ele><time>2026-03-29T15:50:59.999Z</time></trkpt><trkpt lat="45.331677403161414" lon="9.421499611260845"><ele>80.33333333333334</ele><time>2026-03-29T15:51:00.999Z</time></trkpt><trkpt lat="45.33165842561324" lon="9.42123217210423"><ele>80.66666666666667</ele><time>2026-03-29T15:51:01.999Z</time></trkpt><trkpt lat="45.331642767524286" lon="9.420966997559528"><ele>81.0</ele><time>2026-03-29T15:51:02.999Z</time></trkpt><trkpt lat="45.33162452198881" lon="9.420704562936539"><ele>81.0</ele><time>2026-03-29T15:51:03.999Z</time></trkpt><trkpt lat="45.331610684599006" lon="9.420447303285108"><ele>81.0</ele><time>2026-03-29T15:51:04.999Z</time></trkpt><trkpt lat="45.33159375977301" lon="9.420191703702827"><ele>81.0</ele><time>2026-03-29T15:51:05.999Z</time></trkpt><trkpt lat="45.33157503000185" lon="9.419944555217354"><ele>81.0</ele><time>2026-03-29T15:51:06.999Z</time></trkpt><trkpt lat="45.33155419343983" lon="9.419696593013764"><ele>81.0</ele><time>2026-03-29T15:51:07.999Z</time></trkpt><trkpt lat="45.33154937001609" lon="9.419450211653372"><ele>81.0</ele><time>2026-03-29T15:51:08.999Z</time></trkpt><trkpt lat="45.3315433993677" lon="9.419228289201712"><ele>81.0</ele><time>2026-03-29T15:51:09.999Z</time></trkpt><trkpt lat="45.33151526349232" lon="9.418987825390197"><ele>81.0</ele><time>2026-03-29T15:51:10.999Z</time></trkpt><trkpt lat="45.33149704447897" lon="9.418747385307055"><ele>81.0</ele><time>2026-03-29T15:51:11.999Z</time></trkpt><trkpt lat="45.33148634644727" lon="9.41851217772082"><ele>81.0</ele><time>2026-03-29T15:51:12.999Z</time></trkpt><trkpt lat="45.33147499661959" lon="9.41829737470764"><ele>81.0</ele><time>2026-03-29T15:51:13.999Z</time></trkpt><trkpt lat="45.331485596949314" lon="9.418110802793032"><ele>81.0</ele><time>2026-03-29T15:51:14.999Z</time></trkpt><trkpt lat="45.331463923147254" lon="9.41790644739067"><ele>81.0</ele><time>2026-03-29T15:51:16Z</time></trkpt><trkpt lat="45.3314730040158" lon="9.417694681195359"><ele>81.0</ele><time>2026-03-29T15:51:17Z</time></trkpt><trkpt lat="45.3314827854112" lon="9.417510192074001"><ele>81.0</ele><time>2026-03-29T15:51:18Z</time></trkpt><trkpt lat="45.33149318229108" lon="9.41734120477328"><ele>81.0</ele><time>2026-03-29T15:51:19Z</time></trkpt><trkpt lat="45.331509263203024" lon="9.417190191511265"><ele>81.0</ele><time>2026-03-29T15:51:20Z</time></trkpt><trkpt lat="45.33152871004085" lon="9.417048237742707"><ele>81.33333333333333</ele><time>2026-03-29T15:51:21Z</time></trkpt><trkpt lat="45.33155565586653" lon="9.416915152184885"><ele>81.66666666666667</ele><time>2026-03-29T15:51:22Z</time></trkpt><trkpt lat="45.33158713823131" lon="9.41679291089422"><ele>82.0</ele><time>2026-03-29T15:51:23Z</time></trkpt><trkpt lat="45.33164471427085" lon="9.416692926279344"><ele>82.33333333333334</ele><time>2026-03-29T15:51:24Z</time></trkpt><trkpt lat="45.33169348653817" lon="9.416599333104353"><ele>82.66666666666667</ele><time>2026-03-29T15:51:25Z</time></trkpt><trkpt lat="45.33175291961143" lon="9.416512590564498"><ele>83.0</ele><time>2026-03-29T15:51:26Z</time></trkpt><trkpt lat="45.33181043778476" lon="9.416420327562077"><ele>83.0</ele><time>2026-03-29T15:51:27Z</time></trkpt><trkpt lat="45.33184056315633" lon="9.416296481805837"><ele>83.0</ele><time>2026-03-29T15:51:28Z</time></trkpt><trkpt lat="45.33184253063968" lon="9.416162561557352"><ele>83.0</ele><time>2026-03-29T15:51:29Z</time></trkpt><trkpt lat="45.33182658123134" lon="9.416013734487557"><ele>83.0</ele><time>2026-03-29T15:51:30Z</time></trkpt><trkpt lat="45.3318233722334" lon="9.415862554427468"><ele>83.0</ele><time>2026-03-29T15:51:31Z</time></trkpt><trkpt lat="45.331845487604745" lon="9.415712584321383"><ele>83.0</ele><time>2026-03-29T15:51:32Z</time></trkpt><trkpt lat="45.3318917977082" lon="9.415557560717684"><ele>83.0</ele><time>2026-03-29T15:51:33Z</time></trkpt><trkpt lat="45.33196004764686" lon="9.41540297477894"><ele>83.0</ele><time>2026-03-29T15:51:34Z</time></trkpt><trkpt lat="45.332026610716305" lon="9.415248218785344"><ele>83.0</ele><time>2026-03-29T15:51:35Z</time></trkpt><trkpt lat="45.33209817650415" lon="9.415101956345325"><ele>83.0</ele><time>2026-03-29T15:51:36Z</time></trkpt><trkpt lat="45.33214888602031" lon="9.414961980473624"><ele>83.0</ele><time>2026-03-29T15:51:37Z</time></trkpt><trkpt lat="45.332236398034276" lon="9.414804912873963"><ele>83.0</ele><time>2026-03-29T15:51:38Z</time></trkpt><trkpt lat="45.33232527599648" lon="9.414654451266339"><ele>83.0</ele><time>2026-03-29T15:51:39Z</time></trkpt><trkpt lat="45.332425756340335" lon="9.414492828780503"><ele>83.33333333333334</ele><time>2026-03-29T15:51:40Z</time></trkpt><trkpt lat="45.332535045725116" lon="9.414328202812333"><ele>83.66666666666667</ele><time>2026-03-29T15:51:41Z</time></trkpt><trkpt lat="45.33264560982453" lon="9.414158517299722"><ele>84.0</ele><time>2026-03-29T15:51:42Z</time></trkpt><trkpt lat="45.332757162358014" lon="9.413977310788225"><ele>84.0</ele><time>2026-03-29T15:51:43Z</time></trkpt><trkpt lat="45.33288806399888" lon="9.413861618802592"><ele>84.0</ele><time>2026-03-29T15:51:44Z</time></trkpt><trkpt lat="45.333007430508125" lon="9.413729309623914"><ele>84.0</ele><time>2026-03-29T15:51:45Z</time></trkpt><trkpt lat="45.33312932025155" lon="9.413607858225163"><ele>84.0</ele><time>2026-03-29T15:51:46Z</time></trkpt><trkpt lat="45.333250547308594" lon="9.413494437356979"><ele>84.0</ele><time>2026-03-29T15:51:47Z</time></trkpt><trkpt lat="45.3333626216593" lon="9.413392098455542"><ele>84.0</ele><time>2026-03-29T15:51:48Z</time></trkpt><trkpt lat="45.33353347862884" lon="9.413268100976547"><ele>84.0</ele><time>2026-03-29T15:51:49Z</time></trkpt><trkpt lat="45.333686419491706" lon="9.413166041813968"><ele>84.0</ele><time>2026-03-29T15:51:50Z</time></trkpt><trkpt lat="45.33385870065238" lon="9.413065526143837"><ele>84.0</ele><time>2026-03-29T15:51:51Z</time></trkpt><trkpt lat="45.33405091505196" lon="9.412966771345864"><ele>84.66666666666667</ele><time>2026-03-29T15:51:52Z</time></trkpt><trkpt lat="45.33424496022156" lon="9.412884929149982"><ele>85.33333333333334</ele><time>2026-03-29T15:51:53Z</time></trkpt><trkpt lat="45.33445568248606" lon="9.412771733435113"><ele>86.0</ele><time>2026-03-29T15:51:54Z</time></trkpt><trkpt lat="45.334637482154925" lon="9.412700838945801"><ele>85.33333333333334</ele><time>2026-03-29T15:51:55Z</time></trkpt><trkpt lat="45.33483604744608" lon="9.412613256523624"><ele>84.66666666666667</ele><time>2026-03-29T15:51:56Z</time></trkpt><trkpt lat="45.335034512266624" lon="9.412525798825923"><ele>84.0</ele><time>2026-03-29T15:51:57Z</time></trkpt><trkpt lat="45.33523182712111" lon="9.412442445534174"><ele>84.0</ele><time>2026-03-29T15:51:58Z</time></trkpt><trkpt lat="45.33543035580672" lon="9.41235507328081"><ele>84.0</ele><time>2026-03-29T15:51:59Z</time></trkpt><trkpt lat="45.33562189402488" lon="9.412271385788838"><ele>84.0</ele><time>2026-03-29T15:52:00Z</time></trkpt><trkpt lat="45.335834414440086" lon="9.412179593153798"><ele>84.0</ele><time>2026-03-29T15:52:01Z</time></trkpt><trkpt lat="45.33603330382114" lon="9.412105054981742"><ele>84.0</ele><time>2026-03-29T15:52:02Z</time></trkpt><trkpt lat="45.33620952789899" lon="9.412017000143594"><ele>84.0</ele><time>2026-03-29T15:52:03Z</time></trkpt><trkpt lat="45.336380269687695" lon="9.411936716447004"><ele>84.33333333333333</ele><time>2026-03-29T15:52:04Z</time></trkpt><trkpt lat="45.33653376856098" lon="9.411876061363822"><ele>84.66666666666666</ele><time>2026-03-29T15:52:05Z</time></trkpt><trkpt lat="45.3366917481105" lon="9.411800286042812"><ele>85.0</ele><time>2026-03-29T15:52:06Z</time></trkpt><trkpt lat="45.33683115262417" lon="9.411739806831385"><ele>85.0</ele><time>2026-03-29T15:52:07Z</time></trkpt><trkpt lat="45.33695940530059" lon="9.411678461816281"><ele>85.0</ele><time>2026-03-29T15:52:08Z</time></trkpt><trkpt lat="45.337073139281046" lon="9.41162717177534"><ele>85.0</ele><time>2026-03-29T15:52:09Z</time></trkpt><trkpt lat="45.337184329827885" lon="9.411575427025257"><ele>85.0</ele><time>2026-03-29T15:52:10Z</time></trkpt><trkpt lat="45.33727744130717" lon="9.411530934232088"><ele>84.6</ele><time>2026-03-29T15:52:11Z</time></trkpt><trkpt lat="45.33735236872508" lon="9.411493211399803"><ele>84.2</ele><time>2026-03-29T15:52:12Z</time></trkpt><trkpt lat="45.337413452765034" lon="9.41146023154306"><ele>83.80000000000001</ele><time>2026-03-29T15:52:13Z</time></trkpt><trkpt lat="45.337522818673776" lon="9.411407457855258"><ele>83.4</ele><time>2026-03-29T15:52:15Z</time></trkpt><trkpt lat="45.33764463833592" lon="9.41137185036231"><ele>83.0</ele><time>2026-03-29T15:52:17Z</time></trkpt><trkpt lat="45.33776686442651" lon="9.41136262454969"><ele>83.0</ele><time>2026-03-29T15:52:18.999Z</time></trkpt><trkpt lat="45.33789363292079" lon="9.411378183017202"><ele>83.0</ele><time>2026-03-29T15:52:20.999Z</time></trkpt><trkpt lat="45.33796873417169" lon="9.411378976087235"><ele>83.0</ele><time>2026-03-29T15:52:21.999Z</time></trkpt><trkpt lat="45.33803326423403" lon="9.41134233203108"><ele>83.0</ele><time>2026-03-29T15:52:22.999Z</time></trkpt><trkpt lat="45.338073814523575" lon="9.411260513418188"><ele>83.0</ele><time>2026-03-29T15:52:23.999Z</time></trkpt><trkpt lat="45.338109518898364" lon="9.411176536206241"><ele>83.0</ele><time>2026-03-29T15:52:24.999Z</time></trkpt><trkpt lat="45.3381421787972" lon="9.411064869278198"><ele>83.4</ele><time>2026-03-29T15:52:25.999Z</time></trkpt><trkpt lat="45.33818581361817" lon="9.410950095331513"><ele>83.80000000000001</ele><time>2026-03-29T15:52:26.999Z</time></trkpt><trkpt lat="45.338248261494925" lon="9.410839615186209"><ele>84.2</ele><time>2026-03-29T15:52:27.999Z</time></trkpt><trkpt lat="45.338321193735474" lon="9.410718285518296"><ele>84.6</ele><time>2026-03-29T15:52:28.999Z</time></trkpt><trkpt lat="45.33843270932135" lon="9.410634346876552"><ele>85.0</ele><time>2026-03-29T15:52:29.999Z</time></trkpt><trkpt lat="45.338535053675336" lon="9.410519545436891"><ele>85.0</ele><time>2026-03-29T15:52:30.999Z</time></trkpt><trkpt lat="45.33863530121465" lon="9.410394430647347"><ele>85.0</ele><time>2026-03-29T15:52:31.999Z</time></trkpt><trkpt lat="45.338739722892115" lon="9.410258484091239"><ele>85.0</ele><time>2026-03-29T15:52:32.999Z</time></trkpt><trkpt lat="45.33883515290358" lon="9.410106278280681"><ele>85.0</ele><time>2026-03-29T15:52:33.999Z</time></trkpt><trkpt lat="45.33892982260499" lon="9.409939649693136"><ele>85.0</ele><time>2026-03-29T15:52:34.999Z</time></trkpt><trkpt lat="45.33902291482867" lon="9.409774222950253"><ele>85.0</ele><time>2026-03-29T15:52:35.999Z</time></trkpt><trkpt lat="45.33911132456165" lon="9.40959645982201"><ele>85.0</ele><time>2026-03-29T15:52:36.999Z</time></trkpt><trkpt lat="45.33919716997947" lon="9.409404924326195"><ele>85.0</ele><time>2026-03-29T15:52:37.999Z</time></trkpt><trkpt lat="45.33927959518773" lon="9.409240496233815"><ele>85.0</ele><time>2026-03-29T15:52:38.999Z</time></trkpt><trkpt lat="45.33934554024932" lon="9.409053327253458"><ele>85.0</ele><time>2026-03-29T15:52:39.999Z</time></trkpt><trkpt lat="45.33943469204655" lon="9.408819406292755"><ele>84.33333333333333</ele><time>2026-03-29T15:52:40.999Z</time></trkpt><trkpt lat="45.33950809493108" lon="9.408591211561589"><ele>83.66666666666667</ele><time>2026-03-29T15:52:41.999Z</time></trkpt><trkpt lat="45.339571223047265" lon="9.40836060001979"><ele>83.0</ele><time>2026-03-29T15:52:42.999Z</time></trkpt><trkpt lat="45.339631383398824" lon="9.40810959123257"><ele>82.66666666666667</ele><time>2026-03-29T15:52:43.999Z</time></trkpt><trkpt lat="45.33968452099701" lon="9.407844273519013"><ele>82.33333333333333</ele><time>2026-03-29T15:52:44.999Z</time></trkpt><trkpt lat="45.33972338590267" lon="9.407583113908823"><ele>82.0</ele><time>2026-03-29T15:52:45.999Z</time></trkpt><trkpt lat="45.339755022547735" lon="9.407322975182758"><ele>82.0</ele><time>2026-03-29T15:52:46.999Z</time></trkpt><trkpt lat="45.339776299931714" lon="9.407047075956385"><ele>82.0</ele><time>2026-03-29T15:52:47.999Z</time></trkpt><trkpt lat="45.33978602097121" lon="9.406782322173758"><ele>82.0</ele><time>2026-03-29T15:52:48.999Z</time></trkpt><trkpt lat="45.33979272911537" lon="9.406517943002003"><ele>82.66666666666666</ele><time>2026-03-29T15:52:49.999Z</time></trkpt><trkpt lat="45.33977806040043" lon="9.40625902212203"><ele>83.33333333333333</ele><time>2026-03-29T15:52:50.999Z</time></trkpt><trkpt lat="45.339757120701506" lon="9.405997085326709"><ele>84.0</ele><time>2026-03-29T15:52:51.999Z</time></trkpt><trkpt lat="45.33973245398708" lon="9.405733834244336"><ele>83.66666666666667</ele><time>2026-03-29T15:52:52.999Z</time></trkpt><trkpt lat="45.33968533257691" lon="9.405469348375078"><ele>83.33333333333334</ele><time>2026-03-29T15:52:53.999Z</time></trkpt><trkpt lat="45.33963338572098" lon="9.405181571174136"><ele>83.0</ele><time>2026-03-29T15:52:54.999Z</time></trkpt><trkpt lat="45.33958227342958" lon="9.404908709516551"><ele>83.0</ele><time>2026-03-29T15:52:55.999Z</time></trkpt><trkpt lat="45.339525897784085" lon="9.404631864633195"><ele>83.0</ele><time>2026-03-29T15:52:56.999Z</time></trkpt><trkpt lat="45.33947071024118" lon="9.404363724753148"><ele>83.0</ele><time>2026-03-29T15:52:57.999Z</time></trkpt><trkpt lat="45.33942111887764" lon="9.404107801096266"><ele>83.0</ele><time>2026-03-29T15:52:58.999Z</time></trkpt><trkpt lat="45.339369576697315" lon="9.40383353707569"><ele>83.0</ele><time>2026-03-29T15:52:59.999Z</time></trkpt><trkpt lat="45.339315863077815" lon="9.40354604973878"><ele>83.0</ele><time>2026-03-29T15:53:00.999Z</time></trkpt><trkpt lat="45.33924435369521" lon="9.40324069749121"><ele>82.33333333333334</ele><time>2026-03-29T15:53:01.999Z</time></trkpt><trkpt lat="45.339189898347065" lon="9.402942271860654"><ele>81.66666666666667</ele><time>2026-03-29T15:53:02.999Z</time></trkpt><trkpt lat="45.33913479493691" lon="9.402670095394912"><ele>81.0</ele><time>2026-03-29T15:53:03.999Z</time></trkpt><trkpt lat="45.339088539819635" lon="9.402414277450413"><ele>81.0</ele><time>2026-03-29T15:53:04.999Z</time></trkpt><trkpt lat="45.33903975967885" lon="9.402165011437335"><ele>81.0</ele><time>2026-03-29T15:53:05.999Z</time></trkpt><trkpt lat="45.33898634790508" lon="9.40192231352885"><ele>81.0</ele><time>2026-03-29T15:53:06.999Z</time></trkpt><trkpt lat="45.33893509314075" lon="9.401676080523321"><ele>81.33333333333333</ele><time>2026-03-29T15:53:07.999Z</time></trkpt><trkpt lat="45.33889271932029" lon="9.401425909592716"><ele>81.66666666666666</ele><time>2026-03-29T15:53:08.999Z</time></trkpt><trkpt lat="45.33884664801761" lon="9.401165651876738"><ele>82.0</ele><time>2026-03-29T15:53:09.999Z</time></trkpt><trkpt lat="45.3387911481297" lon="9.400906734465147"><ele>82.0</ele><time>2026-03-29T15:53:10.999Z</time></trkpt><trkpt lat="45.33873365550967" lon="9.400634007269597"><ele>82.0</ele><time>2026-03-29T15:53:11.999Z</time></trkpt><trkpt lat="45.33867755123944" lon="9.400357982945462"><ele>82.0</ele><time>2026-03-29T15:53:12.999Z</time></trkpt><trkpt lat="45.33862284908647" lon="9.400084444102184"><ele>82.0</ele><time>2026-03-29T15:53:13.999Z</time></trkpt><trkpt lat="45.33857130687792" lon="9.399815432412181"><ele>82.0</ele><time>2026-03-29T15:53:14.999Z</time></trkpt><trkpt lat="45.33851998411474" lon="9.399547213093426"><ele>82.0</ele><time>2026-03-29T15:53:15.999Z</time></trkpt><trkpt lat="45.33846757731077" lon="9.399278877572094"><ele>82.0</ele><time>2026-03-29T15:53:16.999Z</time></trkpt><trkpt lat="45.33841468515076" lon="9.399009527258453"><ele>82.0</ele><time>2026-03-29T15:53:17.999Z</time></trkpt><trkpt lat="45.338358614250396" lon="9.398747312322936"><ele>82.0</ele><time>2026-03-29T15:53:18.999Z</time></trkpt><trkpt lat="45.338303548669856" lon="9.398488519215537"><ele>81.66666666666666</ele><time>2026-03-29T15:53:19.999Z</time></trkpt><trkpt lat="45.33825437519496" lon="9.398244351037684"><ele>81.33333333333333</ele><time>2026-03-29T15:53:20.999Z</time></trkpt><trkpt lat="45.33819982757323" lon="9.397959179055546"><ele>81.0</ele><time>2026-03-29T15:53:22Z</time></trkpt><trkpt lat="45.33815062393456" lon="9.39768448012063"><ele>80.66666666666667</ele><time>2026-03-29T15:53:23Z</time></trkpt><trkpt lat="45.33809587936716" lon="9.397403427917206"><ele>80.33333333333334</ele><time>2026-03-29T15:53:24Z</time></trkpt><trkpt lat="45.33804247675524" lon="9.397154441096559"><ele>80.0</ele><time>2026-03-29T15:53:25Z</time></trkpt><trkpt lat="45.33798919956866" lon="9.39689363446335"><ele>80.66666666666667</ele><time>2026-03-29T15:53:26Z</time></trkpt><trkpt lat="45.337936737288224" lon="9.3966241807604"><ele>81.33333333333333</ele><time>2026-03-29T15:53:27Z</time></trkpt><trkpt lat="45.33788564289504" lon="9.396350441352935"><ele>82.0</ele><time>2026-03-29T15:53:28Z</time></trkpt><trkpt lat="45.33782582446286" lon="9.396060418200499"><ele>82.0</ele><time>2026-03-29T15:53:29Z</time></trkpt><trkpt lat="45.33777044577584" lon="9.395772117232838"><ele>82.0</ele><time>2026-03-29T15:53:30Z</time></trkpt><trkpt lat="45.33771336414076" lon="9.395488713145213"><ele>82.0</ele><time>2026-03-29T15:53:31Z</time></trkpt><trkpt lat="45.33765837050176" lon="9.39520145939468"><ele>82.0</ele><time>2026-03-29T15:53:32Z</time></trkpt><trkpt lat="45.33760095220411" lon="9.394918089384628"><ele>82.0</ele><time>2026-03-29T15:53:33Z</time></trkpt><trkpt lat="45.3375448269154" lon="9.394633495374276"><ele>82.0</ele><time>2026-03-29T15:53:34Z</time></trkpt><trkpt lat="45.33748790379421" lon="9.394350141064253"><ele>82.0</ele><time>2026-03-29T15:53:35Z</time></trkpt><trkpt lat="45.337430508295256" lon="9.394064013166659"><ele>82.0</ele><time>2026-03-29T15:53:36Z</time></trkpt><trkpt lat="45.337370037723275" lon="9.393768661681262"><ele>82.0</ele><time>2026-03-29T15:53:37Z</time></trkpt><trkpt lat="45.337313864267905" lon="9.393474120610357"><ele>82.0</ele><time>2026-03-29T15:53:38Z</time></trkpt><trkpt lat="45.33726348725113" lon="9.39319927205616"><ele>82.0</ele><time>2026-03-29T15:53:39Z</time></trkpt><trkpt lat="45.33720966070564" lon="9.392918638837713"><ele>82.0</ele><time>2026-03-29T15:53:40Z</time></trkpt><trkpt lat="45.3371531861444" lon="9.392641558297735"><ele>82.0</ele><time>2026-03-29T15:53:41Z</time></trkpt><trkpt lat="45.337095405988094" lon="9.392365128207597"><ele>82.0</ele><time>2026-03-29T15:53:42Z</time></trkpt><trkpt lat="45.33704243247048" lon="9.392090779106105"><ele>82.0</ele><time>2026-03-29T15:53:43Z</time></trkpt><trkpt lat="45.336992472528536" lon="9.391818651754683"><ele>82.0</ele><time>2026-03-29T15:53:44Z</time></trkpt><trkpt lat="45.33693792828399" lon="9.391553577569486"><ele>82.0</ele><time>2026-03-29T15:53:45Z</time></trkpt><trkpt lat="45.336885544379896" lon="9.391282438408805"><ele>82.0</ele><time>2026-03-29T15:53:46Z</time></trkpt><trkpt lat="45.33683330368669" lon="9.391014994893627"><ele>82.0</ele><time>2026-03-29T15:53:47Z</time></trkpt><trkpt lat="45.336778684616306" lon="9.390747306486102"><ele>82.0</ele><time>2026-03-29T15:53:48Z</time></trkpt><trkpt lat="45.33672459332133" lon="9.390478611514705"><ele>82.0</ele><time>2026-03-29T15:53:49Z</time></trkpt><trkpt lat="45.336665772014484" lon="9.390201271929842"><ele>82.66666666666666</ele><time>2026-03-29T15:53:50Z</time></trkpt><trkpt lat="45.33659736547739" lon="9.389923188562259"><ele>83.33333333333333</ele><time>2026-03-29T15:53:51Z</time></trkpt><trkpt lat="45.336521188134135" lon="9.389653416653761"><ele>84.0</ele><time>2026-03-29T15:53:52Z</time></trkpt><trkpt lat="45.33643515690075" lon="9.389386079062845"><ele>84.0</ele><time>2026-03-29T15:53:53Z</time></trkpt><trkpt lat="45.33635060126332" lon="9.389133413881224"><ele>84.0</ele><time>2026-03-29T15:53:54Z</time></trkpt><trkpt lat="45.336267563463984" lon="9.388897678254098"><ele>84.0</ele><time>2026-03-29T15:53:55Z</time></trkpt><trkpt lat="45.33620106872737" lon="9.388669974312394"><ele>83.33333333333333</ele><time>2026-03-29T15:53:56Z</time></trkpt><trkpt lat="45.33609320237458" lon="9.388454267037313"><ele>82.66666666666666</ele><time>2026-03-29T15:53:57Z</time></trkpt><trkpt lat="45.336010889353716" lon="9.388254863969024"><ele>82.0</ele><time>2026-03-29T15:53:58Z</time></trkpt><trkpt lat="45.335929892632166" lon="9.388070991804218"><ele>82.0</ele><time>2026-03-29T15:53:59Z</time></trkpt><trkpt lat="45.33586569688954" lon="9.387899263638417"><ele>82.0</ele><time>2026-03-29T15:54:00Z</time></trkpt><trkpt lat="45.33580057884674" lon="9.387725073794918"><ele>82.0</ele><time>2026-03-29T15:54:01Z</time></trkpt><trkpt lat="45.33574760780766" lon="9.38756364476812"><ele>82.0</ele><time>2026-03-29T15:54:02Z</time></trkpt><trkpt lat="45.335710614465015" lon="9.38741008555879"><ele>82.0</ele><time>2026-03-29T15:54:03Z</time></trkpt><trkpt lat="45.33567332557508" lon="9.387272862510702"><ele>82.0</ele><time>2026-03-29T15:54:04Z</time></trkpt><trkpt lat="45.335638849487935" lon="9.387145937381455"><ele>82.0</ele><time>2026-03-29T15:54:05Z</time></trkpt><trkpt lat="45.33561153694086" lon="9.387022974439773"><ele>82.0</ele><time>2026-03-29T15:54:06Z</time></trkpt><trkpt lat="45.33559113777044" lon="9.386905501116441"><ele>82.0</ele><time>2026-03-29T15:54:07Z</time></trkpt><trkpt lat="45.33557961810919" lon="9.386802563325688"><ele>82.0</ele><time>2026-03-29T15:54:08Z</time></trkpt><trkpt lat="45.33558157263048" lon="9.386697547976294"><ele>82.16666666666666</ele><time>2026-03-29T15:54:09Z</time></trkpt><trkpt lat="45.33558175756108" lon="9.386588545507882"><ele>82.33333333333333</ele><time>2026-03-29T15:54:10Z</time></trkpt><trkpt lat="45.33559108150935" lon="9.386485682329814"><ele>82.5</ele><time>2026-03-29T15:54:11Z</time></trkpt><trkpt lat="45.33561392052003" lon="9.386381461588925"><ele>82.66666666666667</ele><time>2026-03-29T15:54:12Z</time></trkpt><trkpt lat="45.33565144265985" lon="9.386294576834782"><ele>82.83333333333334</ele><time>2026-03-29T15:54:13Z</time></trkpt><trkpt lat="45.33562417464943" lon="9.386099077162688"><ele>83.0</ele><time>2026-03-29T15:54:15Z</time></trkpt><trkpt lat="45.33556230436377" lon="9.385997774510502"><ele>83.4</ele><time>2026-03-29T15:54:16Z</time></trkpt><trkpt lat="45.335501832693176" lon="9.385927315298654"><ele>83.80000000000001</ele><time>2026-03-29T15:54:17Z</time></trkpt><trkpt lat="45.33543829090678" lon="9.385854006945413"><ele>84.2</ele><time>2026-03-29T15:54:18Z</time></trkpt><trkpt lat="45.33537206584941" lon="9.385767401946191"><ele>84.6</ele><time>2026-03-29T15:54:19Z</time></trkpt><trkpt lat="45.33532453488303" lon="9.385648218145985"><ele>85.0</ele><time>2026-03-29T15:54:20Z</time></trkpt><trkpt lat="45.33528266190218" lon="9.385486183424193"><ele>85.0</ele><time>2026-03-29T15:54:21Z</time></trkpt><trkpt lat="45.33524685817402" lon="9.385326785647838"><ele>85.0</ele><time>2026-03-29T15:54:22Z</time></trkpt><trkpt lat="45.335205864487506" lon="9.385155790163825"><ele>85.0</ele><time>2026-03-29T15:54:23Z</time></trkpt><trkpt lat="45.335164855343926" lon="9.384975597422109"><ele>85.0</ele><time>2026-03-29T15:54:23.999Z</time></trkpt><trkpt lat="45.3351390070648" lon="9.384781230017857"><ele>84.33333333333333</ele><time>2026-03-29T15:54:24.999Z</time></trkpt><trkpt lat="45.335119579409735" lon="9.38456994654104"><ele>83.66666666666667</ele><time>2026-03-29T15:54:25.999Z</time></trkpt><trkpt lat="45.33510870653453" lon="9.384347720984925"><ele>83.0</ele><time>2026-03-29T15:54:26.999Z</time></trkpt><trkpt lat="45.33512530106912" lon="9.384142912528867"><ele>83.0</ele><time>2026-03-29T15:54:27.999Z</time></trkpt><trkpt lat="45.33514508619825" lon="9.383932562612504"><ele>83.0</ele><time>2026-03-29T15:54:28.999Z</time></trkpt><trkpt lat="45.33517252204912" lon="9.383720604189055"><ele>83.0</ele><time>2026-03-29T15:54:29.999Z</time></trkpt><trkpt lat="45.33520579422066" lon="9.38347920386143"><ele>83.33333333333334</ele><time>2026-03-29T15:54:30.999Z</time></trkpt><trkpt lat="45.3352475083058" lon="9.383239098866389"><ele>83.66666666666667</ele><time>2026-03-29T15:54:31.999Z</time></trkpt><trkpt lat="45.335266974104435" lon="9.382961480611483"><ele>84.0</ele><time>2026-03-29T15:54:32.999Z</time></trkpt><trkpt lat="45.33529909269042" lon="9.382697766195385"><ele>84.0</ele><time>2026-03-29T15:54:33.999Z</time></trkpt><trkpt lat="45.33533455416828" lon="9.382444125223687"><ele>84.0</ele><time>2026-03-29T15:54:34.999Z</time></trkpt><trkpt lat="45.335367353174945" lon="9.382202088953512"><ele>84.0</ele><time>2026-03-29T15:54:35.999Z</time></trkpt><trkpt lat="45.335402183120884" lon="9.381959800720368"><ele>84.0</ele><time>2026-03-29T15:54:36.999Z</time></trkpt><trkpt lat="45.33543526675934" lon="9.381711206913918"><ele>84.0</ele><time>2026-03-29T15:54:37.999Z</time></trkpt><trkpt lat="45.33546688785601" lon="9.381455868647425"><ele>84.0</ele><time>2026-03-29T15:54:38.999Z</time></trkpt><trkpt lat="45.33550280346191" lon="9.381193874042538"><ele>84.0</ele><time>2026-03-29T15:54:39.999Z</time></trkpt><trkpt lat="45.335538054384855" lon="9.380928626255146"><ele>84.0</ele><time>2026-03-29T15:54:40.999Z</time></trkpt><trkpt lat="45.335583178871524" lon="9.38067378035595"><ele>84.0</ele><time>2026-03-29T15:54:41.999Z</time></trkpt><trkpt lat="45.335616775938" lon="9.380425616749083"><ele>84.0</ele><time>2026-03-29T15:54:42.999Z</time></trkpt><trkpt lat="45.33564105517933" lon="9.38017147357502"><ele>84.0</ele><time>2026-03-29T15:54:43.999Z</time></trkpt><trkpt lat="45.33566297671353" lon="9.37991485306218"><ele>84.0</ele><time>2026-03-29T15:54:44.999Z</time></trkpt><trkpt lat="45.33571195496691" lon="9.379653164326328"><ele>84.0</ele><time>2026-03-29T15:54:45.999Z</time></trkpt><trkpt lat="45.33574435956836" lon="9.379413017830814"><ele>84.0</ele><time>2026-03-29T15:54:46.999Z</time></trkpt><trkpt lat="45.33579073512226" lon="9.379097358517122"><ele>84.0</ele><time>2026-03-29T15:54:47.999Z</time></trkpt><trkpt lat="45.33582654007937" lon="9.37881810051908"><ele>84.0</ele><time>2026-03-29T15:54:48.999Z</time></trkpt><trkpt lat="45.33584697891536" lon="9.378558720504518"><ele>84.0</ele><time>2026-03-29T15:54:49.999Z</time></trkpt><trkpt lat="45.335888657850546" lon="9.3782644605898"><ele>84.0</ele><time>2026-03-29T15:54:50.999Z</time></trkpt><trkpt lat="45.33592418025558" lon="9.377988226443193"><ele>84.0</ele><time>2026-03-29T15:54:51.999Z</time></trkpt><trkpt lat="45.335959573505924" lon="9.377715923342056"><ele>84.0</ele><time>2026-03-29T15:54:52.999Z</time></trkpt><trkpt lat="45.33598345650434" lon="9.377442186135163"><ele>84.0</ele><time>2026-03-29T15:54:53.999Z</time></trkpt><trkpt lat="45.33599801939416" lon="9.377169752992204"><ele>84.33333333333333</ele><time>2026-03-29T15:54:54.999Z</time></trkpt><trkpt lat="45.33599685277182" lon="9.376881821506922"><ele>84.66666666666666</ele><time>2026-03-29T15:54:55.999Z</time></trkpt><trkpt lat="45.33598756029277" lon="9.376585537480532"><ele>85.0</ele><time>2026-03-29T15:54:56.999Z</time></trkpt><trkpt lat="45.33599221576799" lon="9.37631065924583"><ele>85.0</ele><time>2026-03-29T15:54:57.999Z</time></trkpt><trkpt lat="45.33598934842236" lon="9.376034110081203"><ele>85.0</ele><time>2026-03-29T15:54:58.999Z</time></trkpt><trkpt lat="45.3359713570655" lon="9.375755746050281"><ele>85.0</ele><time>2026-03-29T15:54:59.999Z</time></trkpt><trkpt lat="45.33597266348382" lon="9.375484372728758"><ele>85.0</ele><time>2026-03-29T15:55:00.999Z</time></trkpt><trkpt lat="45.33596827524557" lon="9.37522551852702"><ele>85.0</ele><time>2026-03-29T15:55:01.999Z</time></trkpt><trkpt lat="45.3359737642423" lon="9.374981412544754"><ele>85.0</ele><time>2026-03-29T15:55:02.999Z</time></trkpt><trkpt lat="45.335985286195466" lon="9.374758763659313"><ele>85.0</ele><time>2026-03-29T15:55:03.999Z</time></trkpt><trkpt lat="45.335988707389866" lon="9.374529376624196"><ele>85.0</ele><time>2026-03-29T15:55:04.999Z</time></trkpt><trkpt lat="45.33597802301567" lon="9.37427758494034"><ele>85.0</ele><time>2026-03-29T15:55:05.999Z</time></trkpt><trkpt lat="45.3359721879929" lon="9.374025403167552"><ele>85.33333333333333</ele><time>2026-03-29T15:55:06.999Z</time></trkpt><trkpt lat="45.33596993049058" lon="9.373767527161204"><ele>85.66666666666667</ele><time>2026-03-29T15:55:07.999Z</time></trkpt><trkpt lat="45.33596826496003" lon="9.37352395960102"><ele>86.0</ele><time>2026-03-29T15:55:08.999Z</time></trkpt><trkpt lat="45.33596951002085" lon="9.37328154130328"><ele>86.0</ele><time>2026-03-29T15:55:09.999Z</time></trkpt><trkpt lat="45.335980116677334" lon="9.373066230134853"><ele>86.0</ele><time>2026-03-29T15:55:10.999Z</time></trkpt><trkpt lat="45.33600139405628" lon="9.37286996601064"><ele>86.0</ele><time>2026-03-29T15:55:11.999Z</time></trkpt><trkpt lat="45.336025589001174" lon="9.3726842379422"><ele>86.0</ele><time>2026-03-29T15:55:12.999Z</time></trkpt><trkpt lat="45.33605859218759" lon="9.372477718879663"><ele>85.75</ele><time>2026-03-29T15:55:13.999Z</time></trkpt><trkpt lat="45.336101465202574" lon="9.372272540735244"><ele>85.5</ele><time>2026-03-29T15:55:14.999Z</time></trkpt><trkpt lat="45.33615080203813" lon="9.372075852456595"><ele>85.25</ele><time>2026-03-29T15:55:15.999Z</time></trkpt><trkpt lat="45.336191620354924" lon="9.371881190562988"><ele>85.0</ele><time>2026-03-29T15:55:16.999Z</time></trkpt><trkpt lat="45.33624569918625" lon="9.371674373099221"><ele>85.0</ele><time>2026-03-29T15:55:17.999Z</time></trkpt><trkpt lat="45.33627724808458" lon="9.371495174694436"><ele>85.0</ele><time>2026-03-29T15:55:18.999Z</time></trkpt><trkpt lat="45.33636361181249" lon="9.37128415442337"><ele>85.0</ele><time>2026-03-29T15:55:19.999Z</time></trkpt><trkpt lat="45.336420787027926" lon="9.371040263489165"><ele>85.66666666666666</ele><time>2026-03-29T15:55:20.999Z</time></trkpt><trkpt lat="45.33647051140403" lon="9.370802126541678"><ele>86.33333333333333</ele><time>2026-03-29T15:55:21.999Z</time></trkpt><trkpt lat="45.336520288713466" lon="9.370651388105788"><ele>87.0</ele><time>2026-03-29T15:55:22.999Z</time></trkpt><trkpt lat="45.33657907059278" lon="9.370420604642922"><ele>87.0</ele><time>2026-03-29T15:55:23.999Z</time></trkpt><trkpt lat="45.336629649638475" lon="9.370247454053603"><ele>87.0</ele><time>2026-03-29T15:55:24.999Z</time></trkpt><trkpt lat="45.33667605252738" lon="9.37008575511182"><ele>87.0</ele><time>2026-03-29T15:55:25.999Z</time></trkpt><trkpt lat="45.33670613752412" lon="9.369953024478667"><ele>87.0</ele><time>2026-03-29T15:55:26.999Z</time></trkpt><trkpt lat="45.336732204770925" lon="9.369845364995932"><ele>87.0</ele><time>2026-03-29T15:55:28Z</time></trkpt><trkpt lat="45.33679377112958" lon="9.369717246747987"><ele>86.75</ele><time>2026-03-29T15:55:30Z</time></trkpt><trkpt lat="45.33688313874736" lon="9.369605916773569"><ele>86.5</ele><time>2026-03-29T15:55:32Z</time></trkpt><trkpt lat="45.33698091116297" lon="9.369522951343514"><ele>86.25</ele><time>2026-03-29T15:55:34Z</time></trkpt><trkpt lat="45.3370329021369" lon="9.36937051787857"><ele>86.0</ele><time>2026-03-29T15:55:36Z</time></trkpt><trkpt lat="45.33703092703348" lon="9.369207834854882"><ele>86.0</ele><time>2026-03-29T15:55:38Z</time></trkpt><trkpt lat="45.33699787232341" lon="9.369041741281773"><ele>86.0</ele><time>2026-03-29T15:55:40Z</time></trkpt><trkpt lat="45.33699157813805" lon="9.36894796575579"><ele>86.0</ele><time>2026-03-29T15:55:41Z</time></trkpt><trkpt lat="45.337003378251886" lon="9.368838923697195"><ele>86.0</ele><time>2026-03-29T15:55:42Z</time></trkpt><trkpt lat="45.33702698436792" lon="9.36871418523276"><ele>86.0</ele><time>2026-03-29T15:55:43Z</time></trkpt><trkpt lat="45.33706441141554" lon="9.368583909366844"><ele>86.0</ele><time>2026-03-29T15:55:44Z</time></trkpt><trkpt lat="45.33710545531065" lon="9.368417333424459"><ele>86.0</ele><time>2026-03-29T15:55:45Z</time></trkpt><trkpt lat="45.33714906727544" lon="9.368270187943862"><ele>86.0</ele><time>2026-03-29T15:55:46Z</time></trkpt><trkpt lat="45.337197903977206" lon="9.368114313262353"><ele>86.0</ele><time>2026-03-29T15:55:47Z</time></trkpt><trkpt lat="45.33724899501793" lon="9.367959237302939"><ele>85.75</ele><time>2026-03-29T15:55:48Z</time></trkpt><trkpt lat="45.33730547059602" lon="9.367796983842888"><ele>85.5</ele><time>2026-03-29T15:55:49Z</time></trkpt><trkpt lat="45.337358611559424" lon="9.367629978168363"><ele>85.25</ele><time>2026-03-29T15:55:50Z</time></trkpt><trkpt lat="45.337424676865005" lon="9.367477682575176"><ele>85.0</ele><time>2026-03-29T15:55:51Z</time></trkpt><trkpt lat="45.33748065867257" lon="9.36732960275477"><ele>85.25</ele><time>2026-03-29T15:55:52Z</time></trkpt><trkpt lat="45.33753630652006" lon="9.367187910875943"><ele>85.5</ele><time>2026-03-29T15:55:53Z</time></trkpt><trkpt lat="45.337602299683674" lon="9.367039561633916"><ele>85.75</ele><time>2026-03-29T15:55:54Z</time></trkpt><trkpt lat="45.337656586778" lon="9.366913102279396"><ele>86.0</ele><time>2026-03-29T15:55:55Z</time></trkpt><trkpt lat="45.33771112559088" lon="9.366766503543424"><ele>86.0</ele><time>2026-03-29T15:55:56Z</time></trkpt><trkpt lat="45.33777234473954" lon="9.366624710095108"><ele>86.0</ele><time>2026-03-29T15:55:57Z</time></trkpt><trkpt lat="45.337835775828616" lon="9.366474539821871"><ele>86.0</ele><time>2026-03-29T15:55:58Z</time></trkpt><trkpt lat="45.33789124563072" lon="9.36633682080845"><ele>86.0</ele><time>2026-03-29T15:55:59Z</time></trkpt><trkpt lat="45.33796751770355" lon="9.366185776283967"><ele>86.0</ele><time>2026-03-29T15:56:00Z</time></trkpt><trkpt lat="45.33803252057605" lon="9.366011401697563"><ele>86.0</ele><time>2026-03-29T15:56:01Z</time></trkpt><trkpt lat="45.33809924514716" lon="9.365842451617203"><ele>86.0</ele><time>2026-03-29T15:56:02Z</time></trkpt><trkpt lat="45.338172710976124" lon="9.365684516097888"><ele>86.0</ele><time>2026-03-29T15:56:03Z</time></trkpt><trkpt lat="45.338243555213644" lon="9.365517738022064"><ele>86.25</ele><time>2026-03-29T15:56:04Z</time></trkpt><trkpt lat="45.338321168866806" lon="9.365339718188487"><ele>86.5</ele><time>2026-03-29T15:56:05Z</time></trkpt><trkpt lat="45.338396665948636" lon="9.365165265954488"><ele>86.75</ele><time>2026-03-29T15:56:06Z</time></trkpt><trkpt lat="45.33847204664609" lon="9.364992643274734"><ele>87.0</ele><time>2026-03-29T15:56:07Z</time></trkpt><trkpt lat="45.33855254024163" lon="9.364833000321058"><ele>87.0</ele><time>2026-03-29T15:56:08Z</time></trkpt><trkpt lat="45.33864092789481" lon="9.364688640200438"><ele>87.0</ele><time>2026-03-29T15:56:09Z</time></trkpt><trkpt lat="45.33872967121102" lon="9.364543990032077"><ele>87.0</ele><time>2026-03-29T15:56:10Z</time></trkpt><trkpt lat="45.338819208558114" lon="9.364424215341522"><ele>87.0</ele><time>2026-03-29T15:56:11Z</time></trkpt><trkpt lat="45.33891763332217" lon="9.364307509064355"><ele>87.25</ele><time>2026-03-29T15:56:12Z</time></trkpt><trkpt lat="45.339020063028286" lon="9.364187902720468"><ele>87.5</ele><time>2026-03-29T15:56:13Z</time></trkpt><trkpt lat="45.33913605457888" lon="9.364081562669162"><ele>87.75</ele><time>2026-03-29T15:56:14Z</time></trkpt><trkpt lat="45.339245542684" lon="9.363968104241618"><ele>88.0</ele><time>2026-03-29T15:56:15Z</time></trkpt><trkpt lat="45.339352249534656" lon="9.36385547046044"><ele>88.0</ele><time>2026-03-29T15:56:16Z</time></trkpt><trkpt lat="45.339451536946434" lon="9.363752053289916"><ele>88.0</ele><time>2026-03-29T15:56:17Z</time></trkpt><trkpt lat="45.3395347118486" lon="9.363652570516217"><ele>88.0</ele><time>2026-03-29T15:56:18Z</time></trkpt><trkpt lat="45.339612604461564" lon="9.363560513295331"><ele>88.0</ele><time>2026-03-29T15:56:19Z</time></trkpt><trkpt lat="45.33969457716955" lon="9.363482975979348"><ele>88.0</ele><time>2026-03-29T15:56:20Z</time></trkpt><trkpt lat="45.33977096226643" lon="9.363405986724084"><ele>88.0</ele><time>2026-03-29T15:56:21Z</time></trkpt><trkpt lat="45.33983744542044" lon="9.363339291128135"><ele>88.0</ele><time>2026-03-29T15:56:22Z</time></trkpt><trkpt lat="45.339900207917665" lon="9.363285630337177"><ele>88.0</ele><time>2026-03-29T15:56:23Z</time></trkpt><trkpt lat="45.33996157591259" lon="9.36324168343647"><ele>88.0</ele><time>2026-03-29T15:56:24Z</time></trkpt><trkpt lat="45.3400643409023" lon="9.363160599265445"><ele>88.0</ele><time>2026-03-29T15:56:26Z</time></trkpt><trkpt lat="45.34015806357794" lon="9.36310861596788"><ele>88.0</ele><time>2026-03-29T15:56:28Z</time></trkpt><trkpt lat="45.340262973160435" lon="9.36308232057954"><ele>88.0</ele><time>2026-03-29T15:56:29.999Z</time></trkpt><trkpt lat="45.340384538703724" lon="9.363048323124247"><ele>88.0</ele><time>2026-03-29T15:56:31.999Z</time></trkpt><trkpt lat="45.34044324238157" lon="9.362968253841014"><ele>88.0</ele><time>2026-03-29T15:56:32.999Z</time></trkpt><trkpt lat="45.34048464704464" lon="9.362894208779188"><ele>88.0</ele><time>2026-03-29T15:56:33.999Z</time></trkpt><trkpt lat="45.34051428074297" lon="9.362798340336754"><ele>88.0</ele><time>2026-03-29T15:56:34.999Z</time></trkpt><trkpt lat="45.340541565711725" lon="9.362692060220402"><ele>88.0</ele><time>2026-03-29T15:56:35.999Z</time></trkpt><trkpt lat="45.340578915080165" lon="9.362582495808295"><ele>88.25</ele><time>2026-03-29T15:56:36.999Z</time></trkpt><trkpt lat="45.340653921895786" lon="9.362460933486723"><ele>88.5</ele><time>2026-03-29T15:56:37.999Z</time></trkpt><trkpt lat="45.340749607449055" lon="9.362347365524817"><ele>88.75</ele><time>2026-03-29T15:56:38.999Z</time></trkpt><trkpt lat="45.340809142788984" lon="9.362249715760854"><ele>89.0</ele><time>2026-03-29T15:56:39.999Z</time></trkpt><trkpt lat="45.340930185297864" lon="9.362115927582314"><ele>88.66666666666667</ele><time>2026-03-29T15:56:40.999Z</time></trkpt><trkpt lat="45.34109795141976" lon="9.36193460373571"><ele>88.33333333333333</ele><time>2026-03-29T15:56:41.999Z</time></trkpt><trkpt lat="45.34127204804724" lon="9.361749195355616"><ele>88.0</ele><time>2026-03-29T15:56:42.999Z</time></trkpt><trkpt lat="45.34142630394673" lon="9.361589633202108"><ele>88.0</ele><time>2026-03-29T15:56:43.999Z</time></trkpt><trkpt lat="45.34159357182002" lon="9.361418474475448"><ele>88.0</ele><time>2026-03-29T15:56:44.999Z</time></trkpt><trkpt lat="45.3417579872772" lon="9.361219007424884"><ele>88.0</ele><time>2026-03-29T15:56:45.999Z</time></trkpt><trkpt lat="45.341911309928555" lon="9.361073388798657"><ele>87.75</ele><time>2026-03-29T15:56:46.999Z</time></trkpt><trkpt lat="45.34203198715098" lon="9.360919298368916"><ele>87.5</ele><time>2026-03-29T15:56:47.999Z</time></trkpt><trkpt lat="45.34214485747006" lon="9.36079149888131"><ele>87.25</ele><time>2026-03-29T15:56:48.999Z</time></trkpt><trkpt lat="45.34225493473349" lon="9.360671451487995"><ele>87.0</ele><time>2026-03-29T15:56:49.999Z</time></trkpt><trkpt lat="45.342361330880955" lon="9.36053709508629"><ele>88.0</ele><time>2026-03-29T15:56:50.999Z</time></trkpt><trkpt lat="45.34244728322026" lon="9.360395835609248"><ele>89.0</ele><time>2026-03-29T15:56:51.999Z</time></trkpt><trkpt lat="45.342548359814415" lon="9.360221779513408"><ele>90.0</ele><time>2026-03-29T15:56:52.999Z</time></trkpt><trkpt lat="45.34264364032311" lon="9.360037810269128"><ele>90.0</ele><time>2026-03-29T15:56:53.999Z</time></trkpt><trkpt lat="45.342717105117416" lon="9.359830829738641"><ele>90.0</ele><time>2026-03-29T15:56:54.999Z</time></trkpt><trkpt lat="45.342797173969345" lon="9.359634963765147"><ele>90.0</ele><time>2026-03-29T15:56:55.999Z</time></trkpt><trkpt lat="45.34286464158143" lon="9.359420765120673"><ele>89.0</ele><time>2026-03-29T15:56:56.999Z</time></trkpt><trkpt lat="45.342931681412054" lon="9.35920609345829"><ele>88.0</ele><time>2026-03-29T15:56:57.999Z</time></trkpt><trkpt lat="45.34298797545471" lon="9.359009795934892"><ele>87.0</ele><time>2026-03-29T15:56:58.999Z</time></trkpt><trkpt lat="45.34304962238722" lon="9.358811032398673"><ele>87.0</ele><time>2026-03-29T15:56:59.999Z</time></trkpt><trkpt lat="45.34312133436717" lon="9.358576863390622"><ele>87.0</ele><time>2026-03-29T15:57:00.999Z</time></trkpt><trkpt lat="45.34320547734894" lon="9.358318655693608"><ele>87.0</ele><time>2026-03-29T15:57:01.999Z</time></trkpt><trkpt lat="45.34329543461738" lon="9.358017746389196"><ele>87.0</ele><time>2026-03-29T15:57:02.999Z</time></trkpt><trkpt lat="45.34338629032493" lon="9.357734331125116"><ele>87.0</ele><time>2026-03-29T15:57:03.999Z</time></trkpt><trkpt lat="45.34347530057055" lon="9.357504592593573"><ele>87.0</ele><time>2026-03-29T15:57:04.999Z</time></trkpt><trkpt lat="45.343552558733556" lon="9.357292629861215"><ele>86.75</ele><time>2026-03-29T15:57:05.999Z</time></trkpt><trkpt lat="45.3436212818726" lon="9.357095970826975"><ele>86.5</ele><time>2026-03-29T15:57:06.999Z</time></trkpt><trkpt lat="45.34368394353993" lon="9.35690672879438"><ele>86.25</ele><time>2026-03-29T15:57:07.999Z</time></trkpt><trkpt lat="45.343733747600766" lon="9.356729469380866"><ele>86.0</ele><time>2026-03-29T15:57:08.999Z</time></trkpt><trkpt lat="45.34378706459883" lon="9.356561431471121"><ele>86.0</ele><time>2026-03-29T15:57:09.999Z</time></trkpt><trkpt lat="45.343838426899474" lon="9.356406706065295"><ele>86.0</ele><time>2026-03-29T15:57:10.999Z</time></trkpt><trkpt lat="45.34388215511783" lon="9.356254882217668"><ele>86.0</ele><time>2026-03-29T15:57:11.999Z</time></trkpt><trkpt lat="45.34393504056757" lon="9.356119864253127"><ele>86.0</ele><time>2026-03-29T15:57:12.999Z</time></trkpt><trkpt lat="45.3439792909244" lon="9.355995963229205"><ele>86.0</ele><time>2026-03-29T15:57:13.999Z</time></trkpt><trkpt lat="45.34402554281759" lon="9.355864728705688"><ele>86.00000000000001</ele><time>2026-03-29T15:57:15.999Z</time></trkpt><trkpt lat="45.344058383011834" lon="9.355783751895153"><ele>86.0</ele><time>2026-03-29T15:57:17.999Z</time></trkpt><trkpt lat="45.34410512390007" lon="9.355705838717858"><ele>86.0</ele><time>2026-03-29T15:57:19.999Z</time></trkpt><trkpt lat="45.34416143540441" lon="9.35561831153662"><ele>86.0</ele><time>2026-03-29T15:57:21.999Z</time></trkpt><trkpt lat="45.344218420303804" lon="9.355570254758717"><ele>86.0</ele><time>2026-03-29T15:57:22.999Z</time></trkpt><trkpt lat="45.34429291572655" lon="9.355531311476685"><ele>86.00000000000001</ele><time>2026-03-29T15:57:23.999Z</time></trkpt><trkpt lat="45.34436975063776" lon="9.35550033389932"><ele>86.0</ele><time>2026-03-29T15:57:24.999Z</time></trkpt><trkpt lat="45.34443753538134" lon="9.35544778839303"><ele>85.83333333333334</ele><time>2026-03-29T15:57:25.999Z</time></trkpt><trkpt lat="45.344480762329944" lon="9.35537616392658"><ele>85.66666666666667</ele><time>2026-03-29T15:57:26.999Z</time></trkpt><trkpt lat="45.344519259352836" lon="9.355276574875703"><ele>85.5</ele><time>2026-03-29T15:57:27.999Z</time></trkpt><trkpt lat="45.34453051916781" lon="9.355154799086"><ele>85.33333333333333</ele><time>2026-03-29T15:57:28.999Z</time></trkpt><trkpt lat="45.34452338432169" lon="9.35503906055681"><ele>85.16666666666666</ele><time>2026-03-29T15:57:29.999Z</time></trkpt><trkpt lat="45.34450444815551" lon="9.354914132505721"><ele>85.0</ele><time>2026-03-29T15:57:30.999Z</time></trkpt><trkpt lat="45.3444845771729" lon="9.354771550363363"><ele>84.75</ele><time>2026-03-29T15:57:31.999Z</time></trkpt><trkpt lat="45.344481539856915" lon="9.354607658029543"><ele>84.5</ele><time>2026-03-29T15:57:32.999Z</time></trkpt><trkpt lat="45.344517310371984" lon="9.354448856821174"><ele>84.25</ele><time>2026-03-29T15:57:34Z</time></trkpt><trkpt lat="45.344540425690006" lon="9.354296003745535"><ele>84.0</ele><time>2026-03-29T15:57:35Z</time></trkpt><trkpt lat="45.34461806304495" lon="9.354134003893108"><ele>84.0</ele><time>2026-03-29T15:57:36Z</time></trkpt><trkpt lat="45.3446789735594" lon="9.353945470916214"><ele>84.0</ele><time>2026-03-29T15:57:37Z</time></trkpt><trkpt lat="45.344740862190434" lon="9.353773365106672"><ele>84.0</ele><time>2026-03-29T15:57:38Z</time></trkpt><trkpt lat="45.34479754381775" lon="9.353606340614396"><ele>84.0</ele><time>2026-03-29T15:57:39Z</time></trkpt><trkpt lat="45.344854204650346" lon="9.353449202386017"><ele>84.5</ele><time>2026-03-29T15:57:40Z</time></trkpt><trkpt lat="45.34490629968658" lon="9.353295535191638"><ele>85.0</ele><time>2026-03-29T15:57:41Z</time></trkpt><trkpt lat="45.34496263920955" lon="9.353137281586024"><ele>85.5</ele><time>2026-03-29T15:57:42Z</time></trkpt><trkpt lat="45.34502497390321" lon="9.352972907866478"><ele>86.0</ele><time>2026-03-29T15:57:43Z</time></trkpt><trkpt lat="45.34509064899929" lon="9.352800558797961"><ele>86.25</ele><time>2026-03-29T15:57:44Z</time></trkpt><trkpt lat="45.34516863124803" lon="9.352628238388531"><ele>86.5</ele><time>2026-03-29T15:57:45Z</time></trkpt><trkpt lat="45.345232863838945" lon="9.352483213319584"><ele>86.75</ele><time>2026-03-29T15:57:46Z</time></trkpt><trkpt lat="45.345304098915946" lon="9.352329676067816"><ele>87.0</ele><time>2026-03-29T15:57:47Z</time></trkpt><trkpt lat="45.34542191936634" lon="9.352147675498559"><ele>87.0</ele><time>2026-03-29T15:57:48Z</time></trkpt><trkpt lat="45.34551487876749" lon="9.351985382843283"><ele>87.0</ele><time>2026-03-29T15:57:49Z</time></trkpt><trkpt lat="45.34561126906234" lon="9.351818375010994"><ele>87.0</ele><time>2026-03-29T15:57:50Z</time></trkpt><trkpt lat="45.34570769233745" lon="9.351663124263547"><ele>87.0</ele><time>2026-03-29T15:57:51Z</time></trkpt><trkpt lat="45.3457866194773" lon="9.351504562358729"><ele>86.75</ele><time>2026-03-29T15:57:52Z</time></trkpt><trkpt lat="45.3458683052231" lon="9.351360854842193"><ele>86.5</ele><time>2026-03-29T15:57:53Z</time></trkpt><trkpt lat="45.34595159913666" lon="9.351221283313373"><ele>86.25</ele><time>2026-03-29T15:57:54Z</time></trkpt><trkpt lat="45.346023295590484" lon="9.351094461140729"><ele>86.0</ele><time>2026-03-29T15:57:55Z</time></trkpt><trkpt lat="45.34610081753186" lon="9.350974933139515"><ele>86.0</ele><time>2026-03-29T15:57:56Z</time></trkpt><trkpt lat="45.346170045788035" lon="9.350859333323877"><ele>86.0</ele><time>2026-03-29T15:57:57Z</time></trkpt><trkpt lat="45.346231295982" lon="9.35076233005978"><ele>86.0</ele><time>2026-03-29T15:57:58Z</time></trkpt><trkpt lat="45.34628509419911" lon="9.350683957620864"><ele>86.0</ele><time>2026-03-29T15:57:59Z</time></trkpt><trkpt lat="45.34636599214136" lon="9.350576273059653"><ele>86.0</ele><time>2026-03-29T15:58:01Z</time></trkpt><trkpt lat="45.34646338152727" lon="9.350491898624423"><ele>86.42857142857143</ele><time>2026-03-29T15:58:03Z</time></trkpt><trkpt lat="45.346532305455845" lon="9.350460807041463"><ele>86.85714285714286</ele><time>2026-03-29T15:58:04Z</time></trkpt><trkpt lat="45.346607669277255" lon="9.350440363217864"><ele>87.28571428571428</ele><time>2026-03-29T15:58:05Z</time></trkpt><trkpt lat="45.34667223660253" lon="9.350404288850356"><ele>87.71428571428572</ele><time>2026-03-29T15:58:06Z</time></trkpt><trkpt lat="45.34672422770088" lon="9.35033632126383"><ele>88.14285714285714</ele><time>2026-03-29T15:58:07Z</time></trkpt><trkpt lat="45.3467604110174" lon="9.350243043287513"><ele>88.57142857142857</ele><time>2026-03-29T15:58:08Z</time></trkpt><trkpt lat="45.346769758897906" lon="9.350142698238093"><ele>89.0</ele><time>2026-03-29T15:58:09Z</time></trkpt><trkpt lat="45.34675697420736" lon="9.350052171626817"><ele>88.99999999999999</ele><time>2026-03-29T15:58:10Z</time></trkpt><trkpt lat="45.346729962225886" lon="9.349967038256702"><ele>89.0</ele><time>2026-03-29T15:58:11Z</time></trkpt><trkpt lat="45.34668492163176" lon="9.349887455034864"><ele>89.0</ele><time>2026-03-29T15:58:12Z</time></trkpt><trkpt lat="45.34662404211908" lon="9.349837051295633"><ele>89.0</ele><time>2026-03-29T15:58:13Z</time></trkpt><trkpt lat="45.34654930728426" lon="9.349814192322244"><ele>89.0</ele><time>2026-03-29T15:58:14Z</time></trkpt><trkpt lat="45.346478350628836" lon="9.349818977346983"><ele>88.99999999999999</ele><time>2026-03-29T15:58:15Z</time></trkpt><trkpt lat="45.34641486641626" lon="9.34983323749733"><ele>89.0</ele><time>2026-03-29T15:58:16Z</time></trkpt><trkpt lat="45.34630412507948" lon="9.349816611923352"><ele>88.5</ele><time>2026-03-29T15:58:18Z</time></trkpt><trkpt lat="45.3462423602893" lon="9.34978489701627"><ele>88.0</ele><time>2026-03-29T15:58:19Z</time></trkpt><trkpt lat="45.34617648394007" lon="9.34973077018311"><ele>87.5</ele><time>2026-03-29T15:58:20Z</time></trkpt><trkpt lat="45.34610886942019" lon="9.349556831261095"><ele>87.0</ele><time>2026-03-29T15:58:22Z</time></trkpt><trkpt lat="45.34607615176276" lon="9.349453566947737"><ele>86.5</ele><time>2026-03-29T15:58:23Z</time></trkpt><trkpt lat="45.346053342216734" lon="9.349333178291024"><ele>86.0</ele><time>2026-03-29T15:58:24Z</time></trkpt><trkpt lat="45.34604362665974" lon="9.349186480939862"><ele>86.0</ele><time>2026-03-29T15:58:25Z</time></trkpt><trkpt lat="45.34604443109908" lon="9.34903737135226"><ele>86.0</ele><time>2026-03-29T15:58:26Z</time></trkpt><trkpt lat="45.34605644346685" lon="9.348876985008696"><ele>86.0</ele><time>2026-03-29T15:58:27Z</time></trkpt><trkpt lat="45.34608876432807" lon="9.348702296035531"><ele>86.0</ele><time>2026-03-29T15:58:28Z</time></trkpt><trkpt lat="45.34612321492185" lon="9.348545145876969"><ele>86.0</ele><time>2026-03-29T15:58:29Z</time></trkpt><trkpt lat="45.34622247778547" lon="9.348374734203343"><ele>86.0</ele><time>2026-03-29T15:58:30Z</time></trkpt><trkpt lat="45.34630294180633" lon="9.34823265734351"><ele>86.0</ele><time>2026-03-29T15:58:31Z</time></trkpt><trkpt lat="45.34640994505488" lon="9.34809495912247"><ele>86.0</ele><time>2026-03-29T15:58:32Z</time></trkpt><trkpt lat="45.3465171908337" lon="9.347961212361358"><ele>86.0</ele><time>2026-03-29T15:58:33Z</time></trkpt><trkpt lat="45.34663461234655" lon="9.347821817735017"><ele>86.0</ele><time>2026-03-29T15:58:33.999Z</time></trkpt><trkpt lat="45.346735638248" lon="9.347669405385743"><ele>86.0</ele><time>2026-03-29T15:58:34.999Z</time></trkpt><trkpt lat="45.346886114889365" lon="9.347529243624134"><ele>86.0</ele><time>2026-03-29T15:58:35.999Z</time></trkpt><trkpt lat="45.347004600628104" lon="9.347379615022813"><ele>86.0</ele><time>2026-03-29T15:58:36.999Z</time></trkpt><trkpt lat="45.34710649251742" lon="9.347239154901109"><ele>86.0</ele><time>2026-03-29T15:58:37.999Z</time></trkpt><trkpt lat="45.34718580768581" lon="9.347074537598091"><ele>86.0</ele><time>2026-03-29T15:58:38.999Z</time></trkpt><trkpt lat="45.34724365416171" lon="9.346889947758202"><ele>85.66666666666667</ele><time>2026-03-29T15:58:39.999Z</time></trkpt><trkpt lat="45.34732295530765" lon="9.346698602426029"><ele>85.33333333333333</ele><time>2026-03-29T15:58:40.999Z</time></trkpt><trkpt lat="45.34737468584249" lon="9.346486115519495"><ele>85.0</ele><time>2026-03-29T15:58:41.999Z</time></trkpt><trkpt lat="45.34742341198481" lon="9.346249018095008"><ele>85.0</ele><time>2026-03-29T15:58:42.999Z</time></trkpt><trkpt lat="45.34746273274972" lon="9.34600969623582"><ele>85.0</ele><time>2026-03-29T15:58:43.999Z</time></trkpt><trkpt lat="45.34748625780977" lon="9.345751823144374"><ele>85.0</ele><time>2026-03-29T15:58:44.999Z</time></trkpt><trkpt lat="45.347499590294035" lon="9.345478205100159"><ele>84.66666666666666</ele><time>2026-03-29T15:58:45.999Z</time></trkpt><trkpt lat="45.347503475645" lon="9.345224259201014"><ele>84.33333333333333</ele><time>2026-03-29T15:58:46.999Z</time></trkpt><trkpt lat="45.347497808369866" lon="9.34494377358532"><ele>84.0</ele><time>2026-03-29T15:58:47.999Z</time></trkpt><trkpt lat="45.34747665401993" lon="9.344672466560185"><ele>84.0</ele><time>2026-03-29T15:58:48.999Z</time></trkpt><trkpt lat="45.34744552238243" lon="9.34441382955563"><ele>84.0</ele><time>2026-03-29T15:58:49.999Z</time></trkpt><trkpt lat="45.34740820880854" lon="9.344163417726739"><ele>84.0</ele><time>2026-03-29T15:58:50.999Z</time></trkpt><trkpt lat="45.347357504414305" lon="9.343906472800159"><ele>84.33333333333333</ele><time>2026-03-29T15:58:51.999Z</time></trkpt><trkpt lat="45.34730847759076" lon="9.343656577900735"><ele>84.66666666666666</ele><time>2026-03-29T15:58:52.999Z</time></trkpt><trkpt lat="45.34725351701608" lon="9.343389046733549"><ele>85.0</ele><time>2026-03-29T15:58:53.999Z</time></trkpt><trkpt lat="45.34716566810341" lon="9.34311399935599"><ele>84.33333333333333</ele><time>2026-03-29T15:58:54.999Z</time></trkpt><trkpt lat="45.34712786165102" lon="9.342873211325331"><ele>83.66666666666667</ele><time>2026-03-29T15:58:55.999Z</time></trkpt><trkpt lat="45.34707093404301" lon="9.34261636038785"><ele>83.0</ele><time>2026-03-29T15:58:56.999Z</time></trkpt><trkpt lat="45.347015073162986" lon="9.342365914407505"><ele>83.33333333333334</ele><time>2026-03-29T15:58:57.999Z</time></trkpt><trkpt lat="45.34695772629097" lon="9.34210758065339"><ele>83.66666666666667</ele><time>2026-03-29T15:58:58.999Z</time></trkpt><trkpt lat="45.34689871508902" lon="9.34184603462924"><ele>84.0</ele><time>2026-03-29T15:58:59.999Z</time></trkpt><trkpt lat="45.3468414614326" lon="9.341585255479586"><ele>83.66666666666667</ele><time>2026-03-29T15:59:00.999Z</time></trkpt><trkpt lat="45.3467871705854" lon="9.341322807181527"><ele>83.33333333333334</ele><time>2026-03-29T15:59:01.999Z</time></trkpt><trkpt lat="45.34673001672148" lon="9.341065713250815"><ele>83.0</ele><time>2026-03-29T15:59:02.999Z</time></trkpt><trkpt lat="45.34667837219291" lon="9.340793696117805"><ele>82.66666666666667</ele><time>2026-03-29T15:59:03.999Z</time></trkpt><trkpt lat="45.34661254930107" lon="9.340527117424541"><ele>82.33333333333333</ele><time>2026-03-29T15:59:04.999Z</time></trkpt><trkpt lat="45.34655407007548" lon="9.34025090303302"><ele>82.0</ele><time>2026-03-29T15:59:05.999Z</time></trkpt><trkpt lat="45.34648862993748" lon="9.33997141687313"><ele>81.66666666666666</ele><time>2026-03-29T15:59:06.999Z</time></trkpt><trkpt lat="45.34643093092167" lon="9.339689762786493"><ele>81.33333333333333</ele><time>2026-03-29T15:59:07.999Z</time></trkpt><trkpt lat="45.34635973065686" lon="9.339398023341738"><ele>81.0</ele><time>2026-03-29T15:59:08.999Z</time></trkpt><trkpt lat="45.34628891715489" lon="9.339117315368753"><ele>81.0</ele><time>2026-03-29T15:59:09.999Z</time></trkpt><trkpt lat="45.346220958248715" lon="9.338842344901177"><ele>81.0</ele><time>2026-03-29T15:59:10.999Z</time></trkpt><trkpt lat="45.34615010123223" lon="9.33856861241126"><ele>81.0</ele><time>2026-03-29T15:59:11.999Z</time></trkpt><trkpt lat="45.346072836301786" lon="9.338291015344257"><ele>81.33333333333333</ele><time>2026-03-29T15:59:12.999Z</time></trkpt><trkpt lat="45.345986570560335" lon="9.338010145387788"><ele>81.66666666666666</ele><time>2026-03-29T15:59:13.999Z</time></trkpt><trkpt lat="45.345891742009115" lon="9.337726412648644"><ele>82.0</ele><time>2026-03-29T15:59:14.999Z</time></trkpt><trkpt lat="45.34579597024348" lon="9.337439083414138"><ele>82.0</ele><time>2026-03-29T15:59:15.999Z</time></trkpt><trkpt lat="45.34569721447023" lon="9.337148406513789"><ele>82.0</ele><time>2026-03-29T15:59:16.999Z</time></trkpt><trkpt lat="45.345592217255316" lon="9.336879172165599"><ele>82.0</ele><time>2026-03-29T15:59:17.999Z</time></trkpt><trkpt lat="45.34548647916231" lon="9.336611102234246"><ele>80.66666666666666</ele><time>2026-03-29T15:59:18.999Z</time></trkpt><trkpt lat="45.34537608046081" lon="9.336347665554321"><ele>79.33333333333333</ele><time>2026-03-29T15:59:19.999Z</time></trkpt><trkpt lat="45.345258829694465" lon="9.336072804162578"><ele>78.0</ele><time>2026-03-29T15:59:20.999Z</time></trkpt><trkpt lat="45.34514073891357" lon="9.335808714130374"><ele>78.0</ele><time>2026-03-29T15:59:21.999Z</time></trkpt><trkpt lat="45.34501907213677" lon="9.335555367441486"><ele>78.0</ele><time>2026-03-29T15:59:22.999Z</time></trkpt><trkpt lat="45.34490163463582" lon="9.335310633175325"><ele>78.0</ele><time>2026-03-29T15:59:23.999Z</time></trkpt><trkpt lat="45.34477992139188" lon="9.335075844557664"><ele>77.66666666666667</ele><time>2026-03-29T15:59:24.999Z</time></trkpt><trkpt lat="45.34465475561856" lon="9.334847470517355"><ele>77.33333333333334</ele><time>2026-03-29T15:59:25.999Z</time></trkpt><trkpt lat="45.344520713698344" lon="9.334604940651284"><ele>77.0</ele><time>2026-03-29T15:59:26.999Z</time></trkpt><trkpt lat="45.34438809683189" lon="9.334372201595825"><ele>77.0</ele><time>2026-03-29T15:59:27.999Z</time></trkpt><trkpt lat="45.344251065342014" lon="9.334138540153509"><ele>77.0</ele><time>2026-03-29T15:59:28.999Z</time></trkpt><trkpt lat="45.34412235222829" lon="9.333924307155087"><ele>77.0</ele><time>2026-03-29T15:59:29.999Z</time></trkpt><trkpt lat="45.34398798403458" lon="9.33372560061832"><ele>78.66666666666667</ele><time>2026-03-29T15:59:30.999Z</time></trkpt><trkpt lat="45.3438782051233" lon="9.333539679432722"><ele>80.33333333333333</ele><time>2026-03-29T15:59:31.999Z</time></trkpt><trkpt lat="45.343762116115784" lon="9.333329296312005"><ele>82.0</ele><time>2026-03-29T15:59:32.999Z</time></trkpt><trkpt lat="45.343636842625024" lon="9.333214737228264"><ele>82.33333333333333</ele><time>2026-03-29T15:59:33.999Z</time></trkpt><trkpt lat="45.34351268037882" lon="9.33303955003727"><ele>82.66666666666667</ele><time>2026-03-29T15:59:34.999Z</time></trkpt><trkpt lat="45.343385793880756" lon="9.332870992709244"><ele>83.0</ele><time>2026-03-29T15:59:35.999Z</time></trkpt><trkpt lat="45.343253045042395" lon="9.332701322717858"><ele>83.0</ele><time>2026-03-29T15:59:36.999Z</time></trkpt><trkpt lat="45.34312362704748" lon="9.332544042512808"><ele>83.0</ele><time>2026-03-29T15:59:37.999Z</time></trkpt><trkpt lat="45.34302282588286" lon="9.332418624930947"><ele>83.0</ele><time>2026-03-29T15:59:38.999Z</time></trkpt><trkpt lat="45.34292118575857" lon="9.332302539442539"><ele>83.0</ele><time>2026-03-29T15:59:40Z</time></trkpt><trkpt lat="45.34282565536764" lon="9.332182806430216"><ele>83.60000000000001</ele><time>2026-03-29T15:59:41Z</time></trkpt><trkpt lat="45.34272352158172" lon="9.3320704594534"><ele>84.2</ele><time>2026-03-29T15:59:42Z</time></trkpt><trkpt lat="45.342630321713834" lon="9.331954511197958"><ele>84.8</ele><time>2026-03-29T15:59:43Z</time></trkpt><trkpt lat="45.342548415897745" lon="9.33185025836499"><ele>85.4</ele><time>2026-03-29T15:59:44Z</time></trkpt><trkpt lat="45.342489451772" lon="9.331765564604549"><ele>86.0</ele><time>2026-03-29T15:59:45Z</time></trkpt><trkpt lat="45.342436099450225" lon="9.331685155637244"><ele>86.0</ele><time>2026-03-29T15:59:46Z</time></trkpt><trkpt lat="45.34237190878434" lon="9.331634291411333"><ele>86.0</ele><time>2026-03-29T15:59:47Z</time></trkpt><trkpt lat="45.34231957043144" lon="9.331566385027804"><ele>86.0</ele><time>2026-03-29T15:59:48Z</time></trkpt><trkpt lat="45.34225761531581" lon="9.331476799353688"><ele>86.0</ele><time>2026-03-29T15:59:50Z</time></trkpt><trkpt lat="45.342201797272004" lon="9.331393580408347"><ele>86.0</ele><time>2026-03-29T15:59:52Z</time></trkpt><trkpt lat="45.34216378889661" lon="9.331309438353536"><ele>86.0</ele><time>2026-03-29T15:59:56Z</time></trkpt><trkpt lat="45.342151216539555" lon="9.331203192886468"><ele>85.8</ele><time>2026-03-29T15:59:58Z</time></trkpt><trkpt lat="45.34211191316544" lon="9.331102815674946"><ele>85.6</ele><time>2026-03-29T16:00:00Z</time></trkpt><trkpt lat="45.342011236135995" lon="9.331036296613258"><ele>85.4</ele><time>2026-03-29T16:00:02Z</time></trkpt><trkpt lat="45.341900000433235" lon="9.33112169642953"><ele>85.2</ele><time>2026-03-29T16:00:04Z</time></trkpt><trkpt lat="45.34185280328048" lon="9.33118909451698"><ele>85.0</ele><time>2026-03-29T16:00:05Z</time></trkpt><trkpt lat="45.341797451612685" lon="9.331268310449657"><ele>85.0</ele><time>2026-03-29T16:00:06Z</time></trkpt><trkpt lat="45.34173704180451" lon="9.331326521490242"><ele>85.0</ele><time>2026-03-29T16:00:07Z</time></trkpt><trkpt lat="45.341653802377515" lon="9.331384853464732"><ele>85.0</ele><time>2026-03-29T16:00:08Z</time></trkpt><trkpt lat="45.341511153879686" lon="9.331484050092634"><ele>85.0</ele><time>2026-03-29T16:00:10Z</time></trkpt><trkpt lat="45.34140915515793" lon="9.33154052939195"><ele>85.0</ele><time>2026-03-29T16:00:11Z</time></trkpt><trkpt lat="45.34130481153503" lon="9.331571181194702"><ele>85.0</ele><time>2026-03-29T16:00:12Z</time></trkpt><trkpt lat="45.34119678794686" lon="9.331623057806015"><ele>85.0</ele><time>2026-03-29T16:00:13Z</time></trkpt><trkpt lat="45.34110411854434" lon="9.331690446639328"><ele>85.0</ele><time>2026-03-29T16:00:14Z</time></trkpt><trkpt lat="45.34099780493974" lon="9.331726232168723"><ele>85.0</ele><time>2026-03-29T16:00:15Z</time></trkpt><trkpt lat="45.34089358142581" lon="9.331775433075041"><ele>85.0</ele><time>2026-03-29T16:00:16Z</time></trkpt><trkpt lat="45.34077610664144" lon="9.33182399530036"><ele>85.0</ele><time>2026-03-29T16:00:17Z</time></trkpt><trkpt lat="45.340656918566616" lon="9.331870234974268"><ele>85.0</ele><time>2026-03-29T16:00:18Z</time></trkpt><trkpt lat="45.340531947627525" lon="9.331910144049067"><ele>85.0</ele><time>2026-03-29T16:00:19Z</time></trkpt><trkpt lat="45.3403963630333" lon="9.331951315091255"><ele>85.0</ele><time>2026-03-29T16:00:20Z</time></trkpt><trkpt lat="45.3402561291245" lon="9.331985538949164"><ele>85.0</ele><time>2026-03-29T16:00:21Z</time></trkpt><trkpt lat="45.34011177670855" lon="9.332018984656958"><ele>85.0</ele><time>2026-03-29T16:00:22Z</time></trkpt><trkpt lat="45.33996667122331" lon="9.332061034012431"><ele>85.0</ele><time>2026-03-29T16:00:23Z</time></trkpt><trkpt lat="45.33981758923324" lon="9.332079660973877"><ele>85.0</ele><time>2026-03-29T16:00:24Z</time></trkpt><trkpt lat="45.3396705934513" lon="9.332099124834745"><ele>85.33333333333333</ele><time>2026-03-29T16:00:25Z</time></trkpt><trkpt lat="45.33952835750147" lon="9.332081427079583"><ele>85.66666666666667</ele><time>2026-03-29T16:00:26Z</time></trkpt><trkpt lat="45.33936797832747" lon="9.33208219582954"><ele>86.0</ele><time>2026-03-29T16:00:27Z</time></trkpt><trkpt lat="45.339214828188226" lon="9.332100132316057"><ele>86.0</ele><time>2026-03-29T16:00:28Z</time></trkpt><trkpt lat="45.33905265978824" lon="9.33208357756469"><ele>86.0</ele><time>2026-03-29T16:00:29Z</time></trkpt><trkpt lat="45.3388897302944" lon="9.332064195150657"><ele>86.0</ele><time>2026-03-29T16:00:30Z</time></trkpt><trkpt lat="45.3387214093281" lon="9.332024880138288"><ele>86.0</ele><time>2026-03-29T16:00:31Z</time></trkpt><trkpt lat="45.33856358559783" lon="9.331996828021271"><ele>86.0</ele><time>2026-03-29T16:00:32Z</time></trkpt><trkpt lat="45.3383968696417" lon="9.331955711225852"><ele>86.0</ele><time>2026-03-29T16:00:33Z</time></trkpt><trkpt lat="45.33821273971858" lon="9.331929504207537"><ele>86.0</ele><time>2026-03-29T16:00:34Z</time></trkpt><trkpt lat="45.3380341663926" lon="9.331893870139034"><ele>86.0</ele><time>2026-03-29T16:00:35Z</time></trkpt><trkpt lat="45.337859441004944" lon="9.331859194359852"><ele>86.0</ele><time>2026-03-29T16:00:36Z</time></trkpt><trkpt lat="45.337692631134786" lon="9.331809344319893"><ele>86.0</ele><time>2026-03-29T16:00:37Z</time></trkpt><trkpt lat="45.33754405007996" lon="9.331796887317646"><ele>86.0</ele><time>2026-03-29T16:00:38Z</time></trkpt><trkpt lat="45.337375070315794" lon="9.331764497286422"><ele>86.0</ele><time>2026-03-29T16:00:39Z</time></trkpt><trkpt lat="45.337208897185995" lon="9.331738555138646"><ele>86.25</ele><time>2026-03-29T16:00:40Z</time></trkpt><trkpt lat="45.33705657222488" lon="9.331722315615302"><ele>86.5</ele><time>2026-03-29T16:00:41Z</time></trkpt><trkpt lat="45.33692644439054" lon="9.331713185143162"><ele>86.75</ele><time>2026-03-29T16:00:42Z</time></trkpt><trkpt lat="45.336775108225346" lon="9.331688718376144"><ele>87.0</ele><time>2026-03-29T16:00:43Z</time></trkpt><trkpt lat="45.33657060914743" lon="9.331690393667216"><ele>87.33333333333333</ele><time>2026-03-29T16:00:43.999Z</time></trkpt><trkpt lat="45.33634441828542" lon="9.3317296266654"><ele>87.66666666666666</ele><time>2026-03-29T16:00:44.999Z</time></trkpt><trkpt lat="45.33614119814015" lon="9.331727969374162"><ele>88.0</ele><time>2026-03-29T16:00:45.999Z</time></trkpt><trkpt lat="45.335948936340614" lon="9.331732191353355"><ele>88.0</ele><time>2026-03-29T16:00:46.999Z</time></trkpt><trkpt lat="45.33582527897505" lon="9.331754346274073"><ele>88.0</ele><time>2026-03-29T16:00:47.999Z</time></trkpt><trkpt lat="45.33570241631383" lon="9.331742457916713"><ele>88.0</ele><time>2026-03-29T16:00:48.999Z</time></trkpt><trkpt lat="45.3355978865803" lon="9.331731565952573"><ele>88.0</ele><time>2026-03-29T16:00:49.999Z</time></trkpt><trkpt lat="45.33551261281787" lon="9.331723697403591"><ele>88.0</ele><time>2026-03-29T16:00:50.999Z</time></trkpt><trkpt lat="45.3354501508566" lon="9.331688765306694"><ele>87.4</ele><time>2026-03-29T16:00:52.999Z</time></trkpt><trkpt lat="45.335364500309616" lon="9.33156096515121"><ele>86.80000000000001</ele><time>2026-03-29T16:00:56.999Z</time></trkpt><trkpt lat="45.33530693218971" lon="9.331496613233877"><ele>86.2</ele><time>2026-03-29T16:00:57.999Z</time></trkpt><trkpt lat="45.3353064669716" lon="9.33134127097627"><ele>85.6</ele><time>2026-03-29T16:00:58.999Z</time></trkpt><trkpt lat="45.33529371496908" lon="9.331213571168934"><ele>85.0</ele><time>2026-03-29T16:00:59.999Z</time></trkpt><trkpt lat="45.3352731186419" lon="9.331070659648582"><ele>85.0</ele><time>2026-03-29T16:01:00.999Z</time></trkpt><trkpt lat="45.33529380298788" lon="9.33087859659089"><ele>85.0</ele><time>2026-03-29T16:01:01.999Z</time></trkpt><trkpt lat="45.335309776382296" lon="9.330621089775242"><ele>85.0</ele><time>2026-03-29T16:01:02.999Z</time></trkpt><trkpt lat="45.33534049537458" lon="9.330323110069735"><ele>85.0</ele><time>2026-03-29T16:01:03.999Z</time></trkpt><trkpt lat="45.335346210670004" lon="9.329999217396155"><ele>85.0</ele><time>2026-03-29T16:01:04.999Z</time></trkpt><trkpt lat="45.335374525420825" lon="9.329652100352048"><ele>85.0</ele><time>2026-03-29T16:01:05.999Z</time></trkpt><trkpt lat="45.33539883691136" lon="9.329305321347727"><ele>85.0</ele><time>2026-03-29T16:01:06.999Z</time></trkpt><trkpt lat="45.335417316381566" lon="9.329004639566582"><ele>85.0</ele><time>2026-03-29T16:01:07.999Z</time></trkpt><trkpt lat="45.335438373073444" lon="9.328733453366018"><ele>85.0</ele><time>2026-03-29T16:01:08.999Z</time></trkpt><trkpt lat="45.33546205319269" lon="9.328478874587022"><ele>85.0</ele><time>2026-03-29T16:01:09.999Z</time></trkpt><trkpt lat="45.335494205365634" lon="9.328226501922416"><ele>84.66666666666666</ele><time>2026-03-29T16:01:10.999Z</time></trkpt><trkpt lat="45.33552639099288" lon="9.327977352889022"><ele>84.33333333333333</ele><time>2026-03-29T16:01:11.999Z</time></trkpt><trkpt lat="45.33556189033871" lon="9.32773068245109"><ele>84.0</ele><time>2026-03-29T16:01:12.999Z</time></trkpt><trkpt lat="45.33561208125823" lon="9.327501427646258"><ele>84.0</ele><time>2026-03-29T16:01:13.999Z</time></trkpt><trkpt lat="45.33566899981445" lon="9.327273966457408"><ele>84.0</ele><time>2026-03-29T16:01:14.999Z</time></trkpt><trkpt lat="45.33573620462035" lon="9.327037261570226"><ele>84.0</ele><time>2026-03-29T16:01:15.999Z</time></trkpt><trkpt lat="45.3358066066569" lon="9.32680882679637"><ele>84.33333333333333</ele><time>2026-03-29T16:01:16.999Z</time></trkpt><trkpt lat="45.33586829968854" lon="9.326600466465916"><ele>84.66666666666666</ele><time>2026-03-29T16:01:17.999Z</time></trkpt><trkpt lat="45.33593689615525" lon="9.326367873661635"><ele>85.0</ele><time>2026-03-29T16:01:18.999Z</time></trkpt><trkpt lat="45.33602830363113" lon="9.326111005547517"><ele>85.5</ele><time>2026-03-29T16:01:19.999Z</time></trkpt><trkpt lat="45.336146793228224" lon="9.325834492184454"><ele>86.0</ele><time>2026-03-29T16:01:20.999Z</time></trkpt><trkpt lat="45.3362812608238" lon="9.325564863958078"><ele>86.5</ele><time>2026-03-29T16:01:21.999Z</time></trkpt><trkpt lat="45.336423769146045" lon="9.325296675304221"><ele>87.0</ele><time>2026-03-29T16:01:22.999Z</time></trkpt><trkpt lat="45.33657077370617" lon="9.325021094673653"><ele>87.0</ele><time>2026-03-29T16:01:23.999Z</time></trkpt><trkpt lat="45.33673617917921" lon="9.324771588022802"><ele>87.0</ele><time>2026-03-29T16:01:24.999Z</time></trkpt><trkpt lat="45.33691812597945" lon="9.324543669847337"><ele>86.5</ele><time>2026-03-29T16:01:25.999Z</time></trkpt><trkpt lat="45.33709871647179" lon="9.3243192967192"><ele>86.0</ele><time>2026-03-29T16:01:26.999Z</time></trkpt><trkpt lat="45.3372861637759" lon="9.324106607288165"><ele>86.0</ele><time>2026-03-29T16:01:27.999Z</time></trkpt><trkpt lat="45.33747555146957" lon="9.323900449271104"><ele>86.0</ele><time>2026-03-29T16:01:28.999Z</time></trkpt><trkpt lat="45.33767265419113" lon="9.323721274232984"><ele>86.5</ele><time>2026-03-29T16:01:29.999Z</time></trkpt><trkpt lat="45.33786657021331" lon="9.323549123531564"><ele>87.0</ele><time>2026-03-29T16:01:30.999Z</time></trkpt><trkpt lat="45.33807359102452" lon="9.323388169235828"><ele>87.0</ele><time>2026-03-29T16:01:31.999Z</time></trkpt><trkpt lat="45.33828949343909" lon="9.323235994838532"><ele>87.0</ele><time>2026-03-29T16:01:32.999Z</time></trkpt><trkpt lat="45.33850958305528" lon="9.323098099863358"><ele>86.5</ele><time>2026-03-29T16:01:33.999Z</time></trkpt><trkpt lat="45.3387511830382" lon="9.322966493397217"><ele>86.0</ele><time>2026-03-29T16:01:34.999Z</time></trkpt><trkpt lat="45.33899134013555" lon="9.322857753753928"><ele>86.0</ele><time>2026-03-29T16:01:35.999Z</time></trkpt><trkpt lat="45.3391724634363" lon="9.322719888244533"><ele>86.0</ele><time>2026-03-29T16:01:36.999Z</time></trkpt><trkpt lat="45.33935306498816" lon="9.322600700216949"><ele>86.0</ele><time>2026-03-29T16:01:37.999Z</time></trkpt><trkpt lat="45.33952703052015" lon="9.322474292269069"><ele>86.0</ele><time>2026-03-29T16:01:38.999Z</time></trkpt><trkpt lat="45.33970106462006" lon="9.322333804514452"><ele>86.0</ele><time>2026-03-29T16:01:39.999Z</time></trkpt><trkpt lat="45.33987235833113" lon="9.322171577489923"><ele>86.0</ele><time>2026-03-29T16:01:40.999Z</time></trkpt><trkpt lat="45.34003822282381" lon="9.321992036486225"><ele>86.66666666666667</ele><time>2026-03-29T16:01:41.999Z</time></trkpt><trkpt lat="45.34020003972356" lon="9.321792429396643"><ele>87.33333333333333</ele><time>2026-03-29T16:01:42.999Z</time></trkpt><trkpt lat="45.34035922464863" lon="9.32158062344856"><ele>88.0</ele><time>2026-03-29T16:01:43.999Z</time></trkpt><trkpt lat="45.3405093222653" lon="9.321350602648845"><ele>88.33333333333333</ele><time>2026-03-29T16:01:44.999Z</time></trkpt><trkpt lat="45.34064958631718" lon="9.321126041620355"><ele>88.66666666666667</ele><time>2026-03-29T16:01:46Z</time></trkpt><trkpt lat="45.34078432604408" lon="9.320882488841482"><ele>89.0</ele><time>2026-03-29T16:01:47Z</time></trkpt><trkpt lat="45.340926625786004" lon="9.320550781426823"><ele>89.0</ele><time>2026-03-29T16:01:48Z</time></trkpt><trkpt lat="45.341084266097965" lon="9.320240491417136"><ele>89.0</ele><time>2026-03-29T16:01:49Z</time></trkpt><trkpt lat="45.34122251399992" lon="9.319970335846248"><ele>89.0</ele><time>2026-03-29T16:01:50Z</time></trkpt><trkpt lat="45.34137120230662" lon="9.319684988776284"><ele>89.0</ele><time>2026-03-29T16:01:51Z</time></trkpt><trkpt lat="45.34151050541385" lon="9.319393147895006"><ele>89.0</ele><time>2026-03-29T16:01:52Z</time></trkpt><trkpt lat="45.341659636605065" lon="9.319103376573553"><ele>89.0</ele><time>2026-03-29T16:01:53Z</time></trkpt><trkpt lat="45.34180442284976" lon="9.318819506448907"><ele>89.5</ele><time>2026-03-29T16:01:54Z</time></trkpt><trkpt lat="45.34195645891284" lon="9.318551765127058"><ele>90.0</ele><time>2026-03-29T16:01:55Z</time></trkpt><trkpt lat="45.34210170363817" lon="9.318258138266978"><ele>91.0</ele><time>2026-03-29T16:01:56Z</time></trkpt><trkpt lat="45.34222786123839" lon="9.318009094215112"><ele>92.0</ele><time>2026-03-29T16:01:57Z</time></trkpt><trkpt lat="45.34234561627794" lon="9.317751471294368"><ele>93.0</ele><time>2026-03-29T16:01:58Z</time></trkpt><trkpt lat="45.342485895136946" lon="9.317486344709543"><ele>93.0</ele><time>2026-03-29T16:01:59Z</time></trkpt><trkpt lat="45.34264526478123" lon="9.317241707650709"><ele>93.0</ele><time>2026-03-29T16:02:00Z</time></trkpt><trkpt lat="45.34280195032147" lon="9.316997499783385"><ele>91.5</ele><time>2026-03-29T16:02:01Z</time></trkpt><trkpt lat="45.34295148703323" lon="9.316747872926948"><ele>90.0</ele><time>2026-03-29T16:02:02Z</time></trkpt><trkpt lat="45.34312721005962" lon="9.316493457844121"><ele>89.5</ele><time>2026-03-29T16:02:03Z</time></trkpt><trkpt lat="45.34330314099025" lon="9.316237836564648"><ele>89.0</ele><time>2026-03-29T16:02:04Z</time></trkpt><trkpt lat="45.34348555492422" lon="9.315988624066232"><ele>89.0</ele><time>2026-03-29T16:02:05Z</time></trkpt><trkpt lat="45.34365200238291" lon="9.315762819158888"><ele>89.0</ele><time>2026-03-29T16:02:06Z</time></trkpt><trkpt lat="45.34385449725843" lon="9.315492678413504"><ele>89.0</ele><time>2026-03-29T16:02:07Z</time></trkpt><trkpt lat="45.34405321636453" lon="9.315247138034419"><ele>89.0</ele><time>2026-03-29T16:02:08Z</time></trkpt><trkpt lat="45.344225769415665" lon="9.315008285894727"><ele>89.0</ele><time>2026-03-29T16:02:09Z</time></trkpt><trkpt lat="45.34440688116776" lon="9.314757367995629"><ele>89.0</ele><time>2026-03-29T16:02:10Z</time></trkpt><trkpt lat="45.34458214893527" lon="9.314508508429622"><ele>89.0</ele><time>2026-03-29T16:02:11Z</time></trkpt><trkpt lat="45.34475712142638" lon="9.314270876892937"><ele>89.0</ele><time>2026-03-29T16:02:12Z</time></trkpt><trkpt lat="45.344932861351076" lon="9.314035338603125"><ele>88.66666666666667</ele><time>2026-03-29T16:02:13Z</time></trkpt><trkpt lat="45.345075890578116" lon="9.313836757531273"><ele>88.33333333333333</ele><time>2026-03-29T16:02:14Z</time></trkpt><trkpt lat="45.345196833780705" lon="9.3136680004841"><ele>88.0</ele><time>2026-03-29T16:02:15Z</time></trkpt><trkpt lat="45.34530271528201" lon="9.313528178525177"><ele>88.0</ele><time>2026-03-29T16:02:16Z</time></trkpt><trkpt lat="45.34539190921211" lon="9.313412454337875"><ele>88.0</ele><time>2026-03-29T16:02:17Z</time></trkpt><trkpt lat="45.34547885610167" lon="9.313312729035465"><ele>88.0</ele><time>2026-03-29T16:02:18Z</time></trkpt><trkpt lat="45.34556000530886" lon="9.313237746337999"><ele>88.0</ele><time>2026-03-29T16:02:19Z</time></trkpt><trkpt lat="45.345635321549366" lon="9.313171530106967"><ele>88.0</ele><time>2026-03-29T16:02:20Z</time></trkpt><trkpt lat="45.345716787555915" lon="9.313108020530038"><ele>88.0</ele><time>2026-03-29T16:02:21Z</time></trkpt><trkpt lat="45.345797494615375" lon="9.313062803800484"><ele>88.0</ele><time>2026-03-29T16:02:22Z</time></trkpt><trkpt lat="45.345889822847504" lon="9.31301917569402"><ele>88.0</ele><time>2026-03-29T16:02:23Z</time></trkpt><trkpt lat="45.34596164506831" lon="9.312926995444727"><ele>88.0</ele><time>2026-03-29T16:02:24Z</time></trkpt><trkpt lat="45.34599013764748" lon="9.312785926417812"><ele>88.0</ele><time>2026-03-29T16:02:25Z</time></trkpt><trkpt lat="45.346049014828324" lon="9.312635314173187"><ele>88.0</ele><time>2026-03-29T16:02:26Z</time></trkpt><trkpt lat="45.34615155667433" lon="9.312510922213072"><ele>88.0</ele><time>2026-03-29T16:02:27Z</time></trkpt><trkpt lat="45.34622374676455" lon="9.312335835233851"><ele>88.0</ele><time>2026-03-29T16:02:28Z</time></trkpt><trkpt lat="45.34640107923151" lon="9.312206448640456"><ele>88.66666666666666</ele><time>2026-03-29T16:02:29Z</time></trkpt><trkpt lat="45.34654768521676" lon="9.312047080381625"><ele>89.33333333333333</ele><time>2026-03-29T16:02:30Z</time></trkpt><trkpt lat="45.34668065962964" lon="9.311897944809418"><ele>90.0</ele><time>2026-03-29T16:02:31Z</time></trkpt><trkpt lat="45.34679629089232" lon="9.31174541403624"><ele>90.0</ele><time>2026-03-29T16:02:32Z</time></trkpt><trkpt lat="45.34691464377596" lon="9.311580365534443"><ele>90.0</ele><time>2026-03-29T16:02:33Z</time></trkpt><trkpt lat="45.34701966959942" lon="9.31141234219009"><ele>90.0</ele><time>2026-03-29T16:02:34Z</time></trkpt><trkpt lat="45.34711702022058" lon="9.31123683352627"><ele>90.0</ele><time>2026-03-29T16:02:35Z</time></trkpt><trkpt lat="45.34722674430103" lon="9.311042578904244"><ele>90.0</ele><time>2026-03-29T16:02:36Z</time></trkpt><trkpt lat="45.34735014943415" lon="9.31078469114549"><ele>90.0</ele><time>2026-03-29T16:02:37Z</time></trkpt><trkpt lat="45.34745171590736" lon="9.310543546373216"><ele>90.0</ele><time>2026-03-29T16:02:38Z</time></trkpt><trkpt lat="45.347549135214926" lon="9.310269866830874"><ele>90.0</ele><time>2026-03-29T16:02:39Z</time></trkpt><trkpt lat="45.347628512668294" lon="9.310021855559594"><ele>90.0</ele><time>2026-03-29T16:02:40Z</time></trkpt><trkpt lat="45.34770470009141" lon="9.30974750825625"><ele>90.0</ele><time>2026-03-29T16:02:41Z</time></trkpt><trkpt lat="45.347766720223404" lon="9.309472034328603"><ele>90.0</ele><time>2026-03-29T16:02:42Z</time></trkpt><trkpt lat="45.34782406945533" lon="9.309188293112506"><ele>90.0</ele><time>2026-03-29T16:02:43Z</time></trkpt><trkpt lat="45.347879786273694" lon="9.30890841100574"><ele>89.66666666666667</ele><time>2026-03-29T16:02:43.999Z</time></trkpt><trkpt lat="45.34792743753387" lon="9.308654859429003"><ele>89.33333333333334</ele><time>2026-03-29T16:02:44.999Z</time></trkpt><trkpt lat="45.34798565854804" lon="9.30834020082028"><ele>89.0</ele><time>2026-03-29T16:02:45.999Z</time></trkpt><trkpt lat="45.34803994216619" lon="9.308059427650493"><ele>89.33333333333334</ele><time>2026-03-29T16:02:46.999Z</time></trkpt><trkpt lat="45.34809690878958" lon="9.307775898725586"><ele>89.66666666666667</ele><time>2026-03-29T16:02:47.999Z</time></trkpt><trkpt lat="45.34815486304877" lon="9.307492667338352"><ele>90.0</ele><time>2026-03-29T16:02:48.999Z</time></trkpt><trkpt lat="45.34821544814297" lon="9.307207120313874"><ele>89.66666666666667</ele><time>2026-03-29T16:02:49.999Z</time></trkpt><trkpt lat="45.34828027259278" lon="9.306928775719605"><ele>89.33333333333334</ele><time>2026-03-29T16:02:50.999Z</time></trkpt><trkpt lat="45.3483510531901" lon="9.306665540819386"><ele>89.0</ele><time>2026-03-29T16:02:51.999Z</time></trkpt><trkpt lat="45.348426215562995" lon="9.306399578819272"><ele>89.0</ele><time>2026-03-29T16:02:52.999Z</time></trkpt><trkpt lat="45.34850094809617" lon="9.306152986375372"><ele>89.0</ele><time>2026-03-29T16:02:53.999Z</time></trkpt><trkpt lat="45.34857552610755" lon="9.305947197580354"><ele>89.0</ele><time>2026-03-29T16:02:54.999Z</time></trkpt><trkpt lat="45.34864998588015" lon="9.305762706246508"><ele>89.0</ele><time>2026-03-29T16:02:55.999Z</time></trkpt><trkpt lat="45.34871760026977" lon="9.305601724576631"><ele>89.0</ele><time>2026-03-29T16:02:56.999Z</time></trkpt><trkpt lat="45.34878680873552" lon="9.305460498258157"><ele>89.0</ele><time>2026-03-29T16:02:57.999Z</time></trkpt><trkpt lat="45.34885380461491" lon="9.305312956527246"><ele>89.0</ele><time>2026-03-29T16:02:58.999Z</time></trkpt><trkpt lat="45.34891844951634" lon="9.305193272464921"><ele>89.33333333333334</ele><time>2026-03-29T16:02:59.999Z</time></trkpt><trkpt lat="45.34897790738349" lon="9.305083436391975"><ele>89.66666666666667</ele><time>2026-03-29T16:03:00.999Z</time></trkpt><trkpt lat="45.34903424741631" lon="9.305002698911041"><ele>90.0</ele><time>2026-03-29T16:03:01.999Z</time></trkpt><trkpt lat="45.349092194310096" lon="9.304924325758115"><ele>90.33333333333333</ele><time>2026-03-29T16:03:02.999Z</time></trkpt><trkpt lat="45.34914502011997" lon="9.304823345989888"><ele>90.66666666666666</ele><time>2026-03-29T16:03:03.999Z</time></trkpt><trkpt lat="45.34919328695796" lon="9.304759460568867"><ele>91.0</ele><time>2026-03-29T16:03:04.999Z</time></trkpt><trkpt lat="45.34929245401301" lon="9.304739990443117"><ele>91.16666666666666</ele><time>2026-03-29T16:03:05.999Z</time></trkpt><trkpt lat="45.349350345943506" lon="9.304667209584323"><ele>91.33333333333333</ele><time>2026-03-29T16:03:06.999Z</time></trkpt><trkpt lat="45.3493939713808" lon="9.304570648354032"><ele>91.5</ele><time>2026-03-29T16:03:07.999Z</time></trkpt><trkpt lat="45.34942177516609" lon="9.304448719971262"><ele>91.66666666666667</ele><time>2026-03-29T16:03:08.999Z</time></trkpt><trkpt lat="45.349449094564086" lon="9.30431758066979"><ele>91.83333333333334</ele><time>2026-03-29T16:03:09.999Z</time></trkpt><trkpt lat="45.34949235275753" lon="9.304185085988328"><ele>92.0</ele><time>2026-03-29T16:03:10.999Z</time></trkpt><trkpt lat="45.349545237018546" lon="9.304042988025016"><ele>91.66666666666667</ele><time>2026-03-29T16:03:11.999Z</time></trkpt><trkpt lat="45.34964388175369" lon="9.303904848023834"><ele>91.33333333333333</ele><time>2026-03-29T16:03:12.999Z</time></trkpt><trkpt lat="45.34975737744528" lon="9.303757196687666"><ele>91.0</ele><time>2026-03-29T16:03:13.999Z</time></trkpt><trkpt lat="45.34988037335911" lon="9.30359700835949"><ele>91.0</ele><time>2026-03-29T16:03:14.999Z</time></trkpt><trkpt lat="45.35001810724848" lon="9.303442443309091"><ele>91.0</ele><time>2026-03-29T16:03:15.999Z</time></trkpt><trkpt lat="45.35015919103323" lon="9.303269465571098"><ele>91.0</ele><time>2026-03-29T16:03:16.999Z</time></trkpt><trkpt lat="45.3503257775634" lon="9.303079177298722"><ele>91.0</ele><time>2026-03-29T16:03:17.999Z</time></trkpt><trkpt lat="45.35049957681705" lon="9.302895165573354"><ele>91.0</ele><time>2026-03-29T16:03:18.999Z</time></trkpt><trkpt lat="45.35066733149061" lon="9.30272427772435"><ele>91.0</ele><time>2026-03-29T16:03:19.999Z</time></trkpt><trkpt lat="45.350837709171444" lon="9.302562190328844"><ele>91.0</ele><time>2026-03-29T16:03:20.999Z</time></trkpt><trkpt lat="45.35101374627181" lon="9.302391103142952"><ele>91.0</ele><time>2026-03-29T16:03:21.999Z</time></trkpt><trkpt lat="45.351186904180246" lon="9.302204412449518"><ele>91.0</ele><time>2026-03-29T16:03:22.999Z</time></trkpt><trkpt lat="45.351332738407194" lon="9.30204869036112"><ele>90.0</ele><time>2026-03-29T16:03:23.999Z</time></trkpt><trkpt lat="45.3514953255109" lon="9.301891999820127"><ele>89.0</ele><time>2026-03-29T16:03:24.999Z</time></trkpt><trkpt lat="45.351649944446685" lon="9.301741520290513"><ele>88.0</ele><time>2026-03-29T16:03:25.999Z</time></trkpt><trkpt lat="45.35180223262454" lon="9.30160768397092"><ele>88.0</ele><time>2026-03-29T16:03:26.999Z</time></trkpt><trkpt lat="45.35192163596639" lon="9.301466975923628"><ele>88.0</ele><time>2026-03-29T16:03:27.999Z</time></trkpt><trkpt lat="45.352047482412644" lon="9.301339136471167"><ele>88.0</ele><time>2026-03-29T16:03:28.999Z</time></trkpt><trkpt lat="45.35217072218896" lon="9.301219530086385"><ele>88.66666666666666</ele><time>2026-03-29T16:03:29.999Z</time></trkpt><trkpt lat="45.35229625926466" lon="9.30108052850393"><ele>89.33333333333333</ele><time>2026-03-29T16:03:30.999Z</time></trkpt><trkpt lat="45.35244717154547" lon="9.300947358235694"><ele>90.0</ele><time>2026-03-29T16:03:31.999Z</time></trkpt><trkpt lat="45.352577961989674" lon="9.300806786517956"><ele>90.0</ele><time>2026-03-29T16:03:32.999Z</time></trkpt><trkpt lat="45.35268899727108" lon="9.300675320595106"><ele>90.0</ele><time>2026-03-29T16:03:33.999Z</time></trkpt><trkpt lat="45.352830230709195" lon="9.300549440994418"><ele>90.0</ele><time>2026-03-29T16:03:34.999Z</time></trkpt><trkpt lat="45.35295130885449" lon="9.300428061534271"><ele>90.2</ele><time>2026-03-29T16:03:35.999Z</time></trkpt><trkpt lat="45.35306116073256" lon="9.300320470225113"><ele>90.4</ele><time>2026-03-29T16:03:36.999Z</time></trkpt><trkpt lat="45.353160197287814" lon="9.300218297734675"><ele>90.6</ele><time>2026-03-29T16:03:37.999Z</time></trkpt><trkpt lat="45.35324124316107" lon="9.300138373629613"><ele>90.8</ele><time>2026-03-29T16:03:38.999Z</time></trkpt><trkpt lat="45.35331599892899" lon="9.300064797361113"><ele>91.0</ele><time>2026-03-29T16:03:39.999Z</time></trkpt><trkpt lat="45.35337800475641" lon="9.300002693088866"><ele>91.0</ele><time>2026-03-29T16:03:40.999Z</time></trkpt><trkpt lat="45.353436731687445" lon="9.299948382351058"><ele>91.0</ele><time>2026-03-29T16:03:41.999Z</time></trkpt><trkpt lat="45.35349639686531" lon="9.29989714444582"><ele>91.0</ele><time>2026-03-29T16:03:42.999Z</time></trkpt><trkpt lat="45.353572092572776" lon="9.29984940795029"><ele>91.0</ele><time>2026-03-29T16:03:44.999Z</time></trkpt><trkpt lat="45.35363822286383" lon="9.299820124914872"><ele>91.0</ele><time>2026-03-29T16:03:47.999Z</time></trkpt><trkpt lat="45.35374434514721" lon="9.299802256954663"><ele>91.0</ele><time>2026-03-29T16:03:54Z</time></trkpt><trkpt lat="45.35382965566856" lon="9.29979768109556"><ele>90.85714285714286</ele><time>2026-03-29T16:03:55Z</time></trkpt><trkpt lat="45.3538976276049" lon="9.299769834718903"><ele>90.71428571428572</ele><time>2026-03-29T16:03:56Z</time></trkpt><trkpt lat="45.35396751098555" lon="9.299714489881739"><ele>90.57142857142857</ele><time>2026-03-29T16:03:57Z</time></trkpt><trkpt lat="45.35401765556092" lon="9.2996396904746"><ele>90.42857142857143</ele><time>2026-03-29T16:03:58Z</time></trkpt><trkpt lat="45.35404295052915" lon="9.299544221124107"><ele>90.28571428571429</ele><time>2026-03-29T16:03:59Z</time></trkpt><trkpt lat="45.35403535302538" lon="9.299437979093186"><ele>90.14285714285714</ele><time>2026-03-29T16:04:00Z</time></trkpt><trkpt lat="45.354003842455256" lon="9.299347414262785"><ele>90.0</ele><time>2026-03-29T16:04:01Z</time></trkpt><trkpt lat="45.353948397871655" lon="9.299266214167822"><ele>90.0</ele><time>2026-03-29T16:04:02Z</time></trkpt><trkpt lat="45.353866356695086" lon="9.299191424657248"><ele>90.0</ele><time>2026-03-29T16:04:03Z</time></trkpt><trkpt lat="45.35377853830702" lon="9.29912162122994"><ele>90.0</ele><time>2026-03-29T16:04:04Z</time></trkpt><trkpt lat="45.353677821884894" lon="9.299036714500739"><ele>90.0</ele><time>2026-03-29T16:04:05Z</time></trkpt><trkpt lat="45.35358240453567" lon="9.298885100498241"><ele>90.0</ele><time>2026-03-29T16:04:06Z</time></trkpt><trkpt lat="45.35350252716061" lon="9.29871233955733"><ele>90.0</ele><time>2026-03-29T16:04:07Z</time></trkpt><trkpt lat="45.35342429331453" lon="9.29852620509801"><ele>90.0</ele><time>2026-03-29T16:04:08Z</time></trkpt><trkpt lat="45.35334470888458" lon="9.29832543733173"><ele>90.0</ele><time>2026-03-29T16:04:09Z</time></trkpt><trkpt lat="45.35326838533576" lon="9.298113321025939"><ele>90.0</ele><time>2026-03-29T16:04:10Z</time></trkpt><trkpt lat="45.353190205485895" lon="9.297899400446669"><ele>90.0</ele><time>2026-03-29T16:04:11Z</time></trkpt><trkpt lat="45.35311519684181" lon="9.297686713646515"><ele>90.0</ele><time>2026-03-29T16:04:12Z</time></trkpt><trkpt lat="45.35304230091363" lon="9.297472603609968"><ele>90.0</ele><time>2026-03-29T16:04:13Z</time></trkpt><trkpt lat="45.352961406267234" lon="9.297257888929753"><ele>90.0</ele><time>2026-03-29T16:04:14Z</time></trkpt><trkpt lat="45.35287247153047" lon="9.297035767380196"><ele>90.66666666666667</ele><time>2026-03-29T16:04:15Z</time></trkpt><trkpt lat="45.35280485484577" lon="9.296801934513029"><ele>91.33333333333334</ele><time>2026-03-29T16:04:16Z</time></trkpt><trkpt lat="45.35272375529814" lon="9.29656837608342"><ele>92.0</ele><time>2026-03-29T16:04:17Z</time></trkpt><trkpt lat="45.35264749643812" lon="9.296348758342594"><ele>92.0</ele><time>2026-03-29T16:04:18Z</time></trkpt><trkpt lat="45.35254856630025" lon="9.296102861314248"><ele>92.0</ele><time>2026-03-29T16:04:19Z</time></trkpt><trkpt lat="45.352464024535216" lon="9.295858422494435"><ele>92.0</ele><time>2026-03-29T16:04:20Z</time></trkpt><trkpt lat="45.35238008129662" lon="9.295617181798008"><ele>91.33333333333334</ele><time>2026-03-29T16:04:21Z</time></trkpt><trkpt lat="45.35229123051334" lon="9.295369106852448"><ele>90.66666666666667</ele><time>2026-03-29T16:04:22Z</time></trkpt><trkpt lat="45.35221977370402" lon="9.295154720651693"><ele>90.0</ele><time>2026-03-29T16:04:23Z</time></trkpt><trkpt lat="45.352145168976314" lon="9.294939737616247"><ele>89.66666666666667</ele><time>2026-03-29T16:04:24Z</time></trkpt><trkpt lat="45.352075750820084" lon="9.294712435234363"><ele>89.33333333333334</ele><time>2026-03-29T16:04:25Z</time></trkpt><trkpt lat="45.35201773874962" lon="9.294508211921901"><ele>89.0</ele><time>2026-03-29T16:04:26Z</time></trkpt><trkpt lat="45.35193877825905" lon="9.294281902244066"><ele>89.0</ele><time>2026-03-29T16:04:27Z</time></trkpt><trkpt lat="45.3518687715201" lon="9.294065104243266"><ele>89.0</ele><time>2026-03-29T16:04:28Z</time></trkpt><trkpt lat="45.35177574017498" lon="9.29383675402474"><ele>89.0</ele><time>2026-03-29T16:04:29Z</time></trkpt><trkpt lat="45.35169214458856" lon="9.293612565654673"><ele>89.33333333333334</ele><time>2026-03-29T16:04:30Z</time></trkpt><trkpt lat="45.351617540270055" lon="9.293384353825491"><ele>89.66666666666667</ele><time>2026-03-29T16:04:31Z</time></trkpt><trkpt lat="45.351538112498105" lon="9.293157286681001"><ele>90.0</ele><time>2026-03-29T16:04:32Z</time></trkpt><trkpt lat="45.35145408400197" lon="9.292923042217007"><ele>90.0</ele><time>2026-03-29T16:04:33Z</time></trkpt><trkpt lat="45.35137322941503" lon="9.292690993162804"><ele>90.0</ele><time>2026-03-29T16:04:34Z</time></trkpt><trkpt lat="45.35128915593084" lon="9.292450329689231"><ele>90.0</ele><time>2026-03-29T16:04:35Z</time></trkpt><trkpt lat="45.351207610399136" lon="9.292208795734982"><ele>89.66666666666667</ele><time>2026-03-29T16:04:36Z</time></trkpt><trkpt lat="45.35112172885459" lon="9.291976036910789"><ele>89.33333333333334</ele><time>2026-03-29T16:04:37Z</time></trkpt><trkpt lat="45.3510573909154" lon="9.29176199747969"><ele>89.0</ele><time>2026-03-29T16:04:38Z</time></trkpt><trkpt lat="45.35098705565672" lon="9.291567586909386"><ele>89.0</ele><time>2026-03-29T16:04:39Z</time></trkpt><trkpt lat="45.35091445831212" lon="9.291350180610358"><ele>89.0</ele><time>2026-03-29T16:04:40Z</time></trkpt><trkpt lat="45.350841867239616" lon="9.29112573958729"><ele>89.0</ele><time>2026-03-29T16:04:41Z</time></trkpt><trkpt lat="45.350751228132275" lon="9.290880523601276"><ele>89.0</ele><time>2026-03-29T16:04:42Z</time></trkpt><trkpt lat="45.35066209697179" lon="9.290628341471272"><ele>89.0</ele><time>2026-03-29T16:04:43Z</time></trkpt><trkpt lat="45.350573570897964" lon="9.290369880286361"><ele>89.0</ele><time>2026-03-29T16:04:44Z</time></trkpt><trkpt lat="45.3504837371234" lon="9.290119052467452"><ele>89.0</ele><time>2026-03-29T16:04:45Z</time></trkpt><trkpt lat="45.35040763796133" lon="9.289897318226554"><ele>89.0</ele><time>2026-03-29T16:04:46Z</time></trkpt><trkpt lat="45.350329636839085" lon="9.289681419073595"><ele>89.0</ele><time>2026-03-29T16:04:47Z</time></trkpt><trkpt lat="45.35025853224566" lon="9.289470071978375"><ele>89.0</ele><time>2026-03-29T16:04:48Z</time></trkpt><trkpt lat="45.350183128221744" lon="9.289255992973477"><ele>89.0</ele><time>2026-03-29T16:04:49Z</time></trkpt><trkpt lat="45.350116880748615" lon="9.28904145567533"><ele>89.0</ele><time>2026-03-29T16:04:50Z</time></trkpt><trkpt lat="45.35003028602333" lon="9.288820681477839"><ele>89.33333333333334</ele><time>2026-03-29T16:04:51Z</time></trkpt><trkpt lat="45.349954878473454" lon="9.288600139619017"><ele>89.66666666666667</ele><time>2026-03-29T16:04:52Z</time></trkpt><trkpt lat="45.34987675326177" lon="9.288383497103974"><ele>90.0</ele><time>2026-03-29T16:04:53Z</time></trkpt><trkpt lat="45.34980485497606" lon="9.288168526562167"><ele>90.33333333333333</ele><time>2026-03-29T16:04:54Z</time></trkpt><trkpt lat="45.349721508772504" lon="9.28797712489327"><ele>90.66666666666666</ele><time>2026-03-29T16:04:55Z</time></trkpt><trkpt lat="45.34966114959423" lon="9.28776452382523"><ele>91.0</ele><time>2026-03-29T16:04:55.999Z</time></trkpt><trkpt lat="45.34958630016375" lon="9.28755090817499"><ele>90.75</ele><time>2026-03-29T16:04:56.999Z</time></trkpt><trkpt lat="45.34950941318862" lon="9.287331583131245"><ele>90.5</ele><time>2026-03-29T16:04:57.999Z</time></trkpt><trkpt lat="45.34947463274945" lon="9.287235318761967"><ele>90.25</ele><time>2026-03-29T16:04:58.999Z</time></trkpt><trkpt lat="45.34941676967234" lon="9.287065914182618"><ele>90.0</ele><time>2026-03-29T16:04:59.999Z</time></trkpt><trkpt lat="45.34935474073262" lon="9.286889020955067"><ele>90.0</ele><time>2026-03-29T16:05:00.999Z</time></trkpt><trkpt lat="45.34928969652712" lon="9.286697203792057"><ele>90.0</ele><time>2026-03-29T16:05:01.999Z</time></trkpt><trkpt lat="45.34922378629418" lon="9.286510453674724"><ele>90.0</ele><time>2026-03-29T16:05:02.999Z</time></trkpt><trkpt lat="45.349156314332475" lon="9.28631678687084"><ele>90.0</ele><time>2026-03-29T16:05:03.999Z</time></trkpt><trkpt lat="45.34909110634083" lon="9.286119223029912"><ele>90.66666666666667</ele><time>2026-03-29T16:05:04.999Z</time></trkpt><trkpt lat="45.349022832714546" lon="9.285924501063063"><ele>91.33333333333334</ele><time>2026-03-29T16:05:05.999Z</time></trkpt><trkpt lat="45.348954950524195" lon="9.285731804264161"><ele>92.0</ele><time>2026-03-29T16:05:06.999Z</time></trkpt><trkpt lat="45.34888654522372" lon="9.285539429994612"><ele>92.25</ele><time>2026-03-29T16:05:07.999Z</time></trkpt><trkpt lat="45.34881999091469" lon="9.285344521495476"><ele>92.5</ele><time>2026-03-29T16:05:08.999Z</time></trkpt><trkpt lat="45.34875637215221" lon="9.285166972132084"><ele>92.75</ele><time>2026-03-29T16:05:09.999Z</time></trkpt><trkpt lat="45.34869712367421" lon="9.284993924783866"><ele>93.0</ele><time>2026-03-29T16:05:10.999Z</time></trkpt><trkpt lat="45.34863749270176" lon="9.284827664257916"><ele>92.75</ele><time>2026-03-29T16:05:11.999Z</time></trkpt><trkpt lat="45.34857491650279" lon="9.284660020507948"><ele>92.5</ele><time>2026-03-29T16:05:12.999Z</time></trkpt><trkpt lat="45.34852104872957" lon="9.284490438648751"><ele>92.25</ele><time>2026-03-29T16:05:13.999Z</time></trkpt><trkpt lat="45.34846477104883" lon="9.28433103120195"><ele>92.0</ele><time>2026-03-29T16:05:14.999Z</time></trkpt><trkpt lat="45.34840895104979" lon="9.284171298170534"><ele>92.0</ele><time>2026-03-29T16:05:15.999Z</time></trkpt><trkpt lat="45.34836792709775" lon="9.284085484339384"><ele>92.0</ele><time>2026-03-29T16:05:16.999Z</time></trkpt><trkpt lat="45.34831609237629" lon="9.283925087291836"><ele>92.0</ele><time>2026-03-29T16:05:17.999Z</time></trkpt><trkpt lat="45.34826727575412" lon="9.283781268578485"><ele>92.0</ele><time>2026-03-29T16:05:18.999Z</time></trkpt><trkpt lat="45.34822694538215" lon="9.283636760137172"><ele>92.0</ele><time>2026-03-29T16:05:19.999Z</time></trkpt><trkpt lat="45.34818668716363" lon="9.28349090255444"><ele>91.39999999999999</ele><time>2026-03-29T16:05:20.999Z</time></trkpt><trkpt lat="45.34814876404192" lon="9.283364413236397"><ele>90.8</ele><time>2026-03-29T16:05:21.999Z</time></trkpt><trkpt lat="45.348120607683924" lon="9.28325004358626"><ele>90.2</ele><time>2026-03-29T16:05:22.999Z</time></trkpt><trkpt lat="45.34808509453466" lon="9.283097938741015"><ele>89.6</ele><time>2026-03-29T16:05:23.999Z</time></trkpt><trkpt lat="45.34805658516987" lon="9.282944083433167"><ele>89.0</ele><time>2026-03-29T16:05:24.999Z</time></trkpt><trkpt lat="45.3480441689205" lon="9.28280343175737"><ele>89.0</ele><time>2026-03-29T16:05:25.999Z</time></trkpt><trkpt lat="45.3480533153895" lon="9.282637874339208"><ele>89.0</ele><time>2026-03-29T16:05:26.999Z</time></trkpt><trkpt lat="45.348058926380645" lon="9.282497190291975"><ele>89.0</ele><time>2026-03-29T16:05:27.999Z</time></trkpt><trkpt lat="45.34808567206451" lon="9.282341164577979"><ele>89.0</ele><time>2026-03-29T16:05:28.999Z</time></trkpt><trkpt lat="45.34806800790485" lon="9.282184568057428"><ele>89.0</ele><time>2026-03-29T16:05:29.999Z</time></trkpt><trkpt lat="45.34802759311274" lon="9.282035135415303"><ele>89.25</ele><time>2026-03-29T16:05:30.999Z</time></trkpt><trkpt lat="45.34796505940589" lon="9.281901246148951"><ele>89.5</ele><time>2026-03-29T16:05:31.999Z</time></trkpt><trkpt lat="45.347879087320145" lon="9.281784165132864"><ele>89.75</ele><time>2026-03-29T16:05:32.999Z</time></trkpt><trkpt lat="45.34778922699772" lon="9.281693094723924"><ele>90.0</ele><time>2026-03-29T16:05:33.999Z</time></trkpt><trkpt lat="45.34768779784716" lon="9.281596322994693"><ele>90.0</ele><time>2026-03-29T16:05:34.999Z</time></trkpt><trkpt lat="45.34758415018372" lon="9.281496038925496"><ele>90.0</ele><time>2026-03-29T16:05:35.999Z</time></trkpt><trkpt lat="45.347490877708935" lon="9.281379743463308"><ele>90.0</ele><time>2026-03-29T16:05:36.999Z</time></trkpt><trkpt lat="45.34740819832853" lon="9.281237437389116"><ele>90.0</ele><time>2026-03-29T16:05:37.999Z</time></trkpt><trkpt lat="45.34733672666932" lon="9.281074628158"><ele>90.0</ele><time>2026-03-29T16:05:38.999Z</time></trkpt><trkpt lat="45.34727206358207" lon="9.280914207803376"><ele>90.0</ele><time>2026-03-29T16:05:39.999Z</time></trkpt><trkpt lat="45.347214477345155" lon="9.280726569115343"><ele>90.0</ele><time>2026-03-29T16:05:40.999Z</time></trkpt><trkpt lat="45.34715282070813" lon="9.28057139211974"><ele>90.0</ele><time>2026-03-29T16:05:41.999Z</time></trkpt><trkpt lat="45.347103039277435" lon="9.280420443619873"><ele>90.0</ele><time>2026-03-29T16:05:42.999Z</time></trkpt><trkpt lat="45.34705788445018" lon="9.280288730941267"><ele>90.0</ele><time>2026-03-29T16:05:43.999Z</time></trkpt><trkpt lat="45.34701514077693" lon="9.280157683640578"><ele>90.0</ele><time>2026-03-29T16:05:44.999Z</time></trkpt><trkpt lat="45.34697325743731" lon="9.280027694992942"><ele>90.0</ele><time>2026-03-29T16:05:45.999Z</time></trkpt><trkpt lat="45.3469273593576" lon="9.279905779291244"><ele>90.0</ele><time>2026-03-29T16:05:46.999Z</time></trkpt><trkpt lat="45.34688205283057" lon="9.279780764450134"><ele>90.0</ele><time>2026-03-29T16:05:47.999Z</time></trkpt><trkpt lat="45.346838278784176" lon="9.279651239750716"><ele>90.0</ele><time>2026-03-29T16:05:48.999Z</time></trkpt><trkpt lat="45.346784812354194" lon="9.279521707737445"><ele>90.0</ele><time>2026-03-29T16:05:49.999Z</time></trkpt><trkpt lat="45.34673864423579" lon="9.279386386304997"><ele>90.0</ele><time>2026-03-29T16:05:50.999Z</time></trkpt><trkpt lat="45.34668590895245" lon="9.279243390512494"><ele>90.0</ele><time>2026-03-29T16:05:51.999Z</time></trkpt><trkpt lat="45.34663436634799" lon="9.279084149858463"><ele>90.0</ele><time>2026-03-29T16:05:52.999Z</time></trkpt><trkpt lat="45.34657756778356" lon="9.278917863572381"><ele>90.0</ele><time>2026-03-29T16:05:53.999Z</time></trkpt><trkpt lat="45.346521034399196" lon="9.278748554437565"><ele>90.0</ele><time>2026-03-29T16:05:54.999Z</time></trkpt><trkpt lat="45.34645809718851" lon="9.27856804791985"><ele>90.0</ele><time>2026-03-29T16:05:55.999Z</time></trkpt><trkpt lat="45.34639138477349" lon="9.278387215484893"><ele>89.75</ele><time>2026-03-29T16:05:57Z</time></trkpt><trkpt lat="45.346325887243424" lon="9.278200666858417"><ele>89.5</ele><time>2026-03-29T16:05:58Z</time></trkpt><trkpt lat="45.34626344155331" lon="9.278021079690546"><ele>89.25</ele><time>2026-03-29T16:05:59Z</time></trkpt><trkpt lat="45.34620963219498" lon="9.277858055292198"><ele>89.0</ele><time>2026-03-29T16:06:00Z</time></trkpt><trkpt lat="45.3461535643087" lon="9.277691324815663"><ele>89.0</ele><time>2026-03-29T16:06:01Z</time></trkpt><trkpt lat="45.34610861057128" lon="9.277532861055255"><ele>89.0</ele><time>2026-03-29T16:06:02Z</time></trkpt><trkpt lat="45.346044316830344" lon="9.277363890352568"><ele>89.0</ele><time>2026-03-29T16:06:03Z</time></trkpt><trkpt lat="45.345981190996135" lon="9.277186737458546"><ele>89.0</ele><time>2026-03-29T16:06:04Z</time></trkpt><trkpt lat="45.34591851895817" lon="9.277007014184477"><ele>89.0</ele><time>2026-03-29T16:06:05Z</time></trkpt><trkpt lat="45.34585240598242" lon="9.276816512293188"><ele>89.0</ele><time>2026-03-29T16:06:06Z</time></trkpt><trkpt lat="45.34578958580151" lon="9.276625195271173"><ele>89.0</ele><time>2026-03-29T16:06:07Z</time></trkpt><trkpt lat="45.3457221588922" lon="9.276435043915031"><ele>89.0</ele><time>2026-03-29T16:06:08Z</time></trkpt><trkpt lat="45.345645282440785" lon="9.276228002036408"><ele>89.0</ele><time>2026-03-29T16:06:09Z</time></trkpt><trkpt lat="45.34558559670748" lon="9.276044657488114"><ele>89.0</ele><time>2026-03-29T16:06:10Z</time></trkpt><trkpt lat="45.34551858387125" lon="9.275864531768095"><ele>89.0</ele><time>2026-03-29T16:06:11Z</time></trkpt><trkpt lat="45.34545582580592" lon="9.275678884509725"><ele>89.0</ele><time>2026-03-29T16:06:12Z</time></trkpt><trkpt lat="45.34539316554647" lon="9.275494858397344"><ele>89.5</ele><time>2026-03-29T16:06:13Z</time></trkpt><trkpt lat="45.34532728044087" lon="9.27531668065442"><ele>90.0</ele><time>2026-03-29T16:06:14Z</time></trkpt><trkpt lat="45.34526344140784" lon="9.27513753325799"><ele>90.5</ele><time>2026-03-29T16:06:15Z</time></trkpt><trkpt lat="45.345208057147026" lon="9.27496778386736"><ele>91.0</ele><time>2026-03-29T16:06:16Z</time></trkpt><trkpt lat="45.345146677855524" lon="9.27478880057879"><ele>91.5</ele><time>2026-03-29T16:06:17Z</time></trkpt><trkpt lat="45.345084912722314" lon="9.274614294964245"><ele>92.0</ele><time>2026-03-29T16:06:18Z</time></trkpt><trkpt lat="45.34502389657847" lon="9.274440881183912"><ele>92.5</ele><time>2026-03-29T16:06:19Z</time></trkpt><trkpt lat="45.34496540425921" lon="9.274266981530525"><ele>93.0</ele><time>2026-03-29T16:06:20Z</time></trkpt><trkpt lat="45.344905022513515" lon="9.274095196813793"><ele>92.75</ele><time>2026-03-29T16:06:21Z</time></trkpt><trkpt lat="45.34484566758062" lon="9.27392622002467"><ele>92.5</ele><time>2026-03-29T16:06:22Z</time></trkpt><trkpt lat="45.344782535203734" lon="9.273754213519442"><ele>92.25</ele><time>2026-03-29T16:06:23Z</time></trkpt><trkpt lat="45.34472237231317" lon="9.27358168463042"><ele>92.0</ele><time>2026-03-29T16:06:24Z</time></trkpt><trkpt lat="45.34466163876715" lon="9.273409514896102"><ele>91.75</ele><time>2026-03-29T16:06:25Z</time></trkpt><trkpt lat="45.344603910520895" lon="9.273233910204924"><ele>91.5</ele><time>2026-03-29T16:06:26Z</time></trkpt><trkpt lat="45.344539961376" lon="9.273056635498968"><ele>91.25</ele><time>2026-03-29T16:06:27Z</time></trkpt><trkpt lat="45.34447970291765" lon="9.272875612942334"><ele>91.0</ele><time>2026-03-29T16:06:28Z</time></trkpt><trkpt lat="45.344418373193406" lon="9.27269378571364"><ele>91.0</ele><time>2026-03-29T16:06:29Z</time></trkpt><trkpt lat="45.34435341396129" lon="9.272503943863464"><ele>91.0</ele><time>2026-03-29T16:06:30Z</time></trkpt><trkpt lat="45.344284482137496" lon="9.272318283148474"><ele>91.0</ele><time>2026-03-29T16:06:31Z</time></trkpt><trkpt lat="45.34421733824115" lon="9.272147923424964"><ele>91.0</ele><time>2026-03-29T16:06:32Z</time></trkpt><trkpt lat="45.34416317294295" lon="9.271982493074312"><ele>91.0</ele><time>2026-03-29T16:06:33Z</time></trkpt><trkpt lat="45.34410283792237" lon="9.271827032313276"><ele>91.0</ele><time>2026-03-29T16:06:34Z</time></trkpt><trkpt lat="45.34405807982522" lon="9.271664192008721"><ele>91.0</ele><time>2026-03-29T16:06:35Z</time></trkpt><trkpt lat="45.34401334912848" lon="9.271523401082469"><ele>91.0</ele><time>2026-03-29T16:06:36Z</time></trkpt><trkpt lat="45.34394514199703" lon="9.271357351687824"><ele>91.0</ele><time>2026-03-29T16:06:37Z</time></trkpt><trkpt lat="45.34392580629298" lon="9.271221408691071"><ele>91.0</ele><time>2026-03-29T16:06:38Z</time></trkpt><trkpt lat="45.34388974136592" lon="9.27109630675095"><ele>91.0</ele><time>2026-03-29T16:06:39Z</time></trkpt><trkpt lat="45.34382734106959" lon="9.270960273763428"><ele>91.0</ele><time>2026-03-29T16:06:40Z</time></trkpt><trkpt lat="45.34378249200682" lon="9.27082495310081"><ele>91.0</ele><time>2026-03-29T16:06:41Z</time></trkpt><trkpt lat="45.34374859811217" lon="9.270714226678882"><ele>91.0</ele><time>2026-03-29T16:06:42Z</time></trkpt><trkpt lat="45.34372420081068" lon="9.27063032924876"><ele>91.0</ele><time>2026-03-29T16:06:43Z</time></trkpt><trkpt lat="45.34369140834609" lon="9.270550020321846"><ele>91.0</ele><time>2026-03-29T16:06:44Z</time></trkpt><trkpt lat="45.34368509532823" lon="9.270415375672552"><ele>91.0</ele><time>2026-03-29T16:06:46Z</time></trkpt><trkpt lat="45.343699180878815" lon="9.270272209650384"><ele>91.0</ele><time>2026-03-29T16:06:48Z</time></trkpt><trkpt lat="45.34371238999115" lon="9.27015953841887"><ele>91.0</ele><time>2026-03-29T16:06:49Z</time></trkpt><trkpt lat="45.34369900095817" lon="9.270055803455062"><ele>91.0</ele><time>2026-03-29T16:06:50Z</time></trkpt><trkpt lat="45.34367827867608" lon="9.269968642166633"><ele>91.0</ele><time>2026-03-29T16:06:51Z</time></trkpt><trkpt lat="45.34363710683961" lon="9.269890634950428"><ele>91.0</ele><time>2026-03-29T16:06:52Z</time></trkpt><trkpt lat="45.34357390892416" lon="9.26982539046745"><ele>91.0</ele><time>2026-03-29T16:06:53Z</time></trkpt><trkpt lat="45.34350862712832" lon="9.269761107672743"><ele>91.0</ele><time>2026-03-29T16:06:54Z</time></trkpt><trkpt lat="45.34342881072028" lon="9.26968879301468"><ele>91.0</ele><time>2026-03-29T16:06:55Z</time></trkpt><trkpt lat="45.34337899802577" lon="9.269628680035304"><ele>91.25</ele><time>2026-03-29T16:06:55.999Z</time></trkpt><trkpt lat="45.34330784289635" lon="9.269487387940108"><ele>91.5</ele><time>2026-03-29T16:06:56.999Z</time></trkpt><trkpt lat="45.3432501928148" lon="9.269357212606383"><ele>91.75</ele><time>2026-03-29T16:06:57.999Z</time></trkpt><trkpt lat="45.34320115110724" lon="9.269209887036958"><ele>92.0</ele><time>2026-03-29T16:06:58.999Z</time></trkpt><trkpt lat="45.34315013340167" lon="9.269060258878506"><ele>91.5</ele><time>2026-03-29T16:06:59.999Z</time></trkpt><trkpt lat="45.343092217500235" lon="9.268896939162367"><ele>91.0</ele><time>2026-03-29T16:07:00.999Z</time></trkpt><trkpt lat="45.3430282304287" lon="9.268714956697226"><ele>90.5</ele><time>2026-03-29T16:07:01.999Z</time></trkpt><trkpt lat="45.34295539984782" lon="9.268531771480673"><ele>90.0</ele><time>2026-03-29T16:07:02.999Z</time></trkpt><trkpt lat="45.34289465642093" lon="9.268331480865797"><ele>90.0</ele><time>2026-03-29T16:07:03.999Z</time></trkpt><trkpt lat="45.34281899083067" lon="9.26811476400879"><ele>90.0</ele><time>2026-03-29T16:07:04.999Z</time></trkpt><trkpt lat="45.342747047903025" lon="9.2679144101646"><ele>90.0</ele><time>2026-03-29T16:07:05.999Z</time></trkpt><trkpt lat="45.3426688297208" lon="9.26770660297425"><ele>89.66666666666667</ele><time>2026-03-29T16:07:06.999Z</time></trkpt><trkpt lat="45.3426061814062" lon="9.267490135794144"><ele>89.33333333333334</ele><time>2026-03-29T16:07:07.999Z</time></trkpt><trkpt lat="45.34256307741256" lon="9.267215789894264"><ele>89.0</ele><time>2026-03-29T16:07:08.999Z</time></trkpt><trkpt lat="45.34249309523061" lon="9.266972115580488"><ele>89.0</ele><time>2026-03-29T16:07:09.999Z</time></trkpt><trkpt lat="45.342404004524624" lon="9.266716238670547"><ele>89.0</ele><time>2026-03-29T16:07:10.999Z</time></trkpt><trkpt lat="45.34232196141068" lon="9.266665258486094"><ele>89.0</ele><time>2026-03-29T16:07:11.999Z</time></trkpt><trkpt lat="45.34225411505694" lon="9.266465526652796"><ele>89.0</ele><time>2026-03-29T16:07:12.999Z</time></trkpt><trkpt lat="45.34218595281297" lon="9.266272750933757"><ele>89.0</ele><time>2026-03-29T16:07:13.999Z</time></trkpt><trkpt lat="45.34211825938884" lon="9.266085858111444"><ele>89.0</ele><time>2026-03-29T16:07:14.999Z</time></trkpt><trkpt lat="45.34205141952076" lon="9.265895642784706"><ele>89.0</ele><time>2026-03-29T16:07:15.999Z</time></trkpt><trkpt lat="45.34199809457635" lon="9.265720717145628"><ele>89.0</ele><time>2026-03-29T16:07:16.999Z</time></trkpt><trkpt lat="45.34193180122981" lon="9.265536239945835"><ele>89.66666666666667</ele><time>2026-03-29T16:07:17.999Z</time></trkpt><trkpt lat="45.341864365555665" lon="9.265347128367896"><ele>90.33333333333333</ele><time>2026-03-29T16:07:18.999Z</time></trkpt><trkpt lat="45.34179328469101" lon="9.265154523366418"><ele>91.0</ele><time>2026-03-29T16:07:19.999Z</time></trkpt><trkpt lat="45.34172871495496" lon="9.264960588188359"><ele>90.33333333333333</ele><time>2026-03-29T16:07:20.999Z</time></trkpt><trkpt lat="45.3416563887987" lon="9.264752724603138"><ele>89.66666666666667</ele><time>2026-03-29T16:07:21.999Z</time></trkpt><trkpt lat="45.34158841167424" lon="9.26455653323509"><ele>89.0</ele><time>2026-03-29T16:07:22.999Z</time></trkpt><trkpt lat="45.34151806596338" lon="9.264354926955018"><ele>89.0</ele><time>2026-03-29T16:07:23.999Z</time></trkpt><trkpt lat="45.341449657008575" lon="9.264151846828788"><ele>89.0</ele><time>2026-03-29T16:07:24.999Z</time></trkpt><trkpt lat="45.3413780054676" lon="9.263953858168056"><ele>89.0</ele><time>2026-03-29T16:07:25.999Z</time></trkpt><trkpt lat="45.34131324484396" lon="9.263763496267856"><ele>89.33333333333334</ele><time>2026-03-29T16:07:26.999Z</time></trkpt><trkpt lat="45.3412463668007" lon="9.263572307265344"><ele>89.66666666666667</ele><time>2026-03-29T16:07:27.999Z</time></trkpt><trkpt lat="45.34117867969528" lon="9.263376948145192"><ele>90.0</ele><time>2026-03-29T16:07:28.999Z</time></trkpt><trkpt lat="45.34111087746836" lon="9.26317987700506"><ele>89.66666666666667</ele><time>2026-03-29T16:07:29.999Z</time></trkpt><trkpt lat="45.341041377383014" lon="9.262982133142884"><ele>89.33333333333334</ele><time>2026-03-29T16:07:30.999Z</time></trkpt><trkpt lat="45.340972444987536" lon="9.262792990654566"><ele>89.0</ele><time>2026-03-29T16:07:31.999Z</time></trkpt><trkpt lat="45.34090272813487" lon="9.262595266253765"><ele>89.0</ele><time>2026-03-29T16:07:32.999Z</time></trkpt><trkpt lat="45.340840507105334" lon="9.26239948912457"><ele>89.0</ele><time>2026-03-29T16:07:33.999Z</time></trkpt><trkpt lat="45.3407685246403" lon="9.262202326091595"><ele>89.0</ele><time>2026-03-29T16:07:34.999Z</time></trkpt><trkpt lat="45.34069959548709" lon="9.262001066553621"><ele>89.0</ele><time>2026-03-29T16:07:35.999Z</time></trkpt><trkpt lat="45.34063829701802" lon="9.261810850109416"><ele>89.0</ele><time>2026-03-29T16:07:36.999Z</time></trkpt><trkpt lat="45.340562053539124" lon="9.261597346308367"><ele>89.0</ele><time>2026-03-29T16:07:37.999Z</time></trkpt><trkpt lat="45.340489934815785" lon="9.261394733608613"><ele>89.0</ele><time>2026-03-29T16:07:38.999Z</time></trkpt><trkpt lat="45.34041683209018" lon="9.261186584473009"><ele>89.0</ele><time>2026-03-29T16:07:39.999Z</time></trkpt><trkpt lat="45.34034388130522" lon="9.26097913588443"><ele>89.0</ele><time>2026-03-29T16:07:40.999Z</time></trkpt><trkpt lat="45.34026838392196" lon="9.260771814805677"><ele>89.33333333333334</ele><time>2026-03-29T16:07:41.999Z</time></trkpt><trkpt lat="45.34019477531378" lon="9.260555239095865"><ele>89.66666666666667</ele><time>2026-03-29T16:07:42.999Z</time></trkpt><trkpt lat="45.340123502436384" lon="9.260338979384764"><ele>90.0</ele><time>2026-03-29T16:07:43.999Z</time></trkpt><trkpt lat="45.34004929005541" lon="9.260122101308161"><ele>90.0</ele><time>2026-03-29T16:07:44.999Z</time></trkpt><trkpt lat="45.3399732475616" lon="9.25991678956641"><ele>90.0</ele><time>2026-03-29T16:07:45.999Z</time></trkpt><trkpt lat="45.33990155953397" lon="9.259718914752117"><ele>90.0</ele><time>2026-03-29T16:07:46.999Z</time></trkpt><trkpt lat="45.33983470054622" lon="9.259514635239624"><ele>90.33333333333333</ele><time>2026-03-29T16:07:47.999Z</time></trkpt><trkpt lat="45.33976332781545" lon="9.259308254706914"><ele>90.66666666666666</ele><time>2026-03-29T16:07:48.999Z</time></trkpt><trkpt lat="45.33968395078762" lon="9.259090809166821"><ele>91.0</ele><time>2026-03-29T16:07:49.999Z</time></trkpt><trkpt lat="45.33960678250395" lon="9.258870066392674"><ele>90.33333333333333</ele><time>2026-03-29T16:07:50.999Z</time></trkpt><trkpt lat="45.33953024802393" lon="9.258640840825647"><ele>89.66666666666667</ele><time>2026-03-29T16:07:51.999Z</time></trkpt><trkpt lat="45.33944941747518" lon="9.258411907035923"><ele>89.0</ele><time>2026-03-29T16:07:52.999Z</time></trkpt><trkpt lat="45.33936773526891" lon="9.258180370035117"><ele>89.0</ele><time>2026-03-29T16:07:53.999Z</time></trkpt><trkpt lat="45.339290591927856" lon="9.257953375685862"><ele>89.0</ele><time>2026-03-29T16:07:54.999Z</time></trkpt><trkpt lat="45.339209284198155" lon="9.25771466531318"><ele>89.0</ele><time>2026-03-29T16:07:55.999Z</time></trkpt><trkpt lat="45.339128102977526" lon="9.257490287256063"><ele>89.0</ele><time>2026-03-29T16:07:56.999Z</time></trkpt><trkpt lat="45.33905394263399" lon="9.257279971773933"><ele>89.0</ele><time>2026-03-29T16:07:57.999Z</time></trkpt><trkpt lat="45.33897728648803" lon="9.257069183754359"><ele>89.0</ele><time>2026-03-29T16:07:58.999Z</time></trkpt><trkpt lat="45.33891069802993" lon="9.256865871011307"><ele>89.25</ele><time>2026-03-29T16:07:59.999Z</time></trkpt><trkpt lat="45.338840113988525" lon="9.256690473592812"><ele>89.5</ele><time>2026-03-29T16:08:00.999Z</time></trkpt><trkpt lat="45.338780486400616" lon="9.256522955041024"><ele>89.75</ele><time>2026-03-29T16:08:01.999Z</time></trkpt><trkpt lat="45.33872065072772" lon="9.256342181043838"><ele>90.0</ele><time>2026-03-29T16:08:03Z</time></trkpt><trkpt lat="45.33866599642062" lon="9.256177165619992"><ele>90.0</ele><time>2026-03-29T16:08:04Z</time></trkpt><trkpt lat="45.33860197225327" lon="9.256007650196846"><ele>90.0</ele><time>2026-03-29T16:08:05Z</time></trkpt><trkpt lat="45.338543820670154" lon="9.255841587699226"><ele>90.0</ele><time>2026-03-29T16:08:06Z</time></trkpt><trkpt lat="45.33848268621245" lon="9.255670470164729"><ele>90.0</ele><time>2026-03-29T16:08:07Z</time></trkpt><trkpt lat="45.338423169876776" lon="9.255488837216166"><ele>90.0</ele><time>2026-03-29T16:08:08Z</time></trkpt><trkpt lat="45.33836939196992" lon="9.255323993002483"><ele>90.0</ele><time>2026-03-29T16:08:09Z</time></trkpt><trkpt lat="45.338312275652605" lon="9.25515959718552"><ele>90.0</ele><time>2026-03-29T16:08:10Z</time></trkpt><trkpt lat="45.33826242717728" lon="9.2550118701668"><ele>90.0</ele><time>2026-03-29T16:08:11Z</time></trkpt><trkpt lat="45.33820831150449" lon="9.254862808330007"><ele>90.0</ele><time>2026-03-29T16:08:12Z</time></trkpt><trkpt lat="45.33815991285623" lon="9.254707527765135"><ele>90.0</ele><time>2026-03-29T16:08:13Z</time></trkpt><trkpt lat="45.338106708522425" lon="9.25456191952051"><ele>90.0</ele><time>2026-03-29T16:08:14Z</time></trkpt><trkpt lat="45.33805538031457" lon="9.254415992636844"><ele>90.0</ele><time>2026-03-29T16:08:15Z</time></trkpt><trkpt lat="45.338006359108654" lon="9.2542668831454"><ele>90.0</ele><time>2026-03-29T16:08:16Z</time></trkpt><trkpt lat="45.33795536858751" lon="9.254116874716871"><ele>90.0</ele><time>2026-03-29T16:08:17Z</time></trkpt><trkpt lat="45.337909686235925" lon="9.253970211852344"><ele>90.0</ele><time>2026-03-29T16:08:18Z</time></trkpt><trkpt lat="45.33785443874611" lon="9.25382648278562"><ele>90.0</ele><time>2026-03-29T16:08:19Z</time></trkpt><trkpt lat="45.33780238808442" lon="9.253680992017367"><ele>90.0</ele><time>2026-03-29T16:08:20Z</time></trkpt><trkpt lat="45.33775263759507" lon="9.253532648357725"><ele>90.0</ele><time>2026-03-29T16:08:21Z</time></trkpt><trkpt lat="45.33769980851329" lon="9.253372888091306"><ele>90.0</ele><time>2026-03-29T16:08:22Z</time></trkpt><trkpt lat="45.33763999307143" lon="9.25320733035268"><ele>90.0</ele><time>2026-03-29T16:08:23Z</time></trkpt><trkpt lat="45.337581270011405" lon="9.253044019753144"><ele>90.0</ele><time>2026-03-29T16:08:24Z</time></trkpt><trkpt lat="45.33752225873112" lon="9.252878421163103"><ele>90.0</ele><time>2026-03-29T16:08:25Z</time></trkpt><trkpt lat="45.33746593721498" lon="9.252713370410182"><ele>90.0</ele><time>2026-03-29T16:08:26Z</time></trkpt><trkpt lat="45.337417231481815" lon="9.252549951085632"><ele>90.0</ele><time>2026-03-29T16:08:27Z</time></trkpt><trkpt lat="45.33736450184262" lon="9.252379187661136"><ele>90.25</ele><time>2026-03-29T16:08:28Z</time></trkpt><trkpt lat="45.33730653069903" lon="9.252211522002064"><ele>90.5</ele><time>2026-03-29T16:08:29Z</time></trkpt><trkpt lat="45.337236191514634" lon="9.252010824664463"><ele>90.75</ele><time>2026-03-29T16:08:30Z</time></trkpt><trkpt lat="45.337163859693966" lon="9.251830393457746"><ele>91.0</ele><time>2026-03-29T16:08:31Z</time></trkpt><trkpt lat="45.33711174776432" lon="9.251657119507799"><ele>90.75</ele><time>2026-03-29T16:08:32Z</time></trkpt><trkpt lat="45.33705755710435" lon="9.251503929352804"><ele>90.5</ele><time>2026-03-29T16:08:33Z</time></trkpt><trkpt lat="45.33700540838004" lon="9.251357874789258"><ele>90.25</ele><time>2026-03-29T16:08:34Z</time></trkpt><trkpt lat="45.33695448403686" lon="9.251221213548984"><ele>90.0</ele><time>2026-03-29T16:08:35Z</time></trkpt><trkpt lat="45.336909905246024" lon="9.251083379341553"><ele>90.0</ele><time>2026-03-29T16:08:36Z</time></trkpt><trkpt lat="45.33687179295323" lon="9.250967157410606"><ele>90.0</ele><time>2026-03-29T16:08:37Z</time></trkpt><trkpt lat="45.33683138346573" lon="9.25084740145438"><ele>90.0</ele><time>2026-03-29T16:08:38Z</time></trkpt><trkpt lat="45.33679371987148" lon="9.250746562686953"><ele>90.0</ele><time>2026-03-29T16:08:39Z</time></trkpt><trkpt lat="45.33675657925123" lon="9.250647910834049"><ele>90.0</ele><time>2026-03-29T16:08:40Z</time></trkpt><trkpt lat="45.336738671474144" lon="9.250553368119053"><ele>90.0</ele><time>2026-03-29T16:08:41Z</time></trkpt><trkpt lat="45.336686511179856" lon="9.250470247728948"><ele>90.33333333333333</ele><time>2026-03-29T16:08:42Z</time></trkpt><trkpt lat="45.33668688407911" lon="9.250378335287497"><ele>90.66666666666667</ele><time>2026-03-29T16:08:43Z</time></trkpt><trkpt lat="45.336662480663094" lon="9.25027019893855"><ele>91.0</ele><time>2026-03-29T16:08:46Z</time></trkpt><trkpt lat="45.33664171711671" lon="9.250149817912261"><ele>91.33333333333334</ele><time>2026-03-29T16:08:51Z</time></trkpt><trkpt lat="45.33663633013269" lon="9.250021188600222"><ele>91.66666666666667</ele><time>2026-03-29T16:08:53Z</time></trkpt><trkpt lat="45.33663540196042" lon="9.249897176402824"><ele>92.0</ele><time>2026-03-29T16:08:55Z</time></trkpt><trkpt lat="45.33662395516351" lon="9.249712765406878"><ele>92.39999999999999</ele><time>2026-03-29T16:08:57Z</time></trkpt><trkpt lat="45.33664162586576" lon="9.249594188249924"><ele>92.8</ele><time>2026-03-29T16:08:58Z</time></trkpt><trkpt lat="45.336701075882054" lon="9.249490941774724"><ele>93.2</ele><time>2026-03-29T16:08:59Z</time></trkpt><trkpt lat="45.33673174950249" lon="9.249371137408792"><ele>93.6</ele><time>2026-03-29T16:08:59.999Z</time></trkpt><trkpt lat="45.336781653300086" lon="9.249244520175843"><ele>94.0</ele><time>2026-03-29T16:09:00.999Z</time></trkpt><trkpt lat="45.33684601026833" lon="9.249113827024658"><ele>94.0</ele><time>2026-03-29T16:09:01.999Z</time></trkpt><trkpt lat="45.33693601284722" lon="9.248989300348605"><ele>94.0</ele><time>2026-03-29T16:09:02.999Z</time></trkpt><trkpt lat="45.337026257840485" lon="9.248879160339712"><ele>94.0</ele><time>2026-03-29T16:09:03.999Z</time></trkpt><trkpt lat="45.33713327316949" lon="9.24875523626617"><ele>94.0</ele><time>2026-03-29T16:09:04.999Z</time></trkpt><trkpt lat="45.33722347706159" lon="9.24864916722983"><ele>93.80000000000001</ele><time>2026-03-29T16:09:05.999Z</time></trkpt><trkpt lat="45.33729982247687" lon="9.24856218118337"><ele>93.60000000000001</ele><time>2026-03-29T16:09:06.999Z</time></trkpt><trkpt lat="45.337379137969535" lon="9.248469394684486"><ele>93.4</ele><time>2026-03-29T16:09:07.999Z</time></trkpt><trkpt lat="45.33746464725086" lon="9.248361226318599"><ele>93.2</ele><time>2026-03-29T16:09:08.999Z</time></trkpt><trkpt lat="45.337556891721434" lon="9.248257758120346"><ele>93.0</ele><time>2026-03-29T16:09:09.999Z</time></trkpt><trkpt lat="45.33763042880357" lon="9.24815259673484"><ele>93.0</ele><time>2026-03-29T16:09:10.999Z</time></trkpt><trkpt lat="45.33769968506525" lon="9.248062674755696"><ele>93.0</ele><time>2026-03-29T16:09:11.999Z</time></trkpt><trkpt lat="45.33778648244555" lon="9.247958711000944"><ele>93.0</ele><time>2026-03-29T16:09:12.999Z</time></trkpt><trkpt lat="45.33784349190717" lon="9.247821707415882"><ele>93.0</ele><time>2026-03-29T16:09:13.999Z</time></trkpt><trkpt lat="45.337966590966424" lon="9.247729134857652"><ele>93.0</ele><time>2026-03-29T16:09:14.999Z</time></trkpt><trkpt lat="45.33804249532461" lon="9.247627293605039"><ele>93.0</ele><time>2026-03-29T16:09:15.999Z</time></trkpt><trkpt lat="45.33813012725318" lon="9.247530905400088"><ele>93.0</ele><time>2026-03-29T16:09:16.999Z</time></trkpt><trkpt lat="45.33820565000775" lon="9.247433071708633"><ele>93.0</ele><time>2026-03-29T16:09:17.999Z</time></trkpt><trkpt lat="45.338288025560146" lon="9.247319285353045"><ele>93.0</ele><time>2026-03-29T16:09:18.999Z</time></trkpt><trkpt lat="45.33838699490713" lon="9.247202646152457"><ele>93.0</ele><time>2026-03-29T16:09:19.999Z</time></trkpt><trkpt lat="45.33849927259729" lon="9.247077817551906"><ele>93.0</ele><time>2026-03-29T16:09:20.999Z</time></trkpt><trkpt lat="45.33862514697562" lon="9.246929964537653"><ele>93.0</ele><time>2026-03-29T16:09:21.999Z</time></trkpt><trkpt lat="45.33875579047161" lon="9.246771221047881"><ele>93.33333333333333</ele><time>2026-03-29T16:09:22.999Z</time></trkpt><trkpt lat="45.33888456741888" lon="9.246622938453328"><ele>93.66666666666666</ele><time>2026-03-29T16:09:23.999Z</time></trkpt><trkpt lat="45.339015162764085" lon="9.246458684478426"><ele>94.0</ele><time>2026-03-29T16:09:24.999Z</time></trkpt><trkpt lat="45.33915053246998" lon="9.246302870248773"><ele>94.0</ele><time>2026-03-29T16:09:25.999Z</time></trkpt><trkpt lat="45.339280385010575" lon="9.246156691571278"><ele>94.0</ele><time>2026-03-29T16:09:26.999Z</time></trkpt><trkpt lat="45.33939836728617" lon="9.246016857201742"><ele>94.0</ele><time>2026-03-29T16:09:27.999Z</time></trkpt><trkpt lat="45.3395278981293" lon="9.245854058542955"><ele>94.0</ele><time>2026-03-29T16:09:28.999Z</time></trkpt><trkpt lat="45.33965997133273" lon="9.2457055436071"><ele>94.0</ele><time>2026-03-29T16:09:29.999Z</time></trkpt><trkpt lat="45.33979154086131" lon="9.245552642238462"><ele>94.0</ele><time>2026-03-29T16:09:30.999Z</time></trkpt><trkpt lat="45.33993969845505" lon="9.245381869097818"><ele>93.0</ele><time>2026-03-29T16:09:31.999Z</time></trkpt><trkpt lat="45.340088132173584" lon="9.245203535926338"><ele>92.0</ele><time>2026-03-29T16:09:32.999Z</time></trkpt><trkpt lat="45.340230367028376" lon="9.245029053017312"><ele>91.0</ele><time>2026-03-29T16:09:33.999Z</time></trkpt><trkpt lat="45.34037570887068" lon="9.244858637741185"><ele>91.0</ele><time>2026-03-29T16:09:34.999Z</time></trkpt><trkpt lat="45.34052729537524" lon="9.24469200432388"><ele>91.0</ele><time>2026-03-29T16:09:35.999Z</time></trkpt><trkpt lat="45.34067370524275" lon="9.244521191428918"><ele>91.0</ele><time>2026-03-29T16:09:36.999Z</time></trkpt><trkpt lat="45.34081815815786" lon="9.244352161439421"><ele>91.0</ele><time>2026-03-29T16:09:37.999Z</time></trkpt><trkpt lat="45.34096165983463" lon="9.244181697302523"><ele>91.0</ele><time>2026-03-29T16:09:38.999Z</time></trkpt><trkpt lat="45.34110592176122" lon="9.244014057668426"><ele>91.0</ele><time>2026-03-29T16:09:39.999Z</time></trkpt><trkpt lat="45.341250591507816" lon="9.243848953591405"><ele>91.0</ele><time>2026-03-29T16:09:40.999Z</time></trkpt><trkpt lat="45.34139480649003" lon="9.243687665813555"><ele>91.0</ele><time>2026-03-29T16:09:41.999Z</time></trkpt><trkpt lat="45.34153705442888" lon="9.243523720229623"><ele>91.0</ele><time>2026-03-29T16:09:42.999Z</time></trkpt><trkpt lat="45.34166893335461" lon="9.243365289641991"><ele>91.0</ele><time>2026-03-29T16:09:43.999Z</time></trkpt><trkpt lat="45.34181766808758" lon="9.243202198878404"><ele>91.0</ele><time>2026-03-29T16:09:44.999Z</time></trkpt><trkpt lat="45.341953442301595" lon="9.243060461028158"><ele>91.0</ele><time>2026-03-29T16:09:45.999Z</time></trkpt><trkpt lat="45.34207181144178" lon="9.242891132220565"><ele>91.0</ele><time>2026-03-29T16:09:46.999Z</time></trkpt><trkpt lat="45.342207875165506" lon="9.242747623631924"><ele>91.0</ele><time>2026-03-29T16:09:47.999Z</time></trkpt><trkpt lat="45.34233779899148" lon="9.242608060939972"><ele>91.0</ele><time>2026-03-29T16:09:48.999Z</time></trkpt><trkpt lat="45.34247991558606" lon="9.242444737440232"><ele>91.0</ele><time>2026-03-29T16:09:49.999Z</time></trkpt><trkpt lat="45.342614870334096" lon="9.242283287113827"><ele>91.0</ele><time>2026-03-29T16:09:50.999Z</time></trkpt><trkpt lat="45.34274853281083" lon="9.242121292087207"><ele>91.0</ele><time>2026-03-29T16:09:51.999Z</time></trkpt><trkpt lat="45.342882678856164" lon="9.241957428965295"><ele>91.0</ele><time>2026-03-29T16:09:52.999Z</time></trkpt><trkpt lat="45.343019844199965" lon="9.241788792074765"><ele>91.0</ele><time>2026-03-29T16:09:53.999Z</time></trkpt><trkpt lat="45.34317031851116" lon="9.241632514842937"><ele>91.0</ele><time>2026-03-29T16:09:54.999Z</time></trkpt><trkpt lat="45.34331312888621" lon="9.24147220534202"><ele>90.66666666666666</ele><time>2026-03-29T16:09:55.999Z</time></trkpt><trkpt lat="45.34345554379078" lon="9.24130979347118"><ele>90.33333333333333</ele><time>2026-03-29T16:09:56.999Z</time></trkpt><trkpt lat="45.34358827317703" lon="9.241132570042524"><ele>90.0</ele><time>2026-03-29T16:09:57.999Z</time></trkpt><trkpt lat="45.34371661584371" lon="9.24100379878696"><ele>90.0</ele><time>2026-03-29T16:09:58.999Z</time></trkpt><trkpt lat="45.3438228048457" lon="9.240880871244748"><ele>90.0</ele><time>2026-03-29T16:09:59.999Z</time></trkpt><trkpt lat="45.34392626284786" lon="9.24076155313507"><ele>90.0</ele><time>2026-03-29T16:10:00.999Z</time></trkpt><trkpt lat="45.344021711315456" lon="9.240651627855032"><ele>90.0</ele><time>2026-03-29T16:10:01.999Z</time></trkpt><trkpt lat="45.34425693018606" lon="9.240369689994939"><ele>90.33333333333333</ele><time>2026-03-29T16:10:02.999Z</time></trkpt><trkpt lat="45.34438993748756" lon="9.240223099218053"><ele>90.66666666666666</ele><time>2026-03-29T16:10:03.999Z</time></trkpt><trkpt lat="45.34454187873484" lon="9.24008893194199"><ele>91.0</ele><time>2026-03-29T16:10:04.999Z</time></trkpt><trkpt lat="45.34465929868133" lon="9.239925059124012"><ele>91.33333333333333</ele><time>2026-03-29T16:10:05.999Z</time></trkpt><trkpt lat="45.34480012207117" lon="9.239780569673574"><ele>91.66666666666667</ele><time>2026-03-29T16:10:06.999Z</time></trkpt><trkpt lat="45.34494034118208" lon="9.239639446414833"><ele>92.0</ele><time>2026-03-29T16:10:07.999Z</time></trkpt><trkpt lat="45.34508084244483" lon="9.239508047167782"><ele>92.0</ele><time>2026-03-29T16:10:09Z</time></trkpt><trkpt lat="45.34522504621596" lon="9.239367670051342"><ele>92.0</ele><time>2026-03-29T16:10:10Z</time></trkpt><trkpt lat="45.345369592150945" lon="9.239232551057166"><ele>92.0</ele><time>2026-03-29T16:10:11Z</time></trkpt><trkpt lat="45.345522146546955" lon="9.239102177368826"><ele>92.0</ele><time>2026-03-29T16:10:12Z</time></trkpt><trkpt lat="45.3456656432261" lon="9.238986344589144"><ele>92.0</ele><time>2026-03-29T16:10:13Z</time></trkpt><trkpt lat="45.345837933188314" lon="9.238879825423757"><ele>92.0</ele><time>2026-03-29T16:10:14Z</time></trkpt><trkpt lat="45.34599708066208" lon="9.238763018414234"><ele>92.0</ele><time>2026-03-29T16:10:15Z</time></trkpt><trkpt lat="45.34615955337574" lon="9.238650388467384"><ele>92.0</ele><time>2026-03-29T16:10:16Z</time></trkpt><trkpt lat="45.346312133693196" lon="9.238526302943066"><ele>92.0</ele><time>2026-03-29T16:10:17Z</time></trkpt><trkpt lat="45.34649373008383" lon="9.2384281106416"><ele>91.66666666666667</ele><time>2026-03-29T16:10:18Z</time></trkpt><trkpt lat="45.346621769255556" lon="9.238342819097568"><ele>91.33333333333333</ele><time>2026-03-29T16:10:19Z</time></trkpt><trkpt lat="45.34680420789185" lon="9.238266597503815"><ele>91.0</ele><time>2026-03-29T16:10:20Z</time></trkpt><trkpt lat="45.34694261231812" lon="9.23818244477483"><ele>91.0</ele><time>2026-03-29T16:10:21Z</time></trkpt><trkpt lat="45.34710942181601" lon="9.238091258213503"><ele>91.0</ele><time>2026-03-29T16:10:22Z</time></trkpt><trkpt lat="45.34727787732533" lon="9.238000483774341"><ele>91.0</ele><time>2026-03-29T16:10:23Z</time></trkpt><trkpt lat="45.34744724788161" lon="9.237920542549727"><ele>91.0</ele><time>2026-03-29T16:10:24Z</time></trkpt><trkpt lat="45.34759690547574" lon="9.23784556467013"><ele>91.0</ele><time>2026-03-29T16:10:25Z</time></trkpt><trkpt lat="45.34776026849132" lon="9.237789421119635"><ele>91.0</ele><time>2026-03-29T16:10:26Z</time></trkpt><trkpt lat="45.347902725999845" lon="9.237714067107147"><ele>91.33333333333333</ele><time>2026-03-29T16:10:27Z</time></trkpt><trkpt lat="45.34806419910592" lon="9.237634365981377"><ele>91.66666666666667</ele><time>2026-03-29T16:10:28Z</time></trkpt><trkpt lat="45.348203338238136" lon="9.23755437661589"><ele>92.0</ele><time>2026-03-29T16:10:29Z</time></trkpt><trkpt lat="45.34837501785328" lon="9.237472559768635"><ele>92.0</ele><time>2026-03-29T16:10:30Z</time></trkpt><trkpt lat="45.348544671828286" lon="9.237397225189918"><ele>92.0</ele><time>2026-03-29T16:10:31Z</time></trkpt><trkpt lat="45.348731313116524" lon="9.237300217766546"><ele>92.0</ele><time>2026-03-29T16:10:32Z</time></trkpt><trkpt lat="45.34891649211235" lon="9.23723961553348"><ele>92.0</ele><time>2026-03-29T16:10:33Z</time></trkpt><trkpt lat="45.34907144026146" lon="9.237152543758443"><ele>92.0</ele><time>2026-03-29T16:10:34Z</time></trkpt><trkpt lat="45.349241026305855" lon="9.237066779658416"><ele>92.0</ele><time>2026-03-29T16:10:35Z</time></trkpt><trkpt lat="45.349415547284664" lon="9.236985096675312"><ele>92.0</ele><time>2026-03-29T16:10:36Z</time></trkpt><trkpt lat="45.34959008665416" lon="9.236902102627969"><ele>92.0</ele><time>2026-03-29T16:10:37Z</time></trkpt><trkpt lat="45.34977154870856" lon="9.23680565407852"><ele>92.0</ele><time>2026-03-29T16:10:38Z</time></trkpt><trkpt lat="45.34994432875519" lon="9.236724134422916"><ele>92.0</ele><time>2026-03-29T16:10:39Z</time></trkpt><trkpt lat="45.350106257828166" lon="9.236638458281602"><ele>92.0</ele><time>2026-03-29T16:10:40Z</time></trkpt><trkpt lat="45.35027573009677" lon="9.236569453443956"><ele>92.0</ele><time>2026-03-29T16:10:41Z</time></trkpt><trkpt lat="45.350443718705776" lon="9.236490649218574"><ele>92.33333333333334</ele><time>2026-03-29T16:10:42Z</time></trkpt><trkpt lat="45.35061352182815" lon="9.236409703636268"><ele>92.66666666666667</ele><time>2026-03-29T16:10:43Z</time></trkpt><trkpt lat="45.350781606861425" lon="9.236330055785995"><ele>93.0</ele><time>2026-03-29T16:10:44Z</time></trkpt><trkpt lat="45.35095351040166" lon="9.23624767172449"><ele>93.0</ele><time>2026-03-29T16:10:45Z</time></trkpt><trkpt lat="45.35112097170244" lon="9.236160586909715"><ele>93.0</ele><time>2026-03-29T16:10:46Z</time></trkpt><trkpt lat="45.351290378558595" lon="9.236077712942922"><ele>93.0</ele><time>2026-03-29T16:10:47Z</time></trkpt><trkpt lat="45.35145658785316" lon="9.235994749173152"><ele>92.66666666666667</ele><time>2026-03-29T16:10:48Z</time></trkpt><trkpt lat="45.35161965394753" lon="9.235916296739665"><ele>92.33333333333334</ele><time>2026-03-29T16:10:49Z</time></trkpt><trkpt lat="45.351777779046664" lon="9.235841681576483"><ele>92.0</ele><time>2026-03-29T16:10:50Z</time></trkpt><trkpt lat="45.35193536849224" lon="9.23576790701323"><ele>92.0</ele><time>2026-03-29T16:10:51Z</time></trkpt><trkpt lat="45.352090581779734" lon="9.235691074837005"><ele>92.0</ele><time>2026-03-29T16:10:52Z</time></trkpt><trkpt lat="45.3522492807742" lon="9.235617123724202"><ele>92.0</ele><time>2026-03-29T16:10:53Z</time></trkpt><trkpt lat="45.35240406276993" lon="9.235543983146037"><ele>93.0</ele><time>2026-03-29T16:10:54Z</time></trkpt><trkpt lat="45.352565983774895" lon="9.235481858580586"><ele>94.0</ele><time>2026-03-29T16:10:55Z</time></trkpt><trkpt lat="45.352723641759255" lon="9.235380676314751"><ele>95.0</ele><time>2026-03-29T16:10:56Z</time></trkpt><trkpt lat="45.352891520219316" lon="9.235324686614604"><ele>94.0</ele><time>2026-03-29T16:10:57Z</time></trkpt><trkpt lat="45.35304316030666" lon="9.235251959087455"><ele>93.0</ele><time>2026-03-29T16:10:58Z</time></trkpt><trkpt lat="45.35321917499907" lon="9.235167541327815"><ele>92.0</ele><time>2026-03-29T16:10:59Z</time></trkpt><trkpt lat="45.353387835116976" lon="9.235086628996505"><ele>92.0</ele><time>2026-03-29T16:11:00Z</time></trkpt><trkpt lat="45.353552264468775" lon="9.23500694537274"><ele>92.0</ele><time>2026-03-29T16:11:01Z</time></trkpt><trkpt lat="45.35371095943486" lon="9.234930020392099"><ele>92.0</ele><time>2026-03-29T16:11:02Z</time></trkpt><trkpt lat="45.35387690965137" lon="9.23484956813876"><ele>92.66666666666667</ele><time>2026-03-29T16:11:03Z</time></trkpt><trkpt lat="45.354036314545425" lon="9.234772289111426"><ele>93.33333333333333</ele><time>2026-03-29T16:11:04Z</time></trkpt><trkpt lat="45.35419577786742" lon="9.23467113616063"><ele>94.0</ele><time>2026-03-29T16:11:05Z</time></trkpt><trkpt lat="45.35435128140238" lon="9.234601166002328"><ele>94.0</ele><time>2026-03-29T16:11:06Z</time></trkpt><trkpt lat="45.354494643616675" lon="9.234550639539291"><ele>94.0</ele><time>2026-03-29T16:11:07Z</time></trkpt><trkpt lat="45.354651031917285" lon="9.234475094005576"><ele>94.0</ele><time>2026-03-29T16:11:08Z</time></trkpt><trkpt lat="45.35480542294318" lon="9.234413747868125"><ele>94.0</ele><time>2026-03-29T16:11:08.999Z</time></trkpt><trkpt lat="45.35498284261773" lon="9.234306353145273"><ele>94.0</ele><time>2026-03-29T16:11:09.999Z</time></trkpt><trkpt lat="45.355149369762465" lon="9.234227849410251"><ele>94.0</ele><time>2026-03-29T16:11:10.999Z</time></trkpt><trkpt lat="45.35530155967484" lon="9.234149955972923"><ele>94.0</ele><time>2026-03-29T16:11:11.999Z</time></trkpt><trkpt lat="45.35546600208573" lon="9.234072362323845"><ele>94.0</ele><time>2026-03-29T16:11:12.999Z</time></trkpt><trkpt lat="45.35562038262083" lon="9.23400746017777"><ele>94.0</ele><time>2026-03-29T16:11:13.999Z</time></trkpt><trkpt lat="45.35577456539875" lon="9.233924932336881"><ele>94.33333333333333</ele><time>2026-03-29T16:11:14.999Z</time></trkpt><trkpt lat="45.355925563687116" lon="9.233852001818923"><ele>94.66666666666667</ele><time>2026-03-29T16:11:15.999Z</time></trkpt><trkpt lat="45.3560871963855" lon="9.233766083424568"><ele>95.0</ele><time>2026-03-29T16:11:16.999Z</time></trkpt><trkpt lat="45.35624699759852" lon="9.233686187047272"><ele>95.0</ele><time>2026-03-29T16:11:17.999Z</time></trkpt><trkpt lat="45.35640974678231" lon="9.23360558544132"><ele>95.0</ele><time>2026-03-29T16:11:18.999Z</time></trkpt><trkpt lat="45.35657531396571" lon="9.233522551472117"><ele>95.0</ele><time>2026-03-29T16:11:19.999Z</time></trkpt><trkpt lat="45.35675659501734" lon="9.233457693113634"><ele>95.0</ele><time>2026-03-29T16:11:20.999Z</time></trkpt><trkpt lat="45.356938519897454" lon="9.233369216840407"><ele>95.0</ele><time>2026-03-29T16:11:21.999Z</time></trkpt><trkpt lat="45.35712493343465" lon="9.23326041478258"><ele>95.0</ele><time>2026-03-29T16:11:22.999Z</time></trkpt><trkpt lat="45.35728687480946" lon="9.23322519316057"><ele>96.0</ele><time>2026-03-29T16:11:23.999Z</time></trkpt><trkpt lat="45.357515411587364" lon="9.233078294493989"><ele>97.0</ele><time>2026-03-29T16:11:24.999Z</time></trkpt><trkpt lat="45.357709932104505" lon="9.232979825093606"><ele>97.0</ele><time>2026-03-29T16:11:25.999Z</time></trkpt><trkpt lat="45.35791454114336" lon="9.232881711389657"><ele>97.0</ele><time>2026-03-29T16:11:26.999Z</time></trkpt><trkpt lat="45.35814620534124" lon="9.232768244482658"><ele>97.0</ele><time>2026-03-29T16:11:27.999Z</time></trkpt><trkpt lat="45.35838472236831" lon="9.232663467304867"><ele>97.0</ele><time>2026-03-29T16:11:28.999Z</time></trkpt><trkpt lat="45.35861071942039" lon="9.232563159008583"><ele>97.0</ele><time>2026-03-29T16:11:29.999Z</time></trkpt><trkpt lat="45.35883853739249" lon="9.232453995233731"><ele>97.0</ele><time>2026-03-29T16:11:30.999Z</time></trkpt><trkpt lat="45.359074093751396" lon="9.232334612331458"><ele>97.0</ele><time>2026-03-29T16:11:31.999Z</time></trkpt><trkpt lat="45.35930634043041" lon="9.232217026080635"><ele>97.0</ele><time>2026-03-29T16:11:32.999Z</time></trkpt><trkpt lat="45.35952058394421" lon="9.232117228480545"><ele>96.66666666666667</ele><time>2026-03-29T16:11:33.999Z</time></trkpt><trkpt lat="45.359734241642116" lon="9.232015117839952"><ele>96.33333333333334</ele><time>2026-03-29T16:11:34.999Z</time></trkpt><trkpt lat="45.35994121648834" lon="9.231914152326441"><ele>96.0</ele><time>2026-03-29T16:11:35.999Z</time></trkpt><trkpt lat="45.36014361067245" lon="9.231820769206013"><ele>96.0</ele><time>2026-03-29T16:11:36.999Z</time></trkpt><trkpt lat="45.360334105850576" lon="9.231734486558135"><ele>96.0</ele><time>2026-03-29T16:11:37.999Z</time></trkpt><trkpt lat="45.360499157911555" lon="9.231664648261582"><ele>96.0</ele><time>2026-03-29T16:11:38.999Z</time></trkpt><trkpt lat="45.36068848439684" lon="9.231552105335776"><ele>95.66666666666667</ele><time>2026-03-29T16:11:39.999Z</time></trkpt><trkpt lat="45.360872597993094" lon="9.231476158633455"><ele>95.33333333333334</ele><time>2026-03-29T16:11:40.999Z</time></trkpt><trkpt lat="45.361035175791145" lon="9.231391739746863"><ele>95.0</ele><time>2026-03-29T16:11:41.999Z</time></trkpt><trkpt lat="45.36120756060023" lon="9.231329967699654"><ele>95.0</ele><time>2026-03-29T16:11:42.999Z</time></trkpt><trkpt lat="45.36137470170861" lon="9.231250296819963"><ele>95.0</ele><time>2026-03-29T16:11:43.999Z</time></trkpt><trkpt lat="45.361543717281585" lon="9.231146141351157"><ele>95.0</ele><time>2026-03-29T16:11:44.999Z</time></trkpt><trkpt lat="45.361721858585" lon="9.231064140346218"><ele>95.0</ele><time>2026-03-29T16:11:45.999Z</time></trkpt><trkpt lat="45.361899722561375" lon="9.230992632388263"><ele>95.0</ele><time>2026-03-29T16:11:46.999Z</time></trkpt><trkpt lat="45.362076978112015" lon="9.230908608063919"><ele>95.0</ele><time>2026-03-29T16:11:47.999Z</time></trkpt><trkpt lat="45.36224654435013" lon="9.23083294961678"><ele>94.66666666666667</ele><time>2026-03-29T16:11:48.999Z</time></trkpt><trkpt lat="45.36242734446956" lon="9.230730051501894"><ele>94.33333333333333</ele><time>2026-03-29T16:11:49.999Z</time></trkpt><trkpt lat="45.36260685064352" lon="9.230643740629457"><ele>94.0</ele><time>2026-03-29T16:11:50.999Z</time></trkpt><trkpt lat="45.362785771782725" lon="9.230561740114165"><ele>94.0</ele><time>2026-03-29T16:11:51.999Z</time></trkpt><trkpt lat="45.362955236550356" lon="9.230480263562423"><ele>94.0</ele><time>2026-03-29T16:11:52.999Z</time></trkpt><trkpt lat="45.36311893275621" lon="9.230399383236861"><ele>94.0</ele><time>2026-03-29T16:11:53.999Z</time></trkpt><trkpt lat="45.36327610508802" lon="9.23032265855387"><ele>94.33333333333333</ele><time>2026-03-29T16:11:54.999Z</time></trkpt><trkpt lat="45.36342345473561" lon="9.230249444442983"><ele>94.66666666666667</ele><time>2026-03-29T16:11:55.999Z</time></trkpt><trkpt lat="45.36356626752039" lon="9.2301861127326"><ele>95.0</ele><time>2026-03-29T16:11:56.999Z</time></trkpt><trkpt lat="45.36370502116389" lon="9.230123566315543"><ele>95.0</ele><time>2026-03-29T16:11:57.999Z</time></trkpt><trkpt lat="45.363854510286025" lon="9.23005791466712"><ele>95.0</ele><time>2026-03-29T16:11:58.999Z</time></trkpt><trkpt lat="45.364005529895564" lon="9.229987886652143"><ele>95.0</ele><time>2026-03-29T16:11:59.999Z</time></trkpt><trkpt lat="45.364155919114474" lon="9.229916506579265"><ele>95.33333333333334</ele><time>2026-03-29T16:12:00.999Z</time></trkpt><trkpt lat="45.36430762374969" lon="9.229841744923226"><ele>95.66666666666667</ele><time>2026-03-29T16:12:01.999Z</time></trkpt><trkpt lat="45.36446955747933" lon="9.229761120950629"><ele>96.0</ele><time>2026-03-29T16:12:02.999Z</time></trkpt><trkpt lat="45.36463238416303" lon="9.229680472793067"><ele>96.0</ele><time>2026-03-29T16:12:03.999Z</time></trkpt><trkpt lat="45.364800107532076" lon="9.229605124646547"><ele>96.0</ele><time>2026-03-29T16:12:04.999Z</time></trkpt><trkpt lat="45.364968959886" lon="9.229525413690954"><ele>96.0</ele><time>2026-03-29T16:12:05.999Z</time></trkpt><trkpt lat="45.36513460787106" lon="9.229440413462147"><ele>96.0</ele><time>2026-03-29T16:12:06.999Z</time></trkpt><trkpt lat="45.36529997546609" lon="9.229356022602582"><ele>96.0</ele><time>2026-03-29T16:12:07.999Z</time></trkpt><trkpt lat="45.36545921525961" lon="9.229274112958597"><ele>96.0</ele><time>2026-03-29T16:12:08.999Z</time></trkpt><trkpt lat="45.365611423509996" lon="9.229205108367122"><ele>96.66666666666666</ele><time>2026-03-29T16:12:09.999Z</time></trkpt><trkpt lat="45.365755948217426" lon="9.229139385919716"><ele>97.33333333333333</ele><time>2026-03-29T16:12:10.999Z</time></trkpt><trkpt lat="45.36591042613638" lon="9.229068945455234"><ele>98.0</ele><time>2026-03-29T16:12:11.999Z</time></trkpt><trkpt lat="45.366060427485706" lon="9.228993237520747"><ele>98.33333333333333</ele><time>2026-03-29T16:12:12.999Z</time></trkpt><trkpt lat="45.366209387599916" lon="9.228920638724961"><ele>98.66666666666666</ele><time>2026-03-29T16:12:13.999Z</time></trkpt><trkpt lat="45.366370681853525" lon="9.228849595027182"><ele>99.0</ele><time>2026-03-29T16:12:15Z</time></trkpt><trkpt lat="45.3665386959509" lon="9.228766594133264"><ele>99.0</ele><time>2026-03-29T16:12:16Z</time></trkpt><trkpt lat="45.36669851626344" lon="9.228688378726094"><ele>99.0</ele><time>2026-03-29T16:12:17Z</time></trkpt><trkpt lat="45.36687549432748" lon="9.228614927013608"><ele>99.0</ele><time>2026-03-29T16:12:18Z</time></trkpt><trkpt lat="45.36704064758211" lon="9.228528836018251"><ele>98.66666666666666</ele><time>2026-03-29T16:12:19Z</time></trkpt><trkpt lat="45.367199595205356" lon="9.228451297752317"><ele>98.33333333333333</ele><time>2026-03-29T16:12:20Z</time></trkpt><trkpt lat="45.36736012092864" lon="9.228377489309555"><ele>98.0</ele><time>2026-03-29T16:12:21Z</time></trkpt><trkpt lat="45.36751747065049" lon="9.228302973716543"><ele>98.0</ele><time>2026-03-29T16:12:22Z</time></trkpt><trkpt lat="45.36767331996762" lon="9.228226216012217"><ele>98.0</ele><time>2026-03-29T16:12:23Z</time></trkpt><trkpt lat="45.36783326261942" lon="9.228147271388305"><ele>98.0</ele><time>2026-03-29T16:12:24Z</time></trkpt><trkpt lat="45.367994958604775" lon="9.228074079782278"><ele>98.33333333333333</ele><time>2026-03-29T16:12:25Z</time></trkpt><trkpt lat="45.368154666371304" lon="9.22799485193135"><ele>98.66666666666666</ele><time>2026-03-29T16:12:26Z</time></trkpt><trkpt lat="45.36831303453857" lon="9.227908023089496"><ele>99.0</ele><time>2026-03-29T16:12:27Z</time></trkpt><trkpt lat="45.36847417620443" lon="9.227839294724582"><ele>99.0</ele><time>2026-03-29T16:12:28Z</time></trkpt><trkpt lat="45.3686370277278" lon="9.227769178422434"><ele>99.0</ele><time>2026-03-29T16:12:29Z</time></trkpt><trkpt lat="45.36879894223085" lon="9.227696882355845"><ele>99.0</ele><time>2026-03-29T16:12:30Z</time></trkpt><trkpt lat="45.36896297182393" lon="9.227640791146372"><ele>99.0</ele><time>2026-03-29T16:12:31Z</time></trkpt><trkpt lat="45.36912499740982" lon="9.227593450861264"><ele>99.0</ele><time>2026-03-29T16:12:32Z</time></trkpt><trkpt lat="45.369288328813894" lon="9.227551568034098"><ele>99.0</ele><time>2026-03-29T16:12:33Z</time></trkpt><trkpt lat="45.36943859825898" lon="9.227519728871913"><ele>99.0</ele><time>2026-03-29T16:12:34Z</time></trkpt><trkpt lat="45.36957984286235" lon="9.227494409514975"><ele>99.0</ele><time>2026-03-29T16:12:35Z</time></trkpt><trkpt lat="45.369724278536985" lon="9.227469954045244"><ele>99.0</ele><time>2026-03-29T16:12:36Z</time></trkpt><trkpt lat="45.369882068865124" lon="9.227462262561415"><ele>99.0</ele><time>2026-03-29T16:12:37Z</time></trkpt><trkpt lat="45.37003893818092" lon="9.227449429154754"><ele>99.0</ele><time>2026-03-29T16:12:38Z</time></trkpt><trkpt lat="45.37019619270458" lon="9.227437313899651"><ele>99.0</ele><time>2026-03-29T16:12:39Z</time></trkpt><trkpt lat="45.370351989580826" lon="9.227426070715453"><ele>99.0</ele><time>2026-03-29T16:12:40Z</time></trkpt><trkpt lat="45.370506346984754" lon="9.227415295704992"><ele>98.75</ele><time>2026-03-29T16:12:41Z</time></trkpt><trkpt lat="45.37064883105078" lon="9.227403398747585"><ele>98.5</ele><time>2026-03-29T16:12:42Z</time></trkpt><trkpt lat="45.370781665189064" lon="9.227401120366283"><ele>98.25</ele><time>2026-03-29T16:12:43Z</time></trkpt><trkpt lat="45.37091587960487" lon="9.22739552493609"><ele>98.0</ele><time>2026-03-29T16:12:44Z</time></trkpt><trkpt lat="45.37103873445169" lon="9.227382643071854"><ele>98.0</ele><time>2026-03-29T16:12:45Z</time></trkpt><trkpt lat="45.37117199995844" lon="9.227375324067399"><ele>98.0</ele><time>2026-03-29T16:12:46Z</time></trkpt><trkpt lat="45.37130838090385" lon="9.227367923980816"><ele>98.0</ele><time>2026-03-29T16:12:47Z</time></trkpt><trkpt lat="45.3714503914248" lon="9.227356410265854"><ele>98.0</ele><time>2026-03-29T16:12:48Z</time></trkpt><trkpt lat="45.37160044037605" lon="9.227348847302082"><ele>98.33333333333333</ele><time>2026-03-29T16:12:49Z</time></trkpt><trkpt lat="45.37174508862278" lon="9.227336958565262"><ele>98.66666666666666</ele><time>2026-03-29T16:12:50Z</time></trkpt><trkpt lat="45.37190308097588" lon="9.227325743104034"><ele>99.0</ele><time>2026-03-29T16:12:51Z</time></trkpt><trkpt lat="45.372063842904026" lon="9.227317471630192"><ele>98.66666666666666</ele><time>2026-03-29T16:12:52Z</time></trkpt><trkpt lat="45.3722255324829" lon="9.227296974960495"><ele>98.33333333333333</ele><time>2026-03-29T16:12:53Z</time></trkpt><trkpt lat="45.3723875791436" lon="9.227285296694435"><ele>98.0</ele><time>2026-03-29T16:12:54Z</time></trkpt><trkpt lat="45.372547412521236" lon="9.227272695114946"><ele>98.0</ele><time>2026-03-29T16:12:55Z</time></trkpt><trkpt lat="45.37270300915164" lon="9.227265691361657"><ele>98.0</ele><time>2026-03-29T16:12:56Z</time></trkpt><trkpt lat="45.37284092387357" lon="9.22725418829402"><ele>98.0</ele><time>2026-03-29T16:12:57Z</time></trkpt><trkpt lat="45.3729854337778" lon="9.227248871947479"><ele>98.0</ele><time>2026-03-29T16:12:58Z</time></trkpt><trkpt lat="45.37312917579195" lon="9.227245115449827"><ele>99.0</ele><time>2026-03-29T16:12:59Z</time></trkpt><trkpt lat="45.373295759570105" lon="9.227245982691873"><ele>100.0</ele><time>2026-03-29T16:13:00Z</time></trkpt><trkpt lat="45.373463451726025" lon="9.227249890748398"><ele>101.0</ele><time>2026-03-29T16:13:01Z</time></trkpt><trkpt lat="45.37362836631082" lon="9.227255480388836"><ele>101.0</ele><time>2026-03-29T16:13:02Z</time></trkpt><trkpt lat="45.37379101868252" lon="9.227263657399336"><ele>101.0</ele><time>2026-03-29T16:13:03Z</time></trkpt><trkpt lat="45.37395708952195" lon="9.227275259614256"><ele>101.0</ele><time>2026-03-29T16:13:04Z</time></trkpt><trkpt lat="45.37414815578475" lon="9.227269005860752"><ele>100.66666666666666</ele><time>2026-03-29T16:13:05Z</time></trkpt><trkpt lat="45.374335171410216" lon="9.227267886268955"><ele>100.33333333333334</ele><time>2026-03-29T16:13:06Z</time></trkpt><trkpt lat="45.37451919451873" lon="9.227240840133838"><ele>100.0</ele><time>2026-03-29T16:13:07Z</time></trkpt><trkpt lat="45.37469924512887" lon="9.227236480502375"><ele>100.0</ele><time>2026-03-29T16:13:08Z</time></trkpt><trkpt lat="45.37487237917485" lon="9.227216942930864"><ele>100.0</ele><time>2026-03-29T16:13:09Z</time></trkpt><trkpt lat="45.375044691019326" lon="9.227201756381458"><ele>100.0</ele><time>2026-03-29T16:13:10Z</time></trkpt><trkpt lat="45.375220630798616" lon="9.227193674735984"><ele>100.0</ele><time>2026-03-29T16:13:11Z</time></trkpt><trkpt lat="45.375396481321985" lon="9.227182054451923"><ele>100.0</ele><time>2026-03-29T16:13:12Z</time></trkpt><trkpt lat="45.37557046916144" lon="9.227175372249086"><ele>100.0</ele><time>2026-03-29T16:13:13Z</time></trkpt><trkpt lat="45.37575512597002" lon="9.227166741492088"><ele>100.0</ele><time>2026-03-29T16:13:14Z</time></trkpt><trkpt lat="45.37592601622175" lon="9.227158832883838"><ele>100.0</ele><time>2026-03-29T16:13:15Z</time></trkpt><trkpt lat="45.376096551313445" lon="9.227143871666128"><ele>100.0</ele><time>2026-03-29T16:13:16Z</time></trkpt><trkpt lat="45.37626643751142" lon="9.227133677018035"><ele>100.0</ele><time>2026-03-29T16:13:17Z</time></trkpt><trkpt lat="45.37643327910194" lon="9.227130172017379"><ele>100.0</ele><time>2026-03-29T16:13:18Z</time></trkpt><trkpt lat="45.376603673663226" lon="9.22711856879885"><ele>100.0</ele><time>2026-03-29T16:13:19Z</time></trkpt><trkpt lat="45.376776420133936" lon="9.227103191628338"><ele>100.0</ele><time>2026-03-29T16:13:20Z</time></trkpt><trkpt lat="45.376943756428304" lon="9.227065732145107"><ele>100.0</ele><time>2026-03-29T16:13:21Z</time></trkpt><trkpt lat="45.377110358634994" lon="9.227031114837931"><ele>100.0</ele><time>2026-03-29T16:13:22Z</time></trkpt><trkpt lat="45.377279965848" lon="9.226987652165885"><ele>99.66666666666667</ele><time>2026-03-29T16:13:22.999Z</time></trkpt><trkpt lat="45.377443898415045" lon="9.226935994400991"><ele>99.33333333333334</ele><time>2026-03-29T16:13:23.999Z</time></trkpt><trkpt lat="45.37760575346122" lon="9.226878500814994"><ele>99.0</ele><time>2026-03-29T16:13:24.999Z</time></trkpt><trkpt lat="45.377760484386435" lon="9.2268130333168"><ele>99.0</ele><time>2026-03-29T16:13:25.999Z</time></trkpt><trkpt lat="45.37792011444825" lon="9.226736994471255"><ele>99.0</ele><time>2026-03-29T16:13:26.999Z</time></trkpt><trkpt lat="45.37807751431269" lon="9.226665414149675"><ele>99.0</ele><time>2026-03-29T16:13:27.999Z</time></trkpt><trkpt lat="45.378223635589045" lon="9.226582945036482"><ele>99.33333333333334</ele><time>2026-03-29T16:13:28.999Z</time></trkpt><trkpt lat="45.378371459677965" lon="9.226493989033624"><ele>99.66666666666667</ele><time>2026-03-29T16:13:29.999Z</time></trkpt><trkpt lat="45.37853255105577" lon="9.226399538328833"><ele>100.0</ele><time>2026-03-29T16:13:30.999Z</time></trkpt><trkpt lat="45.378707764593536" lon="9.226273905667668"><ele>99.66666666666667</ele><time>2026-03-29T16:13:31.999Z</time></trkpt><trkpt lat="45.378883550767" lon="9.226130647379964"><ele>99.33333333333334</ele><time>2026-03-29T16:13:32.999Z</time></trkpt><trkpt lat="45.37906284909083" lon="9.225978133100835"><ele>99.0</ele><time>2026-03-29T16:13:33.999Z</time></trkpt><trkpt lat="45.37922718400054" lon="9.225814799007667"><ele>99.0</ele><time>2026-03-29T16:13:34.999Z</time></trkpt><trkpt lat="45.37939359219676" lon="9.225649190577732"><ele>99.0</ele><time>2026-03-29T16:13:35.999Z</time></trkpt><trkpt lat="45.379566065297354" lon="9.22546322289281"><ele>99.0</ele><time>2026-03-29T16:13:36.999Z</time></trkpt><trkpt lat="45.379734562524106" lon="9.225267201401968"><ele>99.0</ele><time>2026-03-29T16:13:37.999Z</time></trkpt><trkpt lat="45.37989968109186" lon="9.225055767309557"><ele>99.0</ele><time>2026-03-29T16:13:38.999Z</time></trkpt><trkpt lat="45.380057570909045" lon="9.224839443531925"><ele>99.0</ele><time>2026-03-29T16:13:39.999Z</time></trkpt><trkpt lat="45.38020848337641" lon="9.224611814352762"><ele>99.0</ele><time>2026-03-29T16:13:40.999Z</time></trkpt><trkpt lat="45.38035018894781" lon="9.224373795414246"><ele>99.0</ele><time>2026-03-29T16:13:41.999Z</time></trkpt><trkpt lat="45.38048411526832" lon="9.224126287494471"><ele>99.0</ele><time>2026-03-29T16:13:42.999Z</time></trkpt><trkpt lat="45.38060341687208" lon="9.223868632110314"><ele>99.33333333333334</ele><time>2026-03-29T16:13:43.999Z</time></trkpt><trkpt lat="45.3807174381494" lon="9.223624173218804"><ele>99.66666666666667</ele><time>2026-03-29T16:13:44.999Z</time></trkpt><trkpt lat="45.38081707028964" lon="9.223386534623366"><ele>100.0</ele><time>2026-03-29T16:13:45.999Z</time></trkpt><trkpt lat="45.38091423868097" lon="9.223164018908935"><ele>99.33333333333334</ele><time>2026-03-29T16:13:46.999Z</time></trkpt><trkpt lat="45.38101281613426" lon="9.22293513932323"><ele>98.66666666666666</ele><time>2026-03-29T16:13:47.999Z</time></trkpt><trkpt lat="45.38110331860762" lon="9.222716194446104"><ele>98.0</ele><time>2026-03-29T16:13:48.999Z</time></trkpt><trkpt lat="45.381200182878786" lon="9.222512793370836"><ele>97.0</ele><time>2026-03-29T16:13:49.999Z</time></trkpt><trkpt lat="45.3813007668346" lon="9.222279903429518"><ele>96.0</ele><time>2026-03-29T16:13:50.999Z</time></trkpt><trkpt lat="45.38141095544246" lon="9.222062389154765"><ele>95.0</ele><time>2026-03-29T16:13:51.999Z</time></trkpt><trkpt lat="45.38149654749852" lon="9.221825264703481"><ele>94.66666666666667</ele><time>2026-03-29T16:13:52.999Z</time></trkpt><trkpt lat="45.38158939023069" lon="9.221611348701108"><ele>94.33333333333333</ele><time>2026-03-29T16:13:53.999Z</time></trkpt><trkpt lat="45.381683432968885" lon="9.221379817309998"><ele>94.0</ele><time>2026-03-29T16:13:54.999Z</time></trkpt><trkpt lat="45.38177582778281" lon="9.221162832965542"><ele>95.0</ele><time>2026-03-29T16:13:55.999Z</time></trkpt><trkpt lat="45.381869408006914" lon="9.220949462941954"><ele>96.0</ele><time>2026-03-29T16:13:56.999Z</time></trkpt><trkpt lat="45.3819606933513" lon="9.220742870061427"><ele>97.0</ele><time>2026-03-29T16:13:57.999Z</time></trkpt><trkpt lat="45.382049982712715" lon="9.22053148711313"><ele>97.33333333333334</ele><time>2026-03-29T16:13:58.999Z</time></trkpt><trkpt lat="45.382139772537215" lon="9.220321552297847"><ele>97.66666666666666</ele><time>2026-03-29T16:13:59.999Z</time></trkpt><trkpt lat="45.38222824574606" lon="9.2201195811126"><ele>98.0</ele><time>2026-03-29T16:14:00.999Z</time></trkpt><trkpt lat="45.382314286711065" lon="9.219919508180737"><ele>98.0</ele><time>2026-03-29T16:14:01.999Z</time></trkpt><trkpt lat="45.38239824343163" lon="9.219729680435712"><ele>98.0</ele><time>2026-03-29T16:14:02.999Z</time></trkpt><trkpt lat="45.38248630297179" lon="9.219542664938206"><ele>98.0</ele><time>2026-03-29T16:14:03.999Z</time></trkpt><trkpt lat="45.38256564280433" lon="9.219334274975164"><ele>98.0</ele><time>2026-03-29T16:14:04.999Z</time></trkpt><trkpt lat="45.382653993705816" lon="9.219136360445079"><ele>98.0</ele><time>2026-03-29T16:14:05.999Z</time></trkpt><trkpt lat="45.38273642373827" lon="9.218935560857933"><ele>98.0</ele><time>2026-03-29T16:14:06.999Z</time></trkpt><trkpt lat="45.382820202356385" lon="9.218734456614296"><ele>98.0</ele><time>2026-03-29T16:14:07.999Z</time></trkpt><trkpt lat="45.38291111729616" lon="9.218539619622705"><ele>98.0</ele><time>2026-03-29T16:14:08.999Z</time></trkpt><trkpt lat="45.38299266039419" lon="9.218342631094192"><ele>98.0</ele><time>2026-03-29T16:14:09.999Z</time></trkpt><trkpt lat="45.383078525052106" lon="9.21814901618833"><ele>98.66666666666666</ele><time>2026-03-29T16:14:10.999Z</time></trkpt><trkpt lat="45.383168021363474" lon="9.217948290891586"><ele>99.33333333333334</ele><time>2026-03-29T16:14:11.999Z</time></trkpt><trkpt lat="45.38325676207184" lon="9.21775110779549"><ele>100.0</ele><time>2026-03-29T16:14:12.999Z</time></trkpt><trkpt lat="45.38334171114205" lon="9.217552783091975"><ele>100.0</ele><time>2026-03-29T16:14:13.999Z</time></trkpt><trkpt lat="45.383426729870436" lon="9.21735765656498"><ele>100.0</ele><time>2026-03-29T16:14:14.999Z</time></trkpt><trkpt lat="45.38350978405351" lon="9.217168621111158"><ele>100.0</ele><time>2026-03-29T16:14:15.999Z</time></trkpt><trkpt lat="45.383595511891144" lon="9.216970865394423"><ele>100.33333333333334</ele><time>2026-03-29T16:14:16.999Z</time></trkpt><trkpt lat="45.38368091130325" lon="9.216778630151616"><ele>100.66666666666666</ele><time>2026-03-29T16:14:17.999Z</time></trkpt><trkpt lat="45.38376457464736" lon="9.21658121757048"><ele>101.0</ele><time>2026-03-29T16:14:18.999Z</time></trkpt><trkpt lat="45.383848539574366" lon="9.21638762769512"><ele>101.0</ele><time>2026-03-29T16:14:19.999Z</time></trkpt><trkpt lat="45.3839371843377" lon="9.216209699430031"><ele>101.0</ele><time>2026-03-29T16:14:21Z</time></trkpt><trkpt lat="45.38403009040921" lon="9.216013100444203"><ele>101.0</ele><time>2026-03-29T16:14:22Z</time></trkpt><trkpt lat="45.38411813591055" lon="9.215830064404424"><ele>100.66666666666666</ele><time>2026-03-29T16:14:23Z</time></trkpt><trkpt lat="45.384224060643774" lon="9.215642117304668"><ele>100.33333333333334</ele><time>2026-03-29T16:14:24Z</time></trkpt><trkpt lat="45.38432998072544" lon="9.215460290261749"><ele>100.0</ele><time>2026-03-29T16:14:25Z</time></trkpt><trkpt lat="45.38444148679842" lon="9.21528346260552"><ele>100.0</ele><time>2026-03-29T16:14:26Z</time></trkpt><trkpt lat="45.38454854811797" lon="9.21510629404428"><ele>100.0</ele><time>2026-03-29T16:14:27Z</time></trkpt><trkpt lat="45.384616943598445" lon="9.21499521460544"><ele>100.0</ele><time>2026-03-29T16:14:28Z</time></trkpt><trkpt lat="45.38474041175068" lon="9.214815861046027"><ele>100.0</ele><time>2026-03-29T16:14:29Z</time></trkpt><trkpt lat="45.384861154784105" lon="9.214652987756102"><ele>99.33333333333334</ele><time>2026-03-29T16:14:30Z</time></trkpt><trkpt lat="45.38500322321155" lon="9.214521185240804"><ele>98.66666666666666</ele><time>2026-03-29T16:14:31Z</time></trkpt><trkpt lat="45.3851348056681" lon="9.21438224940951"><ele>98.0</ele><time>2026-03-29T16:14:32Z</time></trkpt><trkpt lat="45.38526195155058" lon="9.214249049761694"><ele>98.0</ele><time>2026-03-29T16:14:33Z</time></trkpt><trkpt lat="45.3853906550659" lon="9.214122280397063"><ele>98.0</ele><time>2026-03-29T16:14:34Z</time></trkpt><trkpt lat="45.38551703559876" lon="9.21399958773879"><ele>98.0</ele><time>2026-03-29T16:14:35Z</time></trkpt><trkpt lat="45.38565351986891" lon="9.213875845784258"><ele>98.0</ele><time>2026-03-29T16:14:36Z</time></trkpt><trkpt lat="45.38579526429831" lon="9.213760443598115"><ele>98.0</ele><time>2026-03-29T16:14:37Z</time></trkpt><trkpt lat="45.385937114106135" lon="9.2136523108033"><ele>98.0</ele><time>2026-03-29T16:14:38Z</time></trkpt><trkpt lat="45.38608625289398" lon="9.213541936679157"><ele>98.0</ele><time>2026-03-29T16:14:39Z</time></trkpt><trkpt lat="45.386233878787735" lon="9.213439732904074"><ele>98.0</ele><time>2026-03-29T16:14:40Z</time></trkpt><trkpt lat="45.38638837712823" lon="9.213349687581369"><ele>98.0</ele><time>2026-03-29T16:14:41Z</time></trkpt><trkpt lat="45.386542006565186" lon="9.213260348992296"><ele>98.0</ele><time>2026-03-29T16:14:42Z</time></trkpt><trkpt lat="45.386699325358904" lon="9.213168032523134"><ele>98.0</ele><time>2026-03-29T16:14:43Z</time></trkpt><trkpt lat="45.38685511227003" lon="9.213122569837408"><ele>98.0</ele><time>2026-03-29T16:14:44Z</time></trkpt><trkpt lat="45.387015169683224" lon="9.213053535033687"><ele>98.75</ele><time>2026-03-29T16:14:45Z</time></trkpt><trkpt lat="45.387182593582544" lon="9.212987872916615"><ele>99.5</ele><time>2026-03-29T16:14:46Z</time></trkpt><trkpt lat="45.387286400627076" lon="9.212966667275474"><ele>100.25</ele><time>2026-03-29T16:14:47Z</time></trkpt><trkpt lat="45.387440033099644" lon="9.212928978915807"><ele>101.0</ele><time>2026-03-29T16:14:48Z</time></trkpt><trkpt lat="45.38756794494945" lon="9.212899587213599"><ele>101.0</ele><time>2026-03-29T16:14:49Z</time></trkpt><trkpt lat="45.38768647547167" lon="9.212878686416632"><ele>101.0</ele><time>2026-03-29T16:14:50Z</time></trkpt><trkpt lat="45.387820056853585" lon="9.212848569792659"><ele>101.0</ele><time>2026-03-29T16:14:51Z</time></trkpt><trkpt lat="45.38795496272158" lon="9.21281836284789"><ele>101.0</ele><time>2026-03-29T16:14:52Z</time></trkpt><trkpt lat="45.38807330111035" lon="9.212776153355957"><ele>101.33333333333333</ele><time>2026-03-29T16:14:53Z</time></trkpt><trkpt lat="45.388233557486316" lon="9.212757664895323"><ele>101.66666666666666</ele><time>2026-03-29T16:14:54Z</time></trkpt><trkpt lat="45.38838275120485" lon="9.212725117578254"><ele>102.0</ele><time>2026-03-29T16:14:55Z</time></trkpt><trkpt lat="45.38853184797176" lon="9.212690712766317"><ele>102.0</ele><time>2026-03-29T16:14:56Z</time></trkpt><trkpt lat="45.38868892147081" lon="9.212650520609145"><ele>102.0</ele><time>2026-03-29T16:14:57Z</time></trkpt><trkpt lat="45.38884807431938" lon="9.212607822827621"><ele>102.0</ele><time>2026-03-29T16:14:58Z</time></trkpt><trkpt lat="45.389003530863675" lon="9.212575146270105"><ele>101.75</ele><time>2026-03-29T16:14:59Z</time></trkpt><trkpt lat="45.389155782726284" lon="9.212537718474062"><ele>101.5</ele><time>2026-03-29T16:15:00Z</time></trkpt><trkpt lat="45.38930441710633" lon="9.212499254856425"><ele>101.25</ele><time>2026-03-29T16:15:01Z</time></trkpt><trkpt lat="45.38944219523458" lon="9.212468302854704"><ele>101.0</ele><time>2026-03-29T16:15:02Z</time></trkpt><trkpt lat="45.3895810770504" lon="9.212434336440671"><ele>101.75</ele><time>2026-03-29T16:15:03Z</time></trkpt><trkpt lat="45.38972200770086" lon="9.212398989162363"><ele>102.5</ele><time>2026-03-29T16:15:04Z</time></trkpt><trkpt lat="45.38986079263767" lon="9.212364047170816"><ele>103.25</ele><time>2026-03-29T16:15:05Z</time></trkpt><trkpt lat="45.39000665676486" lon="9.212330889399116"><ele>104.0</ele><time>2026-03-29T16:15:06Z</time></trkpt><trkpt lat="45.39014460861862" lon="9.212304641023971"><ele>104.0</ele><time>2026-03-29T16:15:07Z</time></trkpt><trkpt lat="45.39028001833689" lon="9.212279786789969"><ele>104.0</ele><time>2026-03-29T16:15:08Z</time></trkpt><trkpt lat="45.39042035937276" lon="9.212257906881426"><ele>104.0</ele><time>2026-03-29T16:15:09Z</time></trkpt><trkpt lat="45.39055314564928" lon="9.212210455733652"><ele>104.0</ele><time>2026-03-29T16:15:10Z</time></trkpt><trkpt lat="45.39067966094523" lon="9.212182787853289"><ele>104.2</ele><time>2026-03-29T16:15:11Z</time></trkpt><trkpt lat="45.39079376874817" lon="9.212160899440017"><ele>104.4</ele><time>2026-03-29T16:15:12Z</time></trkpt><trkpt lat="45.39085302304072" lon="9.212125121187364"><ele>104.6</ele><time>2026-03-29T16:15:13Z</time></trkpt><trkpt lat="45.39093559955882" lon="9.2121045537971"><ele>104.8</ele><time>2026-03-29T16:15:14Z</time></trkpt><trkpt lat="45.39101928232069" lon="9.21226518846325"><ele>105.0</ele><time>2026-03-29T16:15:15Z</time></trkpt><trkpt lat="45.391072505285614" lon="9.212361852671451"><ele>105.0</ele><time>2026-03-29T16:15:16Z</time></trkpt><trkpt lat="45.391090911905835" lon="9.212479111201832"><ele>105.0</ele><time>2026-03-29T16:15:17Z</time></trkpt><trkpt lat="45.39106586171176" lon="9.212604633584316"><ele>105.0</ele><time>2026-03-29T16:15:18Z</time></trkpt><trkpt lat="45.39101882191425" lon="9.212719584512014"><ele>105.0</ele><time>2026-03-29T16:15:19Z</time></trkpt><trkpt lat="45.390959632603256" lon="9.212817169254624"><ele>105.0</ele><time>2026-03-29T16:15:20Z</time></trkpt><trkpt lat="45.390910354987156" lon="9.212898509331486"><ele>105.0</ele><time>2026-03-29T16:15:21Z</time></trkpt><trkpt lat="45.390836429066646" lon="9.213028183569358"><ele>105.0</ele><time>2026-03-29T16:15:23Z</time></trkpt><trkpt lat="45.3907406567106" lon="9.213105789066402"><ele>105.0</ele><time>2026-03-29T16:15:25Z</time></trkpt><trkpt lat="45.390676063850286" lon="9.213110960157675"><ele>105.0</ele><time>2026-03-29T16:15:26Z</time></trkpt><trkpt lat="45.39056867776938" lon="9.213056316768522"><ele>105.0</ele><time>2026-03-29T16:15:28Z</time></trkpt><trkpt lat="45.390502346454106" lon="9.212919583271642"><ele>105.0</ele><time>2026-03-29T16:15:30Z</time></trkpt><trkpt lat="45.3904776936226" lon="9.212760225274035"><ele>105.0</ele><time>2026-03-29T16:15:32Z</time></trkpt><trkpt lat="45.390480038493166" lon="9.21267012259192"><ele>105.0</ele><time>2026-03-29T16:15:33Z</time></trkpt><trkpt lat="45.39049317165179" lon="9.212573551756137"><ele>105.0</ele><time>2026-03-29T16:15:34Z</time></trkpt><trkpt lat="45.39051212439653" lon="9.21245724169763"><ele>105.0</ele><time>2026-03-29T16:15:35Z</time></trkpt><trkpt lat="45.39053576974235" lon="9.21232356300675"><ele>105.0</ele><time>2026-03-29T16:15:36Z</time></trkpt><trkpt lat="45.39055481399477" lon="9.212169910539613"><ele>105.0</ele><time>2026-03-29T16:15:37Z</time></trkpt><trkpt lat="45.390584903453835" lon="9.212010402666253"><ele>104.8</ele><time>2026-03-29T16:15:38Z</time></trkpt><trkpt lat="45.39060955895095" lon="9.211850326591907"><ele>104.6</ele><time>2026-03-29T16:15:39Z</time></trkpt><trkpt lat="45.39062747243391" lon="9.211707052322128"><ele>104.4</ele><time>2026-03-29T16:15:39.999Z</time></trkpt><trkpt lat="45.390649514687944" lon="9.211560166001988"><ele>104.2</ele><time>2026-03-29T16:15:40.999Z</time></trkpt><trkpt lat="45.39066959772016" lon="9.211410631180756"><ele>104.0</ele><time>2026-03-29T16:15:41.999Z</time></trkpt><trkpt lat="45.39069398939311" lon="9.21125134986236"><ele>104.0</ele><time>2026-03-29T16:15:42.999Z</time></trkpt><trkpt lat="45.390726044043724" lon="9.21103062696665"><ele>104.0</ele><time>2026-03-29T16:15:43.999Z</time></trkpt><trkpt lat="45.39076007202904" lon="9.210783138829159"><ele>104.0</ele><time>2026-03-29T16:15:44.999Z</time></trkpt><trkpt lat="45.39079873816974" lon="9.210535716839615"><ele>104.0</ele><time>2026-03-29T16:15:45.999Z</time></trkpt><trkpt lat="45.39084168231091" lon="9.210273159409363"><ele>104.0</ele><time>2026-03-29T16:15:46.999Z</time></trkpt><trkpt lat="45.390872201950074" lon="9.210003178879711"><ele>104.0</ele><time>2026-03-29T16:15:47.999Z</time></trkpt><trkpt lat="45.390912261910664" lon="9.209737593371845"><ele>104.0</ele><time>2026-03-29T16:15:48.999Z</time></trkpt><trkpt lat="45.390949248884425" lon="9.209465012897343"><ele>104.0</ele><time>2026-03-29T16:15:49.999Z</time></trkpt><trkpt lat="45.39097308749237" lon="9.209189720296239"><ele>104.0</ele><time>2026-03-29T16:15:50.999Z</time></trkpt><trkpt lat="45.39100943811147" lon="9.208910723446536"><ele>102.66666666666666</ele><time>2026-03-29T16:15:51.999Z</time></trkpt><trkpt lat="45.39104912710491" lon="9.20866330063228"><ele>101.33333333333334</ele><time>2026-03-29T16:15:52.999Z</time></trkpt><trkpt lat="45.391080813014824" lon="9.208383526817089"><ele>100.0</ele><time>2026-03-29T16:15:53.999Z</time></trkpt><trkpt lat="45.391103175419445" lon="9.208125812775128"><ele>99.66666666666667</ele><time>2026-03-29T16:15:54.999Z</time></trkpt><trkpt lat="45.39113430704357" lon="9.207871372833967"><ele>99.33333333333334</ele><time>2026-03-29T16:15:55.999Z</time></trkpt><trkpt lat="45.3911614348058" lon="9.2076162059927"><ele>99.0</ele><time>2026-03-29T16:15:56.999Z</time></trkpt><trkpt lat="45.391185259181455" lon="9.207359905590058"><ele>100.33333333333334</ele><time>2026-03-29T16:15:57.999Z</time></trkpt><trkpt lat="45.39120910909713" lon="9.207101283857757"><ele>101.66666666666667</ele><time>2026-03-29T16:15:58.999Z</time></trkpt><trkpt lat="45.3912315466701" lon="9.206846243075603"><ele>103.0</ele><time>2026-03-29T16:15:59.999Z</time></trkpt><trkpt lat="45.39124659104481" lon="9.206586587224587"><ele>103.0</ele><time>2026-03-29T16:16:00.999Z</time></trkpt><trkpt lat="45.39126365361238" lon="9.206343839563463"><ele>103.0</ele><time>2026-03-29T16:16:01.999Z</time></trkpt><trkpt lat="45.39127948149191" lon="9.20608540785666"><ele>103.0</ele><time>2026-03-29T16:16:02.999Z</time></trkpt><trkpt lat="45.39129226048963" lon="9.205827825080206"><ele>102.33333333333334</ele><time>2026-03-29T16:16:03.999Z</time></trkpt><trkpt lat="45.39131298373276" lon="9.205597235234892"><ele>101.66666666666666</ele><time>2026-03-29T16:16:04.999Z</time></trkpt><trkpt lat="45.39134711150166" lon="9.20525240909911"><ele>101.0</ele><time>2026-03-29T16:16:05.999Z</time></trkpt><trkpt lat="45.39137566514486" lon="9.204920995586367"><ele>101.0</ele><time>2026-03-29T16:16:06.999Z</time></trkpt><trkpt lat="45.391389291298985" lon="9.204624392363026"><ele>101.0</ele><time>2026-03-29T16:16:07.999Z</time></trkpt><trkpt lat="45.39141192754246" lon="9.204312036378148"><ele>101.0</ele><time>2026-03-29T16:16:08.999Z</time></trkpt><trkpt lat="45.391415868864804" lon="9.203988874835897"><ele>101.0</ele><time>2026-03-29T16:16:09.999Z</time></trkpt><trkpt lat="45.391434039369656" lon="9.203682930621701"><ele>101.0</ele><time>2026-03-29T16:16:10.999Z</time></trkpt><trkpt lat="45.39145458010026" lon="9.203402699123636"><ele>101.0</ele><time>2026-03-29T16:16:11.999Z</time></trkpt><trkpt lat="45.391468526984376" lon="9.203143816700427"><ele>100.66666666666666</ele><time>2026-03-29T16:16:12.999Z</time></trkpt><trkpt lat="45.39147902841257" lon="9.202890767572905"><ele>100.33333333333334</ele><time>2026-03-29T16:16:13.999Z</time></trkpt><trkpt lat="45.391486990222596" lon="9.202638518720008"><ele>100.0</ele><time>2026-03-29T16:16:14.999Z</time></trkpt><trkpt lat="45.391485217652814" lon="9.202377816050612"><ele>100.66666666666667</ele><time>2026-03-29T16:16:15.999Z</time></trkpt><trkpt lat="45.39151448966423" lon="9.202111040614943"><ele>101.33333333333334</ele><time>2026-03-29T16:16:16.999Z</time></trkpt><trkpt lat="45.39153264611936" lon="9.201845085510321"><ele>102.0</ele><time>2026-03-29T16:16:17.999Z</time></trkpt><trkpt lat="45.39154826219649" lon="9.20158213217354"><ele>102.66666666666666</ele><time>2026-03-29T16:16:18.999Z</time></trkpt><trkpt lat="45.39156079713839" lon="9.201320898738613"><ele>103.33333333333333</ele><time>2026-03-29T16:16:19.999Z</time></trkpt><trkpt lat="45.39156364475271" lon="9.201052528848772"><ele>104.0</ele><time>2026-03-29T16:16:20.999Z</time></trkpt><trkpt lat="45.39157031908421" lon="9.20078404439519"><ele>103.0</ele><time>2026-03-29T16:16:21.999Z</time></trkpt><trkpt lat="45.391583219372954" lon="9.200513633128336"><ele>102.0</ele><time>2026-03-29T16:16:22.999Z</time></trkpt><trkpt lat="45.39159239316909" lon="9.200239835974442"><ele>101.0</ele><time>2026-03-29T16:16:23.999Z</time></trkpt><trkpt lat="45.391595404666525" lon="9.19996584892686"><ele>101.0</ele><time>2026-03-29T16:16:24.999Z</time></trkpt><trkpt lat="45.39160369813883" lon="9.199689297331938"><ele>101.0</ele><time>2026-03-29T16:16:25.999Z</time></trkpt><trkpt lat="45.39160449394303" lon="9.199406650978176"><ele>101.0</ele><time>2026-03-29T16:16:27Z</time></trkpt><trkpt lat="45.39160711704316" lon="9.199128752848816"><ele>102.33333333333333</ele><time>2026-03-29T16:16:28Z</time></trkpt><trkpt lat="45.391610494702554" lon="9.198814429147859"><ele>103.66666666666666</ele><time>2026-03-29T16:16:29Z</time></trkpt><trkpt lat="45.391607265177356" lon="9.19853756268179"><ele>105.0</ele><time>2026-03-29T16:16:30Z</time></trkpt><trkpt lat="45.3916122139637" lon="9.198251719934788"><ele>104.33333333333334</ele><time>2026-03-29T16:16:31Z</time></trkpt><trkpt lat="45.391610081432574" lon="9.197968166988135"><ele>103.66666666666667</ele><time>2026-03-29T16:16:32Z</time></trkpt><trkpt lat="45.39160569217781" lon="9.197679660814867"><ele>103.0</ele><time>2026-03-29T16:16:33Z</time></trkpt><trkpt lat="45.391602473082116" lon="9.19738816265789"><ele>102.0</ele><time>2026-03-29T16:16:34Z</time></trkpt><trkpt lat="45.391597020096114" lon="9.197100906851244"><ele>101.0</ele><time>2026-03-29T16:16:35Z</time></trkpt><trkpt lat="45.391594115354714" lon="9.196817068617603"><ele>100.0</ele><time>2026-03-29T16:16:36Z</time></trkpt><trkpt lat="45.391584071740056" lon="9.196536875153734"><ele>100.0</ele><time>2026-03-29T16:16:37Z</time></trkpt><trkpt lat="45.391573252120104" lon="9.196256870054066"><ele>100.0</ele><time>2026-03-29T16:16:38Z</time></trkpt><trkpt lat="45.39156449107554" lon="9.19597850433228"><ele>100.0</ele><time>2026-03-29T16:16:39Z</time></trkpt><trkpt lat="45.39155746176039" lon="9.195703182780978"><ele>100.0</ele><time>2026-03-29T16:16:40Z</time></trkpt><trkpt lat="45.39154492332856" lon="9.195428910979437"><ele>100.0</ele><time>2026-03-29T16:16:41Z</time></trkpt><trkpt lat="45.39153616728628" lon="9.195155439197928"><ele>100.0</ele><time>2026-03-29T16:16:42Z</time></trkpt><trkpt lat="45.39151558742292" lon="9.194880086051763"><ele>100.33333333333334</ele><time>2026-03-29T16:16:43Z</time></trkpt><trkpt lat="45.3914988050386" lon="9.194602120060702"><ele>100.66666666666666</ele><time>2026-03-29T16:16:44Z</time></trkpt><trkpt lat="45.391481528365354" lon="9.194315840161433"><ele>101.0</ele><time>2026-03-29T16:16:45Z</time></trkpt><trkpt lat="45.39145865245626" lon="9.194038697155406"><ele>101.0</ele><time>2026-03-29T16:16:46Z</time></trkpt><trkpt lat="45.39143633541437" lon="9.193766571705044"><ele>101.0</ele><time>2026-03-29T16:16:47Z</time></trkpt><trkpt lat="45.39141165547313" lon="9.193495120237364"><ele>101.0</ele><time>2026-03-29T16:16:48Z</time></trkpt><trkpt lat="45.39138864149188" lon="9.193227482085296"><ele>101.0</ele><time>2026-03-29T16:16:49Z</time></trkpt><trkpt lat="45.39136671933171" lon="9.192954256283137"><ele>101.0</ele><time>2026-03-29T16:16:50Z</time></trkpt><trkpt lat="45.39134308098551" lon="9.192680134902334"><ele>101.0</ele><time>2026-03-29T16:16:51Z</time></trkpt><trkpt lat="45.39131499442102" lon="9.192405483319353"><ele>100.33333333333333</ele><time>2026-03-29T16:16:52Z</time></trkpt><trkpt lat="45.39128428419712" lon="9.192136795803817"><ele>99.66666666666666</ele><time>2026-03-29T16:16:53Z</time></trkpt><trkpt lat="45.391256979585" lon="9.191861043789439"><ele>99.0</ele><time>2026-03-29T16:16:54Z</time></trkpt><trkpt lat="45.39126679432756" lon="9.191576814847105"><ele>99.33333333333334</ele><time>2026-03-29T16:16:55Z</time></trkpt><trkpt lat="45.391205282546274" lon="9.191306798260008"><ele>99.66666666666667</ele><time>2026-03-29T16:16:56Z</time></trkpt><trkpt lat="45.391170328661254" lon="9.191028927984032"><ele>100.0</ele><time>2026-03-29T16:16:57Z</time></trkpt><trkpt lat="45.391132184466805" lon="9.190752561164258"><ele>100.0</ele><time>2026-03-29T16:16:58Z</time></trkpt><trkpt lat="45.391091108637276" lon="9.190481149914438"><ele>100.0</ele><time>2026-03-29T16:16:59Z</time></trkpt><trkpt lat="45.391044999080265" lon="9.19021342222917"><ele>100.0</ele><time>2026-03-29T16:17:00Z</time></trkpt><trkpt lat="45.391010567506925" lon="9.18994575587975"><ele>101.0</ele><time>2026-03-29T16:17:01Z</time></trkpt><trkpt lat="45.3909793427338" lon="9.189661735832427"><ele>102.0</ele><time>2026-03-29T16:17:02Z</time></trkpt><trkpt lat="45.39093871105139" lon="9.189377028909139"><ele>103.0</ele><time>2026-03-29T16:17:03Z</time></trkpt><trkpt lat="45.390896265020515" lon="9.189085219492606"><ele>103.0</ele><time>2026-03-29T16:17:04Z</time></trkpt><trkpt lat="45.39085161411631" lon="9.188801680377026"><ele>103.0</ele><time>2026-03-29T16:17:05Z</time></trkpt><trkpt lat="45.3908034540637" lon="9.188523114437922"><ele>103.0</ele><time>2026-03-29T16:17:06Z</time></trkpt><trkpt lat="45.39075174263357" lon="9.18824975655938"><ele>102.33333333333334</ele><time>2026-03-29T16:17:07Z</time></trkpt><trkpt lat="45.39069951220473" lon="9.187976131064305"><ele>101.66666666666666</ele><time>2026-03-29T16:17:08Z</time></trkpt><trkpt lat="45.390641855096696" lon="9.187706845535038"><ele>101.0</ele><time>2026-03-29T16:17:09Z</time></trkpt><trkpt lat="45.390580549077534" lon="9.187443955334134"><ele>101.33333333333333</ele><time>2026-03-29T16:17:10Z</time></trkpt><trkpt lat="45.39054369553947" lon="9.187174035982391"><ele>101.66666666666666</ele><time>2026-03-29T16:17:11Z</time></trkpt><trkpt lat="45.39049132698858" lon="9.186896496425202"><ele>102.0</ele><time>2026-03-29T16:17:12Z</time></trkpt><trkpt lat="45.39043435428924" lon="9.186623398021792"><ele>101.66666666666666</ele><time>2026-03-29T16:17:13Z</time></trkpt><trkpt lat="45.390376895862246" lon="9.186344493698947"><ele>101.33333333333333</ele><time>2026-03-29T16:17:14Z</time></trkpt><trkpt lat="45.390317161759526" lon="9.18606331585145"><ele>101.0</ele><time>2026-03-29T16:17:15Z</time></trkpt><trkpt lat="45.39025290089234" lon="9.185793434581049"><ele>100.66666666666666</ele><time>2026-03-29T16:17:16Z</time></trkpt><trkpt lat="45.39019569992047" lon="9.185536739089093"><ele>100.33333333333334</ele><time>2026-03-29T16:17:17Z</time></trkpt><trkpt lat="45.39013162104143" lon="9.185279373400009"><ele>100.0</ele><time>2026-03-29T16:17:18Z</time></trkpt><trkpt lat="45.39007965939341" lon="9.18501431125863"><ele>100.33333333333334</ele><time>2026-03-29T16:17:19Z</time></trkpt><trkpt lat="45.39001901299961" lon="9.184751599660324"><ele>100.66666666666666</ele><time>2026-03-29T16:17:20Z</time></trkpt><trkpt lat="45.389954530687234" lon="9.184493052953892"><ele>101.0</ele><time>2026-03-29T16:17:21Z</time></trkpt><trkpt lat="45.38988926154615" lon="9.184231233710735"><ele>101.33333333333333</ele><time>2026-03-29T16:17:22Z</time></trkpt><trkpt lat="45.38982284665376" lon="9.18396752441081"><ele>101.66666666666666</ele><time>2026-03-29T16:17:23Z</time></trkpt><trkpt lat="45.38976081935909" lon="9.18370241718395"><ele>102.0</ele><time>2026-03-29T16:17:24Z</time></trkpt><trkpt lat="45.38969022389112" lon="9.183444125466616"><ele>102.33333333333334</ele><time>2026-03-29T16:17:25Z</time></trkpt><trkpt lat="45.38962376233916" lon="9.183180465823353"><ele>102.66666666666667</ele><time>2026-03-29T16:17:26Z</time></trkpt><trkpt lat="45.38955854399881" lon="9.182911374863986"><ele>103.0</ele><time>2026-03-29T16:17:27Z</time></trkpt><trkpt lat="45.38948411731192" lon="9.182636201566702"><ele>103.0</ele><time>2026-03-29T16:17:28Z</time></trkpt><trkpt lat="45.389405993003564" lon="9.182376522493035"><ele>103.0</ele><time>2026-03-29T16:17:29Z</time></trkpt><trkpt lat="45.38932350334838" lon="9.182118169210721"><ele>103.0</ele><time>2026-03-29T16:17:30Z</time></trkpt><trkpt lat="45.3892455417933" lon="9.181856196571418"><ele>103.0</ele><time>2026-03-29T16:17:31Z</time></trkpt><trkpt lat="45.3891686820524" lon="9.181604790258007"><ele>103.0</ele><time>2026-03-29T16:17:32Z</time></trkpt><trkpt lat="45.38909716888272" lon="9.18136081681002"><ele>103.0</ele><time>2026-03-29T16:17:33Z</time></trkpt><trkpt lat="45.38902492209926" lon="9.181125221828355"><ele>103.0</ele><time>2026-03-29T16:17:34Z</time></trkpt><trkpt lat="45.388955314178205" lon="9.18088437466762"><ele>103.0</ele><time>2026-03-29T16:17:35Z</time></trkpt><trkpt lat="45.38889631963951" lon="9.180635172142262"><ele>103.0</ele><time>2026-03-29T16:17:36Z</time></trkpt><trkpt lat="45.38881686223408" lon="9.180427069739558"><ele>102.66666666666667</ele><time>2026-03-29T16:17:37Z</time></trkpt><trkpt lat="45.38874046009619" lon="9.180198076747878"><ele>102.33333333333334</ele><time>2026-03-29T16:17:38Z</time></trkpt><trkpt lat="45.38866140149098" lon="9.17996851436043"><ele>102.0</ele><time>2026-03-29T16:17:39Z</time></trkpt><trkpt lat="45.388572889807214" lon="9.179718915674506"><ele>102.0</ele><time>2026-03-29T16:17:40Z</time></trkpt><trkpt lat="45.38847946151996" lon="9.179455881608359"><ele>102.0</ele><time>2026-03-29T16:17:41Z</time></trkpt><trkpt lat="45.38838881949938" lon="9.179200691827996"><ele>102.0</ele><time>2026-03-29T16:17:42Z</time></trkpt><trkpt lat="45.38830761836643" lon="9.178941057792626"><ele>102.33333333333334</ele><time>2026-03-29T16:17:43Z</time></trkpt><trkpt lat="45.38820256130256" lon="9.178702068047302"><ele>102.66666666666667</ele><time>2026-03-29T16:17:44Z</time></trkpt><trkpt lat="45.38808055217309" lon="9.178503022351924"><ele>103.0</ele><time>2026-03-29T16:17:45Z</time></trkpt><trkpt lat="45.387932145260784" lon="9.178290368821875"><ele>103.0</ele><time>2026-03-29T16:17:46Z</time></trkpt><trkpt lat="45.3878113949172" lon="9.178068982184202"><ele>103.0</ele><time>2026-03-29T16:17:46.999Z</time></trkpt><trkpt lat="45.387711226212744" lon="9.177814982414597"><ele>103.0</ele><time>2026-03-29T16:17:47.999Z</time></trkpt><trkpt lat="45.387742454898316" lon="9.177596787907877"><ele>103.0</ele><time>2026-03-29T16:17:48.999Z</time></trkpt><trkpt lat="45.387659648046984" lon="9.177377984314779"><ele>103.0</ele><time>2026-03-29T16:17:49.999Z</time></trkpt><trkpt lat="45.38757739275729" lon="9.177175243897304"><ele>103.0</ele><time>2026-03-29T16:17:50.999Z</time></trkpt><trkpt lat="45.38748466306718" lon="9.176972222493648"><ele>103.0</ele><time>2026-03-29T16:17:51.999Z</time></trkpt><trkpt lat="45.387403880001756" lon="9.176741728255655"><ele>103.0</ele><time>2026-03-29T16:17:52.999Z</time></trkpt><trkpt lat="45.38731923404788" lon="9.17652976935561"><ele>103.0</ele><time>2026-03-29T16:17:53.999Z</time></trkpt><trkpt lat="45.387218453837555" lon="9.176291298880612"><ele>102.33333333333334</ele><time>2026-03-29T16:17:54.999Z</time></trkpt><trkpt lat="45.38714467469245" lon="9.17606864399349"><ele>101.66666666666666</ele><time>2026-03-29T16:17:55.999Z</time></trkpt><trkpt lat="45.38706421582265" lon="9.175838291989537"><ele>101.0</ele><time>2026-03-29T16:17:56.999Z</time></trkpt><trkpt lat="45.38699267943574" lon="9.175596561131657"><ele>100.66666666666666</ele><time>2026-03-29T16:17:57.999Z</time></trkpt><trkpt lat="45.38691776506023" lon="9.17535833813503"><ele>100.33333333333334</ele><time>2026-03-29T16:17:58.999Z</time></trkpt><trkpt lat="45.386848370799555" lon="9.175120337887181"><ele>100.0</ele><time>2026-03-29T16:17:59.999Z</time></trkpt><trkpt lat="45.38677979095225" lon="9.174873816927965"><ele>100.33333333333334</ele><time>2026-03-29T16:18:00.999Z</time></trkpt><trkpt lat="45.38671766456869" lon="9.174623584611837"><ele>100.66666666666666</ele><time>2026-03-29T16:18:01.999Z</time></trkpt><trkpt lat="45.38666616918835" lon="9.174389662693521"><ele>101.0</ele><time>2026-03-29T16:18:02.999Z</time></trkpt><trkpt lat="45.38662994376465" lon="9.174153936053496"><ele>101.0</ele><time>2026-03-29T16:18:03.999Z</time></trkpt><trkpt lat="45.386578705675134" lon="9.173929148662266"><ele>101.0</ele><time>2026-03-29T16:18:04.999Z</time></trkpt><trkpt lat="45.38653785986349" lon="9.173697253819174"><ele>101.0</ele><time>2026-03-29T16:18:05.999Z</time></trkpt><trkpt lat="45.386490465586405" lon="9.173450268743508"><ele>101.0</ele><time>2026-03-29T16:18:06.999Z</time></trkpt><trkpt lat="45.386454042122566" lon="9.173227533331495"><ele>101.0</ele><time>2026-03-29T16:18:07.999Z</time></trkpt><trkpt lat="45.38642056666588" lon="9.172978565462946"><ele>101.0</ele><time>2026-03-29T16:18:08.999Z</time></trkpt><trkpt lat="45.386387506914666" lon="9.172730601458015"><ele>101.0</ele><time>2026-03-29T16:18:09.999Z</time></trkpt><trkpt lat="45.386361277596855" lon="9.1724517102549"><ele>101.0</ele><time>2026-03-29T16:18:10.999Z</time></trkpt><trkpt lat="45.38633451885789" lon="9.172193558173417"><ele>101.0</ele><time>2026-03-29T16:18:11.999Z</time></trkpt><trkpt lat="45.386303541638924" lon="9.171957639011595"><ele>101.0</ele><time>2026-03-29T16:18:12.999Z</time></trkpt><trkpt lat="45.38627165632561" lon="9.171685240769087"><ele>101.0</ele><time>2026-03-29T16:18:13.999Z</time></trkpt><trkpt lat="45.38627932147134" lon="9.17141316915331"><ele>101.0</ele><time>2026-03-29T16:18:14.999Z</time></trkpt><trkpt lat="45.38627318403594" lon="9.171154324231088"><ele>102.0</ele><time>2026-03-29T16:18:15.999Z</time></trkpt><trkpt lat="45.386270311723926" lon="9.170898255614112"><ele>103.0</ele><time>2026-03-29T16:18:16.999Z</time></trkpt><trkpt lat="45.386255514632495" lon="9.17063785335557"><ele>104.0</ele><time>2026-03-29T16:18:17.999Z</time></trkpt><trkpt lat="45.3862363750938" lon="9.17037353153394"><ele>104.0</ele><time>2026-03-29T16:18:18.999Z</time></trkpt><trkpt lat="45.38626342280875" lon="9.170119600483153"><ele>104.0</ele><time>2026-03-29T16:18:19.999Z</time></trkpt><trkpt lat="45.38627310611823" lon="9.169846651977311"><ele>104.0</ele><time>2026-03-29T16:18:20.999Z</time></trkpt><trkpt lat="45.38628573178137" lon="9.169571887661352"><ele>104.0</ele><time>2026-03-29T16:18:21.999Z</time></trkpt><trkpt lat="45.386301529549705" lon="9.169291266714588"><ele>104.0</ele><time>2026-03-29T16:18:22.999Z</time></trkpt><trkpt lat="45.38631655540666" lon="9.169009937619144"><ele>104.0</ele><time>2026-03-29T16:18:23.999Z</time></trkpt><trkpt lat="45.386347379566025" lon="9.168728285524228"><ele>102.0</ele><time>2026-03-29T16:18:24.999Z</time></trkpt><trkpt lat="45.386376954426886" lon="9.168442412548645"><ele>100.0</ele><time>2026-03-29T16:18:25.999Z</time></trkpt><trkpt lat="45.38640855187905" lon="9.168171384865254"><ele>98.0</ele><time>2026-03-29T16:18:26.999Z</time></trkpt><trkpt lat="45.386445797648406" lon="9.167935325623967"><ele>98.0</ele><time>2026-03-29T16:18:27.999Z</time></trkpt><trkpt lat="45.386488144599895" lon="9.167650687957916"><ele>98.0</ele><time>2026-03-29T16:18:28.999Z</time></trkpt><trkpt lat="45.38652500010199" lon="9.167398363878618"><ele>98.0</ele><time>2026-03-29T16:18:29.999Z</time></trkpt><trkpt lat="45.386578066260455" lon="9.167126460822697"><ele>98.0</ele><time>2026-03-29T16:18:30.999Z</time></trkpt><trkpt lat="45.3866402350653" lon="9.166853179362743"><ele>98.0</ele><time>2026-03-29T16:18:31.999Z</time></trkpt><trkpt lat="45.38670020242853" lon="9.16659094074251"><ele>98.0</ele><time>2026-03-29T16:18:33Z</time></trkpt><trkpt lat="45.386759075842036" lon="9.166333210374159"><ele>98.33333333333333</ele><time>2026-03-29T16:18:34Z</time></trkpt><trkpt lat="45.38682514530774" lon="9.166072540359286"><ele>98.66666666666666</ele><time>2026-03-29T16:18:35Z</time></trkpt><trkpt lat="45.38689284203608" lon="9.165806579991552"><ele>99.0</ele><time>2026-03-29T16:18:36Z</time></trkpt><trkpt lat="45.386962395331985" lon="9.165553105591515"><ele>99.66666666666666</ele><time>2026-03-29T16:18:37Z</time></trkpt><trkpt lat="45.38703830241648" lon="9.165301185096773"><ele>100.33333333333333</ele><time>2026-03-29T16:18:38Z</time></trkpt><trkpt lat="45.38712615197224" lon="9.165053399193301"><ele>101.0</ele><time>2026-03-29T16:18:39Z</time></trkpt><trkpt lat="45.38721394505034" lon="9.164791704448149"><ele>101.33333333333333</ele><time>2026-03-29T16:18:40Z</time></trkpt><trkpt lat="45.38730803382879" lon="9.164530633797115"><ele>101.66666666666666</ele><time>2026-03-29T16:18:41Z</time></trkpt><trkpt lat="45.3873947429539" lon="9.16428007449342"><ele>102.0</ele><time>2026-03-29T16:18:42Z</time></trkpt><trkpt lat="45.38748024472303" lon="9.164033924583698"><ele>101.66666666666666</ele><time>2026-03-29T16:18:43Z</time></trkpt><trkpt lat="45.38756848276738" lon="9.163794717656025"><ele>101.33333333333333</ele><time>2026-03-29T16:18:44Z</time></trkpt><trkpt lat="45.387648088867955" lon="9.16356739495986"><ele>101.0</ele><time>2026-03-29T16:18:45Z</time></trkpt><trkpt lat="45.387727355340054" lon="9.163339449596503"><ele>101.33333333333333</ele><time>2026-03-29T16:18:46Z</time></trkpt><trkpt lat="45.38780811763459" lon="9.16310697090546"><ele>101.66666666666666</ele><time>2026-03-29T16:18:47Z</time></trkpt><trkpt lat="45.387896463503814" lon="9.162867650174386"><ele>102.0</ele><time>2026-03-29T16:18:48Z</time></trkpt><trkpt lat="45.387978961360375" lon="9.162626596603678"><ele>102.0</ele><time>2026-03-29T16:18:49Z</time></trkpt><trkpt lat="45.388064227893665" lon="9.16238686538408"><ele>102.0</ele><time>2026-03-29T16:18:50Z</time></trkpt><trkpt lat="45.388146375132635" lon="9.16216480865415"><ele>102.0</ele><time>2026-03-29T16:18:51Z</time></trkpt><trkpt lat="45.38822748213054" lon="9.161948858135531"><ele>101.66666666666666</ele><time>2026-03-29T16:18:52Z</time></trkpt><trkpt lat="45.38830474733376" lon="9.16172798741614"><ele>101.33333333333333</ele><time>2026-03-29T16:18:53Z</time></trkpt><trkpt lat="45.38838457523538" lon="9.161489382620486"><ele>101.0</ele><time>2026-03-29T16:18:54Z</time></trkpt><trkpt lat="45.38846574675476" lon="9.161247748594095"><ele>101.0</ele><time>2026-03-29T16:18:55Z</time></trkpt><trkpt lat="45.388557026500685" lon="9.161006037934156"><ele>101.0</ele><time>2026-03-29T16:18:56Z</time></trkpt><trkpt lat="45.38864505240334" lon="9.160750926996474"><ele>101.0</ele><time>2026-03-29T16:18:57Z</time></trkpt><trkpt lat="45.38872891271486" lon="9.160506834346837"><ele>101.33333333333333</ele><time>2026-03-29T16:18:58Z</time></trkpt><trkpt lat="45.38881611089133" lon="9.16026602553747"><ele>101.66666666666666</ele><time>2026-03-29T16:18:59Z</time></trkpt><trkpt lat="45.388903461878705" lon="9.160023692017477"><ele>102.0</ele><time>2026-03-29T16:19:00Z</time></trkpt><trkpt lat="45.389011771607784" lon="9.159774486092157"><ele>102.0</ele><time>2026-03-29T16:19:01Z</time></trkpt><trkpt lat="45.3890871707223" lon="9.159532299015197"><ele>102.0</ele><time>2026-03-29T16:19:02Z</time></trkpt><trkpt lat="45.38917257352582" lon="9.159282923943538"><ele>102.0</ele><time>2026-03-29T16:19:03Z</time></trkpt><trkpt lat="45.38926477091647" lon="9.15903123060245"><ele>102.66666666666666</ele><time>2026-03-29T16:19:04Z</time></trkpt><trkpt lat="45.389329841328895" lon="9.158759573836056"><ele>103.33333333333333</ele><time>2026-03-29T16:19:05Z</time></trkpt><trkpt lat="45.389435007446956" lon="9.158540124153081"><ele>104.0</ele><time>2026-03-29T16:19:06Z</time></trkpt><trkpt lat="45.389526087912714" lon="9.158291237083091"><ele>104.0</ele><time>2026-03-29T16:19:07Z</time></trkpt><trkpt lat="45.389609040021796" lon="9.158039388413204"><ele>104.0</ele><time>2026-03-29T16:19:08Z</time></trkpt><trkpt lat="45.38969539461334" lon="9.157792893458172"><ele>104.0</ele><time>2026-03-29T16:19:09Z</time></trkpt><trkpt lat="45.38977879811893" lon="9.157549664140454"><ele>103.66666666666666</ele><time>2026-03-29T16:19:10Z</time></trkpt><trkpt lat="45.38987408132942" lon="9.157305511579702"><ele>103.33333333333334</ele><time>2026-03-29T16:19:11Z</time></trkpt><trkpt lat="45.38996068470935" lon="9.157060468087707"><ele>103.0</ele><time>2026-03-29T16:19:12Z</time></trkpt><trkpt lat="45.39004469734524" lon="9.156814090939612"><ele>103.0</ele><time>2026-03-29T16:19:13Z</time></trkpt><trkpt lat="45.39013200307606" lon="9.156578612328216"><ele>103.0</ele><time>2026-03-29T16:19:14Z</time></trkpt><trkpt lat="45.39021547801205" lon="9.15633188217676"><ele>103.0</ele><time>2026-03-29T16:19:15Z</time></trkpt><trkpt lat="45.390303821513974" lon="9.156079666009784"><ele>103.33333333333334</ele><time>2026-03-29T16:19:16Z</time></trkpt><trkpt lat="45.39039246529311" lon="9.155828059782076"><ele>103.66666666666666</ele><time>2026-03-29T16:19:17Z</time></trkpt><trkpt lat="45.39048383686058" lon="9.155578681995566"><ele>104.0</ele><time>2026-03-29T16:19:18Z</time></trkpt><trkpt lat="45.390569790264" lon="9.155328589776378"><ele>104.66666666666666</ele><time>2026-03-29T16:19:19Z</time></trkpt><trkpt lat="45.390655641613314" lon="9.155078034265495"><ele>105.33333333333334</ele><time>2026-03-29T16:19:20Z</time></trkpt><trkpt lat="45.39073861400431" lon="9.154828825171563"><ele>106.0</ele><time>2026-03-29T16:19:21Z</time></trkpt><trkpt lat="45.39082393386689" lon="9.154585277916063"><ele>105.66666666666667</ele><time>2026-03-29T16:19:22Z</time></trkpt><trkpt lat="45.39091037873971" lon="9.154338956142452"><ele>105.33333333333334</ele><time>2026-03-29T16:19:23Z</time></trkpt><trkpt lat="45.39099681957442" lon="9.15409480546414"><ele>105.0</ele><time>2026-03-29T16:19:24Z</time></trkpt><trkpt lat="45.39108113933273" lon="9.153859284120616"><ele>105.0</ele><time>2026-03-29T16:19:25Z</time></trkpt><trkpt lat="45.39117557815601" lon="9.153617810499545"><ele>105.0</ele><time>2026-03-29T16:19:26Z</time></trkpt><trkpt lat="45.391255172171725" lon="9.153373921292891"><ele>105.0</ele><time>2026-03-29T16:19:27Z</time></trkpt><trkpt lat="45.39134367617015" lon="9.153130745867504"><ele>105.33333333333334</ele><time>2026-03-29T16:19:28Z</time></trkpt><trkpt lat="45.39142498992228" lon="9.152897579243369"><ele>105.66666666666667</ele><time>2026-03-29T16:19:29Z</time></trkpt><trkpt lat="45.391511604483306" lon="9.152654398883522"><ele>106.0</ele><time>2026-03-29T16:19:30Z</time></trkpt><trkpt lat="45.39159988302725" lon="9.15242577970658"><ele>105.66666666666667</ele><time>2026-03-29T16:19:31Z</time></trkpt><trkpt lat="45.39168578447973" lon="9.15221012469391"><ele>105.33333333333334</ele><time>2026-03-29T16:19:32Z</time></trkpt><trkpt lat="45.39175389226949" lon="9.151954493474767"><ele>105.0</ele><time>2026-03-29T16:19:33Z</time></trkpt><trkpt lat="45.39184625836569" lon="9.151680177660811"><ele>106.0</ele><time>2026-03-29T16:19:34Z</time></trkpt><trkpt lat="45.39192648850471" lon="9.151450253941643"><ele>107.0</ele><time>2026-03-29T16:19:35Z</time></trkpt><trkpt lat="45.39199824466266" lon="9.151260506857712"><ele>108.0</ele><time>2026-03-29T16:19:36Z</time></trkpt><trkpt lat="45.39206663940313" lon="9.151069765193668"><ele>108.0</ele><time>2026-03-29T16:19:37Z</time></trkpt><trkpt lat="45.392129797486106" lon="9.150892618307614"><ele>108.0</ele><time>2026-03-29T16:19:38Z</time></trkpt><trkpt lat="45.392194380999996" lon="9.150712410401464"><ele>108.0</ele><time>2026-03-29T16:19:39Z</time></trkpt><trkpt lat="45.392260368142516" lon="9.150522761782897"><ele>108.0</ele><time>2026-03-29T16:19:40Z</time></trkpt><trkpt lat="45.392328316994444" lon="9.150326425358363"><ele>107.66666666666666</ele><time>2026-03-29T16:19:41Z</time></trkpt><trkpt lat="45.392400984450894" lon="9.15012561848418"><ele>107.33333333333333</ele><time>2026-03-29T16:19:42Z</time></trkpt><trkpt lat="45.39246931225722" lon="9.149923016084342"><ele>107.0</ele><time>2026-03-29T16:19:43Z</time></trkpt><trkpt lat="45.39254444125763" lon="9.149730398146767"><ele>106.66666666666666</ele><time>2026-03-29T16:19:44Z</time></trkpt><trkpt lat="45.39260940454139" lon="9.149539971265497"><ele>106.33333333333334</ele><time>2026-03-29T16:19:45Z</time></trkpt><trkpt lat="45.392678453586086" lon="9.149351719942594"><ele>106.0</ele><time>2026-03-29T16:19:45.999Z</time></trkpt><trkpt lat="45.39274951294949" lon="9.149149913021397"><ele>107.33333333333334</ele><time>2026-03-29T16:19:46.999Z</time></trkpt><trkpt lat="45.39281225015345" lon="9.148946347573881"><ele>108.66666666666666</ele><time>2026-03-29T16:19:47.999Z</time></trkpt><trkpt lat="45.392883056656494" lon="9.148811211652353"><ele>110.0</ele><time>2026-03-29T16:19:48.999Z</time></trkpt><trkpt lat="45.39294998902776" lon="9.148580911620433"><ele>110.66666666666666</ele><time>2026-03-29T16:19:49.999Z</time></trkpt><trkpt lat="45.39301629059378" lon="9.148376238483317"><ele>111.33333333333334</ele><time>2026-03-29T16:19:50.999Z</time></trkpt><trkpt lat="45.393087061943184" lon="9.1481750013298"><ele>112.0</ele><time>2026-03-29T16:19:51.999Z</time></trkpt><trkpt lat="45.3931556408514" lon="9.147970207157437"><ele>110.66666666666667</ele><time>2026-03-29T16:19:52.999Z</time></trkpt><trkpt lat="45.393230573887394" lon="9.14776560049745"><ele>109.33333333333334</ele><time>2026-03-29T16:19:53.999Z</time></trkpt><trkpt lat="45.393303334563626" lon="9.147558093137047"><ele>108.0</ele><time>2026-03-29T16:19:54.999Z</time></trkpt><trkpt lat="45.39337489386971" lon="9.147352748674452"><ele>108.0</ele><time>2026-03-29T16:19:55.999Z</time></trkpt><trkpt lat="45.39344427112535" lon="9.147152706338078"><ele>108.0</ele><time>2026-03-29T16:19:56.999Z</time></trkpt><trkpt lat="45.393514555969645" lon="9.146953964395777"><ele>108.0</ele><time>2026-03-29T16:19:57.999Z</time></trkpt><trkpt lat="45.39359433689428" lon="9.14673899210722"><ele>107.0</ele><time>2026-03-29T16:19:58.999Z</time></trkpt><trkpt lat="45.39367419208672" lon="9.146518372311142"><ele>106.0</ele><time>2026-03-29T16:19:59.999Z</time></trkpt><trkpt lat="45.393748548165256" lon="9.146298142865303"><ele>105.0</ele><time>2026-03-29T16:20:00.999Z</time></trkpt><trkpt lat="45.3938276635477" lon="9.146075477686484"><ele>105.0</ele><time>2026-03-29T16:20:01.999Z</time></trkpt><trkpt lat="45.393908875439415" lon="9.145826075768442"><ele>105.0</ele><time>2026-03-29T16:20:02.999Z</time></trkpt><trkpt lat="45.39398775735963" lon="9.145571978269144"><ele>105.0</ele><time>2026-03-29T16:20:03.999Z</time></trkpt><trkpt lat="45.39406911714038" lon="9.145362109928813"><ele>105.0</ele><time>2026-03-29T16:20:04.999Z</time></trkpt><trkpt lat="45.39415967289541" lon="9.145121592482502"><ele>105.0</ele><time>2026-03-29T16:20:05.999Z</time></trkpt><trkpt lat="45.39423998808458" lon="9.14488748259466"><ele>105.0</ele><time>2026-03-29T16:20:06.999Z</time></trkpt><trkpt lat="45.39431680435323" lon="9.144672084637081"><ele>105.66666666666666</ele><time>2026-03-29T16:20:07.999Z</time></trkpt><trkpt lat="45.3943983024825" lon="9.144450398079696"><ele>106.33333333333333</ele><time>2026-03-29T16:20:08.999Z</time></trkpt><trkpt lat="45.394480342600176" lon="9.144203823060819"><ele>107.0</ele><time>2026-03-29T16:20:09.999Z</time></trkpt><trkpt lat="45.39456409805067" lon="9.143950136835183"><ele>107.0</ele><time>2026-03-29T16:20:10.999Z</time></trkpt><trkpt lat="45.394645480982284" lon="9.14372707287754"><ele>107.0</ele><time>2026-03-29T16:20:11.999Z</time></trkpt><trkpt lat="45.39473627715238" lon="9.143493415164757"><ele>107.0</ele><time>2026-03-29T16:20:12.999Z</time></trkpt><trkpt lat="45.3948300701541" lon="9.143284094006757"><ele>106.66666666666666</ele><time>2026-03-29T16:20:13.999Z</time></trkpt><trkpt lat="45.394917399252265" lon="9.143024711453302"><ele>106.33333333333334</ele><time>2026-03-29T16:20:14.999Z</time></trkpt><trkpt lat="45.39499119007404" lon="9.142773598699486"><ele>106.0</ele><time>2026-03-29T16:20:15.999Z</time></trkpt><trkpt lat="45.39507199431104" lon="9.142545058585936"><ele>105.66666666666667</ele><time>2026-03-29T16:20:16.999Z</time></trkpt><trkpt lat="45.39515336630728" lon="9.142310388877931"><ele>105.33333333333334</ele><time>2026-03-29T16:20:17.999Z</time></trkpt><trkpt lat="45.39523944047029" lon="9.142069680166935"><ele>105.0</ele><time>2026-03-29T16:20:18.999Z</time></trkpt><trkpt lat="45.395326994707865" lon="9.141833003740201"><ele>105.0</ele><time>2026-03-29T16:20:19.999Z</time></trkpt><trkpt lat="45.395403750645166" lon="9.141612187648873"><ele>105.0</ele><time>2026-03-29T16:20:20.999Z</time></trkpt><trkpt lat="45.39547377602545" lon="9.141419298962838"><ele>105.0</ele><time>2026-03-29T16:20:21.999Z</time></trkpt><trkpt lat="45.39553684276298" lon="9.141245719679038"><ele>105.5</ele><time>2026-03-29T16:20:22.999Z</time></trkpt><trkpt lat="45.39559512306217" lon="9.141077060878668"><ele>106.0</ele><time>2026-03-29T16:20:23.999Z</time></trkpt><trkpt lat="45.395650398711815" lon="9.140919425676971"><ele>106.5</ele><time>2026-03-29T16:20:24.999Z</time></trkpt><trkpt lat="45.39570844568418" lon="9.140754303731542"><ele>107.0</ele><time>2026-03-29T16:20:25.999Z</time></trkpt><trkpt lat="45.39576474603753" lon="9.140587769523894"><ele>108.0</ele><time>2026-03-29T16:20:26.999Z</time></trkpt><trkpt lat="45.39582412858982" lon="9.140426185181846"><ele>109.0</ele><time>2026-03-29T16:20:27.999Z</time></trkpt><trkpt lat="45.39587634136525" lon="9.140270672044506"><ele>110.0</ele><time>2026-03-29T16:20:28.999Z</time></trkpt><trkpt lat="45.39592494924344" lon="9.140139460924564"><ele>111.0</ele><time>2026-03-29T16:20:29.999Z</time></trkpt><trkpt lat="45.395970810358136" lon="9.140015070774048"><ele>111.0</ele><time>2026-03-29T16:20:30.999Z</time></trkpt><trkpt lat="45.396011963111235" lon="9.139892361546421"><ele>111.0</ele><time>2026-03-29T16:20:31.999Z</time></trkpt><trkpt lat="45.39605220371649" lon="9.139773737288333"><ele>111.0</ele><time>2026-03-29T16:20:32.999Z</time></trkpt><trkpt lat="45.39608943226462" lon="9.139654276206365"><ele>111.0</ele><time>2026-03-29T16:20:33.999Z</time></trkpt><trkpt lat="45.39612725867684" lon="9.139542068796176"><ele>111.0</ele><time>2026-03-29T16:20:34.999Z</time></trkpt><trkpt lat="45.396169208192546" lon="9.139429210701847"><ele>110.0</ele><time>2026-03-29T16:20:35.999Z</time></trkpt><trkpt lat="45.396204933259774" lon="9.139319751365338"><ele>109.0</ele><time>2026-03-29T16:20:36.999Z</time></trkpt><trkpt lat="45.396240166350665" lon="9.139210845357663"><ele>108.0</ele><time>2026-03-29T16:20:37.999Z</time></trkpt><trkpt lat="45.396276452386644" lon="9.139093456886089"><ele>107.0</ele><time>2026-03-29T16:20:39Z</time></trkpt><trkpt lat="45.39631087151521" lon="9.138961657202533"><ele>106.0</ele><time>2026-03-29T16:20:40Z</time></trkpt><trkpt lat="45.39635239272483" lon="9.138838332831835"><ele>106.0</ele><time>2026-03-29T16:20:41Z</time></trkpt><trkpt lat="45.39639901797763" lon="9.138727433366544"><ele>106.0</ele><time>2026-03-29T16:20:42Z</time></trkpt><trkpt lat="45.396438510145046" lon="9.138619159499974"><ele>106.0</ele><time>2026-03-29T16:20:43Z</time></trkpt><trkpt lat="45.39649894280871" lon="9.138472764238173"><ele>106.0</ele><time>2026-03-29T16:20:45Z</time></trkpt><trkpt lat="45.39653749004501" lon="9.138378840888755"><ele>106.0</ele><time>2026-03-29T16:20:47Z</time></trkpt><trkpt lat="45.39656591161148" lon="9.1382572390663"><ele>105.66666666666667</ele><time>2026-03-29T16:20:49Z</time></trkpt><trkpt lat="45.3966056995045" lon="9.13812640967355"><ele>105.33333333333334</ele><time>2026-03-29T16:20:51Z</time></trkpt><trkpt lat="45.396651732769094" lon="9.138013268510578"><ele>105.0</ele><time>2026-03-29T16:20:53Z</time></trkpt><trkpt lat="45.39668489848727" lon="9.13790379269641"><ele>104.66666666666666</ele><time>2026-03-29T16:20:55Z</time></trkpt><trkpt lat="45.396723586633264" lon="9.137796613649963"><ele>104.33333333333333</ele><time>2026-03-29T16:20:57Z</time></trkpt><trkpt lat="45.39676296055663" lon="9.137700720181192"><ele>104.0</ele><time>2026-03-29T16:20:59Z</time></trkpt><trkpt lat="45.39680112388042" lon="9.137596931554322"><ele>104.0</ele><time>2026-03-29T16:21:01Z</time></trkpt><trkpt lat="45.396836862042356" lon="9.137493076544066"><ele>104.0</ele><time>2026-03-29T16:21:03Z</time></trkpt><trkpt lat="45.39686680954819" lon="9.137379805423288"><ele>104.0</ele><time>2026-03-29T16:21:05Z</time></trkpt><trkpt lat="45.396914156941" lon="9.137270553869453"><ele>104.0</ele><time>2026-03-29T16:21:07Z</time></trkpt><trkpt lat="45.39695583021211" lon="9.137144324331125"><ele>104.0</ele><time>2026-03-29T16:21:09Z</time></trkpt><trkpt lat="45.39698778336121" lon="9.137003080432525"><ele>103.6</ele><time>2026-03-29T16:21:11Z</time></trkpt><trkpt lat="45.397039384012565" lon="9.136884840997874"><ele>103.2</ele><time>2026-03-29T16:21:13Z</time></trkpt><trkpt lat="45.397088463703156" lon="9.13676596736368"><ele>102.8</ele><time>2026-03-29T16:21:15Z</time></trkpt><trkpt lat="45.39715040505278" lon="9.13661665531659"><ele>102.39999999999999</ele><time>2026-03-29T16:21:18Z</time></trkpt><trkpt lat="45.39718905589736" lon="9.136502948708374"><ele>102.0</ele><time>2026-03-29T16:21:19Z</time></trkpt><trkpt lat="45.39723203756348" lon="9.136368771910744"><ele>103.0</ele><time>2026-03-29T16:21:20Z</time></trkpt><trkpt lat="45.39727950199799" lon="9.13622551373185"><ele>104.0</ele><time>2026-03-29T16:21:21Z</time></trkpt><trkpt lat="45.39732102989506" lon="9.136095347283563"><ele>104.99999999999999</ele><time>2026-03-29T16:21:22Z</time></trkpt><trkpt lat="45.397365736443135" lon="9.135974886389446"><ele>106.0</ele><time>2026-03-29T16:21:23Z</time></trkpt><trkpt lat="45.39740433632089" lon="9.135860566748688"><ele>107.0</ele><time>2026-03-29T16:21:24Z</time></trkpt><trkpt lat="45.397442386008386" lon="9.135737916000854"><ele>106.5</ele><time>2026-03-29T16:21:25Z</time></trkpt><trkpt lat="45.3974802282269" lon="9.135594003006867"><ele>106.0</ele><time>2026-03-29T16:21:26Z</time></trkpt><trkpt lat="45.39751569986056" lon="9.135446076748575"><ele>105.5</ele><time>2026-03-29T16:21:27Z</time></trkpt><trkpt lat="45.39754975884144" lon="9.135290087521193"><ele>105.0</ele><time>2026-03-29T16:21:28Z</time></trkpt><trkpt lat="45.397581413266735" lon="9.135128589555304"><ele>105.0</ele><time>2026-03-29T16:21:29Z</time></trkpt><trkpt lat="45.39761322837377" lon="9.1349627306512"><ele>105.0</ele><time>2026-03-29T16:21:30Z</time></trkpt><trkpt lat="45.39764624101838" lon="9.134793294190496"><ele>105.0</ele><time>2026-03-29T16:21:31Z</time></trkpt><trkpt lat="45.39768361031351" lon="9.134620023090404"><ele>105.0</ele><time>2026-03-29T16:21:32Z</time></trkpt><trkpt lat="45.39771595877417" lon="9.134450088509048"><ele>105.0</ele><time>2026-03-29T16:21:33Z</time></trkpt><trkpt lat="45.39775472419045" lon="9.134269437578228"><ele>105.0</ele><time>2026-03-29T16:21:34Z</time></trkpt><trkpt lat="45.39778964006622" lon="9.134085858221086"><ele>105.0</ele><time>2026-03-29T16:21:35Z</time></trkpt><trkpt lat="45.397832602510405" lon="9.133908136332318"><ele>105.0</ele><time>2026-03-29T16:21:36Z</time></trkpt><trkpt lat="45.39789064069984" lon="9.133716831627543"><ele>105.66666666666666</ele><time>2026-03-29T16:21:37Z</time></trkpt><trkpt lat="45.397915093973914" lon="9.133498329474548"><ele>106.33333333333333</ele><time>2026-03-29T16:21:38Z</time></trkpt><trkpt lat="45.39796025413415" lon="9.133301450190414"><ele>107.0</ele><time>2026-03-29T16:21:39Z</time></trkpt><trkpt lat="45.398001736306966" lon="9.133095714208327"><ele>107.0</ele><time>2026-03-29T16:21:40Z</time></trkpt><trkpt lat="45.39804438939809" lon="9.132891686085879"><ele>107.0</ele><time>2026-03-29T16:21:41Z</time></trkpt><trkpt lat="45.39808975080449" lon="9.132675298900397"><ele>107.0</ele><time>2026-03-29T16:21:42Z</time></trkpt><trkpt lat="45.398130851472786" lon="9.132461435872168"><ele>107.0</ele><time>2026-03-29T16:21:43Z</time></trkpt><trkpt lat="45.39819603024723" lon="9.132201386805328"><ele>107.0</ele><time>2026-03-29T16:21:44Z</time></trkpt><trkpt lat="45.39824839473018" lon="9.131967444034878"><ele>107.0</ele><time>2026-03-29T16:21:45Z</time></trkpt><trkpt lat="45.398308987663185" lon="9.13168760415324"><ele>107.33333333333333</ele><time>2026-03-29T16:21:46Z</time></trkpt><trkpt lat="45.39837211188337" lon="9.131412986855766"><ele>107.66666666666666</ele><time>2026-03-29T16:21:47Z</time></trkpt><trkpt lat="45.39841829800528" lon="9.131146571758075"><ele>108.0</ele><time>2026-03-29T16:21:48Z</time></trkpt><trkpt lat="45.39847451021243" lon="9.130908349710118"><ele>107.33333333333334</ele><time>2026-03-29T16:21:49Z</time></trkpt><trkpt lat="45.398518237515546" lon="9.130674233339198"><ele>106.66666666666667</ele><time>2026-03-29T16:21:50Z</time></trkpt><trkpt lat="45.39857406088743" lon="9.130439780116694"><ele>106.0</ele><time>2026-03-29T16:21:51Z</time></trkpt><trkpt lat="45.39862986572499" lon="9.130196401571048"><ele>106.0</ele><time>2026-03-29T16:21:52Z</time></trkpt><trkpt lat="45.39869413869447" lon="9.129937189437124"><ele>106.0</ele><time>2026-03-29T16:21:53Z</time></trkpt><trkpt lat="45.39875612349636" lon="9.129683579724002"><ele>106.0</ele><time>2026-03-29T16:21:54Z</time></trkpt><trkpt lat="45.398816720890565" lon="9.129436905433948"><ele>105.66666666666667</ele><time>2026-03-29T16:21:55Z</time></trkpt><trkpt lat="45.39886750239964" lon="9.129220755957165"><ele>105.33333333333334</ele><time>2026-03-29T16:21:56Z</time></trkpt><trkpt lat="45.39891387878303" lon="9.129000209609375"><ele>105.0</ele><time>2026-03-29T16:21:57Z</time></trkpt><trkpt lat="45.3989820666877" lon="9.128784869514737"><ele>105.66666666666666</ele><time>2026-03-29T16:21:58Z</time></trkpt><trkpt lat="45.3990433633117" lon="9.128565519487996"><ele>106.33333333333333</ele><time>2026-03-29T16:21:59Z</time></trkpt><trkpt lat="45.39910604700578" lon="9.12834989382257"><ele>107.0</ele><time>2026-03-29T16:22:00Z</time></trkpt><trkpt lat="45.399168334570994" lon="9.128129377321397"><ele>107.33333333333333</ele><time>2026-03-29T16:22:01Z</time></trkpt><trkpt lat="45.39924259490022" lon="9.127913473892782"><ele>107.66666666666666</ele><time>2026-03-29T16:22:02Z</time></trkpt><trkpt lat="45.39931780090419" lon="9.127699726182296"><ele>108.0</ele><time>2026-03-29T16:22:03Z</time></trkpt><trkpt lat="45.39939109957647" lon="9.12748026475103"><ele>107.0</ele><time>2026-03-29T16:22:04Z</time></trkpt><trkpt lat="45.39946395653256" lon="9.127258242875689"><ele>106.0</ele><time>2026-03-29T16:22:05Z</time></trkpt><trkpt lat="45.399522998535915" lon="9.12704534271272"><ele>105.0</ele><time>2026-03-29T16:22:06Z</time></trkpt><trkpt lat="45.399612768681756" lon="9.126831993153687"><ele>105.0</ele><time>2026-03-29T16:22:07Z</time></trkpt><trkpt lat="45.39969499798668" lon="9.126611082415815"><ele>105.0</ele><time>2026-03-29T16:22:08Z</time></trkpt><trkpt lat="45.399776397199744" lon="9.126392071031097"><ele>105.0</ele><time>2026-03-29T16:22:08.999Z</time></trkpt><trkpt lat="45.39984294635409" lon="9.126184198894723"><ele>105.0</ele><time>2026-03-29T16:22:09.999Z</time></trkpt><trkpt lat="45.39992801979323" lon="9.125981661169812"><ele>105.0</ele><time>2026-03-29T16:22:10.999Z</time></trkpt><trkpt lat="45.40000979674612" lon="9.12577643024997"><ele>105.0</ele><time>2026-03-29T16:22:11.999Z</time></trkpt><trkpt lat="45.40008935704699" lon="9.125580134979577"><ele>105.66666666666666</ele><time>2026-03-29T16:22:12.999Z</time></trkpt><trkpt lat="45.400172040412485" lon="9.125383208151435"><ele>106.33333333333333</ele><time>2026-03-29T16:22:13.999Z</time></trkpt><trkpt lat="45.40025819559389" lon="9.12518342961092"><ele>107.0</ele><time>2026-03-29T16:22:14.999Z</time></trkpt><trkpt lat="45.40034600075479" lon="9.1249850361066"><ele>107.0</ele><time>2026-03-29T16:22:15.999Z</time></trkpt><trkpt lat="45.400432813285775" lon="9.124777949318096"><ele>107.0</ele><time>2026-03-29T16:22:16.999Z</time></trkpt><trkpt lat="45.40052259473765" lon="9.124579574302699"><ele>107.0</ele><time>2026-03-29T16:22:17.999Z</time></trkpt><trkpt lat="45.40061556048808" lon="9.12438091519873"><ele>107.66666666666666</ele><time>2026-03-29T16:22:18.999Z</time></trkpt><trkpt lat="45.40071635502072" lon="9.124175571628555"><ele>108.33333333333334</ele><time>2026-03-29T16:22:19.999Z</time></trkpt><trkpt lat="45.40081243852469" lon="9.123969797167147"><ele>109.0</ele><time>2026-03-29T16:22:20.999Z</time></trkpt><trkpt lat="45.400916662552525" lon="9.123760462307676"><ele>109.0</ele><time>2026-03-29T16:22:21.999Z</time></trkpt><trkpt lat="45.401024358930265" lon="9.123552575738199"><ele>109.0</ele><time>2026-03-29T16:22:22.999Z</time></trkpt><trkpt lat="45.401125858879524" lon="9.12332927576152"><ele>109.0</ele><time>2026-03-29T16:22:23.999Z</time></trkpt><trkpt lat="45.40124185647883" lon="9.123116806108015"><ele>108.66666666666667</ele><time>2026-03-29T16:22:24.999Z</time></trkpt><trkpt lat="45.40135810703791" lon="9.122905005575134"><ele>108.33333333333334</ele><time>2026-03-29T16:22:25.999Z</time></trkpt><trkpt lat="45.40147206405853" lon="9.12269294036477"><ele>108.0</ele><time>2026-03-29T16:22:26.999Z</time></trkpt><trkpt lat="45.40158907480644" lon="9.122486963639686"><ele>107.66666666666666</ele><time>2026-03-29T16:22:27.999Z</time></trkpt><trkpt lat="45.401702555572626" lon="9.122276102005634"><ele>107.33333333333333</ele><time>2026-03-29T16:22:28.999Z</time></trkpt><trkpt lat="45.40182131704805" lon="9.122071139621756"><ele>107.0</ele><time>2026-03-29T16:22:29.999Z</time></trkpt><trkpt lat="45.40194154510285" lon="9.12186872212473"><ele>107.0</ele><time>2026-03-29T16:22:30.999Z</time></trkpt><trkpt lat="45.40205986480052" lon="9.12165694166066"><ele>107.0</ele><time>2026-03-29T16:22:31.999Z</time></trkpt><trkpt lat="45.40218176973665" lon="9.121446457399792"><ele>107.0</ele><time>2026-03-29T16:22:32.999Z</time></trkpt><trkpt lat="45.40233443075607" lon="9.12125639213973"><ele>107.33333333333333</ele><time>2026-03-29T16:22:33.999Z</time></trkpt><trkpt lat="45.40245581019982" lon="9.121030364912713"><ele>107.66666666666666</ele><time>2026-03-29T16:22:34.999Z</time></trkpt><trkpt lat="45.402589771560855" lon="9.120795347236008"><ele>108.0</ele><time>2026-03-29T16:22:35.999Z</time></trkpt><trkpt lat="45.40273555142538" lon="9.120540650382639"><ele>108.0</ele><time>2026-03-29T16:22:36.999Z</time></trkpt><trkpt lat="45.402844971658865" lon="9.120274674666906"><ele>108.0</ele><time>2026-03-29T16:22:38.999Z</time></trkpt><trkpt lat="45.40296626126002" lon="9.120071307092356"><ele>108.0</ele><time>2026-03-29T16:22:39.999Z</time></trkpt><trkpt lat="45.403084637339276" lon="9.119865891593511"><ele>108.33333333333334</ele><time>2026-03-29T16:22:40.999Z</time></trkpt><trkpt lat="45.40320888143991" lon="9.119654071079259"><ele>108.66666666666667</ele><time>2026-03-29T16:22:41.999Z</time></trkpt><trkpt lat="45.403319007931685" lon="9.119439708485306"><ele>109.0</ele><time>2026-03-29T16:22:42.999Z</time></trkpt><trkpt lat="45.40344515601838" lon="9.119232164036475"><ele>109.0</ele><time>2026-03-29T16:22:43.999Z</time></trkpt><trkpt lat="45.40357706933184" lon="9.11899467645058"><ele>109.0</ele><time>2026-03-29T16:22:45Z</time></trkpt><trkpt lat="45.403711050873675" lon="9.118760462066417"><ele>109.0</ele><time>2026-03-29T16:22:46Z</time></trkpt><trkpt lat="45.403848575730386" lon="9.118535338015441"><ele>109.0</ele><time>2026-03-29T16:22:47Z</time></trkpt><trkpt lat="45.403982717637994" lon="9.118304184058594"><ele>109.0</ele><time>2026-03-29T16:22:48Z</time></trkpt><trkpt lat="45.404119746683214" lon="9.118065309610767"><ele>109.0</ele><time>2026-03-29T16:22:49Z</time></trkpt><trkpt lat="45.40425993832053" lon="9.117824057793587"><ele>109.0</ele><time>2026-03-29T16:22:50Z</time></trkpt><trkpt lat="45.404397296861355" lon="9.117580008409577"><ele>109.0</ele><time>2026-03-29T16:22:51Z</time></trkpt><trkpt lat="45.40452895578352" lon="9.117344690606547"><ele>109.0</ele><time>2026-03-29T16:22:52Z</time></trkpt><trkpt lat="45.40466345067511" lon="9.117112633321042"><ele>109.33333333333334</ele><time>2026-03-29T16:22:53Z</time></trkpt><trkpt lat="45.40480117500164" lon="9.116872168128372"><ele>109.66666666666666</ele><time>2026-03-29T16:22:54Z</time></trkpt><trkpt lat="45.40494306713551" lon="9.116630068944072"><ele>110.0</ele><time>2026-03-29T16:22:55Z</time></trkpt><trkpt lat="45.40507994754229" lon="9.116387859403565"><ele>109.33333333333333</ele><time>2026-03-29T16:22:56Z</time></trkpt><trkpt lat="45.405213863583754" lon="9.116148981617785"><ele>108.66666666666666</ele><time>2026-03-29T16:22:57Z</time></trkpt><trkpt lat="45.405347443129585" lon="9.115914357350464"><ele>108.0</ele><time>2026-03-29T16:22:58Z</time></trkpt><trkpt lat="45.405481071078526" lon="9.115683580848824"><ele>108.0</ele><time>2026-03-29T16:22:59Z</time></trkpt><trkpt lat="45.4056075245515" lon="9.115463324422686"><ele>108.0</ele><time>2026-03-29T16:23:00Z</time></trkpt><trkpt lat="45.40574422531812" lon="9.115239436983494"><ele>108.0</ele><time>2026-03-29T16:23:01Z</time></trkpt><trkpt lat="45.40587896672595" lon="9.114999097667676"><ele>107.66666666666666</ele><time>2026-03-29T16:23:02Z</time></trkpt><trkpt lat="45.406010293392455" lon="9.114769381311937"><ele>107.33333333333333</ele><time>2026-03-29T16:23:03Z</time></trkpt><trkpt lat="45.40614444882767" lon="9.114537326266543"><ele>107.0</ele><time>2026-03-29T16:23:04Z</time></trkpt><trkpt lat="45.406279850057146" lon="9.11430063994798"><ele>107.66666666666666</ele><time>2026-03-29T16:23:05Z</time></trkpt><trkpt lat="45.4064157798503" lon="9.114064061140791"><ele>108.33333333333334</ele><time>2026-03-29T16:23:06Z</time></trkpt><trkpt lat="45.4065522772913" lon="9.113827358105505"><ele>109.0</ele><time>2026-03-29T16:23:07Z</time></trkpt><trkpt lat="45.40668813423732" lon="9.113584694247901"><ele>109.0</ele><time>2026-03-29T16:23:08Z</time></trkpt><trkpt lat="45.40682734473908" lon="9.113350821194926"><ele>109.0</ele><time>2026-03-29T16:23:09Z</time></trkpt><trkpt lat="45.40695136899666" lon="9.113112486033284"><ele>109.0</ele><time>2026-03-29T16:23:10Z</time></trkpt><trkpt lat="45.40709357088124" lon="9.112869225246712"><ele>109.0</ele><time>2026-03-29T16:23:11Z</time></trkpt><trkpt lat="45.40723130756669" lon="9.112631042947392"><ele>109.0</ele><time>2026-03-29T16:23:12Z</time></trkpt><trkpt lat="45.40736671046964" lon="9.112399835033584"><ele>109.0</ele><time>2026-03-29T16:23:13Z</time></trkpt><trkpt lat="45.40750845740728" lon="9.112170996682384"><ele>109.0</ele><time>2026-03-29T16:23:14Z</time></trkpt><trkpt lat="45.407644212764495" lon="9.11193300658381"><ele>109.0</ele><time>2026-03-29T16:23:15Z</time></trkpt><trkpt lat="45.407778362314836" lon="9.1117010198665"><ele>109.0</ele><time>2026-03-29T16:23:16Z</time></trkpt><trkpt lat="45.407904565555754" lon="9.111470051562351"><ele>109.0</ele><time>2026-03-29T16:23:17Z</time></trkpt><trkpt lat="45.40803010309718" lon="9.11124116974416"><ele>109.0</ele><time>2026-03-29T16:23:18Z</time></trkpt><trkpt lat="45.40814786526423" lon="9.11104217296371"><ele>109.0</ele><time>2026-03-29T16:23:19Z</time></trkpt><trkpt lat="45.408268006684516" lon="9.110830421038417"><ele>109.0</ele><time>2026-03-29T16:23:20Z</time></trkpt><trkpt lat="45.408387473707066" lon="9.110625168800391"><ele>109.0</ele><time>2026-03-29T16:23:21Z</time></trkpt><trkpt lat="45.408508137490536" lon="9.110418896054174"><ele>109.0</ele><time>2026-03-29T16:23:22Z</time></trkpt><trkpt lat="45.40861459259427" lon="9.110212144976341"><ele>109.0</ele><time>2026-03-29T16:23:23Z</time></trkpt><trkpt lat="45.40873552270517" lon="9.11000996992397"><ele>109.0</ele><time>2026-03-29T16:23:24Z</time></trkpt><trkpt lat="45.40885173386395" lon="9.1097993327264"><ele>109.0</ele><time>2026-03-29T16:23:25Z</time></trkpt><trkpt lat="45.40896354705338" lon="9.109605411835846"><ele>109.0</ele><time>2026-03-29T16:23:26Z</time></trkpt><trkpt lat="45.40908178605892" lon="9.109400940098949"><ele>109.0</ele><time>2026-03-29T16:23:27Z</time></trkpt><trkpt lat="45.40920071418043" lon="9.109191774655109"><ele>109.0</ele><time>2026-03-29T16:23:28Z</time></trkpt><trkpt lat="45.40932661259249" lon="9.108981033226355"><ele>109.0</ele><time>2026-03-29T16:23:29Z</time></trkpt><trkpt lat="45.40945928204467" lon="9.10876154769746"><ele>109.0</ele><time>2026-03-29T16:23:30Z</time></trkpt><trkpt lat="45.4095822653896" lon="9.108534266080113"><ele>109.0</ele><time>2026-03-29T16:23:31Z</time></trkpt><trkpt lat="45.40970578236497" lon="9.108308414766649"><ele>109.33333333333334</ele><time>2026-03-29T16:23:32Z</time></trkpt><trkpt lat="45.409833351381046" lon="9.108076696682264"><ele>109.66666666666666</ele><time>2026-03-29T16:23:33Z</time></trkpt><trkpt lat="45.409963038387936" lon="9.10784018538008"><ele>110.0</ele><time>2026-03-29T16:23:34Z</time></trkpt><trkpt lat="45.41008544031545" lon="9.107603200780982"><ele>110.33333333333333</ele><time>2026-03-29T16:23:35Z</time></trkpt><trkpt lat="45.41021169227097" lon="9.10737631261149"><ele>110.66666666666666</ele><time>2026-03-29T16:23:36Z</time></trkpt><trkpt lat="45.410324635909625" lon="9.107134613973367"><ele>111.0</ele><time>2026-03-29T16:23:37Z</time></trkpt><trkpt lat="45.41043581940062" lon="9.106894693558427"><ele>111.33333333333334</ele><time>2026-03-29T16:23:38Z</time></trkpt><trkpt lat="45.41054394435204" lon="9.10664864085633"><ele>111.66666666666667</ele><time>2026-03-29T16:23:39Z</time></trkpt><trkpt lat="45.41064650118312" lon="9.106404335920395"><ele>112.0</ele><time>2026-03-29T16:23:40Z</time></trkpt><trkpt lat="45.41075574778091" lon="9.106167264074758"><ele>111.33333333333334</ele><time>2026-03-29T16:23:41Z</time></trkpt><trkpt lat="45.410859670371785" lon="9.105927993874243"><ele>110.66666666666666</ele><time>2026-03-29T16:23:42Z</time></trkpt><trkpt lat="45.41096102683271" lon="9.105683298204722"><ele>110.0</ele><time>2026-03-29T16:23:43Z</time></trkpt><trkpt lat="45.41105704567576" lon="9.105443561657236"><ele>109.66666666666666</ele><time>2026-03-29T16:23:44Z</time></trkpt><trkpt lat="45.41115057403338" lon="9.105203008221823"><ele>109.33333333333334</ele><time>2026-03-29T16:23:45Z</time></trkpt><trkpt lat="45.41124254245344" lon="9.104961285581126"><ele>109.0</ele><time>2026-03-29T16:23:46Z</time></trkpt><trkpt lat="45.41133237308305" lon="9.104717347875047"><ele>109.0</ele><time>2026-03-29T16:23:47Z</time></trkpt><trkpt lat="45.41141949520499" lon="9.104473149716787"><ele>109.0</ele><time>2026-03-29T16:23:48Z</time></trkpt><trkpt lat="45.411504804769805" lon="9.104222918513273"><ele>109.0</ele><time>2026-03-29T16:23:49Z</time></trkpt><trkpt lat="45.41159264171767" lon="9.10395848071534"><ele>109.33333333333334</ele><time>2026-03-29T16:23:50Z</time></trkpt><trkpt lat="45.41168245170616" lon="9.103690047314904"><ele>109.66666666666666</ele><time>2026-03-29T16:23:51Z</time></trkpt><trkpt lat="45.41176344647096" lon="9.103413227263124"><ele>110.0</ele><time>2026-03-29T16:23:52Z</time></trkpt><trkpt lat="45.41184370831911" lon="9.10313880548888"><ele>110.0</ele><time>2026-03-29T16:23:53Z</time></trkpt><trkpt lat="45.41192643360995" lon="9.102873634688999"><ele>110.0</ele><time>2026-03-29T16:23:54Z</time></trkpt><trkpt lat="45.411999821667" lon="9.102605126459617"><ele>110.0</ele><time>2026-03-29T16:23:55Z</time></trkpt><trkpt lat="45.41207318621263" lon="9.102345518516035"><ele>110.33333333333333</ele><time>2026-03-29T16:23:56Z</time></trkpt><trkpt lat="45.41214467585218" lon="9.102082519747988"><ele>110.66666666666666</ele><time>2026-03-29T16:23:57Z</time></trkpt><trkpt lat="45.41222147708414" lon="9.101818581760078"><ele>111.0</ele><time>2026-03-29T16:23:58Z</time></trkpt><trkpt lat="45.412299749668215" lon="9.101554817174556"><ele>111.0</ele><time>2026-03-29T16:23:59Z</time></trkpt><trkpt lat="45.41237181544079" lon="9.101303250654192"><ele>111.0</ele><time>2026-03-29T16:24:00Z</time></trkpt><trkpt lat="45.41244034129892" lon="9.101059112146485"><ele>111.0</ele><time>2026-03-29T16:24:01Z</time></trkpt><trkpt lat="45.412508488215465" lon="9.100813776959429"><ele>110.33333333333334</ele><time>2026-03-29T16:24:02Z</time></trkpt><trkpt lat="45.412578169062385" lon="9.100567385691155"><ele>109.66666666666667</ele><time>2026-03-29T16:24:03Z</time></trkpt><trkpt lat="45.41265242029985" lon="9.100323704723237"><ele>109.0</ele><time>2026-03-29T16:24:04Z</time></trkpt><trkpt lat="45.41272095212881" lon="9.100072548076826"><ele>109.66666666666667</ele><time>2026-03-29T16:24:05Z</time></trkpt><trkpt lat="45.412791088794556" lon="9.099825242579987"><ele>110.33333333333334</ele><time>2026-03-29T16:24:06Z</time></trkpt><trkpt lat="45.412865966118645" lon="9.099574623334323"><ele>111.0</ele><time>2026-03-29T16:24:07Z</time></trkpt><trkpt lat="45.41293645862625" lon="9.099333115000649"><ele>111.0</ele><time>2026-03-29T16:24:08Z</time></trkpt><trkpt lat="45.41300190723901" lon="9.099092711301445"><ele>111.0</ele><time>2026-03-29T16:24:09Z</time></trkpt><trkpt lat="45.41307044856909" lon="9.098855843100997"><ele>111.0</ele><time>2026-03-29T16:24:10Z</time></trkpt><trkpt lat="45.41313927892902" lon="9.098610076369123"><ele>111.33333333333334</ele><time>2026-03-29T16:24:11Z</time></trkpt><trkpt lat="45.4132080331536" lon="9.098368643942825"><ele>111.66666666666667</ele><time>2026-03-29T16:24:12Z</time></trkpt><trkpt lat="45.413281158307036" lon="9.098133298178364"><ele>112.0</ele><time>2026-03-29T16:24:13Z</time></trkpt><trkpt lat="45.413352487132656" lon="9.097881782521027"><ele>112.0</ele><time>2026-03-29T16:24:14Z</time></trkpt><trkpt lat="45.41341753080189" lon="9.097644980202832"><ele>112.0</ele><time>2026-03-29T16:24:15Z</time></trkpt><trkpt lat="45.41348371606038" lon="9.097397221350644"><ele>112.0</ele><time>2026-03-29T16:24:15.999Z</time></trkpt><trkpt lat="45.41354787392194" lon="9.097147688155346"><ele>112.0</ele><time>2026-03-29T16:24:16.999Z</time></trkpt><trkpt lat="45.41361948879766" lon="9.096904170338572"><ele>112.0</ele><time>2026-03-29T16:24:17.999Z</time></trkpt><trkpt lat="45.41368737781385" lon="9.096660491430923"><ele>112.0</ele><time>2026-03-29T16:24:18.999Z</time></trkpt><trkpt lat="45.41376135028052" lon="9.096421046831443"><ele>111.66666666666667</ele><time>2026-03-29T16:24:19.999Z</time></trkpt><trkpt lat="45.41382729259751" lon="9.09620264915333"><ele>111.33333333333334</ele><time>2026-03-29T16:24:20.999Z</time></trkpt><trkpt lat="45.41388946982096" lon="9.095981967142821"><ele>111.0</ele><time>2026-03-29T16:24:21.999Z</time></trkpt><trkpt lat="45.41395007203981" lon="9.095757180859843"><ele>110.33333333333334</ele><time>2026-03-29T16:24:22.999Z</time></trkpt><trkpt lat="45.41401878158248" lon="9.09552027801511"><ele>109.66666666666667</ele><time>2026-03-29T16:24:23.999Z</time></trkpt><trkpt lat="45.41409344300791" lon="9.095266672819811"><ele>109.0</ele><time>2026-03-29T16:24:24.999Z</time></trkpt><trkpt lat="45.41416547995154" lon="9.095024104586214"><ele>109.33333333333334</ele><time>2026-03-29T16:24:25.999Z</time></trkpt><trkpt lat="45.41421901392015" lon="9.094754342837765"><ele>109.66666666666666</ele><time>2026-03-29T16:24:26.999Z</time></trkpt><trkpt lat="45.41430949832658" lon="9.094506713142406"><ele>110.0</ele><time>2026-03-29T16:24:27.999Z</time></trkpt><trkpt lat="45.414381534435535" lon="9.09425520437702"><ele>110.0</ele><time>2026-03-29T16:24:28.999Z</time></trkpt><trkpt lat="45.41445624745226" lon="9.09399656423061"><ele>110.0</ele><time>2026-03-29T16:24:29.999Z</time></trkpt><trkpt lat="45.4145279062216" lon="9.093743844152858"><ele>110.0</ele><time>2026-03-29T16:24:30.999Z</time></trkpt><trkpt lat="45.414598420203546" lon="9.093488724234081"><ele>110.33333333333333</ele><time>2026-03-29T16:24:31.999Z</time></trkpt><trkpt lat="45.41467281746053" lon="9.093231153016502"><ele>110.66666666666666</ele><time>2026-03-29T16:24:32.999Z</time></trkpt><trkpt lat="45.41474663373666" lon="9.092973813043779"><ele>111.0</ele><time>2026-03-29T16:24:33.999Z</time></trkpt><trkpt lat="45.414821550808064" lon="9.092714916414176"><ele>111.0</ele><time>2026-03-29T16:24:34.999Z</time></trkpt><trkpt lat="45.414879044886646" lon="9.09246166005706"><ele>111.0</ele><time>2026-03-29T16:24:35.999Z</time></trkpt><trkpt lat="45.41495200826976" lon="9.092205926162325"><ele>111.0</ele><time>2026-03-29T16:24:36.999Z</time></trkpt><trkpt lat="45.41503652067225" lon="9.091948685050685"><ele>110.66666666666666</ele><time>2026-03-29T16:24:37.999Z</time></trkpt><trkpt lat="45.41511057725051" lon="9.091699875603037"><ele>110.33333333333333</ele><time>2026-03-29T16:24:38.999Z</time></trkpt><trkpt lat="45.415183427140825" lon="9.091446958962988"><ele>110.0</ele><time>2026-03-29T16:24:39.999Z</time></trkpt><trkpt lat="45.41525403405712" lon="9.091194851772698"><ele>110.0</ele><time>2026-03-29T16:24:40.999Z</time></trkpt><trkpt lat="45.41531944873118" lon="9.090942190386604"><ele>110.0</ele><time>2026-03-29T16:24:41.999Z</time></trkpt><trkpt lat="45.41539213115608" lon="9.090688648523289"><ele>110.0</ele><time>2026-03-29T16:24:42.999Z</time></trkpt><trkpt lat="45.415468562672444" lon="9.090431892269315"><ele>109.33333333333333</ele><time>2026-03-29T16:24:43.999Z</time></trkpt><trkpt lat="45.415542144037765" lon="9.090179551155705"><ele>108.66666666666666</ele><time>2026-03-29T16:24:44.999Z</time></trkpt><trkpt lat="45.41561469496131" lon="9.089924742310222"><ele>108.0</ele><time>2026-03-29T16:24:45.999Z</time></trkpt><trkpt lat="45.41568984375233" lon="9.089668112138874"><ele>108.0</ele><time>2026-03-29T16:24:46.999Z</time></trkpt><trkpt lat="45.41576619543065" lon="9.089414280370242"><ele>108.0</ele><time>2026-03-29T16:24:47.999Z</time></trkpt><trkpt lat="45.4158363664814" lon="9.08915322160074"><ele>108.0</ele><time>2026-03-29T16:24:48.999Z</time></trkpt><trkpt lat="45.415901350194154" lon="9.088909658682635"><ele>109.25</ele><time>2026-03-29T16:24:49.999Z</time></trkpt><trkpt lat="45.41596586949396" lon="9.088720832939343"><ele>110.5</ele><time>2026-03-29T16:24:51Z</time></trkpt><trkpt lat="45.41601816844509" lon="9.088542991225934"><ele>111.75</ele><time>2026-03-29T16:24:52Z</time></trkpt><trkpt lat="45.4160629179569" lon="9.088396236456544"><ele>113.0</ele><time>2026-03-29T16:24:53Z</time></trkpt><trkpt lat="45.41610594293453" lon="9.088266103443361"><ele>112.80000000000001</ele><time>2026-03-29T16:24:54Z</time></trkpt><trkpt lat="45.41614750136797" lon="9.088148839038533"><ele>112.60000000000001</ele><time>2026-03-29T16:24:55Z</time></trkpt><trkpt lat="45.41619196346493" lon="9.088034913026483"><ele>112.39999999999999</ele><time>2026-03-29T16:24:56Z</time></trkpt><trkpt lat="45.41623847103284" lon="9.087916309782388"><ele>112.19999999999999</ele><time>2026-03-29T16:24:57Z</time></trkpt><trkpt lat="45.41627917464336" lon="9.087802815804231"><ele>112.0</ele><time>2026-03-29T16:24:58Z</time></trkpt><trkpt lat="45.41632937749298" lon="9.087670979939448"><ele>112.25</ele><time>2026-03-29T16:24:59Z</time></trkpt><trkpt lat="45.41639055011973" lon="9.087521022741328"><ele>112.5</ele><time>2026-03-29T16:25:00Z</time></trkpt><trkpt lat="45.41645827739269" lon="9.087361515875122"><ele>112.75</ele><time>2026-03-29T16:25:01Z</time></trkpt><trkpt lat="45.416522968763054" lon="9.087189767594017"><ele>113.0</ele><time>2026-03-29T16:25:02Z</time></trkpt><trkpt lat="45.416600685221695" lon="9.087007130495603"><ele>113.0</ele><time>2026-03-29T16:25:03Z</time></trkpt><trkpt lat="45.416679872718234" lon="9.08683167179789"><ele>113.0</ele><time>2026-03-29T16:25:04Z</time></trkpt><trkpt lat="45.416747645826504" lon="9.086642317635029"><ele>113.0</ele><time>2026-03-29T16:25:05Z</time></trkpt><trkpt lat="45.416815354992174" lon="9.08646730852252"><ele>113.0</ele><time>2026-03-29T16:25:06Z</time></trkpt><trkpt lat="45.416896052334046" lon="9.086334384827909"><ele>113.2</ele><time>2026-03-29T16:25:07Z</time></trkpt><trkpt lat="45.41696913973518" lon="9.086221257629976"><ele>113.4</ele><time>2026-03-29T16:25:08Z</time></trkpt><trkpt lat="45.41702960813975" lon="9.08606499703697"><ele>113.60000000000001</ele><time>2026-03-29T16:25:09Z</time></trkpt><trkpt lat="45.41708921473515" lon="9.085933049330897"><ele>113.80000000000001</ele><time>2026-03-29T16:25:10Z</time></trkpt><trkpt lat="45.41715189642673" lon="9.085814811236602"><ele>114.0</ele><time>2026-03-29T16:25:11Z</time></trkpt><trkpt lat="45.41720805446842" lon="9.085715245726256"><ele>113.5</ele><time>2026-03-29T16:25:12Z</time></trkpt><trkpt lat="45.4172454403414" lon="9.085620625317349"><ele>113.0</ele><time>2026-03-29T16:25:13Z</time></trkpt><trkpt lat="45.41728463956115" lon="9.085523651093576"><ele>112.5</ele><time>2026-03-29T16:25:14Z</time></trkpt><trkpt lat="45.417320067225546" lon="9.085447132576293"><ele>112.0</ele><time>2026-03-29T16:25:15Z</time></trkpt><trkpt lat="45.417394916606305" lon="9.08530320345804"><ele>111.5</ele><time>2026-03-29T16:25:17Z</time></trkpt><trkpt lat="45.417441470459664" lon="9.085231035288807"><ele>111.0</ele><time>2026-03-29T16:25:18Z</time></trkpt><trkpt lat="45.417489941673395" lon="9.085154617685303"><ele>111.0</ele><time>2026-03-29T16:25:19Z</time></trkpt><trkpt lat="45.417538548758245" lon="9.085067526825483"><ele>111.0</ele><time>2026-03-29T16:25:20Z</time></trkpt><trkpt lat="45.41758958842614" lon="9.084964901518815"><ele>111.0</ele><time>2026-03-29T16:25:21Z</time></trkpt><trkpt lat="45.417657726400726" lon="9.084837479774754"><ele>111.0</ele><time>2026-03-29T16:25:22Z</time></trkpt><trkpt lat="45.417743300942746" lon="9.084693623371688"><ele>111.0</ele><time>2026-03-29T16:25:23Z</time></trkpt><trkpt lat="45.41783033957767" lon="9.084538473207145"><ele>111.25</ele><time>2026-03-29T16:25:24Z</time></trkpt><trkpt lat="45.4179299699992" lon="9.084394431785878"><ele>111.5</ele><time>2026-03-29T16:25:25Z</time></trkpt><trkpt lat="45.4180375932814" lon="9.084250824902659"><ele>111.75</ele><time>2026-03-29T16:25:26Z</time></trkpt><trkpt lat="45.41814260912226" lon="9.084103780552699"><ele>112.0</ele><time>2026-03-29T16:25:27Z</time></trkpt><trkpt lat="45.4182434462908" lon="9.083959029823077"><ele>112.5</ele><time>2026-03-29T16:25:28Z</time></trkpt><trkpt lat="45.418342474170124" lon="9.083816230436067"><ele>113.0</ele><time>2026-03-29T16:25:29Z</time></trkpt><trkpt lat="45.41844244293319" lon="9.083681263109929"><ele>113.5</ele><time>2026-03-29T16:25:30Z</time></trkpt><trkpt lat="45.41854341065817" lon="9.083546684436147"><ele>114.0</ele><time>2026-03-29T16:25:31Z</time></trkpt><trkpt lat="45.41864984953587" lon="9.083415583620372"><ele>114.0</ele><time>2026-03-29T16:25:32Z</time></trkpt><trkpt lat="45.41876017291304" lon="9.083274947105867"><ele>114.0</ele><time>2026-03-29T16:25:33Z</time></trkpt><trkpt lat="45.41888135833686" lon="9.08313867048958"><ele>114.0</ele><time>2026-03-29T16:25:34Z</time></trkpt><trkpt lat="45.419031226955" lon="9.082994417111395"><ele>113.33333333333334</ele><time>2026-03-29T16:25:35Z</time></trkpt><trkpt lat="45.41917637519357" lon="9.082780109784965"><ele>112.66666666666667</ele><time>2026-03-29T16:25:36Z</time></trkpt><trkpt lat="45.41932621261574" lon="9.08257366382107"><ele>112.0</ele><time>2026-03-29T16:25:37Z</time></trkpt><trkpt lat="45.41949094805886" lon="9.082343664116056"><ele>112.66666666666667</ele><time>2026-03-29T16:25:38Z</time></trkpt><trkpt lat="45.419655411104785" lon="9.082099665740966"><ele>113.33333333333334</ele><time>2026-03-29T16:25:39Z</time></trkpt><trkpt lat="45.419762521504694" lon="9.082159952383714"><ele>114.0</ele><time>2026-03-29T16:25:40Z</time></trkpt><trkpt lat="45.419917350948865" lon="9.082013133699878"><ele>114.0</ele><time>2026-03-29T16:25:41Z</time></trkpt><trkpt lat="45.420068812584354" lon="9.081874426197318"><ele>114.0</ele><time>2026-03-29T16:25:42Z</time></trkpt><trkpt lat="45.42022041274066" lon="9.081743696098108"><ele>114.0</ele><time>2026-03-29T16:25:43Z</time></trkpt><trkpt lat="45.420366687393766" lon="9.081624697350247"><ele>114.66666666666666</ele><time>2026-03-29T16:25:44Z</time></trkpt><trkpt lat="45.420515004006155" lon="9.081509973634814"><ele>115.33333333333333</ele><time>2026-03-29T16:25:45Z</time></trkpt><trkpt lat="45.42066072671457" lon="9.081397978410815"><ele>116.0</ele><time>2026-03-29T16:25:46Z</time></trkpt><trkpt lat="45.42080296019945" lon="9.081283212448522"><ele>116.0</ele><time>2026-03-29T16:25:47Z</time></trkpt><trkpt lat="45.420954488135486" lon="9.081154247153847"><ele>116.0</ele><time>2026-03-29T16:25:48Z</time></trkpt><trkpt lat="45.421120281692986" lon="9.081019524588928"><ele>116.0</ele><time>2026-03-29T16:25:49Z</time></trkpt><trkpt lat="45.421300028176574" lon="9.080886205764125"><ele>116.33333333333333</ele><time>2026-03-29T16:25:50Z</time></trkpt><trkpt lat="45.4214864677409" lon="9.080770598249543"><ele>116.66666666666666</ele><time>2026-03-29T16:25:51Z</time></trkpt><trkpt lat="45.42166534481617" lon="9.08066407679489"><ele>117.0</ele><time>2026-03-29T16:25:52Z</time></trkpt><trkpt lat="45.421832226366895" lon="9.080559018560903"><ele>117.0</ele><time>2026-03-29T16:25:53Z</time></trkpt><trkpt lat="45.42199877899136" lon="9.08045736385682"><ele>117.0</ele><time>2026-03-29T16:25:54Z</time></trkpt><trkpt lat="45.42215950106194" lon="9.080361065800847"><ele>117.0</ele><time>2026-03-29T16:25:55Z</time></trkpt><trkpt lat="45.4223325895655" lon="9.080252247988394"><ele>116.66666666666666</ele><time>2026-03-29T16:25:56Z</time></trkpt><trkpt lat="45.422500102869144" lon="9.080157794626887"><ele>116.33333333333333</ele><time>2026-03-29T16:25:57Z</time></trkpt><trkpt lat="45.42266298812345" lon="9.080073948649327"><ele>116.0</ele><time>2026-03-29T16:25:58Z</time></trkpt><trkpt lat="45.42280286674698" lon="9.079987728052108"><ele>116.0</ele><time>2026-03-29T16:25:59Z</time></trkpt><trkpt lat="45.42293854468102" lon="9.079918183498837"><ele>116.0</ele><time>2026-03-29T16:26:00Z</time></trkpt><trkpt lat="45.42305598942656" lon="9.079899774893889"><ele>116.0</ele><time>2026-03-29T16:26:01Z</time></trkpt><trkpt lat="45.423179975249035" lon="9.079807713041795"><ele>116.0</ele><time>2026-03-29T16:26:02Z</time></trkpt><trkpt lat="45.42329225601744" lon="9.079725310883283"><ele>115.4</ele><time>2026-03-29T16:26:03Z</time></trkpt><trkpt lat="45.42340441502213" lon="9.079650633415062"><ele>114.8</ele><time>2026-03-29T16:26:04Z</time></trkpt><trkpt lat="45.42351651321117" lon="9.079598216669554"><ele>114.20000000000002</ele><time>2026-03-29T16:26:05Z</time></trkpt><trkpt lat="45.423609906945295" lon="9.07953387273363"><ele>113.60000000000001</ele><time>2026-03-29T16:26:06Z</time></trkpt><trkpt lat="45.42370479700668" lon="9.079479233935281"><ele>113.0</ele><time>2026-03-29T16:26:07Z</time></trkpt><trkpt lat="45.42379162563944" lon="9.079425585259145"><ele>114.0</ele><time>2026-03-29T16:26:08Z</time></trkpt><trkpt lat="45.42386670333316" lon="9.079363588908095"><ele>115.00000000000001</ele><time>2026-03-29T16:26:09Z</time></trkpt><trkpt lat="45.423958331646425" lon="9.079342845998777"><ele>116.00000000000001</ele><time>2026-03-29T16:26:10Z</time></trkpt><trkpt lat="45.42401620905352" lon="9.079292808393692"><ele>117.0</ele><time>2026-03-29T16:26:11Z</time></trkpt><trkpt lat="45.42414012457889" lon="9.07921463033151"><ele>118.0</ele><time>2026-03-29T16:26:13Z</time></trkpt><trkpt lat="45.4242010242472" lon="9.079172333509597"><ele>118.0</ele><time>2026-03-29T16:26:14Z</time></trkpt><trkpt lat="45.424320306252625" lon="9.079109474095427"><ele>118.00000000000001</ele><time>2026-03-29T16:26:16Z</time></trkpt><trkpt lat="45.4243838997731" lon="9.079059689362667"><ele>118.00000000000001</ele><time>2026-03-29T16:26:17Z</time></trkpt><trkpt lat="45.424460675487225" lon="9.079006554080737"><ele>118.0</ele><time>2026-03-29T16:26:18Z</time></trkpt><trkpt lat="45.42454210155922" lon="9.078962257803337"><ele>118.0</ele><time>2026-03-29T16:26:19Z</time></trkpt><trkpt lat="45.42462445946931" lon="9.078913412753128"><ele>118.2</ele><time>2026-03-29T16:26:20Z</time></trkpt><trkpt lat="45.42470502604269" lon="9.078861146638584"><ele>118.4</ele><time>2026-03-29T16:26:21Z</time></trkpt><trkpt lat="45.424802548205" lon="9.07879684985122"><ele>118.60000000000001</ele><time>2026-03-29T16:26:22Z</time></trkpt><trkpt lat="45.42491589368194" lon="9.078724842874575"><ele>118.80000000000001</ele><time>2026-03-29T16:26:23Z</time></trkpt><trkpt lat="45.42502455469805" lon="9.078658117004425"><ele>119.0</ele><time>2026-03-29T16:26:24Z</time></trkpt><trkpt lat="45.42514129581586" lon="9.078580685082104"><ele>119.0</ele><time>2026-03-29T16:26:25Z</time></trkpt><trkpt lat="45.425248892347206" lon="9.078502506196973"><ele>119.0</ele><time>2026-03-29T16:26:26Z</time></trkpt><trkpt lat="45.42538209643283" lon="9.078434923365275"><ele>119.0</ele><time>2026-03-29T16:26:27Z</time></trkpt><trkpt lat="45.425508559650766" lon="9.078361492788417"><ele>119.0</ele><time>2026-03-29T16:26:28Z</time></trkpt><trkpt lat="45.425643926907206" lon="9.078298936523485"><ele>118.75</ele><time>2026-03-29T16:26:29Z</time></trkpt><trkpt lat="45.425750742556176" lon="9.078215036576466"><ele>118.5</ele><time>2026-03-29T16:26:30Z</time></trkpt><trkpt lat="45.42586609505429" lon="9.078133890897686"><ele>118.25</ele><time>2026-03-29T16:26:31Z</time></trkpt><trkpt lat="45.425962146362934" lon="9.078068947323006"><ele>118.0</ele><time>2026-03-29T16:26:31.999Z</time></trkpt><trkpt lat="45.4260656415176" lon="9.078010223340195"><ele>118.0</ele><time>2026-03-29T16:26:32.999Z</time></trkpt><trkpt lat="45.426175909078395" lon="9.077939521795416"><ele>118.0</ele><time>2026-03-29T16:26:33.999Z</time></trkpt><trkpt lat="45.426275958138845" lon="9.077865130195288"><ele>118.0</ele><time>2026-03-29T16:26:34.999Z</time></trkpt><trkpt lat="45.42639325942164" lon="9.077796687269185"><ele>118.0</ele><time>2026-03-29T16:26:35.999Z</time></trkpt><trkpt lat="45.42650025695687" lon="9.077731562090634"><ele>118.4</ele><time>2026-03-29T16:26:36.999Z</time></trkpt><trkpt lat="45.42659853791916" lon="9.077672493306155"><ele>118.80000000000001</ele><time>2026-03-29T16:26:37.999Z</time></trkpt><trkpt lat="45.42669887554255" lon="9.077606630517808"><ele>119.2</ele><time>2026-03-29T16:26:38.999Z</time></trkpt><trkpt lat="45.42679118525816" lon="9.077550807948082"><ele>119.6</ele><time>2026-03-29T16:26:39.999Z</time></trkpt><trkpt lat="45.42688790071548" lon="9.07749510280338"><ele>120.0</ele><time>2026-03-29T16:26:40.999Z</time></trkpt><trkpt lat="45.4269854294341" lon="9.077435611430898"><ele>119.8</ele><time>2026-03-29T16:26:41.999Z</time></trkpt><trkpt lat="45.42708663250576" lon="9.077362600052105"><ele>119.6</ele><time>2026-03-29T16:26:42.999Z</time></trkpt><trkpt lat="45.42718491596609" lon="9.077310770057082"><ele>119.4</ele><time>2026-03-29T16:26:43.999Z</time></trkpt><trkpt lat="45.427283356314106" lon="9.077272226391589"><ele>119.2</ele><time>2026-03-29T16:26:44.999Z</time></trkpt><trkpt lat="45.42738692943534" lon="9.077187531914564"><ele>119.0</ele><time>2026-03-29T16:26:45.999Z</time></trkpt><trkpt lat="45.427490783336395" lon="9.077124589683649"><ele>119.0</ele><time>2026-03-29T16:26:46.999Z</time></trkpt><trkpt lat="45.427607723680886" lon="9.077055759291932"><ele>119.0</ele><time>2026-03-29T16:26:47.999Z</time></trkpt><trkpt lat="45.42771273016837" lon="9.07698823668799"><ele>119.0</ele><time>2026-03-29T16:26:48.999Z</time></trkpt><trkpt lat="45.42782482706459" lon="9.076919087647259"><ele>119.0</ele><time>2026-03-29T16:26:49.999Z</time></trkpt><trkpt lat="45.42794087358583" lon="9.07684754987638"><ele>119.25</ele><time>2026-03-29T16:26:50.999Z</time></trkpt><trkpt lat="45.42806768921559" lon="9.07676518632621"><ele>119.5</ele><time>2026-03-29T16:26:51.999Z</time></trkpt><trkpt lat="45.4281762143231" lon="9.076641813269692"><ele>119.75</ele><time>2026-03-29T16:26:52.999Z</time></trkpt><trkpt lat="45.42827359076808" lon="9.07656274886894"><ele>120.0</ele><time>2026-03-29T16:26:53.999Z</time></trkpt><trkpt lat="45.428375078343706" lon="9.07650648325414"><ele>119.6</ele><time>2026-03-29T16:26:54.999Z</time></trkpt><trkpt lat="45.428481694634655" lon="9.07648195057901"><ele>119.2</ele><time>2026-03-29T16:26:55.999Z</time></trkpt><trkpt lat="45.428596202166844" lon="9.076438789883742"><ele>118.80000000000001</ele><time>2026-03-29T16:26:57Z</time></trkpt><trkpt lat="45.42871689519194" lon="9.076396032556735"><ele>118.4</ele><time>2026-03-29T16:26:58Z</time></trkpt><trkpt lat="45.428790333708264" lon="9.076354885901464"><ele>118.0</ele><time>2026-03-29T16:26:59Z</time></trkpt><trkpt lat="45.42890902633528" lon="9.076275579526044"><ele>118.0</ele><time>2026-03-29T16:27:00Z</time></trkpt><trkpt lat="45.429033882562095" lon="9.076192065804193"><ele>118.0</ele><time>2026-03-29T16:27:01Z</time></trkpt><trkpt lat="45.429152552623655" lon="9.076124686090136"><ele>118.0</ele><time>2026-03-29T16:27:02Z</time></trkpt><trkpt lat="45.42927648006469" lon="9.076055740796665"><ele>118.0</ele><time>2026-03-29T16:27:03Z</time></trkpt><trkpt lat="45.42940957755057" lon="9.075976889482444"><ele>118.0</ele><time>2026-03-29T16:27:04Z</time></trkpt><trkpt lat="45.4295272014825" lon="9.075918158675197"><ele>118.0</ele><time>2026-03-29T16:27:05Z</time></trkpt><trkpt lat="45.42965369569213" lon="9.075846800846072"><ele>118.0</ele><time>2026-03-29T16:27:06Z</time></trkpt><trkpt lat="45.42978192601883" lon="9.075780999463236"><ele>118.0</ele><time>2026-03-29T16:27:07Z</time></trkpt><trkpt lat="45.42991267688815" lon="9.075718342091644"><ele>117.75</ele><time>2026-03-29T16:27:08Z</time></trkpt><trkpt lat="45.43004503823619" lon="9.07565853357269"><ele>117.5</ele><time>2026-03-29T16:27:09Z</time></trkpt><trkpt lat="45.43017281755688" lon="9.075600471995541"><ele>117.25</ele><time>2026-03-29T16:27:10Z</time></trkpt><trkpt lat="45.43028483593527" lon="9.075544468462326"><ele>117.0</ele><time>2026-03-29T16:27:11Z</time></trkpt><trkpt lat="45.430409563398364" lon="9.075495564739814"><ele>116.75</ele><time>2026-03-29T16:27:12Z</time></trkpt><trkpt lat="45.430541394543056" lon="9.075437648242351"><ele>116.5</ele><time>2026-03-29T16:27:13Z</time></trkpt><trkpt lat="45.43067140548885" lon="9.075383219177706"><ele>116.25</ele><time>2026-03-29T16:27:14Z</time></trkpt><trkpt lat="45.43080419483418" lon="9.075335863153114"><ele>116.0</ele><time>2026-03-29T16:27:15Z</time></trkpt><trkpt lat="45.430933154796804" lon="9.075289915436937"><ele>116.0</ele><time>2026-03-29T16:27:16Z</time></trkpt><trkpt lat="45.431046443281645" lon="9.075252017369955"><ele>116.0</ele><time>2026-03-29T16:27:17Z</time></trkpt><trkpt lat="45.431160427988715" lon="9.075217174216181"><ele>116.0</ele><time>2026-03-29T16:27:18Z</time></trkpt><trkpt lat="45.43127596828489" lon="9.075181830366688"><ele>116.0</ele><time>2026-03-29T16:27:19Z</time></trkpt><trkpt lat="45.43137778533817" lon="9.075145201587986"><ele>115.6</ele><time>2026-03-29T16:27:20Z</time></trkpt><trkpt lat="45.43148163108451" lon="9.075121214671983"><ele>115.19999999999999</ele><time>2026-03-29T16:27:21Z</time></trkpt><trkpt lat="45.43157454981489" lon="9.075087248715766"><ele>114.80000000000001</ele><time>2026-03-29T16:27:22Z</time></trkpt><trkpt lat="45.43171266553387" lon="9.07504117845159"><ele>114.4</ele><time>2026-03-29T16:27:24Z</time></trkpt><trkpt lat="45.431778313539375" lon="9.075018624722142"><ele>114.0</ele><time>2026-03-29T16:27:25Z</time></trkpt><trkpt lat="45.4318775322032" lon="9.074989542363138"><ele>114.0</ele><time>2026-03-29T16:27:27Z</time></trkpt><trkpt lat="45.431972447789526" lon="9.074954076242207"><ele>114.0</ele><time>2026-03-29T16:27:30Z</time></trkpt><trkpt lat="45.43209468942709" lon="9.074911541875615"><ele>114.0</ele><time>2026-03-29T16:27:32Z</time></trkpt><trkpt lat="45.432165240206736" lon="9.074894082335977"><ele>114.0</ele><time>2026-03-29T16:27:33Z</time></trkpt><trkpt lat="45.43225082632854" lon="9.074877858291828"><ele>114.0</ele><time>2026-03-29T16:27:34Z</time></trkpt><trkpt lat="45.43233830733017" lon="9.074851875043523"><ele>114.0</ele><time>2026-03-29T16:27:35Z</time></trkpt><trkpt lat="45.432425346996915" lon="9.074831173344469"><ele>114.0</ele><time>2026-03-29T16:27:36Z</time></trkpt><trkpt lat="45.432512287546324" lon="9.074811735386634"><ele>114.0</ele><time>2026-03-29T16:27:37Z</time></trkpt><trkpt lat="45.432598646987465" lon="9.074792391882246"><ele>114.0</ele><time>2026-03-29T16:27:38Z</time></trkpt><trkpt lat="45.43268638394167" lon="9.074772383084884"><ele>114.0</ele><time>2026-03-29T16:27:39Z</time></trkpt><trkpt lat="45.4327742508716" lon="9.074756073460128"><ele>114.0</ele><time>2026-03-29T16:27:40Z</time></trkpt><trkpt lat="45.43286236712658" lon="9.074741221721382"><ele>114.0</ele><time>2026-03-29T16:27:41Z</time></trkpt><trkpt lat="45.43295179903263" lon="9.074724029280953"><ele>114.0</ele><time>2026-03-29T16:27:42Z</time></trkpt><trkpt lat="45.43304584333359" lon="9.074707233319806"><ele>114.0</ele><time>2026-03-29T16:27:43Z</time></trkpt><trkpt lat="45.4331440410514" lon="9.074692223964101"><ele>114.0</ele><time>2026-03-29T16:27:44Z</time></trkpt><trkpt lat="45.43325377888613" lon="9.074676633771714"><ele>114.0</ele><time>2026-03-29T16:27:45Z</time></trkpt><trkpt lat="45.433358067207784" lon="9.07466390309763"><ele>114.6</ele><time>2026-03-29T16:27:46Z</time></trkpt><trkpt lat="45.4334790211992" lon="9.074661958760352"><ele>115.2</ele><time>2026-03-29T16:27:47Z</time></trkpt><trkpt lat="45.433578534862214" lon="9.07464136882819"><ele>115.79999999999998</ele><time>2026-03-29T16:27:48Z</time></trkpt><trkpt lat="45.433690630197376" lon="9.074630139201707"><ele>116.39999999999999</ele><time>2026-03-29T16:27:49Z</time></trkpt><trkpt lat="45.433798303709196" lon="9.074621931212494"><ele>117.0</ele><time>2026-03-29T16:27:50Z</time></trkpt><trkpt lat="45.43390097859829" lon="9.074607038560101"><ele>117.0</ele><time>2026-03-29T16:27:51Z</time></trkpt><trkpt lat="45.433992136911556" lon="9.074622865802262"><ele>116.99999999999999</ele><time>2026-03-29T16:27:52Z</time></trkpt><trkpt lat="45.43406075847532" lon="9.074609816166934"><ele>116.99999999999999</ele><time>2026-03-29T16:27:53Z</time></trkpt><trkpt lat="45.43417742616709" lon="9.07458850237695"><ele>117.0</ele><time>2026-03-29T16:27:55Z</time></trkpt><trkpt lat="45.43428518298864" lon="9.074575648400243"><ele>117.0</ele><time>2026-03-29T16:27:57Z</time></trkpt><trkpt lat="45.43439751402145" lon="9.07457611817282"><ele>117.0</ele><time>2026-03-29T16:27:59Z</time></trkpt><trkpt lat="45.43453246997559" lon="9.074560183541793"><ele>116.99999999999999</ele><time>2026-03-29T16:28:01Z</time></trkpt><trkpt lat="45.43460814466521" lon="9.074555786651674"><ele>116.99999999999999</ele><time>2026-03-29T16:28:02Z</time></trkpt><trkpt lat="45.43468804630407" lon="9.074544965262842"><ele>117.0</ele><time>2026-03-29T16:28:03Z</time></trkpt><trkpt lat="45.434777489935804" lon="9.074530215036496"><ele>117.0</ele><time>2026-03-29T16:28:04Z</time></trkpt><trkpt lat="45.43487315661471" lon="9.074520612485038"><ele>117.19999999999999</ele><time>2026-03-29T16:28:05Z</time></trkpt><trkpt lat="45.43497074360354" lon="9.074514059119283"><ele>117.39999999999999</ele><time>2026-03-29T16:28:06Z</time></trkpt><trkpt lat="45.43507237153081" lon="9.074506849279514"><ele>117.60000000000001</ele><time>2026-03-29T16:28:07Z</time></trkpt><trkpt lat="45.43517323265565" lon="9.074494540205665"><ele>117.80000000000001</ele><time>2026-03-29T16:28:08Z</time></trkpt><trkpt lat="45.43527649556834" lon="9.074480215178166"><ele>118.0</ele><time>2026-03-29T16:28:09Z</time></trkpt><trkpt lat="45.435395154469596" lon="9.074470301590637"><ele>118.0</ele><time>2026-03-29T16:28:10Z</time></trkpt><trkpt lat="45.435517256327444" lon="9.07445325754606"><ele>118.0</ele><time>2026-03-29T16:28:11Z</time></trkpt><trkpt lat="45.435643815799736" lon="9.074441550654559"><ele>118.0</ele><time>2026-03-29T16:28:12Z</time></trkpt><trkpt lat="45.43574888424154" lon="9.074424631621037"><ele>118.0</ele><time>2026-03-29T16:28:13Z</time></trkpt><trkpt lat="45.43585215019874" lon="9.074418374060935"><ele>118.0</ele><time>2026-03-29T16:28:14Z</time></trkpt><trkpt lat="45.43597716679601" lon="9.074411943604094"><ele>118.0</ele><time>2026-03-29T16:28:15Z</time></trkpt><trkpt lat="45.436108383313346" lon="9.074402712420152"><ele>118.0</ele><time>2026-03-29T16:28:16Z</time></trkpt><trkpt lat="45.43624866762443" lon="9.074381423570722"><ele>118.0</ele><time>2026-03-29T16:28:17Z</time></trkpt><trkpt lat="45.4363847209132" lon="9.074362336239671"><ele>117.25</ele><time>2026-03-29T16:28:18Z</time></trkpt><trkpt lat="45.43653367746421" lon="9.074356366708546"><ele>116.5</ele><time>2026-03-29T16:28:19Z</time></trkpt><trkpt lat="45.43669462260591" lon="9.074333664921348"><ele>115.75</ele><time>2026-03-29T16:28:20Z</time></trkpt><trkpt lat="45.43682781758196" lon="9.074313206891954"><ele>115.0</ele><time>2026-03-29T16:28:21Z</time></trkpt><trkpt lat="45.43696978794064" lon="9.074299893991611"><ele>115.0</ele><time>2026-03-29T16:28:22Z</time></trkpt><trkpt lat="45.43710791783213" lon="9.074287449571694"><ele>115.0</ele><time>2026-03-29T16:28:23Z</time></trkpt><trkpt lat="45.4372384297593" lon="9.074285182377556"><ele>115.0</ele><time>2026-03-29T16:28:24Z</time></trkpt><trkpt lat="45.43735839554275" lon="9.07426973170052"><ele>115.0</ele><time>2026-03-29T16:28:25Z</time></trkpt><trkpt lat="45.43748516068063" lon="9.07425300739258"><ele>114.5</ele><time>2026-03-29T16:28:26Z</time></trkpt><trkpt lat="45.43761120101365" lon="9.074236958141302"><ele>114.0</ele><time>2026-03-29T16:28:27Z</time></trkpt><trkpt lat="45.43772772165174" lon="9.07422558706831"><ele>113.5</ele><time>2026-03-29T16:28:28Z</time></trkpt><trkpt lat="45.43783933230128" lon="9.07421179967925"><ele>113.0</ele><time>2026-03-29T16:28:29Z</time></trkpt><trkpt lat="45.43795759919303" lon="9.074200860558825"><ele>113.25</ele><time>2026-03-29T16:28:29.999Z</time></trkpt><trkpt lat="45.438076867339575" lon="9.074195390415253"><ele>113.5</ele><time>2026-03-29T16:28:30.999Z</time></trkpt><trkpt lat="45.4382112270838" lon="9.074189520832565"><ele>113.75</ele><time>2026-03-29T16:28:31.999Z</time></trkpt><trkpt lat="45.4383561792924" lon="9.074179933409313"><ele>114.0</ele><time>2026-03-29T16:28:32.999Z</time></trkpt><trkpt lat="45.438511409879425" lon="9.07416827096366"><ele>114.0</ele><time>2026-03-29T16:28:33.999Z</time></trkpt><trkpt lat="45.43866476779241" lon="9.074151259717468"><ele>114.0</ele><time>2026-03-29T16:28:34.999Z</time></trkpt><trkpt lat="45.43881438094274" lon="9.07413390618928"><ele>114.0</ele><time>2026-03-29T16:28:35.999Z</time></trkpt><trkpt lat="45.43896327775914" lon="9.074120624493982"><ele>114.66666666666666</ele><time>2026-03-29T16:28:36.999Z</time></trkpt><trkpt lat="45.43910876445633" lon="9.07409762352788"><ele>115.33333333333333</ele><time>2026-03-29T16:28:37.999Z</time></trkpt><trkpt lat="45.43927998803629" lon="9.074078489807741"><ele>116.0</ele><time>2026-03-29T16:28:38.999Z</time></trkpt><trkpt lat="45.43941970118138" lon="9.074064120893588"><ele>116.0</ele><time>2026-03-29T16:28:39.999Z</time></trkpt><trkpt lat="45.43956737400718" lon="9.074051624932652"><ele>116.0</ele><time>2026-03-29T16:28:40.999Z</time></trkpt><trkpt lat="45.43970760573402" lon="9.074029905596234"><ele>116.0</ele><time>2026-03-29T16:28:41.999Z</time></trkpt><trkpt lat="45.439825710255924" lon="9.074005012685843"><ele>116.0</ele><time>2026-03-29T16:28:42.999Z</time></trkpt><trkpt lat="45.43998208099074" lon="9.073998955108204"><ele>116.5</ele><time>2026-03-29T16:28:43.999Z</time></trkpt><trkpt lat="45.4401321874191" lon="9.073980850720092"><ele>117.0</ele><time>2026-03-29T16:28:44.999Z</time></trkpt><trkpt lat="45.44027657714949" lon="9.073968585580715"><ele>117.5</ele><time>2026-03-29T16:28:45.999Z</time></trkpt><trkpt lat="45.44041609609051" lon="9.07395713399155"><ele>118.0</ele><time>2026-03-29T16:28:46.999Z</time></trkpt><trkpt lat="45.440558566154934" lon="9.073931151752284"><ele>118.25</ele><time>2026-03-29T16:28:47.999Z</time></trkpt><trkpt lat="45.44070243280416" lon="9.073920210068174"><ele>118.5</ele><time>2026-03-29T16:28:48.999Z</time></trkpt><trkpt lat="45.44085540321772" lon="9.07392132161045"><ele>118.75</ele><time>2026-03-29T16:28:49.999Z</time></trkpt><trkpt lat="45.44098960100427" lon="9.073905638262294"><ele>119.0</ele><time>2026-03-29T16:28:50.999Z</time></trkpt><trkpt lat="45.44114007383824" lon="9.073896860999975"><ele>119.0</ele><time>2026-03-29T16:28:51.999Z</time></trkpt><trkpt lat="45.44128570559239" lon="9.073890169127667"><ele>119.0</ele><time>2026-03-29T16:28:52.999Z</time></trkpt><trkpt lat="45.441427485102075" lon="9.07388344369067"><ele>119.0</ele><time>2026-03-29T16:28:53.999Z</time></trkpt><trkpt lat="45.441598254030424" lon="9.073874946262919"><ele>119.5</ele><time>2026-03-29T16:28:54.999Z</time></trkpt><trkpt lat="45.441725289050844" lon="9.07388496405207"><ele>120.0</ele><time>2026-03-29T16:28:55.999Z</time></trkpt><trkpt lat="45.44188349277501" lon="9.073887156970105"><ele>120.5</ele><time>2026-03-29T16:28:56.999Z</time></trkpt><trkpt lat="45.4420284850092" lon="9.073883441941627"><ele>121.0</ele><time>2026-03-29T16:28:57.999Z</time></trkpt><trkpt lat="45.4421695258279" lon="9.07387973204615"><ele>119.75</ele><time>2026-03-29T16:28:58.999Z</time></trkpt><trkpt lat="45.4423029143538" lon="9.073885745838368"><ele>118.5</ele><time>2026-03-29T16:28:59.999Z</time></trkpt><trkpt lat="45.44244897811239" lon="9.073892087884905"><ele>117.25</ele><time>2026-03-29T16:29:00.999Z</time></trkpt><trkpt lat="45.442589576399754" lon="9.073898403177136"><ele>116.0</ele><time>2026-03-29T16:29:01.999Z</time></trkpt><trkpt lat="45.44272772870297" lon="9.073916392444005"><ele>116.0</ele><time>2026-03-29T16:29:03Z</time></trkpt><trkpt lat="45.442853946149484" lon="9.0739218832894"><ele>116.0</ele><time>2026-03-29T16:29:04Z</time></trkpt><trkpt lat="45.442976517633895" lon="9.07391901573727"><ele>116.0</ele><time>2026-03-29T16:29:05Z</time></trkpt><trkpt lat="45.44310555164349" lon="9.073931702771057"><ele>116.0</ele><time>2026-03-29T16:29:06Z</time></trkpt><trkpt lat="45.44323342311554" lon="9.073935514820144"><ele>116.75</ele><time>2026-03-29T16:29:07Z</time></trkpt><trkpt lat="45.44336249648264" lon="9.073941961015063"><ele>117.5</ele><time>2026-03-29T16:29:08Z</time></trkpt><trkpt lat="45.443491196542986" lon="9.073949640636068"><ele>118.25</ele><time>2026-03-29T16:29:09Z</time></trkpt><trkpt lat="45.44362269444438" lon="9.073960762902594"><ele>119.0</ele><time>2026-03-29T16:29:10Z</time></trkpt><trkpt lat="45.44375435161526" lon="9.073982664344273"><ele>119.5</ele><time>2026-03-29T16:29:11Z</time></trkpt><trkpt lat="45.443878726729444" lon="9.07399849204628"><ele>120.0</ele><time>2026-03-29T16:29:12Z</time></trkpt><trkpt lat="45.44399225753081" lon="9.074017527338345"><ele>120.5</ele><time>2026-03-29T16:29:13Z</time></trkpt><trkpt lat="45.444110250433326" lon="9.074042944816025"><ele>121.0</ele><time>2026-03-29T16:29:14Z</time></trkpt><trkpt lat="45.44423048834795" lon="9.074064537582718"><ele>121.0</ele><time>2026-03-29T16:29:15Z</time></trkpt><trkpt lat="45.44435500163184" lon="9.074088749819573"><ele>121.0</ele><time>2026-03-29T16:29:16Z</time></trkpt><trkpt lat="45.444484305948265" lon="9.07411356364006"><ele>121.0</ele><time>2026-03-29T16:29:17Z</time></trkpt><trkpt lat="45.44461483182074" lon="9.074138298775573"><ele>121.0</ele><time>2026-03-29T16:29:18Z</time></trkpt><trkpt lat="45.444748615179485" lon="9.074169839093646"><ele>121.0</ele><time>2026-03-29T16:29:19Z</time></trkpt><trkpt lat="45.44489763477707" lon="9.074197074606635"><ele>121.0</ele><time>2026-03-29T16:29:20Z</time></trkpt><trkpt lat="45.4450605725467" lon="9.074229701622702"><ele>121.0</ele><time>2026-03-29T16:29:21Z</time></trkpt><trkpt lat="45.445225506074024" lon="9.074254872099592"><ele>121.0</ele><time>2026-03-29T16:29:22Z</time></trkpt><trkpt lat="45.44539185986151" lon="9.074298483535639"><ele>121.0</ele><time>2026-03-29T16:29:23Z</time></trkpt><trkpt lat="45.44555879887449" lon="9.074349560334632"><ele>121.0</ele><time>2026-03-29T16:29:24Z</time></trkpt><trkpt lat="45.4457296807499" lon="9.074404559385666"><ele>121.33333333333334</ele><time>2026-03-29T16:29:25Z</time></trkpt><trkpt lat="45.44589534059891" lon="9.074468807543155"><ele>121.66666666666666</ele><time>2026-03-29T16:29:26Z</time></trkpt><trkpt lat="45.446075160423" lon="9.074500513490376"><ele>122.0</ele><time>2026-03-29T16:29:27Z</time></trkpt><trkpt lat="45.446253058409916" lon="9.074567157975045"><ele>121.66666666666666</ele><time>2026-03-29T16:29:28Z</time></trkpt><trkpt lat="45.44643533648651" lon="9.074621706762372"><ele>121.33333333333334</ele><time>2026-03-29T16:29:29Z</time></trkpt><trkpt lat="45.44661361089857" lon="9.074680184433605"><ele>121.0</ele><time>2026-03-29T16:29:30Z</time></trkpt><trkpt lat="45.44679014703788" lon="9.07473611311298"><ele>121.0</ele><time>2026-03-29T16:29:31Z</time></trkpt><trkpt lat="45.446978496728484" lon="9.07480921087625"><ele>121.0</ele><time>2026-03-29T16:29:32Z</time></trkpt><trkpt lat="45.44716213919516" lon="9.0748845669936"><ele>121.0</ele><time>2026-03-29T16:29:33Z</time></trkpt><trkpt lat="45.44734850451344" lon="9.07492930848298"><ele>120.66666666666667</ele><time>2026-03-29T16:29:34Z</time></trkpt><trkpt lat="45.44752059406311" lon="9.07497604947197"><ele>120.33333333333334</ele><time>2026-03-29T16:29:35Z</time></trkpt><trkpt lat="45.447675000028596" lon="9.075022192553622"><ele>120.0</ele><time>2026-03-29T16:29:36Z</time></trkpt><trkpt lat="45.447842402597644" lon="9.075083112677733"><ele>120.33333333333334</ele><time>2026-03-29T16:29:37Z</time></trkpt><trkpt lat="45.44800364545875" lon="9.075130227577864"><ele>120.66666666666667</ele><time>2026-03-29T16:29:38Z</time></trkpt><trkpt lat="45.448162327611996" lon="9.07518171266054"><ele>121.0</ele><time>2026-03-29T16:29:39Z</time></trkpt><trkpt lat="45.44830562449174" lon="9.075222161857708"><ele>121.0</ele><time>2026-03-29T16:29:40Z</time></trkpt><trkpt lat="45.44843820599931" lon="9.075261837729885"><ele>121.0</ele><time>2026-03-29T16:29:41Z</time></trkpt><trkpt lat="45.44857008027385" lon="9.07530078855016"><ele>121.0</ele><time>2026-03-29T16:29:42Z</time></trkpt><trkpt lat="45.44869431489662" lon="9.07534017859007"><ele>121.0</ele><time>2026-03-29T16:29:43Z</time></trkpt><trkpt lat="45.448820766523646" lon="9.075379423316356"><ele>121.25</ele><time>2026-03-29T16:29:44Z</time></trkpt><trkpt lat="45.44894557194168" lon="9.075420108505137"><ele>121.5</ele><time>2026-03-29T16:29:45Z</time></trkpt><trkpt lat="45.449081698922164" lon="9.07546322926313"><ele>121.75</ele><time>2026-03-29T16:29:46Z</time></trkpt><trkpt lat="45.44920892441378" lon="9.075498836663611"><ele>122.0</ele><time>2026-03-29T16:29:47Z</time></trkpt><trkpt lat="45.44933716568849" lon="9.075530165970118"><ele>122.0</ele><time>2026-03-29T16:29:48Z</time></trkpt><trkpt lat="45.44946100204331" lon="9.075574298127588"><ele>122.0</ele><time>2026-03-29T16:29:49Z</time></trkpt><trkpt lat="45.44958787407441" lon="9.075607556505313"><ele>122.0</ele><time>2026-03-29T16:29:50Z</time></trkpt><trkpt lat="45.44970863896444" lon="9.075627339658501"><ele>122.0</ele><time>2026-03-29T16:29:51Z</time></trkpt><trkpt lat="45.44981892030802" lon="9.07568001366575"><ele>122.0</ele><time>2026-03-29T16:29:52Z</time></trkpt><trkpt lat="45.44993586589688" lon="9.075717070567181"><ele>121.99999999999999</ele><time>2026-03-29T16:29:53Z</time></trkpt><trkpt lat="45.45004749593601" lon="9.075757597135002"><ele>121.99999999999999</ele><time>2026-03-29T16:29:54Z</time></trkpt><trkpt lat="45.450158262362436" lon="9.075804581158682"><ele>122.0</ele><time>2026-03-29T16:29:55Z</time></trkpt><trkpt lat="45.450246026955554" lon="9.075812388695127"><ele>122.0</ele><time>2026-03-29T16:29:56Z</time></trkpt><trkpt lat="45.45034225692279" lon="9.075839680964616"><ele>122.0</ele><time>2026-03-29T16:29:57Z</time></trkpt><trkpt lat="45.45043700686201" lon="9.07587179979524"><ele>121.99999999999999</ele><time>2026-03-29T16:29:58Z</time></trkpt><trkpt lat="45.45053428001789" lon="9.075899434400998"><ele>121.99999999999999</ele><time>2026-03-29T16:29:59Z</time></trkpt><trkpt lat="45.450647019961224" lon="9.075929846640822"><ele>122.0</ele><time>2026-03-29T16:30:00Z</time></trkpt><trkpt lat="45.45075503036803" lon="9.075965670338954"><ele>122.0</ele><time>2026-03-29T16:30:01Z</time></trkpt><trkpt lat="45.450861425990276" lon="9.075990059785623"><ele>122.0</ele><time>2026-03-29T16:30:02Z</time></trkpt><trkpt lat="45.45096908737227" lon="9.07602829893651"><ele>122.0</ele><time>2026-03-29T16:30:03Z</time></trkpt><trkpt lat="45.45108899035846" lon="9.07605560193613"><ele>122.0</ele><time>2026-03-29T16:30:04Z</time></trkpt><trkpt lat="45.451211068609624" lon="9.076102314363357"><ele>122.0</ele><time>2026-03-29T16:30:05Z</time></trkpt><trkpt lat="45.45133784087004" lon="9.076142951519898"><ele>122.0</ele><time>2026-03-29T16:30:06Z</time></trkpt><trkpt lat="45.45147144906487" lon="9.076185595959869"><ele>122.0</ele><time>2026-03-29T16:30:07Z</time></trkpt><trkpt lat="45.45160729681328" lon="9.076247200826746"><ele>122.0</ele><time>2026-03-29T16:30:08Z</time></trkpt><trkpt lat="45.451741090391266" lon="9.07630103446727"><ele>122.0</ele><time>2026-03-29T16:30:09Z</time></trkpt><trkpt lat="45.45188045673025" lon="9.076354348189328"><ele>122.0</ele><time>2026-03-29T16:30:10Z</time></trkpt><trkpt lat="45.452022051660315" lon="9.076388435956918"><ele>122.0</ele><time>2026-03-29T16:30:11Z</time></trkpt><trkpt lat="45.45217238677588" lon="9.076438521047384"><ele>122.0</ele><time>2026-03-29T16:30:12Z</time></trkpt><trkpt lat="45.45232775885342" lon="9.07647811076045"><ele>122.0</ele><time>2026-03-29T16:30:13Z</time></trkpt><trkpt lat="45.45247360502818" lon="9.076513995847748"><ele>122.0</ele><time>2026-03-29T16:30:14Z</time></trkpt><trkpt lat="45.4526174114453" lon="9.076568400655711"><ele>122.0</ele><time>2026-03-29T16:30:15Z</time></trkpt><trkpt lat="45.45276617625474" lon="9.076610394513315"><ele>122.0</ele><time>2026-03-29T16:30:16Z</time></trkpt><trkpt lat="45.452909165122705" lon="9.076655509961283"><ele>122.25</ele><time>2026-03-29T16:30:17Z</time></trkpt><trkpt lat="45.45305224746648" lon="9.076689170132985"><ele>122.5</ele><time>2026-03-29T16:30:18Z</time></trkpt><trkpt lat="45.45319003921133" lon="9.076731960455604"><ele>122.75</ele><time>2026-03-29T16:30:19Z</time></trkpt><trkpt lat="45.45332498611398" lon="9.076773713019707"><ele>123.0</ele><time>2026-03-29T16:30:20Z</time></trkpt><trkpt lat="45.45347684224334" lon="9.076819649639669"><ele>123.0</ele><time>2026-03-29T16:30:21Z</time></trkpt><trkpt lat="45.45361188584136" lon="9.076854126075816"><ele>123.0</ele><time>2026-03-29T16:30:22Z</time></trkpt><trkpt lat="45.45374747395658" lon="9.07689753491699"><ele>123.0</ele><time>2026-03-29T16:30:23Z</time></trkpt><trkpt lat="45.45391458350415" lon="9.076958490078237"><ele>123.0</ele><time>2026-03-29T16:30:24Z</time></trkpt><trkpt lat="45.454086117840966" lon="9.076983053670595"><ele>123.0</ele><time>2026-03-29T16:30:25Z</time></trkpt><trkpt lat="45.4542698494846" lon="9.077029140796014"><ele>123.0</ele><time>2026-03-29T16:30:26Z</time></trkpt><trkpt lat="45.4544477178698" lon="9.077089903488865"><ele>123.0</ele><time>2026-03-29T16:30:27Z</time></trkpt><trkpt lat="45.45463422074203" lon="9.077143973150195"><ele>122.66666666666666</ele><time>2026-03-29T16:30:28Z</time></trkpt><trkpt lat="45.45481815875051" lon="9.077198891289225"><ele>122.33333333333333</ele><time>2026-03-29T16:30:29Z</time></trkpt><trkpt lat="45.45499185196434" lon="9.07724640909122"><ele>122.0</ele><time>2026-03-29T16:30:30Z</time></trkpt><trkpt lat="45.45516883887425" lon="9.077297676004333"><ele>122.0</ele><time>2026-03-29T16:30:31Z</time></trkpt><trkpt lat="45.45534378206293" lon="9.077345635557615"><ele>122.0</ele><time>2026-03-29T16:30:32Z</time></trkpt><trkpt lat="45.4555176480438" lon="9.077394307523432"><ele>122.0</ele><time>2026-03-29T16:30:33Z</time></trkpt><trkpt lat="45.455698401867366" lon="9.077437364624249"><ele>123.0</ele><time>2026-03-29T16:30:34Z</time></trkpt><trkpt lat="45.4558787323414" lon="9.077475347622714"><ele>124.0</ele><time>2026-03-29T16:30:35Z</time></trkpt><trkpt lat="45.45606272981332" lon="9.077517887357347"><ele>125.0</ele><time>2026-03-29T16:30:36Z</time></trkpt><trkpt lat="45.456255415719234" lon="9.077597940146957"><ele>125.33333333333333</ele><time>2026-03-29T16:30:37Z</time></trkpt><trkpt lat="45.45643502864709" lon="9.077640218234333"><ele>125.66666666666666</ele><time>2026-03-29T16:30:38Z</time></trkpt><trkpt lat="45.456621034901325" lon="9.077736650102965"><ele>126.0</ele><time>2026-03-29T16:30:39Z</time></trkpt><trkpt lat="45.45680438838245" lon="9.077576237773886"><ele>126.0</ele><time>2026-03-29T16:30:40Z</time></trkpt><trkpt lat="45.45697508845118" lon="9.07758313179459"><ele>126.0</ele><time>2026-03-29T16:30:41Z</time></trkpt><trkpt lat="45.45713317890761" lon="9.077580641293325"><ele>126.0</ele><time>2026-03-29T16:30:41.999Z</time></trkpt><trkpt lat="45.457300889152485" lon="9.07759040645351"><ele>125.66666666666666</ele><time>2026-03-29T16:30:42.999Z</time></trkpt><trkpt lat="45.457464685348675" lon="9.077580346784833"><ele>125.33333333333333</ele><time>2026-03-29T16:30:43.999Z</time></trkpt><trkpt lat="45.457626501625924" lon="9.077570382470034"><ele>125.0</ele><time>2026-03-29T16:30:44.999Z</time></trkpt><trkpt lat="45.457782503205806" lon="9.077553683332567"><ele>125.0</ele><time>2026-03-29T16:30:45.999Z</time></trkpt><trkpt lat="45.457934558195966" lon="9.077532612093437"><ele>125.0</ele><time>2026-03-29T16:30:46.999Z</time></trkpt><trkpt lat="45.45807549613774" lon="9.077500422952358"><ele>125.0</ele><time>2026-03-29T16:30:47.999Z</time></trkpt><trkpt lat="45.45823403109577" lon="9.077485311832618"><ele>126.0</ele><time>2026-03-29T16:30:48.999Z</time></trkpt><trkpt lat="45.45840412951988" lon="9.077455046456803"><ele>127.0</ele><time>2026-03-29T16:30:49.999Z</time></trkpt><trkpt lat="45.45855817245089" lon="9.077430740997421"><ele>128.0</ele><time>2026-03-29T16:30:50.999Z</time></trkpt><trkpt lat="45.458692882140205" lon="9.077407903259772"><ele>127.80000000000001</ele><time>2026-03-29T16:30:51.999Z</time></trkpt><trkpt lat="45.45881598640605" lon="9.07738587149289"><ele>127.60000000000001</ele><time>2026-03-29T16:30:52.999Z</time></trkpt><trkpt lat="45.45892565950681" lon="9.077366267072035"><ele>127.39999999999999</ele><time>2026-03-29T16:30:53.999Z</time></trkpt><trkpt lat="45.459010801932024" lon="9.077332331172446"><ele>127.19999999999999</ele><time>2026-03-29T16:30:54.999Z</time></trkpt><trkpt lat="45.459130833236685" lon="9.07730476052748"><ele>127.0</ele><time>2026-03-29T16:30:55.999Z</time></trkpt><trkpt lat="45.459229719544496" lon="9.077285436194416"><ele>127.0</ele><time>2026-03-29T16:30:56.999Z</time></trkpt><trkpt lat="45.45933527475797" lon="9.07725957153097"><ele>126.99999999999999</ele><time>2026-03-29T16:30:57.999Z</time></trkpt><trkpt lat="45.459425074178604" lon="9.077234187234716"><ele>126.99999999999999</ele><time>2026-03-29T16:30:58.999Z</time></trkpt><trkpt lat="45.459523382518974" lon="9.077205396748859"><ele>127.0</ele><time>2026-03-29T16:30:59.999Z</time></trkpt><trkpt lat="45.45961896503792" lon="9.077172936459359"><ele>127.0</ele><time>2026-03-29T16:31:00.999Z</time></trkpt><trkpt lat="45.45972097186584" lon="9.077134942232677"><ele>127.0</ele><time>2026-03-29T16:31:01.999Z</time></trkpt><trkpt lat="45.45982610929794" lon="9.07710042070411"><ele>126.99999999999999</ele><time>2026-03-29T16:31:02.999Z</time></trkpt><trkpt lat="45.45992448375091" lon="9.077068596505683"><ele>126.99999999999999</ele><time>2026-03-29T16:31:03.999Z</time></trkpt><trkpt lat="45.46002758861969" lon="9.077043522880546"><ele>127.0</ele><time>2026-03-29T16:31:04.999Z</time></trkpt><trkpt lat="45.460133615668546" lon="9.077016834938858"><ele>127.0</ele><time>2026-03-29T16:31:05.999Z</time></trkpt><trkpt lat="45.46023519633499" lon="9.076988263955437"><ele>127.0</ele><time>2026-03-29T16:31:06.999Z</time></trkpt><trkpt lat="45.46033382013819" lon="9.076958891902787"><ele>126.99999999999999</ele><time>2026-03-29T16:31:07.999Z</time></trkpt><trkpt lat="45.46043457365829" lon="9.07693050110369"><ele>126.99999999999999</ele><time>2026-03-29T16:31:09Z</time></trkpt><trkpt lat="45.46054045222586" lon="9.076906425408355"><ele>127.0</ele><time>2026-03-29T16:31:10Z</time></trkpt><trkpt lat="45.46063347495495" lon="9.076881589459392"><ele>127.0</ele><time>2026-03-29T16:31:11Z</time></trkpt><trkpt lat="45.46072929849721" lon="9.07686053584165"><ele>127.39999999999999</ele><time>2026-03-29T16:31:12Z</time></trkpt><trkpt lat="45.46081949796102" lon="9.076830650021973"><ele>127.79999999999998</ele><time>2026-03-29T16:31:13Z</time></trkpt><trkpt lat="45.46092092294525" lon="9.076809552567498"><ele>128.2</ele><time>2026-03-29T16:31:14Z</time></trkpt><trkpt lat="45.461030686296624" lon="9.076779736080903"><ele>128.6</ele><time>2026-03-29T16:31:15Z</time></trkpt><trkpt lat="45.46113984774751" lon="9.076751811611796"><ele>129.0</ele><time>2026-03-29T16:31:16Z</time></trkpt><trkpt lat="45.46125103534062" lon="9.076725178623423"><ele>128.5</ele><time>2026-03-29T16:31:17Z</time></trkpt><trkpt lat="45.461366224982626" lon="9.07669388978436"><ele>128.0</ele><time>2026-03-29T16:31:18Z</time></trkpt><trkpt lat="45.46148735973745" lon="9.076664391806247"><ele>127.5</ele><time>2026-03-29T16:31:19Z</time></trkpt><trkpt lat="45.46162143170962" lon="9.076628897349115"><ele>127.0</ele><time>2026-03-29T16:31:20Z</time></trkpt><trkpt lat="45.461753690044745" lon="9.076589603033272"><ele>127.0</ele><time>2026-03-29T16:31:21Z</time></trkpt><trkpt lat="45.461901170368016" lon="9.07655624319227"><ele>127.0</ele><time>2026-03-29T16:31:22Z</time></trkpt><trkpt lat="45.46203728910223" lon="9.076527376464362"><ele>127.0</ele><time>2026-03-29T16:31:23Z</time></trkpt><trkpt lat="45.46217896507611" lon="9.076484948097725"><ele>127.0</ele><time>2026-03-29T16:31:24Z</time></trkpt><trkpt lat="45.46231520538457" lon="9.07645286360203"><ele>127.0</ele><time>2026-03-29T16:31:25Z</time></trkpt><trkpt lat="45.46246167495129" lon="9.076423662618161"><ele>127.0</ele><time>2026-03-29T16:31:26Z</time></trkpt><trkpt lat="45.46259839807601" lon="9.076388523889367"><ele>127.0</ele><time>2026-03-29T16:31:27Z</time></trkpt><trkpt lat="45.46273938546139" lon="9.076364466324453"><ele>127.0</ele><time>2026-03-29T16:31:28Z</time></trkpt><trkpt lat="45.46287980415085" lon="9.076336017459985"><ele>127.5</ele><time>2026-03-29T16:31:29Z</time></trkpt><trkpt lat="45.463007943743406" lon="9.076311425613827"><ele>128.0</ele><time>2026-03-29T16:31:30Z</time></trkpt><trkpt lat="45.46312643601512" lon="9.07627852603069"><ele>128.5</ele><time>2026-03-29T16:31:31Z</time></trkpt><trkpt lat="45.46325927055781" lon="9.076280593758561"><ele>129.0</ele><time>2026-03-29T16:31:32Z</time></trkpt><trkpt lat="45.46338356602332" lon="9.076268489182588"><ele>129.0</ele><time>2026-03-29T16:31:33Z</time></trkpt><trkpt lat="45.46350439035079" lon="9.076260554522813"><ele>129.0</ele><time>2026-03-29T16:31:34Z</time></trkpt><trkpt lat="45.463619429478754" lon="9.076255838687599"><ele>129.0</ele><time>2026-03-29T16:31:35Z</time></trkpt><trkpt lat="45.46373241124217" lon="9.076254699034646"><ele>129.0</ele><time>2026-03-29T16:31:36Z</time></trkpt><trkpt lat="45.46384633704126" lon="9.076258135602272"><ele>129.25</ele><time>2026-03-29T16:31:37Z</time></trkpt><trkpt lat="45.4639609456131" lon="9.076265892479615"><ele>129.5</ele><time>2026-03-29T16:31:38Z</time></trkpt><trkpt lat="45.46408385392648" lon="9.076276193229612"><ele>129.75</ele><time>2026-03-29T16:31:39Z</time></trkpt><trkpt lat="45.46421859938589" lon="9.076296490139676"><ele>130.0</ele><time>2026-03-29T16:31:40Z</time></trkpt><trkpt lat="45.4643643629725" lon="9.076316692909788"><ele>130.0</ele><time>2026-03-29T16:31:41Z</time></trkpt><trkpt lat="45.464499871222344" lon="9.076336035485541"><ele>130.0</ele><time>2026-03-29T16:31:42Z</time></trkpt><trkpt lat="45.464636619275026" lon="9.07635632484251"><ele>130.0</ele><time>2026-03-29T16:31:43Z</time></trkpt><trkpt lat="45.46477169825221" lon="9.076379236172384"><ele>130.0</ele><time>2026-03-29T16:31:44Z</time></trkpt><trkpt lat="45.46490084770794" lon="9.076402028550083"><ele>130.0</ele><time>2026-03-29T16:31:45Z</time></trkpt><trkpt lat="45.465021151925264" lon="9.076422560514446"><ele>130.0</ele><time>2026-03-29T16:31:46Z</time></trkpt><trkpt lat="45.465133701385675" lon="9.076448014636407"><ele>130.0</ele><time>2026-03-29T16:31:47Z</time></trkpt><trkpt lat="45.46522730779855" lon="9.076471157710005"><ele>130.0</ele><time>2026-03-29T16:31:48Z</time></trkpt><trkpt lat="45.46530964513017" lon="9.076502914980988"><ele>130.0</ele><time>2026-03-29T16:31:49Z</time></trkpt><trkpt lat="45.46539259299701" lon="9.076531226321602"><ele>129.4</ele><time>2026-03-29T16:31:50Z</time></trkpt><trkpt lat="45.46547965159706" lon="9.076569999878036"><ele>128.8</ele><time>2026-03-29T16:31:51Z</time></trkpt><trkpt lat="45.46557400477478" lon="9.076606805538045"><ele>128.2</ele><time>2026-03-29T16:31:52Z</time></trkpt><trkpt lat="45.46569078509023" lon="9.076677187635156"><ele>127.6</ele><time>2026-03-29T16:31:53Z</time></trkpt><trkpt lat="45.46580904628179" lon="9.076738429557805"><ele>127.0</ele><time>2026-03-29T16:31:54Z</time></trkpt><trkpt lat="45.46594659267701" lon="9.076780921452652"><ele>127.0</ele><time>2026-03-29T16:31:55Z</time></trkpt><trkpt lat="45.466071689239264" lon="9.076837037621747"><ele>127.0</ele><time>2026-03-29T16:31:56Z</time></trkpt><trkpt lat="45.46620715781448" lon="9.076910938824389"><ele>127.0</ele><time>2026-03-29T16:31:57Z</time></trkpt><trkpt lat="45.46635410298727" lon="9.07698823024355"><ele>127.0</ele><time>2026-03-29T16:31:58Z</time></trkpt><trkpt lat="45.466494664399015" lon="9.077070624791917"><ele>127.33333333333334</ele><time>2026-03-29T16:31:59Z</time></trkpt><trkpt lat="45.46664115608289" lon="9.077151859757041"><ele>127.66666666666666</ele><time>2026-03-29T16:32:00Z</time></trkpt><trkpt lat="45.466784197391924" lon="9.077234149612236"><ele>128.0</ele><time>2026-03-29T16:32:01Z</time></trkpt><trkpt lat="45.46692928183661" lon="9.077321529864694"><ele>128.0</ele><time>2026-03-29T16:32:02Z</time></trkpt><trkpt lat="45.4670798610614" lon="9.077402348473738"><ele>128.0</ele><time>2026-03-29T16:32:03Z</time></trkpt><trkpt lat="45.46723170779665" lon="9.077484893763272"><ele>128.0</ele><time>2026-03-29T16:32:04Z</time></trkpt><trkpt lat="45.467379223073806" lon="9.07757892859067"><ele>128.33333333333331</ele><time>2026-03-29T16:32:05Z</time></trkpt><trkpt lat="45.46755392047135" lon="9.07771322842998"><ele>128.66666666666666</ele><time>2026-03-29T16:32:06Z</time></trkpt><trkpt lat="45.4677406612151" lon="9.077824776532886"><ele>129.0</ele><time>2026-03-29T16:32:07Z</time></trkpt><trkpt lat="45.467887741768095" lon="9.077909812694331"><ele>128.33333333333334</ele><time>2026-03-29T16:32:08Z</time></trkpt><trkpt lat="45.468012913508446" lon="9.077976674532842"><ele>127.66666666666667</ele><time>2026-03-29T16:32:09Z</time></trkpt><trkpt lat="45.46815417155436" lon="9.078040322972782"><ele>127.0</ele><time>2026-03-29T16:32:10Z</time></trkpt><trkpt lat="45.46832737377473" lon="9.07813235490315"><ele>127.0</ele><time>2026-03-29T16:32:11Z</time></trkpt><trkpt lat="45.46849538075666" lon="9.078228426355953"><ele>127.0</ele><time>2026-03-29T16:32:12Z</time></trkpt><trkpt lat="45.468682638479315" lon="9.0783367298289"><ele>127.0</ele><time>2026-03-29T16:32:13Z</time></trkpt><trkpt lat="45.468862383613164" lon="9.078438468536358"><ele>128.0</ele><time>2026-03-29T16:32:14Z</time></trkpt><trkpt lat="45.469047598524696" lon="9.078542995302497"><ele>129.0</ele><time>2026-03-29T16:32:15Z</time></trkpt><trkpt lat="45.4692240306472" lon="9.078639192535038"><ele>130.0</ele><time>2026-03-29T16:32:16Z</time></trkpt><trkpt lat="45.469402286568496" lon="9.078740798683212"><ele>130.0</ele><time>2026-03-29T16:32:17Z</time></trkpt><trkpt lat="45.469583443178834" lon="9.078840421323164"><ele>130.0</ele><time>2026-03-29T16:32:18Z</time></trkpt><trkpt lat="45.46976280652107" lon="9.078945352703295"><ele>130.0</ele><time>2026-03-29T16:32:19Z</time></trkpt><trkpt lat="45.46993715688121" lon="9.079047546903645"><ele>129.66666666666669</ele><time>2026-03-29T16:32:20Z</time></trkpt><trkpt lat="45.470110907453694" lon="9.079144397506605"><ele>129.33333333333334</ele><time>2026-03-29T16:32:21Z</time></trkpt><trkpt lat="45.47029004768174" lon="9.079247718537122"><ele>129.0</ele><time>2026-03-29T16:32:22Z</time></trkpt><trkpt lat="45.47046501271318" lon="9.079344513036778"><ele>128.66666666666666</ele><time>2026-03-29T16:32:23Z</time></trkpt><trkpt lat="45.47062112243955" lon="9.079431594875663"><ele>128.33333333333331</ele><time>2026-03-29T16:32:24Z</time></trkpt><trkpt lat="45.4707899874749" lon="9.079509788596472"><ele>128.0</ele><time>2026-03-29T16:32:25Z</time></trkpt><trkpt lat="45.470955557814214" lon="9.079579444252754"><ele>128.0</ele><time>2026-03-29T16:32:26Z</time></trkpt><trkpt lat="45.47112335590779" lon="9.079645360794775"><ele>128.0</ele><time>2026-03-29T16:32:27Z</time></trkpt><trkpt lat="45.47129184046763" lon="9.07970208031714"><ele>128.0</ele><time>2026-03-29T16:32:28Z</time></trkpt><trkpt lat="45.47148106563788" lon="9.079760863530257"><ele>128.0</ele><time>2026-03-29T16:32:29Z</time></trkpt><trkpt lat="45.47165523089082" lon="9.079800691349455"><ele>128.0</ele><time>2026-03-29T16:32:30Z</time></trkpt><trkpt lat="45.47180875481989" lon="9.0798312346137"><ele>128.0</ele><time>2026-03-29T16:32:31Z</time></trkpt><trkpt lat="45.47195858184098" lon="9.079856044650295"><ele>128.0</ele><time>2026-03-29T16:32:32Z</time></trkpt><trkpt lat="45.472107254697654" lon="9.079859955985711"><ele>128.0</ele><time>2026-03-29T16:32:32.999Z</time></trkpt><trkpt lat="45.47226288591534" lon="9.079869860933288"><ele>128.0</ele><time>2026-03-29T16:32:33.999Z</time></trkpt><trkpt lat="45.47241249368231" lon="9.079874596202655"><ele>128.0</ele><time>2026-03-29T16:32:34.999Z</time></trkpt><trkpt lat="45.47256283962505" lon="9.079876978257941"><ele>128.0</ele><time>2026-03-29T16:32:35.999Z</time></trkpt><trkpt lat="45.4727121504727" lon="9.079873590167187"><ele>128.0</ele><time>2026-03-29T16:32:36.999Z</time></trkpt><trkpt lat="45.47286089259491" lon="9.07986044343001"><ele>128.0</ele><time>2026-03-29T16:32:37.999Z</time></trkpt><trkpt lat="45.47299993060102" lon="9.07984255906753"><ele>128.5</ele><time>2026-03-29T16:32:38.999Z</time></trkpt><trkpt lat="45.47314046320744" lon="9.07981623350406"><ele>129.0</ele><time>2026-03-29T16:32:39.999Z</time></trkpt><trkpt lat="45.473281207235864" lon="9.079786754144514"><ele>129.5</ele><time>2026-03-29T16:32:40.999Z</time></trkpt><trkpt lat="45.47341633346075" lon="9.079759837937555"><ele>130.0</ele><time>2026-03-29T16:32:41.999Z</time></trkpt><trkpt lat="45.47355255224165" lon="9.07972723020595"><ele>130.0</ele><time>2026-03-29T16:32:42.999Z</time></trkpt><trkpt lat="45.47369778097562" lon="9.079682947213493"><ele>130.0</ele><time>2026-03-29T16:32:43.999Z</time></trkpt><trkpt lat="45.47384223101768" lon="9.079630370471182"><ele>130.0</ele><time>2026-03-29T16:32:44.999Z</time></trkpt><trkpt lat="45.47398662818055" lon="9.079569002811978"><ele>130.0</ele><time>2026-03-29T16:32:45.999Z</time></trkpt><trkpt lat="45.47412987713449" lon="9.079504892801715"><ele>130.0</ele><time>2026-03-29T16:32:46.999Z</time></trkpt><trkpt lat="45.47427439238135" lon="9.079436798826016"><ele>130.0</ele><time>2026-03-29T16:32:47.999Z</time></trkpt><trkpt lat="45.47441582108416" lon="9.07936662398358"><ele>130.0</ele><time>2026-03-29T16:32:48.999Z</time></trkpt><trkpt lat="45.4745627682196" lon="9.079286172634651"><ele>130.66666666666669</ele><time>2026-03-29T16:32:49.999Z</time></trkpt><trkpt lat="45.47470791985565" lon="9.07919814866539"><ele>131.33333333333334</ele><time>2026-03-29T16:32:50.999Z</time></trkpt><trkpt lat="45.47485354436924" lon="9.079103262720935"><ele>132.0</ele><time>2026-03-29T16:32:51.999Z</time></trkpt><trkpt lat="45.474998358435364" lon="9.078999827844626"><ele>132.0</ele><time>2026-03-29T16:32:52.999Z</time></trkpt><trkpt lat="45.47513950122587" lon="9.078892312110911"><ele>132.0</ele><time>2026-03-29T16:32:53.999Z</time></trkpt><trkpt lat="45.475283390268395" lon="9.078777621262548"><ele>132.0</ele><time>2026-03-29T16:32:54.999Z</time></trkpt><trkpt lat="45.475431897479936" lon="9.078647413237128"><ele>131.66666666666666</ele><time>2026-03-29T16:32:55.999Z</time></trkpt><trkpt lat="45.47558007675303" lon="9.07851366099628"><ele>131.33333333333331</ele><time>2026-03-29T16:32:56.999Z</time></trkpt><trkpt lat="45.47572881668152" lon="9.078372800533677"><ele>131.0</ele><time>2026-03-29T16:32:57.999Z</time></trkpt><trkpt lat="45.475873269512434" lon="9.07823122886677"><ele>131.0</ele><time>2026-03-29T16:32:58.999Z</time></trkpt><trkpt lat="45.47601239618025" lon="9.078084764973251"><ele>131.0</ele><time>2026-03-29T16:32:59.999Z</time></trkpt><trkpt lat="45.47615049028725" lon="9.077943712914681"><ele>131.0</ele><time>2026-03-29T16:33:00.999Z</time></trkpt><trkpt lat="45.476286152960334" lon="9.077805004572188"><ele>131.0</ele><time>2026-03-29T16:33:01.999Z</time></trkpt><trkpt lat="45.47641258055708" lon="9.07768555803803"><ele>131.0</ele><time>2026-03-29T16:33:02.999Z</time></trkpt><trkpt lat="45.476533614284726" lon="9.077569338252868"><ele>131.0</ele><time>2026-03-29T16:33:03.999Z</time></trkpt><trkpt lat="45.476666944764396" lon="9.07746560991552"><ele>131.0</ele><time>2026-03-29T16:33:04.999Z</time></trkpt><trkpt lat="45.47677761141061" lon="9.077333261619156"><ele>131.0</ele><time>2026-03-29T16:33:05.999Z</time></trkpt><trkpt lat="45.47689363815572" lon="9.077213614805196"><ele>131.0</ele><time>2026-03-29T16:33:06.999Z</time></trkpt><trkpt lat="45.47699449972676" lon="9.077123848930556"><ele>131.0</ele><time>2026-03-29T16:33:07.999Z</time></trkpt><trkpt lat="45.47710176649623" lon="9.07702081763977"><ele>131.0</ele><time>2026-03-29T16:33:08.999Z</time></trkpt><trkpt lat="45.47721188835187" lon="9.076915415532712"><ele>131.0</ele><time>2026-03-29T16:33:09.999Z</time></trkpt><trkpt lat="45.477325688138045" lon="9.07680815717923"><ele>131.0</ele><time>2026-03-29T16:33:10.999Z</time></trkpt><trkpt lat="45.47744175975693" lon="9.076704652945267"><ele>131.0</ele><time>2026-03-29T16:33:11.999Z</time></trkpt><trkpt lat="45.4775622628909" lon="9.076586483037614"><ele>131.0</ele><time>2026-03-29T16:33:12.999Z</time></trkpt><trkpt lat="45.47767145928998" lon="9.076485453014492"><ele>131.0</ele><time>2026-03-29T16:33:13.999Z</time></trkpt><trkpt lat="45.477778189641874" lon="9.076375430947545"><ele>131.0</ele><time>2026-03-29T16:33:15Z</time></trkpt><trkpt lat="45.477890403211696" lon="9.076258983108078"><ele>131.0</ele><time>2026-03-29T16:33:16Z</time></trkpt><trkpt lat="45.47800720102693" lon="9.076162677930874"><ele>131.0</ele><time>2026-03-29T16:33:17Z</time></trkpt><trkpt lat="45.478108920850865" lon="9.076059754420404"><ele>131.25</ele><time>2026-03-29T16:33:18Z</time></trkpt><trkpt lat="45.478213663038694" lon="9.07595836365369"><ele>131.5</ele><time>2026-03-29T16:33:19Z</time></trkpt><trkpt lat="45.47832061537928" lon="9.07585174101347"><ele>131.75</ele><time>2026-03-29T16:33:20Z</time></trkpt><trkpt lat="45.478429882893195" lon="9.075751181771897"><ele>132.0</ele><time>2026-03-29T16:33:21Z</time></trkpt><trkpt lat="45.47854047064127" lon="9.07563962218007"><ele>132.0</ele><time>2026-03-29T16:33:22Z</time></trkpt><trkpt lat="45.47865434543169" lon="9.075526750618055"><ele>132.0</ele><time>2026-03-29T16:33:23Z</time></trkpt><trkpt lat="45.47877608847534" lon="9.075414930274018"><ele>132.0</ele><time>2026-03-29T16:33:24Z</time></trkpt><trkpt lat="45.47889768964082" lon="9.075314806901098"><ele>132.0</ele><time>2026-03-29T16:33:25Z</time></trkpt><trkpt lat="45.47902033329465" lon="9.075178844019"><ele>132.0</ele><time>2026-03-29T16:33:26Z</time></trkpt><trkpt lat="45.47914022639226" lon="9.075046756499937"><ele>132.0</ele><time>2026-03-29T16:33:27Z</time></trkpt><trkpt lat="45.479271258298226" lon="9.074932935513974"><ele>132.0</ele><time>2026-03-29T16:33:28Z</time></trkpt><trkpt lat="45.47939988410888" lon="9.07482562078649"><ele>132.66666666666666</ele><time>2026-03-29T16:33:29Z</time></trkpt><trkpt lat="45.47952710477202" lon="9.07469839722107"><ele>133.33333333333331</ele><time>2026-03-29T16:33:30Z</time></trkpt><trkpt lat="45.47964332225781" lon="9.074575401498782"><ele>134.0</ele><time>2026-03-29T16:33:31Z</time></trkpt><trkpt lat="45.47977735954794" lon="9.074447949487901"><ele>134.0</ele><time>2026-03-29T16:33:32Z</time></trkpt><trkpt lat="45.4799116280251" lon="9.074324231542256"><ele>134.0</ele><time>2026-03-29T16:33:33Z</time></trkpt><trkpt lat="45.48004300508231" lon="9.074199621541153"><ele>134.0</ele><time>2026-03-29T16:33:34Z</time></trkpt><trkpt lat="45.48017579409659" lon="9.074074061940308"><ele>133.33333333333331</ele><time>2026-03-29T16:33:35Z</time></trkpt><trkpt lat="45.48031818279235" lon="9.07393988963907"><ele>132.66666666666666</ele><time>2026-03-29T16:33:36Z</time></trkpt><trkpt lat="45.48046361982248" lon="9.073805964880759"><ele>132.0</ele><time>2026-03-29T16:33:37Z</time></trkpt><trkpt lat="45.48059950553772" lon="9.073669337115904"><ele>131.0</ele><time>2026-03-29T16:33:38Z</time></trkpt><trkpt lat="45.4807307555695" lon="9.07353283021383"><ele>130.0</ele><time>2026-03-29T16:33:39Z</time></trkpt><trkpt lat="45.48085148721165" lon="9.07339947208492"><ele>129.0</ele><time>2026-03-29T16:33:40Z</time></trkpt><trkpt lat="45.48098550640962" lon="9.073300242439021"><ele>129.0</ele><time>2026-03-29T16:33:41Z</time></trkpt><trkpt lat="45.481124403893816" lon="9.07314982942914"><ele>129.0</ele><time>2026-03-29T16:33:42Z</time></trkpt><trkpt lat="45.481254425508155" lon="9.073028227800583"><ele>129.0</ele><time>2026-03-29T16:33:43Z</time></trkpt><trkpt lat="45.48138871316711" lon="9.072903775909442"><ele>129.33333333333334</ele><time>2026-03-29T16:33:44Z</time></trkpt><trkpt lat="45.48152323887157" lon="9.07277195585659"><ele>129.66666666666669</ele><time>2026-03-29T16:33:45Z</time></trkpt><trkpt lat="45.48166323181842" lon="9.072636912509138"><ele>130.0</ele><time>2026-03-29T16:33:46Z</time></trkpt><trkpt lat="45.481800763022896" lon="9.07250206076162"><ele>130.0</ele><time>2026-03-29T16:33:47Z</time></trkpt><trkpt lat="45.481932162249514" lon="9.072369557411955"><ele>130.0</ele><time>2026-03-29T16:33:48Z</time></trkpt><trkpt lat="45.48206184192635" lon="9.072253282132719"><ele>130.0</ele><time>2026-03-29T16:33:49Z</time></trkpt><trkpt lat="45.48219081296173" lon="9.072133654954223"><ele>130.66666666666669</ele><time>2026-03-29T16:33:50Z</time></trkpt><trkpt lat="45.48231409538644" lon="9.072012496843891"><ele>131.33333333333334</ele><time>2026-03-29T16:33:51Z</time></trkpt><trkpt lat="45.48245120967459" lon="9.071879412347885"><ele>132.0</ele><time>2026-03-29T16:33:52Z</time></trkpt><trkpt lat="45.482583696119065" lon="9.07174142612247"><ele>131.66666666666666</ele><time>2026-03-29T16:33:53Z</time></trkpt><trkpt lat="45.48272329321727" lon="9.07160249404759"><ele>131.33333333333331</ele><time>2026-03-29T16:33:54Z</time></trkpt><trkpt lat="45.482863353064374" lon="9.071472552167316"><ele>131.0</ele><time>2026-03-29T16:33:55Z</time></trkpt><trkpt lat="45.48299154457454" lon="9.07133672033949"><ele>131.0</ele><time>2026-03-29T16:33:56Z</time></trkpt><trkpt lat="45.48312829742101" lon="9.071199122634036"><ele>131.0</ele><time>2026-03-29T16:33:57Z</time></trkpt><trkpt lat="45.48326410194351" lon="9.071066191121895"><ele>131.0</ele><time>2026-03-29T16:33:58Z</time></trkpt><trkpt lat="45.48341267359628" lon="9.07094640752178"><ele>131.0</ele><time>2026-03-29T16:33:59Z</time></trkpt><trkpt lat="45.48353931284247" lon="9.07081836352403"><ele>131.0</ele><time>2026-03-29T16:34:00Z</time></trkpt><trkpt lat="45.483672491355726" lon="9.070699888106157"><ele>131.0</ele><time>2026-03-29T16:34:01Z</time></trkpt><trkpt lat="45.48380042598318" lon="9.070574285009"><ele>130.33333333333331</ele><time>2026-03-29T16:34:02Z</time></trkpt><trkpt lat="45.48392943154587" lon="9.070449510892125"><ele>129.66666666666666</ele><time>2026-03-29T16:34:03Z</time></trkpt><trkpt lat="45.48406166907467" lon="9.07032761209577"><ele>129.0</ele><time>2026-03-29T16:34:04Z</time></trkpt><trkpt lat="45.48418896050003" lon="9.070222015806712"><ele>129.0</ele><time>2026-03-29T16:34:05Z</time></trkpt><trkpt lat="45.48433879593228" lon="9.07006830076764"><ele>129.0</ele><time>2026-03-29T16:34:06Z</time></trkpt><trkpt lat="45.4844618979663" lon="9.069933840538596"><ele>129.0</ele><time>2026-03-29T16:34:07Z</time></trkpt><trkpt lat="45.484589218746365" lon="9.069799992030973"><ele>130.33333333333334</ele><time>2026-03-29T16:34:08Z</time></trkpt><trkpt lat="45.484698326472646" lon="9.069665388893611"><ele>131.66666666666669</ele><time>2026-03-29T16:34:09Z</time></trkpt><trkpt lat="45.48482621703647" lon="9.069538308812994"><ele>133.0</ele><time>2026-03-29T16:34:10Z</time></trkpt><trkpt lat="45.48499413454812" lon="9.069411162500124"><ele>133.0</ele><time>2026-03-29T16:34:11Z</time></trkpt><trkpt lat="45.48513396205621" lon="9.069286842354638"><ele>133.0</ele><time>2026-03-29T16:34:12Z</time></trkpt><trkpt lat="45.48527331264632" lon="9.069156703650428"><ele>133.0</ele><time>2026-03-29T16:34:13Z</time></trkpt><trkpt lat="45.48542778228809" lon="9.069028136220469"><ele>132.66666666666669</ele><time>2026-03-29T16:34:14Z</time></trkpt><trkpt lat="45.48557997804343" lon="9.068900380635101"><ele>132.33333333333334</ele><time>2026-03-29T16:34:15Z</time></trkpt><trkpt lat="45.48570269268057" lon="9.068781707528007"><ele>132.0</ele><time>2026-03-29T16:34:16Z</time></trkpt><trkpt lat="45.485853299085456" lon="9.068651005851597"><ele>132.0</ele><time>2026-03-29T16:34:17Z</time></trkpt><trkpt lat="45.48599757368972" lon="9.068526932736072"><ele>132.0</ele><time>2026-03-29T16:34:18Z</time></trkpt><trkpt lat="45.486152784579005" lon="9.068411263754673"><ele>132.0</ele><time>2026-03-29T16:34:19Z</time></trkpt><trkpt lat="45.486297124849095" lon="9.068305435049911"><ele>132.66666666666666</ele><time>2026-03-29T16:34:20Z</time></trkpt><trkpt lat="45.48644730080571" lon="9.068202483812431"><ele>133.33333333333331</ele><time>2026-03-29T16:34:21Z</time></trkpt><trkpt lat="45.486606796334776" lon="9.068093291396735"><ele>134.0</ele><time>2026-03-29T16:34:22Z</time></trkpt><trkpt lat="45.48675486096893" lon="9.067990849066208"><ele>134.0</ele><time>2026-03-29T16:34:23Z</time></trkpt><trkpt lat="45.48691004257162" lon="9.067897567024588"><ele>134.0</ele><time>2026-03-29T16:34:24Z</time></trkpt><trkpt lat="45.48707096342279" lon="9.067804799565259"><ele>134.0</ele><time>2026-03-29T16:34:25Z</time></trkpt><trkpt lat="45.48723621072106" lon="9.067707554360101"><ele>134.66666666666666</ele><time>2026-03-29T16:34:26Z</time></trkpt><trkpt lat="45.48740091696544" lon="9.067615823914789"><ele>135.33333333333334</ele><time>2026-03-29T16:34:27Z</time></trkpt><trkpt lat="45.48756656189977" lon="9.06752739267045"><ele>136.0</ele><time>2026-03-29T16:34:28Z</time></trkpt><trkpt lat="45.48774492768354" lon="9.067449021208848"><ele>136.0</ele><time>2026-03-29T16:34:29Z</time></trkpt><trkpt lat="45.48789741584687" lon="9.06737464072706"><ele>136.0</ele><time>2026-03-29T16:34:30Z</time></trkpt><trkpt lat="45.48805563330934" lon="9.067305379412735"><ele>136.0</ele><time>2026-03-29T16:34:31Z</time></trkpt><trkpt lat="45.48821894149317" lon="9.067236352559943"><ele>136.0</ele><time>2026-03-29T16:34:32Z</time></trkpt><trkpt lat="45.48838577102081" lon="9.06717444287678"><ele>136.0</ele><time>2026-03-29T16:34:33Z</time></trkpt><trkpt lat="45.4885460672929" lon="9.067116503323893"><ele>136.0</ele><time>2026-03-29T16:34:34Z</time></trkpt><trkpt lat="45.48870419463673" lon="9.067061652297836"><ele>136.0</ele><time>2026-03-29T16:34:35Z</time></trkpt><trkpt lat="45.48885976111728" lon="9.067015018891048"><ele>136.0</ele><time>2026-03-29T16:34:36Z</time></trkpt><trkpt lat="45.489026197903655" lon="9.066964013805636"><ele>136.0</ele><time>2026-03-29T16:34:37Z</time></trkpt><trkpt lat="45.48919497215008" lon="9.066917766176733"><ele>136.0</ele><time>2026-03-29T16:34:38Z</time></trkpt><trkpt lat="45.48936064809501" lon="9.066879200891607"><ele>136.0</ele><time>2026-03-29T16:34:39Z</time></trkpt><trkpt lat="45.48952664490263" lon="9.0668422455784"><ele>136.0</ele><time>2026-03-29T16:34:40Z</time></trkpt><trkpt lat="45.4896978147835" lon="9.06680944537315"><ele>136.0</ele><time>2026-03-29T16:34:41Z</time></trkpt><trkpt lat="45.4898869086214" lon="9.066777917046103"><ele>136.0</ele><time>2026-03-29T16:34:42Z</time></trkpt><trkpt lat="45.490089226435494" lon="9.06675543360133"><ele>136.0</ele><time>2026-03-29T16:34:43Z</time></trkpt><trkpt lat="45.490291573066074" lon="9.066736034170718"><ele>135.33333333333334</ele><time>2026-03-29T16:34:44Z</time></trkpt><trkpt lat="45.49048914772601" lon="9.066726283769915"><ele>134.66666666666666</ele><time>2026-03-29T16:34:45Z</time></trkpt><trkpt lat="45.49067503545266" lon="9.06671051004402"><ele>134.0</ele><time>2026-03-29T16:34:45.999Z</time></trkpt><trkpt lat="45.49084494919696" lon="9.066709498170615"><ele>134.0</ele><time>2026-03-29T16:34:46.999Z</time></trkpt><trkpt lat="45.49100720718036" lon="9.066710571804792"><ele>134.0</ele><time>2026-03-29T16:34:47.999Z</time></trkpt><trkpt lat="45.49117546755785" lon="9.066702139010063"><ele>134.0</ele><time>2026-03-29T16:34:48.999Z</time></trkpt><trkpt lat="45.491338508487374" lon="9.06668799871812"><ele>133.66666666666666</ele><time>2026-03-29T16:34:49.999Z</time></trkpt><trkpt lat="45.49150267593231" lon="9.066669322149236"><ele>133.33333333333334</ele><time>2026-03-29T16:34:50.999Z</time></trkpt><trkpt lat="45.49165432791279" lon="9.066709721359771"><ele>133.0</ele><time>2026-03-29T16:34:51.999Z</time></trkpt><trkpt lat="45.49180008003164" lon="9.066717695446625"><ele>133.0</ele><time>2026-03-29T16:34:52.999Z</time></trkpt><trkpt lat="45.4919353765356" lon="9.066712969937054"><ele>133.0</ele><time>2026-03-29T16:34:53.999Z</time></trkpt><trkpt lat="45.49205731589405" lon="9.066717147784614"><ele>133.0</ele><time>2026-03-29T16:34:54.999Z</time></trkpt><trkpt lat="45.492177802498304" lon="9.06672105021702"><ele>133.0</ele><time>2026-03-29T16:34:55.999Z</time></trkpt><trkpt lat="45.49229038348805" lon="9.066725519611545"><ele>133.20000000000002</ele><time>2026-03-29T16:34:56.999Z</time></trkpt><trkpt lat="45.492390983169905" lon="9.066732582345457"><ele>133.4</ele><time>2026-03-29T16:34:57.999Z</time></trkpt><trkpt lat="45.4924853732609" lon="9.066728168386767"><ele>133.60000000000002</ele><time>2026-03-29T16:34:58.999Z</time></trkpt><trkpt lat="45.49258619600245" lon="9.066727552511777"><ele>133.8</ele><time>2026-03-29T16:34:59.999Z</time></trkpt><trkpt lat="45.492687997860976" lon="9.066730167314432"><ele>134.0</ele><time>2026-03-29T16:35:00.999Z</time></trkpt><trkpt lat="45.49277958733772" lon="9.066731407282244"><ele>134.0</ele><time>2026-03-29T16:35:01.999Z</time></trkpt><trkpt lat="45.492869301245605" lon="9.066732412621379"><ele>134.0</ele><time>2026-03-29T16:35:02.999Z</time></trkpt><trkpt lat="45.4929669585502" lon="9.066734233544405"><ele>134.0</ele><time>2026-03-29T16:35:03.999Z</time></trkpt><trkpt lat="45.4930704941098" lon="9.06673789570327"><ele>134.0</ele><time>2026-03-29T16:35:04.999Z</time></trkpt><trkpt lat="45.49318371252517" lon="9.066749295554606"><ele>134.0</ele><time>2026-03-29T16:35:05.999Z</time></trkpt><trkpt lat="45.49331342349039" lon="9.066763119093762"><ele>134.66666666666666</ele><time>2026-03-29T16:35:06.999Z</time></trkpt><trkpt lat="45.49345110555957" lon="9.066764948400557"><ele>135.33333333333334</ele><time>2026-03-29T16:35:07.999Z</time></trkpt><trkpt lat="45.493655102076026" lon="9.06678470528394"><ele>136.0</ele><time>2026-03-29T16:35:08.999Z</time></trkpt><trkpt lat="45.49385281258167" lon="9.066800912214386"><ele>136.0</ele><time>2026-03-29T16:35:09.999Z</time></trkpt><trkpt lat="45.494045793992115" lon="9.066808588742322"><ele>136.0</ele><time>2026-03-29T16:35:10.999Z</time></trkpt><trkpt lat="45.494240779974376" lon="9.06682065423119"><ele>136.0</ele><time>2026-03-29T16:35:11.999Z</time></trkpt><trkpt lat="45.4944394446931" lon="9.066843507520236"><ele>135.66666666666669</ele><time>2026-03-29T16:35:12.999Z</time></trkpt><trkpt lat="45.49462942063084" lon="9.066855484207418"><ele>135.33333333333334</ele><time>2026-03-29T16:35:13.999Z</time></trkpt><trkpt lat="45.49481915646431" lon="9.066883516587673"><ele>135.0</ele><time>2026-03-29T16:35:14.999Z</time></trkpt><trkpt lat="45.494990925539135" lon="9.066899907319868"><ele>135.0</ele><time>2026-03-29T16:35:15.999Z</time></trkpt><trkpt lat="45.49518547295582" lon="9.066880558869467"><ele>135.0</ele><time>2026-03-29T16:35:16.999Z</time></trkpt><trkpt lat="45.49534682874879" lon="9.066876679776724"><ele>135.0</ele><time>2026-03-29T16:35:17.999Z</time></trkpt><trkpt lat="45.495496584355365" lon="9.066938890909372"><ele>135.25</ele><time>2026-03-29T16:35:18.999Z</time></trkpt><trkpt lat="45.49562784571639" lon="9.066948634363339"><ele>135.5</ele><time>2026-03-29T16:35:19.999Z</time></trkpt><trkpt lat="45.49575161447236" lon="9.066955943035872"><ele>135.75</ele><time>2026-03-29T16:35:21Z</time></trkpt><trkpt lat="45.495876189488136" lon="9.066965731392921"><ele>136.0</ele><time>2026-03-29T16:35:22Z</time></trkpt><trkpt lat="45.49598398185855" lon="9.066984973010683"><ele>136.0</ele><time>2026-03-29T16:35:23Z</time></trkpt><trkpt lat="45.49609933904994" lon="9.0670193961048"><ele>136.0</ele><time>2026-03-29T16:35:24Z</time></trkpt><trkpt lat="45.4962159031799" lon="9.06709377616529"><ele>136.0</ele><time>2026-03-29T16:35:25Z</time></trkpt><trkpt lat="45.49633955829383" lon="9.067197880809685"><ele>136.0</ele><time>2026-03-29T16:35:26Z</time></trkpt><trkpt lat="45.496467373711006" lon="9.067342206490638"><ele>136.0</ele><time>2026-03-29T16:35:27Z</time></trkpt><trkpt lat="45.49659051749879" lon="9.067532950418105"><ele>136.0</ele><time>2026-03-29T16:35:28Z</time></trkpt><trkpt lat="45.496719813797434" lon="9.067751886618687"><ele>136.0</ele><time>2026-03-29T16:35:29Z</time></trkpt><trkpt lat="45.49685711154564" lon="9.067975370495967"><ele>136.0</ele><time>2026-03-29T16:35:30Z</time></trkpt><trkpt lat="45.497007452449985" lon="9.068203341533223"><ele>136.0</ele><time>2026-03-29T16:35:31Z</time></trkpt><trkpt lat="45.4971524726602" lon="9.068430161746724"><ele>136.0</ele><time>2026-03-29T16:35:32Z</time></trkpt><trkpt lat="45.497290103339225" lon="9.068628838834954"><ele>136.66666666666669</ele><time>2026-03-29T16:35:33Z</time></trkpt><trkpt lat="45.497412414837946" lon="9.068811164805204"><ele>137.33333333333334</ele><time>2026-03-29T16:35:34Z</time></trkpt><trkpt lat="45.49752118775918" lon="9.068980370347223"><ele>138.0</ele><time>2026-03-29T16:35:35Z</time></trkpt><trkpt lat="45.49762119612688" lon="9.069133154163803"><ele>138.0</ele><time>2026-03-29T16:35:36Z</time></trkpt><trkpt lat="45.49770028381368" lon="9.069285923954551"><ele>138.0</ele><time>2026-03-29T16:35:37Z</time></trkpt><trkpt lat="45.497761972721484" lon="9.069455586320338"><ele>138.0</ele><time>2026-03-29T16:35:38Z</time></trkpt><trkpt lat="45.49780929018857" lon="9.069638074763755"><ele>138.0</ele><time>2026-03-29T16:35:39Z</time></trkpt><trkpt lat="45.497833235843025" lon="9.069831840548979"><ele>139.0</ele><time>2026-03-29T16:35:40Z</time></trkpt><trkpt lat="45.49783952584158" lon="9.070029743628195"><ele>140.0</ele><time>2026-03-29T16:35:41Z</time></trkpt><trkpt lat="45.49784162128758" lon="9.070239097730834"><ele>141.0</ele><time>2026-03-29T16:35:42Z</time></trkpt><trkpt lat="45.49784734222531" lon="9.070485810137097"><ele>140.66666666666666</ele><time>2026-03-29T16:35:43Z</time></trkpt><trkpt lat="45.49785203311208" lon="9.070774536076428"><ele>140.33333333333331</ele><time>2026-03-29T16:35:44Z</time></trkpt><trkpt lat="45.49785228572182" lon="9.07111127226415"><ele>140.0</ele><time>2026-03-29T16:35:45Z</time></trkpt><trkpt lat="45.49785112254927" lon="9.071487164538933"><ele>139.5</ele><time>2026-03-29T16:35:46Z</time></trkpt><trkpt lat="45.4978410251521" lon="9.071880836165743"><ele>139.0</ele><time>2026-03-29T16:35:47Z</time></trkpt><trkpt lat="45.4978199350335" lon="9.072265123127025"><ele>138.0</ele><time>2026-03-29T16:35:48Z</time></trkpt><trkpt lat="45.497810518028196" lon="9.07268059447817"><ele>137.0</ele><time>2026-03-29T16:35:49Z</time></trkpt><trkpt lat="45.49779849831038" lon="9.073078770791266"><ele>136.5</ele><time>2026-03-29T16:35:50Z</time></trkpt><trkpt lat="45.497787039108154" lon="9.073465790033572"><ele>136.0</ele><time>2026-03-29T16:35:51Z</time></trkpt><trkpt lat="45.49777535354829" lon="9.073846596605089"><ele>137.0</ele><time>2026-03-29T16:35:52Z</time></trkpt><trkpt lat="45.49776550971499" lon="9.074240905184585"><ele>138.0</ele><time>2026-03-29T16:35:53Z</time></trkpt><trkpt lat="45.49775603539539" lon="9.074602416217951"><ele>138.0</ele><time>2026-03-29T16:35:54Z</time></trkpt><trkpt lat="45.49774007569138" lon="9.074932647361395"><ele>138.0</ele><time>2026-03-29T16:35:55Z</time></trkpt><trkpt lat="45.49774127973487" lon="9.075259358563093"><ele>138.0</ele><time>2026-03-29T16:35:56Z</time></trkpt><trkpt lat="45.49774336956877" lon="9.075598256353347"><ele>138.0</ele><time>2026-03-29T16:35:57Z</time></trkpt><trkpt lat="45.497739220528175" lon="9.075948429896291"><ele>138.0</ele><time>2026-03-29T16:35:58Z</time></trkpt><trkpt lat="45.49774398448395" lon="9.076292702554701"><ele>138.0</ele><time>2026-03-29T16:35:59Z</time></trkpt><trkpt lat="45.497764389243066" lon="9.07664157268986"><ele>137.5</ele><time>2026-03-29T16:36:00Z</time></trkpt><trkpt lat="45.497799231293584" lon="9.076982015868783"><ele>137.0</ele><time>2026-03-29T16:36:01Z</time></trkpt><trkpt lat="45.49779202044323" lon="9.077367710209352"><ele>137.5</ele><time>2026-03-29T16:36:02Z</time></trkpt><trkpt lat="45.49780611956374" lon="9.077730909459238"><ele>138.0</ele><time>2026-03-29T16:36:03Z</time></trkpt><trkpt lat="45.49784680771462" lon="9.078078413583903"><ele>139.0</ele><time>2026-03-29T16:36:04Z</time></trkpt><trkpt lat="45.49786342836511" lon="9.078405945796144"><ele>140.0</ele><time>2026-03-29T16:36:05Z</time></trkpt><trkpt lat="45.49789785671778" lon="9.078753715653933"><ele>140.0</ele><time>2026-03-29T16:36:06Z</time></trkpt><trkpt lat="45.49793938791248" lon="9.079107997490794"><ele>140.0</ele><time>2026-03-29T16:36:07Z</time></trkpt><trkpt lat="45.498002551816114" lon="9.079486866159991"><ele>140.0</ele><time>2026-03-29T16:36:08Z</time></trkpt><trkpt lat="45.497993935462006" lon="9.07982403808179"><ele>140.0</ele><time>2026-03-29T16:36:09Z</time></trkpt><trkpt lat="45.49802061033292" lon="9.080196377506187"><ele>139.5</ele><time>2026-03-29T16:36:10Z</time></trkpt><trkpt lat="45.498048526081156" lon="9.08056939739156"><ele>139.0</ele><time>2026-03-29T16:36:11Z</time></trkpt><trkpt lat="45.49808113257756" lon="9.080938275819763"><ele>139.0</ele><time>2026-03-29T16:36:12Z</time></trkpt><trkpt lat="45.49810577385746" lon="9.081300991431462"><ele>139.0</ele><time>2026-03-29T16:36:13Z</time></trkpt><trkpt lat="45.49812617131372" lon="9.081655618369021"><ele>138.5</ele><time>2026-03-29T16:36:14Z</time></trkpt><trkpt lat="45.49815732157199" lon="9.081998507145393"><ele>138.0</ele><time>2026-03-29T16:36:15Z</time></trkpt><trkpt lat="45.498175950200846" lon="9.082346796037626"><ele>138.0</ele><time>2026-03-29T16:36:16Z</time></trkpt><trkpt lat="45.4981955421988" lon="9.082688834666227"><ele>138.0</ele><time>2026-03-29T16:36:17Z</time></trkpt><trkpt lat="45.49823453984549" lon="9.08302703183851"><ele>138.0</ele><time>2026-03-29T16:36:18Z</time></trkpt><trkpt lat="45.49825472868937" lon="9.083349500098768"><ele>138.0</ele><time>2026-03-29T16:36:19Z</time></trkpt><trkpt lat="45.49829274166159" lon="9.083663940083122"><ele>138.0</ele><time>2026-03-29T16:36:20Z</time></trkpt><trkpt lat="45.49833719116202" lon="9.083976732008725"><ele>138.0</ele><time>2026-03-29T16:36:21Z</time></trkpt><trkpt lat="45.49839062638588" lon="9.084300347416203"><ele>137.5</ele><time>2026-03-29T16:36:22Z</time></trkpt><trkpt lat="45.49845889806026" lon="9.084620729863676"><ele>137.0</ele><time>2026-03-29T16:36:23Z</time></trkpt><trkpt lat="45.498528985812584" lon="9.084928090501208"><ele>137.0</ele><time>2026-03-29T16:36:24Z</time></trkpt><trkpt lat="45.49861197435588" lon="9.085229409271028"><ele>137.0</ele><time>2026-03-29T16:36:25Z</time></trkpt><trkpt lat="45.498707724550364" lon="9.085526865716218"><ele>137.0</ele><time>2026-03-29T16:36:26Z</time></trkpt><trkpt lat="45.49880798746123" lon="9.08584641631967"><ele>137.0</ele><time>2026-03-29T16:36:27Z</time></trkpt><trkpt lat="45.49891835538641" lon="9.086137120612833"><ele>137.0</ele><time>2026-03-29T16:36:28Z</time></trkpt><trkpt lat="45.49904018415558" lon="9.0864255361572"><ele>137.0</ele><time>2026-03-29T16:36:29Z</time></trkpt><trkpt lat="45.49917171160454" lon="9.086711644168076"><ele>136.0</ele><time>2026-03-29T16:36:30Z</time></trkpt><trkpt lat="45.49931213424547" lon="9.086984429089748"><ele>135.0</ele><time>2026-03-29T16:36:31Z</time></trkpt><trkpt lat="45.49945974825483" lon="9.087253349239614"><ele>136.5</ele><time>2026-03-29T16:36:32Z</time></trkpt><trkpt lat="45.49961243623178" lon="9.087515759557512"><ele>138.0</ele><time>2026-03-29T16:36:33Z</time></trkpt><trkpt lat="45.499787842649695" lon="9.087749983856533"><ele>138.0</ele><time>2026-03-29T16:36:34Z</time></trkpt><trkpt lat="45.499940527769475" lon="9.088017455817537"><ele>138.0</ele><time>2026-03-29T16:36:35Z</time></trkpt><trkpt lat="45.50009761070683" lon="9.088261662333993"><ele>138.33333333333334</ele><time>2026-03-29T16:36:36Z</time></trkpt><trkpt lat="45.50025368841195" lon="9.088493703715622"><ele>138.66666666666669</ele><time>2026-03-29T16:36:37Z</time></trkpt><trkpt lat="45.500407171749174" lon="9.088717277731302"><ele>139.0</ele><time>2026-03-29T16:36:38Z</time></trkpt><trkpt lat="45.50055880661097" lon="9.0889155987032"><ele>139.0</ele><time>2026-03-29T16:36:39Z</time></trkpt><trkpt lat="45.500725748750895" lon="9.089101854690677"><ele>139.0</ele><time>2026-03-29T16:36:40Z</time></trkpt><trkpt lat="45.5008959986326" lon="9.089290302072182"><ele>139.0</ele><time>2026-03-29T16:36:41Z</time></trkpt><trkpt lat="45.501075508033495" lon="9.0894718814514"><ele>139.66666666666669</ele><time>2026-03-29T16:36:42Z</time></trkpt><trkpt lat="45.501251274504206" lon="9.08962532303925"><ele>140.33333333333334</ele><time>2026-03-29T16:36:43Z</time></trkpt><trkpt lat="45.501431547917505" lon="9.08977921837365"><ele>141.0</ele><time>2026-03-29T16:36:44Z</time></trkpt><trkpt lat="45.50161773470604" lon="9.089917716200722"><ele>140.66666666666666</ele><time>2026-03-29T16:36:45Z</time></trkpt><trkpt lat="45.501802576374615" lon="9.090060285270221"><ele>140.33333333333331</ele><time>2026-03-29T16:36:46Z</time></trkpt><trkpt lat="45.50195473663363" lon="9.090132628247506"><ele>140.0</ele><time>2026-03-29T16:36:47Z</time></trkpt><trkpt lat="45.502116069740964" lon="9.090219284235934"><ele>140.66666666666666</ele><time>2026-03-29T16:36:48Z</time></trkpt><trkpt lat="45.50228739603278" lon="9.090299021771989"><ele>141.33333333333334</ele><time>2026-03-29T16:36:49Z</time></trkpt><trkpt lat="45.502454839270214" lon="9.090366173326787"><ele>142.0</ele><time>2026-03-29T16:36:50Z</time></trkpt><trkpt lat="45.5026163502111" lon="9.090426227783645"><ele>142.0</ele><time>2026-03-29T16:36:51Z</time></trkpt><trkpt lat="45.50278299000148" lon="9.090480707831732"><ele>142.0</ele><time>2026-03-29T16:36:52Z</time></trkpt><trkpt lat="45.502942139213" lon="9.090542892707573"><ele>142.0</ele><time>2026-03-29T16:36:53Z</time></trkpt><trkpt lat="45.50308986672741" lon="9.090590802887522"><ele>141.0</ele><time>2026-03-29T16:36:54Z</time></trkpt><trkpt lat="45.503243920691155" lon="9.090656797624675"><ele>140.0</ele><time>2026-03-29T16:36:55Z</time></trkpt><trkpt lat="45.503398754861074" lon="9.090718862084845"><ele>139.0</ele><time>2026-03-29T16:36:56Z</time></trkpt><trkpt lat="45.50355978493025" lon="9.090785678969013"><ele>139.0</ele><time>2026-03-29T16:36:57Z</time></trkpt><trkpt lat="45.50371638252606" lon="9.090857321822623"><ele>139.0</ele><time>2026-03-29T16:36:58Z</time></trkpt><trkpt lat="45.50386763239229" lon="9.09092448613347"><ele>139.0</ele><time>2026-03-29T16:36:59Z</time></trkpt><trkpt lat="45.50402552683858" lon="9.090989032149167"><ele>139.0</ele><time>2026-03-29T16:36:59.999Z</time></trkpt><trkpt lat="45.504178645455305" lon="9.091068421591832"><ele>139.0</ele><time>2026-03-29T16:37:00.999Z</time></trkpt><trkpt lat="45.50433083854426" lon="9.09116092186244"><ele>139.0</ele><time>2026-03-29T16:37:01.999Z</time></trkpt><trkpt lat="45.50448060084753" lon="9.091258500168141"><ele>138.33333333333334</ele><time>2026-03-29T16:37:02.999Z</time></trkpt><trkpt lat="45.50463284182318" lon="9.091387054804931"><ele>137.66666666666666</ele><time>2026-03-29T16:37:03.999Z</time></trkpt><trkpt lat="45.504782367659544" lon="9.091512731741808"><ele>137.0</ele><time>2026-03-29T16:37:04.999Z</time></trkpt><trkpt lat="45.504920489590894" lon="9.091634361479649"><ele>137.0</ele><time>2026-03-29T16:37:05.999Z</time></trkpt><trkpt lat="45.505049585373165" lon="9.09175985952078"><ele>137.0</ele><time>2026-03-29T16:37:06.999Z</time></trkpt><trkpt lat="45.5051676442907" lon="9.091895158053951"><ele>137.0</ele><time>2026-03-29T16:37:07.999Z</time></trkpt><trkpt lat="45.50527934556513" lon="9.092037039453626"><ele>137.0</ele><time>2026-03-29T16:37:08.999Z</time></trkpt><trkpt lat="45.505379292932744" lon="9.092183605794178"><ele>137.0</ele><time>2026-03-29T16:37:09.999Z</time></trkpt><trkpt lat="45.505481188831645" lon="9.09233968366805"><ele>137.0</ele><time>2026-03-29T16:37:10.999Z</time></trkpt><trkpt lat="45.50557900665759" lon="9.092479631408482"><ele>137.0</ele><time>2026-03-29T16:37:11.999Z</time></trkpt><trkpt lat="45.5056846418938" lon="9.09262843097356"><ele>137.0</ele><time>2026-03-29T16:37:12.999Z</time></trkpt><trkpt lat="45.505783490013634" lon="9.092771355676383"><ele>137.0</ele><time>2026-03-29T16:37:13.999Z</time></trkpt><trkpt lat="45.50588615314829" lon="9.092919047276633"><ele>137.0</ele><time>2026-03-29T16:37:14.999Z</time></trkpt><trkpt lat="45.50599757792841" lon="9.093075212649318"><ele>137.0</ele><time>2026-03-29T16:37:15.999Z</time></trkpt><trkpt lat="45.506113640977645" lon="9.093234185454554"><ele>137.0</ele><time>2026-03-29T16:37:16.999Z</time></trkpt><trkpt lat="45.506218926572444" lon="9.093393412545044"><ele>137.0</ele><time>2026-03-29T16:37:17.999Z</time></trkpt><trkpt lat="45.50631461194042" lon="9.093526807250988"><ele>137.0</ele><time>2026-03-29T16:37:18.999Z</time></trkpt><trkpt lat="45.506392206134336" lon="9.093655706405753"><ele>137.0</ele><time>2026-03-29T16:37:19.999Z</time></trkpt><trkpt lat="45.50647233558447" lon="9.093794154886263"><ele>137.0</ele><time>2026-03-29T16:37:20.999Z</time></trkpt><trkpt lat="45.50655031407178" lon="9.093941272559892"><ele>137.0</ele><time>2026-03-29T16:37:21.999Z</time></trkpt><trkpt lat="45.5066167413617" lon="9.0941356577247"><ele>137.0</ele><time>2026-03-29T16:37:22.999Z</time></trkpt><trkpt lat="45.50666936757617" lon="9.094334208630647"><ele>137.0</ele><time>2026-03-29T16:37:23.999Z</time></trkpt><trkpt lat="45.506730685133995" lon="9.094517979600136"><ele>137.0</ele><time>2026-03-29T16:37:24.999Z</time></trkpt><trkpt lat="45.506776837971444" lon="9.09469315837293"><ele>137.0</ele><time>2026-03-29T16:37:25.999Z</time></trkpt><trkpt lat="45.50682780987728" lon="9.094848162336156"><ele>137.0</ele><time>2026-03-29T16:37:27Z</time></trkpt><trkpt lat="45.50687116226507" lon="9.09499367185674"><ele>137.0</ele><time>2026-03-29T16:37:28Z</time></trkpt><trkpt lat="45.50690249026518" lon="9.095117723612303"><ele>137.16666666666666</ele><time>2026-03-29T16:37:29Z</time></trkpt><trkpt lat="45.5069342101072" lon="9.095225456840792"><ele>137.33333333333331</ele><time>2026-03-29T16:37:30Z</time></trkpt><trkpt lat="45.506959265218164" lon="9.09533551166404"><ele>137.5</ele><time>2026-03-29T16:37:31Z</time></trkpt><trkpt lat="45.506980886356956" lon="9.095447072484781"><ele>137.66666666666666</ele><time>2026-03-29T16:37:32Z</time></trkpt><trkpt lat="45.50699425866809" lon="9.09555925808925"><ele>137.83333333333334</ele><time>2026-03-29T16:37:33Z</time></trkpt><trkpt lat="45.50700901034375" lon="9.095683287783366"><ele>138.0</ele><time>2026-03-29T16:37:34Z</time></trkpt><trkpt lat="45.507017525058004" lon="9.09581371265176"><ele>138.0</ele><time>2026-03-29T16:37:35Z</time></trkpt><trkpt lat="45.50702111133173" lon="9.095947524908384"><ele>138.0</ele><time>2026-03-29T16:37:36Z</time></trkpt><trkpt lat="45.50702497114906" lon="9.096094711960145"><ele>138.0</ele><time>2026-03-29T16:37:37Z</time></trkpt><trkpt lat="45.50702074796993" lon="9.09624570536643"><ele>138.0</ele><time>2026-03-29T16:37:38Z</time></trkpt><trkpt lat="45.507011861085566" lon="9.096378117043095"><ele>138.0</ele><time>2026-03-29T16:37:39Z</time></trkpt><trkpt lat="45.50701624445403" lon="9.096491934473445"><ele>138.20000000000002</ele><time>2026-03-29T16:37:40Z</time></trkpt><trkpt lat="45.50699919834809" lon="9.096637122815704"><ele>138.4</ele><time>2026-03-29T16:37:41Z</time></trkpt><trkpt lat="45.50697950395202" lon="9.09683027375718"><ele>138.60000000000002</ele><time>2026-03-29T16:37:43Z</time></trkpt><trkpt lat="45.506958749617155" lon="9.09693136392972"><ele>138.8</ele><time>2026-03-29T16:37:44Z</time></trkpt><trkpt lat="45.5069228205601" lon="9.097078109002043"><ele>139.0</ele><time>2026-03-29T16:37:46Z</time></trkpt><trkpt lat="45.50689995674997" lon="9.097173248193227"><ele>139.0</ele><time>2026-03-29T16:37:48Z</time></trkpt><trkpt lat="45.50687418745369" lon="9.097268777764118"><ele>139.0</ele><time>2026-03-29T16:37:59Z</time></trkpt><trkpt lat="45.506841305199664" lon="9.097443506595773"><ele>139.0</ele><time>2026-03-29T16:38:01Z</time></trkpt><trkpt lat="45.50681521057134" lon="9.097541498697195"><ele>139.0</ele><time>2026-03-29T16:38:02Z</time></trkpt><trkpt lat="45.506791134375995" lon="9.097662387970919"><ele>139.0</ele><time>2026-03-29T16:38:03Z</time></trkpt><trkpt lat="45.50676312767914" lon="9.097771365612484"><ele>139.0</ele><time>2026-03-29T16:38:04Z</time></trkpt><trkpt lat="45.5067416519193" lon="9.097896700481135"><ele>139.0</ele><time>2026-03-29T16:38:05Z</time></trkpt><trkpt lat="45.50670724689897" lon="9.098023416330047"><ele>139.0</ele><time>2026-03-29T16:38:06Z</time></trkpt><trkpt lat="45.50668779470979" lon="9.098117223342147"><ele>139.0</ele><time>2026-03-29T16:38:07Z</time></trkpt><trkpt lat="45.50664930254495" lon="9.09828501321576"><ele>139.0</ele><time>2026-03-29T16:38:08Z</time></trkpt><trkpt lat="45.506622034739685" lon="9.098419448162524"><ele>139.0</ele><time>2026-03-29T16:38:09Z</time></trkpt><trkpt lat="45.506587248491655" lon="9.098552550828176"><ele>139.0</ele><time>2026-03-29T16:38:10Z</time></trkpt><trkpt lat="45.5065523816409" lon="9.098686773880518"><ele>139.0</ele><time>2026-03-29T16:38:11Z</time></trkpt><trkpt lat="45.506535213040664" lon="9.098832719604532"><ele>139.0</ele><time>2026-03-29T16:38:12Z</time></trkpt><trkpt lat="45.506498878709" lon="9.09900081285734"><ele>139.0</ele><time>2026-03-29T16:38:13Z</time></trkpt><trkpt lat="45.50644939690564" lon="9.099163451278278"><ele>139.25</ele><time>2026-03-29T16:38:14Z</time></trkpt><trkpt lat="45.506414366509645" lon="9.09934791571846"><ele>139.5</ele><time>2026-03-29T16:38:15Z</time></trkpt><trkpt lat="45.50637244368489" lon="9.09950880214323"><ele>139.75</ele><time>2026-03-29T16:38:16Z</time></trkpt><trkpt lat="45.50633529350504" lon="9.099671983107724"><ele>140.0</ele><time>2026-03-29T16:38:17Z</time></trkpt><trkpt lat="45.50629790095165" lon="9.09981426501628"><ele>139.66666666666666</ele><time>2026-03-29T16:38:18Z</time></trkpt><trkpt lat="45.50624285394669" lon="9.099960496819122"><ele>139.33333333333331</ele><time>2026-03-29T16:38:19Z</time></trkpt><trkpt lat="45.50621467391839" lon="9.100080856634511"><ele>139.0</ele><time>2026-03-29T16:38:20Z</time></trkpt><trkpt lat="45.50619623257134" lon="9.100182429652193"><ele>138.66666666666666</ele><time>2026-03-29T16:38:21Z</time></trkpt><trkpt lat="45.50617982566052" lon="9.100302119828843"><ele>138.33333333333334</ele><time>2026-03-29T16:38:22Z</time></trkpt><trkpt lat="45.50615070074178" lon="9.100407845536475"><ele>138.0</ele><time>2026-03-29T16:38:23Z</time></trkpt><trkpt lat="45.5061203896145" lon="9.100506169473677"><ele>138.0</ele><time>2026-03-29T16:38:24Z</time></trkpt><trkpt lat="45.506080648629116" lon="9.100608768421026"><ele>138.0</ele><time>2026-03-29T16:38:25Z</time></trkpt><trkpt lat="45.50602045895769" lon="9.100689838266948"><ele>138.0</ele><time>2026-03-29T16:38:26Z</time></trkpt><trkpt lat="45.50598891965272" lon="9.100784506710243"><ele>138.0</ele><time>2026-03-29T16:38:27Z</time></trkpt><trkpt lat="45.50596440776509" lon="9.100903576376574"><ele>138.0</ele><time>2026-03-29T16:38:28Z</time></trkpt><trkpt lat="45.505955738986245" lon="9.10105714118246"><ele>138.0</ele><time>2026-03-29T16:38:29Z</time></trkpt><trkpt lat="45.505927763372284" lon="9.101224387465164"><ele>137.75</ele><time>2026-03-29T16:38:30Z</time></trkpt><trkpt lat="45.505883239882834" lon="9.10140967851468"><ele>137.5</ele><time>2026-03-29T16:38:31Z</time></trkpt><trkpt lat="45.50584038131534" lon="9.101615220112004"><ele>137.25</ele><time>2026-03-29T16:38:32Z</time></trkpt><trkpt lat="45.50578786859632" lon="9.101789598074019"><ele>137.0</ele><time>2026-03-29T16:38:32.999Z</time></trkpt><trkpt lat="45.50574235815317" lon="9.101959359581882"><ele>137.0</ele><time>2026-03-29T16:38:33.999Z</time></trkpt><trkpt lat="45.50572227332849" lon="9.102115592356238"><ele>137.0</ele><time>2026-03-29T16:38:34.999Z</time></trkpt><trkpt lat="45.505688814269384" lon="9.10227545603642"><ele>137.0</ele><time>2026-03-29T16:38:35.999Z</time></trkpt><trkpt lat="45.50565251245368" lon="9.102443326074127"><ele>137.0</ele><time>2026-03-29T16:38:36.999Z</time></trkpt><trkpt lat="45.505611109262325" lon="9.102607006097305"><ele>137.0</ele><time>2026-03-29T16:38:37.999Z</time></trkpt><trkpt lat="45.50557418512903" lon="9.102760611617239"><ele>137.0</ele><time>2026-03-29T16:38:38.999Z</time></trkpt><trkpt lat="45.50553828851394" lon="9.10287707387143"><ele>137.0</ele><time>2026-03-29T16:38:39.999Z</time></trkpt><trkpt lat="45.50550596839631" lon="9.102987285260655"><ele>137.0</ele><time>2026-03-29T16:38:40.999Z</time></trkpt><trkpt lat="45.50548853992152" lon="9.103095353814657"><ele>137.0</ele><time>2026-03-29T16:38:41.999Z</time></trkpt><trkpt lat="45.50548612518832" lon="9.103199693400832"><ele>137.0</ele><time>2026-03-29T16:38:42.999Z</time></trkpt><trkpt lat="45.50549273828857" lon="9.103340679736881"><ele>137.16666666666666</ele><time>2026-03-29T16:38:44.999Z</time></trkpt><trkpt lat="45.5054697037981" lon="9.10342974772339"><ele>137.33333333333331</ele><time>2026-03-29T16:38:48.999Z</time></trkpt><trkpt lat="45.50539957536043" lon="9.103554545176198"><ele>137.5</ele><time>2026-03-29T16:38:50.999Z</time></trkpt><trkpt lat="45.50535535622521" lon="9.103660962448895"><ele>137.66666666666666</ele><time>2026-03-29T16:38:51.999Z</time></trkpt><trkpt lat="45.505345421355635" lon="9.103779286781732"><ele>137.83333333333334</ele><time>2026-03-29T16:38:52.999Z</time></trkpt><trkpt lat="45.50531468826058" lon="9.103886828018473"><ele>138.0</ele><time>2026-03-29T16:38:53.999Z</time></trkpt><trkpt lat="45.50527872888839" lon="9.104017340592206"><ele>137.5</ele><time>2026-03-29T16:38:54.999Z</time></trkpt><trkpt lat="45.50523288680377" lon="9.104165107740977"><ele>137.0</ele><time>2026-03-29T16:38:55.999Z</time></trkpt><trkpt lat="45.50519702876045" lon="9.104333182557124"><ele>136.5</ele><time>2026-03-29T16:38:56.999Z</time></trkpt><trkpt lat="45.50515700753241" lon="9.10450159784532"><ele>136.0</ele><time>2026-03-29T16:38:57.999Z</time></trkpt><trkpt lat="45.5051003275667" lon="9.104639463838351"><ele>136.0</ele><time>2026-03-29T16:38:58.999Z</time></trkpt><trkpt lat="45.50506778974352" lon="9.1047712875041"><ele>136.0</ele><time>2026-03-29T16:38:59.999Z</time></trkpt><trkpt lat="45.50506230609313" lon="9.1049141250529"><ele>136.0</ele><time>2026-03-29T16:39:00.999Z</time></trkpt><trkpt lat="45.50502236700952" lon="9.10504657278547"><ele>136.0</ele><time>2026-03-29T16:39:01.999Z</time></trkpt><trkpt lat="45.50498600687811" lon="9.105178542980081"><ele>136.0</ele><time>2026-03-29T16:39:02.999Z</time></trkpt><trkpt lat="45.5049437288441" lon="9.105312557387533"><ele>136.0</ele><time>2026-03-29T16:39:03.999Z</time></trkpt><trkpt lat="45.50490564459471" lon="9.10546136334661"><ele>136.0</ele><time>2026-03-29T16:39:04.999Z</time></trkpt><trkpt lat="45.50486243620461" lon="9.105636783264695"><ele>136.0</ele><time>2026-03-29T16:39:05.999Z</time></trkpt><trkpt lat="45.504820769343866" lon="9.105815620513445"><ele>136.0</ele><time>2026-03-29T16:39:06.999Z</time></trkpt><trkpt lat="45.504756924811375" lon="9.106002686896248"><ele>136.0</ele><time>2026-03-29T16:39:07.999Z</time></trkpt><trkpt lat="45.504712259452575" lon="9.106196056775756"><ele>136.0</ele><time>2026-03-29T16:39:08.999Z</time></trkpt><trkpt lat="45.50464724322042" lon="9.106390248072358"><ele>136.0</ele><time>2026-03-29T16:39:09.999Z</time></trkpt><trkpt lat="45.50462026099163" lon="9.106576667996183"><ele>136.0</ele><time>2026-03-29T16:39:10.999Z</time></trkpt><trkpt lat="45.5045830970304" lon="9.106791415600973"><ele>136.0</ele><time>2026-03-29T16:39:11.999Z</time></trkpt><trkpt lat="45.50453473507908" lon="9.106994146103652"><ele>136.0</ele><time>2026-03-29T16:39:12.999Z</time></trkpt><trkpt lat="45.50449041501935" lon="9.107183288387962"><ele>136.0</ele><time>2026-03-29T16:39:13.999Z</time></trkpt><trkpt lat="45.50443496097799" lon="9.107361211989645"><ele>136.0</ele><time>2026-03-29T16:39:14.999Z</time></trkpt><trkpt lat="45.504406040192684" lon="9.107536492491613"><ele>136.0</ele><time>2026-03-29T16:39:15.999Z</time></trkpt><trkpt lat="45.50435690254594" lon="9.107695876914812"><ele>136.0</ele><time>2026-03-29T16:39:16.999Z</time></trkpt><trkpt lat="45.50431182057234" lon="9.107852718112907"><ele>136.0</ele><time>2026-03-29T16:39:17.999Z</time></trkpt><trkpt lat="45.50428031444745" lon="9.10804256885409"><ele>136.0</ele><time>2026-03-29T16:39:18.999Z</time></trkpt><trkpt lat="45.504238907622586" lon="9.108213758871115"><ele>135.5</ele><time>2026-03-29T16:39:19.999Z</time></trkpt><trkpt lat="45.504185349520384" lon="9.108410329940883"><ele>135.0</ele><time>2026-03-29T16:39:20.999Z</time></trkpt><trkpt lat="45.5041436073231" lon="9.108576157573582"><ele>134.5</ele><time>2026-03-29T16:39:21.999Z</time></trkpt><trkpt lat="45.50410141588948" lon="9.108744579494752"><ele>134.0</ele><time>2026-03-29T16:39:22.999Z</time></trkpt><trkpt lat="45.5040667052592" lon="9.108891804119377"><ele>134.0</ele><time>2026-03-29T16:39:23.999Z</time></trkpt><trkpt lat="45.50403783551741" lon="9.109032186689456"><ele>134.0</ele><time>2026-03-29T16:39:24.999Z</time></trkpt><trkpt lat="45.504008211684145" lon="9.109142654359598"><ele>134.0</ele><time>2026-03-29T16:39:25.999Z</time></trkpt><trkpt lat="45.50396930275365" lon="9.109241959274714"><ele>134.0</ele><time>2026-03-29T16:39:26.999Z</time></trkpt><trkpt lat="45.50393497918895" lon="9.109360836449227"><ele>134.0</ele><time>2026-03-29T16:39:28.999Z</time></trkpt><trkpt lat="45.5038685290997" lon="9.109470545827408"><ele>134.0</ele><time>2026-03-29T16:39:30.999Z</time></trkpt><trkpt lat="45.50382518788997" lon="9.109540489285472"><ele>134.0</ele><time>2026-03-29T16:39:31.999Z</time></trkpt><trkpt lat="45.50378577494724" lon="9.109632634577963"><ele>134.0</ele><time>2026-03-29T16:39:33Z</time></trkpt><trkpt lat="45.5037507619142" lon="9.109717136287038"><ele>134.0</ele><time>2026-03-29T16:39:34Z</time></trkpt><trkpt lat="45.50375288096723" lon="9.109834441613827"><ele>134.0</ele><time>2026-03-29T16:39:35Z</time></trkpt><trkpt lat="45.50377956941291" lon="9.109942256229706"><ele>134.0</ele><time>2026-03-29T16:39:36Z</time></trkpt><trkpt lat="45.503765313102555" lon="9.110062772930787"><ele>134.0</ele><time>2026-03-29T16:39:37Z</time></trkpt><trkpt lat="45.50373253178801" lon="9.110187826376391"><ele>134.0</ele><time>2026-03-29T16:39:38Z</time></trkpt><trkpt lat="45.50370076678588" lon="9.110324135713649"><ele>134.0</ele><time>2026-03-29T16:39:39Z</time></trkpt><trkpt lat="45.503689488744875" lon="9.110422897431215"><ele>134.0</ele><time>2026-03-29T16:39:40Z</time></trkpt><trkpt lat="45.503662401987356" lon="9.110562445445177"><ele>134.0</ele><time>2026-03-29T16:39:41Z</time></trkpt><trkpt lat="45.5036199770367" lon="9.11069550231034"><ele>134.0</ele><time>2026-03-29T16:39:42Z</time></trkpt><trkpt lat="45.50359471943402" lon="9.110813758134437"><ele>134.0</ele><time>2026-03-29T16:39:43Z</time></trkpt><trkpt lat="45.50356747877694" lon="9.110913357934836"><ele>134.0</ele><time>2026-03-29T16:39:44Z</time></trkpt><trkpt lat="45.50354954459036" lon="9.111004942165204"><ele>134.0</ele><time>2026-03-29T16:39:45Z</time></trkpt><trkpt lat="45.50353065950712" lon="9.111093135985715"><ele>134.0</ele><time>2026-03-29T16:39:46Z</time></trkpt><trkpt lat="45.503490171363865" lon="9.111248353860018"><ele>134.0</ele><time>2026-03-29T16:39:48Z</time></trkpt><trkpt lat="45.503459860670404" lon="9.111332511131987"><ele>134.0</ele><time>2026-03-29T16:39:49Z</time></trkpt><trkpt lat="45.50341667665986" lon="9.11141744292425"><ele>134.0</ele><time>2026-03-29T16:39:50Z</time></trkpt><trkpt lat="45.5033617088756" lon="9.111502642709457"><ele>134.0</ele><time>2026-03-29T16:39:51Z</time></trkpt><trkpt lat="45.50333513874982" lon="9.111650108302516"><ele>134.0</ele><time>2026-03-29T16:39:52Z</time></trkpt><trkpt lat="45.5033487081699" lon="9.11182291157181"><ele>134.0</ele><time>2026-03-29T16:39:53Z</time></trkpt><trkpt lat="45.50331324435996" lon="9.111977123112187"><ele>133.75</ele><time>2026-03-29T16:39:54Z</time></trkpt><trkpt lat="45.503277622021464" lon="9.11214167325231"><ele>133.5</ele><time>2026-03-29T16:39:55Z</time></trkpt><trkpt lat="45.50324034939167" lon="9.1123137329669"><ele>133.25</ele><time>2026-03-29T16:39:56Z</time></trkpt><trkpt lat="45.50319695773589" lon="9.112484597175095"><ele>133.0</ele><time>2026-03-29T16:39:57Z</time></trkpt><trkpt lat="45.50314883935948" lon="9.112658580578252"><ele>133.0</ele><time>2026-03-29T16:39:58Z</time></trkpt><trkpt lat="45.50310695735623" lon="9.112825490019155"><ele>133.0</ele><time>2026-03-29T16:39:59Z</time></trkpt><trkpt lat="45.50307478950823" lon="9.112981421877095"><ele>133.0</ele><time>2026-03-29T16:40:00Z</time></trkpt><trkpt lat="45.50303752620516" lon="9.113134261783337"><ele>133.0</ele><time>2026-03-29T16:40:01Z</time></trkpt><trkpt lat="45.50299639112022" lon="9.113284711645555"><ele>133.75</ele><time>2026-03-29T16:40:02Z</time></trkpt><trkpt lat="45.502955027914176" lon="9.113447294152069"><ele>134.5</ele><time>2026-03-29T16:40:03Z</time></trkpt><trkpt lat="45.50291352624184" lon="9.11361134366807"><ele>135.25</ele><time>2026-03-29T16:40:04Z</time></trkpt><trkpt lat="45.50286858612861" lon="9.113769084193006"><ele>136.0</ele><time>2026-03-29T16:40:05Z</time></trkpt><trkpt lat="45.50282614460517" lon="9.113935488757969"><ele>135.25</ele><time>2026-03-29T16:40:06Z</time></trkpt><trkpt lat="45.50279546801663" lon="9.114097163234396"><ele>134.5</ele><time>2026-03-29T16:40:07Z</time></trkpt><trkpt lat="45.50274782473411" lon="9.11424833581957"><ele>133.75</ele><time>2026-03-29T16:40:08Z</time></trkpt><trkpt lat="45.50270770330821" lon="9.114393957356597"><ele>133.0</ele><time>2026-03-29T16:40:09Z</time></trkpt><trkpt lat="45.502690375034724" lon="9.114547904404535"><ele>133.0</ele><time>2026-03-29T16:40:10Z</time></trkpt><trkpt lat="45.502658897522544" lon="9.114682336637621"><ele>133.0</ele><time>2026-03-29T16:40:11Z</time></trkpt><trkpt lat="45.5026351033596" lon="9.114794712743887"><ele>133.0</ele><time>2026-03-29T16:40:12Z</time></trkpt><trkpt lat="45.50261163785014" lon="9.11488618051346"><ele>133.0</ele><time>2026-03-29T16:40:13Z</time></trkpt><trkpt lat="45.50255915825375" lon="9.115044993999025"><ele>133.0</ele><time>2026-03-29T16:40:15Z</time></trkpt><trkpt lat="45.502517704419354" lon="9.115119116227763"><ele>133.0</ele><time>2026-03-29T16:40:16Z</time></trkpt><trkpt lat="45.50243873765306" lon="9.11525703612519"><ele>133.20000000000002</ele><time>2026-03-29T16:40:18Z</time></trkpt><trkpt lat="45.50241217182376" lon="9.115342351355938"><ele>133.4</ele><time>2026-03-29T16:40:19Z</time></trkpt><trkpt lat="45.50242487469937" lon="9.115491777402204"><ele>133.60000000000002</ele><time>2026-03-29T16:40:21Z</time></trkpt><trkpt lat="45.502415648696406" lon="9.11560278069943"><ele>133.8</ele><time>2026-03-29T16:40:22Z</time></trkpt><trkpt lat="45.50239574999142" lon="9.115747988921083"><ele>134.0</ele><time>2026-03-29T16:40:23Z</time></trkpt><trkpt lat="45.50236947390638" lon="9.115936200191337"><ele>134.0</ele><time>2026-03-29T16:40:24Z</time></trkpt><trkpt lat="45.5023266767877" lon="9.11614075906515"><ele>134.0</ele><time>2026-03-29T16:40:25Z</time></trkpt><trkpt lat="45.50225424510445" lon="9.116371265162634"><ele>134.0</ele><time>2026-03-29T16:40:26Z</time></trkpt><trkpt lat="45.502190775288376" lon="9.116638880138826"><ele>134.0</ele><time>2026-03-29T16:40:27Z</time></trkpt><trkpt lat="45.502117605502086" lon="9.116949508613898"><ele>134.0</ele><time>2026-03-29T16:40:28Z</time></trkpt><trkpt lat="45.50204648318841" lon="9.117251445082495"><ele>133.33333333333331</ele><time>2026-03-29T16:40:29Z</time></trkpt><trkpt lat="45.50197681626035" lon="9.11754720295814"><ele>132.66666666666666</ele><time>2026-03-29T16:40:30Z</time></trkpt><trkpt lat="45.50190880855111" lon="9.11783370479323"><ele>132.0</ele><time>2026-03-29T16:40:31Z</time></trkpt><trkpt lat="45.50185117463997" lon="9.118072046471829"><ele>131.66666666666666</ele><time>2026-03-29T16:40:32Z</time></trkpt><trkpt lat="45.50179938339741" lon="9.118300056936937"><ele>131.33333333333331</ele><time>2026-03-29T16:40:33Z</time></trkpt><trkpt lat="45.50173517933859" lon="9.118556464866707"><ele>131.0</ele><time>2026-03-29T16:40:34Z</time></trkpt><trkpt lat="45.50168412586205" lon="9.118791705893772"><ele>131.0</ele><time>2026-03-29T16:40:35Z</time></trkpt><trkpt lat="45.50163394500817" lon="9.118991692913612"><ele>131.0</ele><time>2026-03-29T16:40:36Z</time></trkpt><trkpt lat="45.5015933730975" lon="9.119180814580334"><ele>131.0</ele><time>2026-03-29T16:40:37Z</time></trkpt><trkpt lat="45.501564235832674" lon="9.119356749381975"><ele>131.0</ele><time>2026-03-29T16:40:38Z</time></trkpt><trkpt lat="45.50153445950719" lon="9.119495885789162"><ele>131.2</ele><time>2026-03-29T16:40:39Z</time></trkpt><trkpt lat="45.50151548819561" lon="9.119683235534348"><ele>131.39999999999998</ele><time>2026-03-29T16:40:40Z</time></trkpt><trkpt lat="45.50149424754492" lon="9.119821282074659"><ele>131.6</ele><time>2026-03-29T16:40:41Z</time></trkpt><trkpt lat="45.501485558504406" lon="9.11993475373071"><ele>131.79999999999998</ele><time>2026-03-29T16:40:42Z</time></trkpt><trkpt lat="45.50141460265341" lon="9.120068280563936"><ele>132.0</ele><time>2026-03-29T16:40:44Z</time></trkpt><trkpt lat="45.501365312982706" lon="9.120154253246527"><ele>132.4</ele><time>2026-03-29T16:40:45Z</time></trkpt><trkpt lat="45.5013657167076" lon="9.120254577911359"><ele>132.79999999999998</ele><time>2026-03-29T16:40:46Z</time></trkpt><trkpt lat="45.5014046730883" lon="9.120356033467996"><ele>133.2</ele><time>2026-03-29T16:40:47Z</time></trkpt><trkpt lat="45.501490665445026" lon="9.120433853789052"><ele>133.6</ele><time>2026-03-29T16:40:48Z</time></trkpt><trkpt lat="45.501606209344345" lon="9.120488673877993"><ele>134.0</ele><time>2026-03-29T16:40:49Z</time></trkpt><trkpt lat="45.50172065929755" lon="9.12059392972809"><ele>134.0</ele><time>2026-03-29T16:40:50Z</time></trkpt><trkpt lat="45.501871008358684" lon="9.120664693394302"><ele>134.0</ele><time>2026-03-29T16:40:51Z</time></trkpt><trkpt lat="45.50202943491594" lon="9.120739413725897"><ele>134.0</ele><time>2026-03-29T16:40:52Z</time></trkpt><trkpt lat="45.50214378843525" lon="9.120803355627716"><ele>134.0</ele><time>2026-03-29T16:40:53Z</time></trkpt><trkpt lat="45.50227753290506" lon="9.120830041082206"><ele>133.75</ele><time>2026-03-29T16:40:54Z</time></trkpt><trkpt lat="45.50239825491593" lon="9.120910107630175"><ele>133.5</ele><time>2026-03-29T16:40:55Z</time></trkpt><trkpt lat="45.502503270749244" lon="9.120992212449465"><ele>133.25</ele><time>2026-03-29T16:40:56Z</time></trkpt><trkpt lat="45.502590318239" lon="9.12106179163139"><ele>133.0</ele><time>2026-03-29T16:40:57Z</time></trkpt><trkpt lat="45.50269596480901" lon="9.121129951976847"><ele>133.0</ele><time>2026-03-29T16:40:58Z</time></trkpt><trkpt lat="45.502788466006734" lon="9.121220046409691"><ele>133.0</ele><time>2026-03-29T16:40:59Z</time></trkpt><trkpt lat="45.50287495941279" lon="9.121296766526518"><ele>133.0</ele><time>2026-03-29T16:41:00Z</time></trkpt><trkpt lat="45.502940534673435" lon="9.121360132583884"><ele>133.0</ele><time>2026-03-29T16:41:01Z</time></trkpt><trkpt lat="45.50303676741698" lon="9.121455259992873"><ele>133.0</ele><time>2026-03-29T16:41:03Z</time></trkpt><trkpt lat="45.50310578794563" lon="9.121513395779601"><ele>133.4</ele><time>2026-03-29T16:41:04Z</time></trkpt><trkpt lat="45.50316430701608" lon="9.121587518767026"><ele>133.8</ele><time>2026-03-29T16:41:04.999Z</time></trkpt><trkpt lat="45.503214563422" lon="9.121642764754357"><ele>134.2</ele><time>2026-03-29T16:41:05.999Z</time></trkpt><trkpt lat="45.503299683391425" lon="9.121742237420607"><ele>134.6</ele><time>2026-03-29T16:41:07.999Z</time></trkpt><trkpt lat="45.503429336619945" lon="9.121882671342924"><ele>135.0</ele><time>2026-03-29T16:41:09.999Z</time></trkpt><trkpt lat="45.50344776390156" lon="9.121982649858221"><ele>135.0</ele><time>2026-03-29T16:41:10.999Z</time></trkpt><trkpt lat="45.50325330689471" lon="9.122158393353283"><ele>135.0</ele><time>2026-03-29T16:41:11.999Z</time></trkpt><trkpt lat="45.50319591684933" lon="9.12228549681651"><ele>135.0</ele><time>2026-03-29T16:41:12.999Z</time></trkpt><trkpt lat="45.50312873193235" lon="9.122402717049267"><ele>135.0</ele><time>2026-03-29T16:41:13.999Z</time></trkpt><trkpt lat="45.50307297049374" lon="9.122515710529864"><ele>135.0</ele><time>2026-03-29T16:41:14.999Z</time></trkpt><trkpt lat="45.50302839243822" lon="9.12262977921063"><ele>135.0</ele><time>2026-03-29T16:41:15.999Z</time></trkpt><trkpt lat="45.50298319201112" lon="9.12271184159709"><ele>135.0</ele><time>2026-03-29T16:41:16.999Z</time></trkpt><trkpt lat="45.502923957071125" lon="9.122857836726386"><ele>135.0</ele><time>2026-03-29T16:41:18.999Z</time></trkpt><trkpt lat="45.50290525936401" lon="9.122994739972304"><ele>135.0</ele><time>2026-03-29T16:41:20.999Z</time></trkpt><trkpt lat="45.50284076051689" lon="9.123059139068122"><ele>135.16666666666666</ele><time>2026-03-29T16:41:21.999Z</time></trkpt><trkpt lat="45.502797892451966" lon="9.123138288166485"><ele>135.33333333333334</ele><time>2026-03-29T16:41:22.999Z</time></trkpt><trkpt lat="45.50276236325118" lon="9.12321789229467"><ele>135.5</ele><time>2026-03-29T16:41:23.999Z</time></trkpt><trkpt lat="45.502723040651794" lon="9.123295598344104"><ele>135.66666666666669</ele><time>2026-03-29T16:41:25.999Z</time></trkpt><trkpt lat="45.50265728885292" lon="9.123431552447489"><ele>135.83333333333334</ele><time>2026-03-29T16:41:27.999Z</time></trkpt><trkpt lat="45.50261725912866" lon="9.123532915767816"><ele>136.0</ele><time>2026-03-29T16:41:28.999Z</time></trkpt><trkpt lat="45.502565197501944" lon="9.12365364715265"><ele>136.0</ele><time>2026-03-29T16:41:29.999Z</time></trkpt><trkpt lat="45.50249547326163" lon="9.123784607240822"><ele>136.0</ele><time>2026-03-29T16:41:30.999Z</time></trkpt><trkpt lat="45.502415069865954" lon="9.123904105621579"><ele>136.0</ele><time>2026-03-29T16:41:31.999Z</time></trkpt><trkpt lat="45.50236417724404" lon="9.12400398983783"><ele>136.0</ele><time>2026-03-29T16:41:32.999Z</time></trkpt><trkpt lat="45.5023084356698" lon="9.124134714656314"><ele>136.0</ele><time>2026-03-29T16:41:33.999Z</time></trkpt><trkpt lat="45.50227558376916" lon="9.124257833280906"><ele>136.0</ele><time>2026-03-29T16:41:34.999Z</time></trkpt><trkpt lat="45.50223471348667" lon="9.124386125929137"><ele>136.0</ele><time>2026-03-29T16:41:35.999Z</time></trkpt><trkpt lat="45.50216643569091" lon="9.124553133005586"><ele>136.0</ele><time>2026-03-29T16:41:36.999Z</time></trkpt><trkpt lat="45.50208859194087" lon="9.124703766351368"><ele>136.0</ele><time>2026-03-29T16:41:37.999Z</time></trkpt><trkpt lat="45.50200909196165" lon="9.124871874442604"><ele>136.0</ele><time>2026-03-29T16:41:39Z</time></trkpt><trkpt lat="45.501933346037944" lon="9.125043709583684"><ele>136.0</ele><time>2026-03-29T16:41:40Z</time></trkpt><trkpt lat="45.50185865203425" lon="9.125217117364011"><ele>136.0</ele><time>2026-03-29T16:41:41Z</time></trkpt><trkpt lat="45.501789810679725" lon="9.125396601481642"><ele>136.0</ele><time>2026-03-29T16:41:42Z</time></trkpt><trkpt lat="45.50170198405004" lon="9.125569678916367"><ele>136.0</ele><time>2026-03-29T16:41:43Z</time></trkpt><trkpt lat="45.50162447861485" lon="9.125744568216192"><ele>136.0</ele><time>2026-03-29T16:41:44Z</time></trkpt><trkpt lat="45.50159158652399" lon="9.125942365675922"><ele>136.0</ele><time>2026-03-29T16:41:45Z</time></trkpt><trkpt lat="45.50153935699867" lon="9.126105593177192"><ele>136.0</ele><time>2026-03-29T16:41:46Z</time></trkpt><trkpt lat="45.501454784196966" lon="9.126234027921559"><ele>136.0</ele><time>2026-03-29T16:41:47Z</time></trkpt><trkpt lat="45.50140514275941" lon="9.126342239921202"><ele>136.0</ele><time>2026-03-29T16:41:48Z</time></trkpt><trkpt lat="45.501312141439755" lon="9.12651054731149"><ele>136.0</ele><time>2026-03-29T16:41:49Z</time></trkpt><trkpt lat="45.50119251994795" lon="9.126659956553953"><ele>136.0</ele><time>2026-03-29T16:41:50Z</time></trkpt><trkpt lat="45.50112571148118" lon="9.126878929035474"><ele>135.66666666666669</ele><time>2026-03-29T16:41:51Z</time></trkpt><trkpt lat="45.5010402210484" lon="9.127074945677744"><ele>135.33333333333334</ele><time>2026-03-29T16:41:52Z</time></trkpt><trkpt lat="45.500949750663075" lon="9.127264504889142"><ele>135.0</ele><time>2026-03-29T16:41:53Z</time></trkpt><trkpt lat="45.50087702113155" lon="9.127473162989721"><ele>134.66666666666666</ele><time>2026-03-29T16:41:54Z</time></trkpt><trkpt lat="45.50076576067786" lon="9.127697725999411"><ele>134.33333333333331</ele><time>2026-03-29T16:41:55Z</time></trkpt><trkpt lat="45.50063890925189" lon="9.127911577277086"><ele>134.0</ele><time>2026-03-29T16:41:56Z</time></trkpt><trkpt lat="45.500537244297035" lon="9.128125281987755"><ele>134.66666666666666</ele><time>2026-03-29T16:41:57Z</time></trkpt><trkpt lat="45.50045674752989" lon="9.128323986012976"><ele>135.33333333333334</ele><time>2026-03-29T16:41:58Z</time></trkpt><trkpt lat="45.50037825673343" lon="9.12853417005287"><ele>136.0</ele><time>2026-03-29T16:41:59Z</time></trkpt><trkpt lat="45.50028240041248" lon="9.12865135397389"><ele>136.0</ele><time>2026-03-29T16:42:00Z</time></trkpt><trkpt lat="45.50019717733665" lon="9.128826655810096"><ele>136.0</ele><time>2026-03-29T16:42:01Z</time></trkpt><trkpt lat="45.50012541572075" lon="9.128990437188929"><ele>136.0</ele><time>2026-03-29T16:42:02Z</time></trkpt><trkpt lat="45.50006549408935" lon="9.129151993671849"><ele>136.0</ele><time>2026-03-29T16:42:03Z</time></trkpt><trkpt lat="45.50001685363033" lon="9.129296836250635"><ele>136.0</ele><time>2026-03-29T16:42:04Z</time></trkpt><trkpt lat="45.499974515843896" lon="9.129398800853396"><ele>136.0</ele><time>2026-03-29T16:42:05Z</time></trkpt><trkpt lat="45.499916739306975" lon="9.12948907552507"><ele>136.0</ele><time>2026-03-29T16:42:06Z</time></trkpt><trkpt lat="45.499879122962" lon="9.129625347123307"><ele>136.0</ele><time>2026-03-29T16:42:07Z</time></trkpt><trkpt lat="45.49983455773173" lon="9.129727973164341"><ele>136.0</ele><time>2026-03-29T16:42:09Z</time></trkpt><trkpt lat="45.4997701720206" lon="9.129825803231816"><ele>135.8</ele><time>2026-03-29T16:42:11Z</time></trkpt><trkpt lat="45.49980021110283" lon="9.12990873803934"><ele>135.6</ele><time>2026-03-29T16:42:46Z</time></trkpt><trkpt lat="45.49973843334961" lon="9.129989907949904"><ele>135.4</ele><time>2026-03-29T16:42:49Z</time></trkpt><trkpt lat="45.49968876548484" lon="9.130153472937357"><ele>135.2</ele><time>2026-03-29T16:42:51Z</time></trkpt><trkpt lat="45.499600584906105" lon="9.130311160166633"><ele>135.0</ele><time>2026-03-29T16:42:53Z</time></trkpt><trkpt lat="45.49955652247747" lon="9.130431216538085"><ele>135.0</ele><time>2026-03-29T16:42:55Z</time></trkpt><trkpt lat="45.4994445596485" lon="9.130574169296874"><ele>135.0</ele><time>2026-03-29T16:42:57Z</time></trkpt><trkpt lat="45.49936684312974" lon="9.130744986646912"><ele>135.0</ele><time>2026-03-29T16:42:59Z</time></trkpt><trkpt lat="45.49930379760083" lon="9.130882654492469"><ele>135.0</ele><time>2026-03-29T16:43:00Z</time></trkpt><trkpt lat="45.49926448242883" lon="9.131013340534833"><ele>135.0</ele><time>2026-03-29T16:43:01Z</time></trkpt><trkpt lat="45.49920054120254" lon="9.131121637750438"><ele>135.0</ele><time>2026-03-29T16:43:02Z</time></trkpt><trkpt lat="45.499153950674945" lon="9.131238711132756"><ele>135.0</ele><time>2026-03-29T16:43:03Z</time></trkpt><trkpt lat="45.499106317651" lon="9.131333308828937"><ele>135.0</ele><time>2026-03-29T16:43:04Z</time></trkpt><trkpt lat="45.49906430825186" lon="9.131439017991996"><ele>135.0</ele><time>2026-03-29T16:43:05Z</time></trkpt><trkpt lat="45.499016866306555" lon="9.131529048346376"><ele>135.0</ele><time>2026-03-29T16:43:05.999Z</time></trkpt><trkpt lat="45.49897156922296" lon="9.131647422531287"><ele>135.0</ele><time>2026-03-29T16:43:06.999Z</time></trkpt><trkpt lat="45.498894757721416" lon="9.131788137173194"><ele>135.0</ele><time>2026-03-29T16:43:07.999Z</time></trkpt><trkpt lat="45.49883732913449" lon="9.131915913649953"><ele>135.0</ele><time>2026-03-29T16:43:08.999Z</time></trkpt><trkpt lat="45.49879631289839" lon="9.132063618617996"><ele>135.0</ele><time>2026-03-29T16:43:10.999Z</time></trkpt><trkpt lat="45.498745048865125" lon="9.132159085989672"><ele>135.0</ele><time>2026-03-29T16:43:11.999Z</time></trkpt><trkpt lat="45.498712745155686" lon="9.132255473776441"><ele>135.14285714285714</ele><time>2026-03-29T16:43:12.999Z</time></trkpt><trkpt lat="45.49867064209603" lon="9.132350731558656"><ele>135.28571428571428</ele><time>2026-03-29T16:43:13.999Z</time></trkpt><trkpt lat="45.49863415649692" lon="9.132433527631322"><ele>135.42857142857142</ele><time>2026-03-29T16:43:14.999Z</time></trkpt><trkpt lat="45.498597688590806" lon="9.132530922167195"><ele>135.57142857142856</ele><time>2026-03-29T16:43:15.999Z</time></trkpt><trkpt lat="45.49856375342433" lon="9.132611237261536"><ele>135.71428571428572</ele><time>2026-03-29T16:43:16.999Z</time></trkpt><trkpt lat="45.4985262845684" lon="9.1326890030975"><ele>135.85714285714283</ele><time>2026-03-29T16:43:17.999Z</time></trkpt><trkpt lat="45.49848570158729" lon="9.132778577343315"><ele>136.0</ele><time>2026-03-29T16:43:18.999Z</time></trkpt><trkpt lat="45.49845198281344" lon="9.132856690458341"><ele>135.83333333333334</ele><time>2026-03-29T16:43:19.999Z</time></trkpt><trkpt lat="45.49841733595773" lon="9.132937556326116"><ele>135.66666666666669</ele><time>2026-03-29T16:43:20.999Z</time></trkpt><trkpt lat="45.49838824284883" lon="9.133017264860207"><ele>135.5</ele><time>2026-03-29T16:43:21.999Z</time></trkpt><trkpt lat="45.498338986824805" lon="9.133129840161642"><ele>135.33333333333334</ele><time>2026-03-29T16:43:23.999Z</time></trkpt><trkpt lat="45.49826247427143" lon="9.133221110103612"><ele>135.16666666666666</ele><time>2026-03-29T16:43:25.999Z</time></trkpt><trkpt lat="45.49824227259198" lon="9.133353541683162"><ele>135.0</ele><time>2026-03-29T16:43:27.999Z</time></trkpt><trkpt lat="45.49827811122323" lon="9.133470439287214"><ele>135.0</ele><time>2026-03-29T16:43:29.999Z</time></trkpt><trkpt lat="45.49831004875529" lon="9.133560125948739"><ele>135.0</ele><time>2026-03-29T16:43:30.999Z</time></trkpt><trkpt lat="45.49814750022575" lon="9.133706925372342"><ele>135.0</ele><time>2026-03-29T16:43:34.999Z</time></trkpt><trkpt lat="45.49808986674203" lon="9.133834154437631"><ele>135.0</ele><time>2026-03-29T16:43:35.999Z</time></trkpt><trkpt lat="45.498021335291746" lon="9.133985441332953"><ele>135.0</ele><time>2026-03-29T16:43:36.999Z</time></trkpt><trkpt lat="45.497947676529876" lon="9.134148047023174"><ele>135.0</ele><time>2026-03-29T16:43:37.999Z</time></trkpt><trkpt lat="45.49785848236661" lon="9.13430215600494"><ele>135.0</ele><time>2026-03-29T16:43:38.999Z</time></trkpt><trkpt lat="45.497751958380185" lon="9.134485632672746"><ele>135.0</ele><time>2026-03-29T16:43:39.999Z</time></trkpt><trkpt lat="45.497640981668766" lon="9.134714629711215"><ele>135.0</ele><time>2026-03-29T16:43:40.999Z</time></trkpt><trkpt lat="45.49754437834914" lon="9.134926253687166"><ele>135.0</ele><time>2026-03-29T16:43:41.999Z</time></trkpt><trkpt lat="45.49744418206682" lon="9.135145752717808"><ele>135.0</ele><time>2026-03-29T16:43:42.999Z</time></trkpt><trkpt lat="45.497354889329" lon="9.135342128803309"><ele>135.0</ele><time>2026-03-29T16:43:43.999Z</time></trkpt><trkpt lat="45.49728306580859" lon="9.13558932047574"><ele>135.0</ele><time>2026-03-29T16:43:45Z</time></trkpt><trkpt lat="45.49720275343735" lon="9.135792714045888"><ele>135.0</ele><time>2026-03-29T16:43:46Z</time></trkpt><trkpt lat="45.49712095228668" lon="9.136001662175639"><ele>134.66666666666666</ele><time>2026-03-29T16:43:47Z</time></trkpt><trkpt lat="45.4970276987878" lon="9.13619142734868"><ele>134.33333333333331</ele><time>2026-03-29T16:43:48Z</time></trkpt><trkpt lat="45.49694275490288" lon="9.13638336479383"><ele>134.0</ele><time>2026-03-29T16:43:49Z</time></trkpt><trkpt lat="45.496862504167396" lon="9.136566666403537"><ele>133.75</ele><time>2026-03-29T16:43:50Z</time></trkpt><trkpt lat="45.49678117456951" lon="9.136737497139794"><ele>133.5</ele><time>2026-03-29T16:43:51Z</time></trkpt><trkpt lat="45.49670925588624" lon="9.136886954389716"><ele>133.25</ele><time>2026-03-29T16:43:52Z</time></trkpt><trkpt lat="45.49664481326353" lon="9.13705026481757"><ele>133.0</ele><time>2026-03-29T16:43:53Z</time></trkpt><trkpt lat="45.49656845620077" lon="9.137195092246255"><ele>133.0</ele><time>2026-03-29T16:43:54Z</time></trkpt><trkpt lat="45.49649386818355" lon="9.137335034648238"><ele>133.0</ele><time>2026-03-29T16:43:55Z</time></trkpt><trkpt lat="45.496428999693066" lon="9.137472517240688"><ele>133.0</ele><time>2026-03-29T16:43:56Z</time></trkpt><trkpt lat="45.49635460186393" lon="9.137633969260433"><ele>133.0</ele><time>2026-03-29T16:43:57Z</time></trkpt><trkpt lat="45.49628061537634" lon="9.137793794806937"><ele>133.25</ele><time>2026-03-29T16:43:58Z</time></trkpt><trkpt lat="45.496214441329236" lon="9.137944042634379"><ele>133.5</ele><time>2026-03-29T16:43:59Z</time></trkpt><trkpt lat="45.49616677935333" lon="9.138113495586945"><ele>133.75</ele><time>2026-03-29T16:44:00Z</time></trkpt><trkpt lat="45.49612529536435" lon="9.138310798154077"><ele>134.0</ele><time>2026-03-29T16:44:01Z</time></trkpt><trkpt lat="45.496045727509504" lon="9.138473443779695"><ele>134.0</ele><time>2026-03-29T16:44:02Z</time></trkpt><trkpt lat="45.4959495842319" lon="9.1385555367868"><ele>134.0</ele><time>2026-03-29T16:44:03Z</time></trkpt><trkpt lat="45.495949753889846" lon="9.138717862154442"><ele>134.0</ele><time>2026-03-29T16:44:04Z</time></trkpt><trkpt lat="45.49589261632108" lon="9.138844197440148"><ele>134.0</ele><time>2026-03-29T16:44:05Z</time></trkpt><trkpt lat="45.495829300926665" lon="9.138938849032911"><ele>134.0</ele><time>2026-03-29T16:44:06Z</time></trkpt><trkpt lat="45.4957870832733" lon="9.139055037569676"><ele>134.0</ele><time>2026-03-29T16:44:07Z</time></trkpt><trkpt lat="45.495721614281784" lon="9.139058851129139"><ele>134.0</ele><time>2026-03-29T16:44:08Z</time></trkpt><trkpt lat="45.495658990396535" lon="9.139242989550468"><ele>134.0</ele><time>2026-03-29T16:44:10Z</time></trkpt><trkpt lat="45.49562531911653" lon="9.13936910104418"><ele>134.0</ele><time>2026-03-29T16:44:12Z</time></trkpt><trkpt lat="45.495576710695964" lon="9.139436154859427"><ele>134.0</ele><time>2026-03-29T16:44:15Z</time></trkpt><trkpt lat="45.49550599117447" lon="9.139591531250975"><ele>134.33333333333331</ele><time>2026-03-29T16:44:18Z</time></trkpt><trkpt lat="45.49541148785772" lon="9.139785923993658"><ele>134.66666666666666</ele><time>2026-03-29T16:44:19Z</time></trkpt><trkpt lat="45.4953404861322" lon="9.13996659427766"><ele>135.0</ele><time>2026-03-29T16:44:20Z</time></trkpt><trkpt lat="45.495224154053645" lon="9.140244662272524"><ele>135.33333333333334</ele><time>2026-03-29T16:44:21Z</time></trkpt><trkpt lat="45.49511010698913" lon="9.140521272881525"><ele>135.66666666666669</ele><time>2026-03-29T16:44:22Z</time></trkpt><trkpt lat="45.49503302986399" lon="9.1407882110591"><ele>136.0</ele><time>2026-03-29T16:44:23Z</time></trkpt><trkpt lat="45.49487770660802" lon="9.141030944853627"><ele>135.33333333333334</ele><time>2026-03-29T16:44:24Z</time></trkpt><trkpt lat="45.49473456989105" lon="9.141237171902597"><ele>134.66666666666666</ele><time>2026-03-29T16:44:25Z</time></trkpt><trkpt lat="45.494625858564106" lon="9.141477272816946"><ele>134.0</ele><time>2026-03-29T16:44:26Z</time></trkpt><trkpt lat="45.49456330050537" lon="9.141686667856968"><ele>134.0</ele><time>2026-03-29T16:44:27Z</time></trkpt><trkpt lat="45.49445394330637" lon="9.141896302188115"><ele>134.0</ele><time>2026-03-29T16:44:28Z</time></trkpt><trkpt lat="45.494343539442944" lon="9.142105864366634"><ele>134.0</ele><time>2026-03-29T16:44:29Z</time></trkpt><trkpt lat="45.49427836293532" lon="9.142315971864821"><ele>134.0</ele><time>2026-03-29T16:44:30Z</time></trkpt><trkpt lat="45.4941990388435" lon="9.142513976365954"><ele>134.0</ele><time>2026-03-29T16:44:31Z</time></trkpt><trkpt lat="45.494111388630586" lon="9.14270958294191"><ele>134.0</ele><time>2026-03-29T16:44:32Z</time></trkpt><trkpt lat="45.494033691097435" lon="9.142879706803097"><ele>134.0</ele><time>2026-03-29T16:44:33Z</time></trkpt><trkpt lat="45.49393690974594" lon="9.14299999245033"><ele>134.0</ele><time>2026-03-29T16:44:34Z</time></trkpt><trkpt lat="45.493885788422496" lon="9.143112965531238"><ele>134.0</ele><time>2026-03-29T16:44:35Z</time></trkpt><trkpt lat="45.49384717801986" lon="9.143198290700004"><ele>134.0</ele><time>2026-03-29T16:44:36Z</time></trkpt><trkpt lat="45.4938114506681" lon="9.143277742383466"><ele>134.0</ele><time>2026-03-29T16:44:37Z</time></trkpt><trkpt lat="45.49387747323068" lon="9.14343453582439"><ele>134.0</ele><time>2026-03-29T16:44:40Z</time></trkpt><trkpt lat="45.49393609134693" lon="9.143510382457595"><ele>134.0</ele><time>2026-03-29T16:44:43Z</time></trkpt><trkpt lat="45.4939712003991" lon="9.143629682298092"><ele>134.0</ele><time>2026-03-29T16:44:44Z</time></trkpt><trkpt lat="45.49402562821767" lon="9.143803106601089"><ele>134.0</ele><time>2026-03-29T16:44:45Z</time></trkpt><trkpt lat="45.49408358775744" lon="9.143948772149468"><ele>134.0</ele><time>2026-03-29T16:44:46Z</time></trkpt><trkpt lat="45.49411053332238" lon="9.144070617912824"><ele>134.16666666666666</ele><time>2026-03-29T16:44:47Z</time></trkpt><trkpt lat="45.49413634267155" lon="9.144179544454403"><ele>134.33333333333331</ele><time>2026-03-29T16:44:48Z</time></trkpt><trkpt lat="45.494169291244894" lon="9.14430197481461"><ele>134.5</ele><time>2026-03-29T16:44:50Z</time></trkpt><trkpt lat="45.49419851254172" lon="9.144388545012811"><ele>134.66666666666666</ele><time>2026-03-29T16:45:12.999Z</time></trkpt><trkpt lat="45.4942446483018" lon="9.144541638313866"><ele>134.83333333333334</ele><time>2026-03-29T16:45:14.999Z</time></trkpt><trkpt lat="45.49428065650661" lon="9.144622608017913"><ele>135.0</ele><time>2026-03-29T16:45:15.999Z</time></trkpt><trkpt lat="45.494302285728416" lon="9.14473756225702"><ele>135.0</ele><time>2026-03-29T16:45:16.999Z</time></trkpt><trkpt lat="45.49433965004437" lon="9.144823079259965"><ele>135.0</ele><time>2026-03-29T16:45:17.999Z</time></trkpt><trkpt lat="45.494364166919596" lon="9.144923945850303"><ele>135.0</ele><time>2026-03-29T16:45:18.999Z</time></trkpt><trkpt lat="45.49438662298937" lon="9.145019134584931"><ele>135.0</ele><time>2026-03-29T16:45:19.999Z</time></trkpt><trkpt lat="45.49441910004078" lon="9.145138991213805"><ele>135.0</ele><time>2026-03-29T16:45:20.999Z</time></trkpt><trkpt lat="45.49444928559999" lon="9.145263115129628"><ele>135.0</ele><time>2026-03-29T16:45:21.999Z</time></trkpt><trkpt lat="45.49448173704091" lon="9.145367594744227"><ele>135.0</ele><time>2026-03-29T16:45:22.999Z</time></trkpt><trkpt lat="45.494515196060824" lon="9.145488791228475"><ele>135.0</ele><time>2026-03-29T16:45:23.999Z</time></trkpt><trkpt lat="45.494550361807846" lon="9.145613574363017"><ele>135.0</ele><time>2026-03-29T16:45:24.999Z</time></trkpt><trkpt lat="45.4945876566038" lon="9.145738119307676"><ele>135.0</ele><time>2026-03-29T16:45:25.999Z</time></trkpt><trkpt lat="45.49462239591753" lon="9.14585551136476"><ele>135.0</ele><time>2026-03-29T16:45:26.999Z</time></trkpt><trkpt lat="45.49466025935554" lon="9.145983496206417"><ele>134.8</ele><time>2026-03-29T16:45:27.999Z</time></trkpt><trkpt lat="45.49469567757724" lon="9.14610003455535"><ele>134.6</ele><time>2026-03-29T16:45:28.999Z</time></trkpt><trkpt lat="45.494725256226715" lon="9.146217743512212"><ele>134.4</ele><time>2026-03-29T16:45:29.999Z</time></trkpt><trkpt lat="45.49475760245397" lon="9.146336817989148"><ele>134.2</ele><time>2026-03-29T16:45:30.999Z</time></trkpt><trkpt lat="45.49479987751523" lon="9.146468598362768"><ele>134.0</ele><time>2026-03-29T16:45:31.999Z</time></trkpt><trkpt lat="45.4948389066247" lon="9.14659756786243"><ele>134.0</ele><time>2026-03-29T16:45:32.999Z</time></trkpt><trkpt lat="45.49489200954818" lon="9.146754968264519"><ele>134.0</ele><time>2026-03-29T16:45:33.999Z</time></trkpt><trkpt lat="45.49493138530962" lon="9.146898672253798"><ele>134.0</ele><time>2026-03-29T16:45:34.999Z</time></trkpt><trkpt lat="45.494976665806384" lon="9.147041008142745"><ele>134.0</ele><time>2026-03-29T16:45:35.999Z</time></trkpt><trkpt lat="45.4950079660078" lon="9.147181815603176"><ele>134.0</ele><time>2026-03-29T16:45:36.999Z</time></trkpt><trkpt lat="45.49503185062881" lon="9.147307288001734"><ele>133.66666666666666</ele><time>2026-03-29T16:45:37.999Z</time></trkpt><trkpt lat="45.49506420959604" lon="9.147402056855576"><ele>133.33333333333331</ele><time>2026-03-29T16:45:38.999Z</time></trkpt><trkpt lat="45.495097954500444" lon="9.147489966179288"><ele>133.0</ele><time>2026-03-29T16:45:39.999Z</time></trkpt><trkpt lat="45.495146357438735" lon="9.14760337739948"><ele>132.66666666666666</ele><time>2026-03-29T16:45:41.999Z</time></trkpt><trkpt lat="45.49516483414444" lon="9.147748278311834"><ele>132.33333333333334</ele><time>2026-03-29T16:45:49.999Z</time></trkpt><trkpt lat="45.49511528942778" lon="9.147872972962086"><ele>132.0</ele><time>2026-03-29T16:45:54Z</time></trkpt><trkpt lat="45.49503249960692" lon="9.147946249661942"><ele>132.0</ele><time>2026-03-29T16:45:55Z</time></trkpt><trkpt lat="45.49497023335382" lon="9.14800136115653"><ele>132.0</ele><time>2026-03-29T16:45:56Z</time></trkpt><trkpt lat="45.4948501848651" lon="9.148107228491225"><ele>132.0</ele><time>2026-03-29T16:45:57Z</time></trkpt><trkpt lat="45.49473395617695" lon="9.14822994194503"><ele>132.0</ele><time>2026-03-29T16:45:58Z</time></trkpt><trkpt lat="45.49461412833546" lon="9.148308896003702"><ele>132.5</ele><time>2026-03-29T16:45:59Z</time></trkpt><trkpt lat="45.49449264726773" lon="9.148403802852549"><ele>133.0</ele><time>2026-03-29T16:46:00Z</time></trkpt><trkpt lat="45.49437527665534" lon="9.14851343083389"><ele>133.5</ele><time>2026-03-29T16:46:01Z</time></trkpt><trkpt lat="45.49425833876439" lon="9.148617140821784"><ele>134.0</ele><time>2026-03-29T16:46:02Z</time></trkpt><trkpt lat="45.49413565002483" lon="9.148709603118622"><ele>134.0</ele><time>2026-03-29T16:46:03Z</time></trkpt><trkpt lat="45.49402528453203" lon="9.148797385420504"><ele>134.0</ele><time>2026-03-29T16:46:04Z</time></trkpt><trkpt lat="45.49390922553759" lon="9.148910401058323"><ele>134.0</ele><time>2026-03-29T16:46:05Z</time></trkpt><trkpt lat="45.493813638431114" lon="9.148982956209004"><ele>134.0</ele><time>2026-03-29T16:46:06Z</time></trkpt><trkpt lat="45.49374672242975" lon="9.149040846543128"><ele>134.25</ele><time>2026-03-29T16:46:07Z</time></trkpt><trkpt lat="45.49366564859259" lon="9.14912378797423"><ele>134.5</ele><time>2026-03-29T16:46:08Z</time></trkpt><trkpt lat="45.49362373448528" lon="9.149245602277576"><ele>134.75</ele><time>2026-03-29T16:46:10Z</time></trkpt><trkpt lat="45.493734025431976" lon="9.149490203994398"><ele>135.0</ele><time>2026-03-29T16:46:12Z</time></trkpt><trkpt lat="45.493775273825825" lon="9.149666161687305"><ele>134.0</ele><time>2026-03-29T16:46:13Z</time></trkpt><trkpt lat="45.49384345302759" lon="9.149867984002777"><ele>133.0</ele><time>2026-03-29T16:46:14Z</time></trkpt><trkpt lat="45.493880203174506" lon="9.150065385648922"><ele>132.0</ele><time>2026-03-29T16:46:15Z</time></trkpt><trkpt lat="45.49393986659747" lon="9.150273833785688"><ele>132.0</ele><time>2026-03-29T16:46:16Z</time></trkpt><trkpt lat="45.49399543086499" lon="9.15046489362043"><ele>132.0</ele><time>2026-03-29T16:46:17Z</time></trkpt><trkpt lat="45.49404074890758" lon="9.150631232950571"><ele>132.0</ele><time>2026-03-29T16:46:18Z</time></trkpt><trkpt lat="45.49409062475474" lon="9.150781667621535"><ele>132.0</ele><time>2026-03-29T16:46:19Z</time></trkpt><trkpt lat="45.49413426267091" lon="9.150953961339564"><ele>132.25</ele><time>2026-03-29T16:46:20Z</time></trkpt><trkpt lat="45.494176044071985" lon="9.15109092870108"><ele>132.5</ele><time>2026-03-29T16:46:21Z</time></trkpt><trkpt lat="45.49419924834144" lon="9.15120282557471"><ele>132.75</ele><time>2026-03-29T16:46:22Z</time></trkpt><trkpt lat="45.49425153280638" lon="9.151406342723272"><ele>133.0</ele><time>2026-03-29T16:46:23Z</time></trkpt><trkpt lat="45.4943070086036" lon="9.151588164908759"><ele>133.0</ele><time>2026-03-29T16:46:24Z</time></trkpt><trkpt lat="45.494351524969126" lon="9.15174763195153"><ele>133.0</ele><time>2026-03-29T16:46:25Z</time></trkpt><trkpt lat="45.49440130183338" lon="9.151928053320002"><ele>133.0</ele><time>2026-03-29T16:46:26Z</time></trkpt><trkpt lat="45.49446135719002" lon="9.152095579047668"><ele>133.0</ele><time>2026-03-29T16:46:27Z</time></trkpt><trkpt lat="45.494495094178575" lon="9.152215283958302"><ele>133.0</ele><time>2026-03-29T16:46:28Z</time></trkpt><trkpt lat="45.49452807084239" lon="9.15233762196301"><ele>133.0</ele><time>2026-03-29T16:46:29Z</time></trkpt><trkpt lat="45.49454612841601" lon="9.152468572567974"><ele>133.0</ele><time>2026-03-29T16:46:31Z</time></trkpt><trkpt lat="45.49447339341716" lon="9.152593783732902"><ele>133.0</ele><time>2026-03-29T16:46:33Z</time></trkpt><trkpt lat="45.494411541688066" lon="9.152679726772467"><ele>133.0</ele><time>2026-03-29T16:46:34Z</time></trkpt><trkpt lat="45.49435465422984" lon="9.152758485516149"><ele>133.16666666666669</ele><time>2026-03-29T16:46:35Z</time></trkpt><trkpt lat="45.494292718151215" lon="9.152861929893712"><ele>133.33333333333334</ele><time>2026-03-29T16:46:37Z</time></trkpt><trkpt lat="45.494226428520975" lon="9.15290994399216"><ele>133.5</ele><time>2026-03-29T16:46:41Z</time></trkpt><trkpt lat="45.49417767493588" lon="9.152973075906667"><ele>133.66666666666666</ele><time>2026-03-29T16:46:42Z</time></trkpt><trkpt lat="45.49412730086541" lon="9.153046708570084"><ele>133.83333333333331</ele><time>2026-03-29T16:46:43Z</time></trkpt><trkpt lat="45.49403486950289" lon="9.153144307747958"><ele>134.0</ele><time>2026-03-29T16:46:45Z</time></trkpt><trkpt lat="45.49396784196766" lon="9.153258357545448"><ele>134.0</ele><time>2026-03-29T16:46:47Z</time></trkpt><trkpt lat="45.493887385730275" lon="9.153365533519697"><ele>134.0</ele><time>2026-03-29T16:46:49Z</time></trkpt><trkpt lat="45.49382364133472" lon="9.153469354402413"><ele>134.0</ele><time>2026-03-29T16:46:51Z</time></trkpt><trkpt lat="45.493756570822875" lon="9.153509782645232"><ele>134.0</ele><time>2026-03-29T16:46:54Z</time></trkpt><trkpt lat="45.4936349733397" lon="9.153103230420355"><ele>134.4</ele><time>2026-03-29T16:47:07Z</time></trkpt><trkpt lat="45.49365599303621" lon="9.152932950819112"><ele>134.8</ele><time>2026-03-29T16:47:09Z</time></trkpt><trkpt lat="45.49358039023682" lon="9.15285057106485"><ele>135.2</ele><time>2026-03-29T16:47:11Z</time></trkpt><trkpt lat="45.49353804630269" lon="9.152930178601157"><ele>135.6</ele><time>2026-03-29T16:47:14.017Z</time></trkpt><trkpt lat="45.49346649130056" lon="9.152977403178218"><ele>136.0</ele><time>2026-03-29T16:47:17.014Z</time></trkpt><trkpt lat="45.49355663363402" lon="9.152647499003589"><ele>136.0</ele><time>2026-03-29T16:47:27.999Z</time></trkpt><trkpt lat="45.4931250900553" lon="9.152621871422923"><ele>136.0</ele><time>2026-03-29T16:47:29.999Z</time></trkpt><trkpt lat="45.493024096457056" lon="9.15262738953645"><ele>136.0</ele><time>2026-03-29T16:47:31.999Z</time></trkpt><trkpt lat="45.492996077100614" lon="9.152734535875567"><ele>136.0</ele><time>2026-03-29T16:47:36.999Z</time></trkpt><trkpt lat="45.49313134592417" lon="9.152678321895749"><ele>136.0</ele><time>2026-03-29T16:47:37.999Z</time></trkpt><trkpt lat="45.49321745372118" lon="9.15266375919554"><ele>136.0</ele><time>2026-03-29T16:48:08.029Z</time></trkpt><trkpt lat="45.49339450801362" lon="9.152454756891778"><ele>136.0</ele><time>2026-03-29T16:48:13Z</time></trkpt><trkpt lat="45.493376302497786" lon="9.15259105611119"><ele>136.0</ele><time>2026-03-29T16:48:50Z</time></trkpt><trkpt lat="45.49328803642354" lon="9.152687124093012"><ele>136.0</ele><time>2026-03-29T16:48:51Z</time></trkpt><trkpt lat="45.4933035556545" lon="9.152781038707609"><ele>136.0</ele><time>2026-03-29T16:48:53Z</time></trkpt><trkpt lat="45.49342872641561" lon="9.153648539445498"><ele>134.0</ele><time>2026-03-29T16:49:34.013Z</time></trkpt><trkpt lat="45.49345050613354" lon="9.153744007194387"><ele>134.0</ele><time>2026-03-29T16:49:38.018Z</time></trkpt><trkpt lat="45.49337557851915" lon="9.153620840510722"><ele>134.0</ele><time>2026-03-29T16:49:40.019Z</time></trkpt><trkpt lat="45.49345678885995" lon="9.153558769594802"><ele>134.0</ele><time>2026-03-29T16:49:51.999Z</time></trkpt><trkpt lat="45.493513550301735" lon="9.153502731561781"><ele>134.0</ele><time>2026-03-29T16:49:56.012Z</time></trkpt></trkseg></trk></gpx>